<?xml version='1.0' encoding='UTF-8'?><gpx version="1.1" creator="JPX - https://github.com/jenetics/jpx" xmlns="http://www.topografix.com/GPX/1/1"><trk><trkseg><trkpt lat="44.9184517" lon="8.27254"><ele>131.0</ele><time>2026-04-04T06:54:50.105Z</time></trkpt><trkpt lat="44.9184467" lon="8.27267"><ele>131.0</ele><time>2026-04-04T06:54:53.101Z</time></trkpt><trkpt lat="44.91845" lon="8.2728"><ele>131.0</ele><time>2026-04-04T06:54:56.097Z</time></trkpt><trkpt lat="44.9184633" lon="8.2729017"><ele>131.0</ele><time>2026-04-04T06:55:01.104Z</time></trkpt><trkpt lat="44.9185667" lon="8.2729117"><ele>131.0</ele><time>2026-04-04T06:55:04.103Z</time></trkpt><trkpt lat="44.9186733" lon="8.2729083"><ele>131.0</ele><time>2026-04-04T06:55:06.103Z</time></trkpt><trkpt lat="44.9187767" lon="8.272895"><ele>131.0</ele><time>2026-04-04T06:55:08.1Z</time></trkpt><trkpt lat="44.9188767" lon="8.2728883"><ele>131.0</ele><time>2026-04-04T06:55:10.103Z</time></trkpt><trkpt lat="44.9189833" lon="8.2728633"><ele>131.0</ele><time>2026-04-04T06:55:12.099Z</time></trkpt><trkpt lat="44.919095" lon="8.2728233"><ele>131.0</ele><time>2026-04-04T06:55:14.099Z</time></trkpt><trkpt lat="44.9192" lon="8.2728017"><ele>131.16666666666666</ele><time>2026-04-04T06:55:16.102Z</time></trkpt><trkpt lat="44.9193033" lon="8.27279"><ele>131.33333333333331</ele><time>2026-04-04T06:55:18.099Z</time></trkpt><trkpt lat="44.9194233" lon="8.272775"><ele>131.5</ele><time>2026-04-04T06:55:20.1Z</time></trkpt><trkpt lat="44.9194933" lon="8.2727717"><ele>131.66666666666666</ele><time>2026-04-04T06:55:21.101Z</time></trkpt><trkpt lat="44.9195667" lon="8.2727683"><ele>131.83333333333334</ele><time>2026-04-04T06:55:22.102Z</time></trkpt><trkpt lat="44.91964" lon="8.272765"><ele>132.0</ele><time>2026-04-04T06:55:23.104Z</time></trkpt><trkpt lat="44.9197167" lon="8.2727667"><ele>132.0</ele><time>2026-04-04T06:55:24.101Z</time></trkpt><trkpt lat="44.9198" lon="8.27277"><ele>132.0</ele><time>2026-04-04T06:55:25.103Z</time></trkpt><trkpt lat="44.9198867" lon="8.2727733"><ele>132.0</ele><time>2026-04-04T06:55:26.106Z</time></trkpt><trkpt lat="44.91998" lon="8.2727767"><ele>132.0</ele><time>2026-04-04T06:55:27.102Z</time></trkpt><trkpt lat="44.9200733" lon="8.2727867"><ele>132.0</ele><time>2026-04-04T06:55:28.109Z</time></trkpt><trkpt lat="44.9201667" lon="8.272795"><ele>131.4</ele><time>2026-04-04T06:55:29.101Z</time></trkpt><trkpt lat="44.92026" lon="8.2728033"><ele>130.79999999999998</ele><time>2026-04-04T06:55:30.1Z</time></trkpt><trkpt lat="44.9203567" lon="8.2728083"><ele>130.2</ele><time>2026-04-04T06:55:31.104Z</time></trkpt><trkpt lat="44.9204517" lon="8.2728"><ele>129.6</ele><time>2026-04-04T06:55:32.107Z</time></trkpt><trkpt lat="44.9205483" lon="8.27279"><ele>129.0</ele><time>2026-04-04T06:55:33.103Z</time></trkpt><trkpt lat="44.9206467" lon="8.2727717"><ele>129.0</ele><time>2026-04-04T06:55:34.099Z</time></trkpt><trkpt lat="44.9207483" lon="8.2727467"><ele>129.0</ele><time>2026-04-04T06:55:35.104Z</time></trkpt><trkpt lat="44.9208517" lon="8.2727133"><ele>129.0</ele><time>2026-04-04T06:55:36.1Z</time></trkpt><trkpt lat="44.9209567" lon="8.272675"><ele>129.0</ele><time>2026-04-04T06:55:37.1Z</time></trkpt><trkpt lat="44.9210633" lon="8.2726333"><ele>129.0</ele><time>2026-04-04T06:55:38.106Z</time></trkpt><trkpt lat="44.921175" lon="8.2725933"><ele>128.6</ele><time>2026-04-04T06:55:39.1Z</time></trkpt><trkpt lat="44.921285" lon="8.2725517"><ele>128.2</ele><time>2026-04-04T06:55:40.101Z</time></trkpt><trkpt lat="44.9213933" lon="8.2725117"><ele>127.79999999999998</ele><time>2026-04-04T06:55:41.105Z</time></trkpt><trkpt lat="44.921495" lon="8.272475"><ele>127.39999999999999</ele><time>2026-04-04T06:55:42.101Z</time></trkpt><trkpt lat="44.9216" lon="8.2724383"><ele>127.0</ele><time>2026-04-04T06:55:43.1Z</time></trkpt><trkpt lat="44.9216983" lon="8.272405"><ele>127.19999999999999</ele><time>2026-04-04T06:55:44.105Z</time></trkpt><trkpt lat="44.921795" lon="8.27237"><ele>127.39999999999999</ele><time>2026-04-04T06:55:45.098Z</time></trkpt><trkpt lat="44.9218867" lon="8.2723417"><ele>127.60000000000001</ele><time>2026-04-04T06:55:46.102Z</time></trkpt><trkpt lat="44.921975" lon="8.2723117"><ele>127.80000000000001</ele><time>2026-04-04T06:55:47.105Z</time></trkpt><trkpt lat="44.9220617" lon="8.2722817"><ele>128.0</ele><time>2026-04-04T06:55:48.104Z</time></trkpt><trkpt lat="44.9221483" lon="8.2722567"><ele>128.66666666666666</ele><time>2026-04-04T06:55:49.103Z</time></trkpt><trkpt lat="44.92223" lon="8.2722333"><ele>129.33333333333331</ele><time>2026-04-04T06:55:50.104Z</time></trkpt><trkpt lat="44.92231" lon="8.2722133"><ele>130.0</ele><time>2026-04-04T06:55:51.104Z</time></trkpt><trkpt lat="44.92239" lon="8.2721933"><ele>130.66666666666666</ele><time>2026-04-04T06:55:52.102Z</time></trkpt><trkpt lat="44.9224717" lon="8.2721683"><ele>131.33333333333334</ele><time>2026-04-04T06:55:53.102Z</time></trkpt><trkpt lat="44.9225583" lon="8.27214"><ele>132.0</ele><time>2026-04-04T06:55:54.104Z</time></trkpt><trkpt lat="44.922645" lon="8.2721117"><ele>132.0</ele><time>2026-04-04T06:55:55.102Z</time></trkpt><trkpt lat="44.9227317" lon="8.272085"><ele>132.0</ele><time>2026-04-04T06:55:56.1Z</time></trkpt><trkpt lat="44.9228183" lon="8.2720567"><ele>132.0</ele><time>2026-04-04T06:55:57.101Z</time></trkpt><trkpt lat="44.9229033" lon="8.2720283"><ele>132.0</ele><time>2026-04-04T06:55:58.104Z</time></trkpt><trkpt lat="44.922985" lon="8.272"><ele>132.0</ele><time>2026-04-04T06:55:59.1Z</time></trkpt><trkpt lat="44.9230683" lon="8.2719667"><ele>132.0</ele><time>2026-04-04T06:56:00.099Z</time></trkpt><trkpt lat="44.9231483" lon="8.27194"><ele>132.0</ele><time>2026-04-04T06:56:01.1Z</time></trkpt><trkpt lat="44.9232317" lon="8.2719133"><ele>132.0</ele><time>2026-04-04T06:56:02.1Z</time></trkpt><trkpt lat="44.9233117" lon="8.271885"><ele>132.0</ele><time>2026-04-04T06:56:03.101Z</time></trkpt><trkpt lat="44.92339" lon="8.27186"><ele>132.0</ele><time>2026-04-04T06:56:04.1Z</time></trkpt><trkpt lat="44.92347" lon="8.271835"><ele>132.0</ele><time>2026-04-04T06:56:05.1Z</time></trkpt><trkpt lat="44.92355" lon="8.2718133"><ele>132.0</ele><time>2026-04-04T06:56:06.103Z</time></trkpt><trkpt lat="44.9236383" lon="8.2717883"><ele>131.4</ele><time>2026-04-04T06:56:07.107Z</time></trkpt><trkpt lat="44.92373" lon="8.2717667"><ele>130.79999999999998</ele><time>2026-04-04T06:56:08.104Z</time></trkpt><trkpt lat="44.923825" lon="8.2717417"><ele>130.2</ele><time>2026-04-04T06:56:09.1Z</time></trkpt><trkpt lat="44.9239167" lon="8.2717183"><ele>129.6</ele><time>2026-04-04T06:56:10.105Z</time></trkpt><trkpt lat="44.924005" lon="8.2716967"><ele>129.0</ele><time>2026-04-04T06:56:11.102Z</time></trkpt><trkpt lat="44.9240967" lon="8.2716883"><ele>129.0</ele><time>2026-04-04T06:56:12.101Z</time></trkpt><trkpt lat="44.9241933" lon="8.27169"><ele>129.0</ele><time>2026-04-04T06:56:13.1Z</time></trkpt><trkpt lat="44.9242933" lon="8.2717067"><ele>129.0</ele><time>2026-04-04T06:56:14.103Z</time></trkpt><trkpt lat="44.9243967" lon="8.2717383"><ele>129.0</ele><time>2026-04-04T06:56:15.101Z</time></trkpt><trkpt lat="44.9245" lon="8.271775"><ele>129.0</ele><time>2026-04-04T06:56:16.105Z</time></trkpt><trkpt lat="44.9246" lon="8.271815"><ele>129.4</ele><time>2026-04-04T06:56:17.103Z</time></trkpt><trkpt lat="44.9247067" lon="8.2718583"><ele>129.8</ele><time>2026-04-04T06:56:18.104Z</time></trkpt><trkpt lat="44.9248133" lon="8.2719017"><ele>130.2</ele><time>2026-04-04T06:56:19.099Z</time></trkpt><trkpt lat="44.9249217" lon="8.2719433"><ele>130.6</ele><time>2026-04-04T06:56:20.101Z</time></trkpt><trkpt lat="44.9250283" lon="8.27199"><ele>131.0</ele><time>2026-04-04T06:56:21.099Z</time></trkpt><trkpt lat="44.9251367" lon="8.2720367"><ele>131.66666666666666</ele><time>2026-04-04T06:56:22.099Z</time></trkpt><trkpt lat="44.9252367" lon="8.2720817"><ele>132.33333333333331</ele><time>2026-04-04T06:56:23.107Z</time></trkpt><trkpt lat="44.9253317" lon="8.272125"><ele>133.0</ele><time>2026-04-04T06:56:24.104Z</time></trkpt><trkpt lat="44.9254167" lon="8.27216"><ele>133.66666666666666</ele><time>2026-04-04T06:56:25.1Z</time></trkpt><trkpt lat="44.9254867" lon="8.2721883"><ele>134.33333333333334</ele><time>2026-04-04T06:56:26.102Z</time></trkpt><trkpt lat="44.9255483" lon="8.2722217"><ele>135.0</ele><time>2026-04-04T06:56:27.106Z</time></trkpt><trkpt lat="44.9256067" lon="8.27227"><ele>134.4</ele><time>2026-04-04T06:56:28.103Z</time></trkpt><trkpt lat="44.9256183" lon="8.272455"><ele>133.8</ele><time>2026-04-04T06:56:30.106Z</time></trkpt><trkpt lat="44.9256033" lon="8.2725733"><ele>133.2</ele><time>2026-04-04T06:56:31.102Z</time></trkpt><trkpt lat="44.9255817" lon="8.2727017"><ele>132.6</ele><time>2026-04-04T06:56:32.098Z</time></trkpt><trkpt lat="44.9255633" lon="8.2728417"><ele>132.0</ele><time>2026-04-04T06:56:33.101Z</time></trkpt><trkpt lat="44.9255483" lon="8.2729733"><ele>132.0</ele><time>2026-04-04T06:56:34.103Z</time></trkpt><trkpt lat="44.9255333" lon="8.273095"><ele>132.0</ele><time>2026-04-04T06:56:35.103Z</time></trkpt><trkpt lat="44.92552" lon="8.2732033"><ele>132.0</ele><time>2026-04-04T06:56:36.103Z</time></trkpt><trkpt lat="44.925505" lon="8.2733"><ele>132.0</ele><time>2026-04-04T06:56:37.101Z</time></trkpt><trkpt lat="44.9254833" lon="8.2734233"><ele>132.0</ele><time>2026-04-04T06:56:39.098Z</time></trkpt><trkpt lat="44.9255317" lon="8.2735283"><ele>132.0</ele><time>2026-04-04T06:56:42.096Z</time></trkpt><trkpt lat="44.9256117" lon="8.27355"><ele>131.6</ele><time>2026-04-04T06:56:43.101Z</time></trkpt><trkpt lat="44.925695" lon="8.2735733"><ele>131.2</ele><time>2026-04-04T06:56:44.101Z</time></trkpt><trkpt lat="44.925785" lon="8.2736033"><ele>130.8</ele><time>2026-04-04T06:56:45.099Z</time></trkpt><trkpt lat="44.925885" lon="8.2736367"><ele>130.4</ele><time>2026-04-04T06:56:46.101Z</time></trkpt><trkpt lat="44.9259967" lon="8.2736733"><ele>130.0</ele><time>2026-04-04T06:56:47.1Z</time></trkpt><trkpt lat="44.926115" lon="8.2737133"><ele>130.0</ele><time>2026-04-04T06:56:48.1Z</time></trkpt><trkpt lat="44.9262367" lon="8.2737533"><ele>130.0</ele><time>2026-04-04T06:56:49.104Z</time></trkpt><trkpt lat="44.9263667" lon="8.2737967"><ele>130.0</ele><time>2026-04-04T06:56:50.098Z</time></trkpt><trkpt lat="44.9264983" lon="8.2738333"><ele>130.0</ele><time>2026-04-04T06:56:51.101Z</time></trkpt><trkpt lat="44.92663" lon="8.2738683"><ele>130.75</ele><time>2026-04-04T06:56:52.102Z</time></trkpt><trkpt lat="44.92677" lon="8.2739017"><ele>131.5</ele><time>2026-04-04T06:56:53.103Z</time></trkpt><trkpt lat="44.9269067" lon="8.2739317"><ele>132.25</ele><time>2026-04-04T06:56:54.104Z</time></trkpt><trkpt lat="44.9270533" lon="8.2739567"><ele>133.0</ele><time>2026-04-04T06:56:55.102Z</time></trkpt><trkpt lat="44.9271967" lon="8.2739817"><ele>134.5</ele><time>2026-04-04T06:56:56.105Z</time></trkpt><trkpt lat="44.927335" lon="8.2739967"><ele>136.0</ele><time>2026-04-04T06:56:57.102Z</time></trkpt><trkpt lat="44.9274767" lon="8.2740067"><ele>137.5</ele><time>2026-04-04T06:56:58.102Z</time></trkpt><trkpt lat="44.92762" lon="8.2740167"><ele>139.0</ele><time>2026-04-04T06:56:59.104Z</time></trkpt><trkpt lat="44.9277633" lon="8.2740267"><ele>139.0</ele><time>2026-04-04T06:57:00.101Z</time></trkpt><trkpt lat="44.9279083" lon="8.27405"><ele>139.0</ele><time>2026-04-04T06:57:01.103Z</time></trkpt><trkpt lat="44.928045" lon="8.2740833"><ele>139.0</ele><time>2026-04-04T06:57:02.108Z</time></trkpt><trkpt lat="44.92818" lon="8.2741367"><ele>139.0</ele><time>2026-04-04T06:57:03.101Z</time></trkpt><trkpt lat="44.928315" lon="8.2742"><ele>137.25</ele><time>2026-04-04T06:57:04.102Z</time></trkpt><trkpt lat="44.92844" lon="8.2742733"><ele>135.5</ele><time>2026-04-04T06:57:05.1Z</time></trkpt><trkpt lat="44.9285583" lon="8.27435"><ele>133.75</ele><time>2026-04-04T06:57:06.104Z</time></trkpt><trkpt lat="44.9286767" lon="8.2744283"><ele>132.0</ele><time>2026-04-04T06:57:07.1Z</time></trkpt><trkpt lat="44.9287933" lon="8.2745"><ele>132.0</ele><time>2026-04-04T06:57:08.1Z</time></trkpt><trkpt lat="44.9289067" lon="8.27457"><ele>132.0</ele><time>2026-04-04T06:57:09.102Z</time></trkpt><trkpt lat="44.9290217" lon="8.274645"><ele>132.0</ele><time>2026-04-04T06:57:10.099Z</time></trkpt><trkpt lat="44.9291433" lon="8.2747117"><ele>132.0</ele><time>2026-04-04T06:57:11.1Z</time></trkpt><trkpt lat="44.9292683" lon="8.2747667"><ele>132.25</ele><time>2026-04-04T06:57:12.099Z</time></trkpt><trkpt lat="44.9294017" lon="8.274795"><ele>132.5</ele><time>2026-04-04T06:57:13.1Z</time></trkpt><trkpt lat="44.9295317" lon="8.2748017"><ele>132.75</ele><time>2026-04-04T06:57:14.101Z</time></trkpt><trkpt lat="44.929665" lon="8.2747767"><ele>133.0</ele><time>2026-04-04T06:57:15.101Z</time></trkpt><trkpt lat="44.9297983" lon="8.2747367"><ele>133.0</ele><time>2026-04-04T06:57:16.106Z</time></trkpt><trkpt lat="44.9299217" lon="8.2746983"><ele>133.0</ele><time>2026-04-04T06:57:17.104Z</time></trkpt><trkpt lat="44.9300517" lon="8.2746567"><ele>133.0</ele><time>2026-04-04T06:57:18.106Z</time></trkpt><trkpt lat="44.93018" lon="8.274625"><ele>133.0</ele><time>2026-04-04T06:57:19.104Z</time></trkpt><trkpt lat="44.93031" lon="8.27461"><ele>133.0</ele><time>2026-04-04T06:57:20.101Z</time></trkpt><trkpt lat="44.9304383" lon="8.274615"><ele>133.0</ele><time>2026-04-04T06:57:21.101Z</time></trkpt><trkpt lat="44.93057" lon="8.2746267"><ele>133.0</ele><time>2026-04-04T06:57:22.103Z</time></trkpt><trkpt lat="44.9307017" lon="8.27464"><ele>133.0</ele><time>2026-04-04T06:57:23.102Z</time></trkpt><trkpt lat="44.93084" lon="8.2746617"><ele>132.75</ele><time>2026-04-04T06:57:24.109Z</time></trkpt><trkpt lat="44.9309767" lon="8.27469"><ele>132.5</ele><time>2026-04-04T06:57:25.111Z</time></trkpt><trkpt lat="44.931115" lon="8.2747067"><ele>132.25</ele><time>2026-04-04T06:57:26.104Z</time></trkpt><trkpt lat="44.931255" lon="8.2747117"><ele>132.0</ele><time>2026-04-04T06:57:27.097Z</time></trkpt><trkpt lat="44.9314" lon="8.274705"><ele>132.0</ele><time>2026-04-04T06:57:28.098Z</time></trkpt><trkpt lat="44.9315433" lon="8.2746883"><ele>132.0</ele><time>2026-04-04T06:57:29.101Z</time></trkpt><trkpt lat="44.931685" lon="8.27467"><ele>132.0</ele><time>2026-04-04T06:57:30.098Z</time></trkpt><trkpt lat="44.9318183" lon="8.27465"><ele>132.0</ele><time>2026-04-04T06:57:31.1Z</time></trkpt><trkpt lat="44.9319517" lon="8.2746367"><ele>132.75</ele><time>2026-04-04T06:57:32.101Z</time></trkpt><trkpt lat="44.9320833" lon="8.2746533"><ele>133.5</ele><time>2026-04-04T06:57:33.103Z</time></trkpt><trkpt lat="44.9322133" lon="8.2746917"><ele>134.25</ele><time>2026-04-04T06:57:34.1Z</time></trkpt><trkpt lat="44.93234" lon="8.2747483"><ele>135.0</ele><time>2026-04-04T06:57:35.099Z</time></trkpt><trkpt lat="44.932465" lon="8.27481"><ele>135.75</ele><time>2026-04-04T06:57:36.101Z</time></trkpt><trkpt lat="44.9325933" lon="8.2748733"><ele>136.5</ele><time>2026-04-04T06:57:37.11Z</time></trkpt><trkpt lat="44.93273" lon="8.2749383"><ele>137.25</ele><time>2026-04-04T06:57:38.104Z</time></trkpt><trkpt lat="44.9328583" lon="8.2750133"><ele>138.0</ele><time>2026-04-04T06:57:39.101Z</time></trkpt><trkpt lat="44.932995" lon="8.27508"><ele>138.0</ele><time>2026-04-04T06:57:40.102Z</time></trkpt><trkpt lat="44.9331367" lon="8.275145"><ele>138.0</ele><time>2026-04-04T06:57:41.102Z</time></trkpt><trkpt lat="44.9332733" lon="8.2752117"><ele>138.0</ele><time>2026-04-04T06:57:42.102Z</time></trkpt><trkpt lat="44.93341" lon="8.27529"><ele>138.0</ele><time>2026-04-04T06:57:43.103Z</time></trkpt><trkpt lat="44.9335467" lon="8.2753933"><ele>138.5</ele><time>2026-04-04T06:57:44.104Z</time></trkpt><trkpt lat="44.9336667" lon="8.275525"><ele>139.0</ele><time>2026-04-04T06:57:45.099Z</time></trkpt><trkpt lat="44.9337633" lon="8.2756783"><ele>139.5</ele><time>2026-04-04T06:57:46.101Z</time></trkpt><trkpt lat="44.9338483" lon="8.2758483"><ele>140.0</ele><time>2026-04-04T06:57:47.107Z</time></trkpt><trkpt lat="44.9339233" lon="8.276035"><ele>140.0</ele><time>2026-04-04T06:57:48.103Z</time></trkpt><trkpt lat="44.9339933" lon="8.2762233"><ele>140.0</ele><time>2026-04-04T06:57:49.111Z</time></trkpt><trkpt lat="44.9340683" lon="8.2764083"><ele>140.0</ele><time>2026-04-04T06:57:50.103Z</time></trkpt><trkpt lat="44.9341683" lon="8.2765783"><ele>138.33333333333331</ele><time>2026-04-04T06:57:51.101Z</time></trkpt><trkpt lat="44.9342733" lon="8.2767467"><ele>136.66666666666666</ele><time>2026-04-04T06:57:52.101Z</time></trkpt><trkpt lat="44.9343833" lon="8.2769117"><ele>135.0</ele><time>2026-04-04T06:57:53.099Z</time></trkpt><trkpt lat="44.9345017" lon="8.277085"><ele>135.0</ele><time>2026-04-04T06:57:54.099Z</time></trkpt><trkpt lat="44.9346167" lon="8.2772533"><ele>135.0</ele><time>2026-04-04T06:57:55.1Z</time></trkpt><trkpt lat="44.9347467" lon="8.27741"><ele>135.0</ele><time>2026-04-04T06:57:56.102Z</time></trkpt><trkpt lat="44.93488" lon="8.2775667"><ele>135.66666666666666</ele><time>2026-04-04T06:57:57.102Z</time></trkpt><trkpt lat="44.9350267" lon="8.2777083"><ele>136.33333333333331</ele><time>2026-04-04T06:57:58.104Z</time></trkpt><trkpt lat="44.935165" lon="8.2778483"><ele>137.0</ele><time>2026-04-04T06:57:59.104Z</time></trkpt><trkpt lat="44.9352967" lon="8.27799"><ele>138.33333333333331</ele><time>2026-04-04T06:58:00.104Z</time></trkpt><trkpt lat="44.9354283" lon="8.2781233"><ele>139.66666666666666</ele><time>2026-04-04T06:58:01.106Z</time></trkpt><trkpt lat="44.9355733" lon="8.278245"><ele>141.0</ele><time>2026-04-04T06:58:02.106Z</time></trkpt><trkpt lat="44.9357267" lon="8.2783433"><ele>141.0</ele><time>2026-04-04T06:58:03.103Z</time></trkpt><trkpt lat="44.935875" lon="8.27845"><ele>141.0</ele><time>2026-04-04T06:58:04.1Z</time></trkpt><trkpt lat="44.9360183" lon="8.27856"><ele>141.0</ele><time>2026-04-04T06:58:05.101Z</time></trkpt><trkpt lat="44.93617" lon="8.2786567"><ele>141.0</ele><time>2026-04-04T06:58:06.101Z</time></trkpt><trkpt lat="44.9363033" lon="8.2787817"><ele>141.0</ele><time>2026-04-04T06:58:07.103Z</time></trkpt><trkpt lat="44.9364367" lon="8.278925"><ele>141.0</ele><time>2026-04-04T06:58:08.1Z</time></trkpt><trkpt lat="44.9365633" lon="8.279085"><ele>140.0</ele><time>2026-04-04T06:58:09.099Z</time></trkpt><trkpt lat="44.93667" lon="8.2792383"><ele>139.0</ele><time>2026-04-04T06:58:10.105Z</time></trkpt><trkpt lat="44.936785" lon="8.2793817"><ele>138.0</ele><time>2026-04-04T06:58:11.104Z</time></trkpt><trkpt lat="44.9369133" lon="8.27951"><ele>138.0</ele><time>2026-04-04T06:58:12.102Z</time></trkpt><trkpt lat="44.9370517" lon="8.2796283"><ele>138.0</ele><time>2026-04-04T06:58:13.109Z</time></trkpt><trkpt lat="44.937195" lon="8.27974"><ele>138.0</ele><time>2026-04-04T06:58:14.1Z</time></trkpt><trkpt lat="44.9373467" lon="8.2798517"><ele>139.0</ele><time>2026-04-04T06:58:15.105Z</time></trkpt><trkpt lat="44.937495" lon="8.2799667"><ele>140.0</ele><time>2026-04-04T06:58:16.1Z</time></trkpt><trkpt lat="44.9376417" lon="8.28008"><ele>141.0</ele><time>2026-04-04T06:58:17.101Z</time></trkpt><trkpt lat="44.937795" lon="8.28018"><ele>141.0</ele><time>2026-04-04T06:58:18.1Z</time></trkpt><trkpt lat="44.9379433" lon="8.28026"><ele>141.0</ele><time>2026-04-04T06:58:19.101Z</time></trkpt><trkpt lat="44.9380933" lon="8.2803333"><ele>141.0</ele><time>2026-04-04T06:58:20.1Z</time></trkpt><trkpt lat="44.93824" lon="8.28041"><ele>141.0</ele><time>2026-04-04T06:58:21.102Z</time></trkpt><trkpt lat="44.9383783" lon="8.2804717"><ele>141.0</ele><time>2026-04-04T06:58:22.102Z</time></trkpt><trkpt lat="44.93852" lon="8.2805233"><ele>141.0</ele><time>2026-04-04T06:58:23.104Z</time></trkpt><trkpt lat="44.9386717" lon="8.2805567"><ele>141.0</ele><time>2026-04-04T06:58:24.1Z</time></trkpt><trkpt lat="44.9388233" lon="8.280585"><ele>141.66666666666666</ele><time>2026-04-04T06:58:25.102Z</time></trkpt><trkpt lat="44.9389767" lon="8.2806"><ele>142.33333333333331</ele><time>2026-04-04T06:58:26.1Z</time></trkpt><trkpt lat="44.9391383" lon="8.280605"><ele>143.0</ele><time>2026-04-04T06:58:27.103Z</time></trkpt><trkpt lat="44.93931" lon="8.2806183"><ele>143.0</ele><time>2026-04-04T06:58:28.102Z</time></trkpt><trkpt lat="44.9394833" lon="8.28065"><ele>143.0</ele><time>2026-04-04T06:58:29.108Z</time></trkpt><trkpt lat="44.939655" lon="8.2807017"><ele>143.0</ele><time>2026-04-04T06:58:30.102Z</time></trkpt><trkpt lat="44.9398267" lon="8.280775"><ele>143.0</ele><time>2026-04-04T06:58:31.097Z</time></trkpt><trkpt lat="44.9400017" lon="8.2808567"><ele>143.0</ele><time>2026-04-04T06:58:32.102Z</time></trkpt><trkpt lat="44.9401633" lon="8.2809317"><ele>143.0</ele><time>2026-04-04T06:58:33.102Z</time></trkpt><trkpt lat="44.9403233" lon="8.2810133"><ele>143.0</ele><time>2026-04-04T06:58:34.102Z</time></trkpt><trkpt lat="44.94049" lon="8.2810917"><ele>143.0</ele><time>2026-04-04T06:58:35.098Z</time></trkpt><trkpt lat="44.9406633" lon="8.281165"><ele>143.0</ele><time>2026-04-04T06:58:36.099Z</time></trkpt><trkpt lat="44.940835" lon="8.2812233"><ele>142.66666666666666</ele><time>2026-04-04T06:58:37.099Z</time></trkpt><trkpt lat="44.9410117" lon="8.281275"><ele>142.33333333333334</ele><time>2026-04-04T06:58:38.1Z</time></trkpt><trkpt lat="44.941185" lon="8.2813083"><ele>142.0</ele><time>2026-04-04T06:58:39.107Z</time></trkpt><trkpt lat="44.9413617" lon="8.2813417"><ele>142.0</ele><time>2026-04-04T06:58:40.101Z</time></trkpt><trkpt lat="44.9415433" lon="8.2813733"><ele>142.0</ele><time>2026-04-04T06:58:41.102Z</time></trkpt><trkpt lat="44.9417267" lon="8.2814"><ele>142.0</ele><time>2026-04-04T06:58:42.103Z</time></trkpt><trkpt lat="44.94191" lon="8.28143"><ele>144.0</ele><time>2026-04-04T06:58:43.103Z</time></trkpt><trkpt lat="44.9420933" lon="8.2814583"><ele>146.0</ele><time>2026-04-04T06:58:44.103Z</time></trkpt><trkpt lat="44.942265" lon="8.281495"><ele>148.0</ele><time>2026-04-04T06:58:45.095Z</time></trkpt><trkpt lat="44.94244" lon="8.2815233"><ele>147.0</ele><time>2026-04-04T06:58:46.1Z</time></trkpt><trkpt lat="44.942615" lon="8.2815517"><ele>146.0</ele><time>2026-04-04T06:58:47.104Z</time></trkpt><trkpt lat="44.9427917" lon="8.2816"><ele>145.0</ele><time>2026-04-04T06:58:48.102Z</time></trkpt><trkpt lat="44.9429633" lon="8.28167"><ele>145.0</ele><time>2026-04-04T06:58:49.1Z</time></trkpt><trkpt lat="44.9431333" lon="8.2817567"><ele>145.0</ele><time>2026-04-04T06:58:50.099Z</time></trkpt><trkpt lat="44.9433017" lon="8.2818483"><ele>145.0</ele><time>2026-04-04T06:58:51.1Z</time></trkpt><trkpt lat="44.94347" lon="8.2819383"><ele>145.0</ele><time>2026-04-04T06:58:52.1Z</time></trkpt><trkpt lat="44.94364" lon="8.2820267"><ele>145.0</ele><time>2026-04-04T06:58:53.099Z</time></trkpt><trkpt lat="44.9438133" lon="8.2821167"><ele>145.0</ele><time>2026-04-04T06:58:54.104Z</time></trkpt><trkpt lat="44.9439817" lon="8.282205"><ele>145.66666666666669</ele><time>2026-04-04T06:58:55.096Z</time></trkpt><trkpt lat="44.944145" lon="8.28229"><ele>146.33333333333334</ele><time>2026-04-04T06:58:56.098Z</time></trkpt><trkpt lat="44.94431" lon="8.2823633"><ele>147.0</ele><time>2026-04-04T06:58:57.098Z</time></trkpt><trkpt lat="44.94447" lon="8.28241"><ele>147.0</ele><time>2026-04-04T06:58:58.097Z</time></trkpt><trkpt lat="44.944645" lon="8.2824333"><ele>147.0</ele><time>2026-04-04T06:58:59.105Z</time></trkpt><trkpt lat="44.9448117" lon="8.2824383"><ele>147.0</ele><time>2026-04-04T06:59:00.1Z</time></trkpt><trkpt lat="44.9449733" lon="8.2824433"><ele>147.0</ele><time>2026-04-04T06:59:01.102Z</time></trkpt><trkpt lat="44.9451083" lon="8.2824833"><ele>147.0</ele><time>2026-04-04T06:59:02.1Z</time></trkpt><trkpt lat="44.9452417" lon="8.2825533"><ele>147.0</ele><time>2026-04-04T06:59:03.101Z</time></trkpt><trkpt lat="44.9453517" lon="8.28268"><ele>147.0</ele><time>2026-04-04T06:59:04.1Z</time></trkpt><trkpt lat="44.94545" lon="8.2828267"><ele>147.0</ele><time>2026-04-04T06:59:05.102Z</time></trkpt><trkpt lat="44.9455567" lon="8.28297"><ele>147.0</ele><time>2026-04-04T06:59:06.104Z</time></trkpt><trkpt lat="44.94567" lon="8.283095"><ele>147.0</ele><time>2026-04-04T06:59:07.102Z</time></trkpt><trkpt lat="44.9457883" lon="8.2832067"><ele>147.0</ele><time>2026-04-04T06:59:08.104Z</time></trkpt><trkpt lat="44.94593" lon="8.2832817"><ele>148.0</ele><time>2026-04-04T06:59:09.105Z</time></trkpt><trkpt lat="44.9460817" lon="8.283315"><ele>149.0</ele><time>2026-04-04T06:59:10.105Z</time></trkpt><trkpt lat="44.94623" lon="8.2832967"><ele>150.0</ele><time>2026-04-04T06:59:11.102Z</time></trkpt><trkpt lat="44.9463733" lon="8.2832333"><ele>150.0</ele><time>2026-04-04T06:59:12.105Z</time></trkpt><trkpt lat="44.9465067" lon="8.283145"><ele>150.0</ele><time>2026-04-04T06:59:13.103Z</time></trkpt><trkpt lat="44.9466467" lon="8.283035"><ele>150.0</ele><time>2026-04-04T06:59:14.098Z</time></trkpt><trkpt lat="44.9467967" lon="8.2829267"><ele>151.66666666666666</ele><time>2026-04-04T06:59:15.1Z</time></trkpt><trkpt lat="44.9469517" lon="8.2828133"><ele>153.33333333333331</ele><time>2026-04-04T06:59:16.106Z</time></trkpt><trkpt lat="44.94711" lon="8.2827017"><ele>155.0</ele><time>2026-04-04T06:59:17.106Z</time></trkpt><trkpt lat="44.9472717" lon="8.2825683"><ele>155.0</ele><time>2026-04-04T06:59:18.097Z</time></trkpt><trkpt lat="44.9474367" lon="8.282445"><ele>155.0</ele><time>2026-04-04T06:59:19.102Z</time></trkpt><trkpt lat="44.9476" lon="8.282325"><ele>155.0</ele><time>2026-04-04T06:59:20.103Z</time></trkpt><trkpt lat="44.947765" lon="8.2821983"><ele>152.66666666666666</ele><time>2026-04-04T06:59:21.103Z</time></trkpt><trkpt lat="44.9479317" lon="8.2820683"><ele>150.33333333333334</ele><time>2026-04-04T06:59:22.102Z</time></trkpt><trkpt lat="44.9480967" lon="8.2819417"><ele>148.0</ele><time>2026-04-04T06:59:23.101Z</time></trkpt><trkpt lat="44.9482483" lon="8.2818233"><ele>148.66666666666669</ele><time>2026-04-04T06:59:24.098Z</time></trkpt><trkpt lat="44.94841" lon="8.2817"><ele>149.33333333333334</ele><time>2026-04-04T06:59:25.1Z</time></trkpt><trkpt lat="44.9485717" lon="8.28158"><ele>150.0</ele><time>2026-04-04T06:59:26.102Z</time></trkpt><trkpt lat="44.948725" lon="8.2814633"><ele>149.33333333333334</ele><time>2026-04-04T06:59:27.098Z</time></trkpt><trkpt lat="44.9488817" lon="8.2813467"><ele>148.66666666666669</ele><time>2026-04-04T06:59:28.108Z</time></trkpt><trkpt lat="44.949035" lon="8.2812283"><ele>148.0</ele><time>2026-04-04T06:59:29.099Z</time></trkpt><trkpt lat="44.94919" lon="8.2811133"><ele>149.0</ele><time>2026-04-04T06:59:30.102Z</time></trkpt><trkpt lat="44.949345" lon="8.2810017"><ele>150.0</ele><time>2026-04-04T06:59:31.103Z</time></trkpt><trkpt lat="44.9495" lon="8.2808933"><ele>151.0</ele><time>2026-04-04T06:59:32.103Z</time></trkpt><trkpt lat="44.949665" lon="8.2807983"><ele>151.0</ele><time>2026-04-04T06:59:33.103Z</time></trkpt><trkpt lat="44.9498267" lon="8.2807167"><ele>151.0</ele><time>2026-04-04T06:59:34.103Z</time></trkpt><trkpt lat="44.9499883" lon="8.280675"><ele>151.0</ele><time>2026-04-04T06:59:35.107Z</time></trkpt><trkpt lat="44.9501633" lon="8.2806683"><ele>152.33333333333334</ele><time>2026-04-04T06:59:36.1Z</time></trkpt><trkpt lat="44.9503417" lon="8.280685"><ele>153.66666666666666</ele><time>2026-04-04T06:59:37.101Z</time></trkpt><trkpt lat="44.95052" lon="8.28071"><ele>155.0</ele><time>2026-04-04T06:59:38.106Z</time></trkpt><trkpt lat="44.9507" lon="8.28073"><ele>155.0</ele><time>2026-04-04T06:59:39.102Z</time></trkpt><trkpt lat="44.9508783" lon="8.2807567"><ele>155.0</ele><time>2026-04-04T06:59:40.11Z</time></trkpt><trkpt lat="44.9510517" lon="8.2808033"><ele>155.0</ele><time>2026-04-04T06:59:41.103Z</time></trkpt><trkpt lat="44.9512233" lon="8.2808633"><ele>155.0</ele><time>2026-04-04T06:59:42.104Z</time></trkpt><trkpt lat="44.951395" lon="8.2809233"><ele>155.0</ele><time>2026-04-04T06:59:43.098Z</time></trkpt><trkpt lat="44.9515633" lon="8.2809867"><ele>155.0</ele><time>2026-04-04T06:59:44.109Z</time></trkpt><trkpt lat="44.951735" lon="8.28105"><ele>155.0</ele><time>2026-04-04T06:59:45.101Z</time></trkpt><trkpt lat="44.9519117" lon="8.28111"><ele>155.0</ele><time>2026-04-04T06:59:46.101Z</time></trkpt><trkpt lat="44.9520833" lon="8.2811733"><ele>155.0</ele><time>2026-04-04T06:59:47.095Z</time></trkpt><trkpt lat="44.9522517" lon="8.2812433"><ele>155.0</ele><time>2026-04-04T06:59:48.095Z</time></trkpt><trkpt lat="44.9524133" lon="8.2813083"><ele>155.0</ele><time>2026-04-04T06:59:49.101Z</time></trkpt><trkpt lat="44.952575" lon="8.281375"><ele>155.0</ele><time>2026-04-04T06:59:50.098Z</time></trkpt><trkpt lat="44.9527417" lon="8.2814417"><ele>156.0</ele><time>2026-04-04T06:59:51.099Z</time></trkpt><trkpt lat="44.9529117" lon="8.281505"><ele>157.0</ele><time>2026-04-04T06:59:52.102Z</time></trkpt><trkpt lat="44.95307" lon="8.2815733"><ele>158.0</ele><time>2026-04-04T06:59:53.102Z</time></trkpt><trkpt lat="44.9532167" lon="8.28165"><ele>158.0</ele><time>2026-04-04T06:59:54.1Z</time></trkpt><trkpt lat="44.9533533" lon="8.281725"><ele>158.0</ele><time>2026-04-04T06:59:55.108Z</time></trkpt><trkpt lat="44.95348" lon="8.2818"><ele>158.0</ele><time>2026-04-04T06:59:56.101Z</time></trkpt><trkpt lat="44.9536083" lon="8.281865"><ele>158.0</ele><time>2026-04-04T06:59:57.101Z</time></trkpt><trkpt lat="44.9537383" lon="8.28191"><ele>158.0</ele><time>2026-04-04T06:59:58.104Z</time></trkpt><trkpt lat="44.9538583" lon="8.281925"><ele>158.0</ele><time>2026-04-04T06:59:59.1Z</time></trkpt><trkpt lat="44.9539633" lon="8.2819017"><ele>158.0</ele><time>2026-04-04T07:00:00.103Z</time></trkpt><trkpt lat="44.954065" lon="8.28182"><ele>158.0</ele><time>2026-04-04T07:00:01.104Z</time></trkpt><trkpt lat="44.954165" lon="8.2817033"><ele>157.75</ele><time>2026-04-04T07:00:02.099Z</time></trkpt><trkpt lat="44.9542633" lon="8.2815683"><ele>157.5</ele><time>2026-04-04T07:00:03.102Z</time></trkpt><trkpt lat="44.9543717" lon="8.28142"><ele>157.25</ele><time>2026-04-04T07:00:04.103Z</time></trkpt><trkpt lat="44.95449" lon="8.2812683"><ele>157.0</ele><time>2026-04-04T07:00:05.103Z</time></trkpt><trkpt lat="44.9546267" lon="8.281095"><ele>156.33333333333334</ele><time>2026-04-04T07:00:06.102Z</time></trkpt><trkpt lat="44.9547617" lon="8.2809333"><ele>155.66666666666666</ele><time>2026-04-04T07:00:07.103Z</time></trkpt><trkpt lat="44.9549033" lon="8.2807767"><ele>155.0</ele><time>2026-04-04T07:00:08.098Z</time></trkpt><trkpt lat="44.9550467" lon="8.2806433"><ele>157.66666666666666</ele><time>2026-04-04T07:00:09.099Z</time></trkpt><trkpt lat="44.9551917" lon="8.2805217"><ele>160.33333333333334</ele><time>2026-04-04T07:00:10.099Z</time></trkpt><trkpt lat="44.9553333" lon="8.2804083"><ele>163.0</ele><time>2026-04-04T07:00:11.101Z</time></trkpt><trkpt lat="44.9554717" lon="8.2803"><ele>163.0</ele><time>2026-04-04T07:00:12.102Z</time></trkpt><trkpt lat="44.9556083" lon="8.2801967"><ele>163.0</ele><time>2026-04-04T07:00:13.103Z</time></trkpt><trkpt lat="44.9557467" lon="8.2801"><ele>163.0</ele><time>2026-04-04T07:00:14.101Z</time></trkpt><trkpt lat="44.9558833" lon="8.2799967"><ele>167.5</ele><time>2026-04-04T07:00:15.106Z</time></trkpt><trkpt lat="44.9560133" lon="8.2798983"><ele>172.0</ele><time>2026-04-04T07:00:16.11Z</time></trkpt><trkpt lat="44.9561383" lon="8.2798"><ele>176.5</ele><time>2026-04-04T07:00:17.106Z</time></trkpt><trkpt lat="44.95626" lon="8.27969"><ele>181.0</ele><time>2026-04-04T07:00:18.105Z</time></trkpt><trkpt lat="44.9563617" lon="8.2795633"><ele>181.25</ele><time>2026-04-04T07:00:19.101Z</time></trkpt><trkpt lat="44.956445" lon="8.2794133"><ele>181.5</ele><time>2026-04-04T07:00:20.1Z</time></trkpt><trkpt lat="44.9565033" lon="8.279235"><ele>181.75</ele><time>2026-04-04T07:00:21.101Z</time></trkpt><trkpt lat="44.956535" lon="8.27903"><ele>182.0</ele><time>2026-04-04T07:00:22.1Z</time></trkpt><trkpt lat="44.9565717" lon="8.2788367"><ele>183.5</ele><time>2026-04-04T07:00:23.106Z</time></trkpt><trkpt lat="44.9566283" lon="8.278655"><ele>185.0</ele><time>2026-04-04T07:00:24.105Z</time></trkpt><trkpt lat="44.9567017" lon="8.2785"><ele>186.5</ele><time>2026-04-04T07:00:25.106Z</time></trkpt><trkpt lat="44.956775" lon="8.2783817"><ele>188.0</ele><time>2026-04-04T07:00:26.105Z</time></trkpt><trkpt lat="44.95684" lon="8.2783083"><ele>188.0</ele><time>2026-04-04T07:00:27.103Z</time></trkpt><trkpt lat="44.956915" lon="8.2782517"><ele>188.0</ele><time>2026-04-04T07:00:28.101Z</time></trkpt><trkpt lat="44.9569933" lon="8.2783017"><ele>188.0</ele><time>2026-04-04T07:00:29.108Z</time></trkpt><trkpt lat="44.9570017" lon="8.2784683"><ele>188.0</ele><time>2026-04-04T07:00:31.106Z</time></trkpt><trkpt lat="44.9569617" lon="8.278545"><ele>188.0</ele><time>2026-04-04T07:00:32.098Z</time></trkpt><trkpt lat="44.9569183" lon="8.2786383"><ele>188.0</ele><time>2026-04-04T07:00:33.106Z</time></trkpt><trkpt lat="44.9568617" lon="8.278765"><ele>188.0</ele><time>2026-04-04T07:00:34.1Z</time></trkpt><trkpt lat="44.9568183" lon="8.2789017"><ele>188.0</ele><time>2026-04-04T07:00:35.1Z</time></trkpt><trkpt lat="44.9568017" lon="8.279065"><ele>188.0</ele><time>2026-04-04T07:00:36.104Z</time></trkpt><trkpt lat="44.95679" lon="8.279235"><ele>188.0</ele><time>2026-04-04T07:00:37.103Z</time></trkpt><trkpt lat="44.9567883" lon="8.2794083"><ele>190.60000000000002</ele><time>2026-04-04T07:00:38.099Z</time></trkpt><trkpt lat="44.9567867" lon="8.27958"><ele>193.20000000000002</ele><time>2026-04-04T07:00:39.103Z</time></trkpt><trkpt lat="44.956785" lon="8.2797383"><ele>195.8</ele><time>2026-04-04T07:00:40.101Z</time></trkpt><trkpt lat="44.9567867" lon="8.2798867"><ele>198.4</ele><time>2026-04-04T07:00:41.104Z</time></trkpt><trkpt lat="44.95681" lon="8.2800183"><ele>201.0</ele><time>2026-04-04T07:00:42.103Z</time></trkpt><trkpt lat="44.95687" lon="8.2801233"><ele>201.0</ele><time>2026-04-04T07:00:43.108Z</time></trkpt><trkpt lat="44.9569533" lon="8.2802"><ele>201.0</ele><time>2026-04-04T07:00:44.099Z</time></trkpt><trkpt lat="44.9570583" lon="8.28025"><ele>201.0</ele><time>2026-04-04T07:00:45.102Z</time></trkpt><trkpt lat="44.9571767" lon="8.28029"><ele>201.0</ele><time>2026-04-04T07:00:46.098Z</time></trkpt><trkpt lat="44.957305" lon="8.2803433"><ele>201.0</ele><time>2026-04-04T07:00:47.104Z</time></trkpt><trkpt lat="44.9574383" lon="8.2803917"><ele>201.0</ele><time>2026-04-04T07:00:48.099Z</time></trkpt><trkpt lat="44.95757" lon="8.2804367"><ele>201.0</ele><time>2026-04-04T07:00:49.102Z</time></trkpt><trkpt lat="44.9577067" lon="8.28047"><ele>201.0</ele><time>2026-04-04T07:00:50.102Z</time></trkpt><trkpt lat="44.9578283" lon="8.2805067"><ele>202.0</ele><time>2026-04-04T07:00:51.099Z</time></trkpt><trkpt lat="44.9579317" lon="8.28054"><ele>203.0</ele><time>2026-04-04T07:00:52.097Z</time></trkpt><trkpt lat="44.9580217" lon="8.2805633"><ele>204.0</ele><time>2026-04-04T07:00:53.099Z</time></trkpt><trkpt lat="44.9580967" lon="8.2805683"><ele>205.0</ele><time>2026-04-04T07:00:54.099Z</time></trkpt><trkpt lat="44.9581983" lon="8.280505"><ele>206.0</ele><time>2026-04-04T07:00:56.111Z</time></trkpt><trkpt lat="44.9581433" lon="8.2803733"><ele>206.0</ele><time>2026-04-04T07:00:58.101Z</time></trkpt><trkpt lat="44.9580083" lon="8.280255"><ele>206.0</ele><time>2026-04-04T07:01:00.098Z</time></trkpt><trkpt lat="44.957915" lon="8.280195"><ele>206.0</ele><time>2026-04-04T07:01:01.1Z</time></trkpt><trkpt lat="44.9577917" lon="8.280145"><ele>206.0</ele><time>2026-04-04T07:01:02.103Z</time></trkpt><trkpt lat="44.9576883" lon="8.2800717"><ele>206.0</ele><time>2026-04-04T07:01:03.101Z</time></trkpt><trkpt lat="44.9575817" lon="8.28002"><ele>206.0</ele><time>2026-04-04T07:01:04.106Z</time></trkpt><trkpt lat="44.95749" lon="8.2799433"><ele>206.0</ele><time>2026-04-04T07:01:05.103Z</time></trkpt><trkpt lat="44.9574133" lon="8.2798433"><ele>206.0</ele><time>2026-04-04T07:01:06.104Z</time></trkpt><trkpt lat="44.957365" lon="8.2797283"><ele>206.0</ele><time>2026-04-04T07:01:07.108Z</time></trkpt><trkpt lat="44.957345" lon="8.2795883"><ele>205.60000000000002</ele><time>2026-04-04T07:01:08.101Z</time></trkpt><trkpt lat="44.9573433" lon="8.2794583"><ele>205.2</ele><time>2026-04-04T07:01:09.099Z</time></trkpt><trkpt lat="44.957375" lon="8.2793333"><ele>204.8</ele><time>2026-04-04T07:01:10.1Z</time></trkpt><trkpt lat="44.9574183" lon="8.2792167"><ele>204.39999999999998</ele><time>2026-04-04T07:01:11.106Z</time></trkpt><trkpt lat="44.9574733" lon="8.2791"><ele>204.0</ele><time>2026-04-04T07:01:12.097Z</time></trkpt><trkpt lat="44.9575383" lon="8.2790083"><ele>207.25</ele><time>2026-04-04T07:01:13.106Z</time></trkpt><trkpt lat="44.9576767" lon="8.2790367"><ele>210.5</ele><time>2026-04-04T07:01:14.098Z</time></trkpt><trkpt lat="44.9578217" lon="8.279095"><ele>213.75</ele><time>2026-04-04T07:01:15.105Z</time></trkpt><trkpt lat="44.957925" lon="8.2790867"><ele>217.0</ele><time>2026-04-04T07:01:16.099Z</time></trkpt><trkpt lat="44.9580133" lon="8.279085"><ele>217.0</ele><time>2026-04-04T07:01:17.099Z</time></trkpt><trkpt lat="44.9580933" lon="8.2790933"><ele>217.0</ele><time>2026-04-04T07:01:18.101Z</time></trkpt><trkpt lat="44.9581867" lon="8.2791967"><ele>217.0</ele><time>2026-04-04T07:01:20.1Z</time></trkpt><trkpt lat="44.95819" lon="8.2793017"><ele>217.0</ele><time>2026-04-04T07:01:22.102Z</time></trkpt><trkpt lat="44.9581183" lon="8.279355"><ele>217.0</ele><time>2026-04-04T07:01:23.101Z</time></trkpt><trkpt lat="44.95799" lon="8.2794033"><ele>216.99999999999997</ele><time>2026-04-04T07:01:24.103Z</time></trkpt><trkpt lat="44.9578933" lon="8.2794317"><ele>217.0</ele><time>2026-04-04T07:01:25.104Z</time></trkpt><trkpt lat="44.9578067" lon="8.2794783"><ele>217.0</ele><time>2026-04-04T07:01:26.104Z</time></trkpt><trkpt lat="44.9577383" lon="8.279535"><ele>217.0</ele><time>2026-04-04T07:01:27.102Z</time></trkpt><trkpt lat="44.9576883" lon="8.2796033"><ele>216.99999999999997</ele><time>2026-04-04T07:01:28.101Z</time></trkpt><trkpt lat="44.9577117" lon="8.2796917"><ele>217.0</ele><time>2026-04-04T07:01:29.106Z</time></trkpt><trkpt lat="44.95782" lon="8.2798033"><ele>214.8</ele><time>2026-04-04T07:01:31.106Z</time></trkpt><trkpt lat="44.9579033" lon="8.2798383"><ele>212.6</ele><time>2026-04-04T07:01:32.104Z</time></trkpt><trkpt lat="44.957995" lon="8.27986"><ele>210.4</ele><time>2026-04-04T07:01:33.098Z</time></trkpt><trkpt lat="44.9580883" lon="8.27986"><ele>208.20000000000002</ele><time>2026-04-04T07:01:34.111Z</time></trkpt><trkpt lat="44.9581817" lon="8.2798283"><ele>206.0</ele><time>2026-04-04T07:01:35.104Z</time></trkpt><trkpt lat="44.9582733" lon="8.2797733"><ele>208.20000000000002</ele><time>2026-04-04T07:01:36.103Z</time></trkpt><trkpt lat="44.95835" lon="8.279695"><ele>210.4</ele><time>2026-04-04T07:01:37.1Z</time></trkpt><trkpt lat="44.9584283" lon="8.2796167"><ele>212.6</ele><time>2026-04-04T07:01:38.104Z</time></trkpt><trkpt lat="44.9585017" lon="8.2795367"><ele>214.8</ele><time>2026-04-04T07:01:39.101Z</time></trkpt><trkpt lat="44.95858" lon="8.2794633"><ele>217.0</ele><time>2026-04-04T07:01:40.1Z</time></trkpt><trkpt lat="44.9586617" lon="8.2793967"><ele>218.33333333333331</ele><time>2026-04-04T07:01:41.101Z</time></trkpt><trkpt lat="44.9587433" lon="8.27934"><ele>219.66666666666666</ele><time>2026-04-04T07:01:42.099Z</time></trkpt><trkpt lat="44.9588317" lon="8.2792983"><ele>221.0</ele><time>2026-04-04T07:01:43.1Z</time></trkpt><trkpt lat="44.9589133" lon="8.2792683"><ele>222.33333333333331</ele><time>2026-04-04T07:01:44.1Z</time></trkpt><trkpt lat="44.9589967" lon="8.279235"><ele>223.66666666666666</ele><time>2026-04-04T07:01:45.1Z</time></trkpt><trkpt lat="44.9590867" lon="8.27922"><ele>225.0</ele><time>2026-04-04T07:01:46.101Z</time></trkpt><trkpt lat="44.9591583" lon="8.2792417"><ele>225.83333333333334</ele><time>2026-04-04T07:01:47.104Z</time></trkpt><trkpt lat="44.9592317" lon="8.2792317"><ele>226.66666666666669</ele><time>2026-04-04T07:01:48.105Z</time></trkpt><trkpt lat="44.959335" lon="8.27923"><ele>227.5</ele><time>2026-04-04T07:01:50.1Z</time></trkpt><trkpt lat="44.9593983" lon="8.2792283"><ele>228.33333333333334</ele><time>2026-04-04T07:01:52.104Z</time></trkpt><trkpt lat="44.9594933" lon="8.2792017"><ele>229.16666666666669</ele><time>2026-04-04T07:01:55.108Z</time></trkpt><trkpt lat="44.9595633" lon="8.2791867"><ele>230.0</ele><time>2026-04-04T07:01:57.101Z</time></trkpt><trkpt lat="44.9596567" lon="8.2791667"><ele>230.00000000000003</ele><time>2026-04-04T07:01:59.103Z</time></trkpt><trkpt lat="44.9597933" lon="8.27913"><ele>230.0</ele><time>2026-04-04T07:02:01.1Z</time></trkpt><trkpt lat="44.959865" lon="8.2791117"><ele>230.0</ele><time>2026-04-04T07:02:02.107Z</time></trkpt><trkpt lat="44.9599333" lon="8.2790883"><ele>230.0</ele><time>2026-04-04T07:02:03.099Z</time></trkpt><trkpt lat="44.9599983" lon="8.2790583"><ele>230.00000000000003</ele><time>2026-04-04T07:02:04.102Z</time></trkpt><trkpt lat="44.9600733" lon="8.2790233"><ele>230.0</ele><time>2026-04-04T07:02:05.102Z</time></trkpt><trkpt lat="44.96015" lon="8.27898"><ele>229.00000000000003</ele><time>2026-04-04T07:02:06.101Z</time></trkpt><trkpt lat="44.96023" lon="8.27893"><ele>228.0</ele><time>2026-04-04T07:02:07.101Z</time></trkpt><trkpt lat="44.9603133" lon="8.278885"><ele>227.0</ele><time>2026-04-04T07:02:08.1Z</time></trkpt><trkpt lat="44.9603917" lon="8.278855"><ele>226.0</ele><time>2026-04-04T07:02:09.105Z</time></trkpt><trkpt lat="44.960475" lon="8.27884"><ele>225.00000000000003</ele><time>2026-04-04T07:02:10.101Z</time></trkpt><trkpt lat="44.9605683" lon="8.2788483"><ele>224.0</ele><time>2026-04-04T07:02:11.105Z</time></trkpt><trkpt lat="44.9606667" lon="8.2788533"><ele>224.0</ele><time>2026-04-04T07:02:12.104Z</time></trkpt><trkpt lat="44.9607683" lon="8.2788617"><ele>223.99999999999997</ele><time>2026-04-04T07:02:13.107Z</time></trkpt><trkpt lat="44.960875" lon="8.278865"><ele>223.99999999999997</ele><time>2026-04-04T07:02:14.103Z</time></trkpt><trkpt lat="44.96098" lon="8.278865"><ele>224.0</ele><time>2026-04-04T07:02:15.101Z</time></trkpt><trkpt lat="44.961105" lon="8.2788933"><ele>224.0</ele><time>2026-04-04T07:02:16.102Z</time></trkpt><trkpt lat="44.9612333" lon="8.2789283"><ele>224.75</ele><time>2026-04-04T07:02:17.101Z</time></trkpt><trkpt lat="44.961355" lon="8.2789483"><ele>225.5</ele><time>2026-04-04T07:02:18.1Z</time></trkpt><trkpt lat="44.961475" lon="8.2789717"><ele>226.25</ele><time>2026-04-04T07:02:19.103Z</time></trkpt><trkpt lat="44.9615967" lon="8.2790017"><ele>227.0</ele><time>2026-04-04T07:02:20.109Z</time></trkpt><trkpt lat="44.9617067" lon="8.2790117"><ele>227.0</ele><time>2026-04-04T07:02:21.107Z</time></trkpt><trkpt lat="44.961815" lon="8.27901"><ele>227.0</ele><time>2026-04-04T07:02:22.096Z</time></trkpt><trkpt lat="44.9619117" lon="8.2789983"><ele>227.0</ele><time>2026-04-04T07:02:23.104Z</time></trkpt><trkpt lat="44.9619983" lon="8.2789733"><ele>227.0</ele><time>2026-04-04T07:02:24.104Z</time></trkpt><trkpt lat="44.9620917" lon="8.2789417"><ele>227.0</ele><time>2026-04-04T07:02:25.105Z</time></trkpt><trkpt lat="44.9621817" lon="8.2789133"><ele>226.6</ele><time>2026-04-04T07:02:26.099Z</time></trkpt><trkpt lat="44.96227" lon="8.27888"><ele>226.2</ele><time>2026-04-04T07:02:27.099Z</time></trkpt><trkpt lat="44.9623633" lon="8.2788433"><ele>225.8</ele><time>2026-04-04T07:02:28.101Z</time></trkpt><trkpt lat="44.9624567" lon="8.27882"><ele>225.4</ele><time>2026-04-04T07:02:29.11Z</time></trkpt><trkpt lat="44.962555" lon="8.27881"><ele>225.0</ele><time>2026-04-04T07:02:30.105Z</time></trkpt><trkpt lat="44.962655" lon="8.2788067"><ele>225.0</ele><time>2026-04-04T07:02:31.102Z</time></trkpt><trkpt lat="44.96276" lon="8.2788133"><ele>225.0</ele><time>2026-04-04T07:02:32.1Z</time></trkpt><trkpt lat="44.9628667" lon="8.278835"><ele>225.0</ele><time>2026-04-04T07:02:33.102Z</time></trkpt><trkpt lat="44.9629767" lon="8.2788817"><ele>225.0</ele><time>2026-04-04T07:02:34.101Z</time></trkpt><trkpt lat="44.9631067" lon="8.2789217"><ele>227.25</ele><time>2026-04-04T07:02:35.105Z</time></trkpt><trkpt lat="44.96322" lon="8.2789817"><ele>229.5</ele><time>2026-04-04T07:02:36.101Z</time></trkpt><trkpt lat="44.96333" lon="8.2790417"><ele>231.75</ele><time>2026-04-04T07:02:37.101Z</time></trkpt><trkpt lat="44.9634383" lon="8.2790917"><ele>234.0</ele><time>2026-04-04T07:02:38.103Z</time></trkpt><trkpt lat="44.9635433" lon="8.2791383"><ele>234.0</ele><time>2026-04-04T07:02:39.101Z</time></trkpt><trkpt lat="44.96365" lon="8.2791767"><ele>233.99999999999997</ele><time>2026-04-04T07:02:40.104Z</time></trkpt><trkpt lat="44.9637533" lon="8.2792117"><ele>233.99999999999997</ele><time>2026-04-04T07:02:41.106Z</time></trkpt><trkpt lat="44.9638567" lon="8.2792417"><ele>234.0</ele><time>2026-04-04T07:02:42.107Z</time></trkpt><trkpt lat="44.9639567" lon="8.2792733"><ele>234.0</ele><time>2026-04-04T07:02:43.1Z</time></trkpt><trkpt lat="44.964055" lon="8.279305"><ele>234.0</ele><time>2026-04-04T07:02:44.098Z</time></trkpt><trkpt lat="44.964145" lon="8.27935"><ele>234.0</ele><time>2026-04-04T07:02:45.11Z</time></trkpt><trkpt lat="44.9642367" lon="8.279375"><ele>234.0</ele><time>2026-04-04T07:02:46.099Z</time></trkpt><trkpt lat="44.96431" lon="8.27939"><ele>234.0</ele><time>2026-04-04T07:02:47.099Z</time></trkpt><trkpt lat="44.964375" lon="8.2794033"><ele>234.0</ele><time>2026-04-04T07:02:48.098Z</time></trkpt><trkpt lat="44.9644917" lon="8.2794233"><ele>234.0</ele><time>2026-04-04T07:02:50.097Z</time></trkpt><trkpt lat="44.9645533" lon="8.279445"><ele>233.79999999999998</ele><time>2026-04-04T07:02:51.097Z</time></trkpt><trkpt lat="44.964665" lon="8.279455"><ele>233.59999999999997</ele><time>2026-04-04T07:02:53.103Z</time></trkpt><trkpt lat="44.9647783" lon="8.2794233"><ele>233.4</ele><time>2026-04-04T07:02:55.098Z</time></trkpt><trkpt lat="44.964855" lon="8.2794067"><ele>233.2</ele><time>2026-04-04T07:02:56.099Z</time></trkpt><trkpt lat="44.9649417" lon="8.2793733"><ele>233.0</ele><time>2026-04-04T07:02:57.102Z</time></trkpt><trkpt lat="44.965035" lon="8.2793467"><ele>232.4</ele><time>2026-04-04T07:02:58.099Z</time></trkpt><trkpt lat="44.9651267" lon="8.279295"><ele>231.8</ele><time>2026-04-04T07:02:59.104Z</time></trkpt><trkpt lat="44.9652233" lon="8.2792283"><ele>231.2</ele><time>2026-04-04T07:03:00.101Z</time></trkpt><trkpt lat="44.965325" lon="8.2791667"><ele>230.6</ele><time>2026-04-04T07:03:01.106Z</time></trkpt><trkpt lat="44.965415" lon="8.2791017"><ele>230.0</ele><time>2026-04-04T07:03:02.1Z</time></trkpt><trkpt lat="44.965505" lon="8.2790333"><ele>231.83333333333334</ele><time>2026-04-04T07:03:03.102Z</time></trkpt><trkpt lat="44.96557" lon="8.2789333"><ele>233.66666666666669</ele><time>2026-04-04T07:03:04.098Z</time></trkpt><trkpt lat="44.9656217" lon="8.2788483"><ele>235.5</ele><time>2026-04-04T07:03:05.11Z</time></trkpt><trkpt lat="44.9656533" lon="8.2787383"><ele>237.33333333333331</ele><time>2026-04-04T07:03:06.105Z</time></trkpt><trkpt lat="44.9656983" lon="8.2786667"><ele>239.16666666666666</ele><time>2026-04-04T07:03:07.102Z</time></trkpt><trkpt lat="44.9657467" lon="8.2785933"><ele>241.0</ele><time>2026-04-04T07:03:08.103Z</time></trkpt><trkpt lat="44.965795" lon="8.27852"><ele>240.99999999999997</ele><time>2026-04-04T07:03:09.098Z</time></trkpt><trkpt lat="44.96584" lon="8.2784483"><ele>241.0</ele><time>2026-04-04T07:03:10.102Z</time></trkpt><trkpt lat="44.9659017" lon="8.2783867"><ele>241.0</ele><time>2026-04-04T07:03:11.1Z</time></trkpt><trkpt lat="44.965985" lon="8.278345"><ele>241.0</ele><time>2026-04-04T07:03:12.1Z</time></trkpt><trkpt lat="44.9660633" lon="8.2782833"><ele>240.99999999999997</ele><time>2026-04-04T07:03:13.104Z</time></trkpt><trkpt lat="44.96616" lon="8.2782167"><ele>241.0</ele><time>2026-04-04T07:03:14.1Z</time></trkpt><trkpt lat="44.966245" lon="8.2781367"><ele>241.33333333333331</ele><time>2026-04-04T07:03:15.1Z</time></trkpt><trkpt lat="44.9663283" lon="8.278075"><ele>241.66666666666666</ele><time>2026-04-04T07:03:16.102Z</time></trkpt><trkpt lat="44.9664017" lon="8.2780133"><ele>242.0</ele><time>2026-04-04T07:03:17.11Z</time></trkpt><trkpt lat="44.9664767" lon="8.2779517"><ele>242.33333333333331</ele><time>2026-04-04T07:03:18.1Z</time></trkpt><trkpt lat="44.966545" lon="8.2778883"><ele>242.66666666666666</ele><time>2026-04-04T07:03:19.103Z</time></trkpt><trkpt lat="44.9666283" lon="8.27783"><ele>243.0</ele><time>2026-04-04T07:03:20.106Z</time></trkpt><trkpt lat="44.9667183" lon="8.2777567"><ele>243.4</ele><time>2026-04-04T07:03:21.109Z</time></trkpt><trkpt lat="44.966805" lon="8.2776917"><ele>243.8</ele><time>2026-04-04T07:03:22.104Z</time></trkpt><trkpt lat="44.9668983" lon="8.2776267"><ele>244.2</ele><time>2026-04-04T07:03:23.102Z</time></trkpt><trkpt lat="44.9669767" lon="8.2775633"><ele>244.6</ele><time>2026-04-04T07:03:24.101Z</time></trkpt><trkpt lat="44.9670733" lon="8.2774983"><ele>245.0</ele><time>2026-04-04T07:03:25.101Z</time></trkpt><trkpt lat="44.9671617" lon="8.2774333"><ele>245.0</ele><time>2026-04-04T07:03:26.104Z</time></trkpt><trkpt lat="44.96726" lon="8.2773667"><ele>245.0</ele><time>2026-04-04T07:03:27.107Z</time></trkpt><trkpt lat="44.9673383" lon="8.2773167"><ele>245.0</ele><time>2026-04-04T07:03:28.102Z</time></trkpt><trkpt lat="44.967415" lon="8.2772717"><ele>245.0</ele><time>2026-04-04T07:03:29.105Z</time></trkpt><trkpt lat="44.9675017" lon="8.2772167"><ele>245.0</ele><time>2026-04-04T07:03:30.104Z</time></trkpt><trkpt lat="44.96759" lon="8.27717"><ele>243.2</ele><time>2026-04-04T07:03:31.098Z</time></trkpt><trkpt lat="44.9676617" lon="8.27713"><ele>241.4</ele><time>2026-04-04T07:03:32.101Z</time></trkpt><trkpt lat="44.9677383" lon="8.27709"><ele>239.60000000000002</ele><time>2026-04-04T07:03:33.097Z</time></trkpt><trkpt lat="44.96783" lon="8.27706"><ele>237.8</ele><time>2026-04-04T07:03:34.098Z</time></trkpt><trkpt lat="44.967935" lon="8.27704"><ele>236.0</ele><time>2026-04-04T07:03:35.1Z</time></trkpt><trkpt lat="44.96806" lon="8.2770583"><ele>236.0</ele><time>2026-04-04T07:03:36.099Z</time></trkpt><trkpt lat="44.96817" lon="8.2770667"><ele>236.0</ele><time>2026-04-04T07:03:37.101Z</time></trkpt><trkpt lat="44.9682717" lon="8.2770683"><ele>236.0</ele><time>2026-04-04T07:03:38.098Z</time></trkpt><trkpt lat="44.9683683" lon="8.2770833"><ele>236.0</ele><time>2026-04-04T07:03:39.096Z</time></trkpt><trkpt lat="44.9685067" lon="8.277175"><ele>238.0</ele><time>2026-04-04T07:03:40.097Z</time></trkpt><trkpt lat="44.9686783" lon="8.2772583"><ele>240.0</ele><time>2026-04-04T07:03:41.096Z</time></trkpt><trkpt lat="44.9688133" lon="8.2773133"><ele>242.0</ele><time>2026-04-04T07:03:42.097Z</time></trkpt><trkpt lat="44.96895" lon="8.277395"><ele>242.0</ele><time>2026-04-04T07:03:43.099Z</time></trkpt><trkpt lat="44.9690833" lon="8.27742"><ele>242.0</ele><time>2026-04-04T07:03:44.104Z</time></trkpt><trkpt lat="44.969205" lon="8.2774783"><ele>242.0</ele><time>2026-04-04T07:03:45.098Z</time></trkpt><trkpt lat="44.9693433" lon="8.2775183"><ele>242.0</ele><time>2026-04-04T07:03:46.1Z</time></trkpt><trkpt lat="44.96947" lon="8.2775667"><ele>239.0</ele><time>2026-04-04T07:03:47.101Z</time></trkpt><trkpt lat="44.969585" lon="8.2776133"><ele>236.0</ele><time>2026-04-04T07:03:48.098Z</time></trkpt><trkpt lat="44.9696733" lon="8.2776917"><ele>233.0</ele><time>2026-04-04T07:03:49.1Z</time></trkpt><trkpt lat="44.969775" lon="8.2777967"><ele>230.0</ele><time>2026-04-04T07:03:50.098Z</time></trkpt><trkpt lat="44.9698683" lon="8.2779467"><ele>230.0</ele><time>2026-04-04T07:03:51.098Z</time></trkpt><trkpt lat="44.9699717" lon="8.2780433"><ele>230.0</ele><time>2026-04-04T07:03:52.099Z</time></trkpt><trkpt lat="44.970075" lon="8.2781883"><ele>230.0</ele><time>2026-04-04T07:03:53.097Z</time></trkpt><trkpt lat="44.97016" lon="8.2783"><ele>230.0</ele><time>2026-04-04T07:03:54.096Z</time></trkpt><trkpt lat="44.970245" lon="8.2784317"><ele>230.25</ele><time>2026-04-04T07:03:55.1Z</time></trkpt><trkpt lat="44.9703367" lon="8.2785533"><ele>230.5</ele><time>2026-04-04T07:03:56.098Z</time></trkpt><trkpt lat="44.9704217" lon="8.2786917"><ele>230.75</ele><time>2026-04-04T07:03:57.096Z</time></trkpt><trkpt lat="44.9705117" lon="8.2788317"><ele>231.0</ele><time>2026-04-04T07:03:58.098Z</time></trkpt><trkpt lat="44.970605" lon="8.2789467"><ele>234.25</ele><time>2026-04-04T07:03:59.1Z</time></trkpt><trkpt lat="44.9707" lon="8.279055"><ele>237.5</ele><time>2026-04-04T07:04:00.099Z</time></trkpt><trkpt lat="44.9707967" lon="8.2791717"><ele>240.75</ele><time>2026-04-04T07:04:01.1Z</time></trkpt><trkpt lat="44.97091" lon="8.2792717"><ele>244.0</ele><time>2026-04-04T07:04:02.101Z</time></trkpt><trkpt lat="44.9710267" lon="8.2793533"><ele>244.0</ele><time>2026-04-04T07:04:03.103Z</time></trkpt><trkpt lat="44.9711383" lon="8.27944"><ele>244.0</ele><time>2026-04-04T07:04:04.101Z</time></trkpt><trkpt lat="44.971255" lon="8.2795133"><ele>244.0</ele><time>2026-04-04T07:04:05.101Z</time></trkpt><trkpt lat="44.9713817" lon="8.2795917"><ele>244.0</ele><time>2026-04-04T07:04:06.103Z</time></trkpt><trkpt lat="44.9714983" lon="8.2796783"><ele>244.0</ele><time>2026-04-04T07:04:07.1Z</time></trkpt><trkpt lat="44.9716267" lon="8.2797567"><ele>244.0</ele><time>2026-04-04T07:04:08.103Z</time></trkpt><trkpt lat="44.9717533" lon="8.2798483"><ele>244.0</ele><time>2026-04-04T07:04:09.101Z</time></trkpt><trkpt lat="44.9718833" lon="8.2799333"><ele>244.0</ele><time>2026-04-04T07:04:10.1Z</time></trkpt><trkpt lat="44.9720133" lon="8.2800067"><ele>245.0</ele><time>2026-04-04T07:04:11.101Z</time></trkpt><trkpt lat="44.9721583" lon="8.2800567"><ele>246.0</ele><time>2026-04-04T07:04:12.098Z</time></trkpt><trkpt lat="44.9723067" lon="8.2800983"><ele>247.0</ele><time>2026-04-04T07:04:13.097Z</time></trkpt><trkpt lat="44.9724567" lon="8.2801267"><ele>243.33333333333331</ele><time>2026-04-04T07:04:14.098Z</time></trkpt><trkpt lat="44.9726133" lon="8.2801867"><ele>239.66666666666669</ele><time>2026-04-04T07:04:15.106Z</time></trkpt><trkpt lat="44.9727783" lon="8.2802067"><ele>236.0</ele><time>2026-04-04T07:04:16.097Z</time></trkpt><trkpt lat="44.97294" lon="8.2802067"><ele>236.0</ele><time>2026-04-04T07:04:17.103Z</time></trkpt><trkpt lat="44.9731" lon="8.280195"><ele>236.0</ele><time>2026-04-04T07:04:18.098Z</time></trkpt><trkpt lat="44.97325" lon="8.2802033"><ele>236.0</ele><time>2026-04-04T07:04:19.102Z</time></trkpt><trkpt lat="44.9734033" lon="8.2802"><ele>232.0</ele><time>2026-04-04T07:04:20.102Z</time></trkpt><trkpt lat="44.9735617" lon="8.2802117"><ele>228.0</ele><time>2026-04-04T07:04:21.098Z</time></trkpt><trkpt lat="44.973715" lon="8.2802833"><ele>224.0</ele><time>2026-04-04T07:04:22.103Z</time></trkpt><trkpt lat="44.9738717" lon="8.2803767"><ele>224.0</ele><time>2026-04-04T07:04:23.102Z</time></trkpt><trkpt lat="44.9740283" lon="8.2804817"><ele>224.0</ele><time>2026-04-04T07:04:24.101Z</time></trkpt><trkpt lat="44.9741567" lon="8.2805967"><ele>224.0</ele><time>2026-04-04T07:04:25.101Z</time></trkpt><trkpt lat="44.974275" lon="8.2808083"><ele>222.66666666666669</ele><time>2026-04-04T07:04:26.097Z</time></trkpt><trkpt lat="44.97439" lon="8.28101"><ele>221.33333333333331</ele><time>2026-04-04T07:04:27.099Z</time></trkpt><trkpt lat="44.9745067" lon="8.2811833"><ele>220.0</ele><time>2026-04-04T07:04:28.102Z</time></trkpt><trkpt lat="44.97463" lon="8.2813717"><ele>220.66666666666666</ele><time>2026-04-04T07:04:29.101Z</time></trkpt><trkpt lat="44.9747533" lon="8.2815633"><ele>221.33333333333331</ele><time>2026-04-04T07:04:30.101Z</time></trkpt><trkpt lat="44.9748883" lon="8.28171"><ele>222.0</ele><time>2026-04-04T07:04:31.103Z</time></trkpt><trkpt lat="44.9750383" lon="8.2818267"><ele>222.0</ele><time>2026-04-04T07:04:32.101Z</time></trkpt><trkpt lat="44.9751917" lon="8.281925"><ele>222.0</ele><time>2026-04-04T07:04:33.099Z</time></trkpt><trkpt lat="44.975355" lon="8.2820117"><ele>222.0</ele><time>2026-04-04T07:04:34.097Z</time></trkpt><trkpt lat="44.9755267" lon="8.2820683"><ele>222.0</ele><time>2026-04-04T07:04:35.097Z</time></trkpt><trkpt lat="44.9757" lon="8.2821067"><ele>222.0</ele><time>2026-04-04T07:04:36.097Z</time></trkpt><trkpt lat="44.9758767" lon="8.28213"><ele>222.0</ele><time>2026-04-04T07:04:37.097Z</time></trkpt><trkpt lat="44.9760617" lon="8.2821383"><ele>222.0</ele><time>2026-04-04T07:04:38.095Z</time></trkpt><trkpt lat="44.976235" lon="8.282175"><ele>222.0</ele><time>2026-04-04T07:04:39.098Z</time></trkpt><trkpt lat="44.9764167" lon="8.2821817"><ele>222.0</ele><time>2026-04-04T07:04:40.1Z</time></trkpt><trkpt lat="44.9766" lon="8.2821817"><ele>223.0</ele><time>2026-04-04T07:04:41.1Z</time></trkpt><trkpt lat="44.976785" lon="8.28218"><ele>224.0</ele><time>2026-04-04T07:04:42.101Z</time></trkpt><trkpt lat="44.97697" lon="8.28219"><ele>225.0</ele><time>2026-04-04T07:04:43.099Z</time></trkpt><trkpt lat="44.9771467" lon="8.2822117"><ele>225.0</ele><time>2026-04-04T07:04:44.101Z</time></trkpt><trkpt lat="44.977325" lon="8.2822217"><ele>225.0</ele><time>2026-04-04T07:04:45.096Z</time></trkpt><trkpt lat="44.977505" lon="8.28223"><ele>225.0</ele><time>2026-04-04T07:04:46.096Z</time></trkpt><trkpt lat="44.9776733" lon="8.28225"><ele>227.0</ele><time>2026-04-04T07:04:47.097Z</time></trkpt><trkpt lat="44.977835" lon="8.2822867"><ele>229.0</ele><time>2026-04-04T07:04:48.098Z</time></trkpt><trkpt lat="44.9779867" lon="8.282365"><ele>231.0</ele><time>2026-04-04T07:04:49.101Z</time></trkpt><trkpt lat="44.9781333" lon="8.2824717"><ele>231.0</ele><time>2026-04-04T07:04:50.099Z</time></trkpt><trkpt lat="44.97827" lon="8.2825917"><ele>231.0</ele><time>2026-04-04T07:04:51.099Z</time></trkpt><trkpt lat="44.9784167" lon="8.282725"><ele>231.0</ele><time>2026-04-04T07:04:52.1Z</time></trkpt><trkpt lat="44.978555" lon="8.2828567"><ele>233.33333333333331</ele><time>2026-04-04T07:04:53.101Z</time></trkpt><trkpt lat="44.9786917" lon="8.2829867"><ele>235.66666666666666</ele><time>2026-04-04T07:04:54.102Z</time></trkpt><trkpt lat="44.9788267" lon="8.283115"><ele>238.0</ele><time>2026-04-04T07:04:55.102Z</time></trkpt><trkpt lat="44.978965" lon="8.2832433"><ele>238.0</ele><time>2026-04-04T07:04:56.1Z</time></trkpt><trkpt lat="44.9790983" lon="8.2833717"><ele>238.0</ele><time>2026-04-04T07:04:57.096Z</time></trkpt><trkpt lat="44.9792433" lon="8.2834933"><ele>238.0</ele><time>2026-04-04T07:04:58.098Z</time></trkpt><trkpt lat="44.9793933" lon="8.2836033"><ele>240.66666666666666</ele><time>2026-04-04T07:04:59.099Z</time></trkpt><trkpt lat="44.9795617" lon="8.2836783"><ele>243.33333333333331</ele><time>2026-04-04T07:05:00.097Z</time></trkpt><trkpt lat="44.9797317" lon="8.283725"><ele>246.0</ele><time>2026-04-04T07:05:01.104Z</time></trkpt><trkpt lat="44.9799033" lon="8.2837283"><ele>246.66666666666669</ele><time>2026-04-04T07:05:02.098Z</time></trkpt><trkpt lat="44.9800717" lon="8.283705"><ele>247.33333333333334</ele><time>2026-04-04T07:05:03.1Z</time></trkpt><trkpt lat="44.9802433" lon="8.2836783"><ele>248.0</ele><time>2026-04-04T07:05:04.101Z</time></trkpt><trkpt lat="44.9804117" lon="8.2836433"><ele>248.0</ele><time>2026-04-04T07:05:05.103Z</time></trkpt><trkpt lat="44.9805733" lon="8.283615"><ele>248.0</ele><time>2026-04-04T07:05:06.1Z</time></trkpt><trkpt lat="44.9807333" lon="8.2835883"><ele>248.0</ele><time>2026-04-04T07:05:07.1Z</time></trkpt><trkpt lat="44.9808983" lon="8.2835583"><ele>248.75</ele><time>2026-04-04T07:05:08.097Z</time></trkpt><trkpt lat="44.9810583" lon="8.283535"><ele>249.5</ele><time>2026-04-04T07:05:09.097Z</time></trkpt><trkpt lat="44.981205" lon="8.2835367"><ele>250.25</ele><time>2026-04-04T07:05:10.097Z</time></trkpt><trkpt lat="44.981345" lon="8.2835567"><ele>251.0</ele><time>2026-04-04T07:05:11.101Z</time></trkpt><trkpt lat="44.9814867" lon="8.283605"><ele>251.0</ele><time>2026-04-04T07:05:12.104Z</time></trkpt><trkpt lat="44.9816083" lon="8.2837083"><ele>251.0</ele><time>2026-04-04T07:05:13.1Z</time></trkpt><trkpt lat="44.9817167" lon="8.28385"><ele>251.0</ele><time>2026-04-04T07:05:14.099Z</time></trkpt><trkpt lat="44.98181" lon="8.284015"><ele>251.0</ele><time>2026-04-04T07:05:15.101Z</time></trkpt><trkpt lat="44.981895" lon="8.2841983"><ele>254.66666666666669</ele><time>2026-04-04T07:05:16.103Z</time></trkpt><trkpt lat="44.98198" lon="8.284385"><ele>258.3333333333333</ele><time>2026-04-04T07:05:17.102Z</time></trkpt><trkpt lat="44.9820683" lon="8.28457"><ele>262.0</ele><time>2026-04-04T07:05:18.101Z</time></trkpt><trkpt lat="44.982155" lon="8.2847583"><ele>261.0</ele><time>2026-04-04T07:05:19.096Z</time></trkpt><trkpt lat="44.98224" lon="8.284945"><ele>260.0</ele><time>2026-04-04T07:05:20.097Z</time></trkpt><trkpt lat="44.9823283" lon="8.285125"><ele>259.0</ele><time>2026-04-04T07:05:21.102Z</time></trkpt><trkpt lat="44.9824033" lon="8.2852883"><ele>259.0</ele><time>2026-04-04T07:05:22.098Z</time></trkpt><trkpt lat="44.9824817" lon="8.2854467"><ele>259.0</ele><time>2026-04-04T07:05:23.096Z</time></trkpt><trkpt lat="44.98256" lon="8.2855783"><ele>259.0</ele><time>2026-04-04T07:05:24.101Z</time></trkpt><trkpt lat="44.9826267" lon="8.2856717"><ele>259.0</ele><time>2026-04-04T07:05:25.1Z</time></trkpt><trkpt lat="44.9826767" lon="8.28575"><ele>259.0</ele><time>2026-04-04T07:05:26.101Z</time></trkpt><trkpt lat="44.982725" lon="8.2858233"><ele>259.16666666666663</ele><time>2026-04-04T07:05:27.098Z</time></trkpt><trkpt lat="44.9827633" lon="8.2859017"><ele>259.3333333333333</ele><time>2026-04-04T07:05:28.1Z</time></trkpt><trkpt lat="44.9827267" lon="8.285995"><ele>259.5</ele><time>2026-04-04T07:05:29.101Z</time></trkpt><trkpt lat="44.9826967" lon="8.2860867"><ele>259.6666666666667</ele><time>2026-04-04T07:05:30.099Z</time></trkpt><trkpt lat="44.9826667" lon="8.2861883"><ele>259.83333333333337</ele><time>2026-04-04T07:05:31.098Z</time></trkpt><trkpt lat="44.9826283" lon="8.2862867"><ele>260.0</ele><time>2026-04-04T07:05:32.102Z</time></trkpt><trkpt lat="44.9825867" lon="8.2863817"><ele>259.83333333333337</ele><time>2026-04-04T07:05:33.102Z</time></trkpt><trkpt lat="44.9825383" lon="8.286465"><ele>259.6666666666667</ele><time>2026-04-04T07:05:34.096Z</time></trkpt><trkpt lat="44.9825017" lon="8.28654"><ele>259.5</ele><time>2026-04-04T07:05:35.101Z</time></trkpt><trkpt lat="44.982455" lon="8.2866433"><ele>259.3333333333333</ele><time>2026-04-04T07:05:37.101Z</time></trkpt><trkpt lat="44.9823783" lon="8.2867183"><ele>259.16666666666663</ele><time>2026-04-04T07:06:37.102Z</time></trkpt><trkpt lat="44.982325" lon="8.2868617"><ele>259.0</ele><time>2026-04-04T07:06:39.097Z</time></trkpt><trkpt lat="44.9822617" lon="8.2870033"><ele>259.0</ele><time>2026-04-04T07:06:41.099Z</time></trkpt><trkpt lat="44.98222" lon="8.2870733"><ele>259.0</ele><time>2026-04-04T07:06:42.096Z</time></trkpt><trkpt lat="44.982175" lon="8.2871467"><ele>259.0</ele><time>2026-04-04T07:06:43.096Z</time></trkpt><trkpt lat="44.9821317" lon="8.2872217"><ele>259.0</ele><time>2026-04-04T07:06:44.106Z</time></trkpt><trkpt lat="44.9820833" lon="8.2873017"><ele>259.0</ele><time>2026-04-04T07:06:45.104Z</time></trkpt><trkpt lat="44.9820333" lon="8.2873767"><ele>259.0</ele><time>2026-04-04T07:06:46.098Z</time></trkpt><trkpt lat="44.98198" lon="8.2874467"><ele>259.0</ele><time>2026-04-04T07:06:47.099Z</time></trkpt><trkpt lat="44.98193" lon="8.287515"><ele>259.5</ele><time>2026-04-04T07:06:48.099Z</time></trkpt><trkpt lat="44.9818733" lon="8.2875833"><ele>260.0</ele><time>2026-04-04T07:06:49.102Z</time></trkpt><trkpt lat="44.9818117" lon="8.28765"><ele>260.5</ele><time>2026-04-04T07:06:50.101Z</time></trkpt><trkpt lat="44.9817467" lon="8.287715"><ele>261.0</ele><time>2026-04-04T07:06:51.096Z</time></trkpt><trkpt lat="44.981675" lon="8.287785"><ele>261.5</ele><time>2026-04-04T07:06:52.096Z</time></trkpt><trkpt lat="44.9816017" lon="8.28786"><ele>262.0</ele><time>2026-04-04T07:06:53.098Z</time></trkpt><trkpt lat="44.9815267" lon="8.28793"><ele>260.2</ele><time>2026-04-04T07:06:54.098Z</time></trkpt><trkpt lat="44.9814467" lon="8.2880017"><ele>258.4</ele><time>2026-04-04T07:06:55.097Z</time></trkpt><trkpt lat="44.9813683" lon="8.2880967"><ele>256.6</ele><time>2026-04-04T07:06:56.103Z</time></trkpt><trkpt lat="44.9812833" lon="8.2881867"><ele>254.8</ele><time>2026-04-04T07:06:57.096Z</time></trkpt><trkpt lat="44.9812" lon="8.28828"><ele>253.0</ele><time>2026-04-04T07:06:58.097Z</time></trkpt><trkpt lat="44.981115" lon="8.2883683"><ele>253.0</ele><time>2026-04-04T07:06:59.099Z</time></trkpt><trkpt lat="44.9810267" lon="8.28846"><ele>253.0</ele><time>2026-04-04T07:07:00.097Z</time></trkpt><trkpt lat="44.980935" lon="8.288545"><ele>253.0</ele><time>2026-04-04T07:07:01.103Z</time></trkpt><trkpt lat="44.98084" lon="8.2886233"><ele>253.0</ele><time>2026-04-04T07:07:02.097Z</time></trkpt><trkpt lat="44.9807417" lon="8.2886867"><ele>253.0</ele><time>2026-04-04T07:07:03.098Z</time></trkpt><trkpt lat="44.9806433" lon="8.28875"><ele>249.0</ele><time>2026-04-04T07:07:04.113Z</time></trkpt><trkpt lat="44.9805317" lon="8.2887933"><ele>245.0</ele><time>2026-04-04T07:07:05.098Z</time></trkpt><trkpt lat="44.9804117" lon="8.2888283"><ele>241.0</ele><time>2026-04-04T07:07:06.1Z</time></trkpt><trkpt lat="44.9802817" lon="8.288875"><ele>237.0</ele><time>2026-04-04T07:07:07.103Z</time></trkpt><trkpt lat="44.9801417" lon="8.28892"><ele>237.25</ele><time>2026-04-04T07:07:08.101Z</time></trkpt><trkpt lat="44.9800033" lon="8.2889533"><ele>237.5</ele><time>2026-04-04T07:07:09.105Z</time></trkpt><trkpt lat="44.9798667" lon="8.2889817"><ele>237.75</ele><time>2026-04-04T07:07:10.098Z</time></trkpt><trkpt lat="44.9797367" lon="8.289005"><ele>238.0</ele><time>2026-04-04T07:07:11.101Z</time></trkpt><trkpt lat="44.9796117" lon="8.289035"><ele>238.0</ele><time>2026-04-04T07:07:12.098Z</time></trkpt><trkpt lat="44.9794867" lon="8.28909"><ele>238.0</ele><time>2026-04-04T07:07:13.102Z</time></trkpt><trkpt lat="44.979365" lon="8.28917"><ele>238.0</ele><time>2026-04-04T07:07:14.1Z</time></trkpt><trkpt lat="44.9792367" lon="8.2892717"><ele>238.0</ele><time>2026-04-04T07:07:15.099Z</time></trkpt><trkpt lat="44.97911" lon="8.28938"><ele>238.75</ele><time>2026-04-04T07:07:16.099Z</time></trkpt><trkpt lat="44.978985" lon="8.2894867"><ele>239.5</ele><time>2026-04-04T07:07:17.099Z</time></trkpt><trkpt lat="44.9788633" lon="8.2896"><ele>240.25</ele><time>2026-04-04T07:07:18.1Z</time></trkpt><trkpt lat="44.9787433" lon="8.2897167"><ele>241.0</ele><time>2026-04-04T07:07:19.095Z</time></trkpt><trkpt lat="44.9786367" lon="8.289845"><ele>241.0</ele><time>2026-04-04T07:07:20.101Z</time></trkpt><trkpt lat="44.9785417" lon="8.28999"><ele>241.0</ele><time>2026-04-04T07:07:21.099Z</time></trkpt><trkpt lat="44.97846" lon="8.290155"><ele>241.0</ele><time>2026-04-04T07:07:22.101Z</time></trkpt><trkpt lat="44.9784017" lon="8.2903167"><ele>241.0</ele><time>2026-04-04T07:07:23.098Z</time></trkpt><trkpt lat="44.9783567" lon="8.290465"><ele>240.60000000000002</ele><time>2026-04-04T07:07:24.1Z</time></trkpt><trkpt lat="44.97831" lon="8.2905883"><ele>240.20000000000002</ele><time>2026-04-04T07:07:25.097Z</time></trkpt><trkpt lat="44.9782583" lon="8.2906967"><ele>239.79999999999998</ele><time>2026-04-04T07:07:26.098Z</time></trkpt><trkpt lat="44.9781917" lon="8.2907833"><ele>239.39999999999998</ele><time>2026-04-04T07:07:27.099Z</time></trkpt><trkpt lat="44.978115" lon="8.2908467"><ele>239.0</ele><time>2026-04-04T07:07:28.098Z</time></trkpt><trkpt lat="44.97803" lon="8.2908783"><ele>239.0</ele><time>2026-04-04T07:07:29.099Z</time></trkpt><trkpt lat="44.9779233" lon="8.29086"><ele>239.0</ele><time>2026-04-04T07:07:30.103Z</time></trkpt><trkpt lat="44.97781" lon="8.2908167"><ele>239.0</ele><time>2026-04-04T07:07:31.103Z</time></trkpt><trkpt lat="44.9776633" lon="8.2907583"><ele>239.0</ele><time>2026-04-04T07:07:32.099Z</time></trkpt><trkpt lat="44.97753" lon="8.2907033"><ele>238.25</ele><time>2026-04-04T07:07:33.097Z</time></trkpt><trkpt lat="44.97739" lon="8.2906517"><ele>237.5</ele><time>2026-04-04T07:07:34.1Z</time></trkpt><trkpt lat="44.97725" lon="8.2906083"><ele>236.75</ele><time>2026-04-04T07:07:35.101Z</time></trkpt><trkpt lat="44.9770983" lon="8.2905917"><ele>236.0</ele><time>2026-04-04T07:07:36.106Z</time></trkpt><trkpt lat="44.9769517" lon="8.290585"><ele>236.0</ele><time>2026-04-04T07:07:37.103Z</time></trkpt><trkpt lat="44.9768117" lon="8.2905917"><ele>236.0</ele><time>2026-04-04T07:07:38.103Z</time></trkpt><trkpt lat="44.9766567" lon="8.2906133"><ele>236.0</ele><time>2026-04-04T07:07:39.103Z</time></trkpt><trkpt lat="44.97651" lon="8.2906617"><ele>236.0</ele><time>2026-04-04T07:07:40.1Z</time></trkpt><trkpt lat="44.976365" lon="8.2907283"><ele>236.33333333333334</ele><time>2026-04-04T07:07:41.1Z</time></trkpt><trkpt lat="44.976225" lon="8.2908117"><ele>236.66666666666669</ele><time>2026-04-04T07:07:42.098Z</time></trkpt><trkpt lat="44.9760883" lon="8.2909217"><ele>237.0</ele><time>2026-04-04T07:07:43.104Z</time></trkpt><trkpt lat="44.975955" lon="8.2910333"><ele>240.33333333333331</ele><time>2026-04-04T07:07:44.101Z</time></trkpt><trkpt lat="44.9758217" lon="8.2911433"><ele>243.66666666666666</ele><time>2026-04-04T07:07:45.098Z</time></trkpt><trkpt lat="44.975685" lon="8.2912467"><ele>247.0</ele><time>2026-04-04T07:07:46.101Z</time></trkpt><trkpt lat="44.9755517" lon="8.2913483"><ele>245.5</ele><time>2026-04-04T07:07:47.102Z</time></trkpt><trkpt lat="44.9754283" lon="8.2914533"><ele>244.0</ele><time>2026-04-04T07:07:48.102Z</time></trkpt><trkpt lat="44.97531" lon="8.29156"><ele>242.5</ele><time>2026-04-04T07:07:49.103Z</time></trkpt><trkpt lat="44.975195" lon="8.29169"><ele>241.0</ele><time>2026-04-04T07:07:50.102Z</time></trkpt><trkpt lat="44.975115" lon="8.2918617"><ele>241.0</ele><time>2026-04-04T07:07:51.102Z</time></trkpt><trkpt lat="44.9750367" lon="8.2920517"><ele>241.0</ele><time>2026-04-04T07:07:52.102Z</time></trkpt><trkpt lat="44.974965" lon="8.2922517"><ele>241.0</ele><time>2026-04-04T07:07:53.105Z</time></trkpt><trkpt lat="44.9748983" lon="8.292455"><ele>240.0</ele><time>2026-04-04T07:07:54.102Z</time></trkpt><trkpt lat="44.9748433" lon="8.292665"><ele>239.0</ele><time>2026-04-04T07:07:55.1Z</time></trkpt><trkpt lat="44.9747883" lon="8.29286"><ele>238.0</ele><time>2026-04-04T07:07:56.101Z</time></trkpt><trkpt lat="44.9747183" lon="8.29304"><ele>236.25</ele><time>2026-04-04T07:07:57.103Z</time></trkpt><trkpt lat="44.9746467" lon="8.2932133"><ele>234.5</ele><time>2026-04-04T07:07:58.105Z</time></trkpt><trkpt lat="44.9745983" lon="8.2933817"><ele>232.75</ele><time>2026-04-04T07:07:59.099Z</time></trkpt><trkpt lat="44.97458" lon="8.293565"><ele>231.0</ele><time>2026-04-04T07:08:00.097Z</time></trkpt><trkpt lat="44.9745783" lon="8.29376"><ele>230.5</ele><time>2026-04-04T07:08:01.104Z</time></trkpt><trkpt lat="44.97458" lon="8.2939583"><ele>230.0</ele><time>2026-04-04T07:08:02.105Z</time></trkpt><trkpt lat="44.974575" lon="8.294155"><ele>229.5</ele><time>2026-04-04T07:08:03.096Z</time></trkpt><trkpt lat="44.9745617" lon="8.2943433"><ele>229.0</ele><time>2026-04-04T07:08:04.097Z</time></trkpt><trkpt lat="44.9745333" lon="8.2945183"><ele>229.0</ele><time>2026-04-04T07:08:05.099Z</time></trkpt><trkpt lat="44.97449" lon="8.294685"><ele>229.0</ele><time>2026-04-04T07:08:06.099Z</time></trkpt><trkpt lat="44.9744217" lon="8.2948317"><ele>229.0</ele><time>2026-04-04T07:08:07.097Z</time></trkpt><trkpt lat="44.9743467" lon="8.294965"><ele>229.0</ele><time>2026-04-04T07:08:08.099Z</time></trkpt><trkpt lat="44.97425" lon="8.2950683"><ele>231.25</ele><time>2026-04-04T07:08:09.097Z</time></trkpt><trkpt lat="44.9741383" lon="8.2951283"><ele>233.5</ele><time>2026-04-04T07:08:10.099Z</time></trkpt><trkpt lat="44.97401" lon="8.2951683"><ele>235.75</ele><time>2026-04-04T07:08:11.102Z</time></trkpt><trkpt lat="44.97387" lon="8.2952017"><ele>238.0</ele><time>2026-04-04T07:08:12.099Z</time></trkpt><trkpt lat="44.9737283" lon="8.2952433"><ele>238.0</ele><time>2026-04-04T07:08:13.099Z</time></trkpt><trkpt lat="44.973585" lon="8.2952917"><ele>238.0</ele><time>2026-04-04T07:08:14.096Z</time></trkpt><trkpt lat="44.97344" lon="8.295345"><ele>238.0</ele><time>2026-04-04T07:08:15.101Z</time></trkpt><trkpt lat="44.9732933" lon="8.2954083"><ele>236.33333333333331</ele><time>2026-04-04T07:08:16.101Z</time></trkpt><trkpt lat="44.9731483" lon="8.2954867"><ele>234.66666666666669</ele><time>2026-04-04T07:08:17.102Z</time></trkpt><trkpt lat="44.9729967" lon="8.2955567"><ele>233.0</ele><time>2026-04-04T07:08:18.099Z</time></trkpt><trkpt lat="44.97285" lon="8.295625"><ele>232.5</ele><time>2026-04-04T07:08:19.098Z</time></trkpt><trkpt lat="44.9727067" lon="8.2956967"><ele>232.0</ele><time>2026-04-04T07:08:20.102Z</time></trkpt><trkpt lat="44.9725717" lon="8.2957833"><ele>231.5</ele><time>2026-04-04T07:08:21.1Z</time></trkpt><trkpt lat="44.972445" lon="8.2958817"><ele>231.0</ele><time>2026-04-04T07:08:22.101Z</time></trkpt><trkpt lat="44.9723317" lon="8.2960233"><ele>231.0</ele><time>2026-04-04T07:08:23.097Z</time></trkpt><trkpt lat="44.9722317" lon="8.2961833"><ele>231.0</ele><time>2026-04-04T07:08:24.098Z</time></trkpt><trkpt lat="44.9721383" lon="8.29635"><ele>231.0</ele><time>2026-04-04T07:08:25.098Z</time></trkpt><trkpt lat="44.972045" lon="8.2965067"><ele>231.0</ele><time>2026-04-04T07:08:26.103Z</time></trkpt><trkpt lat="44.9719483" lon="8.2966533"><ele>230.5</ele><time>2026-04-04T07:08:27.098Z</time></trkpt><trkpt lat="44.9718417" lon="8.2967833"><ele>230.0</ele><time>2026-04-04T07:08:28.098Z</time></trkpt><trkpt lat="44.9717317" lon="8.2968933"><ele>229.5</ele><time>2026-04-04T07:08:29.098Z</time></trkpt><trkpt lat="44.971615" lon="8.2969817"><ele>229.0</ele><time>2026-04-04T07:08:30.098Z</time></trkpt><trkpt lat="44.9715" lon="8.2970633"><ele>229.75</ele><time>2026-04-04T07:08:31.1Z</time></trkpt><trkpt lat="44.9713867" lon="8.297145"><ele>230.5</ele><time>2026-04-04T07:08:32.101Z</time></trkpt><trkpt lat="44.9712767" lon="8.2972383"><ele>231.25</ele><time>2026-04-04T07:08:33.097Z</time></trkpt><trkpt lat="44.9711667" lon="8.2973483"><ele>232.0</ele><time>2026-04-04T07:08:34.096Z</time></trkpt><trkpt lat="44.97105" lon="8.2974733"><ele>232.0</ele><time>2026-04-04T07:08:35.097Z</time></trkpt><trkpt lat="44.9709317" lon="8.2976"><ele>232.0</ele><time>2026-04-04T07:08:36.097Z</time></trkpt><trkpt lat="44.970815" lon="8.2977283"><ele>232.0</ele><time>2026-04-04T07:08:37.101Z</time></trkpt><trkpt lat="44.97069" lon="8.2978483"><ele>232.0</ele><time>2026-04-04T07:08:38.101Z</time></trkpt><trkpt lat="44.970555" lon="8.2979483"><ele>232.0</ele><time>2026-04-04T07:08:39.102Z</time></trkpt><trkpt lat="44.9704117" lon="8.2980417"><ele>232.0</ele><time>2026-04-04T07:08:40.101Z</time></trkpt><trkpt lat="44.9702683" lon="8.29813"><ele>232.0</ele><time>2026-04-04T07:08:41.099Z</time></trkpt><trkpt lat="44.9701267" lon="8.29824"><ele>233.0</ele><time>2026-04-04T07:08:42.103Z</time></trkpt><trkpt lat="44.96999" lon="8.2983467"><ele>234.0</ele><time>2026-04-04T07:08:43.102Z</time></trkpt><trkpt lat="44.969855" lon="8.298435"><ele>235.0</ele><time>2026-04-04T07:08:44.096Z</time></trkpt><trkpt lat="44.9697117" lon="8.2984983"><ele>235.0</ele><time>2026-04-04T07:08:45.096Z</time></trkpt><trkpt lat="44.9695633" lon="8.2985517"><ele>235.0</ele><time>2026-04-04T07:08:46.106Z</time></trkpt><trkpt lat="44.9694183" lon="8.298595"><ele>235.0</ele><time>2026-04-04T07:08:47.098Z</time></trkpt><trkpt lat="44.9692733" lon="8.29864"><ele>235.5</ele><time>2026-04-04T07:08:48.096Z</time></trkpt><trkpt lat="44.969135" lon="8.2986917"><ele>236.0</ele><time>2026-04-04T07:08:49.1Z</time></trkpt><trkpt lat="44.969005" lon="8.2987483"><ele>236.5</ele><time>2026-04-04T07:08:50.1Z</time></trkpt><trkpt lat="44.9688667" lon="8.298805"><ele>237.0</ele><time>2026-04-04T07:08:51.099Z</time></trkpt><trkpt lat="44.9687267" lon="8.2988533"><ele>237.0</ele><time>2026-04-04T07:08:52.098Z</time></trkpt><trkpt lat="44.9685767" lon="8.298905"><ele>237.0</ele><time>2026-04-04T07:08:53.1Z</time></trkpt><trkpt lat="44.968415" lon="8.2989583"><ele>237.0</ele><time>2026-04-04T07:08:54.101Z</time></trkpt><trkpt lat="44.9682483" lon="8.299015"><ele>236.66666666666669</ele><time>2026-04-04T07:08:55.102Z</time></trkpt><trkpt lat="44.9680717" lon="8.299075"><ele>236.33333333333334</ele><time>2026-04-04T07:08:56.1Z</time></trkpt><trkpt lat="44.9678917" lon="8.2991383"><ele>236.0</ele><time>2026-04-04T07:08:57.096Z</time></trkpt><trkpt lat="44.9677133" lon="8.2992"><ele>236.0</ele><time>2026-04-04T07:08:58.098Z</time></trkpt><trkpt lat="44.96754" lon="8.299255"><ele>236.0</ele><time>2026-04-04T07:08:59.097Z</time></trkpt><trkpt lat="44.967375" lon="8.2993033"><ele>236.0</ele><time>2026-04-04T07:09:00.098Z</time></trkpt><trkpt lat="44.9672033" lon="8.2993483"><ele>234.66666666666669</ele><time>2026-04-04T07:09:01.101Z</time></trkpt><trkpt lat="44.9670333" lon="8.2993967"><ele>233.33333333333331</ele><time>2026-04-04T07:09:02.102Z</time></trkpt><trkpt lat="44.9668633" lon="8.29944"><ele>232.0</ele><time>2026-04-04T07:09:03.099Z</time></trkpt><trkpt lat="44.9666817" lon="8.2994783"><ele>231.0</ele><time>2026-04-04T07:09:04.099Z</time></trkpt><trkpt lat="44.9665217" lon="8.2995233"><ele>230.0</ele><time>2026-04-04T07:09:05.099Z</time></trkpt><trkpt lat="44.9663683" lon="8.2995717"><ele>229.0</ele><time>2026-04-04T07:09:06.1Z</time></trkpt><trkpt lat="44.9662217" lon="8.2996333"><ele>229.0</ele><time>2026-04-04T07:09:07.097Z</time></trkpt><trkpt lat="44.966075" lon="8.29971"><ele>229.0</ele><time>2026-04-04T07:09:08.102Z</time></trkpt><trkpt lat="44.965935" lon="8.2998067"><ele>229.0</ele><time>2026-04-04T07:09:09.098Z</time></trkpt><trkpt lat="44.9657917" lon="8.299925"><ele>227.66666666666666</ele><time>2026-04-04T07:09:10.099Z</time></trkpt><trkpt lat="44.9656617" lon="8.3000717"><ele>226.33333333333331</ele><time>2026-04-04T07:09:11.1Z</time></trkpt><trkpt lat="44.9655483" lon="8.3002467"><ele>225.0</ele><time>2026-04-04T07:09:12.096Z</time></trkpt><trkpt lat="44.9654417" lon="8.300435"><ele>222.0</ele><time>2026-04-04T07:09:13.1Z</time></trkpt><trkpt lat="44.96534" lon="8.3006267"><ele>219.0</ele><time>2026-04-04T07:09:14.1Z</time></trkpt><trkpt lat="44.9652417" lon="8.30082"><ele>216.0</ele><time>2026-04-04T07:09:15.099Z</time></trkpt><trkpt lat="44.9651467" lon="8.3010067"><ele>216.0</ele><time>2026-04-04T07:09:16.102Z</time></trkpt><trkpt lat="44.96506" lon="8.3011917"><ele>216.0</ele><time>2026-04-04T07:09:17.1Z</time></trkpt><trkpt lat="44.96498" lon="8.301365"><ele>216.0</ele><time>2026-04-04T07:09:18.105Z</time></trkpt><trkpt lat="44.964905" lon="8.3015233"><ele>216.0</ele><time>2026-04-04T07:09:19.096Z</time></trkpt><trkpt lat="44.964825" lon="8.3016717"><ele>219.25</ele><time>2026-04-04T07:09:20.097Z</time></trkpt><trkpt lat="44.9647467" lon="8.3018167"><ele>222.5</ele><time>2026-04-04T07:09:21.097Z</time></trkpt><trkpt lat="44.96467" lon="8.3019533"><ele>225.75</ele><time>2026-04-04T07:09:22.096Z</time></trkpt><trkpt lat="44.9645933" lon="8.3020833"><ele>229.0</ele><time>2026-04-04T07:09:23.099Z</time></trkpt><trkpt lat="44.9645133" lon="8.3022233"><ele>228.5</ele><time>2026-04-04T07:09:24.105Z</time></trkpt><trkpt lat="44.9644317" lon="8.302345"><ele>228.0</ele><time>2026-04-04T07:09:25.101Z</time></trkpt><trkpt lat="44.96435" lon="8.3024583"><ele>227.5</ele><time>2026-04-04T07:09:26.1Z</time></trkpt><trkpt lat="44.96426" lon="8.3025683"><ele>227.0</ele><time>2026-04-04T07:09:27.1Z</time></trkpt><trkpt lat="44.9641717" lon="8.3026683"><ele>228.2</ele><time>2026-04-04T07:09:28.099Z</time></trkpt><trkpt lat="44.9640867" lon="8.30277"><ele>229.39999999999998</ele><time>2026-04-04T07:09:29.097Z</time></trkpt><trkpt lat="44.9640083" lon="8.3028717"><ele>230.60000000000002</ele><time>2026-04-04T07:09:30.097Z</time></trkpt><trkpt lat="44.9639417" lon="8.3029717"><ele>231.8</ele><time>2026-04-04T07:09:31.102Z</time></trkpt><trkpt lat="44.9638783" lon="8.3030767"><ele>233.0</ele><time>2026-04-04T07:09:32.098Z</time></trkpt><trkpt lat="44.963815" lon="8.3031917"><ele>233.0</ele><time>2026-04-04T07:09:33.097Z</time></trkpt><trkpt lat="44.963745" lon="8.3033117"><ele>233.0</ele><time>2026-04-04T07:09:34.099Z</time></trkpt><trkpt lat="44.96367" lon="8.303435"><ele>233.0</ele><time>2026-04-04T07:09:35.098Z</time></trkpt><trkpt lat="44.963595" lon="8.30356"><ele>233.0</ele><time>2026-04-04T07:09:36.101Z</time></trkpt><trkpt lat="44.96352" lon="8.3036783"><ele>233.0</ele><time>2026-04-04T07:09:37.1Z</time></trkpt><trkpt lat="44.9634383" lon="8.3037767"><ele>233.0</ele><time>2026-04-04T07:09:38.097Z</time></trkpt><trkpt lat="44.9633533" lon="8.3038633"><ele>233.0</ele><time>2026-04-04T07:09:39.098Z</time></trkpt><trkpt lat="44.963265" lon="8.3039483"><ele>233.0</ele><time>2026-04-04T07:09:40.097Z</time></trkpt><trkpt lat="44.9631783" lon="8.3040333"><ele>233.0</ele><time>2026-04-04T07:09:41.101Z</time></trkpt><trkpt lat="44.9630917" lon="8.3041067"><ele>232.0</ele><time>2026-04-04T07:09:42.098Z</time></trkpt><trkpt lat="44.963005" lon="8.3041817"><ele>231.0</ele><time>2026-04-04T07:09:43.099Z</time></trkpt><trkpt lat="44.9629183" lon="8.3042567"><ele>230.0</ele><time>2026-04-04T07:09:44.099Z</time></trkpt><trkpt lat="44.9628283" lon="8.3043333"><ele>229.0</ele><time>2026-04-04T07:09:45.1Z</time></trkpt><trkpt lat="44.9627417" lon="8.3044117"><ele>228.0</ele><time>2026-04-04T07:09:46.103Z</time></trkpt><trkpt lat="44.9626633" lon="8.3044967"><ele>228.0</ele><time>2026-04-04T07:09:47.1Z</time></trkpt><trkpt lat="44.9625867" lon="8.3045767"><ele>228.0</ele><time>2026-04-04T07:09:48.101Z</time></trkpt><trkpt lat="44.96252" lon="8.304655"><ele>228.0</ele><time>2026-04-04T07:09:49.1Z</time></trkpt><trkpt lat="44.96246" lon="8.304725"><ele>228.0</ele><time>2026-04-04T07:09:50.102Z</time></trkpt><trkpt lat="44.9624067" lon="8.3047833"><ele>228.0</ele><time>2026-04-04T07:09:51.096Z</time></trkpt><trkpt lat="44.962325" lon="8.30484"><ele>228.0</ele><time>2026-04-04T07:09:53.097Z</time></trkpt><trkpt lat="44.9624483" lon="8.304815"><ele>228.0</ele><time>2026-04-04T07:09:59.098Z</time></trkpt><trkpt lat="44.9625133" lon="8.3047517"><ele>228.0</ele><time>2026-04-04T07:10:00.099Z</time></trkpt><trkpt lat="44.962565" lon="8.3046833"><ele>228.0</ele><time>2026-04-04T07:10:01.099Z</time></trkpt><trkpt lat="44.9626233" lon="8.3046083"><ele>228.0</ele><time>2026-04-04T07:10:02.099Z</time></trkpt><trkpt lat="44.9626833" lon="8.3045383"><ele>228.0</ele><time>2026-04-04T07:10:03.1Z</time></trkpt><trkpt lat="44.962745" lon="8.3044683"><ele>228.0</ele><time>2026-04-04T07:10:04.101Z</time></trkpt><trkpt lat="44.9628117" lon="8.3043983"><ele>228.0</ele><time>2026-04-04T07:10:05.1Z</time></trkpt><trkpt lat="44.962885" lon="8.304345"><ele>228.0</ele><time>2026-04-04T07:10:06.099Z</time></trkpt><trkpt lat="44.9629617" lon="8.3042917"><ele>228.0</ele><time>2026-04-04T07:10:07.103Z</time></trkpt><trkpt lat="44.9630517" lon="8.3042483"><ele>228.0</ele><time>2026-04-04T07:10:08.097Z</time></trkpt><trkpt lat="44.9631467" lon="8.3042117"><ele>228.0</ele><time>2026-04-04T07:10:09.099Z</time></trkpt><trkpt lat="44.96327" lon="8.304185"><ele>225.25</ele><time>2026-04-04T07:10:10.1Z</time></trkpt><trkpt lat="44.963405" lon="8.3041617"><ele>222.5</ele><time>2026-04-04T07:10:11.1Z</time></trkpt><trkpt lat="44.963545" lon="8.3041367"><ele>219.75</ele><time>2026-04-04T07:10:12.099Z</time></trkpt><trkpt lat="44.9636867" lon="8.304115"><ele>217.0</ele><time>2026-04-04T07:10:13.105Z</time></trkpt><trkpt lat="44.9638267" lon="8.3040917"><ele>217.0</ele><time>2026-04-04T07:10:14.1Z</time></trkpt><trkpt lat="44.96398" lon="8.304065"><ele>217.0</ele><time>2026-04-04T07:10:15.096Z</time></trkpt><trkpt lat="44.964135" lon="8.30402"><ele>217.0</ele><time>2026-04-04T07:10:16.097Z</time></trkpt><trkpt lat="44.9642867" lon="8.3039567"><ele>218.0</ele><time>2026-04-04T07:10:17.097Z</time></trkpt><trkpt lat="44.9644333" lon="8.3038767"><ele>219.0</ele><time>2026-04-04T07:10:18.096Z</time></trkpt><trkpt lat="44.9645817" lon="8.3037917"><ele>220.0</ele><time>2026-04-04T07:10:19.096Z</time></trkpt><trkpt lat="44.9647283" lon="8.3037"><ele>220.0</ele><time>2026-04-04T07:10:20.096Z</time></trkpt><trkpt lat="44.964875" lon="8.3036133"><ele>220.0</ele><time>2026-04-04T07:10:21.098Z</time></trkpt><trkpt lat="44.9650167" lon="8.3035317"><ele>220.0</ele><time>2026-04-04T07:10:22.098Z</time></trkpt><trkpt lat="44.9651567" lon="8.3034533"><ele>217.75</ele><time>2026-04-04T07:10:23.099Z</time></trkpt><trkpt lat="44.9652933" lon="8.303375"><ele>215.5</ele><time>2026-04-04T07:10:24.101Z</time></trkpt><trkpt lat="44.96542" lon="8.303285"><ele>213.25</ele><time>2026-04-04T07:10:25.098Z</time></trkpt><trkpt lat="44.9655433" lon="8.3031817"><ele>211.0</ele><time>2026-04-04T07:10:26.097Z</time></trkpt><trkpt lat="44.9656367" lon="8.3030417"><ele>211.0</ele><time>2026-04-04T07:10:27.097Z</time></trkpt><trkpt lat="44.9657183" lon="8.3028783"><ele>211.0</ele><time>2026-04-04T07:10:28.097Z</time></trkpt><trkpt lat="44.9658083" lon="8.302705"><ele>211.0</ele><time>2026-04-04T07:10:29.097Z</time></trkpt><trkpt lat="44.9658883" lon="8.3025133"><ele>207.33333333333331</ele><time>2026-04-04T07:10:30.102Z</time></trkpt><trkpt lat="44.965965" lon="8.3023167"><ele>203.66666666666669</ele><time>2026-04-04T07:10:31.101Z</time></trkpt><trkpt lat="44.96603" lon="8.302125"><ele>200.0</ele><time>2026-04-04T07:10:32.103Z</time></trkpt><trkpt lat="44.9661167" lon="8.3019433"><ele>200.0</ele><time>2026-04-04T07:10:33.101Z</time></trkpt><trkpt lat="44.9662083" lon="8.3017817"><ele>200.0</ele><time>2026-04-04T07:10:34.096Z</time></trkpt><trkpt lat="44.966325" lon="8.3016467"><ele>200.0</ele><time>2026-04-04T07:10:35.099Z</time></trkpt><trkpt lat="44.9664517" lon="8.3015383"><ele>200.0</ele><time>2026-04-04T07:10:36.1Z</time></trkpt><trkpt lat="44.9666033" lon="8.3014733"><ele>198.75</ele><time>2026-04-04T07:10:37.098Z</time></trkpt><trkpt lat="44.966745" lon="8.3014133"><ele>197.5</ele><time>2026-04-04T07:10:38.096Z</time></trkpt><trkpt lat="44.9668683" lon="8.3013967"><ele>196.25</ele><time>2026-04-04T07:10:39.097Z</time></trkpt><trkpt lat="44.9670367" lon="8.3014767"><ele>195.0</ele><time>2026-04-04T07:10:40.097Z</time></trkpt><trkpt lat="44.9672317" lon="8.301655"><ele>195.0</ele><time>2026-04-04T07:10:41.097Z</time></trkpt><trkpt lat="44.9674" lon="8.3017917"><ele>195.0</ele><time>2026-04-04T07:10:42.098Z</time></trkpt><trkpt lat="44.9675767" lon="8.3019817"><ele>195.0</ele><time>2026-04-04T07:10:43.097Z</time></trkpt><trkpt lat="44.96774" lon="8.3021283"><ele>191.66666666666666</ele><time>2026-04-04T07:10:44.098Z</time></trkpt><trkpt lat="44.9679017" lon="8.3022733"><ele>188.33333333333331</ele><time>2026-04-04T07:10:45.097Z</time></trkpt><trkpt lat="44.9680667" lon="8.3024133"><ele>185.0</ele><time>2026-04-04T07:10:46.1Z</time></trkpt><trkpt lat="44.9682333" lon="8.3025467"><ele>186.66666666666666</ele><time>2026-04-04T07:10:47.101Z</time></trkpt><trkpt lat="44.9683867" lon="8.302695"><ele>188.33333333333334</ele><time>2026-04-04T07:10:48.104Z</time></trkpt><trkpt lat="44.9685517" lon="8.3028333"><ele>190.0</ele><time>2026-04-04T07:10:49.099Z</time></trkpt><trkpt lat="44.96871" lon="8.3029683"><ele>190.0</ele><time>2026-04-04T07:10:50.099Z</time></trkpt><trkpt lat="44.968875" lon="8.3030783"><ele>190.0</ele><time>2026-04-04T07:10:51.097Z</time></trkpt><trkpt lat="44.9690417" lon="8.303165"><ele>190.0</ele><time>2026-04-04T07:10:52.097Z</time></trkpt><trkpt lat="44.9692183" lon="8.3032217"><ele>184.33333333333334</ele><time>2026-04-04T07:10:53.099Z</time></trkpt><trkpt lat="44.9693917" lon="8.30326"><ele>178.66666666666666</ele><time>2026-04-04T07:10:54.102Z</time></trkpt><trkpt lat="44.9695717" lon="8.30326"><ele>173.0</ele><time>2026-04-04T07:10:55.101Z</time></trkpt><trkpt lat="44.9697533" lon="8.303245"><ele>173.0</ele><time>2026-04-04T07:10:56.098Z</time></trkpt><trkpt lat="44.9699333" lon="8.3032183"><ele>173.0</ele><time>2026-04-04T07:10:57.099Z</time></trkpt><trkpt lat="44.9701217" lon="8.303195"><ele>173.0</ele><time>2026-04-04T07:10:58.098Z</time></trkpt><trkpt lat="44.97031" lon="8.3031767"><ele>173.0</ele><time>2026-04-04T07:10:59.099Z</time></trkpt><trkpt lat="44.9704967" lon="8.3031633"><ele>173.0</ele><time>2026-04-04T07:11:00.101Z</time></trkpt><trkpt lat="44.9706783" lon="8.3031633"><ele>173.0</ele><time>2026-04-04T07:11:01.1Z</time></trkpt><trkpt lat="44.9708617" lon="8.303175"><ele>173.0</ele><time>2026-04-04T07:11:02.097Z</time></trkpt><trkpt lat="44.971045" lon="8.3032017"><ele>173.0</ele><time>2026-04-04T07:11:03.097Z</time></trkpt><trkpt lat="44.9712233" lon="8.30324"><ele>173.0</ele><time>2026-04-04T07:11:04.098Z</time></trkpt><trkpt lat="44.9714017" lon="8.303285"><ele>173.0</ele><time>2026-04-04T07:11:05.097Z</time></trkpt><trkpt lat="44.971575" lon="8.303355"><ele>173.0</ele><time>2026-04-04T07:11:06.099Z</time></trkpt><trkpt lat="44.971745" lon="8.303435"><ele>173.0</ele><time>2026-04-04T07:11:07.098Z</time></trkpt><trkpt lat="44.971905" lon="8.3035317"><ele>172.33333333333331</ele><time>2026-04-04T07:11:08.097Z</time></trkpt><trkpt lat="44.9720617" lon="8.3036467"><ele>171.66666666666666</ele><time>2026-04-04T07:11:09.099Z</time></trkpt><trkpt lat="44.9722117" lon="8.3037767"><ele>171.0</ele><time>2026-04-04T07:11:10.097Z</time></trkpt><trkpt lat="44.9723533" lon="8.30392"><ele>170.33333333333334</ele><time>2026-04-04T07:11:11.1Z</time></trkpt><trkpt lat="44.9724783" lon="8.3040967"><ele>169.66666666666669</ele><time>2026-04-04T07:11:12.098Z</time></trkpt><trkpt lat="44.9726183" lon="8.30427"><ele>169.0</ele><time>2026-04-04T07:11:13.101Z</time></trkpt><trkpt lat="44.9727567" lon="8.304445"><ele>168.66666666666669</ele><time>2026-04-04T07:11:14.102Z</time></trkpt><trkpt lat="44.9728967" lon="8.3046217"><ele>168.33333333333334</ele><time>2026-04-04T07:11:15.097Z</time></trkpt><trkpt lat="44.9730417" lon="8.304785"><ele>168.0</ele><time>2026-04-04T07:11:16.098Z</time></trkpt><trkpt lat="44.97318" lon="8.304955"><ele>168.0</ele><time>2026-04-04T07:11:17.101Z</time></trkpt><trkpt lat="44.9733267" lon="8.3050883"><ele>168.0</ele><time>2026-04-04T07:11:18.099Z</time></trkpt><trkpt lat="44.973465" lon="8.3052767"><ele>168.0</ele><time>2026-04-04T07:11:19.1Z</time></trkpt><trkpt lat="44.9736033" lon="8.3054667"><ele>169.33333333333334</ele><time>2026-04-04T07:11:20.102Z</time></trkpt><trkpt lat="44.97374" lon="8.3056567"><ele>170.66666666666669</ele><time>2026-04-04T07:11:21.095Z</time></trkpt><trkpt lat="44.9738717" lon="8.305845"><ele>172.0</ele><time>2026-04-04T07:11:22.099Z</time></trkpt><trkpt lat="44.97401" lon="8.3060267"><ele>172.0</ele><time>2026-04-04T07:11:23.096Z</time></trkpt><trkpt lat="44.97415" lon="8.30621"><ele>172.0</ele><time>2026-04-04T07:11:24.099Z</time></trkpt><trkpt lat="44.9742933" lon="8.30639"><ele>172.0</ele><time>2026-04-04T07:11:25.098Z</time></trkpt><trkpt lat="44.974435" lon="8.3065733"><ele>172.33333333333334</ele><time>2026-04-04T07:11:26.098Z</time></trkpt><trkpt lat="44.9745767" lon="8.3067633"><ele>172.66666666666666</ele><time>2026-04-04T07:11:27.098Z</time></trkpt><trkpt lat="44.9747267" lon="8.306925"><ele>173.0</ele><time>2026-04-04T07:11:28.099Z</time></trkpt><trkpt lat="44.9748717" lon="8.3071083"><ele>173.66666666666666</ele><time>2026-04-04T07:11:29.098Z</time></trkpt><trkpt lat="44.975015" lon="8.307295"><ele>174.33333333333334</ele><time>2026-04-04T07:11:30.099Z</time></trkpt><trkpt lat="44.9751633" lon="8.3074833"><ele>175.0</ele><time>2026-04-04T07:11:31.098Z</time></trkpt><trkpt lat="44.9753167" lon="8.307665"><ele>175.0</ele><time>2026-04-04T07:11:32.099Z</time></trkpt><trkpt lat="44.9754683" lon="8.3078483"><ele>175.0</ele><time>2026-04-04T07:11:33.098Z</time></trkpt><trkpt lat="44.9756183" lon="8.308035"><ele>175.0</ele><time>2026-04-04T07:11:34.103Z</time></trkpt><trkpt lat="44.9757717" lon="8.3082183"><ele>175.0</ele><time>2026-04-04T07:11:35.098Z</time></trkpt><trkpt lat="44.9759267" lon="8.308405"><ele>175.0</ele><time>2026-04-04T07:11:36.099Z</time></trkpt><trkpt lat="44.9760783" lon="8.3085967"><ele>175.0</ele><time>2026-04-04T07:11:37.103Z</time></trkpt><trkpt lat="44.9762317" lon="8.3087867"><ele>175.66666666666669</ele><time>2026-04-04T07:11:38.099Z</time></trkpt><trkpt lat="44.9763867" lon="8.3089817"><ele>176.33333333333334</ele><time>2026-04-04T07:11:39.098Z</time></trkpt><trkpt lat="44.9765417" lon="8.3091733"><ele>177.0</ele><time>2026-04-04T07:11:40.096Z</time></trkpt><trkpt lat="44.9766967" lon="8.309365"><ele>177.66666666666666</ele><time>2026-04-04T07:11:41.101Z</time></trkpt><trkpt lat="44.9768483" lon="8.3095633"><ele>178.33333333333331</ele><time>2026-04-04T07:11:42.099Z</time></trkpt><trkpt lat="44.9769967" lon="8.309765"><ele>179.0</ele><time>2026-04-04T07:11:43.1Z</time></trkpt><trkpt lat="44.9771467" lon="8.3099667"><ele>179.0</ele><time>2026-04-04T07:11:44.098Z</time></trkpt><trkpt lat="44.9773" lon="8.31015"><ele>179.0</ele><time>2026-04-04T07:11:45.102Z</time></trkpt><trkpt lat="44.977455" lon="8.3103283"><ele>179.0</ele><time>2026-04-04T07:11:46.096Z</time></trkpt><trkpt lat="44.9776117" lon="8.310515"><ele>179.0</ele><time>2026-04-04T07:11:47.101Z</time></trkpt><trkpt lat="44.9777683" lon="8.3107"><ele>179.0</ele><time>2026-04-04T07:11:48.097Z</time></trkpt><trkpt lat="44.9779217" lon="8.3108867"><ele>179.0</ele><time>2026-04-04T07:11:49.104Z</time></trkpt><trkpt lat="44.9780733" lon="8.311075"><ele>179.0</ele><time>2026-04-04T07:11:50.099Z</time></trkpt><trkpt lat="44.9782333" lon="8.31127"><ele>179.0</ele><time>2026-04-04T07:11:51.096Z</time></trkpt><trkpt lat="44.9783983" lon="8.31147"><ele>179.0</ele><time>2026-04-04T07:11:52.106Z</time></trkpt><trkpt lat="44.9785667" lon="8.3116783"><ele>179.66666666666666</ele><time>2026-04-04T07:11:53.1Z</time></trkpt><trkpt lat="44.9787283" lon="8.3118833"><ele>180.33333333333334</ele><time>2026-04-04T07:11:54.1Z</time></trkpt><trkpt lat="44.97888" lon="8.3120717"><ele>181.0</ele><time>2026-04-04T07:11:55.102Z</time></trkpt><trkpt lat="44.9790233" lon="8.3122583"><ele>181.33333333333334</ele><time>2026-04-04T07:11:56.1Z</time></trkpt><trkpt lat="44.9791583" lon="8.31243"><ele>181.66666666666666</ele><time>2026-04-04T07:11:57.098Z</time></trkpt><trkpt lat="44.9792817" lon="8.3125883"><ele>182.0</ele><time>2026-04-04T07:11:58.1Z</time></trkpt><trkpt lat="44.9793983" lon="8.312735"><ele>182.0</ele><time>2026-04-04T07:11:59.101Z</time></trkpt><trkpt lat="44.9795" lon="8.3128883"><ele>182.0</ele><time>2026-04-04T07:12:00.096Z</time></trkpt><trkpt lat="44.9795917" lon="8.3130617"><ele>182.0</ele><time>2026-04-04T07:12:01.105Z</time></trkpt><trkpt lat="44.9796783" lon="8.3132467"><ele>184.0</ele><time>2026-04-04T07:12:02.1Z</time></trkpt><trkpt lat="44.97976" lon="8.3134433"><ele>186.0</ele><time>2026-04-04T07:12:03.101Z</time></trkpt><trkpt lat="44.9798383" lon="8.3136383"><ele>188.0</ele><time>2026-04-04T07:12:04.099Z</time></trkpt><trkpt lat="44.979925" lon="8.31383"><ele>187.0</ele><time>2026-04-04T07:12:05.099Z</time></trkpt><trkpt lat="44.980015" lon="8.3140167"><ele>186.0</ele><time>2026-04-04T07:12:06.101Z</time></trkpt><trkpt lat="44.980105" lon="8.31421"><ele>185.0</ele><time>2026-04-04T07:12:07.097Z</time></trkpt><trkpt lat="44.980185" lon="8.31441"><ele>185.0</ele><time>2026-04-04T07:12:08.096Z</time></trkpt><trkpt lat="44.9802583" lon="8.3146067"><ele>185.0</ele><time>2026-04-04T07:12:09.096Z</time></trkpt><trkpt lat="44.9803183" lon="8.3148"><ele>185.0</ele><time>2026-04-04T07:12:10.096Z</time></trkpt><trkpt lat="44.9803667" lon="8.315005"><ele>186.25</ele><time>2026-04-04T07:12:11.097Z</time></trkpt><trkpt lat="44.9803983" lon="8.3152117"><ele>187.5</ele><time>2026-04-04T07:12:12.097Z</time></trkpt><trkpt lat="44.9804267" lon="8.3154183"><ele>188.75</ele><time>2026-04-04T07:12:13.098Z</time></trkpt><trkpt lat="44.9804583" lon="8.3156117"><ele>190.0</ele><time>2026-04-04T07:12:14.097Z</time></trkpt><trkpt lat="44.9804833" lon="8.3157933"><ele>192.0</ele><time>2026-04-04T07:12:15.098Z</time></trkpt><trkpt lat="44.9805183" lon="8.315955"><ele>194.0</ele><time>2026-04-04T07:12:16.102Z</time></trkpt><trkpt lat="44.980565" lon="8.3161"><ele>196.0</ele><time>2026-04-04T07:12:17.097Z</time></trkpt><trkpt lat="44.980625" lon="8.316235"><ele>198.0</ele><time>2026-04-04T07:12:18.097Z</time></trkpt><trkpt lat="44.9807" lon="8.3163633"><ele>197.75</ele><time>2026-04-04T07:12:19.098Z</time></trkpt><trkpt lat="44.9807783" lon="8.3164933"><ele>197.5</ele><time>2026-04-04T07:12:20.099Z</time></trkpt><trkpt lat="44.9808567" lon="8.3166267"><ele>197.25</ele><time>2026-04-04T07:12:21.098Z</time></trkpt><trkpt lat="44.98094" lon="8.3167533"><ele>197.0</ele><time>2026-04-04T07:12:22.099Z</time></trkpt><trkpt lat="44.9810183" lon="8.3168767"><ele>197.0</ele><time>2026-04-04T07:12:23.098Z</time></trkpt><trkpt lat="44.9810983" lon="8.3170017"><ele>197.0</ele><time>2026-04-04T07:12:24.098Z</time></trkpt><trkpt lat="44.9811717" lon="8.31713"><ele>197.0</ele><time>2026-04-04T07:12:25.101Z</time></trkpt><trkpt lat="44.981235" lon="8.3172667"><ele>197.0</ele><time>2026-04-04T07:12:26.097Z</time></trkpt><trkpt lat="44.9812883" lon="8.3174133"><ele>199.0</ele><time>2026-04-04T07:12:27.1Z</time></trkpt><trkpt lat="44.98132" lon="8.317565"><ele>201.0</ele><time>2026-04-04T07:12:28.098Z</time></trkpt><trkpt lat="44.9813367" lon="8.317725"><ele>203.0</ele><time>2026-04-04T07:12:29.099Z</time></trkpt><trkpt lat="44.98134" lon="8.31789"><ele>205.0</ele><time>2026-04-04T07:12:30.097Z</time></trkpt><trkpt lat="44.9813517" lon="8.3180617"><ele>206.25</ele><time>2026-04-04T07:12:31.096Z</time></trkpt><trkpt lat="44.9813683" lon="8.318235"><ele>207.5</ele><time>2026-04-04T07:12:32.095Z</time></trkpt><trkpt lat="44.9813767" lon="8.31841"><ele>208.75</ele><time>2026-04-04T07:12:33.096Z</time></trkpt><trkpt lat="44.98139" lon="8.3185833"><ele>210.0</ele><time>2026-04-04T07:12:34.098Z</time></trkpt><trkpt lat="44.981405" lon="8.3187517"><ele>211.0</ele><time>2026-04-04T07:12:35.1Z</time></trkpt><trkpt lat="44.9814283" lon="8.3189267"><ele>212.0</ele><time>2026-04-04T07:12:36.098Z</time></trkpt><trkpt lat="44.9814483" lon="8.3191017"><ele>213.0</ele><time>2026-04-04T07:12:37.099Z</time></trkpt><trkpt lat="44.9814683" lon="8.3192767"><ele>214.0</ele><time>2026-04-04T07:12:38.097Z</time></trkpt><trkpt lat="44.9814883" lon="8.3194517"><ele>214.0</ele><time>2026-04-04T07:12:39.099Z</time></trkpt><trkpt lat="44.98151" lon="8.3196217"><ele>214.0</ele><time>2026-04-04T07:12:40.098Z</time></trkpt><trkpt lat="44.9815283" lon="8.3197917"><ele>214.0</ele><time>2026-04-04T07:12:41.101Z</time></trkpt><trkpt lat="44.9815433" lon="8.3199567"><ele>214.0</ele><time>2026-04-04T07:12:42.101Z</time></trkpt><trkpt lat="44.9815617" lon="8.3201167"><ele>215.79999999999998</ele><time>2026-04-04T07:12:43.099Z</time></trkpt><trkpt lat="44.9815833" lon="8.3202717"><ele>217.59999999999997</ele><time>2026-04-04T07:12:44.102Z</time></trkpt><trkpt lat="44.9816017" lon="8.3204267"><ele>219.4</ele><time>2026-04-04T07:12:45.1Z</time></trkpt><trkpt lat="44.9816167" lon="8.3205817"><ele>221.2</ele><time>2026-04-04T07:12:46.103Z</time></trkpt><trkpt lat="44.9816317" lon="8.3207317"><ele>223.0</ele><time>2026-04-04T07:12:47.104Z</time></trkpt><trkpt lat="44.981645" lon="8.3208833"><ele>223.8</ele><time>2026-04-04T07:12:48.103Z</time></trkpt><trkpt lat="44.9816633" lon="8.3210367"><ele>224.60000000000002</ele><time>2026-04-04T07:12:49.1Z</time></trkpt><trkpt lat="44.9816767" lon="8.32119"><ele>225.39999999999998</ele><time>2026-04-04T07:12:50.103Z</time></trkpt><trkpt lat="44.981695" lon="8.3213483"><ele>226.2</ele><time>2026-04-04T07:12:51.102Z</time></trkpt><trkpt lat="44.9817117" lon="8.321505"><ele>227.0</ele><time>2026-04-04T07:12:52.097Z</time></trkpt><trkpt lat="44.98173" lon="8.3216633"><ele>227.0</ele><time>2026-04-04T07:12:53.103Z</time></trkpt><trkpt lat="44.9817483" lon="8.3218167"><ele>227.0</ele><time>2026-04-04T07:12:54.097Z</time></trkpt><trkpt lat="44.9817667" lon="8.32197"><ele>227.0</ele><time>2026-04-04T07:12:55.103Z</time></trkpt><trkpt lat="44.981785" lon="8.3221233"><ele>227.0</ele><time>2026-04-04T07:12:56.096Z</time></trkpt><trkpt lat="44.9818" lon="8.3222717"><ele>227.0</ele><time>2026-04-04T07:12:57.096Z</time></trkpt><trkpt lat="44.9818183" lon="8.32242"><ele>228.33333333333334</ele><time>2026-04-04T07:12:58.098Z</time></trkpt><trkpt lat="44.9818317" lon="8.3225567"><ele>229.66666666666669</ele><time>2026-04-04T07:12:59.099Z</time></trkpt><trkpt lat="44.9818417" lon="8.322675"><ele>231.0</ele><time>2026-04-04T07:13:00.099Z</time></trkpt><trkpt lat="44.98185" lon="8.322785"><ele>232.33333333333331</ele><time>2026-04-04T07:13:01.097Z</time></trkpt><trkpt lat="44.9818617" lon="8.3228933"><ele>233.66666666666666</ele><time>2026-04-04T07:13:02.098Z</time></trkpt><trkpt lat="44.981875" lon="8.3229917"><ele>235.0</ele><time>2026-04-04T07:13:03.099Z</time></trkpt><trkpt lat="44.9818883" lon="8.3230867"><ele>236.16666666666666</ele><time>2026-04-04T07:13:04.099Z</time></trkpt><trkpt lat="44.9819083" lon="8.3231783"><ele>237.33333333333331</ele><time>2026-04-04T07:13:05.101Z</time></trkpt><trkpt lat="44.98194" lon="8.3232583"><ele>238.5</ele><time>2026-04-04T07:13:06.097Z</time></trkpt><trkpt lat="44.9820183" lon="8.3234"><ele>239.66666666666669</ele><time>2026-04-04T07:13:08.101Z</time></trkpt><trkpt lat="44.9821117" lon="8.3234233"><ele>240.83333333333334</ele><time>2026-04-04T07:13:09.103Z</time></trkpt><trkpt lat="44.98217" lon="8.3234833"><ele>242.0</ele><time>2026-04-04T07:13:10.1Z</time></trkpt><trkpt lat="44.9822833" lon="8.3234783"><ele>242.00000000000003</ele><time>2026-04-04T07:13:11.102Z</time></trkpt><trkpt lat="44.9823917" lon="8.323465"><ele>242.0</ele><time>2026-04-04T07:13:12.098Z</time></trkpt><trkpt lat="44.9824733" lon="8.323455"><ele>242.0</ele><time>2026-04-04T07:13:13.1Z</time></trkpt><trkpt lat="44.982555" lon="8.3234417"><ele>242.0</ele><time>2026-04-04T07:13:14.095Z</time></trkpt><trkpt lat="44.982635" lon="8.3234183"><ele>242.00000000000003</ele><time>2026-04-04T07:13:15.095Z</time></trkpt><trkpt lat="44.9827117" lon="8.3233883"><ele>242.0</ele><time>2026-04-04T07:13:16.096Z</time></trkpt><trkpt lat="44.9827867" lon="8.3233533"><ele>242.50000000000003</ele><time>2026-04-04T07:13:17.096Z</time></trkpt><trkpt lat="44.9828617" lon="8.3233183"><ele>243.0</ele><time>2026-04-04T07:13:18.095Z</time></trkpt><trkpt lat="44.9829333" lon="8.3232833"><ele>243.5</ele><time>2026-04-04T07:13:19.096Z</time></trkpt><trkpt lat="44.9830083" lon="8.3232617"><ele>244.0</ele><time>2026-04-04T07:13:20.096Z</time></trkpt><trkpt lat="44.9830933" lon="8.323245"><ele>244.50000000000003</ele><time>2026-04-04T07:13:21.1Z</time></trkpt><trkpt lat="44.9831683" lon="8.32324"><ele>245.0</ele><time>2026-04-04T07:13:22.098Z</time></trkpt><trkpt lat="44.9832383" lon="8.3232883"><ele>245.00000000000003</ele><time>2026-04-04T07:13:23.097Z</time></trkpt><trkpt lat="44.9833117" lon="8.32332"><ele>245.0</ele><time>2026-04-04T07:13:24.098Z</time></trkpt><trkpt lat="44.9833833" lon="8.3233483"><ele>245.0</ele><time>2026-04-04T07:13:25.099Z</time></trkpt><trkpt lat="44.9834567" lon="8.3233733"><ele>245.0</ele><time>2026-04-04T07:13:26.099Z</time></trkpt><trkpt lat="44.9835333" lon="8.3234017"><ele>245.00000000000003</ele><time>2026-04-04T07:13:27.096Z</time></trkpt><trkpt lat="44.98361" lon="8.3234283"><ele>245.0</ele><time>2026-04-04T07:13:28.096Z</time></trkpt><trkpt lat="44.98368" lon="8.3234533"><ele>245.0</ele><time>2026-04-04T07:13:29.096Z</time></trkpt><trkpt lat="44.98375" lon="8.3234717"><ele>245.0</ele><time>2026-04-04T07:13:30.1Z</time></trkpt><trkpt lat="44.9838183" lon="8.323485"><ele>245.0</ele><time>2026-04-04T07:13:31.102Z</time></trkpt><trkpt lat="44.9838883" lon="8.3234833"><ele>245.0</ele><time>2026-04-04T07:13:32.099Z</time></trkpt><trkpt lat="44.9839633" lon="8.3234717"><ele>245.0</ele><time>2026-04-04T07:13:33.101Z</time></trkpt><trkpt lat="44.9840383" lon="8.3234467"><ele>245.0</ele><time>2026-04-04T07:13:34.104Z</time></trkpt><trkpt lat="44.984115" lon="8.3234217"><ele>245.0</ele><time>2026-04-04T07:13:35.103Z</time></trkpt><trkpt lat="44.9841933" lon="8.323385"><ele>245.0</ele><time>2026-04-04T07:13:36.1Z</time></trkpt><trkpt lat="44.984275" lon="8.32336"><ele>245.0</ele><time>2026-04-04T07:13:37.101Z</time></trkpt><trkpt lat="44.9843633" lon="8.3233283"><ele>245.0</ele><time>2026-04-04T07:13:38.097Z</time></trkpt><trkpt lat="44.9844533" lon="8.323295"><ele>245.0</ele><time>2026-04-04T07:13:39.095Z</time></trkpt><trkpt lat="44.9845467" lon="8.3232567"><ele>245.0</ele><time>2026-04-04T07:13:40.096Z</time></trkpt><trkpt lat="44.9846417" lon="8.3232167"><ele>245.0</ele><time>2026-04-04T07:13:41.096Z</time></trkpt><trkpt lat="44.9847383" lon="8.3231683"><ele>245.0</ele><time>2026-04-04T07:13:42.097Z</time></trkpt><trkpt lat="44.9848317" lon="8.3231183"><ele>245.0</ele><time>2026-04-04T07:13:43.101Z</time></trkpt><trkpt lat="44.984925" lon="8.3230633"><ele>245.0</ele><time>2026-04-04T07:13:44.106Z</time></trkpt><trkpt lat="44.9850183" lon="8.32301"><ele>245.0</ele><time>2026-04-04T07:13:45.097Z</time></trkpt><trkpt lat="44.9851083" lon="8.3229583"><ele>244.2</ele><time>2026-04-04T07:13:46.096Z</time></trkpt><trkpt lat="44.9852017" lon="8.32291"><ele>243.4</ele><time>2026-04-04T07:13:47.1Z</time></trkpt><trkpt lat="44.9852917" lon="8.3228467"><ele>242.60000000000002</ele><time>2026-04-04T07:13:48.097Z</time></trkpt><trkpt lat="44.9853683" lon="8.32276"><ele>241.8</ele><time>2026-04-04T07:13:49.099Z</time></trkpt><trkpt lat="44.985435" lon="8.322655"><ele>241.0</ele><time>2026-04-04T07:13:50.097Z</time></trkpt><trkpt lat="44.985495" lon="8.3225383"><ele>241.0</ele><time>2026-04-04T07:13:51.098Z</time></trkpt><trkpt lat="44.9855517" lon="8.322415"><ele>241.00000000000003</ele><time>2026-04-04T07:13:52.096Z</time></trkpt><trkpt lat="44.9856033" lon="8.3222833"><ele>241.00000000000003</ele><time>2026-04-04T07:13:53.102Z</time></trkpt><trkpt lat="44.9856533" lon="8.32215"><ele>241.0</ele><time>2026-04-04T07:13:54.098Z</time></trkpt><trkpt lat="44.9857" lon="8.322015"><ele>241.0</ele><time>2026-04-04T07:13:55.1Z</time></trkpt><trkpt lat="44.9857517" lon="8.3218833"><ele>241.4</ele><time>2026-04-04T07:13:56.1Z</time></trkpt><trkpt lat="44.9858117" lon="8.321755"><ele>241.8</ele><time>2026-04-04T07:13:57.099Z</time></trkpt><trkpt lat="44.9858717" lon="8.32163"><ele>242.20000000000002</ele><time>2026-04-04T07:13:58.097Z</time></trkpt><trkpt lat="44.9859333" lon="8.3215033"><ele>242.60000000000002</ele><time>2026-04-04T07:13:59.101Z</time></trkpt><trkpt lat="44.9859933" lon="8.32138"><ele>243.0</ele><time>2026-04-04T07:14:00.1Z</time></trkpt><trkpt lat="44.9860567" lon="8.3212567"><ele>241.25</ele><time>2026-04-04T07:14:01.1Z</time></trkpt><trkpt lat="44.986125" lon="8.3211233"><ele>239.5</ele><time>2026-04-04T07:14:02.096Z</time></trkpt><trkpt lat="44.9861983" lon="8.32098"><ele>237.75</ele><time>2026-04-04T07:14:03.096Z</time></trkpt><trkpt lat="44.9862783" lon="8.3208283"><ele>236.0</ele><time>2026-04-04T07:14:04.097Z</time></trkpt><trkpt lat="44.98636" lon="8.32067"><ele>236.5</ele><time>2026-04-04T07:14:05.096Z</time></trkpt><trkpt lat="44.986445" lon="8.3205167"><ele>237.0</ele><time>2026-04-04T07:14:06.099Z</time></trkpt><trkpt lat="44.9865367" lon="8.320375"><ele>237.5</ele><time>2026-04-04T07:14:07.101Z</time></trkpt><trkpt lat="44.9866417" lon="8.320245"><ele>238.0</ele><time>2026-04-04T07:14:08.097Z</time></trkpt><trkpt lat="44.9867617" lon="8.32013"><ele>238.0</ele><time>2026-04-04T07:14:09.096Z</time></trkpt><trkpt lat="44.9868967" lon="8.320035"><ele>238.0</ele><time>2026-04-04T07:14:10.098Z</time></trkpt><trkpt lat="44.9870417" lon="8.31995"><ele>238.0</ele><time>2026-04-04T07:14:11.097Z</time></trkpt><trkpt lat="44.9871983" lon="8.3198617"><ele>238.0</ele><time>2026-04-04T07:14:12.097Z</time></trkpt><trkpt lat="44.9873567" lon="8.3197633"><ele>238.0</ele><time>2026-04-04T07:14:13.101Z</time></trkpt><trkpt lat="44.9875167" lon="8.3196667"><ele>238.0</ele><time>2026-04-04T07:14:14.104Z</time></trkpt><trkpt lat="44.9876767" lon="8.3195683"><ele>238.0</ele><time>2026-04-04T07:14:15.098Z</time></trkpt><trkpt lat="44.9878333" lon="8.3194533"><ele>238.0</ele><time>2026-04-04T07:14:16.098Z</time></trkpt><trkpt lat="44.987985" lon="8.3193217"><ele>238.0</ele><time>2026-04-04T07:14:17.097Z</time></trkpt><trkpt lat="44.98813" lon="8.3191783"><ele>238.0</ele><time>2026-04-04T07:14:18.099Z</time></trkpt><trkpt lat="44.9882733" lon="8.31904"><ele>238.0</ele><time>2026-04-04T07:14:19.098Z</time></trkpt><trkpt lat="44.9884133" lon="8.3188933"><ele>238.0</ele><time>2026-04-04T07:14:20.098Z</time></trkpt><trkpt lat="44.9885533" lon="8.31876"><ele>240.66666666666666</ele><time>2026-04-04T07:14:21.102Z</time></trkpt><trkpt lat="44.98869" lon="8.3186267"><ele>243.33333333333331</ele><time>2026-04-04T07:14:22.098Z</time></trkpt><trkpt lat="44.9888167" lon="8.3184867"><ele>246.0</ele><time>2026-04-04T07:14:23.096Z</time></trkpt><trkpt lat="44.988935" lon="8.3183367"><ele>246.0</ele><time>2026-04-04T07:14:24.099Z</time></trkpt><trkpt lat="44.9890467" lon="8.3181717"><ele>246.0</ele><time>2026-04-04T07:14:25.096Z</time></trkpt><trkpt lat="44.989145" lon="8.317985"><ele>246.0</ele><time>2026-04-04T07:14:26.097Z</time></trkpt><trkpt lat="44.9892333" lon="8.317785"><ele>247.66666666666669</ele><time>2026-04-04T07:14:27.096Z</time></trkpt><trkpt lat="44.9893117" lon="8.3175733"><ele>249.33333333333334</ele><time>2026-04-04T07:14:28.096Z</time></trkpt><trkpt lat="44.98938" lon="8.3173467"><ele>251.0</ele><time>2026-04-04T07:14:29.096Z</time></trkpt><trkpt lat="44.98944" lon="8.3171133"><ele>251.0</ele><time>2026-04-04T07:14:30.102Z</time></trkpt><trkpt lat="44.9894967" lon="8.31687"><ele>251.0</ele><time>2026-04-04T07:14:31.1Z</time></trkpt><trkpt lat="44.9895533" lon="8.3166183"><ele>251.0</ele><time>2026-04-04T07:14:32.099Z</time></trkpt><trkpt lat="44.9896133" lon="8.3163617"><ele>250.33333333333334</ele><time>2026-04-04T07:14:33.097Z</time></trkpt><trkpt lat="44.9896767" lon="8.316105"><ele>249.66666666666669</ele><time>2026-04-04T07:14:34.098Z</time></trkpt><trkpt lat="44.9897367" lon="8.3158467"><ele>249.0</ele><time>2026-04-04T07:14:35.098Z</time></trkpt><trkpt lat="44.9897967" lon="8.3155917"><ele>247.33333333333331</ele><time>2026-04-04T07:14:36.1Z</time></trkpt><trkpt lat="44.98986" lon="8.3153433"><ele>245.66666666666666</ele><time>2026-04-04T07:14:37.096Z</time></trkpt><trkpt lat="44.9899233" lon="8.3150983"><ele>244.0</ele><time>2026-04-04T07:14:38.096Z</time></trkpt><trkpt lat="44.9899833" lon="8.3148517"><ele>247.33333333333331</ele><time>2026-04-04T07:14:39.096Z</time></trkpt><trkpt lat="44.99004" lon="8.3146217"><ele>250.66666666666669</ele><time>2026-04-04T07:14:40.097Z</time></trkpt><trkpt lat="44.9901033" lon="8.3144267"><ele>254.0</ele><time>2026-04-04T07:14:41.1Z</time></trkpt><trkpt lat="44.9901717" lon="8.3142617"><ele>254.0</ele><time>2026-04-04T07:14:42.098Z</time></trkpt><trkpt lat="44.9902567" lon="8.31412"><ele>254.0</ele><time>2026-04-04T07:14:43.101Z</time></trkpt><trkpt lat="44.9903583" lon="8.3140017"><ele>254.0</ele><time>2026-04-04T07:14:44.101Z</time></trkpt><trkpt lat="44.99048" lon="8.3139033"><ele>254.0</ele><time>2026-04-04T07:14:45.098Z</time></trkpt><trkpt lat="44.9906283" lon="8.3138233"><ele>253.33333333333334</ele><time>2026-04-04T07:14:46.101Z</time></trkpt><trkpt lat="44.9907783" lon="8.3137417"><ele>252.66666666666669</ele><time>2026-04-04T07:14:47.1Z</time></trkpt><trkpt lat="44.9909317" lon="8.313655"><ele>252.0</ele><time>2026-04-04T07:14:48.096Z</time></trkpt><trkpt lat="44.9910983" lon="8.313565"><ele>252.0</ele><time>2026-04-04T07:14:49.096Z</time></trkpt><trkpt lat="44.9912583" lon="8.31347"><ele>252.0</ele><time>2026-04-04T07:14:50.095Z</time></trkpt><trkpt lat="44.9914217" lon="8.313375"><ele>252.0</ele><time>2026-04-04T07:14:51.103Z</time></trkpt><trkpt lat="44.9915833" lon="8.31328"><ele>251.0</ele><time>2026-04-04T07:14:52.1Z</time></trkpt><trkpt lat="44.9917467" lon="8.3131817"><ele>250.0</ele><time>2026-04-04T07:14:53.096Z</time></trkpt><trkpt lat="44.9919117" lon="8.3130817"><ele>249.0</ele><time>2026-04-04T07:14:54.097Z</time></trkpt><trkpt lat="44.9920733" lon="8.3129817"><ele>249.0</ele><time>2026-04-04T07:14:55.099Z</time></trkpt><trkpt lat="44.99223" lon="8.312885"><ele>249.0</ele><time>2026-04-04T07:14:56.096Z</time></trkpt><trkpt lat="44.9923833" lon="8.3127933"><ele>249.0</ele><time>2026-04-04T07:14:57.1Z</time></trkpt><trkpt lat="44.99253" lon="8.3127083"><ele>250.5</ele><time>2026-04-04T07:14:58.097Z</time></trkpt><trkpt lat="44.9926717" lon="8.3126283"><ele>252.0</ele><time>2026-04-04T07:14:59.1Z</time></trkpt><trkpt lat="44.9928067" lon="8.3125533"><ele>253.5</ele><time>2026-04-04T07:15:00.097Z</time></trkpt><trkpt lat="44.9929333" lon="8.3124817"><ele>255.0</ele><time>2026-04-04T07:15:01.097Z</time></trkpt><trkpt lat="44.993045" lon="8.3124017"><ele>255.0</ele><time>2026-04-04T07:15:02.097Z</time></trkpt><trkpt lat="44.9931417" lon="8.3123083"><ele>255.0</ele><time>2026-04-04T07:15:03.1Z</time></trkpt><trkpt lat="44.9932167" lon="8.31219"><ele>255.0</ele><time>2026-04-04T07:15:04.103Z</time></trkpt><trkpt lat="44.9932667" lon="8.3120433"><ele>255.0</ele><time>2026-04-04T07:15:05.101Z</time></trkpt><trkpt lat="44.9932917" lon="8.31187"><ele>256.0</ele><time>2026-04-04T07:15:06.103Z</time></trkpt><trkpt lat="44.9932767" lon="8.3116817"><ele>257.0</ele><time>2026-04-04T07:15:07.099Z</time></trkpt><trkpt lat="44.9932317" lon="8.31149"><ele>258.0</ele><time>2026-04-04T07:15:08.097Z</time></trkpt><trkpt lat="44.9931683" lon="8.311295"><ele>259.0</ele><time>2026-04-04T07:15:09.096Z</time></trkpt><trkpt lat="44.9930967" lon="8.3110933"><ele>260.3333333333333</ele><time>2026-04-04T07:15:10.096Z</time></trkpt><trkpt lat="44.9930283" lon="8.3108867"><ele>261.6666666666667</ele><time>2026-04-04T07:15:11.096Z</time></trkpt><trkpt lat="44.9929567" lon="8.31068"><ele>263.0</ele><time>2026-04-04T07:15:12.097Z</time></trkpt><trkpt lat="44.99289" lon="8.3104833"><ele>263.33333333333337</ele><time>2026-04-04T07:15:13.099Z</time></trkpt><trkpt lat="44.9928167" lon="8.3102833"><ele>263.6666666666667</ele><time>2026-04-04T07:15:14.095Z</time></trkpt><trkpt lat="44.9927317" lon="8.3100967"><ele>264.0</ele><time>2026-04-04T07:15:15.095Z</time></trkpt><trkpt lat="44.9926267" lon="8.3099333"><ele>264.0</ele><time>2026-04-04T07:15:16.096Z</time></trkpt><trkpt lat="44.9925167" lon="8.3097767"><ele>264.0</ele><time>2026-04-04T07:15:17.099Z</time></trkpt><trkpt lat="44.9924083" lon="8.3096317"><ele>264.0</ele><time>2026-04-04T07:15:18.097Z</time></trkpt><trkpt lat="44.9923117" lon="8.3094983"><ele>264.0</ele><time>2026-04-04T07:15:19.096Z</time></trkpt><trkpt lat="44.99224" lon="8.3093783"><ele>263.3333333333333</ele><time>2026-04-04T07:15:20.096Z</time></trkpt><trkpt lat="44.99219" lon="8.3092617"><ele>262.6666666666667</ele><time>2026-04-04T07:15:21.097Z</time></trkpt><trkpt lat="44.99217" lon="8.3091317"><ele>262.0</ele><time>2026-04-04T07:15:22.098Z</time></trkpt><trkpt lat="44.9921733" lon="8.309005"><ele>261.33333333333337</ele><time>2026-04-04T07:15:23.1Z</time></trkpt><trkpt lat="44.99219" lon="8.3088833"><ele>260.6666666666667</ele><time>2026-04-04T07:15:24.096Z</time></trkpt><trkpt lat="44.9922233" lon="8.3087833"><ele>260.0</ele><time>2026-04-04T07:15:25.103Z</time></trkpt><trkpt lat="44.9922833" lon="8.308705"><ele>258.75</ele><time>2026-04-04T07:15:26.098Z</time></trkpt><trkpt lat="44.99239" lon="8.3086633"><ele>257.5</ele><time>2026-04-04T07:15:27.099Z</time></trkpt><trkpt lat="44.992495" lon="8.3086167"><ele>256.25</ele><time>2026-04-04T07:15:28.096Z</time></trkpt><trkpt lat="44.99261" lon="8.3085683"><ele>255.0</ele><time>2026-04-04T07:15:29.1Z</time></trkpt><trkpt lat="44.9927267" lon="8.308525"><ele>255.0</ele><time>2026-04-04T07:15:30.099Z</time></trkpt><trkpt lat="44.992845" lon="8.3084783"><ele>255.0</ele><time>2026-04-04T07:15:31.098Z</time></trkpt><trkpt lat="44.9929633" lon="8.30844"><ele>255.0</ele><time>2026-04-04T07:15:32.097Z</time></trkpt><trkpt lat="44.9930867" lon="8.3084133"><ele>255.0</ele><time>2026-04-04T07:15:33.096Z</time></trkpt><trkpt lat="44.9932033" lon="8.3083767"><ele>255.0</ele><time>2026-04-04T07:15:34.098Z</time></trkpt><trkpt lat="44.9933167" lon="8.3083367"><ele>255.0</ele><time>2026-04-04T07:15:35.097Z</time></trkpt><trkpt lat="44.9934283" lon="8.3083067"><ele>255.0</ele><time>2026-04-04T07:15:36.101Z</time></trkpt><trkpt lat="44.993545" lon="8.308275"><ele>255.0</ele><time>2026-04-04T07:15:37.096Z</time></trkpt><trkpt lat="44.993655" lon="8.3082283"><ele>253.75</ele><time>2026-04-04T07:15:38.096Z</time></trkpt><trkpt lat="44.9937683" lon="8.3081583"><ele>252.5</ele><time>2026-04-04T07:15:39.096Z</time></trkpt><trkpt lat="44.99387" lon="8.30806"><ele>251.25</ele><time>2026-04-04T07:15:40.101Z</time></trkpt><trkpt lat="44.9939567" lon="8.3079383"><ele>250.0</ele><time>2026-04-04T07:15:41.099Z</time></trkpt><trkpt lat="44.9940317" lon="8.3077883"><ele>249.75</ele><time>2026-04-04T07:15:42.098Z</time></trkpt><trkpt lat="44.994095" lon="8.307625"><ele>249.5</ele><time>2026-04-04T07:15:43.097Z</time></trkpt><trkpt lat="44.9941567" lon="8.3074633"><ele>249.25</ele><time>2026-04-04T07:15:44.098Z</time></trkpt><trkpt lat="44.9942133" lon="8.3073033"><ele>249.0</ele><time>2026-04-04T07:15:45.096Z</time></trkpt><trkpt lat="44.99427" lon="8.30715"><ele>246.25</ele><time>2026-04-04T07:15:46.099Z</time></trkpt><trkpt lat="44.9943283" lon="8.3069983"><ele>243.5</ele><time>2026-04-04T07:15:47.1Z</time></trkpt><trkpt lat="44.9943833" lon="8.306845"><ele>240.75</ele><time>2026-04-04T07:15:48.106Z</time></trkpt><trkpt lat="44.9944367" lon="8.30669"><ele>238.0</ele><time>2026-04-04T07:15:49.104Z</time></trkpt><trkpt lat="44.99449" lon="8.3065417"><ele>239.75</ele><time>2026-04-04T07:15:50.103Z</time></trkpt><trkpt lat="44.994545" lon="8.3063917"><ele>241.5</ele><time>2026-04-04T07:15:51.098Z</time></trkpt><trkpt lat="44.9946" lon="8.3062433"><ele>243.25</ele><time>2026-04-04T07:15:52.099Z</time></trkpt><trkpt lat="44.9946533" lon="8.3060917"><ele>245.0</ele><time>2026-04-04T07:15:53.098Z</time></trkpt><trkpt lat="44.9947133" lon="8.3059367"><ele>245.0</ele><time>2026-04-04T07:15:54.102Z</time></trkpt><trkpt lat="44.9947767" lon="8.305785"><ele>245.0</ele><time>2026-04-04T07:15:55.106Z</time></trkpt><trkpt lat="44.9948367" lon="8.305635"><ele>245.0</ele><time>2026-04-04T07:15:56.099Z</time></trkpt><trkpt lat="44.9948933" lon="8.305485"><ele>245.0</ele><time>2026-04-04T07:15:57.108Z</time></trkpt><trkpt lat="44.99495" lon="8.3053383"><ele>245.5</ele><time>2026-04-04T07:15:58.1Z</time></trkpt><trkpt lat="44.9950033" lon="8.3051967"><ele>246.0</ele><time>2026-04-04T07:15:59.104Z</time></trkpt><trkpt lat="44.995055" lon="8.3050533"><ele>246.5</ele><time>2026-04-04T07:16:00.099Z</time></trkpt><trkpt lat="44.9950983" lon="8.3049133"><ele>247.0</ele><time>2026-04-04T07:16:01.1Z</time></trkpt><trkpt lat="44.9951517" lon="8.30477"><ele>246.5</ele><time>2026-04-04T07:16:02.106Z</time></trkpt><trkpt lat="44.9952033" lon="8.304625"><ele>246.0</ele><time>2026-04-04T07:16:03.102Z</time></trkpt><trkpt lat="44.99526" lon="8.304475"><ele>245.5</ele><time>2026-04-04T07:16:04.104Z</time></trkpt><trkpt lat="44.9953233" lon="8.304325"><ele>245.0</ele><time>2026-04-04T07:16:05.1Z</time></trkpt><trkpt lat="44.9953883" lon="8.3041733"><ele>245.0</ele><time>2026-04-04T07:16:06.099Z</time></trkpt><trkpt lat="44.9954483" lon="8.3040233"><ele>245.0</ele><time>2026-04-04T07:16:07.101Z</time></trkpt><trkpt lat="44.9955183" lon="8.3038767"><ele>245.0</ele><time>2026-04-04T07:16:08.1Z</time></trkpt><trkpt lat="44.9955983" lon="8.3037417"><ele>245.0</ele><time>2026-04-04T07:16:09.1Z</time></trkpt><trkpt lat="44.9956967" lon="8.30362"><ele>246.0</ele><time>2026-04-04T07:16:10.101Z</time></trkpt><trkpt lat="44.9957917" lon="8.303505"><ele>247.0</ele><time>2026-04-04T07:16:11.106Z</time></trkpt><trkpt lat="44.9959083" lon="8.30341"><ele>248.0</ele><time>2026-04-04T07:16:12.102Z</time></trkpt><trkpt lat="44.9960183" lon="8.3033133"><ele>249.0</ele><time>2026-04-04T07:16:13.103Z</time></trkpt><trkpt lat="44.996135" lon="8.3032167"><ele>249.0</ele><time>2026-04-04T07:16:14.102Z</time></trkpt><trkpt lat="44.99625" lon="8.3031133"><ele>249.0</ele><time>2026-04-04T07:16:15.102Z</time></trkpt><trkpt lat="44.996365" lon="8.3030167"><ele>249.0</ele><time>2026-04-04T07:16:16.105Z</time></trkpt><trkpt lat="44.9964783" lon="8.3029217"><ele>249.0</ele><time>2026-04-04T07:16:17.103Z</time></trkpt><trkpt lat="44.99659" lon="8.3028283"><ele>250.25</ele><time>2026-04-04T07:16:18.097Z</time></trkpt><trkpt lat="44.996705" lon="8.3027333"><ele>251.5</ele><time>2026-04-04T07:16:19.108Z</time></trkpt><trkpt lat="44.996815" lon="8.3026367"><ele>252.75</ele><time>2026-04-04T07:16:20.101Z</time></trkpt><trkpt lat="44.9969283" lon="8.3025383"><ele>254.0</ele><time>2026-04-04T07:16:21.097Z</time></trkpt><trkpt lat="44.9970383" lon="8.3024383"><ele>254.0</ele><time>2026-04-04T07:16:22.1Z</time></trkpt><trkpt lat="44.997145" lon="8.302335"><ele>254.0</ele><time>2026-04-04T07:16:23.098Z</time></trkpt><trkpt lat="44.9972467" lon="8.30223"><ele>254.0</ele><time>2026-04-04T07:16:24.1Z</time></trkpt><trkpt lat="44.9973483" lon="8.3021233"><ele>254.0</ele><time>2026-04-04T07:16:25.1Z</time></trkpt><trkpt lat="44.9974467" lon="8.30203"><ele>254.6</ele><time>2026-04-04T07:16:26.1Z</time></trkpt><trkpt lat="44.9975483" lon="8.3019417"><ele>255.2</ele><time>2026-04-04T07:16:27.104Z</time></trkpt><trkpt lat="44.9976283" lon="8.3018567"><ele>255.79999999999998</ele><time>2026-04-04T07:16:28.101Z</time></trkpt><trkpt lat="44.997705" lon="8.3017933"><ele>256.4</ele><time>2026-04-04T07:16:29.106Z</time></trkpt><trkpt lat="44.9977667" lon="8.3017433"><ele>257.0</ele><time>2026-04-04T07:16:30.102Z</time></trkpt><trkpt lat="44.997835" lon="8.3016983"><ele>257.0</ele><time>2026-04-04T07:16:31.103Z</time></trkpt><trkpt lat="44.9979" lon="8.301655"><ele>257.0</ele><time>2026-04-04T07:16:32.102Z</time></trkpt><trkpt lat="44.99798" lon="8.30165"><ele>257.0</ele><time>2026-04-04T07:16:33.099Z</time></trkpt><trkpt lat="44.998065" lon="8.301665"><ele>257.0</ele><time>2026-04-04T07:16:34.101Z</time></trkpt><trkpt lat="44.9981517" lon="8.30168"><ele>257.0</ele><time>2026-04-04T07:16:35.103Z</time></trkpt><trkpt lat="44.9982417" lon="8.3016967"><ele>257.0</ele><time>2026-04-04T07:16:36.102Z</time></trkpt><trkpt lat="44.9983383" lon="8.301705"><ele>256.0</ele><time>2026-04-04T07:16:37.101Z</time></trkpt><trkpt lat="44.998435" lon="8.301705"><ele>255.0</ele><time>2026-04-04T07:16:38.1Z</time></trkpt><trkpt lat="44.998545" lon="8.3016967"><ele>254.0</ele><time>2026-04-04T07:16:39.109Z</time></trkpt><trkpt lat="44.99865" lon="8.3017033"><ele>253.0</ele><time>2026-04-04T07:16:40.103Z</time></trkpt><trkpt lat="44.998765" lon="8.3016983"><ele>252.0</ele><time>2026-04-04T07:16:41.1Z</time></trkpt><trkpt lat="44.99888" lon="8.301675"><ele>252.0</ele><time>2026-04-04T07:16:42.101Z</time></trkpt><trkpt lat="44.9989917" lon="8.3016283"><ele>252.0</ele><time>2026-04-04T07:16:43.101Z</time></trkpt><trkpt lat="44.9990917" lon="8.3015533"><ele>252.0</ele><time>2026-04-04T07:16:44.098Z</time></trkpt><trkpt lat="44.9991867" lon="8.3014783"><ele>252.0</ele><time>2026-04-04T07:16:45.102Z</time></trkpt><trkpt lat="44.99928" lon="8.3013917"><ele>253.0</ele><time>2026-04-04T07:16:46.098Z</time></trkpt><trkpt lat="44.9993717" lon="8.3013033"><ele>254.0</ele><time>2026-04-04T07:16:47.102Z</time></trkpt><trkpt lat="44.9994667" lon="8.3012067"><ele>255.0</ele><time>2026-04-04T07:16:48.1Z</time></trkpt><trkpt lat="44.99956" lon="8.3011133"><ele>256.0</ele><time>2026-04-04T07:16:49.101Z</time></trkpt><trkpt lat="44.9996533" lon="8.301015"><ele>256.0</ele><time>2026-04-04T07:16:50.101Z</time></trkpt><trkpt lat="44.9997483" lon="8.3009167"><ele>256.0</ele><time>2026-04-04T07:16:51.098Z</time></trkpt><trkpt lat="44.9998467" lon="8.300825"><ele>256.0</ele><time>2026-04-04T07:16:52.101Z</time></trkpt><trkpt lat="44.9999417" lon="8.3007367"><ele>256.0</ele><time>2026-04-04T07:16:53.102Z</time></trkpt><trkpt lat="45.0000333" lon="8.3006467"><ele>258.2</ele><time>2026-04-04T07:16:54.102Z</time></trkpt><trkpt lat="45.0001233" lon="8.300555"><ele>260.40000000000003</ele><time>2026-04-04T07:16:55.102Z</time></trkpt><trkpt lat="45.000205" lon="8.300455"><ele>262.6</ele><time>2026-04-04T07:16:56.105Z</time></trkpt><trkpt lat="45.00028" lon="8.300355"><ele>264.8</ele><time>2026-04-04T07:16:57.103Z</time></trkpt><trkpt lat="45.0003483" lon="8.3002467"><ele>267.0</ele><time>2026-04-04T07:16:58.101Z</time></trkpt><trkpt lat="45.000415" lon="8.300135"><ele>267.0</ele><time>2026-04-04T07:16:59.103Z</time></trkpt><trkpt lat="45.0004783" lon="8.30002"><ele>267.0</ele><time>2026-04-04T07:17:00.104Z</time></trkpt><trkpt lat="45.0005367" lon="8.2999067"><ele>267.0</ele><time>2026-04-04T07:17:01.108Z</time></trkpt><trkpt lat="45.00059" lon="8.2997983"><ele>267.0</ele><time>2026-04-04T07:17:02.107Z</time></trkpt><trkpt lat="45.0006367" lon="8.2997"><ele>267.0</ele><time>2026-04-04T07:17:03.1Z</time></trkpt><trkpt lat="45.000675" lon="8.2996167"><ele>267.0</ele><time>2026-04-04T07:17:04.098Z</time></trkpt><trkpt lat="45.0007567" lon="8.2994767"><ele>267.0</ele><time>2026-04-04T07:17:06.106Z</time></trkpt><trkpt lat="45.000825" lon="8.2993983"><ele>267.0</ele><time>2026-04-04T07:17:07.104Z</time></trkpt><trkpt lat="45.0008983" lon="8.29932"><ele>267.0</ele><time>2026-04-04T07:17:08.104Z</time></trkpt><trkpt lat="45.00099" lon="8.2992417"><ele>267.0</ele><time>2026-04-04T07:17:09.102Z</time></trkpt><trkpt lat="45.0010733" lon="8.299155"><ele>265.0</ele><time>2026-04-04T07:17:10.101Z</time></trkpt><trkpt lat="45.0011683" lon="8.2990683"><ele>263.0</ele><time>2026-04-04T07:17:11.102Z</time></trkpt><trkpt lat="45.00125" lon="8.29898"><ele>261.0</ele><time>2026-04-04T07:17:12.1Z</time></trkpt><trkpt lat="45.0013317" lon="8.298895"><ele>259.0</ele><time>2026-04-04T07:17:13.1Z</time></trkpt><trkpt lat="45.00141" lon="8.2988217"><ele>257.0</ele><time>2026-04-04T07:17:14.103Z</time></trkpt><trkpt lat="45.0014717" lon="8.2987567"><ele>255.8</ele><time>2026-04-04T07:17:15.107Z</time></trkpt><trkpt lat="45.0015567" lon="8.2986917"><ele>254.6</ele><time>2026-04-04T07:17:17.102Z</time></trkpt><trkpt lat="45.001645" lon="8.2986617"><ele>253.40000000000003</ele><time>2026-04-04T07:17:19.103Z</time></trkpt><trkpt lat="45.0017733" lon="8.298625"><ele>252.20000000000002</ele><time>2026-04-04T07:17:21.102Z</time></trkpt><trkpt lat="45.0018483" lon="8.298605"><ele>251.0</ele><time>2026-04-04T07:17:22.105Z</time></trkpt><trkpt lat="45.0019283" lon="8.2985767"><ele>250.66666666666669</ele><time>2026-04-04T07:17:23.102Z</time></trkpt><trkpt lat="45.0020017" lon="8.2985517"><ele>250.33333333333334</ele><time>2026-04-04T07:17:24.103Z</time></trkpt><trkpt lat="45.00207" lon="8.2985267"><ele>250.0</ele><time>2026-04-04T07:17:25.104Z</time></trkpt><trkpt lat="45.0021367" lon="8.298505"><ele>249.66666666666669</ele><time>2026-04-04T07:17:26.104Z</time></trkpt><trkpt lat="45.0022433" lon="8.2984467"><ele>249.33333333333334</ele><time>2026-04-04T07:17:28.103Z</time></trkpt><trkpt lat="45.0023517" lon="8.298435"><ele>249.0</ele><time>2026-04-04T07:17:30.101Z</time></trkpt><trkpt lat="45.0024417" lon="8.298525"><ele>249.0</ele><time>2026-04-04T07:17:32.099Z</time></trkpt><trkpt lat="45.0023567" lon="8.2986883"><ele>248.99999999999997</ele><time>2026-04-04T07:17:33.099Z</time></trkpt><trkpt lat="45.0022883" lon="8.29877"><ele>248.99999999999997</ele><time>2026-04-04T07:17:34.099Z</time></trkpt><trkpt lat="45.0022533" lon="8.2988583"><ele>249.0</ele><time>2026-04-04T07:17:35.1Z</time></trkpt><trkpt lat="45.0022" lon="8.2989383"><ele>249.0</ele><time>2026-04-04T07:17:36.1Z</time></trkpt><trkpt lat="45.0021167" lon="8.2990267"><ele>248.0</ele><time>2026-04-04T07:17:37.103Z</time></trkpt><trkpt lat="45.002015" lon="8.2991083"><ele>247.0</ele><time>2026-04-04T07:17:38.102Z</time></trkpt><trkpt lat="45.0019083" lon="8.2991833"><ele>246.0</ele><time>2026-04-04T07:17:39.098Z</time></trkpt><trkpt lat="45.0017967" lon="8.2992617"><ele>245.0</ele><time>2026-04-04T07:17:40.104Z</time></trkpt><trkpt lat="45.0017083" lon="8.2993467"><ele>246.50000000000003</ele><time>2026-04-04T07:17:41.102Z</time></trkpt><trkpt lat="45.0016233" lon="8.299445"><ele>248.0</ele><time>2026-04-04T07:17:42.101Z</time></trkpt><trkpt lat="45.0015867" lon="8.29956"><ele>249.5</ele><time>2026-04-04T07:17:43.101Z</time></trkpt><trkpt lat="45.0016" lon="8.2996633"><ele>251.0</ele><time>2026-04-04T07:17:44.103Z</time></trkpt><trkpt lat="45.0016383" lon="8.2997517"><ele>252.50000000000003</ele><time>2026-04-04T07:17:45.105Z</time></trkpt><trkpt lat="45.0017317" lon="8.299765"><ele>254.0</ele><time>2026-04-04T07:17:46.106Z</time></trkpt><trkpt lat="45.0018017" lon="8.2997683"><ele>252.2</ele><time>2026-04-04T07:17:47.101Z</time></trkpt><trkpt lat="45.001885" lon="8.2997033"><ele>250.39999999999998</ele><time>2026-04-04T07:17:48.102Z</time></trkpt><trkpt lat="45.001975" lon="8.29963"><ele>248.6</ele><time>2026-04-04T07:17:49.102Z</time></trkpt><trkpt lat="45.002065" lon="8.2995567"><ele>246.8</ele><time>2026-04-04T07:17:50.106Z</time></trkpt><trkpt lat="45.002145" lon="8.299485"><ele>245.0</ele><time>2026-04-04T07:17:51.107Z</time></trkpt><trkpt lat="45.00222" lon="8.299435"><ele>245.00000000000003</ele><time>2026-04-04T07:17:52.104Z</time></trkpt><trkpt lat="45.0023" lon="8.2993967"><ele>245.0</ele><time>2026-04-04T07:17:53.1Z</time></trkpt><trkpt lat="45.00237" lon="8.2993883"><ele>245.0</ele><time>2026-04-04T07:17:54.102Z</time></trkpt><trkpt lat="45.0024033" lon="8.29953"><ele>245.0</ele><time>2026-04-04T07:17:56.103Z</time></trkpt><trkpt lat="45.0023483" lon="8.2996017"><ele>245.00000000000003</ele><time>2026-04-04T07:17:57.098Z</time></trkpt><trkpt lat="45.0022967" lon="8.2996767"><ele>245.0</ele><time>2026-04-04T07:17:58.098Z</time></trkpt><trkpt lat="45.002215" lon="8.2997683"><ele>242.25</ele><time>2026-04-04T07:17:59.102Z</time></trkpt><trkpt lat="45.002115" lon="8.2998717"><ele>239.5</ele><time>2026-04-04T07:18:00.098Z</time></trkpt><trkpt lat="45.0020167" lon="8.3000117"><ele>236.75</ele><time>2026-04-04T07:18:01.102Z</time></trkpt><trkpt lat="45.001935" lon="8.3001817"><ele>234.0</ele><time>2026-04-04T07:18:02.101Z</time></trkpt><trkpt lat="45.0018567" lon="8.3003733"><ele>234.0</ele><time>2026-04-04T07:18:03.099Z</time></trkpt><trkpt lat="45.0017883" lon="8.3005767"><ele>234.0</ele><time>2026-04-04T07:18:04.099Z</time></trkpt><trkpt lat="45.001725" lon="8.30079"><ele>234.0</ele><time>2026-04-04T07:18:05.102Z</time></trkpt><trkpt lat="45.001655" lon="8.301015"><ele>231.66666666666669</ele><time>2026-04-04T07:18:06.106Z</time></trkpt><trkpt lat="45.001585" lon="8.3012417"><ele>229.33333333333334</ele><time>2026-04-04T07:18:07.102Z</time></trkpt><trkpt lat="45.0015167" lon="8.3014683"><ele>227.0</ele><time>2026-04-04T07:18:08.102Z</time></trkpt><trkpt lat="45.0014483" lon="8.3016983"><ele>227.0</ele><time>2026-04-04T07:18:09.1Z</time></trkpt><trkpt lat="45.00138" lon="8.3019217"><ele>227.0</ele><time>2026-04-04T07:18:10.101Z</time></trkpt><trkpt lat="45.001315" lon="8.3021433"><ele>227.0</ele><time>2026-04-04T07:18:11.104Z</time></trkpt><trkpt lat="45.0012483" lon="8.30236"><ele>224.33333333333334</ele><time>2026-04-04T07:18:12.102Z</time></trkpt><trkpt lat="45.0011783" lon="8.3025617"><ele>221.66666666666669</ele><time>2026-04-04T07:18:13.103Z</time></trkpt><trkpt lat="45.001105" lon="8.3027617"><ele>219.0</ele><time>2026-04-04T07:18:14.102Z</time></trkpt><trkpt lat="45.0010317" lon="8.3029517"><ele>219.0</ele><time>2026-04-04T07:18:15.107Z</time></trkpt><trkpt lat="45.0009517" lon="8.3031383"><ele>219.0</ele><time>2026-04-04T07:18:16.098Z</time></trkpt><trkpt lat="45.000865" lon="8.3033217"><ele>219.0</ele><time>2026-04-04T07:18:17.101Z</time></trkpt><trkpt lat="45.0007767" lon="8.303505"><ele>219.0</ele><time>2026-04-04T07:18:18.106Z</time></trkpt><trkpt lat="45.00069" lon="8.30369"><ele>219.0</ele><time>2026-04-04T07:18:19.099Z</time></trkpt><trkpt lat="45.0006067" lon="8.3038717"><ele>219.0</ele><time>2026-04-04T07:18:20.098Z</time></trkpt><trkpt lat="45.0005217" lon="8.3040483"><ele>217.25</ele><time>2026-04-04T07:18:21.1Z</time></trkpt><trkpt lat="45.0004367" lon="8.3042217"><ele>215.5</ele><time>2026-04-04T07:18:22.105Z</time></trkpt><trkpt lat="45.0003567" lon="8.30439"><ele>213.75</ele><time>2026-04-04T07:18:23.103Z</time></trkpt><trkpt lat="45.0002933" lon="8.3045483"><ele>212.0</ele><time>2026-04-04T07:18:24.101Z</time></trkpt><trkpt lat="45.00026" lon="8.3046983"><ele>210.0</ele><time>2026-04-04T07:18:25.1Z</time></trkpt><trkpt lat="45.0002733" lon="8.304845"><ele>208.0</ele><time>2026-04-04T07:18:26.102Z</time></trkpt><trkpt lat="45.0003167" lon="8.3049733"><ele>206.0</ele><time>2026-04-04T07:18:27.099Z</time></trkpt><trkpt lat="45.0003833" lon="8.3050733"><ele>204.0</ele><time>2026-04-04T07:18:28.105Z</time></trkpt><trkpt lat="45.0004717" lon="8.3051283"><ele>202.0</ele><time>2026-04-04T07:18:29.102Z</time></trkpt><trkpt lat="45.0005717" lon="8.3051233"><ele>202.0</ele><time>2026-04-04T07:18:30.105Z</time></trkpt><trkpt lat="45.00068" lon="8.305075"><ele>202.0</ele><time>2026-04-04T07:18:31.107Z</time></trkpt><trkpt lat="45.0007983" lon="8.305015"><ele>202.0</ele><time>2026-04-04T07:18:32.099Z</time></trkpt><trkpt lat="45.000925" lon="8.3049483"><ele>202.0</ele><time>2026-04-04T07:18:33.099Z</time></trkpt><trkpt lat="45.0010583" lon="8.30488"><ele>202.33333333333331</ele><time>2026-04-04T07:18:34.099Z</time></trkpt><trkpt lat="45.0011967" lon="8.304805"><ele>202.66666666666669</ele><time>2026-04-04T07:18:35.099Z</time></trkpt><trkpt lat="45.0013383" lon="8.3047267"><ele>203.0</ele><time>2026-04-04T07:18:36.106Z</time></trkpt><trkpt lat="45.00148" lon="8.30465"><ele>203.0</ele><time>2026-04-04T07:18:37.104Z</time></trkpt><trkpt lat="45.00162" lon="8.3045717"><ele>203.0</ele><time>2026-04-04T07:18:38.101Z</time></trkpt><trkpt lat="45.0017533" lon="8.30449"><ele>203.0</ele><time>2026-04-04T07:18:39.098Z</time></trkpt><trkpt lat="45.0018817" lon="8.3044033"><ele>203.0</ele><time>2026-04-04T07:18:40.099Z</time></trkpt><trkpt lat="45.0020117" lon="8.3043333"><ele>201.0</ele><time>2026-04-04T07:18:41.103Z</time></trkpt><trkpt lat="45.002145" lon="8.304305"><ele>199.0</ele><time>2026-04-04T07:18:42.104Z</time></trkpt><trkpt lat="45.002275" lon="8.3043217"><ele>197.0</ele><time>2026-04-04T07:18:43.1Z</time></trkpt><trkpt lat="45.0024017" lon="8.3043883"><ele>195.0</ele><time>2026-04-04T07:18:44.1Z</time></trkpt><trkpt lat="45.0025183" lon="8.3044967"><ele>193.0</ele><time>2026-04-04T07:18:45.103Z</time></trkpt><trkpt lat="45.0026217" lon="8.30463"><ele>191.0</ele><time>2026-04-04T07:18:46.105Z</time></trkpt><trkpt lat="45.0027133" lon="8.3047867"><ele>189.0</ele><time>2026-04-04T07:18:47.101Z</time></trkpt><trkpt lat="45.0027833" lon="8.3049733"><ele>187.0</ele><time>2026-04-04T07:18:48.1Z</time></trkpt><trkpt lat="45.00284" lon="8.30518"><ele>185.66666666666669</ele><time>2026-04-04T07:18:49.101Z</time></trkpt><trkpt lat="45.0028933" lon="8.305395"><ele>184.33333333333334</ele><time>2026-04-04T07:18:50.106Z</time></trkpt><trkpt lat="45.0029567" lon="8.3056033"><ele>183.0</ele><time>2026-04-04T07:18:51.099Z</time></trkpt><trkpt lat="45.003035" lon="8.305795"><ele>182.75</ele><time>2026-04-04T07:18:52.106Z</time></trkpt><trkpt lat="45.0031267" lon="8.305965"><ele>182.5</ele><time>2026-04-04T07:18:53.104Z</time></trkpt><trkpt lat="45.0032267" lon="8.30612"><ele>182.25</ele><time>2026-04-04T07:18:54.101Z</time></trkpt><trkpt lat="45.0033183" lon="8.3062783"><ele>182.0</ele><time>2026-04-04T07:18:55.106Z</time></trkpt><trkpt lat="45.0033833" lon="8.3064467"><ele>181.5</ele><time>2026-04-04T07:18:56.101Z</time></trkpt><trkpt lat="45.003415" lon="8.3066317"><ele>181.0</ele><time>2026-04-04T07:18:57.1Z</time></trkpt><trkpt lat="45.0034133" lon="8.30682"><ele>180.5</ele><time>2026-04-04T07:18:58.102Z</time></trkpt><trkpt lat="45.0033817" lon="8.3070183"><ele>180.0</ele><time>2026-04-04T07:18:59.107Z</time></trkpt><trkpt lat="45.0033283" lon="8.3072267"><ele>180.0</ele><time>2026-04-04T07:19:00.097Z</time></trkpt><trkpt lat="45.0032633" lon="8.30744"><ele>180.0</ele><time>2026-04-04T07:19:01.097Z</time></trkpt><trkpt lat="45.003195" lon="8.3076567"><ele>180.0</ele><time>2026-04-04T07:19:02.097Z</time></trkpt><trkpt lat="45.0031217" lon="8.3078717"><ele>180.0</ele><time>2026-04-04T07:19:03.102Z</time></trkpt><trkpt lat="45.00304" lon="8.3080833"><ele>180.0</ele><time>2026-04-04T07:19:04.106Z</time></trkpt><trkpt lat="45.00295" lon="8.3082867"><ele>180.0</ele><time>2026-04-04T07:19:05.101Z</time></trkpt><trkpt lat="45.0028467" lon="8.3084833"><ele>180.0</ele><time>2026-04-04T07:19:06.102Z</time></trkpt><trkpt lat="45.0027383" lon="8.3086783"><ele>180.0</ele><time>2026-04-04T07:19:07.101Z</time></trkpt><trkpt lat="45.0026267" lon="8.3088733"><ele>180.0</ele><time>2026-04-04T07:19:08.101Z</time></trkpt><trkpt lat="45.0025133" lon="8.3090667"><ele>180.0</ele><time>2026-04-04T07:19:09.1Z</time></trkpt><trkpt lat="45.0024067" lon="8.309265"><ele>180.0</ele><time>2026-04-04T07:19:10.102Z</time></trkpt><trkpt lat="45.0023117" lon="8.309475"><ele>180.0</ele><time>2026-04-04T07:19:11.102Z</time></trkpt><trkpt lat="45.0022283" lon="8.3097"><ele>179.33333333333334</ele><time>2026-04-04T07:19:12.101Z</time></trkpt><trkpt lat="45.0021517" lon="8.3099317"><ele>178.66666666666669</ele><time>2026-04-04T07:19:13.106Z</time></trkpt><trkpt lat="45.00208" lon="8.310165"><ele>178.0</ele><time>2026-04-04T07:19:14.101Z</time></trkpt><trkpt lat="45.0020217" lon="8.3103917"><ele>177.66666666666669</ele><time>2026-04-04T07:19:15.099Z</time></trkpt><trkpt lat="45.00199" lon="8.3106267"><ele>177.33333333333334</ele><time>2026-04-04T07:19:16.101Z</time></trkpt><trkpt lat="45.00199" lon="8.3108583"><ele>177.0</ele><time>2026-04-04T07:19:17.105Z</time></trkpt><trkpt lat="45.0020083" lon="8.3110933"><ele>177.0</ele><time>2026-04-04T07:19:18.103Z</time></trkpt><trkpt lat="45.002045" lon="8.3113217"><ele>177.0</ele><time>2026-04-04T07:19:19.102Z</time></trkpt><trkpt lat="45.0020883" lon="8.311555"><ele>177.0</ele><time>2026-04-04T07:19:20.097Z</time></trkpt><trkpt lat="45.0021367" lon="8.3117933"><ele>177.66666666666666</ele><time>2026-04-04T07:19:21.103Z</time></trkpt><trkpt lat="45.0021867" lon="8.3120317"><ele>178.33333333333331</ele><time>2026-04-04T07:19:22.099Z</time></trkpt><trkpt lat="45.0022417" lon="8.3122717"><ele>179.0</ele><time>2026-04-04T07:19:23.099Z</time></trkpt><trkpt lat="45.0023" lon="8.312515"><ele>179.0</ele><time>2026-04-04T07:19:24.1Z</time></trkpt><trkpt lat="45.0023583" lon="8.3127617"><ele>179.0</ele><time>2026-04-04T07:19:25.097Z</time></trkpt><trkpt lat="45.00242" lon="8.31301"><ele>179.0</ele><time>2026-04-04T07:19:26.101Z</time></trkpt><trkpt lat="45.002485" lon="8.3132617"><ele>178.66666666666666</ele><time>2026-04-04T07:19:27.101Z</time></trkpt><trkpt lat="45.0025533" lon="8.3135133"><ele>178.33333333333334</ele><time>2026-04-04T07:19:28.099Z</time></trkpt><trkpt lat="45.0026167" lon="8.31376"><ele>178.0</ele><time>2026-04-04T07:19:29.098Z</time></trkpt><trkpt lat="45.002685" lon="8.3140033"><ele>177.33333333333334</ele><time>2026-04-04T07:19:30.098Z</time></trkpt><trkpt lat="45.00274" lon="8.3142433"><ele>176.66666666666666</ele><time>2026-04-04T07:19:31.103Z</time></trkpt><trkpt lat="45.0027783" lon="8.3144817"><ele>176.0</ele><time>2026-04-04T07:19:32.104Z</time></trkpt><trkpt lat="45.0027967" lon="8.3147283"><ele>176.66666666666666</ele><time>2026-04-04T07:19:33.101Z</time></trkpt><trkpt lat="45.0027967" lon="8.3149817"><ele>177.33333333333334</ele><time>2026-04-04T07:19:34.1Z</time></trkpt><trkpt lat="45.00279" lon="8.315245"><ele>178.0</ele><time>2026-04-04T07:19:35.104Z</time></trkpt><trkpt lat="45.0027817" lon="8.31551"><ele>177.66666666666669</ele><time>2026-04-04T07:19:36.098Z</time></trkpt><trkpt lat="45.0027767" lon="8.3157783"><ele>177.33333333333334</ele><time>2026-04-04T07:19:37.106Z</time></trkpt><trkpt lat="45.0027717" lon="8.31604"><ele>177.0</ele><time>2026-04-04T07:19:38.1Z</time></trkpt><trkpt lat="45.00277" lon="8.3163"><ele>177.33333333333334</ele><time>2026-04-04T07:19:39.102Z</time></trkpt><trkpt lat="45.00278" lon="8.3165583"><ele>177.66666666666669</ele><time>2026-04-04T07:19:40.107Z</time></trkpt><trkpt lat="45.00282" lon="8.3168083"><ele>178.0</ele><time>2026-04-04T07:19:41.101Z</time></trkpt><trkpt lat="45.00289" lon="8.3170533"><ele>177.66666666666669</ele><time>2026-04-04T07:19:42.107Z</time></trkpt><trkpt lat="45.00298" lon="8.31729"><ele>177.33333333333334</ele><time>2026-04-04T07:19:43.106Z</time></trkpt><trkpt lat="45.0030833" lon="8.3175267"><ele>177.0</ele><time>2026-04-04T07:19:44.103Z</time></trkpt><trkpt lat="45.00319" lon="8.3177567"><ele>177.0</ele><time>2026-04-04T07:19:45.103Z</time></trkpt><trkpt lat="45.0032983" lon="8.3179883"><ele>177.0</ele><time>2026-04-04T07:19:46.1Z</time></trkpt><trkpt lat="45.0034033" lon="8.3182183"><ele>177.0</ele><time>2026-04-04T07:19:47.1Z</time></trkpt><trkpt lat="45.0035083" lon="8.3184483"><ele>179.66666666666666</ele><time>2026-04-04T07:19:48.107Z</time></trkpt><trkpt lat="45.0036117" lon="8.3186733"><ele>182.33333333333331</ele><time>2026-04-04T07:19:49.107Z</time></trkpt><trkpt lat="45.0037167" lon="8.3188967"><ele>185.0</ele><time>2026-04-04T07:19:50.099Z</time></trkpt><trkpt lat="45.0038183" lon="8.3191183"><ele>186.66666666666666</ele><time>2026-04-04T07:19:51.103Z</time></trkpt><trkpt lat="45.0039183" lon="8.31934"><ele>188.33333333333334</ele><time>2026-04-04T07:19:52.104Z</time></trkpt><trkpt lat="45.0040183" lon="8.31956"><ele>190.0</ele><time>2026-04-04T07:19:53.104Z</time></trkpt><trkpt lat="45.004115" lon="8.31978"><ele>189.0</ele><time>2026-04-04T07:19:54.104Z</time></trkpt><trkpt lat="45.0042117" lon="8.31999"><ele>188.0</ele><time>2026-04-04T07:19:55.103Z</time></trkpt><trkpt lat="45.0043117" lon="8.3202017"><ele>187.0</ele><time>2026-04-04T07:19:56.103Z</time></trkpt><trkpt lat="45.0044133" lon="8.3204067"><ele>188.66666666666669</ele><time>2026-04-04T07:19:57.104Z</time></trkpt><trkpt lat="45.0045133" lon="8.320615"><ele>190.33333333333334</ele><time>2026-04-04T07:19:58.101Z</time></trkpt><trkpt lat="45.0046117" lon="8.320825"><ele>192.0</ele><time>2026-04-04T07:19:59.102Z</time></trkpt><trkpt lat="45.00471" lon="8.3210317"><ele>192.0</ele><time>2026-04-04T07:20:00.1Z</time></trkpt><trkpt lat="45.0048067" lon="8.321235"><ele>192.0</ele><time>2026-04-04T07:20:01.101Z</time></trkpt><trkpt lat="45.0049017" lon="8.3214333"><ele>192.0</ele><time>2026-04-04T07:20:02.104Z</time></trkpt><trkpt lat="45.0049917" lon="8.321625"><ele>192.0</ele><time>2026-04-04T07:20:03.107Z</time></trkpt><trkpt lat="45.0050717" lon="8.3218017"><ele>192.0</ele><time>2026-04-04T07:20:04.104Z</time></trkpt><trkpt lat="45.0051383" lon="8.3219467"><ele>192.0</ele><time>2026-04-04T07:20:05.103Z</time></trkpt><trkpt lat="45.0051883" lon="8.3220567"><ele>192.0</ele><time>2026-04-04T07:20:06.104Z</time></trkpt><trkpt lat="45.00523" lon="8.3221433"><ele>192.0</ele><time>2026-04-04T07:20:07.099Z</time></trkpt><trkpt lat="45.0052817" lon="8.32223"><ele>191.66666666666666</ele><time>2026-04-04T07:20:09.101Z</time></trkpt><trkpt lat="45.0053417" lon="8.32232"><ele>191.33333333333334</ele><time>2026-04-04T07:21:27.108Z</time></trkpt><trkpt lat="45.00538" lon="8.322395"><ele>191.0</ele><time>2026-04-04T07:21:28.103Z</time></trkpt><trkpt lat="45.0054217" lon="8.3224783"><ele>190.66666666666669</ele><time>2026-04-04T07:21:29.102Z</time></trkpt><trkpt lat="45.0054633" lon="8.3225667"><ele>190.33333333333334</ele><time>2026-04-04T07:21:30.104Z</time></trkpt><trkpt lat="45.0055083" lon="8.3226633"><ele>190.0</ele><time>2026-04-04T07:21:31.108Z</time></trkpt><trkpt lat="45.00556" lon="8.32277"><ele>190.0</ele><time>2026-04-04T07:21:32.102Z</time></trkpt><trkpt lat="45.0056133" lon="8.3228883"><ele>190.0</ele><time>2026-04-04T07:21:33.101Z</time></trkpt><trkpt lat="45.0056717" lon="8.323015"><ele>190.0</ele><time>2026-04-04T07:21:34.105Z</time></trkpt><trkpt lat="45.005735" lon="8.3231467"><ele>190.0</ele><time>2026-04-04T07:21:35.106Z</time></trkpt><trkpt lat="45.0058017" lon="8.3232733"><ele>190.0</ele><time>2026-04-04T07:21:36.101Z</time></trkpt><trkpt lat="45.0058733" lon="8.3234"><ele>191.0</ele><time>2026-04-04T07:21:37.105Z</time></trkpt><trkpt lat="45.0059533" lon="8.32353"><ele>192.0</ele><time>2026-04-04T07:21:38.1Z</time></trkpt><trkpt lat="45.0060417" lon="8.3236667"><ele>193.0</ele><time>2026-04-04T07:21:39.099Z</time></trkpt><trkpt lat="45.0061333" lon="8.3238133"><ele>194.0</ele><time>2026-04-04T07:21:40.101Z</time></trkpt><trkpt lat="45.00623" lon="8.3239617"><ele>194.0</ele><time>2026-04-04T07:21:41.098Z</time></trkpt><trkpt lat="45.006325" lon="8.32411"><ele>194.0</ele><time>2026-04-04T07:21:42.101Z</time></trkpt><trkpt lat="45.00642" lon="8.3242617"><ele>194.0</ele><time>2026-04-04T07:21:43.1Z</time></trkpt><trkpt lat="45.0065167" lon="8.3244133"><ele>194.0</ele><time>2026-04-04T07:21:44.108Z</time></trkpt><trkpt lat="45.0066167" lon="8.3245683"><ele>193.5</ele><time>2026-04-04T07:21:45.106Z</time></trkpt><trkpt lat="45.0067183" lon="8.3247233"><ele>193.0</ele><time>2026-04-04T07:21:46.1Z</time></trkpt><trkpt lat="45.0068233" lon="8.3248733"><ele>192.5</ele><time>2026-04-04T07:21:47.101Z</time></trkpt><trkpt lat="45.006935" lon="8.325005"><ele>192.0</ele><time>2026-04-04T07:21:48.099Z</time></trkpt><trkpt lat="45.0070583" lon="8.3251283"><ele>192.0</ele><time>2026-04-04T07:21:49.097Z</time></trkpt><trkpt lat="45.0071883" lon="8.325235"><ele>192.0</ele><time>2026-04-04T07:21:50.1Z</time></trkpt><trkpt lat="45.00732" lon="8.3253367"><ele>192.0</ele><time>2026-04-04T07:21:51.107Z</time></trkpt><trkpt lat="45.0074583" lon="8.32543"><ele>192.33333333333331</ele><time>2026-04-04T07:21:52.112Z</time></trkpt><trkpt lat="45.0076083" lon="8.3255067"><ele>192.66666666666666</ele><time>2026-04-04T07:21:53.107Z</time></trkpt><trkpt lat="45.0077633" lon="8.3255733"><ele>193.0</ele><time>2026-04-04T07:21:54.107Z</time></trkpt><trkpt lat="45.00792" lon="8.32563"><ele>191.33333333333331</ele><time>2026-04-04T07:21:55.104Z</time></trkpt><trkpt lat="45.0080817" lon="8.3256833"><ele>189.66666666666666</ele><time>2026-04-04T07:21:56.1Z</time></trkpt><trkpt lat="45.0082467" lon="8.3257317"><ele>188.0</ele><time>2026-04-04T07:21:57.101Z</time></trkpt><trkpt lat="45.0084133" lon="8.3257683"><ele>187.66666666666666</ele><time>2026-04-04T07:21:58.101Z</time></trkpt><trkpt lat="45.0085783" lon="8.3258017"><ele>187.33333333333334</ele><time>2026-04-04T07:21:59.103Z</time></trkpt><trkpt lat="45.0087333" lon="8.32583"><ele>187.0</ele><time>2026-04-04T07:22:00.104Z</time></trkpt><trkpt lat="45.0088833" lon="8.3258567"><ele>187.0</ele><time>2026-04-04T07:22:01.099Z</time></trkpt><trkpt lat="45.0090233" lon="8.3258883"><ele>187.0</ele><time>2026-04-04T07:22:02.1Z</time></trkpt><trkpt lat="45.0091517" lon="8.3259417"><ele>187.0</ele><time>2026-04-04T07:22:03.098Z</time></trkpt><trkpt lat="45.0092583" lon="8.32604"><ele>187.0</ele><time>2026-04-04T07:22:04.1Z</time></trkpt><trkpt lat="45.0093567" lon="8.32618"><ele>187.33333333333334</ele><time>2026-04-04T07:22:05.103Z</time></trkpt><trkpt lat="45.0094367" lon="8.3263567"><ele>187.66666666666666</ele><time>2026-04-04T07:22:06.099Z</time></trkpt><trkpt lat="45.0095" lon="8.326555"><ele>188.0</ele><time>2026-04-04T07:22:07.1Z</time></trkpt><trkpt lat="45.0095583" lon="8.3267767"><ele>186.0</ele><time>2026-04-04T07:22:08.099Z</time></trkpt><trkpt lat="45.0096183" lon="8.327005"><ele>184.0</ele><time>2026-04-04T07:22:09.103Z</time></trkpt><trkpt lat="45.00968" lon="8.3272467"><ele>182.0</ele><time>2026-04-04T07:22:10.104Z</time></trkpt><trkpt lat="45.0097433" lon="8.32749"><ele>181.33333333333331</ele><time>2026-04-04T07:22:11.101Z</time></trkpt><trkpt lat="45.0098067" lon="8.3277333"><ele>180.66666666666666</ele><time>2026-04-04T07:22:12.103Z</time></trkpt><trkpt lat="45.00987" lon="8.3279733"><ele>180.0</ele><time>2026-04-04T07:22:13.105Z</time></trkpt><trkpt lat="45.0099317" lon="8.328215"><ele>181.0</ele><time>2026-04-04T07:22:14.101Z</time></trkpt><trkpt lat="45.0099967" lon="8.3284567"><ele>182.0</ele><time>2026-04-04T07:22:15.108Z</time></trkpt><trkpt lat="45.0100633" lon="8.3286933"><ele>183.0</ele><time>2026-04-04T07:22:16.106Z</time></trkpt><trkpt lat="45.0101317" lon="8.3289317"><ele>183.66666666666666</ele><time>2026-04-04T07:22:17.101Z</time></trkpt><trkpt lat="45.0102017" lon="8.32917"><ele>184.33333333333331</ele><time>2026-04-04T07:22:18.099Z</time></trkpt><trkpt lat="45.0102733" lon="8.3294083"><ele>185.0</ele><time>2026-04-04T07:22:19.102Z</time></trkpt><trkpt lat="45.0103467" lon="8.32965"><ele>184.33333333333331</ele><time>2026-04-04T07:22:20.108Z</time></trkpt><trkpt lat="45.0104183" lon="8.32989"><ele>183.66666666666666</ele><time>2026-04-04T07:22:21.103Z</time></trkpt><trkpt lat="45.0104883" lon="8.3301333"><ele>183.0</ele><time>2026-04-04T07:22:22.109Z</time></trkpt><trkpt lat="45.01056" lon="8.3303783"><ele>182.66666666666666</ele><time>2026-04-04T07:22:23.106Z</time></trkpt><trkpt lat="45.0106317" lon="8.3306217"><ele>182.33333333333331</ele><time>2026-04-04T07:22:24.099Z</time></trkpt><trkpt lat="45.0107033" lon="8.33086"><ele>182.0</ele><time>2026-04-04T07:22:25.104Z</time></trkpt><trkpt lat="45.0107767" lon="8.3310967"><ele>183.33333333333331</ele><time>2026-04-04T07:22:26.1Z</time></trkpt><trkpt lat="45.0108483" lon="8.331335"><ele>184.66666666666666</ele><time>2026-04-04T07:22:27.105Z</time></trkpt><trkpt lat="45.01093" lon="8.3315633"><ele>186.0</ele><time>2026-04-04T07:22:28.102Z</time></trkpt><trkpt lat="45.0110283" lon="8.3317733"><ele>186.0</ele><time>2026-04-04T07:22:29.103Z</time></trkpt><trkpt lat="45.0111383" lon="8.331975"><ele>186.0</ele><time>2026-04-04T07:22:30.101Z</time></trkpt><trkpt lat="45.01126" lon="8.3321617"><ele>186.0</ele><time>2026-04-04T07:22:31.101Z</time></trkpt><trkpt lat="45.01139" lon="8.3323417"><ele>186.33333333333334</ele><time>2026-04-04T07:22:32.103Z</time></trkpt><trkpt lat="45.0115167" lon="8.3325183"><ele>186.66666666666669</ele><time>2026-04-04T07:22:33.099Z</time></trkpt><trkpt lat="45.0116367" lon="8.3326867"><ele>187.0</ele><time>2026-04-04T07:22:34.101Z</time></trkpt><trkpt lat="45.01175" lon="8.3328483"><ele>186.66666666666669</ele><time>2026-04-04T07:22:35.105Z</time></trkpt><trkpt lat="45.0118617" lon="8.333005"><ele>186.33333333333334</ele><time>2026-04-04T07:22:36.104Z</time></trkpt><trkpt lat="45.0119783" lon="8.3331567"><ele>186.0</ele><time>2026-04-04T07:22:37.103Z</time></trkpt><trkpt lat="45.0121067" lon="8.3333017"><ele>186.0</ele><time>2026-04-04T07:22:38.108Z</time></trkpt><trkpt lat="45.0122433" lon="8.3334467"><ele>186.0</ele><time>2026-04-04T07:22:39.105Z</time></trkpt><trkpt lat="45.0123967" lon="8.3335817"><ele>186.0</ele><time>2026-04-04T07:22:40.1Z</time></trkpt><trkpt lat="45.01256" lon="8.3337117"><ele>187.66666666666666</ele><time>2026-04-04T07:22:41.106Z</time></trkpt><trkpt lat="45.0127333" lon="8.333835"><ele>189.33333333333331</ele><time>2026-04-04T07:22:42.099Z</time></trkpt><trkpt lat="45.01291" lon="8.33395"><ele>191.0</ele><time>2026-04-04T07:22:43.11Z</time></trkpt><trkpt lat="45.0130933" lon="8.3340517"><ele>191.0</ele><time>2026-04-04T07:22:44.103Z</time></trkpt><trkpt lat="45.013275" lon="8.3341517"><ele>191.0</ele><time>2026-04-04T07:22:45.097Z</time></trkpt><trkpt lat="45.013455" lon="8.3342433"><ele>191.0</ele><time>2026-04-04T07:22:46.104Z</time></trkpt><trkpt lat="45.0136317" lon="8.3343383"><ele>192.66666666666666</ele><time>2026-04-04T07:22:47.099Z</time></trkpt><trkpt lat="45.01381" lon="8.3344317"><ele>194.33333333333331</ele><time>2026-04-04T07:22:48.104Z</time></trkpt><trkpt lat="45.0139817" lon="8.3345233"><ele>196.0</ele><time>2026-04-04T07:22:49.102Z</time></trkpt><trkpt lat="45.0141483" lon="8.3346117"><ele>195.66666666666666</ele><time>2026-04-04T07:22:50.099Z</time></trkpt><trkpt lat="45.01431" lon="8.3346983"><ele>195.33333333333331</ele><time>2026-04-04T07:22:51.099Z</time></trkpt><trkpt lat="45.0144617" lon="8.3347817"><ele>195.0</ele><time>2026-04-04T07:22:52.105Z</time></trkpt><trkpt lat="45.014595" lon="8.3348683"><ele>195.0</ele><time>2026-04-04T07:22:53.099Z</time></trkpt><trkpt lat="45.0147067" lon="8.334985"><ele>195.0</ele><time>2026-04-04T07:22:54.103Z</time></trkpt><trkpt lat="45.0147933" lon="8.3351217"><ele>195.0</ele><time>2026-04-04T07:22:55.106Z</time></trkpt><trkpt lat="45.014855" lon="8.3352967"><ele>195.0</ele><time>2026-04-04T07:22:56.103Z</time></trkpt><trkpt lat="45.0148983" lon="8.3354917"><ele>195.33333333333331</ele><time>2026-04-04T07:22:57.107Z</time></trkpt><trkpt lat="45.0149417" lon="8.3356933"><ele>195.66666666666666</ele><time>2026-04-04T07:22:58.101Z</time></trkpt><trkpt lat="45.0149833" lon="8.335905"><ele>196.0</ele><time>2026-04-04T07:22:59.099Z</time></trkpt><trkpt lat="45.0150233" lon="8.3361117"><ele>196.0</ele><time>2026-04-04T07:23:00.099Z</time></trkpt><trkpt lat="45.0150617" lon="8.3363117"><ele>196.0</ele><time>2026-04-04T07:23:01.105Z</time></trkpt><trkpt lat="45.0151017" lon="8.3365017"><ele>196.0</ele><time>2026-04-04T07:23:02.099Z</time></trkpt><trkpt lat="45.0151433" lon="8.3366767"><ele>196.0</ele><time>2026-04-04T07:23:03.1Z</time></trkpt><trkpt lat="45.0152017" lon="8.33682"><ele>196.25</ele><time>2026-04-04T07:23:04.1Z</time></trkpt><trkpt lat="45.0152883" lon="8.3369383"><ele>196.5</ele><time>2026-04-04T07:23:05.106Z</time></trkpt><trkpt lat="45.0153967" lon="8.337025"><ele>196.75</ele><time>2026-04-04T07:23:06.097Z</time></trkpt><trkpt lat="45.0155267" lon="8.3370783"><ele>197.0</ele><time>2026-04-04T07:23:07.102Z</time></trkpt><trkpt lat="45.01567" lon="8.3371033"><ele>198.66666666666669</ele><time>2026-04-04T07:23:08.105Z</time></trkpt><trkpt lat="45.0158217" lon="8.3371183"><ele>200.33333333333331</ele><time>2026-04-04T07:23:09.097Z</time></trkpt><trkpt lat="45.01598" lon="8.337125"><ele>202.0</ele><time>2026-04-04T07:23:10.103Z</time></trkpt><trkpt lat="45.0161383" lon="8.33713"><ele>202.0</ele><time>2026-04-04T07:23:11.099Z</time></trkpt><trkpt lat="45.01629" lon="8.3371367"><ele>202.0</ele><time>2026-04-04T07:23:12.098Z</time></trkpt><trkpt lat="45.0164383" lon="8.3371483"><ele>202.0</ele><time>2026-04-04T07:23:13.101Z</time></trkpt><trkpt lat="45.0165883" lon="8.3371583"><ele>203.0</ele><time>2026-04-04T07:23:14.1Z</time></trkpt><trkpt lat="45.016735" lon="8.3371667"><ele>204.0</ele><time>2026-04-04T07:23:15.1Z</time></trkpt><trkpt lat="45.0168833" lon="8.3371783"><ele>205.0</ele><time>2026-04-04T07:23:16.108Z</time></trkpt><trkpt lat="45.017035" lon="8.3371917"><ele>206.0</ele><time>2026-04-04T07:23:17.101Z</time></trkpt><trkpt lat="45.0171867" lon="8.337205"><ele>206.0</ele><time>2026-04-04T07:23:18.104Z</time></trkpt><trkpt lat="45.0173383" lon="8.3372167"><ele>206.0</ele><time>2026-04-04T07:23:19.1Z</time></trkpt><trkpt lat="45.0174917" lon="8.3372283"><ele>206.0</ele><time>2026-04-04T07:23:20.108Z</time></trkpt><trkpt lat="45.017645" lon="8.3372383"><ele>208.25</ele><time>2026-04-04T07:23:21.1Z</time></trkpt><trkpt lat="45.0177983" lon="8.3372417"><ele>210.5</ele><time>2026-04-04T07:23:22.102Z</time></trkpt><trkpt lat="45.017945" lon="8.3372467"><ele>212.75</ele><time>2026-04-04T07:23:23.102Z</time></trkpt><trkpt lat="45.0180917" lon="8.3372433"><ele>215.0</ele><time>2026-04-04T07:23:24.107Z</time></trkpt><trkpt lat="45.0182283" lon="8.33724"><ele>216.5</ele><time>2026-04-04T07:23:25.103Z</time></trkpt><trkpt lat="45.018355" lon="8.3372417"><ele>218.0</ele><time>2026-04-04T07:23:26.105Z</time></trkpt><trkpt lat="45.01848" lon="8.33724"><ele>219.5</ele><time>2026-04-04T07:23:27.099Z</time></trkpt><trkpt lat="45.0186017" lon="8.3372367"><ele>221.0</ele><time>2026-04-04T07:23:28.099Z</time></trkpt><trkpt lat="45.018725" lon="8.3372317"><ele>221.0</ele><time>2026-04-04T07:23:29.1Z</time></trkpt><trkpt lat="45.018835" lon="8.337235"><ele>221.00000000000003</ele><time>2026-04-04T07:23:30.099Z</time></trkpt><trkpt lat="45.018945" lon="8.3372367"><ele>221.00000000000003</ele><time>2026-04-04T07:23:31.1Z</time></trkpt><trkpt lat="45.0190517" lon="8.3372367"><ele>221.0</ele><time>2026-04-04T07:23:32.1Z</time></trkpt><trkpt lat="45.019165" lon="8.3372367"><ele>221.0</ele><time>2026-04-04T07:23:33.101Z</time></trkpt><trkpt lat="45.0192717" lon="8.3372317"><ele>222.8</ele><time>2026-04-04T07:23:34.105Z</time></trkpt><trkpt lat="45.0193767" lon="8.33723"><ele>224.60000000000002</ele><time>2026-04-04T07:23:35.1Z</time></trkpt><trkpt lat="45.0194833" lon="8.3372333"><ele>226.4</ele><time>2026-04-04T07:23:36.102Z</time></trkpt><trkpt lat="45.0195883" lon="8.3372367"><ele>228.2</ele><time>2026-04-04T07:23:37.1Z</time></trkpt><trkpt lat="45.0196917" lon="8.337235"><ele>230.0</ele><time>2026-04-04T07:23:38.098Z</time></trkpt><trkpt lat="45.0197867" lon="8.3372317"><ele>230.0</ele><time>2026-04-04T07:23:39.101Z</time></trkpt><trkpt lat="45.0198883" lon="8.3372283"><ele>230.0</ele><time>2026-04-04T07:23:40.103Z</time></trkpt><trkpt lat="45.019985" lon="8.33722"><ele>230.0</ele><time>2026-04-04T07:23:41.103Z</time></trkpt><trkpt lat="45.0200817" lon="8.337215"><ele>230.0</ele><time>2026-04-04T07:23:42.103Z</time></trkpt><trkpt lat="45.02017" lon="8.3372133"><ele>230.0</ele><time>2026-04-04T07:23:43.103Z</time></trkpt><trkpt lat="45.0202617" lon="8.3372067"><ele>229.6</ele><time>2026-04-04T07:23:44.102Z</time></trkpt><trkpt lat="45.020355" lon="8.337215"><ele>229.2</ele><time>2026-04-04T07:23:45.105Z</time></trkpt><trkpt lat="45.0204533" lon="8.33722"><ele>228.8</ele><time>2026-04-04T07:23:46.102Z</time></trkpt><trkpt lat="45.02055" lon="8.337225"><ele>228.4</ele><time>2026-04-04T07:23:47.104Z</time></trkpt><trkpt lat="45.020645" lon="8.337225"><ele>228.0</ele><time>2026-04-04T07:23:48.102Z</time></trkpt><trkpt lat="45.0207367" lon="8.3372167"><ele>229.33333333333334</ele><time>2026-04-04T07:23:49.096Z</time></trkpt><trkpt lat="45.0208267" lon="8.337215"><ele>230.66666666666669</ele><time>2026-04-04T07:23:50.106Z</time></trkpt><trkpt lat="45.0209133" lon="8.337215"><ele>232.0</ele><time>2026-04-04T07:23:51.099Z</time></trkpt><trkpt lat="45.021" lon="8.3372133"><ele>233.33333333333334</ele><time>2026-04-04T07:23:52.098Z</time></trkpt><trkpt lat="45.0210883" lon="8.337225"><ele>234.66666666666669</ele><time>2026-04-04T07:23:53.098Z</time></trkpt><trkpt lat="45.021165" lon="8.3372433"><ele>236.0</ele><time>2026-04-04T07:23:54.102Z</time></trkpt><trkpt lat="45.0212333" lon="8.33727"><ele>236.0</ele><time>2026-04-04T07:23:55.099Z</time></trkpt><trkpt lat="45.021345" lon="8.3373133"><ele>236.00000000000003</ele><time>2026-04-04T07:23:57.098Z</time></trkpt><trkpt lat="45.0214133" lon="8.3373417"><ele>236.00000000000003</ele><time>2026-04-04T07:23:59.106Z</time></trkpt><trkpt lat="45.021515" lon="8.3374"><ele>236.0</ele><time>2026-04-04T07:24:23.099Z</time></trkpt><trkpt lat="45.0215783" lon="8.337285"><ele>236.0</ele><time>2026-04-04T07:24:25.1Z</time></trkpt><trkpt lat="45.021605" lon="8.3372033"><ele>236.0</ele><time>2026-04-04T07:24:26.102Z</time></trkpt><trkpt lat="45.0216283" lon="8.3371183"><ele>236.0</ele><time>2026-04-04T07:24:27.101Z</time></trkpt><trkpt lat="45.0216483" lon="8.337025"><ele>236.0</ele><time>2026-04-04T07:24:28.103Z</time></trkpt><trkpt lat="45.0216733" lon="8.3369333"><ele>236.0</ele><time>2026-04-04T07:24:29.101Z</time></trkpt><trkpt lat="45.0216983" lon="8.336835"><ele>236.0</ele><time>2026-04-04T07:24:30.106Z</time></trkpt><trkpt lat="45.0217117" lon="8.3367217"><ele>236.0</ele><time>2026-04-04T07:24:31.103Z</time></trkpt><trkpt lat="45.0217317" lon="8.33662"><ele>236.0</ele><time>2026-04-04T07:24:32.107Z</time></trkpt><trkpt lat="45.02175" lon="8.33652"><ele>237.50000000000003</ele><time>2026-04-04T07:24:33.103Z</time></trkpt><trkpt lat="45.0217683" lon="8.336415"><ele>239.0</ele><time>2026-04-04T07:24:34.1Z</time></trkpt><trkpt lat="45.0217883" lon="8.3363117"><ele>240.5</ele><time>2026-04-04T07:24:35.107Z</time></trkpt><trkpt lat="45.02177" lon="8.3361967"><ele>242.0</ele><time>2026-04-04T07:24:36.099Z</time></trkpt><trkpt lat="45.0217617" lon="8.3360733"><ele>243.50000000000003</ele><time>2026-04-04T07:24:37.106Z</time></trkpt><trkpt lat="45.021755" lon="8.335955"><ele>245.0</ele><time>2026-04-04T07:24:38.105Z</time></trkpt><trkpt lat="45.0217417" lon="8.3358317"><ele>245.0</ele><time>2026-04-04T07:24:39.105Z</time></trkpt><trkpt lat="45.0217333" lon="8.335695"><ele>245.0</ele><time>2026-04-04T07:24:40.099Z</time></trkpt><trkpt lat="45.02173" lon="8.3355633"><ele>245.0</ele><time>2026-04-04T07:24:41.1Z</time></trkpt><trkpt lat="45.02173" lon="8.3354217"><ele>245.0</ele><time>2026-04-04T07:24:42.103Z</time></trkpt><trkpt lat="45.0217317" lon="8.3352783"><ele>245.0</ele><time>2026-04-04T07:24:43.103Z</time></trkpt><trkpt lat="45.02174" lon="8.3351367"><ele>245.0</ele><time>2026-04-04T07:24:44.101Z</time></trkpt><trkpt lat="45.02175" lon="8.335"><ele>245.0</ele><time>2026-04-04T07:24:45.099Z</time></trkpt><trkpt lat="45.0217617" lon="8.3348633"><ele>245.0</ele><time>2026-04-04T07:24:46.104Z</time></trkpt><trkpt lat="45.0217767" lon="8.33472"><ele>245.0</ele><time>2026-04-04T07:24:47.103Z</time></trkpt><trkpt lat="45.021795" lon="8.3345767"><ele>245.0</ele><time>2026-04-04T07:24:48.105Z</time></trkpt><trkpt lat="45.021815" lon="8.3344383"><ele>245.00000000000003</ele><time>2026-04-04T07:24:49.103Z</time></trkpt><trkpt lat="45.02183" lon="8.3343083"><ele>245.0</ele><time>2026-04-04T07:24:50.099Z</time></trkpt><trkpt lat="45.0218467" lon="8.3341883"><ele>245.0</ele><time>2026-04-04T07:24:51.1Z</time></trkpt><trkpt lat="45.0218717" lon="8.3340817"><ele>245.0</ele><time>2026-04-04T07:24:52.106Z</time></trkpt><trkpt lat="45.02189" lon="8.33399"><ele>245.00000000000003</ele><time>2026-04-04T07:24:53.102Z</time></trkpt><trkpt lat="45.0219467" lon="8.3338717"><ele>245.0</ele><time>2026-04-04T07:24:55.1Z</time></trkpt><trkpt lat="45.0220117" lon="8.3337733"><ele>244.6</ele><time>2026-04-04T07:24:57.1Z</time></trkpt><trkpt lat="45.0220833" lon="8.3336167"><ele>244.2</ele><time>2026-04-04T07:24:59.103Z</time></trkpt><trkpt lat="45.02213" lon="8.333495"><ele>243.8</ele><time>2026-04-04T07:25:00.1Z</time></trkpt><trkpt lat="45.02218" lon="8.3333683"><ele>243.4</ele><time>2026-04-04T07:25:01.105Z</time></trkpt><trkpt lat="45.022235" lon="8.3332567"><ele>243.0</ele><time>2026-04-04T07:25:02.1Z</time></trkpt><trkpt lat="45.0222883" lon="8.3331417"><ele>242.83333333333334</ele><time>2026-04-04T07:25:03.098Z</time></trkpt><trkpt lat="45.02232" lon="8.3330117"><ele>242.66666666666669</ele><time>2026-04-04T07:25:04.1Z</time></trkpt><trkpt lat="45.0223683" lon="8.33291"><ele>242.5</ele><time>2026-04-04T07:25:05.102Z</time></trkpt><trkpt lat="45.0224083" lon="8.3327983"><ele>242.33333333333334</ele><time>2026-04-04T07:25:06.101Z</time></trkpt><trkpt lat="45.0224467" lon="8.332685"><ele>242.16666666666669</ele><time>2026-04-04T07:25:07.101Z</time></trkpt><trkpt lat="45.02246" lon="8.3325667"><ele>242.0</ele><time>2026-04-04T07:25:08.1Z</time></trkpt><trkpt lat="45.02248" lon="8.33246"><ele>241.6</ele><time>2026-04-04T07:25:09.101Z</time></trkpt><trkpt lat="45.022485" lon="8.3323383"><ele>241.2</ele><time>2026-04-04T07:25:10.102Z</time></trkpt><trkpt lat="45.0224617" lon="8.3321933"><ele>240.8</ele><time>2026-04-04T07:25:11.1Z</time></trkpt><trkpt lat="45.022435" lon="8.3320483"><ele>240.4</ele><time>2026-04-04T07:25:12.104Z</time></trkpt><trkpt lat="45.0224083" lon="8.3318967"><ele>240.0</ele><time>2026-04-04T07:25:13.099Z</time></trkpt><trkpt lat="45.0223783" lon="8.33174"><ele>240.0</ele><time>2026-04-04T07:25:14.102Z</time></trkpt><trkpt lat="45.022355" lon="8.3315767"><ele>240.0</ele><time>2026-04-04T07:25:15.102Z</time></trkpt><trkpt lat="45.0223283" lon="8.33141"><ele>240.0</ele><time>2026-04-04T07:25:16.103Z</time></trkpt><trkpt lat="45.0223" lon="8.3312417"><ele>240.0</ele><time>2026-04-04T07:25:17.104Z</time></trkpt><trkpt lat="45.0222767" lon="8.33107"><ele>242.0</ele><time>2026-04-04T07:25:18.109Z</time></trkpt><trkpt lat="45.0222533" lon="8.330895"><ele>244.0</ele><time>2026-04-04T07:25:19.1Z</time></trkpt><trkpt lat="45.0222267" lon="8.3307317"><ele>246.0</ele><time>2026-04-04T07:25:20.103Z</time></trkpt><trkpt lat="45.0221867" lon="8.330575"><ele>248.0</ele><time>2026-04-04T07:25:21.106Z</time></trkpt><trkpt lat="45.0221517" lon="8.3304133"><ele>250.25</ele><time>2026-04-04T07:25:22.108Z</time></trkpt><trkpt lat="45.022115" lon="8.33026"><ele>252.5</ele><time>2026-04-04T07:25:23.105Z</time></trkpt><trkpt lat="45.022085" lon="8.330105"><ele>254.75</ele><time>2026-04-04T07:25:24.102Z</time></trkpt><trkpt lat="45.0220667" lon="8.329945"><ele>257.0</ele><time>2026-04-04T07:25:25.104Z</time></trkpt><trkpt lat="45.0220683" lon="8.3297917"><ele>260.25</ele><time>2026-04-04T07:25:26.098Z</time></trkpt><trkpt lat="45.0220933" lon="8.3296317"><ele>263.5</ele><time>2026-04-04T07:25:27.106Z</time></trkpt><trkpt lat="45.0221367" lon="8.3294667"><ele>266.75</ele><time>2026-04-04T07:25:28.102Z</time></trkpt><trkpt lat="45.0221867" lon="8.329295"><ele>270.0</ele><time>2026-04-04T07:25:29.099Z</time></trkpt><trkpt lat="45.0222333" lon="8.329125"><ele>270.0</ele><time>2026-04-04T07:25:30.102Z</time></trkpt><trkpt lat="45.0222817" lon="8.328955"><ele>270.0</ele><time>2026-04-04T07:25:31.1Z</time></trkpt><trkpt lat="45.02233" lon="8.3287917"><ele>270.0</ele><time>2026-04-04T07:25:32.103Z</time></trkpt><trkpt lat="45.022375" lon="8.3286233"><ele>270.0</ele><time>2026-04-04T07:25:33.101Z</time></trkpt><trkpt lat="45.02242" lon="8.32846"><ele>270.75</ele><time>2026-04-04T07:25:34.104Z</time></trkpt><trkpt lat="45.022475" lon="8.32831"><ele>271.5</ele><time>2026-04-04T07:25:35.112Z</time></trkpt><trkpt lat="45.0225467" lon="8.328175"><ele>272.25</ele><time>2026-04-04T07:25:36.102Z</time></trkpt><trkpt lat="45.0226333" lon="8.3280633"><ele>273.0</ele><time>2026-04-04T07:25:37.105Z</time></trkpt><trkpt lat="45.0227383" lon="8.3279783"><ele>269.25</ele><time>2026-04-04T07:25:38.101Z</time></trkpt><trkpt lat="45.02286" lon="8.3279333"><ele>265.5</ele><time>2026-04-04T07:25:39.101Z</time></trkpt><trkpt lat="45.0229817" lon="8.3279383"><ele>261.75</ele><time>2026-04-04T07:25:40.106Z</time></trkpt><trkpt lat="45.023135" lon="8.3280217"><ele>258.0</ele><time>2026-04-04T07:25:41.103Z</time></trkpt><trkpt lat="45.0232917" lon="8.32814"><ele>255.66666666666669</ele><time>2026-04-04T07:25:42.103Z</time></trkpt><trkpt lat="45.023445" lon="8.3282483"><ele>253.33333333333334</ele><time>2026-04-04T07:25:43.104Z</time></trkpt><trkpt lat="45.0236067" lon="8.3283733"><ele>251.0</ele><time>2026-04-04T07:25:44.099Z</time></trkpt><trkpt lat="45.02376" lon="8.328485"><ele>251.0</ele><time>2026-04-04T07:25:45.099Z</time></trkpt><trkpt lat="45.0239083" lon="8.3286067"><ele>251.0</ele><time>2026-04-04T07:25:46.099Z</time></trkpt><trkpt lat="45.0240533" lon="8.32872"><ele>251.0</ele><time>2026-04-04T07:25:47.106Z</time></trkpt><trkpt lat="45.0242017" lon="8.3288233"><ele>249.66666666666669</ele><time>2026-04-04T07:25:48.097Z</time></trkpt><trkpt lat="45.0243483" lon="8.328925"><ele>248.33333333333331</ele><time>2026-04-04T07:25:49.1Z</time></trkpt><trkpt lat="45.0244933" lon="8.329025"><ele>247.0</ele><time>2026-04-04T07:25:50.098Z</time></trkpt><trkpt lat="45.02464" lon="8.329125"><ele>247.0</ele><time>2026-04-04T07:25:51.1Z</time></trkpt><trkpt lat="45.0247833" lon="8.3292233"><ele>247.0</ele><time>2026-04-04T07:25:52.102Z</time></trkpt><trkpt lat="45.02492" lon="8.3293233"><ele>247.0</ele><time>2026-04-04T07:25:53.101Z</time></trkpt><trkpt lat="45.0250583" lon="8.3294217"><ele>243.0</ele><time>2026-04-04T07:25:54.101Z</time></trkpt><trkpt lat="45.0251983" lon="8.3295233"><ele>239.0</ele><time>2026-04-04T07:25:55.102Z</time></trkpt><trkpt lat="45.0253317" lon="8.329625"><ele>235.0</ele><time>2026-04-04T07:25:56.101Z</time></trkpt><trkpt lat="45.02547" lon="8.3297233"><ele>236.25</ele><time>2026-04-04T07:25:57.104Z</time></trkpt><trkpt lat="45.025595" lon="8.329815"><ele>237.5</ele><time>2026-04-04T07:25:58.106Z</time></trkpt><trkpt lat="45.0257067" lon="8.3298883"><ele>238.75</ele><time>2026-04-04T07:25:59.104Z</time></trkpt><trkpt lat="45.0258017" lon="8.329935"><ele>240.0</ele><time>2026-04-04T07:26:00.101Z</time></trkpt><trkpt lat="45.0258917" lon="8.3299333"><ele>237.8</ele><time>2026-04-04T07:26:01.107Z</time></trkpt><trkpt lat="45.0259717" lon="8.3298733"><ele>235.6</ele><time>2026-04-04T07:26:02.101Z</time></trkpt><trkpt lat="45.0260283" lon="8.3297617"><ele>233.39999999999998</ele><time>2026-04-04T07:26:03.101Z</time></trkpt><trkpt lat="45.0260633" lon="8.329625"><ele>231.2</ele><time>2026-04-04T07:26:04.102Z</time></trkpt><trkpt lat="45.0260667" lon="8.3294517"><ele>229.0</ele><time>2026-04-04T07:26:05.104Z</time></trkpt><trkpt lat="45.02606" lon="8.3292633"><ele>227.66666666666666</ele><time>2026-04-04T07:26:06.104Z</time></trkpt><trkpt lat="45.0260317" lon="8.3290583"><ele>226.33333333333331</ele><time>2026-04-04T07:26:07.103Z</time></trkpt><trkpt lat="45.0259883" lon="8.3288483"><ele>225.0</ele><time>2026-04-04T07:26:08.106Z</time></trkpt><trkpt lat="45.0259333" lon="8.3286317"><ele>225.0</ele><time>2026-04-04T07:26:09.099Z</time></trkpt><trkpt lat="45.0258767" lon="8.3284167"><ele>225.0</ele><time>2026-04-04T07:26:10.11Z</time></trkpt><trkpt lat="45.0258167" lon="8.3282017"><ele>225.0</ele><time>2026-04-04T07:26:11.106Z</time></trkpt><trkpt lat="45.0257567" lon="8.3279817"><ele>225.0</ele><time>2026-04-04T07:26:12.1Z</time></trkpt><trkpt lat="45.025695" lon="8.327765"><ele>225.0</ele><time>2026-04-04T07:26:13.104Z</time></trkpt><trkpt lat="45.0256333" lon="8.32755"><ele>225.0</ele><time>2026-04-04T07:26:14.108Z</time></trkpt><trkpt lat="45.02557" lon="8.327335"><ele>222.66666666666669</ele><time>2026-04-04T07:26:15.106Z</time></trkpt><trkpt lat="45.0255117" lon="8.3271183"><ele>220.33333333333334</ele><time>2026-04-04T07:26:16.103Z</time></trkpt><trkpt lat="45.0254567" lon="8.3269033"><ele>218.0</ele><time>2026-04-04T07:26:17.1Z</time></trkpt><trkpt lat="45.0253983" lon="8.3266867"><ele>218.0</ele><time>2026-04-04T07:26:18.099Z</time></trkpt><trkpt lat="45.0253433" lon="8.32647"><ele>218.0</ele><time>2026-04-04T07:26:19.102Z</time></trkpt><trkpt lat="45.0252967" lon="8.32626"><ele>218.0</ele><time>2026-04-04T07:26:20.105Z</time></trkpt><trkpt lat="45.0252633" lon="8.3260517"><ele>216.66666666666669</ele><time>2026-04-04T07:26:21.099Z</time></trkpt><trkpt lat="45.025245" lon="8.3258433"><ele>215.33333333333331</ele><time>2026-04-04T07:26:22.101Z</time></trkpt><trkpt lat="45.02524" lon="8.3256317"><ele>214.0</ele><time>2026-04-04T07:26:23.107Z</time></trkpt><trkpt lat="45.025255" lon="8.3254117"><ele>211.66666666666666</ele><time>2026-04-04T07:26:24.103Z</time></trkpt><trkpt lat="45.0252867" lon="8.3251833"><ele>209.33333333333331</ele><time>2026-04-04T07:26:25.105Z</time></trkpt><trkpt lat="45.0253417" lon="8.3249583"><ele>207.0</ele><time>2026-04-04T07:26:26.11Z</time></trkpt><trkpt lat="45.0254167" lon="8.3247317"><ele>205.33333333333331</ele><time>2026-04-04T07:26:27.099Z</time></trkpt><trkpt lat="45.02551" lon="8.3245133"><ele>203.66666666666666</ele><time>2026-04-04T07:26:28.103Z</time></trkpt><trkpt lat="45.0256167" lon="8.3243"><ele>202.0</ele><time>2026-04-04T07:26:29.099Z</time></trkpt><trkpt lat="45.025725" lon="8.3240867"><ele>202.0</ele><time>2026-04-04T07:26:30.099Z</time></trkpt><trkpt lat="45.0258367" lon="8.32387"><ele>202.0</ele><time>2026-04-04T07:26:31.106Z</time></trkpt><trkpt lat="45.0259517" lon="8.3236533"><ele>202.0</ele><time>2026-04-04T07:26:32.1Z</time></trkpt><trkpt lat="45.026065" lon="8.3234317"><ele>202.0</ele><time>2026-04-04T07:26:33.098Z</time></trkpt><trkpt lat="45.0261783" lon="8.3232117"><ele>202.0</ele><time>2026-04-04T07:26:34.098Z</time></trkpt><trkpt lat="45.0262967" lon="8.3229917"><ele>202.0</ele><time>2026-04-04T07:26:35.1Z</time></trkpt><trkpt lat="45.0264183" lon="8.3227783"><ele>202.66666666666666</ele><time>2026-04-04T07:26:36.111Z</time></trkpt><trkpt lat="45.026545" lon="8.3225783"><ele>203.33333333333331</ele><time>2026-04-04T07:26:37.099Z</time></trkpt><trkpt lat="45.0266833" lon="8.3224033"><ele>204.0</ele><time>2026-04-04T07:26:38.101Z</time></trkpt><trkpt lat="45.0268367" lon="8.3222533"><ele>207.33333333333331</ele><time>2026-04-04T07:26:39.102Z</time></trkpt><trkpt lat="45.0269967" lon="8.32211"><ele>210.66666666666666</ele><time>2026-04-04T07:26:40.097Z</time></trkpt><trkpt lat="45.0271567" lon="8.3219717"><ele>214.0</ele><time>2026-04-04T07:26:41.102Z</time></trkpt><trkpt lat="45.0273117" lon="8.32184"><ele>214.0</ele><time>2026-04-04T07:26:42.101Z</time></trkpt><trkpt lat="45.02745" lon="8.3217133"><ele>214.0</ele><time>2026-04-04T07:26:43.1Z</time></trkpt><trkpt lat="45.027575" lon="8.3215833"><ele>214.0</ele><time>2026-04-04T07:26:44.102Z</time></trkpt><trkpt lat="45.027675" lon="8.3214433"><ele>215.0</ele><time>2026-04-04T07:26:45.097Z</time></trkpt><trkpt lat="45.027745" lon="8.32128"><ele>216.0</ele><time>2026-04-04T07:26:46.101Z</time></trkpt><trkpt lat="45.0277917" lon="8.3210983"><ele>217.0</ele><time>2026-04-04T07:26:47.099Z</time></trkpt><trkpt lat="45.02781" lon="8.320895"><ele>218.0</ele><time>2026-04-04T07:26:48.108Z</time></trkpt><trkpt lat="45.0278117" lon="8.3206817"><ele>221.0</ele><time>2026-04-04T07:26:49.102Z</time></trkpt><trkpt lat="45.0278183" lon="8.3204567"><ele>224.0</ele><time>2026-04-04T07:26:50.107Z</time></trkpt><trkpt lat="45.0278233" lon="8.320225"><ele>227.0</ele><time>2026-04-04T07:26:51.105Z</time></trkpt><trkpt lat="45.0278333" lon="8.3199917"><ele>227.0</ele><time>2026-04-04T07:26:52.099Z</time></trkpt><trkpt lat="45.0278417" lon="8.319755"><ele>227.0</ele><time>2026-04-04T07:26:53.104Z</time></trkpt><trkpt lat="45.027855" lon="8.3195217"><ele>227.0</ele><time>2026-04-04T07:26:54.104Z</time></trkpt><trkpt lat="45.027865" lon="8.3192883"><ele>228.0</ele><time>2026-04-04T07:26:55.099Z</time></trkpt><trkpt lat="45.0278767" lon="8.319055"><ele>229.0</ele><time>2026-04-04T07:26:56.098Z</time></trkpt><trkpt lat="45.0278917" lon="8.31883"><ele>230.0</ele><time>2026-04-04T07:26:57.101Z</time></trkpt><trkpt lat="45.0279117" lon="8.3186233"><ele>230.5</ele><time>2026-04-04T07:26:58.1Z</time></trkpt><trkpt lat="45.0279567" lon="8.3184333"><ele>231.0</ele><time>2026-04-04T07:26:59.1Z</time></trkpt><trkpt lat="45.02802" lon="8.3182583"><ele>231.5</ele><time>2026-04-04T07:27:00.098Z</time></trkpt><trkpt lat="45.0281017" lon="8.318115"><ele>232.0</ele><time>2026-04-04T07:27:01.103Z</time></trkpt><trkpt lat="45.028205" lon="8.3180083"><ele>231.66666666666666</ele><time>2026-04-04T07:27:02.1Z</time></trkpt><trkpt lat="45.0283467" lon="8.31796"><ele>231.33333333333331</ele><time>2026-04-04T07:27:03.099Z</time></trkpt><trkpt lat="45.0285067" lon="8.3179733"><ele>231.0</ele><time>2026-04-04T07:27:04.101Z</time></trkpt><trkpt lat="45.028655" lon="8.3180233"><ele>228.66666666666669</ele><time>2026-04-04T07:27:05.105Z</time></trkpt><trkpt lat="45.0288033" lon="8.31811"><ele>226.33333333333334</ele><time>2026-04-04T07:27:06.102Z</time></trkpt><trkpt lat="45.0289417" lon="8.3182217"><ele>224.0</ele><time>2026-04-04T07:27:07.099Z</time></trkpt><trkpt lat="45.0290783" lon="8.31833"><ele>225.5</ele><time>2026-04-04T07:27:08.102Z</time></trkpt><trkpt lat="45.02921" lon="8.3184267"><ele>227.0</ele><time>2026-04-04T07:27:09.103Z</time></trkpt><trkpt lat="45.0293467" lon="8.3185033"><ele>228.5</ele><time>2026-04-04T07:27:10.105Z</time></trkpt><trkpt lat="45.0294883" lon="8.3185467"><ele>230.0</ele><time>2026-04-04T07:27:11.103Z</time></trkpt><trkpt lat="45.0296283" lon="8.31856"><ele>230.0</ele><time>2026-04-04T07:27:12.103Z</time></trkpt><trkpt lat="45.02977" lon="8.3185433"><ele>230.0</ele><time>2026-04-04T07:27:13.103Z</time></trkpt><trkpt lat="45.029915" lon="8.318495"><ele>230.0</ele><time>2026-04-04T07:27:14.109Z</time></trkpt><trkpt lat="45.0300483" lon="8.318435"><ele>230.0</ele><time>2026-04-04T07:27:15.102Z</time></trkpt><trkpt lat="45.0301633" lon="8.3183667"><ele>230.8</ele><time>2026-04-04T07:27:16.101Z</time></trkpt><trkpt lat="45.03026" lon="8.3182983"><ele>231.6</ele><time>2026-04-04T07:27:17.104Z</time></trkpt><trkpt lat="45.0303417" lon="8.3182433"><ele>232.39999999999998</ele><time>2026-04-04T07:27:18.101Z</time></trkpt><trkpt lat="45.030405" lon="8.318195"><ele>233.2</ele><time>2026-04-04T07:27:19.112Z</time></trkpt><trkpt lat="45.0304733" lon="8.3181433"><ele>234.0</ele><time>2026-04-04T07:27:21.1Z</time></trkpt><trkpt lat="45.0305667" lon="8.3180633"><ele>235.16666666666666</ele><time>2026-04-04T07:28:03.099Z</time></trkpt><trkpt lat="45.03063" lon="8.318015"><ele>236.33333333333331</ele><time>2026-04-04T07:28:04.099Z</time></trkpt><trkpt lat="45.030695" lon="8.317975"><ele>237.5</ele><time>2026-04-04T07:28:05.104Z</time></trkpt><trkpt lat="45.0307617" lon="8.3179267"><ele>238.66666666666666</ele><time>2026-04-04T07:28:06.099Z</time></trkpt><trkpt lat="45.030835" lon="8.3178733"><ele>239.83333333333331</ele><time>2026-04-04T07:28:07.101Z</time></trkpt><trkpt lat="45.03091" lon="8.3178167"><ele>241.0</ele><time>2026-04-04T07:28:08.1Z</time></trkpt><trkpt lat="45.0309883" lon="8.3177567"><ele>240.99999999999997</ele><time>2026-04-04T07:28:09.1Z</time></trkpt><trkpt lat="45.031065" lon="8.3176983"><ele>241.0</ele><time>2026-04-04T07:28:10.104Z</time></trkpt><trkpt lat="45.0311367" lon="8.3176433"><ele>241.0</ele><time>2026-04-04T07:28:11.1Z</time></trkpt><trkpt lat="45.0312067" lon="8.3175867"><ele>241.0</ele><time>2026-04-04T07:28:12.099Z</time></trkpt><trkpt lat="45.031275" lon="8.3175317"><ele>240.99999999999997</ele><time>2026-04-04T07:28:13.101Z</time></trkpt><trkpt lat="45.031345" lon="8.317475"><ele>241.0</ele><time>2026-04-04T07:28:14.105Z</time></trkpt><trkpt lat="45.0314117" lon="8.3174167"><ele>240.99999999999997</ele><time>2026-04-04T07:28:15.106Z</time></trkpt><trkpt lat="45.0314767" lon="8.3173533"><ele>241.0</ele><time>2026-04-04T07:28:16.105Z</time></trkpt><trkpt lat="45.0315417" lon="8.3172833"><ele>241.0</ele><time>2026-04-04T07:28:17.102Z</time></trkpt><trkpt lat="45.0316017" lon="8.3172133"><ele>241.0</ele><time>2026-04-04T07:28:18.102Z</time></trkpt><trkpt lat="45.031655" lon="8.3171367"><ele>240.99999999999997</ele><time>2026-04-04T07:28:19.101Z</time></trkpt><trkpt lat="45.0317033" lon="8.3170467"><ele>241.0</ele><time>2026-04-04T07:28:20.101Z</time></trkpt><trkpt lat="45.0317533" lon="8.3169367"><ele>241.5</ele><time>2026-04-04T07:28:21.101Z</time></trkpt><trkpt lat="45.0318067" lon="8.3167967"><ele>242.0</ele><time>2026-04-04T07:28:22.103Z</time></trkpt><trkpt lat="45.03186" lon="8.3166417"><ele>242.5</ele><time>2026-04-04T07:28:23.1Z</time></trkpt><trkpt lat="45.0319133" lon="8.3164833"><ele>243.0</ele><time>2026-04-04T07:28:24.099Z</time></trkpt><trkpt lat="45.03197" lon="8.3163083"><ele>244.66666666666669</ele><time>2026-04-04T07:28:25.102Z</time></trkpt><trkpt lat="45.0320283" lon="8.3161033"><ele>246.33333333333334</ele><time>2026-04-04T07:28:26.098Z</time></trkpt><trkpt lat="45.0320883" lon="8.3158917"><ele>248.0</ele><time>2026-04-04T07:28:27.098Z</time></trkpt><trkpt lat="45.03215" lon="8.3156917"><ele>249.0</ele><time>2026-04-04T07:28:28.103Z</time></trkpt><trkpt lat="45.0322133" lon="8.315505"><ele>250.0</ele><time>2026-04-04T07:28:29.102Z</time></trkpt><trkpt lat="45.0322717" lon="8.315325"><ele>251.0</ele><time>2026-04-04T07:28:30.102Z</time></trkpt><trkpt lat="45.0323267" lon="8.3151517"><ele>252.0</ele><time>2026-04-04T07:28:31.1Z</time></trkpt><trkpt lat="45.03238" lon="8.3149783"><ele>252.0</ele><time>2026-04-04T07:28:32.098Z</time></trkpt><trkpt lat="45.0324317" lon="8.3148"><ele>252.0</ele><time>2026-04-04T07:28:33.098Z</time></trkpt><trkpt lat="45.0324883" lon="8.31463"><ele>252.0</ele><time>2026-04-04T07:28:34.102Z</time></trkpt><trkpt lat="45.0325483" lon="8.31446"><ele>252.0</ele><time>2026-04-04T07:28:35.104Z</time></trkpt><trkpt lat="45.0326067" lon="8.3142917"><ele>252.75</ele><time>2026-04-04T07:28:36.1Z</time></trkpt><trkpt lat="45.032665" lon="8.31412"><ele>253.5</ele><time>2026-04-04T07:28:37.102Z</time></trkpt><trkpt lat="45.0327317" lon="8.3139517"><ele>254.25</ele><time>2026-04-04T07:28:38.102Z</time></trkpt><trkpt lat="45.0328083" lon="8.31379"><ele>255.0</ele><time>2026-04-04T07:28:39.103Z</time></trkpt><trkpt lat="45.0328933" lon="8.3136417"><ele>255.0</ele><time>2026-04-04T07:28:40.103Z</time></trkpt><trkpt lat="45.0329883" lon="8.313515"><ele>255.0</ele><time>2026-04-04T07:28:41.105Z</time></trkpt><trkpt lat="45.0330967" lon="8.31341"><ele>255.0</ele><time>2026-04-04T07:28:42.103Z</time></trkpt><trkpt lat="45.0332167" lon="8.3133333"><ele>255.0</ele><time>2026-04-04T07:28:43.101Z</time></trkpt><trkpt lat="45.03335" lon="8.3132867"><ele>255.0</ele><time>2026-04-04T07:28:44.107Z</time></trkpt><trkpt lat="45.0334967" lon="8.3132733"><ele>255.0</ele><time>2026-04-04T07:28:45.1Z</time></trkpt><trkpt lat="45.0336417" lon="8.3132833"><ele>255.0</ele><time>2026-04-04T07:28:46.105Z</time></trkpt><trkpt lat="45.0337817" lon="8.3133033"><ele>255.0</ele><time>2026-04-04T07:28:47.103Z</time></trkpt><trkpt lat="45.0339167" lon="8.313325"><ele>255.0</ele><time>2026-04-04T07:28:48.104Z</time></trkpt><trkpt lat="45.03405" lon="8.3133483"><ele>255.0</ele><time>2026-04-04T07:28:49.099Z</time></trkpt><trkpt lat="45.0341817" lon="8.313375"><ele>255.0</ele><time>2026-04-04T07:28:50.097Z</time></trkpt><trkpt lat="45.0343117" lon="8.313405"><ele>255.0</ele><time>2026-04-04T07:28:51.1Z</time></trkpt><trkpt lat="45.0344467" lon="8.31343"><ele>257.0</ele><time>2026-04-04T07:28:52.099Z</time></trkpt><trkpt lat="45.0345767" lon="8.3134483"><ele>259.0</ele><time>2026-04-04T07:28:53.1Z</time></trkpt><trkpt lat="45.0347067" lon="8.313475"><ele>261.0</ele><time>2026-04-04T07:28:54.101Z</time></trkpt><trkpt lat="45.0348317" lon="8.3134983"><ele>263.0</ele><time>2026-04-04T07:28:55.098Z</time></trkpt><trkpt lat="45.034955" lon="8.3135283"><ele>262.4</ele><time>2026-04-04T07:28:56.1Z</time></trkpt><trkpt lat="45.0350717" lon="8.3135433"><ele>261.8</ele><time>2026-04-04T07:28:57.103Z</time></trkpt><trkpt lat="45.0351817" lon="8.3135667"><ele>261.2</ele><time>2026-04-04T07:28:58.098Z</time></trkpt><trkpt lat="45.03529" lon="8.3135867"><ele>260.6</ele><time>2026-04-04T07:28:59.104Z</time></trkpt><trkpt lat="45.0353967" lon="8.3136083"><ele>260.0</ele><time>2026-04-04T07:29:00.104Z</time></trkpt><trkpt lat="45.0355017" lon="8.31363"><ele>260.0</ele><time>2026-04-04T07:29:01.106Z</time></trkpt><trkpt lat="45.035615" lon="8.3136517"><ele>260.0</ele><time>2026-04-04T07:29:02.105Z</time></trkpt><trkpt lat="45.035725" lon="8.31369"><ele>260.0</ele><time>2026-04-04T07:29:03.105Z</time></trkpt><trkpt lat="45.03584" lon="8.3137233"><ele>260.0</ele><time>2026-04-04T07:29:04.102Z</time></trkpt><trkpt lat="45.03595" lon="8.3137667"><ele>260.2</ele><time>2026-04-04T07:29:05.104Z</time></trkpt><trkpt lat="45.0360583" lon="8.3138083"><ele>260.4</ele><time>2026-04-04T07:29:06.104Z</time></trkpt><trkpt lat="45.0361567" lon="8.3138433"><ele>260.6</ele><time>2026-04-04T07:29:07.105Z</time></trkpt><trkpt lat="45.0362483" lon="8.313875"><ele>260.8</ele><time>2026-04-04T07:29:08.103Z</time></trkpt><trkpt lat="45.0363433" lon="8.3139133"><ele>261.0</ele><time>2026-04-04T07:29:09.101Z</time></trkpt><trkpt lat="45.0364333" lon="8.3139333"><ele>263.3333333333333</ele><time>2026-04-04T07:29:10.104Z</time></trkpt><trkpt lat="45.036525" lon="8.31395"><ele>265.6666666666667</ele><time>2026-04-04T07:29:11.101Z</time></trkpt><trkpt lat="45.03661" lon="8.3139567"><ele>268.0</ele><time>2026-04-04T07:29:12.099Z</time></trkpt><trkpt lat="45.0366917" lon="8.3139783"><ele>270.33333333333337</ele><time>2026-04-04T07:29:13.102Z</time></trkpt><trkpt lat="45.0367717" lon="8.3139933"><ele>272.6666666666667</ele><time>2026-04-04T07:29:14.1Z</time></trkpt><trkpt lat="45.03685" lon="8.3139917"><ele>275.0</ele><time>2026-04-04T07:29:15.099Z</time></trkpt><trkpt lat="45.0369583" lon="8.3139517"><ele>275.0</ele><time>2026-04-04T07:29:16.102Z</time></trkpt><trkpt lat="45.0370483" lon="8.3139567"><ele>275.0</ele><time>2026-04-04T07:29:17.105Z</time></trkpt><trkpt lat="45.0371417" lon="8.3139383"><ele>275.0</ele><time>2026-04-04T07:29:18.101Z</time></trkpt><trkpt lat="45.0372433" lon="8.31392"><ele>275.0</ele><time>2026-04-04T07:29:19.099Z</time></trkpt><trkpt lat="45.03733" lon="8.3138817"><ele>275.0</ele><time>2026-04-04T07:29:20.1Z</time></trkpt><trkpt lat="45.0374217" lon="8.31386"><ele>272.33333333333337</ele><time>2026-04-04T07:29:21.104Z</time></trkpt><trkpt lat="45.037515" lon="8.3138383"><ele>269.6666666666667</ele><time>2026-04-04T07:29:22.105Z</time></trkpt><trkpt lat="45.0376117" lon="8.313815"><ele>267.0</ele><time>2026-04-04T07:29:23.106Z</time></trkpt><trkpt lat="45.0376967" lon="8.3137767"><ele>264.3333333333333</ele><time>2026-04-04T07:29:24.104Z</time></trkpt><trkpt lat="45.0377733" lon="8.3137383"><ele>261.66666666666663</ele><time>2026-04-04T07:29:25.104Z</time></trkpt><trkpt lat="45.03784" lon="8.31371"><ele>259.0</ele><time>2026-04-04T07:29:26.104Z</time></trkpt><trkpt lat="45.0379417" lon="8.3136633"><ele>259.0</ele><time>2026-04-04T07:29:28.109Z</time></trkpt><trkpt lat="45.0380067" lon="8.313655"><ele>259.0</ele><time>2026-04-04T07:29:30.101Z</time></trkpt><trkpt lat="45.0380833" lon="8.3136817"><ele>259.0</ele><time>2026-04-04T07:29:33.102Z</time></trkpt><trkpt lat="45.0381717" lon="8.3136633"><ele>259.0</ele><time>2026-04-04T07:29:36.102Z</time></trkpt><trkpt lat="45.0382517" lon="8.31362"><ele>259.0</ele><time>2026-04-04T07:29:39.098Z</time></trkpt><trkpt lat="45.0383267" lon="8.313595"><ele>259.0</ele><time>2026-04-04T07:29:42.102Z</time></trkpt><trkpt lat="45.0384533" lon="8.3135983"><ele>261.4</ele><time>2026-04-04T07:29:45.102Z</time></trkpt><trkpt lat="45.0385567" lon="8.3136017"><ele>263.79999999999995</ele><time>2026-04-04T07:29:47.107Z</time></trkpt><trkpt lat="45.0386233" lon="8.3135033"><ele>266.20000000000005</ele><time>2026-04-04T07:29:50.102Z</time></trkpt><trkpt lat="45.038675" lon="8.3134267"><ele>268.6</ele><time>2026-04-04T07:29:52.099Z</time></trkpt><trkpt lat="45.0387333" lon="8.3133417"><ele>271.0</ele><time>2026-04-04T07:29:54.1Z</time></trkpt><trkpt lat="45.0388017" lon="8.3132517"><ele>271.0</ele><time>2026-04-04T07:29:56.107Z</time></trkpt><trkpt lat="45.0388883" lon="8.3131667"><ele>271.0</ele><time>2026-04-04T07:29:58.1Z</time></trkpt><trkpt lat="45.0389667" lon="8.3131483"><ele>271.0</ele><time>2026-04-04T07:29:59.098Z</time></trkpt><trkpt lat="45.0390767" lon="8.313065"><ele>271.0</ele><time>2026-04-04T07:30:01.099Z</time></trkpt><trkpt lat="45.039145" lon="8.3130367"><ele>271.0</ele><time>2026-04-04T07:30:02.101Z</time></trkpt><trkpt lat="45.03921" lon="8.3130133"><ele>271.0</ele><time>2026-04-04T07:30:03.101Z</time></trkpt><trkpt lat="45.0393433" lon="8.3129667"><ele>271.2857142857143</ele><time>2026-04-04T07:30:05.1Z</time></trkpt><trkpt lat="45.03941" lon="8.3129533"><ele>271.57142857142856</ele><time>2026-04-04T07:30:06.099Z</time></trkpt><trkpt lat="45.0394733" lon="8.3129367"><ele>271.8571428571429</ele><time>2026-04-04T07:30:07.1Z</time></trkpt><trkpt lat="45.03955" lon="8.31292"><ele>272.1428571428571</ele><time>2026-04-04T07:30:08.103Z</time></trkpt><trkpt lat="45.0396183" lon="8.3129"><ele>272.42857142857144</ele><time>2026-04-04T07:30:09.101Z</time></trkpt><trkpt lat="45.0396817" lon="8.3128767"><ele>272.7142857142857</ele><time>2026-04-04T07:30:10.105Z</time></trkpt><trkpt lat="45.0397733" lon="8.3128467"><ele>273.0</ele><time>2026-04-04T07:30:12.104Z</time></trkpt><trkpt lat="45.039875" lon="8.3128117"><ele>273.0</ele><time>2026-04-04T07:30:14.102Z</time></trkpt><trkpt lat="45.0399467" lon="8.3127917"><ele>273.0</ele><time>2026-04-04T07:30:16.104Z</time></trkpt><trkpt lat="45.0400417" lon="8.312775"><ele>273.0</ele><time>2026-04-04T07:30:18.107Z</time></trkpt><trkpt lat="45.0401083" lon="8.3127483"><ele>273.0</ele><time>2026-04-04T07:30:20.098Z</time></trkpt><trkpt lat="45.0401883" lon="8.3126933"><ele>273.0</ele><time>2026-04-04T07:30:22.102Z</time></trkpt><trkpt lat="45.04026" lon="8.31258"><ele>273.0</ele><time>2026-04-04T07:30:24.099Z</time></trkpt><trkpt lat="45.0403283" lon="8.312445"><ele>272.4</ele><time>2026-04-04T07:30:26.106Z</time></trkpt><trkpt lat="45.040385" lon="8.3122983"><ele>271.8</ele><time>2026-04-04T07:30:28.099Z</time></trkpt><trkpt lat="45.0404267" lon="8.31216"><ele>271.2</ele><time>2026-04-04T07:30:30.105Z</time></trkpt><trkpt lat="45.04051" lon="8.3121267"><ele>270.6</ele><time>2026-04-04T07:30:33.102Z</time></trkpt><trkpt lat="45.0405267" lon="8.3122333"><ele>270.0</ele><time>2026-04-04T07:30:35.1Z</time></trkpt><trkpt lat="45.0405817" lon="8.3123917"><ele>270.0</ele><time>2026-04-04T07:30:37.101Z</time></trkpt><trkpt lat="45.0406233" lon="8.3124767"><ele>270.0</ele><time>2026-04-04T07:30:38.102Z</time></trkpt><trkpt lat="45.0406783" lon="8.3125483"><ele>270.0</ele><time>2026-04-04T07:30:39.102Z</time></trkpt><trkpt lat="45.0407633" lon="8.3125767"><ele>270.0</ele><time>2026-04-04T07:30:40.099Z</time></trkpt><trkpt lat="45.0408467" lon="8.312565"><ele>270.0</ele><time>2026-04-04T07:30:41.097Z</time></trkpt><trkpt lat="45.0409267" lon="8.3125083"><ele>270.0</ele><time>2026-04-04T07:30:42.106Z</time></trkpt><trkpt lat="45.0410067" lon="8.3124133"><ele>269.6</ele><time>2026-04-04T07:30:43.103Z</time></trkpt><trkpt lat="45.0410783" lon="8.312305"><ele>269.2</ele><time>2026-04-04T07:30:44.099Z</time></trkpt><trkpt lat="45.04116" lon="8.3122017"><ele>268.8</ele><time>2026-04-04T07:30:45.099Z</time></trkpt><trkpt lat="45.0412433" lon="8.3121"><ele>268.4</ele><time>2026-04-04T07:30:46.101Z</time></trkpt><trkpt lat="45.0413417" lon="8.312005"><ele>268.0</ele><time>2026-04-04T07:30:47.105Z</time></trkpt><trkpt lat="45.041445" lon="8.311925"><ele>268.0</ele><time>2026-04-04T07:30:48.1Z</time></trkpt><trkpt lat="45.0415533" lon="8.311875"><ele>268.0</ele><time>2026-04-04T07:30:49.1Z</time></trkpt><trkpt lat="45.0416683" lon="8.31187"><ele>268.0</ele><time>2026-04-04T07:30:50.101Z</time></trkpt><trkpt lat="45.0417833" lon="8.3119083"><ele>268.0</ele><time>2026-04-04T07:30:51.101Z</time></trkpt><trkpt lat="45.0418883" lon="8.3119883"><ele>266.5</ele><time>2026-04-04T07:30:52.103Z</time></trkpt><trkpt lat="45.0419833" lon="8.3120917"><ele>265.0</ele><time>2026-04-04T07:30:53.105Z</time></trkpt><trkpt lat="45.0420767" lon="8.31222"><ele>263.5</ele><time>2026-04-04T07:30:54.106Z</time></trkpt><trkpt lat="45.0421567" lon="8.3123817"><ele>262.0</ele><time>2026-04-04T07:30:55.101Z</time></trkpt><trkpt lat="45.0422283" lon="8.3125633"><ele>259.3333333333333</ele><time>2026-04-04T07:30:56.099Z</time></trkpt><trkpt lat="45.0422967" lon="8.3127517"><ele>256.6666666666667</ele><time>2026-04-04T07:30:57.101Z</time></trkpt><trkpt lat="45.0423667" lon="8.3129483"><ele>254.0</ele><time>2026-04-04T07:30:58.108Z</time></trkpt><trkpt lat="45.0424367" lon="8.31315"><ele>251.0</ele><time>2026-04-04T07:30:59.103Z</time></trkpt><trkpt lat="45.0425083" lon="8.3133467"><ele>248.0</ele><time>2026-04-04T07:31:00.099Z</time></trkpt><trkpt lat="45.0425767" lon="8.3135383"><ele>245.0</ele><time>2026-04-04T07:31:01.1Z</time></trkpt><trkpt lat="45.0426383" lon="8.3137233"><ele>245.0</ele><time>2026-04-04T07:31:02.097Z</time></trkpt><trkpt lat="45.0426967" lon="8.313885"><ele>245.0</ele><time>2026-04-04T07:31:03.097Z</time></trkpt><trkpt lat="45.0427567" lon="8.314025"><ele>245.0</ele><time>2026-04-04T07:31:04.102Z</time></trkpt><trkpt lat="45.04283" lon="8.3141317"><ele>245.0</ele><time>2026-04-04T07:31:05.103Z</time></trkpt><trkpt lat="45.0429133" lon="8.31421"><ele>245.0</ele><time>2026-04-04T07:31:06.102Z</time></trkpt><trkpt lat="45.0430017" lon="8.31424"><ele>243.5</ele><time>2026-04-04T07:31:07.101Z</time></trkpt><trkpt lat="45.0431017" lon="8.3142083"><ele>242.0</ele><time>2026-04-04T07:31:08.104Z</time></trkpt><trkpt lat="45.04321" lon="8.3141483"><ele>240.5</ele><time>2026-04-04T07:31:09.106Z</time></trkpt><trkpt lat="45.0433233" lon="8.3140717"><ele>239.0</ele><time>2026-04-04T07:31:10.103Z</time></trkpt><trkpt lat="45.04344" lon="8.3139933"><ele>239.0</ele><time>2026-04-04T07:31:11.105Z</time></trkpt><trkpt lat="45.0435617" lon="8.3139183"><ele>239.0</ele><time>2026-04-04T07:31:12.104Z</time></trkpt><trkpt lat="45.043685" lon="8.313845"><ele>239.0</ele><time>2026-04-04T07:31:13.104Z</time></trkpt><trkpt lat="45.0437983" lon="8.313775"><ele>239.0</ele><time>2026-04-04T07:31:14.105Z</time></trkpt><trkpt lat="45.0438883" lon="8.31372"><ele>241.2</ele><time>2026-04-04T07:31:15.101Z</time></trkpt><trkpt lat="45.04396" lon="8.31367"><ele>243.39999999999998</ele><time>2026-04-04T07:31:16.103Z</time></trkpt><trkpt lat="45.04402" lon="8.3136117"><ele>245.6</ele><time>2026-04-04T07:31:17.101Z</time></trkpt><trkpt lat="45.0440517" lon="8.31347"><ele>247.8</ele><time>2026-04-04T07:31:19.105Z</time></trkpt><trkpt lat="45.04403" lon="8.3132833"><ele>250.0</ele><time>2026-04-04T07:31:21.102Z</time></trkpt><trkpt lat="45.044025" lon="8.313175"><ele>249.5</ele><time>2026-04-04T07:31:22.104Z</time></trkpt><trkpt lat="45.0440317" lon="8.3130483"><ele>249.0</ele><time>2026-04-04T07:31:23.107Z</time></trkpt><trkpt lat="45.0441017" lon="8.312885"><ele>248.5</ele><time>2026-04-04T07:31:24.103Z</time></trkpt><trkpt lat="45.0441833" lon="8.312705"><ele>248.0</ele><time>2026-04-04T07:31:25.103Z</time></trkpt><trkpt lat="45.04427" lon="8.3125433"><ele>248.0</ele><time>2026-04-04T07:31:26.098Z</time></trkpt><trkpt lat="45.0443417" lon="8.31236"><ele>248.0</ele><time>2026-04-04T07:31:27.099Z</time></trkpt><trkpt lat="45.0444" lon="8.3121733"><ele>248.0</ele><time>2026-04-04T07:31:28.101Z</time></trkpt><trkpt lat="45.0444517" lon="8.3119733"><ele>248.0</ele><time>2026-04-04T07:31:29.098Z</time></trkpt><trkpt lat="45.0445067" lon="8.31176"><ele>251.0</ele><time>2026-04-04T07:31:30.099Z</time></trkpt><trkpt lat="45.0445617" lon="8.3115417"><ele>254.0</ele><time>2026-04-04T07:31:31.099Z</time></trkpt><trkpt lat="45.0446167" lon="8.3113233"><ele>257.0</ele><time>2026-04-04T07:31:32.101Z</time></trkpt><trkpt lat="45.0446733" lon="8.311105"><ele>260.33333333333337</ele><time>2026-04-04T07:31:33.099Z</time></trkpt><trkpt lat="45.0447333" lon="8.3108933"><ele>263.6666666666667</ele><time>2026-04-04T07:31:34.099Z</time></trkpt><trkpt lat="45.0447917" lon="8.3106867"><ele>267.0</ele><time>2026-04-04T07:31:35.101Z</time></trkpt><trkpt lat="45.044855" lon="8.3104867"><ele>266.0</ele><time>2026-04-04T07:31:36.1Z</time></trkpt><trkpt lat="45.0449167" lon="8.310285"><ele>265.0</ele><time>2026-04-04T07:31:37.102Z</time></trkpt><trkpt lat="45.04498" lon="8.3101033"><ele>264.0</ele><time>2026-04-04T07:31:38.106Z</time></trkpt><trkpt lat="45.0450383" lon="8.3099283"><ele>263.0</ele><time>2026-04-04T07:31:39.097Z</time></trkpt><trkpt lat="45.045095" lon="8.309755"><ele>264.75</ele><time>2026-04-04T07:31:40.102Z</time></trkpt><trkpt lat="45.0451533" lon="8.3095817"><ele>266.5</ele><time>2026-04-04T07:31:41.102Z</time></trkpt><trkpt lat="45.0452133" lon="8.3094133"><ele>268.25</ele><time>2026-04-04T07:31:42.101Z</time></trkpt><trkpt lat="45.04527" lon="8.3092383"><ele>270.0</ele><time>2026-04-04T07:31:43.101Z</time></trkpt><trkpt lat="45.045325" lon="8.3090633"><ele>271.5</ele><time>2026-04-04T07:31:44.099Z</time></trkpt><trkpt lat="45.0453783" lon="8.30889"><ele>273.0</ele><time>2026-04-04T07:31:45.099Z</time></trkpt><trkpt lat="45.0454167" lon="8.3087133"><ele>274.5</ele><time>2026-04-04T07:31:46.101Z</time></trkpt><trkpt lat="45.0454317" lon="8.3085467"><ele>276.0</ele><time>2026-04-04T07:31:47.104Z</time></trkpt><trkpt lat="45.0454317" lon="8.3083867"><ele>276.0</ele><time>2026-04-04T07:31:48.1Z</time></trkpt><trkpt lat="45.0454133" lon="8.3082583"><ele>276.0</ele><time>2026-04-04T07:31:49.104Z</time></trkpt><trkpt lat="45.0453917" lon="8.3081467"><ele>276.0</ele><time>2026-04-04T07:31:50.102Z</time></trkpt><trkpt lat="45.0453733" lon="8.3080467"><ele>276.0</ele><time>2026-04-04T07:31:51.097Z</time></trkpt><trkpt lat="45.045365" lon="8.3079417"><ele>276.0</ele><time>2026-04-04T07:31:52.099Z</time></trkpt><trkpt lat="45.0453683" lon="8.3078267"><ele>276.0</ele><time>2026-04-04T07:31:53.101Z</time></trkpt><trkpt lat="45.045385" lon="8.307685"><ele>277.5</ele><time>2026-04-04T07:31:54.097Z</time></trkpt><trkpt lat="45.0454167" lon="8.307505"><ele>279.0</ele><time>2026-04-04T07:31:55.099Z</time></trkpt><trkpt lat="45.0454483" lon="8.30732"><ele>280.5</ele><time>2026-04-04T07:31:56.098Z</time></trkpt><trkpt lat="45.0454817" lon="8.30713"><ele>282.0</ele><time>2026-04-04T07:31:57.098Z</time></trkpt><trkpt lat="45.045515" lon="8.306935"><ele>282.25</ele><time>2026-04-04T07:31:58.106Z</time></trkpt><trkpt lat="45.0455467" lon="8.3067417"><ele>282.5</ele><time>2026-04-04T07:31:59.101Z</time></trkpt><trkpt lat="45.0455783" lon="8.306545"><ele>282.75</ele><time>2026-04-04T07:32:00.1Z</time></trkpt><trkpt lat="45.045615" lon="8.3063533"><ele>283.0</ele><time>2026-04-04T07:32:01.101Z</time></trkpt><trkpt lat="45.0456567" lon="8.3061667"><ele>283.0</ele><time>2026-04-04T07:32:02.1Z</time></trkpt><trkpt lat="45.0456967" lon="8.3059917"><ele>283.0</ele><time>2026-04-04T07:32:03.104Z</time></trkpt><trkpt lat="45.04575" lon="8.305815"><ele>283.0</ele><time>2026-04-04T07:32:04.099Z</time></trkpt><trkpt lat="45.0458083" lon="8.3056417"><ele>283.0</ele><time>2026-04-04T07:32:05.102Z</time></trkpt><trkpt lat="45.0458767" lon="8.3054617"><ele>279.66666666666663</ele><time>2026-04-04T07:32:06.102Z</time></trkpt><trkpt lat="45.0459517" lon="8.3052783"><ele>276.3333333333333</ele><time>2026-04-04T07:32:07.105Z</time></trkpt><trkpt lat="45.0460317" lon="8.30509"><ele>273.0</ele><time>2026-04-04T07:32:08.098Z</time></trkpt><trkpt lat="45.046115" lon="8.3048967"><ele>271.0</ele><time>2026-04-04T07:32:09.098Z</time></trkpt><trkpt lat="45.0461967" lon="8.3046967"><ele>269.0</ele><time>2026-04-04T07:32:10.099Z</time></trkpt><trkpt lat="45.0462817" lon="8.304495"><ele>267.0</ele><time>2026-04-04T07:32:11.1Z</time></trkpt><trkpt lat="45.0463717" lon="8.3042967"><ele>267.0</ele><time>2026-04-04T07:32:12.098Z</time></trkpt><trkpt lat="45.0464633" lon="8.3040967"><ele>267.0</ele><time>2026-04-04T07:32:13.098Z</time></trkpt><trkpt lat="45.046555" lon="8.3039"><ele>267.0</ele><time>2026-04-04T07:32:14.1Z</time></trkpt><trkpt lat="45.0466433" lon="8.3036933"><ele>265.3333333333333</ele><time>2026-04-04T07:32:15.102Z</time></trkpt><trkpt lat="45.046725" lon="8.303485"><ele>263.66666666666663</ele><time>2026-04-04T07:32:16.101Z</time></trkpt><trkpt lat="45.046805" lon="8.3032733"><ele>262.0</ele><time>2026-04-04T07:32:17.101Z</time></trkpt><trkpt lat="45.0468733" lon="8.303055"><ele>260.66666666666663</ele><time>2026-04-04T07:32:18.102Z</time></trkpt><trkpt lat="45.0469333" lon="8.3028317"><ele>259.3333333333333</ele><time>2026-04-04T07:32:19.104Z</time></trkpt><trkpt lat="45.0469833" lon="8.302605"><ele>258.0</ele><time>2026-04-04T07:32:20.101Z</time></trkpt><trkpt lat="45.0470267" lon="8.3023767"><ele>258.3333333333333</ele><time>2026-04-04T07:32:21.103Z</time></trkpt><trkpt lat="45.0470717" lon="8.3021533"><ele>258.66666666666663</ele><time>2026-04-04T07:32:22.101Z</time></trkpt><trkpt lat="45.0471133" lon="8.3019283"><ele>259.0</ele><time>2026-04-04T07:32:23.105Z</time></trkpt><trkpt lat="45.047155" lon="8.30171"><ele>259.0</ele><time>2026-04-04T07:32:24.101Z</time></trkpt><trkpt lat="45.0471883" lon="8.3014917"><ele>259.0</ele><time>2026-04-04T07:32:25.113Z</time></trkpt><trkpt lat="45.0472267" lon="8.301285"><ele>259.0</ele><time>2026-04-04T07:32:26.106Z</time></trkpt><trkpt lat="45.047265" lon="8.3010967"><ele>259.0</ele><time>2026-04-04T07:32:27.101Z</time></trkpt><trkpt lat="45.0473033" lon="8.30092"><ele>258.75</ele><time>2026-04-04T07:32:28.106Z</time></trkpt><trkpt lat="45.0473433" lon="8.3007333"><ele>258.5</ele><time>2026-04-04T07:32:29.106Z</time></trkpt><trkpt lat="45.0473567" lon="8.300535"><ele>258.25</ele><time>2026-04-04T07:32:30.101Z</time></trkpt><trkpt lat="45.0473433" lon="8.3003267"><ele>258.0</ele><time>2026-04-04T07:32:31.107Z</time></trkpt><trkpt lat="45.0473017" lon="8.30012"><ele>259.0</ele><time>2026-04-04T07:32:32.097Z</time></trkpt><trkpt lat="45.047235" lon="8.2999233"><ele>260.0</ele><time>2026-04-04T07:32:33.098Z</time></trkpt><trkpt lat="45.0471483" lon="8.2997317"><ele>261.0</ele><time>2026-04-04T07:32:34.099Z</time></trkpt><trkpt lat="45.0470417" lon="8.2995317"><ele>263.0</ele><time>2026-04-04T07:32:35.108Z</time></trkpt><trkpt lat="45.04693" lon="8.29932"><ele>265.0</ele><time>2026-04-04T07:32:36.102Z</time></trkpt><trkpt lat="45.04681" lon="8.2990917"><ele>267.0</ele><time>2026-04-04T07:32:37.1Z</time></trkpt><trkpt lat="45.04669" lon="8.29886"><ele>272.3333333333333</ele><time>2026-04-04T07:32:38.097Z</time></trkpt><trkpt lat="45.046575" lon="8.29862"><ele>277.66666666666663</ele><time>2026-04-04T07:32:39.098Z</time></trkpt><trkpt lat="45.0464733" lon="8.2983617"><ele>283.0</ele><time>2026-04-04T07:32:40.101Z</time></trkpt><trkpt lat="45.0463867" lon="8.29809"><ele>282.66666666666663</ele><time>2026-04-04T07:32:41.098Z</time></trkpt><trkpt lat="45.046315" lon="8.2978117"><ele>282.3333333333333</ele><time>2026-04-04T07:32:42.1Z</time></trkpt><trkpt lat="45.0462483" lon="8.2975333"><ele>282.0</ele><time>2026-04-04T07:32:43.104Z</time></trkpt><trkpt lat="45.04618" lon="8.29726"><ele>280.3333333333333</ele><time>2026-04-04T07:32:44.11Z</time></trkpt><trkpt lat="45.0461167" lon="8.2969883"><ele>278.66666666666663</ele><time>2026-04-04T07:32:45.098Z</time></trkpt><trkpt lat="45.0460517" lon="8.2967233"><ele>277.0</ele><time>2026-04-04T07:32:46.098Z</time></trkpt><trkpt lat="45.04599" lon="8.29646"><ele>275.3333333333333</ele><time>2026-04-04T07:32:47.099Z</time></trkpt><trkpt lat="45.0459283" lon="8.2962"><ele>273.6666666666667</ele><time>2026-04-04T07:32:48.1Z</time></trkpt><trkpt lat="45.0458733" lon="8.2959417"><ele>272.0</ele><time>2026-04-04T07:32:49.103Z</time></trkpt><trkpt lat="45.0458167" lon="8.2956883"><ele>268.6666666666667</ele><time>2026-04-04T07:32:50.099Z</time></trkpt><trkpt lat="45.0457617" lon="8.2954283"><ele>265.3333333333333</ele><time>2026-04-04T07:32:51.107Z</time></trkpt><trkpt lat="45.045705" lon="8.295165"><ele>262.0</ele><time>2026-04-04T07:32:52.099Z</time></trkpt><trkpt lat="45.0456483" lon="8.2949033"><ele>262.66666666666663</ele><time>2026-04-04T07:32:53.101Z</time></trkpt><trkpt lat="45.0455817" lon="8.2946267"><ele>263.3333333333333</ele><time>2026-04-04T07:32:54.098Z</time></trkpt><trkpt lat="45.0455217" lon="8.2943683"><ele>264.0</ele><time>2026-04-04T07:32:55.104Z</time></trkpt><trkpt lat="45.04546" lon="8.2941183"><ele>264.3333333333333</ele><time>2026-04-04T07:32:56.1Z</time></trkpt><trkpt lat="45.0454" lon="8.293875"><ele>264.66666666666663</ele><time>2026-04-04T07:32:57.103Z</time></trkpt><trkpt lat="45.045335" lon="8.2936433"><ele>265.0</ele><time>2026-04-04T07:32:58.104Z</time></trkpt><trkpt lat="45.0452667" lon="8.29341"><ele>265.0</ele><time>2026-04-04T07:32:59.109Z</time></trkpt><trkpt lat="45.0451933" lon="8.2931767"><ele>265.0</ele><time>2026-04-04T07:33:00.101Z</time></trkpt><trkpt lat="45.0451217" lon="8.292945"><ele>265.0</ele><time>2026-04-04T07:33:01.101Z</time></trkpt><trkpt lat="45.04505" lon="8.292715"><ele>264.66666666666663</ele><time>2026-04-04T07:33:02.1Z</time></trkpt><trkpt lat="45.0449833" lon="8.2924883"><ele>264.3333333333333</ele><time>2026-04-04T07:33:03.1Z</time></trkpt><trkpt lat="45.044915" lon="8.2922617"><ele>264.0</ele><time>2026-04-04T07:33:04.104Z</time></trkpt><trkpt lat="45.044845" lon="8.2920417"><ele>266.6666666666667</ele><time>2026-04-04T07:33:05.103Z</time></trkpt><trkpt lat="45.0447783" lon="8.291825"><ele>269.33333333333337</ele><time>2026-04-04T07:33:06.099Z</time></trkpt><trkpt lat="45.0447217" lon="8.291615"><ele>272.0</ele><time>2026-04-04T07:33:07.111Z</time></trkpt><trkpt lat="45.0446717" lon="8.2914083"><ele>271.25</ele><time>2026-04-04T07:33:08.099Z</time></trkpt><trkpt lat="45.0446283" lon="8.2912017"><ele>270.5</ele><time>2026-04-04T07:33:09.101Z</time></trkpt><trkpt lat="45.044595" lon="8.2909967"><ele>269.75</ele><time>2026-04-04T07:33:10.101Z</time></trkpt><trkpt lat="45.0445767" lon="8.2907933"><ele>269.0</ele><time>2026-04-04T07:33:11.107Z</time></trkpt><trkpt lat="45.0445783" lon="8.290575"><ele>269.0</ele><time>2026-04-04T07:33:12.104Z</time></trkpt><trkpt lat="45.0445967" lon="8.2903417"><ele>269.0</ele><time>2026-04-04T07:33:13.101Z</time></trkpt><trkpt lat="45.04463" lon="8.290105"><ele>269.0</ele><time>2026-04-04T07:33:14.101Z</time></trkpt><trkpt lat="45.0446717" lon="8.2898617"><ele>268.0</ele><time>2026-04-04T07:33:15.103Z</time></trkpt><trkpt lat="45.0447183" lon="8.2896083"><ele>267.0</ele><time>2026-04-04T07:33:16.107Z</time></trkpt><trkpt lat="45.0447667" lon="8.2893567"><ele>266.0</ele><time>2026-04-04T07:33:17.108Z</time></trkpt><trkpt lat="45.0448133" lon="8.2891083"><ele>269.33333333333337</ele><time>2026-04-04T07:33:18.101Z</time></trkpt><trkpt lat="45.0448567" lon="8.288855"><ele>272.6666666666667</ele><time>2026-04-04T07:33:19.098Z</time></trkpt><trkpt lat="45.0448933" lon="8.2886017"><ele>276.0</ele><time>2026-04-04T07:33:20.107Z</time></trkpt><trkpt lat="45.0449183" lon="8.2883583"><ele>276.0</ele><time>2026-04-04T07:33:21.104Z</time></trkpt><trkpt lat="45.0449317" lon="8.288135"><ele>276.0</ele><time>2026-04-04T07:33:22.101Z</time></trkpt><trkpt lat="45.0449267" lon="8.2879183"><ele>276.0</ele><time>2026-04-04T07:33:23.106Z</time></trkpt><trkpt lat="45.0448967" lon="8.2877067"><ele>278.3333333333333</ele><time>2026-04-04T07:33:24.098Z</time></trkpt><trkpt lat="45.0448417" lon="8.2874967"><ele>280.66666666666663</ele><time>2026-04-04T07:33:25.098Z</time></trkpt><trkpt lat="45.0447717" lon="8.2872933"><ele>283.0</ele><time>2026-04-04T07:33:26.102Z</time></trkpt><trkpt lat="45.0447017" lon="8.287085"><ele>283.0</ele><time>2026-04-04T07:33:27.104Z</time></trkpt><trkpt lat="45.0446333" lon="8.2868833"><ele>283.0</ele><time>2026-04-04T07:33:28.103Z</time></trkpt><trkpt lat="45.0445733" lon="8.2866783"><ele>283.0</ele><time>2026-04-04T07:33:29.102Z</time></trkpt><trkpt lat="45.0445283" lon="8.28646"><ele>281.66666666666663</ele><time>2026-04-04T07:33:30.102Z</time></trkpt><trkpt lat="45.044505" lon="8.28623"><ele>280.3333333333333</ele><time>2026-04-04T07:33:31.104Z</time></trkpt><trkpt lat="45.0444967" lon="8.285995"><ele>279.0</ele><time>2026-04-04T07:33:32.1Z</time></trkpt><trkpt lat="45.044495" lon="8.2857533"><ele>278.6666666666667</ele><time>2026-04-04T07:33:33.102Z</time></trkpt><trkpt lat="45.0444967" lon="8.2855067"><ele>278.33333333333337</ele><time>2026-04-04T07:33:34.1Z</time></trkpt><trkpt lat="45.044495" lon="8.2852533"><ele>278.0</ele><time>2026-04-04T07:33:35.101Z</time></trkpt><trkpt lat="45.0444967" lon="8.2850017"><ele>277.6666666666667</ele><time>2026-04-04T07:33:36.1Z</time></trkpt><trkpt lat="45.044495" lon="8.2847467"><ele>277.3333333333333</ele><time>2026-04-04T07:33:37.098Z</time></trkpt><trkpt lat="45.044495" lon="8.2844917"><ele>277.0</ele><time>2026-04-04T07:33:38.102Z</time></trkpt><trkpt lat="45.044495" lon="8.28423"><ele>277.0</ele><time>2026-04-04T07:33:39.1Z</time></trkpt><trkpt lat="45.044495" lon="8.2839683"><ele>277.0</ele><time>2026-04-04T07:33:40.102Z</time></trkpt><trkpt lat="45.044495" lon="8.2837117"><ele>277.0</ele><time>2026-04-04T07:33:41.106Z</time></trkpt><trkpt lat="45.0445033" lon="8.2834633"><ele>276.0</ele><time>2026-04-04T07:33:42.109Z</time></trkpt><trkpt lat="45.0445133" lon="8.2832133"><ele>275.0</ele><time>2026-04-04T07:33:43.101Z</time></trkpt><trkpt lat="45.0445267" lon="8.28297"><ele>274.0</ele><time>2026-04-04T07:33:44.102Z</time></trkpt><trkpt lat="45.0445417" lon="8.282725"><ele>274.0</ele><time>2026-04-04T07:33:45.105Z</time></trkpt><trkpt lat="45.0445517" lon="8.2824783"><ele>274.0</ele><time>2026-04-04T07:33:46.102Z</time></trkpt><trkpt lat="45.04454" lon="8.2822317"><ele>274.0</ele><time>2026-04-04T07:33:47.101Z</time></trkpt><trkpt lat="45.0445183" lon="8.28199"><ele>276.0</ele><time>2026-04-04T07:33:48.107Z</time></trkpt><trkpt lat="45.04449" lon="8.2817517"><ele>278.0</ele><time>2026-04-04T07:33:49.102Z</time></trkpt><trkpt lat="45.04446" lon="8.2815217"><ele>280.0</ele><time>2026-04-04T07:33:50.103Z</time></trkpt><trkpt lat="45.04445" lon="8.2812967"><ele>280.5</ele><time>2026-04-04T07:33:51.099Z</time></trkpt><trkpt lat="45.0444617" lon="8.2810967"><ele>281.0</ele><time>2026-04-04T07:33:52.097Z</time></trkpt><trkpt lat="45.0445" lon="8.2809033"><ele>281.5</ele><time>2026-04-04T07:33:53.104Z</time></trkpt><trkpt lat="45.0445783" lon="8.2807233"><ele>282.0</ele><time>2026-04-04T07:33:54.102Z</time></trkpt><trkpt lat="45.0446817" lon="8.2805483"><ele>282.0</ele><time>2026-04-04T07:33:55.103Z</time></trkpt><trkpt lat="45.044785" lon="8.2803667"><ele>282.0</ele><time>2026-04-04T07:33:56.099Z</time></trkpt><trkpt lat="45.0448983" lon="8.280195"><ele>282.0</ele><time>2026-04-04T07:33:57.105Z</time></trkpt><trkpt lat="45.0450083" lon="8.2800283"><ele>282.0</ele><time>2026-04-04T07:33:58.102Z</time></trkpt><trkpt lat="45.045125" lon="8.2798733"><ele>282.0</ele><time>2026-04-04T07:33:59.102Z</time></trkpt><trkpt lat="45.04523" lon="8.2797167"><ele>282.0</ele><time>2026-04-04T07:34:00.101Z</time></trkpt><trkpt lat="45.045315" lon="8.2795633"><ele>280.0</ele><time>2026-04-04T07:34:01.103Z</time></trkpt><trkpt lat="45.045365" lon="8.27939"><ele>278.0</ele><time>2026-04-04T07:34:02.102Z</time></trkpt><trkpt lat="45.04537" lon="8.279205"><ele>276.0</ele><time>2026-04-04T07:34:03.102Z</time></trkpt><trkpt lat="45.0453217" lon="8.2790317"><ele>274.0</ele><time>2026-04-04T07:34:04.098Z</time></trkpt><trkpt lat="45.0452567" lon="8.2788483"><ele>274.0</ele><time>2026-04-04T07:34:05.098Z</time></trkpt><trkpt lat="45.0451883" lon="8.2786517"><ele>274.0</ele><time>2026-04-04T07:34:06.099Z</time></trkpt><trkpt lat="45.0451167" lon="8.2784433"><ele>274.0</ele><time>2026-04-04T07:34:07.097Z</time></trkpt><trkpt lat="45.04504" lon="8.278215"><ele>273.0</ele><time>2026-04-04T07:34:08.103Z</time></trkpt><trkpt lat="45.0449633" lon="8.2779883"><ele>272.0</ele><time>2026-04-04T07:34:09.101Z</time></trkpt><trkpt lat="45.0448867" lon="8.2777633"><ele>271.0</ele><time>2026-04-04T07:34:10.097Z</time></trkpt><trkpt lat="45.0448117" lon="8.2775483"><ele>272.0</ele><time>2026-04-04T07:34:11.095Z</time></trkpt><trkpt lat="45.0447383" lon="8.2773417"><ele>273.0</ele><time>2026-04-04T07:34:12.101Z</time></trkpt><trkpt lat="45.0446567" lon="8.27714"><ele>274.0</ele><time>2026-04-04T07:34:13.1Z</time></trkpt><trkpt lat="45.0445717" lon="8.276935"><ele>274.0</ele><time>2026-04-04T07:34:14.1Z</time></trkpt><trkpt lat="45.0444833" lon="8.2767283"><ele>274.0</ele><time>2026-04-04T07:34:15.102Z</time></trkpt><trkpt lat="45.044395" lon="8.2765217"><ele>274.0</ele><time>2026-04-04T07:34:16.099Z</time></trkpt><trkpt lat="45.0443083" lon="8.2763167"><ele>274.0</ele><time>2026-04-04T07:34:17.099Z</time></trkpt><trkpt lat="45.0442233" lon="8.2761117"><ele>274.0</ele><time>2026-04-04T07:34:18.099Z</time></trkpt><trkpt lat="45.044145" lon="8.2759117"><ele>274.0</ele><time>2026-04-04T07:34:19.102Z</time></trkpt><trkpt lat="45.0440817" lon="8.275715"><ele>277.25</ele><time>2026-04-04T07:34:20.1Z</time></trkpt><trkpt lat="45.0440383" lon="8.2755283"><ele>280.5</ele><time>2026-04-04T07:34:21.107Z</time></trkpt><trkpt lat="45.0440183" lon="8.2753417"><ele>283.75</ele><time>2026-04-04T07:34:22.099Z</time></trkpt><trkpt lat="45.0440267" lon="8.2751483"><ele>287.0</ele><time>2026-04-04T07:34:23.1Z</time></trkpt><trkpt lat="45.0440617" lon="8.274955"><ele>288.25</ele><time>2026-04-04T07:34:24.103Z</time></trkpt><trkpt lat="45.04411" lon="8.274765"><ele>289.5</ele><time>2026-04-04T07:34:25.1Z</time></trkpt><trkpt lat="45.0442067" lon="8.2745933"><ele>290.75</ele><time>2026-04-04T07:34:26.102Z</time></trkpt><trkpt lat="45.044265" lon="8.2744"><ele>292.0</ele><time>2026-04-04T07:34:27.097Z</time></trkpt><trkpt lat="45.0443133" lon="8.2741967"><ele>288.75</ele><time>2026-04-04T07:34:28.105Z</time></trkpt><trkpt lat="45.044365" lon="8.274"><ele>285.5</ele><time>2026-04-04T07:34:29.099Z</time></trkpt><trkpt lat="45.0444033" lon="8.2738017"><ele>282.25</ele><time>2026-04-04T07:34:30.098Z</time></trkpt><trkpt lat="45.0444383" lon="8.27361"><ele>279.0</ele><time>2026-04-04T07:34:31.104Z</time></trkpt><trkpt lat="45.0444633" lon="8.27342"><ele>277.25</ele><time>2026-04-04T07:34:32.101Z</time></trkpt><trkpt lat="45.0444733" lon="8.27322"><ele>275.5</ele><time>2026-04-04T07:34:33.099Z</time></trkpt><trkpt lat="45.04447" lon="8.2730217"><ele>273.75</ele><time>2026-04-04T07:34:34.097Z</time></trkpt><trkpt lat="45.0444483" lon="8.2728183"><ele>272.0</ele><time>2026-04-04T07:34:35.099Z</time></trkpt><trkpt lat="45.0444133" lon="8.2726133"><ele>269.0</ele><time>2026-04-04T07:34:36.102Z</time></trkpt><trkpt lat="45.0443717" lon="8.272405"><ele>266.0</ele><time>2026-04-04T07:34:37.105Z</time></trkpt><trkpt lat="45.04433" lon="8.2721983"><ele>263.0</ele><time>2026-04-04T07:34:38.103Z</time></trkpt><trkpt lat="45.0442917" lon="8.2719967"><ele>262.5</ele><time>2026-04-04T07:34:39.104Z</time></trkpt><trkpt lat="45.0442517" lon="8.2717967"><ele>262.0</ele><time>2026-04-04T07:34:40.1Z</time></trkpt><trkpt lat="45.0442233" lon="8.2715933"><ele>261.5</ele><time>2026-04-04T07:34:41.103Z</time></trkpt><trkpt lat="45.0442167" lon="8.271405"><ele>261.0</ele><time>2026-04-04T07:34:42.104Z</time></trkpt><trkpt lat="45.0442317" lon="8.2712183"><ele>259.75</ele><time>2026-04-04T07:34:43.104Z</time></trkpt><trkpt lat="45.044265" lon="8.27104"><ele>258.5</ele><time>2026-04-04T07:34:44.099Z</time></trkpt><trkpt lat="45.04431" lon="8.2708667"><ele>257.25</ele><time>2026-04-04T07:34:45.104Z</time></trkpt><trkpt lat="45.044365" lon="8.2707067"><ele>256.0</ele><time>2026-04-04T07:34:46.103Z</time></trkpt><trkpt lat="45.0444267" lon="8.270555"><ele>255.0</ele><time>2026-04-04T07:34:47.104Z</time></trkpt><trkpt lat="45.0444883" lon="8.2704083"><ele>254.0</ele><time>2026-04-04T07:34:48.104Z</time></trkpt><trkpt lat="45.0445617" lon="8.2702717"><ele>253.0</ele><time>2026-04-04T07:34:49.098Z</time></trkpt><trkpt lat="45.0446283" lon="8.2701367"><ele>252.0</ele><time>2026-04-04T07:34:50.098Z</time></trkpt><trkpt lat="45.0446817" lon="8.270015"><ele>252.0</ele><time>2026-04-04T07:34:51.1Z</time></trkpt><trkpt lat="45.04472" lon="8.2699167"><ele>252.0</ele><time>2026-04-04T07:34:52.102Z</time></trkpt><trkpt lat="45.0447517" lon="8.2698367"><ele>252.0</ele><time>2026-04-04T07:34:53.105Z</time></trkpt><trkpt lat="45.0448033" lon="8.2697067"><ele>252.0</ele><time>2026-04-04T07:34:55.1Z</time></trkpt><trkpt lat="45.0448417" lon="8.2696117"><ele>252.0</ele><time>2026-04-04T07:34:57.102Z</time></trkpt><trkpt lat="45.044905" lon="8.26948"><ele>252.0</ele><time>2026-04-04T07:34:59.099Z</time></trkpt><trkpt lat="45.0449517" lon="8.269415"><ele>252.85714285714286</ele><time>2026-04-04T07:35:00.102Z</time></trkpt><trkpt lat="45.0450067" lon="8.269355"><ele>253.71428571428572</ele><time>2026-04-04T07:35:01.099Z</time></trkpt><trkpt lat="45.0450633" lon="8.26929"><ele>254.57142857142856</ele><time>2026-04-04T07:35:02.104Z</time></trkpt><trkpt lat="45.045125" lon="8.2692217"><ele>255.42857142857142</ele><time>2026-04-04T07:35:03.102Z</time></trkpt><trkpt lat="45.0451883" lon="8.269155"><ele>256.2857142857143</ele><time>2026-04-04T07:35:04.1Z</time></trkpt><trkpt lat="45.04525" lon="8.2690917"><ele>257.1428571428571</ele><time>2026-04-04T07:35:05.103Z</time></trkpt><trkpt lat="45.04531" lon="8.2690333"><ele>258.0</ele><time>2026-04-04T07:35:06.101Z</time></trkpt><trkpt lat="45.0453633" lon="8.2689767"><ele>257.2</ele><time>2026-04-04T07:35:07.1Z</time></trkpt><trkpt lat="45.04546" lon="8.2688817"><ele>256.4</ele><time>2026-04-04T07:35:09.106Z</time></trkpt><trkpt lat="45.0455317" lon="8.268795"><ele>255.59999999999997</ele><time>2026-04-04T07:35:11.103Z</time></trkpt><trkpt lat="45.0455483" lon="8.2686983"><ele>254.79999999999998</ele><time>2026-04-04T07:35:13.103Z</time></trkpt><trkpt lat="45.0454883" lon="8.2686217"><ele>254.0</ele><time>2026-04-04T07:35:16.098Z</time></trkpt><trkpt lat="45.0453967" lon="8.2686767"><ele>254.00000000000003</ele><time>2026-04-04T07:35:29.102Z</time></trkpt><trkpt lat="45.04537" lon="8.268795"><ele>254.0</ele><time>2026-04-04T07:39:03.099Z</time></trkpt><trkpt lat="45.0453633" lon="8.2689067"><ele>254.0</ele><time>2026-04-04T07:39:06.102Z</time></trkpt><trkpt lat="45.04548" lon="8.2688667"><ele>254.0</ele><time>2026-04-04T07:39:13.106Z</time></trkpt><trkpt lat="45.0455433" lon="8.2687917"><ele>254.00000000000003</ele><time>2026-04-04T07:39:14.104Z</time></trkpt><trkpt lat="45.0456067" lon="8.26873"><ele>254.0</ele><time>2026-04-04T07:39:15.103Z</time></trkpt><trkpt lat="45.0456683" lon="8.26867"><ele>254.00000000000003</ele><time>2026-04-04T07:39:16.102Z</time></trkpt><trkpt lat="45.0457333" lon="8.2686033"><ele>254.0</ele><time>2026-04-04T07:39:17.102Z</time></trkpt><trkpt lat="45.0458033" lon="8.2685317"><ele>254.0</ele><time>2026-04-04T07:39:18.103Z</time></trkpt><trkpt lat="45.045875" lon="8.2684617"><ele>254.0</ele><time>2026-04-04T07:39:19.106Z</time></trkpt><trkpt lat="45.0459467" lon="8.2683883"><ele>254.00000000000003</ele><time>2026-04-04T07:39:20.101Z</time></trkpt><trkpt lat="45.0460133" lon="8.2683117"><ele>254.0</ele><time>2026-04-04T07:39:21.106Z</time></trkpt><trkpt lat="45.046085" lon="8.2682367"><ele>255.0</ele><time>2026-04-04T07:39:22.103Z</time></trkpt><trkpt lat="45.0461567" lon="8.26817"><ele>255.99999999999997</ele><time>2026-04-04T07:39:23.106Z</time></trkpt><trkpt lat="45.0462267" lon="8.2680833"><ele>257.0</ele><time>2026-04-04T07:39:24.101Z</time></trkpt><trkpt lat="45.046305" lon="8.26801"><ele>258.0</ele><time>2026-04-04T07:39:25.106Z</time></trkpt><trkpt lat="45.0463783" lon="8.2679317"><ele>259.0</ele><time>2026-04-04T07:39:26.099Z</time></trkpt><trkpt lat="45.0464483" lon="8.2678517"><ele>259.0</ele><time>2026-04-04T07:39:27.108Z</time></trkpt><trkpt lat="45.0465283" lon="8.2677867"><ele>259.0</ele><time>2026-04-04T07:39:28.101Z</time></trkpt><trkpt lat="45.0466017" lon="8.2677083"><ele>259.0</ele><time>2026-04-04T07:39:29.105Z</time></trkpt><trkpt lat="45.0466783" lon="8.2676367"><ele>259.0</ele><time>2026-04-04T07:39:30.1Z</time></trkpt><trkpt lat="45.0467567" lon="8.267565"><ele>259.0</ele><time>2026-04-04T07:39:31.102Z</time></trkpt><trkpt lat="45.0468217" lon="8.2674767"><ele>260.0</ele><time>2026-04-04T07:39:32.106Z</time></trkpt><trkpt lat="45.0468967" lon="8.2673983"><ele>261.0</ele><time>2026-04-04T07:39:33.101Z</time></trkpt><trkpt lat="45.0469767" lon="8.26733"><ele>262.0</ele><time>2026-04-04T07:39:34.101Z</time></trkpt><trkpt lat="45.04706" lon="8.26727"><ele>263.0</ele><time>2026-04-04T07:39:35.102Z</time></trkpt><trkpt lat="45.04714" lon="8.26721"><ele>264.0</ele><time>2026-04-04T07:39:36.101Z</time></trkpt><trkpt lat="45.04722" lon="8.267165"><ele>264.0</ele><time>2026-04-04T07:39:37.104Z</time></trkpt><trkpt lat="45.047295" lon="8.2671167"><ele>264.0</ele><time>2026-04-04T07:39:38.1Z</time></trkpt><trkpt lat="45.0473767" lon="8.267095"><ele>264.0</ele><time>2026-04-04T07:39:39.103Z</time></trkpt><trkpt lat="45.04746" lon="8.2670867"><ele>264.0</ele><time>2026-04-04T07:39:40.101Z</time></trkpt><trkpt lat="45.0475383" lon="8.267095"><ele>264.0</ele><time>2026-04-04T07:39:41.101Z</time></trkpt><trkpt lat="45.0476133" lon="8.2671183"><ele>264.0</ele><time>2026-04-04T07:39:42.102Z</time></trkpt><trkpt lat="45.0476917" lon="8.2671467"><ele>266.3333333333333</ele><time>2026-04-04T07:39:43.102Z</time></trkpt><trkpt lat="45.0477717" lon="8.2671683"><ele>268.6666666666667</ele><time>2026-04-04T07:39:44.098Z</time></trkpt><trkpt lat="45.0478533" lon="8.2671917"><ele>271.0</ele><time>2026-04-04T07:39:45.104Z</time></trkpt><trkpt lat="45.0479333" lon="8.2672133"><ele>273.33333333333337</ele><time>2026-04-04T07:39:46.099Z</time></trkpt><trkpt lat="45.0480233" lon="8.2672317"><ele>275.6666666666667</ele><time>2026-04-04T07:39:47.098Z</time></trkpt><trkpt lat="45.04812" lon="8.2672467"><ele>278.0</ele><time>2026-04-04T07:39:48.106Z</time></trkpt><trkpt lat="45.04821" lon="8.26726"><ele>278.0</ele><time>2026-04-04T07:39:49.105Z</time></trkpt><trkpt lat="45.04829" lon="8.26687"><ele>278.0</ele><time>2026-04-04T07:39:50.099Z</time></trkpt><trkpt lat="45.048315" lon="8.2662467"><ele>280.0</ele><time>2026-04-04T07:39:51.1Z</time></trkpt><trkpt lat="45.0483933" lon="8.2662133"><ele>282.0</ele><time>2026-04-04T07:39:52.1Z</time></trkpt><trkpt lat="45.048475" lon="8.266175"><ele>284.0</ele><time>2026-04-04T07:39:53.099Z</time></trkpt><trkpt lat="45.0485733" lon="8.2662033"><ele>286.0</ele><time>2026-04-04T07:39:54.103Z</time></trkpt><trkpt lat="45.0486617" lon="8.2662667"><ele>288.0</ele><time>2026-04-04T07:39:55.102Z</time></trkpt><trkpt lat="45.0488133" lon="8.26659"><ele>294.0</ele><time>2026-04-04T07:39:56.108Z</time></trkpt><trkpt lat="45.04887" lon="8.2668167"><ele>300.0</ele><time>2026-04-04T07:39:57.104Z</time></trkpt><trkpt lat="45.0489883" lon="8.2672833"><ele>294.0</ele><time>2026-04-04T07:39:58.103Z</time></trkpt><trkpt lat="45.04927" lon="8.2675633"><ele>288.0</ele><time>2026-04-04T07:39:59.106Z</time></trkpt><trkpt lat="45.0494883" lon="8.2678683"><ele>288.0</ele><time>2026-04-04T07:40:00.106Z</time></trkpt><trkpt lat="45.0495967" lon="8.267875"><ele>288.0</ele><time>2026-04-04T07:40:01.105Z</time></trkpt><trkpt lat="45.0497017" lon="8.2678733"><ele>288.0</ele><time>2026-04-04T07:40:02.101Z</time></trkpt><trkpt lat="45.0498083" lon="8.2678683"><ele>288.0</ele><time>2026-04-04T07:40:03.104Z</time></trkpt><trkpt lat="45.0499167" lon="8.267865"><ele>288.0</ele><time>2026-04-04T07:40:04.106Z</time></trkpt><trkpt lat="45.0500233" lon="8.267865"><ele>286.4</ele><time>2026-04-04T07:40:05.102Z</time></trkpt><trkpt lat="45.0501267" lon="8.2678767"><ele>284.8</ele><time>2026-04-04T07:40:06.099Z</time></trkpt><trkpt lat="45.0502233" lon="8.2678967"><ele>283.2</ele><time>2026-04-04T07:40:07.099Z</time></trkpt><trkpt lat="45.050315" lon="8.2679383"><ele>281.6</ele><time>2026-04-04T07:40:08.099Z</time></trkpt><trkpt lat="45.0504017" lon="8.267985"><ele>280.0</ele><time>2026-04-04T07:40:09.1Z</time></trkpt><trkpt lat="45.0504817" lon="8.2680467"><ele>278.0</ele><time>2026-04-04T07:40:10.105Z</time></trkpt><trkpt lat="45.05056" lon="8.26812"><ele>276.0</ele><time>2026-04-04T07:40:11.105Z</time></trkpt><trkpt lat="45.0506333" lon="8.2681917"><ele>274.0</ele><time>2026-04-04T07:40:12.1Z</time></trkpt><trkpt lat="45.0507" lon="8.2682517"><ele>272.0</ele><time>2026-04-04T07:40:13.101Z</time></trkpt><trkpt lat="45.0507517" lon="8.2683133"><ele>270.0</ele><time>2026-04-04T07:40:14.098Z</time></trkpt><trkpt lat="45.0508" lon="8.2683717"><ele>268.0</ele><time>2026-04-04T07:40:15.098Z</time></trkpt><trkpt lat="45.05087" lon="8.2684767"><ele>268.0</ele><time>2026-04-04T07:40:17.102Z</time></trkpt><trkpt lat="45.0509567" lon="8.2685733"><ele>268.0</ele><time>2026-04-04T07:40:19.112Z</time></trkpt><trkpt lat="45.0510067" lon="8.2686333"><ele>268.0</ele><time>2026-04-04T07:40:20.103Z</time></trkpt><trkpt lat="45.0510617" lon="8.2687317"><ele>268.0</ele><time>2026-04-04T07:40:21.105Z</time></trkpt><trkpt lat="45.0511217" lon="8.2688433"><ele>268.0</ele><time>2026-04-04T07:40:22.1Z</time></trkpt><trkpt lat="45.051205" lon="8.268995"><ele>264.0</ele><time>2026-04-04T07:40:23.101Z</time></trkpt><trkpt lat="45.051285" lon="8.2691633"><ele>260.0</ele><time>2026-04-04T07:40:24.102Z</time></trkpt><trkpt lat="45.0513633" lon="8.269355"><ele>256.0</ele><time>2026-04-04T07:40:25.101Z</time></trkpt><trkpt lat="45.05144" lon="8.269555"><ele>256.0</ele><time>2026-04-04T07:40:26.099Z</time></trkpt><trkpt lat="45.0515117" lon="8.2697683"><ele>256.0</ele><time>2026-04-04T07:40:27.105Z</time></trkpt><trkpt lat="45.0515833" lon="8.2699883"><ele>256.0</ele><time>2026-04-04T07:40:28.103Z</time></trkpt><trkpt lat="45.0516567" lon="8.2702067"><ele>255.33333333333331</ele><time>2026-04-04T07:40:29.1Z</time></trkpt><trkpt lat="45.0517333" lon="8.27043"><ele>254.66666666666669</ele><time>2026-04-04T07:40:30.099Z</time></trkpt><trkpt lat="45.0518083" lon="8.2706567"><ele>254.0</ele><time>2026-04-04T07:40:31.103Z</time></trkpt><trkpt lat="45.0518817" lon="8.27089"><ele>252.0</ele><time>2026-04-04T07:40:32.098Z</time></trkpt><trkpt lat="45.0519583" lon="8.271125"><ele>250.0</ele><time>2026-04-04T07:40:33.098Z</time></trkpt><trkpt lat="45.0520317" lon="8.2713617"><ele>248.0</ele><time>2026-04-04T07:40:34.103Z</time></trkpt><trkpt lat="45.05211" lon="8.27159"><ele>246.66666666666669</ele><time>2026-04-04T07:40:35.102Z</time></trkpt><trkpt lat="45.0521867" lon="8.2718267"><ele>245.33333333333331</ele><time>2026-04-04T07:40:36.099Z</time></trkpt><trkpt lat="45.0522617" lon="8.27207"><ele>244.0</ele><time>2026-04-04T07:40:37.099Z</time></trkpt><trkpt lat="45.0523417" lon="8.2723133"><ele>243.66666666666666</ele><time>2026-04-04T07:40:38.102Z</time></trkpt><trkpt lat="45.05242" lon="8.27256"><ele>243.33333333333331</ele><time>2026-04-04T07:40:39.102Z</time></trkpt><trkpt lat="45.0525" lon="8.2728083"><ele>243.0</ele><time>2026-04-04T07:40:40.101Z</time></trkpt><trkpt lat="45.0525817" lon="8.27306"><ele>239.66666666666669</ele><time>2026-04-04T07:40:41.105Z</time></trkpt><trkpt lat="45.052665" lon="8.2733117"><ele>236.33333333333334</ele><time>2026-04-04T07:40:42.102Z</time></trkpt><trkpt lat="45.0527517" lon="8.2735633"><ele>233.0</ele><time>2026-04-04T07:40:43.108Z</time></trkpt><trkpt lat="45.05284" lon="8.27381"><ele>232.66666666666669</ele><time>2026-04-04T07:40:44.106Z</time></trkpt><trkpt lat="45.052925" lon="8.27406"><ele>232.33333333333331</ele><time>2026-04-04T07:40:45.104Z</time></trkpt><trkpt lat="45.0530067" lon="8.274315"><ele>232.0</ele><time>2026-04-04T07:40:46.103Z</time></trkpt><trkpt lat="45.0530917" lon="8.27456"><ele>233.66666666666666</ele><time>2026-04-04T07:40:47.101Z</time></trkpt><trkpt lat="45.053175" lon="8.2747983"><ele>235.33333333333331</ele><time>2026-04-04T07:40:48.1Z</time></trkpt><trkpt lat="45.0532533" lon="8.275035"><ele>237.0</ele><time>2026-04-04T07:40:49.103Z</time></trkpt><trkpt lat="45.05333" lon="8.2752683"><ele>233.66666666666669</ele><time>2026-04-04T07:40:50.104Z</time></trkpt><trkpt lat="45.05341" lon="8.2755"><ele>230.33333333333334</ele><time>2026-04-04T07:40:51.099Z</time></trkpt><trkpt lat="45.0534867" lon="8.2757283"><ele>227.0</ele><time>2026-04-04T07:40:52.105Z</time></trkpt><trkpt lat="45.0535583" lon="8.2759567"><ele>227.0</ele><time>2026-04-04T07:40:53.104Z</time></trkpt><trkpt lat="45.0536333" lon="8.2761817"><ele>227.0</ele><time>2026-04-04T07:40:54.104Z</time></trkpt><trkpt lat="45.0537117" lon="8.2764"><ele>227.0</ele><time>2026-04-04T07:40:55.108Z</time></trkpt><trkpt lat="45.053785" lon="8.2766167"><ele>228.0</ele><time>2026-04-04T07:40:56.103Z</time></trkpt><trkpt lat="45.0538567" lon="8.27683"><ele>229.0</ele><time>2026-04-04T07:40:57.1Z</time></trkpt><trkpt lat="45.05393" lon="8.27704"><ele>230.0</ele><time>2026-04-04T07:40:58.108Z</time></trkpt><trkpt lat="45.054005" lon="8.27725"><ele>227.5</ele><time>2026-04-04T07:40:59.103Z</time></trkpt><trkpt lat="45.054075" lon="8.2774567"><ele>225.0</ele><time>2026-04-04T07:41:00.101Z</time></trkpt><trkpt lat="45.0541433" lon="8.2776383"><ele>222.5</ele><time>2026-04-04T07:41:01.106Z</time></trkpt><trkpt lat="45.0542183" lon="8.2777783"><ele>220.0</ele><time>2026-04-04T07:41:02.105Z</time></trkpt><trkpt lat="45.0543033" lon="8.277885"><ele>218.25</ele><time>2026-04-04T07:41:03.098Z</time></trkpt><trkpt lat="45.0544067" lon="8.27794"><ele>216.5</ele><time>2026-04-04T07:41:04.105Z</time></trkpt><trkpt lat="45.05452" lon="8.2779417"><ele>214.75</ele><time>2026-04-04T07:41:05.1Z</time></trkpt><trkpt lat="45.0546333" lon="8.27791"><ele>213.0</ele><time>2026-04-04T07:41:06.102Z</time></trkpt><trkpt lat="45.05475" lon="8.2778567"><ele>213.0</ele><time>2026-04-04T07:41:07.102Z</time></trkpt><trkpt lat="45.05487" lon="8.2777817"><ele>213.0</ele><time>2026-04-04T07:41:08.102Z</time></trkpt><trkpt lat="45.0549933" lon="8.2776733"><ele>213.0</ele><time>2026-04-04T07:41:09.099Z</time></trkpt><trkpt lat="45.055125" lon="8.2775567"><ele>213.0</ele><time>2026-04-04T07:41:10.101Z</time></trkpt><trkpt lat="45.0552667" lon="8.277425"><ele>209.33333333333331</ele><time>2026-04-04T07:41:11.105Z</time></trkpt><trkpt lat="45.0554033" lon="8.2773017"><ele>205.66666666666666</ele><time>2026-04-04T07:41:12.101Z</time></trkpt><trkpt lat="45.0555383" lon="8.27718"><ele>202.0</ele><time>2026-04-04T07:41:13.104Z</time></trkpt><trkpt lat="45.0556717" lon="8.2770567"><ele>198.66666666666666</ele><time>2026-04-04T07:41:14.108Z</time></trkpt><trkpt lat="45.05581" lon="8.2769433"><ele>195.33333333333331</ele><time>2026-04-04T07:41:15.104Z</time></trkpt><trkpt lat="45.0559483" lon="8.2768333"><ele>192.0</ele><time>2026-04-04T07:41:16.105Z</time></trkpt><trkpt lat="45.056085" lon="8.2767283"><ele>192.0</ele><time>2026-04-04T07:41:17.099Z</time></trkpt><trkpt lat="45.056225" lon="8.2766267"><ele>192.0</ele><time>2026-04-04T07:41:18.103Z</time></trkpt><trkpt lat="45.0563683" lon="8.2765433"><ele>192.0</ele><time>2026-04-04T07:41:19.102Z</time></trkpt><trkpt lat="45.0565133" lon="8.27648"><ele>189.66666666666666</ele><time>2026-04-04T07:41:20.108Z</time></trkpt><trkpt lat="45.0566633" lon="8.27643"><ele>187.33333333333331</ele><time>2026-04-04T07:41:21.109Z</time></trkpt><trkpt lat="45.056815" lon="8.2764033"><ele>185.0</ele><time>2026-04-04T07:41:22.103Z</time></trkpt><trkpt lat="45.0569667" lon="8.2763967"><ele>185.0</ele><time>2026-04-04T07:41:23.102Z</time></trkpt><trkpt lat="45.0571067" lon="8.2764167"><ele>185.0</ele><time>2026-04-04T07:41:24.101Z</time></trkpt><trkpt lat="45.0572233" lon="8.27646"><ele>185.0</ele><time>2026-04-04T07:41:25.108Z</time></trkpt><trkpt lat="45.057325" lon="8.2765133"><ele>185.0</ele><time>2026-04-04T07:41:26.108Z</time></trkpt><trkpt lat="45.0574083" lon="8.2765617"><ele>184.16666666666666</ele><time>2026-04-04T07:41:27.101Z</time></trkpt><trkpt lat="45.0574817" lon="8.2766067"><ele>183.33333333333331</ele><time>2026-04-04T07:41:28.101Z</time></trkpt><trkpt lat="45.0575483" lon="8.2766417"><ele>182.5</ele><time>2026-04-04T07:41:29.107Z</time></trkpt><trkpt lat="45.0576467" lon="8.2767"><ele>181.66666666666666</ele><time>2026-04-04T07:41:31.102Z</time></trkpt><trkpt lat="45.0577083" lon="8.2767433"><ele>180.83333333333334</ele><time>2026-04-04T07:41:33.1Z</time></trkpt><trkpt lat="45.0578033" lon="8.27681"><ele>180.0</ele><time>2026-04-04T07:41:47.101Z</time></trkpt><trkpt lat="45.0578717" lon="8.2768433"><ele>180.0</ele><time>2026-04-04T07:41:48.098Z</time></trkpt><trkpt lat="45.0579583" lon="8.2768883"><ele>180.0</ele><time>2026-04-04T07:41:49.103Z</time></trkpt><trkpt lat="45.0580467" lon="8.276935"><ele>180.0</ele><time>2026-04-04T07:41:50.103Z</time></trkpt><trkpt lat="45.058155" lon="8.277"><ele>180.0</ele><time>2026-04-04T07:41:51.099Z</time></trkpt><trkpt lat="45.0582783" lon="8.2770733"><ele>180.0</ele><time>2026-04-04T07:41:52.103Z</time></trkpt><trkpt lat="45.0584033" lon="8.2771417"><ele>180.0</ele><time>2026-04-04T07:41:53.113Z</time></trkpt><trkpt lat="45.0585317" lon="8.2772217"><ele>180.0</ele><time>2026-04-04T07:41:54.102Z</time></trkpt><trkpt lat="45.0586633" lon="8.2773033"><ele>180.0</ele><time>2026-04-04T07:41:55.106Z</time></trkpt><trkpt lat="45.0587967" lon="8.2773933"><ele>180.0</ele><time>2026-04-04T07:41:56.101Z</time></trkpt><trkpt lat="45.0589267" lon="8.2774783"><ele>179.33333333333334</ele><time>2026-04-04T07:41:57.101Z</time></trkpt><trkpt lat="45.0590633" lon="8.2775633"><ele>178.66666666666669</ele><time>2026-04-04T07:41:58.097Z</time></trkpt><trkpt lat="45.05921" lon="8.2776383"><ele>178.0</ele><time>2026-04-04T07:41:59.101Z</time></trkpt><trkpt lat="45.059355" lon="8.2777217"><ele>178.0</ele><time>2026-04-04T07:42:00.101Z</time></trkpt><trkpt lat="45.0595033" lon="8.2778167"><ele>178.0</ele><time>2026-04-04T07:42:01.105Z</time></trkpt><trkpt lat="45.0596517" lon="8.27791"><ele>178.0</ele><time>2026-04-04T07:42:02.097Z</time></trkpt><trkpt lat="45.0597933" lon="8.2780083"><ele>178.0</ele><time>2026-04-04T07:42:03.108Z</time></trkpt><trkpt lat="45.0599383" lon="8.2781"><ele>178.0</ele><time>2026-04-04T07:42:04.101Z</time></trkpt><trkpt lat="45.0600867" lon="8.27819"><ele>178.0</ele><time>2026-04-04T07:42:05.106Z</time></trkpt><trkpt lat="45.0602283" lon="8.2782783"><ele>177.75</ele><time>2026-04-04T07:42:06.101Z</time></trkpt><trkpt lat="45.0603667" lon="8.2783617"><ele>177.5</ele><time>2026-04-04T07:42:07.102Z</time></trkpt><trkpt lat="45.0605033" lon="8.278445"><ele>177.25</ele><time>2026-04-04T07:42:08.104Z</time></trkpt><trkpt lat="45.0606367" lon="8.278525"><ele>177.0</ele><time>2026-04-04T07:42:09.101Z</time></trkpt><trkpt lat="45.0607683" lon="8.2786067"><ele>177.0</ele><time>2026-04-04T07:42:10.102Z</time></trkpt><trkpt lat="45.0608983" lon="8.2786917"><ele>177.0</ele><time>2026-04-04T07:42:11.105Z</time></trkpt><trkpt lat="45.0610333" lon="8.278775"><ele>177.0</ele><time>2026-04-04T07:42:12.106Z</time></trkpt><trkpt lat="45.0611717" lon="8.27886"><ele>177.0</ele><time>2026-04-04T07:42:13.108Z</time></trkpt><trkpt lat="45.0613083" lon="8.278945"><ele>176.66666666666666</ele><time>2026-04-04T07:42:14.098Z</time></trkpt><trkpt lat="45.0614433" lon="8.2790317"><ele>176.33333333333331</ele><time>2026-04-04T07:42:15.104Z</time></trkpt><trkpt lat="45.06158" lon="8.2791167"><ele>176.0</ele><time>2026-04-04T07:42:16.102Z</time></trkpt><trkpt lat="45.06172" lon="8.279205"><ele>176.0</ele><time>2026-04-04T07:42:17.101Z</time></trkpt><trkpt lat="45.0618617" lon="8.2792933"><ele>176.0</ele><time>2026-04-04T07:42:18.101Z</time></trkpt><trkpt lat="45.0620083" lon="8.2793733"><ele>176.0</ele><time>2026-04-04T07:42:19.1Z</time></trkpt><trkpt lat="45.0621533" lon="8.2794633"><ele>176.0</ele><time>2026-04-04T07:42:20.103Z</time></trkpt><trkpt lat="45.0623" lon="8.2795417"><ele>176.0</ele><time>2026-04-04T07:42:21.102Z</time></trkpt><trkpt lat="45.0624417" lon="8.2796217"><ele>176.0</ele><time>2026-04-04T07:42:22.101Z</time></trkpt><trkpt lat="45.0625817" lon="8.2796983"><ele>175.33333333333331</ele><time>2026-04-04T07:42:23.104Z</time></trkpt><trkpt lat="45.0627283" lon="8.2797817"><ele>174.66666666666666</ele><time>2026-04-04T07:42:24.106Z</time></trkpt><trkpt lat="45.0628733" lon="8.2798683"><ele>174.0</ele><time>2026-04-04T07:42:25.1Z</time></trkpt><trkpt lat="45.0630283" lon="8.27995"><ele>174.0</ele><time>2026-04-04T07:42:26.104Z</time></trkpt><trkpt lat="45.0631683" lon="8.280045"><ele>174.0</ele><time>2026-04-04T07:42:27.098Z</time></trkpt><trkpt lat="45.06332" lon="8.2801433"><ele>174.0</ele><time>2026-04-04T07:42:28.101Z</time></trkpt><trkpt lat="45.063475" lon="8.2802433"><ele>174.0</ele><time>2026-04-04T07:42:29.104Z</time></trkpt><trkpt lat="45.0636333" lon="8.2803467"><ele>174.0</ele><time>2026-04-04T07:42:30.101Z</time></trkpt><trkpt lat="45.0637917" lon="8.280455"><ele>174.0</ele><time>2026-04-04T07:42:31.102Z</time></trkpt><trkpt lat="45.0639517" lon="8.28057"><ele>174.33333333333334</ele><time>2026-04-04T07:42:32.102Z</time></trkpt><trkpt lat="45.0641067" lon="8.28069"><ele>174.66666666666669</ele><time>2026-04-04T07:42:33.099Z</time></trkpt><trkpt lat="45.0642583" lon="8.2808233"><ele>175.0</ele><time>2026-04-04T07:42:34.103Z</time></trkpt><trkpt lat="45.0644083" lon="8.2809633"><ele>174.33333333333334</ele><time>2026-04-04T07:42:35.099Z</time></trkpt><trkpt lat="45.0645567" lon="8.28111"><ele>173.66666666666666</ele><time>2026-04-04T07:42:36.108Z</time></trkpt><trkpt lat="45.0647" lon="8.2812633"><ele>173.0</ele><time>2026-04-04T07:42:37.101Z</time></trkpt><trkpt lat="45.0648367" lon="8.2814283"><ele>173.0</ele><time>2026-04-04T07:42:38.107Z</time></trkpt><trkpt lat="45.06497" lon="8.281605"><ele>173.0</ele><time>2026-04-04T07:42:39.105Z</time></trkpt><trkpt lat="45.0650933" lon="8.2817983"><ele>173.0</ele><time>2026-04-04T07:42:40.099Z</time></trkpt><trkpt lat="45.0652217" lon="8.2819833"><ele>173.0</ele><time>2026-04-04T07:42:41.1Z</time></trkpt><trkpt lat="45.0653417" lon="8.282185"><ele>173.0</ele><time>2026-04-04T07:42:42.102Z</time></trkpt><trkpt lat="45.065455" lon="8.2824017"><ele>173.0</ele><time>2026-04-04T07:42:43.105Z</time></trkpt><trkpt lat="45.0655583" lon="8.2826267"><ele>173.33333333333331</ele><time>2026-04-04T07:42:44.101Z</time></trkpt><trkpt lat="45.06566" lon="8.2828633"><ele>173.66666666666666</ele><time>2026-04-04T07:42:45.102Z</time></trkpt><trkpt lat="45.0657617" lon="8.2831017"><ele>174.0</ele><time>2026-04-04T07:42:46.099Z</time></trkpt><trkpt lat="45.065865" lon="8.2833367"><ele>174.33333333333334</ele><time>2026-04-04T07:42:47.1Z</time></trkpt><trkpt lat="45.0659633" lon="8.2835733"><ele>174.66666666666669</ele><time>2026-04-04T07:42:48.099Z</time></trkpt><trkpt lat="45.0660617" lon="8.2838117"><ele>175.0</ele><time>2026-04-04T07:42:49.101Z</time></trkpt><trkpt lat="45.0661567" lon="8.2840517"><ele>175.0</ele><time>2026-04-04T07:42:50.101Z</time></trkpt><trkpt lat="45.066255" lon="8.2842883"><ele>175.0</ele><time>2026-04-04T07:42:51.106Z</time></trkpt><trkpt lat="45.0663567" lon="8.2845217"><ele>175.0</ele><time>2026-04-04T07:42:52.113Z</time></trkpt><trkpt lat="45.0664567" lon="8.284755"><ele>174.33333333333334</ele><time>2026-04-04T07:42:53.104Z</time></trkpt><trkpt lat="45.066555" lon="8.28499"><ele>173.66666666666666</ele><time>2026-04-04T07:42:54.101Z</time></trkpt><trkpt lat="45.0666533" lon="8.28522"><ele>173.0</ele><time>2026-04-04T07:42:55.101Z</time></trkpt><trkpt lat="45.0667533" lon="8.28545"><ele>177.33333333333331</ele><time>2026-04-04T07:42:56.102Z</time></trkpt><trkpt lat="45.0668533" lon="8.2856767"><ele>181.66666666666666</ele><time>2026-04-04T07:42:57.105Z</time></trkpt><trkpt lat="45.06695" lon="8.2859067"><ele>186.0</ele><time>2026-04-04T07:42:58.102Z</time></trkpt><trkpt lat="45.0670433" lon="8.2861333"><ele>186.0</ele><time>2026-04-04T07:42:59.101Z</time></trkpt><trkpt lat="45.0671333" lon="8.2863617"><ele>186.0</ele><time>2026-04-04T07:43:00.105Z</time></trkpt><trkpt lat="45.0672233" lon="8.2865883"><ele>186.0</ele><time>2026-04-04T07:43:01.102Z</time></trkpt><trkpt lat="45.0673133" lon="8.2868117"><ele>185.33333333333334</ele><time>2026-04-04T07:43:02.102Z</time></trkpt><trkpt lat="45.0674017" lon="8.2870367"><ele>184.66666666666669</ele><time>2026-04-04T07:43:03.104Z</time></trkpt><trkpt lat="45.0674917" lon="8.287265"><ele>184.0</ele><time>2026-04-04T07:43:04.106Z</time></trkpt><trkpt lat="45.067585" lon="8.2875"><ele>184.0</ele><time>2026-04-04T07:43:05.108Z</time></trkpt><trkpt lat="45.0676817" lon="8.2877383"><ele>184.0</ele><time>2026-04-04T07:43:06.106Z</time></trkpt><trkpt lat="45.0677783" lon="8.2879883"><ele>184.0</ele><time>2026-04-04T07:43:07.099Z</time></trkpt><trkpt lat="45.0679" lon="8.28824"><ele>185.33333333333334</ele><time>2026-04-04T07:43:08.11Z</time></trkpt><trkpt lat="45.0679983" lon="8.288485"><ele>186.66666666666666</ele><time>2026-04-04T07:43:09.108Z</time></trkpt><trkpt lat="45.0681067" lon="8.2887433"><ele>188.0</ele><time>2026-04-04T07:43:10.1Z</time></trkpt><trkpt lat="45.0682" lon="8.2889917"><ele>185.0</ele><time>2026-04-04T07:43:11.106Z</time></trkpt><trkpt lat="45.0683017" lon="8.2892467"><ele>182.0</ele><time>2026-04-04T07:43:12.102Z</time></trkpt><trkpt lat="45.0684083" lon="8.2895"><ele>179.0</ele><time>2026-04-04T07:43:13.1Z</time></trkpt><trkpt lat="45.0685067" lon="8.28977"><ele>179.0</ele><time>2026-04-04T07:43:14.102Z</time></trkpt><trkpt lat="45.0686083" lon="8.2900317"><ele>179.0</ele><time>2026-04-04T07:43:15.101Z</time></trkpt><trkpt lat="45.0687133" lon="8.2902917"><ele>179.0</ele><time>2026-04-04T07:43:16.103Z</time></trkpt><trkpt lat="45.0688183" lon="8.2905567"><ele>179.0</ele><time>2026-04-04T07:43:17.103Z</time></trkpt><trkpt lat="45.068925" lon="8.2908233"><ele>179.0</ele><time>2026-04-04T07:43:18.101Z</time></trkpt><trkpt lat="45.069035" lon="8.2910883"><ele>179.0</ele><time>2026-04-04T07:43:19.102Z</time></trkpt><trkpt lat="45.0691483" lon="8.2913583"><ele>176.33333333333331</ele><time>2026-04-04T07:43:20.098Z</time></trkpt><trkpt lat="45.0692617" lon="8.29163"><ele>173.66666666666666</ele><time>2026-04-04T07:43:21.108Z</time></trkpt><trkpt lat="45.0693733" lon="8.2919067"><ele>171.0</ele><time>2026-04-04T07:43:22.102Z</time></trkpt><trkpt lat="45.0694833" lon="8.2921833"><ele>172.5</ele><time>2026-04-04T07:43:23.1Z</time></trkpt><trkpt lat="45.0695967" lon="8.29246"><ele>174.0</ele><time>2026-04-04T07:43:24.106Z</time></trkpt><trkpt lat="45.0697083" lon="8.292735"><ele>174.0</ele><time>2026-04-04T07:43:25.1Z</time></trkpt><trkpt lat="45.06982" lon="8.2930117"><ele>174.0</ele><time>2026-04-04T07:43:26.103Z</time></trkpt><trkpt lat="45.0699317" lon="8.293285"><ele>174.0</ele><time>2026-04-04T07:43:27.108Z</time></trkpt><trkpt lat="45.070045" lon="8.2935567"><ele>172.0</ele><time>2026-04-04T07:43:28.105Z</time></trkpt><trkpt lat="45.0701583" lon="8.2938267"><ele>170.0</ele><time>2026-04-04T07:43:29.103Z</time></trkpt><trkpt lat="45.0702717" lon="8.2940933"><ele>168.0</ele><time>2026-04-04T07:43:30.104Z</time></trkpt><trkpt lat="45.0703883" lon="8.2943567"><ele>167.33333333333334</ele><time>2026-04-04T07:43:31.113Z</time></trkpt><trkpt lat="45.0705067" lon="8.2946167"><ele>166.66666666666669</ele><time>2026-04-04T07:43:32.103Z</time></trkpt><trkpt lat="45.0706283" lon="8.2948683"><ele>166.0</ele><time>2026-04-04T07:43:33.1Z</time></trkpt><trkpt lat="45.0707517" lon="8.2951167"><ele>165.33333333333334</ele><time>2026-04-04T07:43:34.108Z</time></trkpt><trkpt lat="45.0708767" lon="8.2953583"><ele>164.66666666666666</ele><time>2026-04-04T07:43:35.116Z</time></trkpt><trkpt lat="45.071005" lon="8.2955967"><ele>164.0</ele><time>2026-04-04T07:43:36.103Z</time></trkpt><trkpt lat="45.0711383" lon="8.2958283"><ele>163.66666666666666</ele><time>2026-04-04T07:43:37.1Z</time></trkpt><trkpt lat="45.0712733" lon="8.2960583"><ele>163.33333333333334</ele><time>2026-04-04T07:43:38.106Z</time></trkpt><trkpt lat="45.0714083" lon="8.2962883"><ele>163.0</ele><time>2026-04-04T07:43:39.103Z</time></trkpt><trkpt lat="45.0715483" lon="8.2965117"><ele>163.0</ele><time>2026-04-04T07:43:40.101Z</time></trkpt><trkpt lat="45.071685" lon="8.296735"><ele>163.0</ele><time>2026-04-04T07:43:41.1Z</time></trkpt><trkpt lat="45.071825" lon="8.2969633"><ele>163.0</ele><time>2026-04-04T07:43:42.105Z</time></trkpt><trkpt lat="45.071965" lon="8.297195"><ele>163.33333333333334</ele><time>2026-04-04T07:43:43.1Z</time></trkpt><trkpt lat="45.072105" lon="8.2974333"><ele>163.66666666666666</ele><time>2026-04-04T07:43:44.1Z</time></trkpt><trkpt lat="45.072245" lon="8.2976733"><ele>164.0</ele><time>2026-04-04T07:43:45.099Z</time></trkpt><trkpt lat="45.0723883" lon="8.2979117"><ele>162.66666666666666</ele><time>2026-04-04T07:43:46.103Z</time></trkpt><trkpt lat="45.0725317" lon="8.29815"><ele>161.33333333333334</ele><time>2026-04-04T07:43:47.102Z</time></trkpt><trkpt lat="45.072675" lon="8.2983817"><ele>160.0</ele><time>2026-04-04T07:43:48.108Z</time></trkpt><trkpt lat="45.072815" lon="8.2986167"><ele>160.0</ele><time>2026-04-04T07:43:49.103Z</time></trkpt><trkpt lat="45.07296" lon="8.2988517"><ele>160.0</ele><time>2026-04-04T07:43:50.099Z</time></trkpt><trkpt lat="45.0731017" lon="8.299085"><ele>160.0</ele><time>2026-04-04T07:43:51.103Z</time></trkpt><trkpt lat="45.073245" lon="8.2993133"><ele>160.33333333333334</ele><time>2026-04-04T07:43:52.104Z</time></trkpt><trkpt lat="45.073385" lon="8.2995467"><ele>160.66666666666666</ele><time>2026-04-04T07:43:53.104Z</time></trkpt><trkpt lat="45.0735267" lon="8.2997767"><ele>161.0</ele><time>2026-04-04T07:43:54.101Z</time></trkpt><trkpt lat="45.073665" lon="8.30001"><ele>161.66666666666666</ele><time>2026-04-04T07:43:55.1Z</time></trkpt><trkpt lat="45.0738067" lon="8.300235"><ele>162.33333333333334</ele><time>2026-04-04T07:43:56.106Z</time></trkpt><trkpt lat="45.0739483" lon="8.3004583"><ele>163.0</ele><time>2026-04-04T07:43:57.102Z</time></trkpt><trkpt lat="45.0740883" lon="8.3006783"><ele>161.66666666666669</ele><time>2026-04-04T07:43:58.103Z</time></trkpt><trkpt lat="45.074225" lon="8.300905"><ele>160.33333333333334</ele><time>2026-04-04T07:43:59.111Z</time></trkpt><trkpt lat="45.0743633" lon="8.3011317"><ele>159.0</ele><time>2026-04-04T07:44:00.099Z</time></trkpt><trkpt lat="45.0745033" lon="8.301355"><ele>159.66666666666666</ele><time>2026-04-04T07:44:01.099Z</time></trkpt><trkpt lat="45.0746417" lon="8.3015767"><ele>160.33333333333331</ele><time>2026-04-04T07:44:02.099Z</time></trkpt><trkpt lat="45.0747783" lon="8.301805"><ele>161.0</ele><time>2026-04-04T07:44:03.102Z</time></trkpt><trkpt lat="45.074915" lon="8.3020283"><ele>160.66666666666666</ele><time>2026-04-04T07:44:04.104Z</time></trkpt><trkpt lat="45.07505" lon="8.3022517"><ele>160.33333333333334</ele><time>2026-04-04T07:44:05.099Z</time></trkpt><trkpt lat="45.0751883" lon="8.302475"><ele>160.0</ele><time>2026-04-04T07:44:06.105Z</time></trkpt><trkpt lat="45.0753267" lon="8.3027"><ele>160.0</ele><time>2026-04-04T07:44:07.099Z</time></trkpt><trkpt lat="45.0754617" lon="8.3029267"><ele>160.0</ele><time>2026-04-04T07:44:08.11Z</time></trkpt><trkpt lat="45.0755983" lon="8.303155"><ele>160.0</ele><time>2026-04-04T07:44:09.1Z</time></trkpt><trkpt lat="45.07574" lon="8.30338"><ele>159.66666666666669</ele><time>2026-04-04T07:44:10.101Z</time></trkpt><trkpt lat="45.0758783" lon="8.303605"><ele>159.33333333333334</ele><time>2026-04-04T07:44:11.107Z</time></trkpt><trkpt lat="45.07602" lon="8.3038283"><ele>159.0</ele><time>2026-04-04T07:44:12.102Z</time></trkpt><trkpt lat="45.07616" lon="8.30405"><ele>159.66666666666666</ele><time>2026-04-04T07:44:13.104Z</time></trkpt><trkpt lat="45.0762967" lon="8.3042767"><ele>160.33333333333331</ele><time>2026-04-04T07:44:14.103Z</time></trkpt><trkpt lat="45.0764333" lon="8.3045083"><ele>161.0</ele><time>2026-04-04T07:44:15.104Z</time></trkpt><trkpt lat="45.07657" lon="8.3047383"><ele>160.33333333333331</ele><time>2026-04-04T07:44:16.1Z</time></trkpt><trkpt lat="45.07671" lon="8.304965"><ele>159.66666666666666</ele><time>2026-04-04T07:44:17.103Z</time></trkpt><trkpt lat="45.0768533" lon="8.30519"><ele>159.0</ele><time>2026-04-04T07:44:18.106Z</time></trkpt><trkpt lat="45.0769967" lon="8.305415"><ele>158.66666666666666</ele><time>2026-04-04T07:44:19.099Z</time></trkpt><trkpt lat="45.0771417" lon="8.3056333"><ele>158.33333333333331</ele><time>2026-04-04T07:44:20.1Z</time></trkpt><trkpt lat="45.07729" lon="8.3058433"><ele>158.0</ele><time>2026-04-04T07:44:21.101Z</time></trkpt><trkpt lat="45.077445" lon="8.30604"><ele>158.0</ele><time>2026-04-04T07:44:22.1Z</time></trkpt><trkpt lat="45.0776083" lon="8.3062217"><ele>158.0</ele><time>2026-04-04T07:44:23.099Z</time></trkpt><trkpt lat="45.0777767" lon="8.306385"><ele>158.0</ele><time>2026-04-04T07:44:24.099Z</time></trkpt><trkpt lat="45.0779567" lon="8.3065317"><ele>158.66666666666666</ele><time>2026-04-04T07:44:25.105Z</time></trkpt><trkpt lat="45.0781417" lon="8.3066633"><ele>159.33333333333334</ele><time>2026-04-04T07:44:26.099Z</time></trkpt><trkpt lat="45.0783317" lon="8.3067833"><ele>160.0</ele><time>2026-04-04T07:44:27.098Z</time></trkpt><trkpt lat="45.078525" lon="8.306885"><ele>159.33333333333334</ele><time>2026-04-04T07:44:28.1Z</time></trkpt><trkpt lat="45.0787217" lon="8.3069783"><ele>158.66666666666666</ele><time>2026-04-04T07:44:29.108Z</time></trkpt><trkpt lat="45.0789183" lon="8.3070667"><ele>158.0</ele><time>2026-04-04T07:44:30.101Z</time></trkpt><trkpt lat="45.0791167" lon="8.307155"><ele>158.0</ele><time>2026-04-04T07:44:31.107Z</time></trkpt><trkpt lat="45.079315" lon="8.3072433"><ele>158.0</ele><time>2026-04-04T07:44:32.101Z</time></trkpt><trkpt lat="45.0795133" lon="8.307335"><ele>158.0</ele><time>2026-04-04T07:44:33.102Z</time></trkpt><trkpt lat="45.0797117" lon="8.3074267"><ele>157.66666666666666</ele><time>2026-04-04T07:44:34.106Z</time></trkpt><trkpt lat="45.0799117" lon="8.3075183"><ele>157.33333333333334</ele><time>2026-04-04T07:44:35.11Z</time></trkpt><trkpt lat="45.0801117" lon="8.3076133"><ele>157.0</ele><time>2026-04-04T07:44:36.104Z</time></trkpt><trkpt lat="45.0803083" lon="8.3077033"><ele>158.33333333333334</ele><time>2026-04-04T07:44:37.103Z</time></trkpt><trkpt lat="45.0805067" lon="8.3077933"><ele>159.66666666666666</ele><time>2026-04-04T07:44:38.102Z</time></trkpt><trkpt lat="45.0807033" lon="8.3078833"><ele>161.0</ele><time>2026-04-04T07:44:39.105Z</time></trkpt><trkpt lat="45.0808967" lon="8.3079717"><ele>161.0</ele><time>2026-04-04T07:44:40.104Z</time></trkpt><trkpt lat="45.0810883" lon="8.3080567"><ele>161.0</ele><time>2026-04-04T07:44:41.104Z</time></trkpt><trkpt lat="45.0812733" lon="8.30814"><ele>161.0</ele><time>2026-04-04T07:44:42.101Z</time></trkpt><trkpt lat="45.0814567" lon="8.3082217"><ele>160.0</ele><time>2026-04-04T07:44:43.102Z</time></trkpt><trkpt lat="45.0816417" lon="8.3083017"><ele>159.0</ele><time>2026-04-04T07:44:44.102Z</time></trkpt><trkpt lat="45.0818333" lon="8.3083833"><ele>158.0</ele><time>2026-04-04T07:44:45.102Z</time></trkpt><trkpt lat="45.0820267" lon="8.3084667"><ele>158.0</ele><time>2026-04-04T07:44:46.103Z</time></trkpt><trkpt lat="45.08223" lon="8.3085533"><ele>158.0</ele><time>2026-04-04T07:44:47.1Z</time></trkpt><trkpt lat="45.0824383" lon="8.308645"><ele>158.0</ele><time>2026-04-04T07:44:48.103Z</time></trkpt><trkpt lat="45.08265" lon="8.3087383"><ele>157.33333333333331</ele><time>2026-04-04T07:44:49.106Z</time></trkpt><trkpt lat="45.0828633" lon="8.3088333"><ele>156.66666666666666</ele><time>2026-04-04T07:44:50.1Z</time></trkpt><trkpt lat="45.0830767" lon="8.3089283"><ele>156.0</ele><time>2026-04-04T07:44:51.099Z</time></trkpt><trkpt lat="45.0832883" lon="8.30902"><ele>156.0</ele><time>2026-04-04T07:44:52.102Z</time></trkpt><trkpt lat="45.0834967" lon="8.3091083"><ele>156.0</ele><time>2026-04-04T07:44:53.104Z</time></trkpt><trkpt lat="45.0837033" lon="8.3091967"><ele>156.0</ele><time>2026-04-04T07:44:54.104Z</time></trkpt><trkpt lat="45.083905" lon="8.309285"><ele>155.0</ele><time>2026-04-04T07:44:55.104Z</time></trkpt><trkpt lat="45.0841017" lon="8.3093683"><ele>154.0</ele><time>2026-04-04T07:44:56.103Z</time></trkpt><trkpt lat="45.0842883" lon="8.3094483"><ele>153.0</ele><time>2026-04-04T07:44:57.099Z</time></trkpt><trkpt lat="45.084465" lon="8.309525"><ele>153.0</ele><time>2026-04-04T07:44:58.103Z</time></trkpt><trkpt lat="45.0846317" lon="8.3096"><ele>153.0</ele><time>2026-04-04T07:44:59.104Z</time></trkpt><trkpt lat="45.08479" lon="8.30967"><ele>153.0</ele><time>2026-04-04T07:45:00.097Z</time></trkpt><trkpt lat="45.0849367" lon="8.309735"><ele>154.0</ele><time>2026-04-04T07:45:01.103Z</time></trkpt><trkpt lat="45.0850783" lon="8.3097983"><ele>155.0</ele><time>2026-04-04T07:45:02.1Z</time></trkpt><trkpt lat="45.085215" lon="8.30986"><ele>156.0</ele><time>2026-04-04T07:45:03.098Z</time></trkpt><trkpt lat="45.085345" lon="8.3099183"><ele>157.0</ele><time>2026-04-04T07:45:04.1Z</time></trkpt><trkpt lat="45.0854617" lon="8.30997"><ele>157.0</ele><time>2026-04-04T07:45:05.101Z</time></trkpt><trkpt lat="45.0855617" lon="8.3100133"><ele>157.0</ele><time>2026-04-04T07:45:06.101Z</time></trkpt><trkpt lat="45.08564" lon="8.310055"><ele>157.0</ele><time>2026-04-04T07:45:07.101Z</time></trkpt><trkpt lat="45.0857083" lon="8.3100933"><ele>157.0</ele><time>2026-04-04T07:45:08.101Z</time></trkpt><trkpt lat="45.0857517" lon="8.3101583"><ele>157.0</ele><time>2026-04-04T07:45:09.097Z</time></trkpt><trkpt lat="45.0857583" lon="8.3102917"><ele>157.0</ele><time>2026-04-04T07:45:10.1Z</time></trkpt><trkpt lat="45.085775" lon="8.310425"><ele>159.0</ele><time>2026-04-04T07:45:11.099Z</time></trkpt><trkpt lat="45.0857833" lon="8.310575"><ele>161.0</ele><time>2026-04-04T07:45:12.103Z</time></trkpt><trkpt lat="45.08578" lon="8.31073"><ele>163.0</ele><time>2026-04-04T07:45:13.1Z</time></trkpt><trkpt lat="45.0857617" lon="8.310885"><ele>165.0</ele><time>2026-04-04T07:45:14.102Z</time></trkpt><trkpt lat="45.08572" lon="8.3110433"><ele>167.0</ele><time>2026-04-04T07:45:15.106Z</time></trkpt><trkpt lat="45.08566" lon="8.31119"><ele>167.0</ele><time>2026-04-04T07:45:16.105Z</time></trkpt><trkpt lat="45.0855783" lon="8.3113283"><ele>167.0</ele><time>2026-04-04T07:45:17.106Z</time></trkpt><trkpt lat="45.085475" lon="8.31146"><ele>167.0</ele><time>2026-04-04T07:45:18.103Z</time></trkpt><trkpt lat="45.0853567" lon="8.3115817"><ele>167.0</ele><time>2026-04-04T07:45:19.104Z</time></trkpt><trkpt lat="45.0852267" lon="8.3116983"><ele>167.75</ele><time>2026-04-04T07:45:20.101Z</time></trkpt><trkpt lat="45.0850983" lon="8.31181"><ele>168.5</ele><time>2026-04-04T07:45:21.104Z</time></trkpt><trkpt lat="45.084975" lon="8.311915"><ele>169.25</ele><time>2026-04-04T07:45:22.1Z</time></trkpt><trkpt lat="45.0848633" lon="8.3120067"><ele>170.0</ele><time>2026-04-04T07:45:23.104Z</time></trkpt><trkpt lat="45.0847667" lon="8.3120983"><ele>170.0</ele><time>2026-04-04T07:45:24.097Z</time></trkpt><trkpt lat="45.0846867" lon="8.3122067"><ele>170.0</ele><time>2026-04-04T07:45:25.102Z</time></trkpt><trkpt lat="45.08462" lon="8.3123283"><ele>170.0</ele><time>2026-04-04T07:45:26.101Z</time></trkpt><trkpt lat="45.0845733" lon="8.3124617"><ele>170.0</ele><time>2026-04-04T07:45:27.102Z</time></trkpt><trkpt lat="45.0845517" lon="8.3126133"><ele>170.0</ele><time>2026-04-04T07:45:28.1Z</time></trkpt><trkpt lat="45.084545" lon="8.312775"><ele>172.0</ele><time>2026-04-04T07:45:29.101Z</time></trkpt><trkpt lat="45.0845517" lon="8.3129433"><ele>174.0</ele><time>2026-04-04T07:45:30.101Z</time></trkpt><trkpt lat="45.084565" lon="8.3131083"><ele>176.0</ele><time>2026-04-04T07:45:31.106Z</time></trkpt><trkpt lat="45.0845817" lon="8.31327"><ele>178.0</ele><time>2026-04-04T07:45:32.103Z</time></trkpt><trkpt lat="45.0845917" lon="8.3134267"><ele>180.60000000000002</ele><time>2026-04-04T07:45:33.101Z</time></trkpt><trkpt lat="45.0845983" lon="8.3135833"><ele>183.20000000000002</ele><time>2026-04-04T07:45:34.1Z</time></trkpt><trkpt lat="45.0846" lon="8.31373"><ele>185.8</ele><time>2026-04-04T07:45:35.105Z</time></trkpt><trkpt lat="45.08459" lon="8.3138717"><ele>188.4</ele><time>2026-04-04T07:45:36.102Z</time></trkpt><trkpt lat="45.0845683" lon="8.3140083"><ele>191.0</ele><time>2026-04-04T07:45:37.103Z</time></trkpt><trkpt lat="45.0845433" lon="8.3141417"><ele>193.8</ele><time>2026-04-04T07:45:38.102Z</time></trkpt><trkpt lat="45.0845183" lon="8.31428"><ele>196.60000000000002</ele><time>2026-04-04T07:45:39.108Z</time></trkpt><trkpt lat="45.0844867" lon="8.3144067"><ele>199.4</ele><time>2026-04-04T07:45:40.102Z</time></trkpt><trkpt lat="45.084455" lon="8.314535"><ele>202.2</ele><time>2026-04-04T07:45:41.101Z</time></trkpt><trkpt lat="45.08442" lon="8.3146567"><ele>205.0</ele><time>2026-04-04T07:45:42.096Z</time></trkpt><trkpt lat="45.08439" lon="8.3147767"><ele>207.2</ele><time>2026-04-04T07:45:43.101Z</time></trkpt><trkpt lat="45.084355" lon="8.3148983"><ele>209.4</ele><time>2026-04-04T07:45:44.104Z</time></trkpt><trkpt lat="45.0843133" lon="8.3150233"><ele>211.60000000000002</ele><time>2026-04-04T07:45:45.102Z</time></trkpt><trkpt lat="45.0842667" lon="8.3151367"><ele>213.8</ele><time>2026-04-04T07:45:46.096Z</time></trkpt><trkpt lat="45.0842117" lon="8.315245"><ele>216.0</ele><time>2026-04-04T07:45:47.099Z</time></trkpt><trkpt lat="45.08415" lon="8.3153417"><ele>216.83333333333334</ele><time>2026-04-04T07:45:48.097Z</time></trkpt><trkpt lat="45.0840833" lon="8.3154333"><ele>217.66666666666669</ele><time>2026-04-04T07:45:49.099Z</time></trkpt><trkpt lat="45.0840117" lon="8.31552"><ele>218.5</ele><time>2026-04-04T07:45:50.102Z</time></trkpt><trkpt lat="45.0839383" lon="8.3156017"><ele>219.33333333333334</ele><time>2026-04-04T07:45:51.098Z</time></trkpt><trkpt lat="45.0838717" lon="8.31568"><ele>220.16666666666669</ele><time>2026-04-04T07:45:52.101Z</time></trkpt><trkpt lat="45.08381" lon="8.3157383"><ele>221.0</ele><time>2026-04-04T07:45:53.102Z</time></trkpt><trkpt lat="45.0837583" lon="8.3157917"><ele>222.8</ele><time>2026-04-04T07:45:54.102Z</time></trkpt><trkpt lat="45.0836833" lon="8.3159133"><ele>224.60000000000002</ele><time>2026-04-04T07:45:56.103Z</time></trkpt><trkpt lat="45.0836667" lon="8.3160533"><ele>226.4</ele><time>2026-04-04T07:45:58.104Z</time></trkpt><trkpt lat="45.0837117" lon="8.3161967"><ele>228.2</ele><time>2026-04-04T07:46:00.101Z</time></trkpt><trkpt lat="45.0837633" lon="8.3162683"><ele>230.0</ele><time>2026-04-04T07:46:01.1Z</time></trkpt><trkpt lat="45.0838267" lon="8.3163383"><ele>231.66666666666669</ele><time>2026-04-04T07:46:02.103Z</time></trkpt><trkpt lat="45.0838817" lon="8.3164067"><ele>233.33333333333334</ele><time>2026-04-04T07:46:03.101Z</time></trkpt><trkpt lat="45.083935" lon="8.3164633"><ele>235.0</ele><time>2026-04-04T07:46:04.102Z</time></trkpt><trkpt lat="45.0840233" lon="8.3165483"><ele>236.66666666666669</ele><time>2026-04-04T07:46:06.105Z</time></trkpt><trkpt lat="45.0840333" lon="8.3166483"><ele>238.33333333333334</ele><time>2026-04-04T07:46:09.1Z</time></trkpt><trkpt lat="45.0839283" lon="8.31665"><ele>240.0</ele><time>2026-04-04T07:46:12.101Z</time></trkpt><trkpt lat="45.0838567" lon="8.316625"><ele>240.0</ele><time>2026-04-04T07:46:13.098Z</time></trkpt><trkpt lat="45.0837683" lon="8.3165717"><ele>240.0</ele><time>2026-04-04T07:46:14.101Z</time></trkpt><trkpt lat="45.0836583" lon="8.3165"><ele>240.0</ele><time>2026-04-04T07:46:15.101Z</time></trkpt><trkpt lat="45.0835367" lon="8.3164183"><ele>240.0</ele><time>2026-04-04T07:46:16.103Z</time></trkpt><trkpt lat="45.08342" lon="8.3163283"><ele>241.25</ele><time>2026-04-04T07:46:17.102Z</time></trkpt><trkpt lat="45.083305" lon="8.31624"><ele>242.5</ele><time>2026-04-04T07:46:18.101Z</time></trkpt><trkpt lat="45.08319" lon="8.3161483"><ele>243.75</ele><time>2026-04-04T07:46:19.102Z</time></trkpt><trkpt lat="45.0830717" lon="8.3160517"><ele>245.0</ele><time>2026-04-04T07:46:20.101Z</time></trkpt><trkpt lat="45.0829517" lon="8.3159533"><ele>245.0</ele><time>2026-04-04T07:46:21.103Z</time></trkpt><trkpt lat="45.0828333" lon="8.31585"><ele>245.0</ele><time>2026-04-04T07:46:22.102Z</time></trkpt><trkpt lat="45.0827183" lon="8.3157483"><ele>245.0</ele><time>2026-04-04T07:46:23.105Z</time></trkpt><trkpt lat="45.082605" lon="8.31565"><ele>245.0</ele><time>2026-04-04T07:46:24.102Z</time></trkpt><trkpt lat="45.0824983" lon="8.3155617"><ele>244.4</ele><time>2026-04-04T07:46:25.104Z</time></trkpt><trkpt lat="45.0823933" lon="8.3154933"><ele>243.8</ele><time>2026-04-04T07:46:26.103Z</time></trkpt><trkpt lat="45.0822933" lon="8.31547"><ele>243.2</ele><time>2026-04-04T07:46:27.1Z</time></trkpt><trkpt lat="45.082195" lon="8.3154867"><ele>242.6</ele><time>2026-04-04T07:46:28.101Z</time></trkpt><trkpt lat="45.0820983" lon="8.31555"><ele>242.0</ele><time>2026-04-04T07:46:29.107Z</time></trkpt><trkpt lat="45.082005" lon="8.3156483"><ele>242.0</ele><time>2026-04-04T07:46:30.103Z</time></trkpt><trkpt lat="45.08192" lon="8.3157683"><ele>242.0</ele><time>2026-04-04T07:46:31.109Z</time></trkpt><trkpt lat="45.0818333" lon="8.3158933"><ele>242.0</ele><time>2026-04-04T07:46:32.101Z</time></trkpt><trkpt lat="45.08176" lon="8.3160217"><ele>242.0</ele><time>2026-04-04T07:46:33.099Z</time></trkpt><trkpt lat="45.081705" lon="8.316165"><ele>242.0</ele><time>2026-04-04T07:46:34.102Z</time></trkpt><trkpt lat="45.08166" lon="8.3163233"><ele>242.0</ele><time>2026-04-04T07:46:35.105Z</time></trkpt><trkpt lat="45.08162" lon="8.316505"><ele>242.0</ele><time>2026-04-04T07:46:36.1Z</time></trkpt><trkpt lat="45.0815767" lon="8.3167167"><ele>242.0</ele><time>2026-04-04T07:46:37.105Z</time></trkpt><trkpt lat="45.0815333" lon="8.3169217"><ele>240.25</ele><time>2026-04-04T07:46:38.102Z</time></trkpt><trkpt lat="45.0814933" lon="8.317125"><ele>238.5</ele><time>2026-04-04T07:46:39.099Z</time></trkpt><trkpt lat="45.0814483" lon="8.3173167"><ele>236.75</ele><time>2026-04-04T07:46:40.102Z</time></trkpt><trkpt lat="45.0814017" lon="8.3174983"><ele>235.0</ele><time>2026-04-04T07:46:41.101Z</time></trkpt><trkpt lat="45.08134" lon="8.3176667"><ele>235.0</ele><time>2026-04-04T07:46:42.104Z</time></trkpt><trkpt lat="45.0812533" lon="8.3178183"><ele>235.0</ele><time>2026-04-04T07:46:43.102Z</time></trkpt><trkpt lat="45.081145" lon="8.3179583"><ele>235.0</ele><time>2026-04-04T07:46:44.101Z</time></trkpt><trkpt lat="45.0810167" lon="8.3180833"><ele>235.0</ele><time>2026-04-04T07:46:45.1Z</time></trkpt><trkpt lat="45.0808683" lon="8.318195"><ele>235.33333333333331</ele><time>2026-04-04T07:46:46.1Z</time></trkpt><trkpt lat="45.0807117" lon="8.3183017"><ele>235.66666666666669</ele><time>2026-04-04T07:46:47.099Z</time></trkpt><trkpt lat="45.0805533" lon="8.3184083"><ele>236.0</ele><time>2026-04-04T07:46:48.103Z</time></trkpt><trkpt lat="45.0803967" lon="8.3185133"><ele>236.0</ele><time>2026-04-04T07:46:49.107Z</time></trkpt><trkpt lat="45.0802383" lon="8.31862"><ele>236.0</ele><time>2026-04-04T07:46:50.1Z</time></trkpt><trkpt lat="45.08008" lon="8.3187217"><ele>236.0</ele><time>2026-04-04T07:46:51.095Z</time></trkpt><trkpt lat="45.07992" lon="8.3188367"><ele>237.0</ele><time>2026-04-04T07:46:52.101Z</time></trkpt><trkpt lat="45.07976" lon="8.3189433"><ele>238.0</ele><time>2026-04-04T07:46:53.106Z</time></trkpt><trkpt lat="45.079605" lon="8.31905"><ele>239.0</ele><time>2026-04-04T07:46:54.105Z</time></trkpt><trkpt lat="45.0794583" lon="8.319155"><ele>239.0</ele><time>2026-04-04T07:46:55.099Z</time></trkpt><trkpt lat="45.0793167" lon="8.3192567"><ele>239.0</ele><time>2026-04-04T07:46:56.105Z</time></trkpt><trkpt lat="45.07918" lon="8.3193533"><ele>239.0</ele><time>2026-04-04T07:46:57.098Z</time></trkpt><trkpt lat="45.0790517" lon="8.3194483"><ele>239.25</ele><time>2026-04-04T07:46:58.1Z</time></trkpt><trkpt lat="45.07893" lon="8.319535"><ele>239.5</ele><time>2026-04-04T07:46:59.109Z</time></trkpt><trkpt lat="45.0788117" lon="8.3196233"><ele>239.75</ele><time>2026-04-04T07:47:00.103Z</time></trkpt><trkpt lat="45.0787" lon="8.3197233"><ele>240.0</ele><time>2026-04-04T07:47:01.104Z</time></trkpt><trkpt lat="45.07859" lon="8.3198367"><ele>240.0</ele><time>2026-04-04T07:47:02.099Z</time></trkpt><trkpt lat="45.0784867" lon="8.3199533"><ele>240.0</ele><time>2026-04-04T07:47:03.101Z</time></trkpt><trkpt lat="45.078385" lon="8.3200683"><ele>240.0</ele><time>2026-04-04T07:47:04.1Z</time></trkpt><trkpt lat="45.0782883" lon="8.3201933"><ele>240.0</ele><time>2026-04-04T07:47:05.102Z</time></trkpt><trkpt lat="45.0782" lon="8.320315"><ele>236.6</ele><time>2026-04-04T07:47:06.1Z</time></trkpt><trkpt lat="45.0781367" lon="8.3204417"><ele>233.2</ele><time>2026-04-04T07:47:07.106Z</time></trkpt><trkpt lat="45.0780967" lon="8.3205767"><ele>229.8</ele><time>2026-04-04T07:47:08.099Z</time></trkpt><trkpt lat="45.07808" lon="8.320735"><ele>226.4</ele><time>2026-04-04T07:47:09.102Z</time></trkpt><trkpt lat="45.0780767" lon="8.3208967"><ele>223.0</ele><time>2026-04-04T07:47:10.1Z</time></trkpt><trkpt lat="45.078085" lon="8.3210567"><ele>223.0</ele><time>2026-04-04T07:47:11.099Z</time></trkpt><trkpt lat="45.07809" lon="8.3212233"><ele>223.0</ele><time>2026-04-04T07:47:12.102Z</time></trkpt><trkpt lat="45.0780917" lon="8.321395"><ele>223.0</ele><time>2026-04-04T07:47:13.109Z</time></trkpt><trkpt lat="45.07808" lon="8.3215667"><ele>223.0</ele><time>2026-04-04T07:47:14.098Z</time></trkpt><trkpt lat="45.07805" lon="8.32173"><ele>223.0</ele><time>2026-04-04T07:47:15.106Z</time></trkpt><trkpt lat="45.0780033" lon="8.3218833"><ele>223.0</ele><time>2026-04-04T07:47:16.101Z</time></trkpt><trkpt lat="45.0779383" lon="8.3220267"><ele>223.0</ele><time>2026-04-04T07:47:17.101Z</time></trkpt><trkpt lat="45.07786" lon="8.3221467"><ele>223.0</ele><time>2026-04-04T07:47:18.104Z</time></trkpt><trkpt lat="45.07778" lon="8.3222517"><ele>225.25</ele><time>2026-04-04T07:47:19.099Z</time></trkpt><trkpt lat="45.0776983" lon="8.3223567"><ele>227.5</ele><time>2026-04-04T07:47:20.1Z</time></trkpt><trkpt lat="45.0776183" lon="8.32247"><ele>229.75</ele><time>2026-04-04T07:47:21.1Z</time></trkpt><trkpt lat="45.0775417" lon="8.3226033"><ele>232.0</ele><time>2026-04-04T07:47:22.098Z</time></trkpt><trkpt lat="45.0774683" lon="8.322755"><ele>229.0</ele><time>2026-04-04T07:47:23.098Z</time></trkpt><trkpt lat="45.0773967" lon="8.3229167"><ele>226.0</ele><time>2026-04-04T07:47:24.101Z</time></trkpt><trkpt lat="45.0773233" lon="8.3230933"><ele>223.0</ele><time>2026-04-04T07:47:25.1Z</time></trkpt><trkpt lat="45.077245" lon="8.323265"><ele>220.0</ele><time>2026-04-04T07:47:26.099Z</time></trkpt><trkpt lat="45.07717" lon="8.3234383"><ele>220.0</ele><time>2026-04-04T07:47:27.099Z</time></trkpt><trkpt lat="45.0770867" lon="8.3236"><ele>220.0</ele><time>2026-04-04T07:47:28.102Z</time></trkpt><trkpt lat="45.0770017" lon="8.3237533"><ele>220.0</ele><time>2026-04-04T07:47:29.107Z</time></trkpt><trkpt lat="45.076915" lon="8.3239033"><ele>220.0</ele><time>2026-04-04T07:47:30.101Z</time></trkpt><trkpt lat="45.07682" lon="8.3240483"><ele>220.75</ele><time>2026-04-04T07:47:31.103Z</time></trkpt><trkpt lat="45.0767217" lon="8.3241917"><ele>221.5</ele><time>2026-04-04T07:47:32.098Z</time></trkpt><trkpt lat="45.07662" lon="8.3243367"><ele>222.25</ele><time>2026-04-04T07:47:33.103Z</time></trkpt><trkpt lat="45.07652" lon="8.32448"><ele>223.0</ele><time>2026-04-04T07:47:34.104Z</time></trkpt><trkpt lat="45.0764233" lon="8.3246217"><ele>223.0</ele><time>2026-04-04T07:47:35.102Z</time></trkpt><trkpt lat="45.0763267" lon="8.3247617"><ele>223.0</ele><time>2026-04-04T07:47:36.103Z</time></trkpt><trkpt lat="45.0762367" lon="8.3249083"><ele>223.0</ele><time>2026-04-04T07:47:37.103Z</time></trkpt><trkpt lat="45.0761483" lon="8.3250633"><ele>223.0</ele><time>2026-04-04T07:47:38.106Z</time></trkpt><trkpt lat="45.07607" lon="8.32524"><ele>223.0</ele><time>2026-04-04T07:47:39.097Z</time></trkpt><trkpt lat="45.0760017" lon="8.325435"><ele>223.0</ele><time>2026-04-04T07:47:40.101Z</time></trkpt><trkpt lat="45.0759433" lon="8.3256433"><ele>223.0</ele><time>2026-04-04T07:47:41.107Z</time></trkpt><trkpt lat="45.075885" lon="8.3258617"><ele>224.66666666666666</ele><time>2026-04-04T07:47:42.101Z</time></trkpt><trkpt lat="45.0758233" lon="8.3260867"><ele>226.33333333333331</ele><time>2026-04-04T07:47:43.1Z</time></trkpt><trkpt lat="45.0757617" lon="8.3263133"><ele>228.0</ele><time>2026-04-04T07:47:44.105Z</time></trkpt><trkpt lat="45.0756983" lon="8.3265367"><ele>224.66666666666669</ele><time>2026-04-04T07:47:45.101Z</time></trkpt><trkpt lat="45.0756283" lon="8.32676"><ele>221.33333333333334</ele><time>2026-04-04T07:47:46.1Z</time></trkpt><trkpt lat="45.075545" lon="8.3269733"><ele>218.0</ele><time>2026-04-04T07:47:47.101Z</time></trkpt><trkpt lat="45.0754517" lon="8.327175"><ele>221.66666666666669</ele><time>2026-04-04T07:47:48.1Z</time></trkpt><trkpt lat="45.0753383" lon="8.3273583"><ele>225.33333333333331</ele><time>2026-04-04T07:47:49.099Z</time></trkpt><trkpt lat="45.0752067" lon="8.32751"><ele>229.0</ele><time>2026-04-04T07:47:50.101Z</time></trkpt><trkpt lat="45.075065" lon="8.3276467"><ele>227.66666666666666</ele><time>2026-04-04T07:47:51.099Z</time></trkpt><trkpt lat="45.0749267" lon="8.327775"><ele>226.33333333333331</ele><time>2026-04-04T07:47:52.103Z</time></trkpt><trkpt lat="45.07479" lon="8.327895"><ele>225.0</ele><time>2026-04-04T07:47:53.107Z</time></trkpt><trkpt lat="45.0746583" lon="8.328"><ele>226.25</ele><time>2026-04-04T07:47:54.102Z</time></trkpt><trkpt lat="45.0745333" lon="8.3280933"><ele>227.5</ele><time>2026-04-04T07:47:55.101Z</time></trkpt><trkpt lat="45.074395" lon="8.3281517"><ele>228.75</ele><time>2026-04-04T07:47:56.102Z</time></trkpt><trkpt lat="45.0742533" lon="8.3281733"><ele>230.0</ele><time>2026-04-04T07:47:57.101Z</time></trkpt><trkpt lat="45.0741067" lon="8.32818"><ele>230.0</ele><time>2026-04-04T07:47:58.101Z</time></trkpt><trkpt lat="45.0739533" lon="8.3281783"><ele>230.0</ele><time>2026-04-04T07:47:59.103Z</time></trkpt><trkpt lat="45.073795" lon="8.3281783"><ele>230.0</ele><time>2026-04-04T07:48:00.108Z</time></trkpt><trkpt lat="45.0736383" lon="8.3281883"><ele>230.0</ele><time>2026-04-04T07:48:01.104Z</time></trkpt><trkpt lat="45.0734783" lon="8.32821"><ele>230.0</ele><time>2026-04-04T07:48:02.102Z</time></trkpt><trkpt lat="45.0733183" lon="8.3282517"><ele>230.0</ele><time>2026-04-04T07:48:03.103Z</time></trkpt><trkpt lat="45.0731533" lon="8.328295"><ele>229.33333333333334</ele><time>2026-04-04T07:48:04.108Z</time></trkpt><trkpt lat="45.0729867" lon="8.3283433"><ele>228.66666666666669</ele><time>2026-04-04T07:48:05.105Z</time></trkpt><trkpt lat="45.0728217" lon="8.328395"><ele>228.0</ele><time>2026-04-04T07:48:06.099Z</time></trkpt><trkpt lat="45.0726517" lon="8.3284533"><ele>228.0</ele><time>2026-04-04T07:48:07.103Z</time></trkpt><trkpt lat="45.072485" lon="8.3285167"><ele>228.0</ele><time>2026-04-04T07:48:08.103Z</time></trkpt><trkpt lat="45.0723183" lon="8.3285917"><ele>228.0</ele><time>2026-04-04T07:48:09.102Z</time></trkpt><trkpt lat="45.0721483" lon="8.3286733"><ele>228.0</ele><time>2026-04-04T07:48:10.099Z</time></trkpt><trkpt lat="45.0719833" lon="8.3287667"><ele>228.0</ele><time>2026-04-04T07:48:11.101Z</time></trkpt><trkpt lat="45.0718167" lon="8.3288667"><ele>228.0</ele><time>2026-04-04T07:48:12.102Z</time></trkpt><trkpt lat="45.0716517" lon="8.3289683"><ele>231.0</ele><time>2026-04-04T07:48:13.104Z</time></trkpt><trkpt lat="45.0714883" lon="8.3290717"><ele>234.0</ele><time>2026-04-04T07:48:14.107Z</time></trkpt><trkpt lat="45.0713267" lon="8.329175"><ele>237.0</ele><time>2026-04-04T07:48:15.102Z</time></trkpt><trkpt lat="45.0711683" lon="8.32928"><ele>237.0</ele><time>2026-04-04T07:48:16.109Z</time></trkpt><trkpt lat="45.0710067" lon="8.32938"><ele>237.0</ele><time>2026-04-04T07:48:17.102Z</time></trkpt><trkpt lat="45.0708483" lon="8.3294817"><ele>237.0</ele><time>2026-04-04T07:48:18.102Z</time></trkpt><trkpt lat="45.070685" lon="8.32958"><ele>235.33333333333331</ele><time>2026-04-04T07:48:19.106Z</time></trkpt><trkpt lat="45.070525" lon="8.329675"><ele>233.66666666666666</ele><time>2026-04-04T07:48:20.104Z</time></trkpt><trkpt lat="45.0703683" lon="8.32977"><ele>232.0</ele><time>2026-04-04T07:48:21.102Z</time></trkpt><trkpt lat="45.070225" lon="8.32987"><ele>236.0</ele><time>2026-04-04T07:48:22.104Z</time></trkpt><trkpt lat="45.07008" lon="8.3299567"><ele>240.0</ele><time>2026-04-04T07:48:23.105Z</time></trkpt><trkpt lat="45.0699433" lon="8.3300417"><ele>244.0</ele><time>2026-04-04T07:48:24.104Z</time></trkpt><trkpt lat="45.0698117" lon="8.3301267"><ele>244.75</ele><time>2026-04-04T07:48:25.106Z</time></trkpt><trkpt lat="45.0696867" lon="8.3302033"><ele>245.5</ele><time>2026-04-04T07:48:26.105Z</time></trkpt><trkpt lat="45.069565" lon="8.3302783"><ele>246.25</ele><time>2026-04-04T07:48:27.1Z</time></trkpt><trkpt lat="45.0694517" lon="8.3303517"><ele>247.0</ele><time>2026-04-04T07:48:28.102Z</time></trkpt><trkpt lat="45.0693517" lon="8.3304317"><ele>247.0</ele><time>2026-04-04T07:48:29.102Z</time></trkpt><trkpt lat="45.069255" lon="8.3305017"><ele>247.0</ele><time>2026-04-04T07:48:30.107Z</time></trkpt><trkpt lat="45.0691583" lon="8.3305567"><ele>247.0</ele><time>2026-04-04T07:48:31.11Z</time></trkpt><trkpt lat="45.0690617" lon="8.33061"><ele>247.0</ele><time>2026-04-04T07:48:32.103Z</time></trkpt><trkpt lat="45.0689683" lon="8.330655"><ele>247.0</ele><time>2026-04-04T07:48:33.107Z</time></trkpt><trkpt lat="45.06887" lon="8.3307117"><ele>249.39999999999998</ele><time>2026-04-04T07:48:34.105Z</time></trkpt><trkpt lat="45.0687683" lon="8.330795"><ele>251.79999999999998</ele><time>2026-04-04T07:48:35.103Z</time></trkpt><trkpt lat="45.06868" lon="8.330895"><ele>254.2</ele><time>2026-04-04T07:48:36.101Z</time></trkpt><trkpt lat="45.06859" lon="8.33099"><ele>256.59999999999997</ele><time>2026-04-04T07:48:37.1Z</time></trkpt><trkpt lat="45.0685083" lon="8.3310833"><ele>259.0</ele><time>2026-04-04T07:48:38.102Z</time></trkpt><trkpt lat="45.068435" lon="8.3311583"><ele>259.0</ele><time>2026-04-04T07:48:39.102Z</time></trkpt><trkpt lat="45.06835" lon="8.3312083"><ele>259.0</ele><time>2026-04-04T07:48:40.102Z</time></trkpt><trkpt lat="45.0682517" lon="8.331225"><ele>259.0</ele><time>2026-04-04T07:48:41.103Z</time></trkpt><trkpt lat="45.068135" lon="8.3311583"><ele>259.0</ele><time>2026-04-04T07:48:42.105Z</time></trkpt><trkpt lat="45.06803" lon="8.331105"><ele>259.0</ele><time>2026-04-04T07:48:43.104Z</time></trkpt><trkpt lat="45.0679383" lon="8.331035"><ele>260.2</ele><time>2026-04-04T07:48:44.101Z</time></trkpt><trkpt lat="45.06786" lon="8.330945"><ele>261.4</ele><time>2026-04-04T07:48:45.106Z</time></trkpt><trkpt lat="45.0678033" lon="8.3308267"><ele>262.6</ele><time>2026-04-04T07:48:46.103Z</time></trkpt><trkpt lat="45.0677633" lon="8.3307017"><ele>263.8</ele><time>2026-04-04T07:48:47.105Z</time></trkpt><trkpt lat="45.067735" lon="8.33057"><ele>265.0</ele><time>2026-04-04T07:48:48.099Z</time></trkpt><trkpt lat="45.0676967" lon="8.330455"><ele>265.0</ele><time>2026-04-04T07:48:49.105Z</time></trkpt><trkpt lat="45.0676433" lon="8.3303517"><ele>265.0</ele><time>2026-04-04T07:48:50.101Z</time></trkpt><trkpt lat="45.06758" lon="8.3302667"><ele>265.0</ele><time>2026-04-04T07:48:51.099Z</time></trkpt><trkpt lat="45.0675083" lon="8.3301883"><ele>265.0</ele><time>2026-04-04T07:48:52.105Z</time></trkpt><trkpt lat="45.0674383" lon="8.330115"><ele>265.0</ele><time>2026-04-04T07:48:53.102Z</time></trkpt><trkpt lat="45.0673683" lon="8.33006"><ele>265.0</ele><time>2026-04-04T07:48:54.099Z</time></trkpt><trkpt lat="45.067295" lon="8.330025"><ele>264.4</ele><time>2026-04-04T07:48:55.104Z</time></trkpt><trkpt lat="45.0672133" lon="8.3300167"><ele>263.8</ele><time>2026-04-04T07:48:56.107Z</time></trkpt><trkpt lat="45.0671683" lon="8.3301867"><ele>263.2</ele><time>2026-04-04T07:48:58.102Z</time></trkpt><trkpt lat="45.0671733" lon="8.330315"><ele>262.6</ele><time>2026-04-04T07:48:59.101Z</time></trkpt><trkpt lat="45.067185" lon="8.3304583"><ele>262.0</ele><time>2026-04-04T07:49:00.102Z</time></trkpt><trkpt lat="45.0672183" lon="8.3306167"><ele>262.0</ele><time>2026-04-04T07:49:01.099Z</time></trkpt><trkpt lat="45.0672233" lon="8.3307633"><ele>262.0</ele><time>2026-04-04T07:49:02.103Z</time></trkpt><trkpt lat="45.067225" lon="8.3309267"><ele>262.0</ele><time>2026-04-04T07:49:03.104Z</time></trkpt><trkpt lat="45.067195" lon="8.33109"><ele>262.0</ele><time>2026-04-04T07:49:04.106Z</time></trkpt><trkpt lat="45.0671483" lon="8.3312467"><ele>265.25</ele><time>2026-04-04T07:49:05.103Z</time></trkpt><trkpt lat="45.0670783" lon="8.3313983"><ele>268.5</ele><time>2026-04-04T07:49:06.106Z</time></trkpt><trkpt lat="45.0669917" lon="8.3315367"><ele>271.75</ele><time>2026-04-04T07:49:07.1Z</time></trkpt><trkpt lat="45.0668917" lon="8.3316567"><ele>275.0</ele><time>2026-04-04T07:49:08.103Z</time></trkpt><trkpt lat="45.0667883" lon="8.33178"><ele>275.0</ele><time>2026-04-04T07:49:09.103Z</time></trkpt><trkpt lat="45.066695" lon="8.331925"><ele>275.0</ele><time>2026-04-04T07:49:10.102Z</time></trkpt><trkpt lat="45.06661" lon="8.3320833"><ele>275.0</ele><time>2026-04-04T07:49:11.1Z</time></trkpt><trkpt lat="45.0665417" lon="8.3322583"><ele>275.0</ele><time>2026-04-04T07:49:12.099Z</time></trkpt><trkpt lat="45.0664817" lon="8.3324417"><ele>274.5</ele><time>2026-04-04T07:49:13.105Z</time></trkpt><trkpt lat="45.06642" lon="8.3326183"><ele>274.0</ele><time>2026-04-04T07:49:14.098Z</time></trkpt><trkpt lat="45.0663567" lon="8.3327867"><ele>273.5</ele><time>2026-04-04T07:49:15.1Z</time></trkpt><trkpt lat="45.0663" lon="8.3329533"><ele>273.0</ele><time>2026-04-04T07:49:16.1Z</time></trkpt><trkpt lat="45.066245" lon="8.3331183"><ele>276.25</ele><time>2026-04-04T07:49:17.1Z</time></trkpt><trkpt lat="45.0661883" lon="8.3332767"><ele>279.5</ele><time>2026-04-04T07:49:18.103Z</time></trkpt><trkpt lat="45.06614" lon="8.33343"><ele>282.75</ele><time>2026-04-04T07:49:19.098Z</time></trkpt><trkpt lat="45.066095" lon="8.33358"><ele>286.0</ele><time>2026-04-04T07:49:20.103Z</time></trkpt><trkpt lat="45.066035" lon="8.3337133"><ele>286.0</ele><time>2026-04-04T07:49:21.098Z</time></trkpt><trkpt lat="45.065955" lon="8.3338267"><ele>286.0</ele><time>2026-04-04T07:49:22.101Z</time></trkpt><trkpt lat="45.0658617" lon="8.3339167"><ele>286.0</ele><time>2026-04-04T07:49:23.1Z</time></trkpt><trkpt lat="45.0657567" lon="8.333985"><ele>286.0</ele><time>2026-04-04T07:49:24.105Z</time></trkpt><trkpt lat="45.065645" lon="8.3340333"><ele>286.0</ele><time>2026-04-04T07:49:25.101Z</time></trkpt><trkpt lat="45.0655333" lon="8.3340967"><ele>286.0</ele><time>2026-04-04T07:49:26.102Z</time></trkpt><trkpt lat="45.06542" lon="8.3341883"><ele>286.0</ele><time>2026-04-04T07:49:27.101Z</time></trkpt><trkpt lat="45.0653167" lon="8.3343017"><ele>286.0</ele><time>2026-04-04T07:49:28.107Z</time></trkpt><trkpt lat="45.0652167" lon="8.33444"><ele>286.0</ele><time>2026-04-04T07:49:29.107Z</time></trkpt><trkpt lat="45.0651117" lon="8.3345717"><ele>286.0</ele><time>2026-04-04T07:49:30.103Z</time></trkpt><trkpt lat="45.0649933" lon="8.3346617"><ele>286.0</ele><time>2026-04-04T07:49:31.106Z</time></trkpt><trkpt lat="45.064855" lon="8.334715"><ele>286.0</ele><time>2026-04-04T07:49:32.102Z</time></trkpt><trkpt lat="45.064715" lon="8.3347617"><ele>287.0</ele><time>2026-04-04T07:49:33.102Z</time></trkpt><trkpt lat="45.0645867" lon="8.3348133"><ele>288.0</ele><time>2026-04-04T07:49:34.1Z</time></trkpt><trkpt lat="45.0644733" lon="8.3348567"><ele>289.0</ele><time>2026-04-04T07:49:35.104Z</time></trkpt><trkpt lat="45.0643783" lon="8.3348983"><ele>290.0</ele><time>2026-04-04T07:49:36.099Z</time></trkpt><trkpt lat="45.0643067" lon="8.33495"><ele>291.0</ele><time>2026-04-04T07:49:37.102Z</time></trkpt><trkpt lat="45.0642267" lon="8.33501"><ele>291.0</ele><time>2026-04-04T07:49:38.102Z</time></trkpt><trkpt lat="45.0641767" lon="8.3351217"><ele>291.0</ele><time>2026-04-04T07:49:39.099Z</time></trkpt><trkpt lat="45.0641533" lon="8.3352683"><ele>291.0</ele><time>2026-04-04T07:49:40.103Z</time></trkpt><trkpt lat="45.0641417" lon="8.3354367"><ele>291.0</ele><time>2026-04-04T07:49:41.102Z</time></trkpt><trkpt lat="45.0641367" lon="8.3356217"><ele>291.25</ele><time>2026-04-04T07:49:42.105Z</time></trkpt><trkpt lat="45.0641383" lon="8.335815"><ele>291.5</ele><time>2026-04-04T07:49:43.1Z</time></trkpt><trkpt lat="45.064135" lon="8.3360083"><ele>291.75</ele><time>2026-04-04T07:49:44.105Z</time></trkpt><trkpt lat="45.0641167" lon="8.3362117"><ele>292.0</ele><time>2026-04-04T07:49:45.109Z</time></trkpt><trkpt lat="45.0640833" lon="8.3364083"><ele>287.66666666666663</ele><time>2026-04-04T07:49:46.104Z</time></trkpt><trkpt lat="45.0640217" lon="8.3365933"><ele>283.3333333333333</ele><time>2026-04-04T07:49:47.104Z</time></trkpt><trkpt lat="45.0639367" lon="8.33677"><ele>279.0</ele><time>2026-04-04T07:49:48.111Z</time></trkpt><trkpt lat="45.063835" lon="8.3369483"><ele>279.0</ele><time>2026-04-04T07:49:49.104Z</time></trkpt><trkpt lat="45.06374" lon="8.3371433"><ele>279.0</ele><time>2026-04-04T07:49:50.105Z</time></trkpt><trkpt lat="45.0636483" lon="8.33735"><ele>279.0</ele><time>2026-04-04T07:49:51.104Z</time></trkpt><trkpt lat="45.0635583" lon="8.337565"><ele>278.6666666666667</ele><time>2026-04-04T07:49:52.107Z</time></trkpt><trkpt lat="45.0634667" lon="8.337775"><ele>278.33333333333337</ele><time>2026-04-04T07:49:53.104Z</time></trkpt><trkpt lat="45.0633683" lon="8.3379817"><ele>278.0</ele><time>2026-04-04T07:49:54.106Z</time></trkpt><trkpt lat="45.0632683" lon="8.3381817"><ele>278.0</ele><time>2026-04-04T07:49:55.099Z</time></trkpt><trkpt lat="45.0631717" lon="8.338385"><ele>278.0</ele><time>2026-04-04T07:49:56.104Z</time></trkpt><trkpt lat="45.0630767" lon="8.3385767"><ele>278.0</ele><time>2026-04-04T07:49:57.102Z</time></trkpt><trkpt lat="45.0629883" lon="8.3387617"><ele>279.25</ele><time>2026-04-04T07:49:58.099Z</time></trkpt><trkpt lat="45.0629117" lon="8.3389467"><ele>280.5</ele><time>2026-04-04T07:49:59.108Z</time></trkpt><trkpt lat="45.0628517" lon="8.3391183"><ele>281.75</ele><time>2026-04-04T07:50:00.099Z</time></trkpt><trkpt lat="45.06281" lon="8.3392833"><ele>283.0</ele><time>2026-04-04T07:50:01.099Z</time></trkpt><trkpt lat="45.0627817" lon="8.3394267"><ele>283.0</ele><time>2026-04-04T07:50:02.104Z</time></trkpt><trkpt lat="45.0627683" lon="8.3395417"><ele>283.0</ele><time>2026-04-04T07:50:03.103Z</time></trkpt><trkpt lat="45.0627517" lon="8.339645"><ele>283.0</ele><time>2026-04-04T07:50:04.103Z</time></trkpt><trkpt lat="45.0627067" lon="8.3397817"><ele>283.0</ele><time>2026-04-04T07:50:06.103Z</time></trkpt><trkpt lat="45.0626067" lon="8.339855"><ele>283.0</ele><time>2026-04-04T07:50:08.101Z</time></trkpt><trkpt lat="45.0625283" lon="8.3398683"><ele>283.0</ele><time>2026-04-04T07:50:09.099Z</time></trkpt><trkpt lat="45.0624367" lon="8.3398933"><ele>283.0</ele><time>2026-04-04T07:50:10.104Z</time></trkpt><trkpt lat="45.0623317" lon="8.3399267"><ele>283.0</ele><time>2026-04-04T07:50:11.102Z</time></trkpt><trkpt lat="45.0622233" lon="8.3399967"><ele>283.0</ele><time>2026-04-04T07:50:12.102Z</time></trkpt><trkpt lat="45.0621117" lon="8.3400733"><ele>283.0</ele><time>2026-04-04T07:50:13.105Z</time></trkpt><trkpt lat="45.06201" lon="8.3401483"><ele>283.0</ele><time>2026-04-04T07:50:14.102Z</time></trkpt><trkpt lat="45.0619033" lon="8.340225"><ele>283.0</ele><time>2026-04-04T07:50:15.099Z</time></trkpt><trkpt lat="45.0617983" lon="8.34031"><ele>283.0</ele><time>2026-04-04T07:50:16.106Z</time></trkpt><trkpt lat="45.0616983" lon="8.3403967"><ele>283.0</ele><time>2026-04-04T07:50:17.099Z</time></trkpt><trkpt lat="45.0615967" lon="8.3404833"><ele>282.5</ele><time>2026-04-04T07:50:18.1Z</time></trkpt><trkpt lat="45.0614883" lon="8.3405617"><ele>282.0</ele><time>2026-04-04T07:50:19.102Z</time></trkpt><trkpt lat="45.0613833" lon="8.34065"><ele>281.5</ele><time>2026-04-04T07:50:20.105Z</time></trkpt><trkpt lat="45.0612783" lon="8.3407317"><ele>281.0</ele><time>2026-04-04T07:50:21.101Z</time></trkpt><trkpt lat="45.0611683" lon="8.3408133"><ele>281.0</ele><time>2026-04-04T07:50:22.107Z</time></trkpt><trkpt lat="45.0610567" lon="8.3408933"><ele>281.0</ele><time>2026-04-04T07:50:23.099Z</time></trkpt><trkpt lat="45.060935" lon="8.34096"><ele>281.0</ele><time>2026-04-04T07:50:24.108Z</time></trkpt><trkpt lat="45.0608033" lon="8.34101"><ele>281.0</ele><time>2026-04-04T07:50:25.102Z</time></trkpt><trkpt lat="45.0606683" lon="8.341045"><ele>279.75</ele><time>2026-04-04T07:50:26.103Z</time></trkpt><trkpt lat="45.0605333" lon="8.3410667"><ele>278.5</ele><time>2026-04-04T07:50:27.1Z</time></trkpt><trkpt lat="45.0604017" lon="8.34107"><ele>277.25</ele><time>2026-04-04T07:50:28.102Z</time></trkpt><trkpt lat="45.0602717" lon="8.3410667"><ele>276.0</ele><time>2026-04-04T07:50:29.102Z</time></trkpt><trkpt lat="45.0601333" lon="8.3410617"><ele>276.0</ele><time>2026-04-04T07:50:30.102Z</time></trkpt><trkpt lat="45.0599933" lon="8.34105"><ele>276.0</ele><time>2026-04-04T07:50:31.104Z</time></trkpt><trkpt lat="45.059855" lon="8.341045"><ele>276.0</ele><time>2026-04-04T07:50:32.1Z</time></trkpt><trkpt lat="45.059715" lon="8.3410367"><ele>276.0</ele><time>2026-04-04T07:50:33.106Z</time></trkpt><trkpt lat="45.0595783" lon="8.3410267"><ele>275.0</ele><time>2026-04-04T07:50:34.105Z</time></trkpt><trkpt lat="45.0594367" lon="8.341015"><ele>274.0</ele><time>2026-04-04T07:50:35.105Z</time></trkpt><trkpt lat="45.0592967" lon="8.341005"><ele>273.0</ele><time>2026-04-04T07:50:36.102Z</time></trkpt><trkpt lat="45.059155" lon="8.340995"><ele>272.0</ele><time>2026-04-04T07:50:37.103Z</time></trkpt><trkpt lat="45.059015" lon="8.340985"><ele>272.0</ele><time>2026-04-04T07:50:38.104Z</time></trkpt><trkpt lat="45.0588767" lon="8.3409767"><ele>272.0</ele><time>2026-04-04T07:50:39.101Z</time></trkpt><trkpt lat="45.0587433" lon="8.34097"><ele>272.0</ele><time>2026-04-04T07:50:40.103Z</time></trkpt><trkpt lat="45.0586217" lon="8.3409617"><ele>272.0</ele><time>2026-04-04T07:50:41.103Z</time></trkpt><trkpt lat="45.0585167" lon="8.340955"><ele>272.0</ele><time>2026-04-04T07:50:42.1Z</time></trkpt><trkpt lat="45.0584167" lon="8.3409517"><ele>272.0</ele><time>2026-04-04T07:50:43.098Z</time></trkpt><trkpt lat="45.0583233" lon="8.3409617"><ele>272.0</ele><time>2026-04-04T07:50:44.102Z</time></trkpt><trkpt lat="45.0582583" lon="8.3410083"><ele>272.0</ele><time>2026-04-04T07:50:45.105Z</time></trkpt><trkpt lat="45.0582" lon="8.3410733"><ele>272.0</ele><time>2026-04-04T07:50:46.1Z</time></trkpt><trkpt lat="45.0581533" lon="8.3411583"><ele>272.0</ele><time>2026-04-04T07:50:47.106Z</time></trkpt><trkpt lat="45.0581183" lon="8.3412583"><ele>271.4</ele><time>2026-04-04T07:50:48.106Z</time></trkpt><trkpt lat="45.0581517" lon="8.3413867"><ele>270.79999999999995</ele><time>2026-04-04T07:50:49.104Z</time></trkpt><trkpt lat="45.0582017" lon="8.34151"><ele>270.2</ele><time>2026-04-04T07:50:50.099Z</time></trkpt><trkpt lat="45.0582767" lon="8.3416283"><ele>269.59999999999997</ele><time>2026-04-04T07:50:51.099Z</time></trkpt><trkpt lat="45.0584083" lon="8.34169"><ele>269.0</ele><time>2026-04-04T07:50:52.098Z</time></trkpt><trkpt lat="45.0585167" lon="8.3417383"><ele>269.0</ele><time>2026-04-04T07:50:53.102Z</time></trkpt><trkpt lat="45.0586117" lon="8.3418017"><ele>269.0</ele><time>2026-04-04T07:50:54.102Z</time></trkpt><trkpt lat="45.0586883" lon="8.3419033"><ele>269.0</ele><time>2026-04-04T07:50:55.104Z</time></trkpt><trkpt lat="45.0587367" lon="8.3420283"><ele>269.0</ele><time>2026-04-04T07:50:56.102Z</time></trkpt><trkpt lat="45.0587483" lon="8.342185"><ele>269.0</ele><time>2026-04-04T07:50:57.102Z</time></trkpt><trkpt lat="45.058725" lon="8.3423517"><ele>267.25</ele><time>2026-04-04T07:50:58.103Z</time></trkpt><trkpt lat="45.05868" lon="8.3425117"><ele>265.5</ele><time>2026-04-04T07:50:59.098Z</time></trkpt><trkpt lat="45.0586167" lon="8.3426667"><ele>263.75</ele><time>2026-04-04T07:51:00.102Z</time></trkpt><trkpt lat="45.058545" lon="8.342825"><ele>262.0</ele><time>2026-04-04T07:51:01.099Z</time></trkpt><trkpt lat="45.0584783" lon="8.3429883"><ele>261.5</ele><time>2026-04-04T07:51:02.108Z</time></trkpt><trkpt lat="45.0584133" lon="8.343155"><ele>261.0</ele><time>2026-04-04T07:51:03.099Z</time></trkpt><trkpt lat="45.058345" lon="8.3433083"><ele>260.5</ele><time>2026-04-04T07:51:04.108Z</time></trkpt><trkpt lat="45.0582883" lon="8.3434617"><ele>260.0</ele><time>2026-04-04T07:51:05.101Z</time></trkpt><trkpt lat="45.0582233" lon="8.34361"><ele>259.0</ele><time>2026-04-04T07:51:06.103Z</time></trkpt><trkpt lat="45.0581483" lon="8.343755"><ele>258.0</ele><time>2026-04-04T07:51:07.108Z</time></trkpt><trkpt lat="45.0580667" lon="8.3438983"><ele>257.0</ele><time>2026-04-04T07:51:08.101Z</time></trkpt><trkpt lat="45.0579717" lon="8.3440217"><ele>256.0</ele><time>2026-04-04T07:51:09.101Z</time></trkpt><trkpt lat="45.0578583" lon="8.34411"><ele>256.0</ele><time>2026-04-04T07:51:10.098Z</time></trkpt><trkpt lat="45.0577283" lon="8.344175"><ele>256.0</ele><time>2026-04-04T07:51:11.098Z</time></trkpt><trkpt lat="45.0575967" lon="8.344225"><ele>256.0</ele><time>2026-04-04T07:51:12.101Z</time></trkpt><trkpt lat="45.05746" lon="8.3442483"><ele>256.0</ele><time>2026-04-04T07:51:13.103Z</time></trkpt><trkpt lat="45.05733" lon="8.344285"><ele>254.0</ele><time>2026-04-04T07:51:14.101Z</time></trkpt><trkpt lat="45.05721" lon="8.3443333"><ele>252.0</ele><time>2026-04-04T07:51:15.098Z</time></trkpt><trkpt lat="45.0570883" lon="8.3443583"><ele>250.0</ele><time>2026-04-04T07:51:16.104Z</time></trkpt><trkpt lat="45.05697" lon="8.3443733"><ele>248.0</ele><time>2026-04-04T07:51:17.104Z</time></trkpt><trkpt lat="45.0568533" lon="8.3443483"><ele>248.0</ele><time>2026-04-04T07:51:18.101Z</time></trkpt><trkpt lat="45.0567467" lon="8.344305"><ele>248.0</ele><time>2026-04-04T07:51:19.103Z</time></trkpt><trkpt lat="45.056655" lon="8.344235"><ele>248.0</ele><time>2026-04-04T07:51:20.101Z</time></trkpt><trkpt lat="45.0565883" lon="8.3441333"><ele>248.0</ele><time>2026-04-04T07:51:21.102Z</time></trkpt><trkpt lat="45.0565383" lon="8.34402"><ele>248.0</ele><time>2026-04-04T07:51:22.106Z</time></trkpt><trkpt lat="45.0565417" lon="8.3438867"><ele>246.2</ele><time>2026-04-04T07:51:23.103Z</time></trkpt><trkpt lat="45.0565667" lon="8.343755"><ele>244.4</ele><time>2026-04-04T07:51:24.104Z</time></trkpt><trkpt lat="45.056635" lon="8.3436317"><ele>242.59999999999997</ele><time>2026-04-04T07:51:25.103Z</time></trkpt><trkpt lat="45.0567117" lon="8.3435117"><ele>240.79999999999998</ele><time>2026-04-04T07:51:26.099Z</time></trkpt><trkpt lat="45.0567867" lon="8.343395"><ele>239.0</ele><time>2026-04-04T07:51:27.103Z</time></trkpt><trkpt lat="45.056855" lon="8.3432767"><ele>239.0</ele><time>2026-04-04T07:51:28.099Z</time></trkpt><trkpt lat="45.05691" lon="8.3431533"><ele>238.99999999999997</ele><time>2026-04-04T07:51:29.098Z</time></trkpt><trkpt lat="45.0569433" lon="8.3430217"><ele>238.99999999999997</ele><time>2026-04-04T07:51:30.108Z</time></trkpt><trkpt lat="45.05694" lon="8.3428833"><ele>239.0</ele><time>2026-04-04T07:51:31.103Z</time></trkpt><trkpt lat="45.0569217" lon="8.3427317"><ele>239.0</ele><time>2026-04-04T07:51:32.098Z</time></trkpt><trkpt lat="45.05688" lon="8.3425817"><ele>238.5</ele><time>2026-04-04T07:51:33.101Z</time></trkpt><trkpt lat="45.0568117" lon="8.3424333"><ele>238.0</ele><time>2026-04-04T07:51:34.102Z</time></trkpt><trkpt lat="45.0567333" lon="8.3422933"><ele>237.5</ele><time>2026-04-04T07:51:35.103Z</time></trkpt><trkpt lat="45.056645" lon="8.342165"><ele>237.0</ele><time>2026-04-04T07:51:36.103Z</time></trkpt><trkpt lat="45.05655" lon="8.3420533"><ele>235.75</ele><time>2026-04-04T07:51:37.103Z</time></trkpt><trkpt lat="45.056445" lon="8.341955"><ele>234.5</ele><time>2026-04-04T07:51:38.103Z</time></trkpt><trkpt lat="45.0563333" lon="8.3418683"><ele>233.25</ele><time>2026-04-04T07:51:39.101Z</time></trkpt><trkpt lat="45.0562183" lon="8.34179"><ele>232.0</ele><time>2026-04-04T07:51:40.105Z</time></trkpt><trkpt lat="45.0561017" lon="8.3417167"><ele>232.0</ele><time>2026-04-04T07:51:41.104Z</time></trkpt><trkpt lat="45.0559817" lon="8.3416483"><ele>232.0</ele><time>2026-04-04T07:51:42.103Z</time></trkpt><trkpt lat="45.0558633" lon="8.34158"><ele>232.0</ele><time>2026-04-04T07:51:43.102Z</time></trkpt><trkpt lat="45.055745" lon="8.34151"><ele>232.0</ele><time>2026-04-04T07:51:44.104Z</time></trkpt><trkpt lat="45.0556283" lon="8.3414383"><ele>231.25</ele><time>2026-04-04T07:51:45.106Z</time></trkpt><trkpt lat="45.0555133" lon="8.3413667"><ele>230.5</ele><time>2026-04-04T07:51:46.108Z</time></trkpt><trkpt lat="45.0554" lon="8.341295"><ele>229.75</ele><time>2026-04-04T07:51:47.099Z</time></trkpt><trkpt lat="45.0552867" lon="8.3412283"><ele>229.0</ele><time>2026-04-04T07:51:48.106Z</time></trkpt><trkpt lat="45.055175" lon="8.3411617"><ele>229.0</ele><time>2026-04-04T07:51:49.101Z</time></trkpt><trkpt lat="45.0550667" lon="8.34109"><ele>229.0</ele><time>2026-04-04T07:51:50.104Z</time></trkpt><trkpt lat="45.0549617" lon="8.3410167"><ele>229.0</ele><time>2026-04-04T07:51:51.099Z</time></trkpt><trkpt lat="45.05486" lon="8.3409433"><ele>229.0</ele><time>2026-04-04T07:51:52.108Z</time></trkpt><trkpt lat="45.0547567" lon="8.3408767"><ele>228.79999999999998</ele><time>2026-04-04T07:51:53.102Z</time></trkpt><trkpt lat="45.054655" lon="8.340815"><ele>228.59999999999997</ele><time>2026-04-04T07:51:54.103Z</time></trkpt><trkpt lat="45.0545517" lon="8.3407617"><ele>228.4</ele><time>2026-04-04T07:51:55.105Z</time></trkpt><trkpt lat="45.0544533" lon="8.3406933"><ele>228.2</ele><time>2026-04-04T07:51:56.103Z</time></trkpt><trkpt lat="45.0543633" lon="8.34061"><ele>228.0</ele><time>2026-04-04T07:51:57.101Z</time></trkpt><trkpt lat="45.0542733" lon="8.3405267"><ele>228.0</ele><time>2026-04-04T07:51:58.1Z</time></trkpt><trkpt lat="45.05418" lon="8.3404433"><ele>228.0</ele><time>2026-04-04T07:51:59.103Z</time></trkpt><trkpt lat="45.0540917" lon="8.34035"><ele>228.0</ele><time>2026-04-04T07:52:00.102Z</time></trkpt><trkpt lat="45.054" lon="8.3402517"><ele>228.0</ele><time>2026-04-04T07:52:01.106Z</time></trkpt><trkpt lat="45.0539083" lon="8.3401567"><ele>228.0</ele><time>2026-04-04T07:52:02.106Z</time></trkpt><trkpt lat="45.053815" lon="8.3400617"><ele>226.5</ele><time>2026-04-04T07:52:03.109Z</time></trkpt><trkpt lat="45.0537283" lon="8.33995"><ele>225.0</ele><time>2026-04-04T07:52:04.105Z</time></trkpt><trkpt lat="45.0536467" lon="8.3398217"><ele>223.5</ele><time>2026-04-04T07:52:05.102Z</time></trkpt><trkpt lat="45.0535633" lon="8.3397167"><ele>222.0</ele><time>2026-04-04T07:52:06.106Z</time></trkpt><trkpt lat="45.053485" lon="8.3396167"><ele>222.0</ele><time>2026-04-04T07:52:07.103Z</time></trkpt><trkpt lat="45.05341" lon="8.3395283"><ele>222.0</ele><time>2026-04-04T07:52:08.105Z</time></trkpt><trkpt lat="45.0533433" lon="8.3394533"><ele>222.0</ele><time>2026-04-04T07:52:09.1Z</time></trkpt><trkpt lat="45.0532683" lon="8.3393867"><ele>222.0</ele><time>2026-04-04T07:52:10.104Z</time></trkpt><trkpt lat="45.0531883" lon="8.3393017"><ele>222.0</ele><time>2026-04-04T07:52:11.097Z</time></trkpt><trkpt lat="45.0531117" lon="8.3392117"><ele>219.8</ele><time>2026-04-04T07:52:12.097Z</time></trkpt><trkpt lat="45.053045" lon="8.3391133"><ele>217.6</ele><time>2026-04-04T07:52:13.1Z</time></trkpt><trkpt lat="45.053" lon="8.3389833"><ele>215.4</ele><time>2026-04-04T07:52:14.099Z</time></trkpt><trkpt lat="45.0529683" lon="8.3388483"><ele>213.20000000000002</ele><time>2026-04-04T07:52:15.096Z</time></trkpt><trkpt lat="45.0529567" lon="8.3386967"><ele>211.0</ele><time>2026-04-04T07:52:16.101Z</time></trkpt><trkpt lat="45.052935" lon="8.3385983"><ele>211.0</ele><time>2026-04-04T07:52:17.1Z</time></trkpt><trkpt lat="45.0529117" lon="8.338515"><ele>211.0</ele><time>2026-04-04T07:52:18.099Z</time></trkpt><trkpt lat="45.0528483" lon="8.338525"><ele>211.0</ele><time>2026-04-04T07:52:21.1Z</time></trkpt><trkpt lat="45.05278" lon="8.3386133"><ele>211.0</ele><time>2026-04-04T07:52:23.101Z</time></trkpt><trkpt lat="45.052735" lon="8.33884"><ele>211.0</ele><time>2026-04-04T07:52:24.102Z</time></trkpt><trkpt lat="45.0526883" lon="8.33892"><ele>210.99999999999997</ele><time>2026-04-04T07:52:25.106Z</time></trkpt><trkpt lat="45.0526667" lon="8.3390183"><ele>211.0</ele><time>2026-04-04T07:52:26.104Z</time></trkpt><trkpt lat="45.05263" lon="8.3390983"><ele>211.0</ele><time>2026-04-04T07:52:27.1Z</time></trkpt><trkpt lat="45.052615" lon="8.339245"><ele>211.0</ele><time>2026-04-04T07:52:29.103Z</time></trkpt><trkpt lat="45.0526183" lon="8.33938"><ele>210.99999999999997</ele><time>2026-04-04T07:52:31.102Z</time></trkpt><trkpt lat="45.0526367" lon="8.3394667"><ele>211.0</ele><time>2026-04-04T07:52:32.101Z</time></trkpt><trkpt lat="45.05259" lon="8.3396317"><ele>211.99999999999997</ele><time>2026-04-04T07:52:34.103Z</time></trkpt><trkpt lat="45.05257" lon="8.339735"><ele>213.0</ele><time>2026-04-04T07:52:35.108Z</time></trkpt><trkpt lat="45.0525533" lon="8.3398533"><ele>214.0</ele><time>2026-04-04T07:52:36.102Z</time></trkpt><trkpt lat="45.0525267" lon="8.3399767"><ele>215.0</ele><time>2026-04-04T07:52:37.106Z</time></trkpt><trkpt lat="45.052505" lon="8.3401083"><ele>215.99999999999997</ele><time>2026-04-04T07:52:38.103Z</time></trkpt><trkpt lat="45.052485" lon="8.3402333"><ele>217.0</ele><time>2026-04-04T07:52:39.105Z</time></trkpt><trkpt lat="45.0524633" lon="8.340355"><ele>217.0</ele><time>2026-04-04T07:52:40.1Z</time></trkpt><trkpt lat="45.05245" lon="8.3404817"><ele>217.0</ele><time>2026-04-04T07:52:41.106Z</time></trkpt><trkpt lat="45.0524333" lon="8.3406133"><ele>217.0</ele><time>2026-04-04T07:52:42.102Z</time></trkpt><trkpt lat="45.0524217" lon="8.3407417"><ele>217.0</ele><time>2026-04-04T07:52:43.106Z</time></trkpt><trkpt lat="45.0523967" lon="8.34086"><ele>217.0</ele><time>2026-04-04T07:52:44.103Z</time></trkpt><trkpt lat="45.0523667" lon="8.3409833"><ele>218.0</ele><time>2026-04-04T07:52:45.103Z</time></trkpt><trkpt lat="45.05233" lon="8.3411033"><ele>219.0</ele><time>2026-04-04T07:52:46.1Z</time></trkpt><trkpt lat="45.0522883" lon="8.3412233"><ele>220.0</ele><time>2026-04-04T07:52:47.105Z</time></trkpt><trkpt lat="45.05225" lon="8.3413467"><ele>221.0</ele><time>2026-04-04T07:52:48.103Z</time></trkpt><trkpt lat="45.0522167" lon="8.3414783"><ele>222.0</ele><time>2026-04-04T07:52:49.104Z</time></trkpt><trkpt lat="45.0521817" lon="8.34161"><ele>223.6</ele><time>2026-04-04T07:52:50.104Z</time></trkpt><trkpt lat="45.0521433" lon="8.34174"><ele>225.2</ele><time>2026-04-04T07:52:51.108Z</time></trkpt><trkpt lat="45.0521" lon="8.3418667"><ele>226.8</ele><time>2026-04-04T07:52:52.108Z</time></trkpt><trkpt lat="45.0520583" lon="8.342"><ele>228.4</ele><time>2026-04-04T07:52:53.101Z</time></trkpt><trkpt lat="45.052015" lon="8.3421367"><ele>230.0</ele><time>2026-04-04T07:52:54.102Z</time></trkpt><trkpt lat="45.0519683" lon="8.3422717"><ele>231.75</ele><time>2026-04-04T07:52:55.103Z</time></trkpt><trkpt lat="45.0519217" lon="8.3424083"><ele>233.5</ele><time>2026-04-04T07:52:56.1Z</time></trkpt><trkpt lat="45.0518717" lon="8.342545"><ele>235.25</ele><time>2026-04-04T07:52:57.102Z</time></trkpt><trkpt lat="45.05182" lon="8.3426917"><ele>237.0</ele><time>2026-04-04T07:52:58.099Z</time></trkpt><trkpt lat="45.0517633" lon="8.3428433"><ele>237.0</ele><time>2026-04-04T07:52:59.104Z</time></trkpt><trkpt lat="45.0517067" lon="8.342995"><ele>237.0</ele><time>2026-04-04T07:53:00.101Z</time></trkpt><trkpt lat="45.0516467" lon="8.343135"><ele>237.0</ele><time>2026-04-04T07:53:01.101Z</time></trkpt><trkpt lat="45.0515817" lon="8.343265"><ele>237.0</ele><time>2026-04-04T07:53:02.102Z</time></trkpt><trkpt lat="45.0515183" lon="8.3433883"><ele>235.6</ele><time>2026-04-04T07:53:03.1Z</time></trkpt><trkpt lat="45.0514533" lon="8.3434967"><ele>234.2</ele><time>2026-04-04T07:53:04.101Z</time></trkpt><trkpt lat="45.0513733" lon="8.343575"><ele>232.8</ele><time>2026-04-04T07:53:05.099Z</time></trkpt><trkpt lat="45.051285" lon="8.3436417"><ele>231.4</ele><time>2026-04-04T07:53:06.101Z</time></trkpt><trkpt lat="45.0511933" lon="8.3437067"><ele>230.0</ele><time>2026-04-04T07:53:07.101Z</time></trkpt><trkpt lat="45.0510983" lon="8.3437733"><ele>230.00000000000003</ele><time>2026-04-04T07:53:08.102Z</time></trkpt><trkpt lat="45.0510067" lon="8.3438417"><ele>230.0</ele><time>2026-04-04T07:53:09.102Z</time></trkpt><trkpt lat="45.050925" lon="8.3439117"><ele>230.0</ele><time>2026-04-04T07:53:10.106Z</time></trkpt><trkpt lat="45.0508667" lon="8.34399"><ele>230.0</ele><time>2026-04-04T07:53:11.108Z</time></trkpt><trkpt lat="45.0508133" lon="8.3440667"><ele>230.00000000000003</ele><time>2026-04-04T07:53:12.113Z</time></trkpt><trkpt lat="45.0507783" lon="8.344155"><ele>230.0</ele><time>2026-04-04T07:53:13.111Z</time></trkpt><trkpt lat="45.0507817" lon="8.3442567"><ele>229.6</ele><time>2026-04-04T07:53:14.107Z</time></trkpt><trkpt lat="45.0508217" lon="8.3443683"><ele>229.2</ele><time>2026-04-04T07:53:15.101Z</time></trkpt><trkpt lat="45.0508717" lon="8.3444617"><ele>228.8</ele><time>2026-04-04T07:53:16.104Z</time></trkpt><trkpt lat="45.0509533" lon="8.3445683"><ele>228.4</ele><time>2026-04-04T07:53:17.106Z</time></trkpt><trkpt lat="45.0510583" lon="8.344695"><ele>228.0</ele><time>2026-04-04T07:53:18.102Z</time></trkpt><trkpt lat="45.0511367" lon="8.34482"><ele>227.4</ele><time>2026-04-04T07:53:19.099Z</time></trkpt><trkpt lat="45.0512017" lon="8.34494"><ele>226.8</ele><time>2026-04-04T07:53:20.103Z</time></trkpt><trkpt lat="45.0512533" lon="8.3450617"><ele>226.2</ele><time>2026-04-04T07:53:21.099Z</time></trkpt><trkpt lat="45.0513" lon="8.3451833"><ele>225.6</ele><time>2026-04-04T07:53:22.103Z</time></trkpt><trkpt lat="45.0513333" lon="8.3453017"><ele>225.0</ele><time>2026-04-04T07:53:23.11Z</time></trkpt><trkpt lat="45.0513567" lon="8.34541"><ele>225.0</ele><time>2026-04-04T07:53:24.101Z</time></trkpt><trkpt lat="45.051365" lon="8.3455033"><ele>225.0</ele><time>2026-04-04T07:53:25.101Z</time></trkpt><trkpt lat="45.051285" lon="8.345515"><ele>225.0</ele><time>2026-04-04T07:53:27.101Z</time></trkpt><trkpt lat="45.0511867" lon="8.3454383"><ele>225.0</ele><time>2026-04-04T07:53:29.103Z</time></trkpt><trkpt lat="45.0511233" lon="8.3453183"><ele>225.0</ele><time>2026-04-04T07:53:30.101Z</time></trkpt><trkpt lat="45.05106" lon="8.3452167"><ele>225.0</ele><time>2026-04-04T07:53:31.101Z</time></trkpt><trkpt lat="45.050975" lon="8.3451"><ele>225.0</ele><time>2026-04-04T07:53:32.103Z</time></trkpt><trkpt lat="45.0508767" lon="8.3449817"><ele>225.0</ele><time>2026-04-04T07:53:33.102Z</time></trkpt><trkpt lat="45.0507833" lon="8.3448683"><ele>225.0</ele><time>2026-04-04T07:53:34.1Z</time></trkpt><trkpt lat="45.0506867" lon="8.34476"><ele>223.0</ele><time>2026-04-04T07:53:35.106Z</time></trkpt><trkpt lat="45.0505917" lon="8.3446483"><ele>221.0</ele><time>2026-04-04T07:53:36.11Z</time></trkpt><trkpt lat="45.0505067" lon="8.3445367"><ele>219.0</ele><time>2026-04-04T07:53:37.105Z</time></trkpt><trkpt lat="45.0504117" lon="8.3444417"><ele>217.0</ele><time>2026-04-04T07:53:38.105Z</time></trkpt><trkpt lat="45.0503133" lon="8.3443683"><ele>217.0</ele><time>2026-04-04T07:53:39.107Z</time></trkpt><trkpt lat="45.0502117" lon="8.3443217"><ele>217.0</ele><time>2026-04-04T07:53:40.106Z</time></trkpt><trkpt lat="45.0501017" lon="8.344285"><ele>217.0</ele><time>2026-04-04T07:53:41.106Z</time></trkpt><trkpt lat="45.0499917" lon="8.344255"><ele>217.0</ele><time>2026-04-04T07:53:42.101Z</time></trkpt><trkpt lat="45.0498883" lon="8.3442017"><ele>217.0</ele><time>2026-04-04T07:53:43.099Z</time></trkpt><trkpt lat="45.0497967" lon="8.3441217"><ele>215.25</ele><time>2026-04-04T07:53:44.105Z</time></trkpt><trkpt lat="45.0497117" lon="8.34402"><ele>213.5</ele><time>2026-04-04T07:53:45.099Z</time></trkpt><trkpt lat="45.049625" lon="8.34392"><ele>211.75</ele><time>2026-04-04T07:53:46.106Z</time></trkpt><trkpt lat="45.049525" lon="8.3438317"><ele>210.0</ele><time>2026-04-04T07:53:47.102Z</time></trkpt><trkpt lat="45.0494133" lon="8.3437383"><ele>210.0</ele><time>2026-04-04T07:53:48.1Z</time></trkpt><trkpt lat="45.0492933" lon="8.3436583"><ele>210.0</ele><time>2026-04-04T07:53:49.102Z</time></trkpt><trkpt lat="45.04917" lon="8.3435783"><ele>210.0</ele><time>2026-04-04T07:53:50.1Z</time></trkpt><trkpt lat="45.049035" lon="8.3434967"><ele>210.0</ele><time>2026-04-04T07:53:51.1Z</time></trkpt><trkpt lat="45.0488917" lon="8.3434217"><ele>208.0</ele><time>2026-04-04T07:53:52.103Z</time></trkpt><trkpt lat="45.0487517" lon="8.34334"><ele>206.0</ele><time>2026-04-04T07:53:53.104Z</time></trkpt><trkpt lat="45.0486167" lon="8.3432533"><ele>204.0</ele><time>2026-04-04T07:53:54.099Z</time></trkpt><trkpt lat="45.0484867" lon="8.3431633"><ele>202.0</ele><time>2026-04-04T07:53:55.105Z</time></trkpt><trkpt lat="45.0483683" lon="8.3430617"><ele>200.6</ele><time>2026-04-04T07:53:56.105Z</time></trkpt><trkpt lat="45.0482667" lon="8.3429617"><ele>199.2</ele><time>2026-04-04T07:53:57.106Z</time></trkpt><trkpt lat="45.0481833" lon="8.3428833"><ele>197.8</ele><time>2026-04-04T07:53:58.104Z</time></trkpt><trkpt lat="45.0481167" lon="8.3428267"><ele>196.4</ele><time>2026-04-04T07:53:59.1Z</time></trkpt><trkpt lat="45.0480283" lon="8.3427567"><ele>195.0</ele><time>2026-04-04T07:54:01.102Z</time></trkpt><trkpt lat="45.0479433" lon="8.3427583"><ele>195.0</ele><time>2026-04-04T07:54:04.101Z</time></trkpt><trkpt lat="45.0478083" lon="8.3429083"><ele>195.0</ele><time>2026-04-04T07:54:06.101Z</time></trkpt><trkpt lat="45.0476983" lon="8.34306"><ele>195.0</ele><time>2026-04-04T07:54:07.099Z</time></trkpt><trkpt lat="45.047575" lon="8.343235"><ele>194.0</ele><time>2026-04-04T07:54:08.106Z</time></trkpt><trkpt lat="45.0474183" lon="8.34346"><ele>193.0</ele><time>2026-04-04T07:54:09.1Z</time></trkpt><trkpt lat="45.0472317" lon="8.3437117"><ele>194.0</ele><time>2026-04-04T07:54:10.1Z</time></trkpt><trkpt lat="45.047025" lon="8.343965"><ele>195.0</ele><time>2026-04-04T07:54:11.1Z</time></trkpt><trkpt lat="45.0468333" lon="8.3441933"><ele>195.0</ele><time>2026-04-04T07:54:12.107Z</time></trkpt><trkpt lat="45.0466667" lon="8.344385"><ele>195.0</ele><time>2026-04-04T07:54:13.101Z</time></trkpt><trkpt lat="45.0465183" lon="8.34457"><ele>195.0</ele><time>2026-04-04T07:54:14.106Z</time></trkpt><trkpt lat="45.0463717" lon="8.3447533"><ele>194.0</ele><time>2026-04-04T07:54:15.099Z</time></trkpt><trkpt lat="45.0462333" lon="8.344935"><ele>193.0</ele><time>2026-04-04T07:54:16.102Z</time></trkpt><trkpt lat="45.0460883" lon="8.34511"><ele>192.0</ele><time>2026-04-04T07:54:17.1Z</time></trkpt><trkpt lat="45.0459467" lon="8.3452917"><ele>192.0</ele><time>2026-04-04T07:54:18.099Z</time></trkpt><trkpt lat="45.0457983" lon="8.34547"><ele>192.0</ele><time>2026-04-04T07:54:19.105Z</time></trkpt><trkpt lat="45.0456533" lon="8.3456483"><ele>192.0</ele><time>2026-04-04T07:54:20.101Z</time></trkpt><trkpt lat="45.0455083" lon="8.3458283"><ele>192.33333333333331</ele><time>2026-04-04T07:54:21.103Z</time></trkpt><trkpt lat="45.0453617" lon="8.3460083"><ele>192.66666666666666</ele><time>2026-04-04T07:54:22.101Z</time></trkpt><trkpt lat="45.0452167" lon="8.34619"><ele>193.0</ele><time>2026-04-04T07:54:23.104Z</time></trkpt><trkpt lat="45.04507" lon="8.3463733"><ele>192.66666666666666</ele><time>2026-04-04T07:54:24.103Z</time></trkpt><trkpt lat="45.0449167" lon="8.34655"><ele>192.33333333333331</ele><time>2026-04-04T07:54:25.1Z</time></trkpt><trkpt lat="45.0447533" lon="8.346715"><ele>192.0</ele><time>2026-04-04T07:54:26.104Z</time></trkpt><trkpt lat="45.0445817" lon="8.3468667"><ele>192.0</ele><time>2026-04-04T07:54:27.1Z</time></trkpt><trkpt lat="45.0444" lon="8.3469867"><ele>192.0</ele><time>2026-04-04T07:54:28.102Z</time></trkpt><trkpt lat="45.0442117" lon="8.347085"><ele>192.0</ele><time>2026-04-04T07:54:29.107Z</time></trkpt><trkpt lat="45.0440167" lon="8.3471533"><ele>190.66666666666666</ele><time>2026-04-04T07:54:30.106Z</time></trkpt><trkpt lat="45.0438233" lon="8.347195"><ele>189.33333333333331</ele><time>2026-04-04T07:54:31.104Z</time></trkpt><trkpt lat="45.0436317" lon="8.3472283"><ele>188.0</ele><time>2026-04-04T07:54:32.104Z</time></trkpt><trkpt lat="45.0434433" lon="8.347265"><ele>189.33333333333331</ele><time>2026-04-04T07:54:33.105Z</time></trkpt><trkpt lat="45.043255" lon="8.3473083"><ele>190.66666666666666</ele><time>2026-04-04T07:54:34.102Z</time></trkpt><trkpt lat="45.04307" lon="8.347365"><ele>192.0</ele><time>2026-04-04T07:54:35.103Z</time></trkpt><trkpt lat="45.0428917" lon="8.3474283"><ele>192.0</ele><time>2026-04-04T07:54:36.105Z</time></trkpt><trkpt lat="45.0427133" lon="8.347495"><ele>192.0</ele><time>2026-04-04T07:54:37.102Z</time></trkpt><trkpt lat="45.042535" lon="8.3475583"><ele>192.0</ele><time>2026-04-04T07:54:38.098Z</time></trkpt><trkpt lat="45.04236" lon="8.3476217"><ele>190.66666666666666</ele><time>2026-04-04T07:54:39.105Z</time></trkpt><trkpt lat="45.0421817" lon="8.34769"><ele>189.33333333333331</ele><time>2026-04-04T07:54:40.102Z</time></trkpt><trkpt lat="45.042005" lon="8.3477567"><ele>188.0</ele><time>2026-04-04T07:54:41.105Z</time></trkpt><trkpt lat="45.0418217" lon="8.3478117"><ele>188.0</ele><time>2026-04-04T07:54:42.101Z</time></trkpt><trkpt lat="45.0416433" lon="8.3478767"><ele>188.0</ele><time>2026-04-04T07:54:43.104Z</time></trkpt><trkpt lat="45.0414667" lon="8.3479467"><ele>188.0</ele><time>2026-04-04T07:54:44.102Z</time></trkpt><trkpt lat="45.041295" lon="8.3480283"><ele>187.66666666666666</ele><time>2026-04-04T07:54:45.102Z</time></trkpt><trkpt lat="45.041135" lon="8.34813"><ele>187.33333333333334</ele><time>2026-04-04T07:54:46.108Z</time></trkpt><trkpt lat="45.0410017" lon="8.3482617"><ele>187.0</ele><time>2026-04-04T07:54:47.103Z</time></trkpt><trkpt lat="45.0408917" lon="8.3484117"><ele>186.75</ele><time>2026-04-04T07:54:48.104Z</time></trkpt><trkpt lat="45.040785" lon="8.3485533"><ele>186.5</ele><time>2026-04-04T07:54:49.102Z</time></trkpt><trkpt lat="45.040685" lon="8.3486783"><ele>186.25</ele><time>2026-04-04T07:54:50.102Z</time></trkpt><trkpt lat="45.04058" lon="8.3487983"><ele>186.0</ele><time>2026-04-04T07:54:51.101Z</time></trkpt><trkpt lat="45.04047" lon="8.3489167"><ele>186.0</ele><time>2026-04-04T07:54:52.104Z</time></trkpt><trkpt lat="45.0403533" lon="8.3490483"><ele>186.0</ele><time>2026-04-04T07:54:53.101Z</time></trkpt><trkpt lat="45.0402367" lon="8.3491967"><ele>186.0</ele><time>2026-04-04T07:54:54.107Z</time></trkpt><trkpt lat="45.0401167" lon="8.3493533"><ele>186.0</ele><time>2026-04-04T07:54:55.102Z</time></trkpt><trkpt lat="45.039995" lon="8.349515"><ele>186.0</ele><time>2026-04-04T07:54:56.105Z</time></trkpt><trkpt lat="45.0398683" lon="8.349675"><ele>186.0</ele><time>2026-04-04T07:54:57.101Z</time></trkpt><trkpt lat="45.03974" lon="8.3498433"><ele>184.33333333333334</ele><time>2026-04-04T07:54:58.099Z</time></trkpt><trkpt lat="45.0396083" lon="8.3500017"><ele>182.66666666666669</ele><time>2026-04-04T07:54:59.104Z</time></trkpt><trkpt lat="45.03948" lon="8.3501517"><ele>181.0</ele><time>2026-04-04T07:55:00.104Z</time></trkpt><trkpt lat="45.0393467" lon="8.350295"><ele>181.0</ele><time>2026-04-04T07:55:01.108Z</time></trkpt><trkpt lat="45.0392133" lon="8.3504317"><ele>181.0</ele><time>2026-04-04T07:55:02.103Z</time></trkpt><trkpt lat="45.03908" lon="8.35057"><ele>181.0</ele><time>2026-04-04T07:55:03.104Z</time></trkpt><trkpt lat="45.0389433" lon="8.3507083"><ele>180.33333333333334</ele><time>2026-04-04T07:55:04.104Z</time></trkpt><trkpt lat="45.038815" lon="8.3508467"><ele>179.66666666666666</ele><time>2026-04-04T07:55:05.103Z</time></trkpt><trkpt lat="45.038685" lon="8.35098"><ele>179.0</ele><time>2026-04-04T07:55:06.103Z</time></trkpt><trkpt lat="45.0385667" lon="8.35113"><ele>179.0</ele><time>2026-04-04T07:55:07.101Z</time></trkpt><trkpt lat="45.03847" lon="8.3512983"><ele>179.0</ele><time>2026-04-04T07:55:08.104Z</time></trkpt><trkpt lat="45.0383917" lon="8.3514917"><ele>179.0</ele><time>2026-04-04T07:55:09.102Z</time></trkpt><trkpt lat="45.0383267" lon="8.351705"><ele>178.0</ele><time>2026-04-04T07:55:10.101Z</time></trkpt><trkpt lat="45.03827" lon="8.3519383"><ele>177.0</ele><time>2026-04-04T07:55:11.098Z</time></trkpt><trkpt lat="45.038215" lon="8.3521867"><ele>176.0</ele><time>2026-04-04T07:55:12.104Z</time></trkpt><trkpt lat="45.0381617" lon="8.3524433"><ele>175.0</ele><time>2026-04-04T07:55:13.101Z</time></trkpt><trkpt lat="45.0381083" lon="8.352695"><ele>174.0</ele><time>2026-04-04T07:55:14.1Z</time></trkpt><trkpt lat="45.0380567" lon="8.3529517"><ele>173.0</ele><time>2026-04-04T07:55:15.101Z</time></trkpt><trkpt lat="45.038005" lon="8.3532117"><ele>172.66666666666666</ele><time>2026-04-04T07:55:16.105Z</time></trkpt><trkpt lat="45.0379517" lon="8.3534717"><ele>172.33333333333334</ele><time>2026-04-04T07:55:17.101Z</time></trkpt><trkpt lat="45.0378983" lon="8.35374"><ele>172.0</ele><time>2026-04-04T07:55:18.098Z</time></trkpt><trkpt lat="45.03784" lon="8.3540033"><ele>172.0</ele><time>2026-04-04T07:55:19.101Z</time></trkpt><trkpt lat="45.0377833" lon="8.3542717"><ele>172.0</ele><time>2026-04-04T07:55:20.102Z</time></trkpt><trkpt lat="45.0377267" lon="8.3545467"><ele>172.0</ele><time>2026-04-04T07:55:21.1Z</time></trkpt><trkpt lat="45.0376717" lon="8.354825"><ele>172.0</ele><time>2026-04-04T07:55:22.104Z</time></trkpt><trkpt lat="45.037615" lon="8.3551017"><ele>172.0</ele><time>2026-04-04T07:55:23.103Z</time></trkpt><trkpt lat="45.0375567" lon="8.3553783"><ele>172.0</ele><time>2026-04-04T07:55:24.102Z</time></trkpt><trkpt lat="45.0374983" lon="8.3556517"><ele>171.66666666666669</ele><time>2026-04-04T07:55:25.1Z</time></trkpt><trkpt lat="45.0374417" lon="8.35592"><ele>171.33333333333334</ele><time>2026-04-04T07:55:26.107Z</time></trkpt><trkpt lat="45.0373833" lon="8.3561883"><ele>171.0</ele><time>2026-04-04T07:55:27.102Z</time></trkpt><trkpt lat="45.0373233" lon="8.3564567"><ele>171.0</ele><time>2026-04-04T07:55:28.103Z</time></trkpt><trkpt lat="45.037255" lon="8.3567167"><ele>171.0</ele><time>2026-04-04T07:55:29.1Z</time></trkpt><trkpt lat="45.0371767" lon="8.3569683"><ele>171.0</ele><time>2026-04-04T07:55:30.105Z</time></trkpt><trkpt lat="45.0370867" lon="8.357215"><ele>171.33333333333334</ele><time>2026-04-04T07:55:31.108Z</time></trkpt><trkpt lat="45.0369667" lon="8.35744"><ele>171.66666666666669</ele><time>2026-04-04T07:55:32.098Z</time></trkpt><trkpt lat="45.0368267" lon="8.3576517"><ele>172.0</ele><time>2026-04-04T07:55:33.097Z</time></trkpt><trkpt lat="45.0366817" lon="8.3578633"><ele>171.66666666666669</ele><time>2026-04-04T07:55:34.105Z</time></trkpt><trkpt lat="45.0365283" lon="8.3580667"><ele>171.33333333333334</ele><time>2026-04-04T07:55:35.098Z</time></trkpt><trkpt lat="45.036375" lon="8.3582767"><ele>171.0</ele><time>2026-04-04T07:55:36.108Z</time></trkpt><trkpt lat="45.0362267" lon="8.3584933"><ele>171.0</ele><time>2026-04-04T07:55:37.099Z</time></trkpt><trkpt lat="45.0360783" lon="8.3587133"><ele>171.0</ele><time>2026-04-04T07:55:38.112Z</time></trkpt><trkpt lat="45.03593" lon="8.35893"><ele>171.0</ele><time>2026-04-04T07:55:39.098Z</time></trkpt><trkpt lat="45.0357733" lon="8.3591483"><ele>170.66666666666666</ele><time>2026-04-04T07:55:40.099Z</time></trkpt><trkpt lat="45.03562" lon="8.3593583"><ele>170.33333333333331</ele><time>2026-04-04T07:55:41.11Z</time></trkpt><trkpt lat="45.035465" lon="8.3595717"><ele>170.0</ele><time>2026-04-04T07:55:42.099Z</time></trkpt><trkpt lat="45.0353067" lon="8.3597767"><ele>170.0</ele><time>2026-04-04T07:55:43.102Z</time></trkpt><trkpt lat="45.0351467" lon="8.3599733"><ele>170.0</ele><time>2026-04-04T07:55:44.101Z</time></trkpt><trkpt lat="45.03499" lon="8.3601733"><ele>170.0</ele><time>2026-04-04T07:55:45.096Z</time></trkpt><trkpt lat="45.0348317" lon="8.3603667"><ele>170.33333333333331</ele><time>2026-04-04T07:55:46.1Z</time></trkpt><trkpt lat="45.034675" lon="8.3605583"><ele>170.66666666666666</ele><time>2026-04-04T07:55:47.105Z</time></trkpt><trkpt lat="45.0345183" lon="8.3607433"><ele>171.0</ele><time>2026-04-04T07:55:48.105Z</time></trkpt><trkpt lat="45.0343533" lon="8.3609167"><ele>171.0</ele><time>2026-04-04T07:55:49.105Z</time></trkpt><trkpt lat="45.034185" lon="8.3610817"><ele>171.0</ele><time>2026-04-04T07:55:50.101Z</time></trkpt><trkpt lat="45.0340117" lon="8.3612367"><ele>171.0</ele><time>2026-04-04T07:55:51.099Z</time></trkpt><trkpt lat="45.03384" lon="8.3613833"><ele>171.0</ele><time>2026-04-04T07:55:52.098Z</time></trkpt><trkpt lat="45.03367" lon="8.3615233"><ele>171.0</ele><time>2026-04-04T07:55:53.103Z</time></trkpt><trkpt lat="45.0335133" lon="8.3616733"><ele>171.0</ele><time>2026-04-04T07:55:54.108Z</time></trkpt><trkpt lat="45.0333683" lon="8.3618483"><ele>170.0</ele><time>2026-04-04T07:55:55.099Z</time></trkpt><trkpt lat="45.0332333" lon="8.36205"><ele>169.0</ele><time>2026-04-04T07:55:56.103Z</time></trkpt><trkpt lat="45.0331" lon="8.362265"><ele>168.0</ele><time>2026-04-04T07:55:57.102Z</time></trkpt><trkpt lat="45.0329667" lon="8.3624833"><ele>168.0</ele><time>2026-04-04T07:55:58.1Z</time></trkpt><trkpt lat="45.0328233" lon="8.3626983"><ele>168.0</ele><time>2026-04-04T07:55:59.11Z</time></trkpt><trkpt lat="45.0326933" lon="8.3629167"><ele>168.0</ele><time>2026-04-04T07:56:00.101Z</time></trkpt><trkpt lat="45.0325567" lon="8.3631333"><ele>167.0</ele><time>2026-04-04T07:56:01.1Z</time></trkpt><trkpt lat="45.032425" lon="8.3633433"><ele>166.0</ele><time>2026-04-04T07:56:02.103Z</time></trkpt><trkpt lat="45.03228" lon="8.3635483"><ele>165.0</ele><time>2026-04-04T07:56:03.105Z</time></trkpt><trkpt lat="45.032135" lon="8.363755"><ele>166.66666666666666</ele><time>2026-04-04T07:56:04.101Z</time></trkpt><trkpt lat="45.031995" lon="8.36396"><ele>168.33333333333331</ele><time>2026-04-04T07:56:05.102Z</time></trkpt><trkpt lat="45.0318517" lon="8.364165"><ele>170.0</ele><time>2026-04-04T07:56:06.103Z</time></trkpt><trkpt lat="45.031705" lon="8.3643717"><ele>168.0</ele><time>2026-04-04T07:56:07.104Z</time></trkpt><trkpt lat="45.0315533" lon="8.3645733"><ele>166.0</ele><time>2026-04-04T07:56:08.101Z</time></trkpt><trkpt lat="45.0314" lon="8.3647683"><ele>164.0</ele><time>2026-04-04T07:56:09.101Z</time></trkpt><trkpt lat="45.03125" lon="8.364975"><ele>164.0</ele><time>2026-04-04T07:56:10.105Z</time></trkpt><trkpt lat="45.0310967" lon="8.3651867"><ele>164.0</ele><time>2026-04-04T07:56:11.106Z</time></trkpt><trkpt lat="45.0309433" lon="8.3654017"><ele>164.0</ele><time>2026-04-04T07:56:12.101Z</time></trkpt><trkpt lat="45.0307833" lon="8.3656117"><ele>163.33333333333331</ele><time>2026-04-04T07:56:13.102Z</time></trkpt><trkpt lat="45.03063" lon="8.365815"><ele>162.66666666666666</ele><time>2026-04-04T07:56:14.107Z</time></trkpt><trkpt lat="45.03048" lon="8.3660183"><ele>162.0</ele><time>2026-04-04T07:56:15.101Z</time></trkpt><trkpt lat="45.0303333" lon="8.36622"><ele>161.66666666666666</ele><time>2026-04-04T07:56:16.108Z</time></trkpt><trkpt lat="45.0301817" lon="8.3664067"><ele>161.33333333333331</ele><time>2026-04-04T07:56:17.102Z</time></trkpt><trkpt lat="45.03005" lon="8.366595"><ele>161.0</ele><time>2026-04-04T07:56:18.103Z</time></trkpt><trkpt lat="45.029945" lon="8.3667983"><ele>161.0</ele><time>2026-04-04T07:56:19.106Z</time></trkpt><trkpt lat="45.0298633" lon="8.36702"><ele>161.0</ele><time>2026-04-04T07:56:20.102Z</time></trkpt><trkpt lat="45.02981" lon="8.367275"><ele>161.0</ele><time>2026-04-04T07:56:21.102Z</time></trkpt><trkpt lat="45.0297717" lon="8.3675567"><ele>161.0</ele><time>2026-04-04T07:56:22.099Z</time></trkpt><trkpt lat="45.0297467" lon="8.36786"><ele>161.0</ele><time>2026-04-04T07:56:23.106Z</time></trkpt><trkpt lat="45.0297233" lon="8.3681833"><ele>161.0</ele><time>2026-04-04T07:56:24.109Z</time></trkpt><trkpt lat="45.0296933" lon="8.3685167"><ele>161.0</ele><time>2026-04-04T07:56:25.102Z</time></trkpt><trkpt lat="45.0296617" lon="8.368845"><ele>161.0</ele><time>2026-04-04T07:56:26.107Z</time></trkpt><trkpt lat="45.02963" lon="8.3691683"><ele>161.0</ele><time>2026-04-04T07:56:27.102Z</time></trkpt><trkpt lat="45.0295983" lon="8.3694867"><ele>161.0</ele><time>2026-04-04T07:56:28.1Z</time></trkpt><trkpt lat="45.0295667" lon="8.3697967"><ele>161.0</ele><time>2026-04-04T07:56:29.107Z</time></trkpt><trkpt lat="45.0295367" lon="8.3700967"><ele>162.33333333333331</ele><time>2026-04-04T07:56:30.1Z</time></trkpt><trkpt lat="45.0295133" lon="8.3704017"><ele>163.66666666666666</ele><time>2026-04-04T07:56:31.104Z</time></trkpt><trkpt lat="45.02949" lon="8.370705"><ele>165.0</ele><time>2026-04-04T07:56:32.1Z</time></trkpt><trkpt lat="45.0294517" lon="8.37098"><ele>165.0</ele><time>2026-04-04T07:56:33.098Z</time></trkpt><trkpt lat="45.02944" lon="8.3712867"><ele>165.0</ele><time>2026-04-04T07:56:34.107Z</time></trkpt><trkpt lat="45.029425" lon="8.3715933"><ele>165.0</ele><time>2026-04-04T07:56:35.111Z</time></trkpt><trkpt lat="45.0294067" lon="8.371895"><ele>164.0</ele><time>2026-04-04T07:56:36.115Z</time></trkpt><trkpt lat="45.0293883" lon="8.3721917"><ele>163.0</ele><time>2026-04-04T07:56:37.103Z</time></trkpt><trkpt lat="45.0293683" lon="8.3724883"><ele>162.0</ele><time>2026-04-04T07:56:38.101Z</time></trkpt><trkpt lat="45.02935" lon="8.3727867"><ele>162.0</ele><time>2026-04-04T07:56:39.101Z</time></trkpt><trkpt lat="45.0293233" lon="8.3730833"><ele>162.0</ele><time>2026-04-04T07:56:40.1Z</time></trkpt><trkpt lat="45.0292933" lon="8.373375"><ele>162.0</ele><time>2026-04-04T07:56:41.1Z</time></trkpt><trkpt lat="45.0292533" lon="8.373675"><ele>161.66666666666666</ele><time>2026-04-04T07:56:42.109Z</time></trkpt><trkpt lat="45.0292083" lon="8.3739733"><ele>161.33333333333331</ele><time>2026-04-04T07:56:43.103Z</time></trkpt><trkpt lat="45.0291617" lon="8.3742667"><ele>161.0</ele><time>2026-04-04T07:56:44.104Z</time></trkpt><trkpt lat="45.029115" lon="8.374555"><ele>159.66666666666666</ele><time>2026-04-04T07:56:45.107Z</time></trkpt><trkpt lat="45.0290633" lon="8.3748433"><ele>158.33333333333334</ele><time>2026-04-04T07:56:46.11Z</time></trkpt><trkpt lat="45.0290033" lon="8.375135"><ele>157.0</ele><time>2026-04-04T07:56:47.103Z</time></trkpt><trkpt lat="45.0289383" lon="8.3754217"><ele>156.33333333333334</ele><time>2026-04-04T07:56:48.101Z</time></trkpt><trkpt lat="45.0288667" lon="8.3757067"><ele>155.66666666666666</ele><time>2026-04-04T07:56:49.102Z</time></trkpt><trkpt lat="45.0287983" lon="8.37599"><ele>155.0</ele><time>2026-04-04T07:56:50.104Z</time></trkpt><trkpt lat="45.02873" lon="8.3762717"><ele>155.33333333333331</ele><time>2026-04-04T07:56:51.104Z</time></trkpt><trkpt lat="45.02866" lon="8.3765583"><ele>155.66666666666666</ele><time>2026-04-04T07:56:52.102Z</time></trkpt><trkpt lat="45.0285883" lon="8.3768467"><ele>156.0</ele><time>2026-04-04T07:56:53.103Z</time></trkpt><trkpt lat="45.0285167" lon="8.3771433"><ele>155.66666666666666</ele><time>2026-04-04T07:56:54.104Z</time></trkpt><trkpt lat="45.0284417" lon="8.37744"><ele>155.33333333333331</ele><time>2026-04-04T07:56:55.104Z</time></trkpt><trkpt lat="45.0283617" lon="8.377735"><ele>155.0</ele><time>2026-04-04T07:56:56.102Z</time></trkpt><trkpt lat="45.028285" lon="8.3780333"><ele>154.66666666666666</ele><time>2026-04-04T07:56:57.106Z</time></trkpt><trkpt lat="45.02821" lon="8.378335"><ele>154.33333333333334</ele><time>2026-04-04T07:56:58.103Z</time></trkpt><trkpt lat="45.0281367" lon="8.37863"><ele>154.0</ele><time>2026-04-04T07:56:59.106Z</time></trkpt><trkpt lat="45.0280683" lon="8.378925"><ele>153.33333333333334</ele><time>2026-04-04T07:57:00.109Z</time></trkpt><trkpt lat="45.027995" lon="8.3792117"><ele>152.66666666666666</ele><time>2026-04-04T07:57:01.107Z</time></trkpt><trkpt lat="45.027925" lon="8.3794967"><ele>152.0</ele><time>2026-04-04T07:57:02.105Z</time></trkpt><trkpt lat="45.027855" lon="8.379775"><ele>152.0</ele><time>2026-04-04T07:57:03.104Z</time></trkpt><trkpt lat="45.027785" lon="8.38005"><ele>152.0</ele><time>2026-04-04T07:57:04.101Z</time></trkpt><trkpt lat="45.0277117" lon="8.3803217"><ele>152.0</ele><time>2026-04-04T07:57:05.104Z</time></trkpt><trkpt lat="45.0276433" lon="8.3805933"><ele>152.0</ele><time>2026-04-04T07:57:06.104Z</time></trkpt><trkpt lat="45.0275783" lon="8.3808633"><ele>152.0</ele><time>2026-04-04T07:57:07.113Z</time></trkpt><trkpt lat="45.0275117" lon="8.3811367"><ele>152.0</ele><time>2026-04-04T07:57:08.104Z</time></trkpt><trkpt lat="45.027445" lon="8.3814067"><ele>152.0</ele><time>2026-04-04T07:57:09.105Z</time></trkpt><trkpt lat="45.0273767" lon="8.38167"><ele>152.0</ele><time>2026-04-04T07:57:10.107Z</time></trkpt><trkpt lat="45.0272983" lon="8.3819267"><ele>152.0</ele><time>2026-04-04T07:57:11.102Z</time></trkpt><trkpt lat="45.0272117" lon="8.3821783"><ele>153.33333333333331</ele><time>2026-04-04T07:57:12.104Z</time></trkpt><trkpt lat="45.027105" lon="8.382415"><ele>154.66666666666666</ele><time>2026-04-04T07:57:13.102Z</time></trkpt><trkpt lat="45.02698" lon="8.3826317"><ele>156.0</ele><time>2026-04-04T07:57:14.102Z</time></trkpt><trkpt lat="45.0268367" lon="8.38283"><ele>155.0</ele><time>2026-04-04T07:57:15.104Z</time></trkpt><trkpt lat="45.0266833" lon="8.3830233"><ele>154.0</ele><time>2026-04-04T07:57:16.106Z</time></trkpt><trkpt lat="45.02652" lon="8.38321"><ele>153.0</ele><time>2026-04-04T07:57:17.102Z</time></trkpt><trkpt lat="45.0263567" lon="8.38339"><ele>153.0</ele><time>2026-04-04T07:57:18.102Z</time></trkpt><trkpt lat="45.02619" lon="8.38356"><ele>153.0</ele><time>2026-04-04T07:57:19.104Z</time></trkpt><trkpt lat="45.0260183" lon="8.3837017"><ele>153.0</ele><time>2026-04-04T07:57:20.101Z</time></trkpt><trkpt lat="45.0258467" lon="8.38384"><ele>152.33333333333334</ele><time>2026-04-04T07:57:21.104Z</time></trkpt><trkpt lat="45.0256783" lon="8.3839533"><ele>151.66666666666669</ele><time>2026-04-04T07:57:22.107Z</time></trkpt><trkpt lat="45.02551" lon="8.3840233"><ele>151.0</ele><time>2026-04-04T07:57:23.102Z</time></trkpt><trkpt lat="45.025335" lon="8.3840533"><ele>151.0</ele><time>2026-04-04T07:57:24.101Z</time></trkpt><trkpt lat="45.0251567" lon="8.3840367"><ele>151.0</ele><time>2026-04-04T07:57:25.104Z</time></trkpt><trkpt lat="45.0249733" lon="8.3839667"><ele>151.0</ele><time>2026-04-04T07:57:26.102Z</time></trkpt><trkpt lat="45.0247867" lon="8.3838767"><ele>150.33333333333334</ele><time>2026-04-04T07:57:27.102Z</time></trkpt><trkpt lat="45.0246" lon="8.3837817"><ele>149.66666666666666</ele><time>2026-04-04T07:57:28.104Z</time></trkpt><trkpt lat="45.024405" lon="8.3836733"><ele>149.0</ele><time>2026-04-04T07:57:29.104Z</time></trkpt><trkpt lat="45.0242167" lon="8.383575"><ele>149.0</ele><time>2026-04-04T07:57:30.101Z</time></trkpt><trkpt lat="45.0240283" lon="8.3834767"><ele>149.0</ele><time>2026-04-04T07:57:31.104Z</time></trkpt><trkpt lat="45.0238467" lon="8.3833917"><ele>149.0</ele><time>2026-04-04T07:57:32.105Z</time></trkpt><trkpt lat="45.02366" lon="8.3833267"><ele>149.0</ele><time>2026-04-04T07:57:33.103Z</time></trkpt><trkpt lat="45.0234717" lon="8.3832917"><ele>149.0</ele><time>2026-04-04T07:57:34.103Z</time></trkpt><trkpt lat="45.0232833" lon="8.3832933"><ele>149.0</ele><time>2026-04-04T07:57:35.102Z</time></trkpt><trkpt lat="45.02309" lon="8.3833183"><ele>149.0</ele><time>2026-04-04T07:57:36.1Z</time></trkpt><trkpt lat="45.0228933" lon="8.38335"><ele>149.0</ele><time>2026-04-04T07:57:37.102Z</time></trkpt><trkpt lat="45.0226967" lon="8.3833933"><ele>149.0</ele><time>2026-04-04T07:57:38.105Z</time></trkpt><trkpt lat="45.0225" lon="8.3834283"><ele>149.66666666666666</ele><time>2026-04-04T07:57:39.102Z</time></trkpt><trkpt lat="45.022305" lon="8.3834667"><ele>150.33333333333334</ele><time>2026-04-04T07:57:40.102Z</time></trkpt><trkpt lat="45.02211" lon="8.3834983"><ele>151.0</ele><time>2026-04-04T07:57:41.105Z</time></trkpt><trkpt lat="45.021915" lon="8.3835317"><ele>151.0</ele><time>2026-04-04T07:57:42.103Z</time></trkpt><trkpt lat="45.021725" lon="8.38356"><ele>151.0</ele><time>2026-04-04T07:57:43.104Z</time></trkpt><trkpt lat="45.021545" lon="8.3836"><ele>151.0</ele><time>2026-04-04T07:57:44.102Z</time></trkpt><trkpt lat="45.0213717" lon="8.3836633"><ele>151.0</ele><time>2026-04-04T07:57:45.103Z</time></trkpt><trkpt lat="45.0212033" lon="8.3837567"><ele>151.0</ele><time>2026-04-04T07:57:46.103Z</time></trkpt><trkpt lat="45.02104" lon="8.3838883"><ele>151.0</ele><time>2026-04-04T07:57:47.105Z</time></trkpt><trkpt lat="45.0208967" lon="8.384065"><ele>154.33333333333334</ele><time>2026-04-04T07:57:48.104Z</time></trkpt><trkpt lat="45.0207633" lon="8.3842567"><ele>157.66666666666666</ele><time>2026-04-04T07:57:49.102Z</time></trkpt><trkpt lat="45.0206417" lon="8.38446"><ele>161.0</ele><time>2026-04-04T07:57:50.111Z</time></trkpt><trkpt lat="45.0205217" lon="8.38467"><ele>159.33333333333331</ele><time>2026-04-04T07:57:51.099Z</time></trkpt><trkpt lat="45.0204033" lon="8.3848867"><ele>157.66666666666666</ele><time>2026-04-04T07:57:52.102Z</time></trkpt><trkpt lat="45.02029" lon="8.3851167"><ele>156.0</ele><time>2026-04-04T07:57:53.108Z</time></trkpt><trkpt lat="45.0201883" lon="8.3853567"><ele>156.0</ele><time>2026-04-04T07:57:54.106Z</time></trkpt><trkpt lat="45.020085" lon="8.3856033"><ele>156.0</ele><time>2026-04-04T07:57:55.105Z</time></trkpt><trkpt lat="45.0199867" lon="8.3858517"><ele>156.0</ele><time>2026-04-04T07:57:56.103Z</time></trkpt><trkpt lat="45.0198883" lon="8.3860983"><ele>156.0</ele><time>2026-04-04T07:57:57.102Z</time></trkpt><trkpt lat="45.0197883" lon="8.3863417"><ele>156.0</ele><time>2026-04-04T07:57:58.104Z</time></trkpt><trkpt lat="45.0196883" lon="8.38658"><ele>156.0</ele><time>2026-04-04T07:57:59.102Z</time></trkpt><trkpt lat="45.01959" lon="8.3868167"><ele>156.0</ele><time>2026-04-04T07:58:00.102Z</time></trkpt><trkpt lat="45.0194917" lon="8.3870533"><ele>156.0</ele><time>2026-04-04T07:58:01.104Z</time></trkpt><trkpt lat="45.0194017" lon="8.3872917"><ele>156.0</ele><time>2026-04-04T07:58:02.103Z</time></trkpt><trkpt lat="45.019325" lon="8.3875317"><ele>156.0</ele><time>2026-04-04T07:58:03.106Z</time></trkpt><trkpt lat="45.01927" lon="8.3877783"><ele>156.0</ele><time>2026-04-04T07:58:04.102Z</time></trkpt><trkpt lat="45.01924" lon="8.3880317"><ele>156.0</ele><time>2026-04-04T07:58:05.102Z</time></trkpt><trkpt lat="45.0192317" lon="8.3882933"><ele>155.0</ele><time>2026-04-04T07:58:06.106Z</time></trkpt><trkpt lat="45.0192433" lon="8.3885517"><ele>154.0</ele><time>2026-04-04T07:58:07.109Z</time></trkpt><trkpt lat="45.0192783" lon="8.3888033"><ele>153.0</ele><time>2026-04-04T07:58:08.103Z</time></trkpt><trkpt lat="45.019325" lon="8.3890583"><ele>152.33333333333334</ele><time>2026-04-04T07:58:09.103Z</time></trkpt><trkpt lat="45.0193817" lon="8.389305"><ele>151.66666666666669</ele><time>2026-04-04T07:58:10.106Z</time></trkpt><trkpt lat="45.0194583" lon="8.3895317"><ele>151.0</ele><time>2026-04-04T07:58:11.105Z</time></trkpt><trkpt lat="45.01955" lon="8.389745"><ele>152.5</ele><time>2026-04-04T07:58:12.105Z</time></trkpt><trkpt lat="45.0196417" lon="8.3899417"><ele>154.0</ele><time>2026-04-04T07:58:13.105Z</time></trkpt><trkpt lat="45.019715" lon="8.39012"><ele>155.5</ele><time>2026-04-04T07:58:14.103Z</time></trkpt><trkpt lat="45.01977" lon="8.39027"><ele>157.0</ele><time>2026-04-04T07:58:15.099Z</time></trkpt><trkpt lat="45.019805" lon="8.3903917"><ele>157.0</ele><time>2026-04-04T07:58:16.105Z</time></trkpt><trkpt lat="45.019805" lon="8.3905067"><ele>157.0</ele><time>2026-04-04T07:58:17.102Z</time></trkpt><trkpt lat="45.0197983" lon="8.3906033"><ele>157.0</ele><time>2026-04-04T07:58:18.1Z</time></trkpt><trkpt lat="45.0196833" lon="8.3906817"><ele>157.0</ele><time>2026-04-04T07:58:20.106Z</time></trkpt><trkpt lat="45.0196067" lon="8.3907183"><ele>157.0</ele><time>2026-04-04T07:58:21.102Z</time></trkpt><trkpt lat="45.019535" lon="8.390785"><ele>157.0</ele><time>2026-04-04T07:58:22.103Z</time></trkpt><trkpt lat="45.0194683" lon="8.3908717"><ele>157.4</ele><time>2026-04-04T07:58:23.103Z</time></trkpt><trkpt lat="45.01946" lon="8.3909783"><ele>157.79999999999998</ele><time>2026-04-04T07:58:24.101Z</time></trkpt><trkpt lat="45.01951" lon="8.3911067"><ele>158.2</ele><time>2026-04-04T07:58:25.107Z</time></trkpt><trkpt lat="45.0195583" lon="8.39123"><ele>158.6</ele><time>2026-04-04T07:58:26.103Z</time></trkpt><trkpt lat="45.0196183" lon="8.39138"><ele>159.0</ele><time>2026-04-04T07:58:27.108Z</time></trkpt><trkpt lat="45.0196783" lon="8.391565"><ele>159.33333333333334</ele><time>2026-04-04T07:58:28.103Z</time></trkpt><trkpt lat="45.0197567" lon="8.3917833"><ele>159.66666666666669</ele><time>2026-04-04T07:58:29.103Z</time></trkpt><trkpt lat="45.0198317" lon="8.3920067"><ele>160.0</ele><time>2026-04-04T07:58:30.101Z</time></trkpt><trkpt lat="45.0199067" lon="8.39225"><ele>159.33333333333334</ele><time>2026-04-04T07:58:31.102Z</time></trkpt><trkpt lat="45.0199817" lon="8.3925017"><ele>158.66666666666666</ele><time>2026-04-04T07:58:32.105Z</time></trkpt><trkpt lat="45.020055" lon="8.392765"><ele>158.0</ele><time>2026-04-04T07:58:33.103Z</time></trkpt><trkpt lat="45.0201367" lon="8.3930317"><ele>158.0</ele><time>2026-04-04T07:58:34.112Z</time></trkpt><trkpt lat="45.0202167" lon="8.3932933"><ele>158.0</ele><time>2026-04-04T07:58:35.103Z</time></trkpt><trkpt lat="45.0202883" lon="8.3935583"><ele>158.0</ele><time>2026-04-04T07:58:36.098Z</time></trkpt><trkpt lat="45.0203467" lon="8.3938367"><ele>158.66666666666666</ele><time>2026-04-04T07:58:37.106Z</time></trkpt><trkpt lat="45.020425" lon="8.394085"><ele>159.33333333333334</ele><time>2026-04-04T07:58:38.098Z</time></trkpt><trkpt lat="45.0204817" lon="8.3943517"><ele>160.0</ele><time>2026-04-04T07:58:39.1Z</time></trkpt><trkpt lat="45.0205567" lon="8.3945867"><ele>161.0</ele><time>2026-04-04T07:58:40.102Z</time></trkpt><trkpt lat="45.02063" lon="8.39481"><ele>162.0</ele><time>2026-04-04T07:58:41.098Z</time></trkpt><trkpt lat="45.0206967" lon="8.39503"><ele>163.0</ele><time>2026-04-04T07:58:42.101Z</time></trkpt><trkpt lat="45.0207633" lon="8.3952417"><ele>159.0</ele><time>2026-04-04T07:58:43.102Z</time></trkpt><trkpt lat="45.0208283" lon="8.3954567"><ele>155.0</ele><time>2026-04-04T07:58:44.103Z</time></trkpt><trkpt lat="45.020895" lon="8.39567"><ele>151.0</ele><time>2026-04-04T07:58:45.103Z</time></trkpt><trkpt lat="45.0209583" lon="8.3958883"><ele>151.0</ele><time>2026-04-04T07:58:46.103Z</time></trkpt><trkpt lat="45.0210217" lon="8.39611"><ele>151.0</ele><time>2026-04-04T07:58:47.104Z</time></trkpt><trkpt lat="45.0210933" lon="8.3963317"><ele>151.0</ele><time>2026-04-04T07:58:48.104Z</time></trkpt><trkpt lat="45.0211633" lon="8.396555"><ele>150.0</ele><time>2026-04-04T07:58:49.103Z</time></trkpt><trkpt lat="45.0212333" lon="8.396785"><ele>149.0</ele><time>2026-04-04T07:58:50.102Z</time></trkpt><trkpt lat="45.0213033" lon="8.397015"><ele>148.0</ele><time>2026-04-04T07:58:51.108Z</time></trkpt><trkpt lat="45.0213767" lon="8.3972467"><ele>148.0</ele><time>2026-04-04T07:58:52.101Z</time></trkpt><trkpt lat="45.0214533" lon="8.3974783"><ele>148.0</ele><time>2026-04-04T07:58:53.099Z</time></trkpt><trkpt lat="45.0215267" lon="8.3977183"><ele>148.0</ele><time>2026-04-04T07:58:54.103Z</time></trkpt><trkpt lat="45.0216" lon="8.3979583"><ele>147.66666666666669</ele><time>2026-04-04T07:58:55.103Z</time></trkpt><trkpt lat="45.02167" lon="8.3982033"><ele>147.33333333333334</ele><time>2026-04-04T07:58:56.103Z</time></trkpt><trkpt lat="45.02174" lon="8.3984533"><ele>147.0</ele><time>2026-04-04T07:58:57.11Z</time></trkpt><trkpt lat="45.02181" lon="8.3987067"><ele>146.66666666666666</ele><time>2026-04-04T07:58:58.103Z</time></trkpt><trkpt lat="45.0218817" lon="8.3989567"><ele>146.33333333333331</ele><time>2026-04-04T07:58:59.101Z</time></trkpt><trkpt lat="45.021955" lon="8.3992117"><ele>146.0</ele><time>2026-04-04T07:59:00.103Z</time></trkpt><trkpt lat="45.02203" lon="8.39947"><ele>147.0</ele><time>2026-04-04T07:59:01.101Z</time></trkpt><trkpt lat="45.0221083" lon="8.3997283"><ele>148.0</ele><time>2026-04-04T07:59:02.102Z</time></trkpt><trkpt lat="45.0221817" lon="8.399995"><ele>149.0</ele><time>2026-04-04T07:59:03.104Z</time></trkpt><trkpt lat="45.02226" lon="8.4002633"><ele>147.66666666666666</ele><time>2026-04-04T07:59:04.102Z</time></trkpt><trkpt lat="45.0223367" lon="8.40053"><ele>146.33333333333334</ele><time>2026-04-04T07:59:05.102Z</time></trkpt><trkpt lat="45.0224167" lon="8.4007933"><ele>145.0</ele><time>2026-04-04T07:59:06.103Z</time></trkpt><trkpt lat="45.022495" lon="8.4010567"><ele>145.0</ele><time>2026-04-04T07:59:07.102Z</time></trkpt><trkpt lat="45.022575" lon="8.4013183"><ele>145.0</ele><time>2026-04-04T07:59:08.101Z</time></trkpt><trkpt lat="45.0226567" lon="8.4015817"><ele>145.0</ele><time>2026-04-04T07:59:09.103Z</time></trkpt><trkpt lat="45.0227367" lon="8.40185"><ele>145.0</ele><time>2026-04-04T07:59:10.103Z</time></trkpt><trkpt lat="45.0228133" lon="8.40212"><ele>145.0</ele><time>2026-04-04T07:59:11.1Z</time></trkpt><trkpt lat="45.0228867" lon="8.402395"><ele>145.0</ele><time>2026-04-04T07:59:12.103Z</time></trkpt><trkpt lat="45.022965" lon="8.4026717"><ele>145.0</ele><time>2026-04-04T07:59:13.106Z</time></trkpt><trkpt lat="45.02304" lon="8.4029467"><ele>145.0</ele><time>2026-04-04T07:59:14.101Z</time></trkpt><trkpt lat="45.023115" lon="8.4032183"><ele>145.0</ele><time>2026-04-04T07:59:15.108Z</time></trkpt><trkpt lat="45.0231933" lon="8.40349"><ele>145.33333333333334</ele><time>2026-04-04T07:59:16.1Z</time></trkpt><trkpt lat="45.0232733" lon="8.403765"><ele>145.66666666666666</ele><time>2026-04-04T07:59:17.107Z</time></trkpt><trkpt lat="45.0233533" lon="8.4040383"><ele>146.0</ele><time>2026-04-04T07:59:18.103Z</time></trkpt><trkpt lat="45.023435" lon="8.4043117"><ele>146.0</ele><time>2026-04-04T07:59:19.103Z</time></trkpt><trkpt lat="45.0235183" lon="8.40459"><ele>146.0</ele><time>2026-04-04T07:59:20.103Z</time></trkpt><trkpt lat="45.0236033" lon="8.40487"><ele>146.0</ele><time>2026-04-04T07:59:21.099Z</time></trkpt><trkpt lat="45.0236867" lon="8.4051467"><ele>145.0</ele><time>2026-04-04T07:59:22.108Z</time></trkpt><trkpt lat="45.0237683" lon="8.4054283"><ele>144.0</ele><time>2026-04-04T07:59:23.099Z</time></trkpt><trkpt lat="45.0238533" lon="8.4057067"><ele>143.0</ele><time>2026-04-04T07:59:24.102Z</time></trkpt><trkpt lat="45.0239417" lon="8.405985"><ele>143.66666666666666</ele><time>2026-04-04T07:59:25.099Z</time></trkpt><trkpt lat="45.0240267" lon="8.40626"><ele>144.33333333333334</ele><time>2026-04-04T07:59:26.106Z</time></trkpt><trkpt lat="45.0241083" lon="8.406545"><ele>145.0</ele><time>2026-04-04T07:59:27.1Z</time></trkpt><trkpt lat="45.0241933" lon="8.406825"><ele>145.0</ele><time>2026-04-04T07:59:28.106Z</time></trkpt><trkpt lat="45.024275" lon="8.4071033"><ele>145.0</ele><time>2026-04-04T07:59:29.103Z</time></trkpt><trkpt lat="45.0243567" lon="8.4073833"><ele>145.0</ele><time>2026-04-04T07:59:30.102Z</time></trkpt><trkpt lat="45.02444" lon="8.4076633"><ele>145.0</ele><time>2026-04-04T07:59:31.106Z</time></trkpt><trkpt lat="45.0245283" lon="8.4079417"><ele>145.0</ele><time>2026-04-04T07:59:32.103Z</time></trkpt><trkpt lat="45.0246117" lon="8.4082217"><ele>145.0</ele><time>2026-04-04T07:59:33.104Z</time></trkpt><trkpt lat="45.0246933" lon="8.4085067"><ele>144.66666666666669</ele><time>2026-04-04T07:59:34.104Z</time></trkpt><trkpt lat="45.0247783" lon="8.4087917"><ele>144.33333333333334</ele><time>2026-04-04T07:59:35.106Z</time></trkpt><trkpt lat="45.0248617" lon="8.4090767"><ele>144.0</ele><time>2026-04-04T07:59:36.103Z</time></trkpt><trkpt lat="45.024945" lon="8.4093567"><ele>142.66666666666666</ele><time>2026-04-04T07:59:37.103Z</time></trkpt><trkpt lat="45.02503" lon="8.4096383"><ele>141.33333333333331</ele><time>2026-04-04T07:59:38.104Z</time></trkpt><trkpt lat="45.025115" lon="8.40992"><ele>140.0</ele><time>2026-04-04T07:59:39.101Z</time></trkpt><trkpt lat="45.0251983" lon="8.4102017"><ele>140.0</ele><time>2026-04-04T07:59:40.105Z</time></trkpt><trkpt lat="45.02528" lon="8.410485"><ele>140.0</ele><time>2026-04-04T07:59:41.102Z</time></trkpt><trkpt lat="45.0253633" lon="8.410765"><ele>140.0</ele><time>2026-04-04T07:59:42.105Z</time></trkpt><trkpt lat="45.0254467" lon="8.4110467"><ele>140.0</ele><time>2026-04-04T07:59:43.105Z</time></trkpt><trkpt lat="45.0255283" lon="8.4113233"><ele>140.0</ele><time>2026-04-04T07:59:44.102Z</time></trkpt><trkpt lat="45.02561" lon="8.4116033"><ele>140.0</ele><time>2026-04-04T07:59:45.103Z</time></trkpt><trkpt lat="45.0256933" lon="8.4118783"><ele>140.0</ele><time>2026-04-04T07:59:46.107Z</time></trkpt><trkpt lat="45.0257783" lon="8.4121517"><ele>140.0</ele><time>2026-04-04T07:59:47.1Z</time></trkpt><trkpt lat="45.02586" lon="8.4124217"><ele>140.0</ele><time>2026-04-04T07:59:48.101Z</time></trkpt><trkpt lat="45.0259383" lon="8.4126783"><ele>140.0</ele><time>2026-04-04T07:59:49.109Z</time></trkpt><trkpt lat="45.0260267" lon="8.4129183"><ele>140.0</ele><time>2026-04-04T07:59:50.111Z</time></trkpt><trkpt lat="45.0261233" lon="8.413145"><ele>140.0</ele><time>2026-04-04T07:59:51.1Z</time></trkpt><trkpt lat="45.0262433" lon="8.4133517"><ele>139.66666666666666</ele><time>2026-04-04T07:59:52.102Z</time></trkpt><trkpt lat="45.0263883" lon="8.4135467"><ele>139.33333333333334</ele><time>2026-04-04T07:59:53.103Z</time></trkpt><trkpt lat="45.0265567" lon="8.413735"><ele>139.0</ele><time>2026-04-04T07:59:54.108Z</time></trkpt><trkpt lat="45.0267317" lon="8.4139283"><ele>139.0</ele><time>2026-04-04T07:59:55.102Z</time></trkpt><trkpt lat="45.026915" lon="8.4141267"><ele>139.0</ele><time>2026-04-04T07:59:56.105Z</time></trkpt><trkpt lat="45.0271033" lon="8.41433"><ele>139.0</ele><time>2026-04-04T07:59:57.105Z</time></trkpt><trkpt lat="45.0272933" lon="8.414535"><ele>139.0</ele><time>2026-04-04T07:59:58.108Z</time></trkpt><trkpt lat="45.0274867" lon="8.4147467"><ele>139.5</ele><time>2026-04-04T07:59:59.101Z</time></trkpt><trkpt lat="45.02768" lon="8.4149583"><ele>140.0</ele><time>2026-04-04T08:00:00.105Z</time></trkpt><trkpt lat="45.02787" lon="8.415175"><ele>140.0</ele><time>2026-04-04T08:00:01.105Z</time></trkpt><trkpt lat="45.0280583" lon="8.4153817"><ele>140.0</ele><time>2026-04-04T08:00:02.105Z</time></trkpt><trkpt lat="45.0282417" lon="8.4155917"><ele>140.5</ele><time>2026-04-04T08:00:03.105Z</time></trkpt><trkpt lat="45.028425" lon="8.4157967"><ele>141.0</ele><time>2026-04-04T08:00:04.104Z</time></trkpt><trkpt lat="45.0286117" lon="8.4160033"><ele>141.0</ele><time>2026-04-04T08:00:05.103Z</time></trkpt><trkpt lat="45.0287983" lon="8.4162133"><ele>141.0</ele><time>2026-04-04T08:00:06.109Z</time></trkpt><trkpt lat="45.0289883" lon="8.4164083"><ele>141.0</ele><time>2026-04-04T08:00:07.1Z</time></trkpt><trkpt lat="45.0291817" lon="8.4166283"><ele>141.0</ele><time>2026-04-04T08:00:08.102Z</time></trkpt><trkpt lat="45.0293683" lon="8.4168483"><ele>141.0</ele><time>2026-04-04T08:00:09.102Z</time></trkpt><trkpt lat="45.0295467" lon="8.4170567"><ele>141.0</ele><time>2026-04-04T08:00:10.103Z</time></trkpt><trkpt lat="45.0297167" lon="8.417245"><ele>141.0</ele><time>2026-04-04T08:00:11.1Z</time></trkpt><trkpt lat="45.029875" lon="8.417425"><ele>140.33333333333334</ele><time>2026-04-04T08:00:12.105Z</time></trkpt><trkpt lat="45.0300233" lon="8.4175983"><ele>139.66666666666669</ele><time>2026-04-04T08:00:13.101Z</time></trkpt><trkpt lat="45.0301667" lon="8.4177633"><ele>139.0</ele><time>2026-04-04T08:00:14.103Z</time></trkpt><trkpt lat="45.030305" lon="8.4179217"><ele>138.0</ele><time>2026-04-04T08:00:15.099Z</time></trkpt><trkpt lat="45.0304367" lon="8.4180717"><ele>137.0</ele><time>2026-04-04T08:00:16.102Z</time></trkpt><trkpt lat="45.030565" lon="8.41822"><ele>136.0</ele><time>2026-04-04T08:00:17.108Z</time></trkpt><trkpt lat="45.03069" lon="8.4183633"><ele>137.33333333333334</ele><time>2026-04-04T08:00:18.103Z</time></trkpt><trkpt lat="45.0308167" lon="8.418505"><ele>138.66666666666666</ele><time>2026-04-04T08:00:19.103Z</time></trkpt><trkpt lat="45.0309433" lon="8.418645"><ele>140.0</ele><time>2026-04-04T08:00:20.102Z</time></trkpt><trkpt lat="45.03107" lon="8.4187917"><ele>139.33333333333331</ele><time>2026-04-04T08:00:21.099Z</time></trkpt><trkpt lat="45.0311983" lon="8.4189367"><ele>138.66666666666666</ele><time>2026-04-04T08:00:22.115Z</time></trkpt><trkpt lat="45.0313267" lon="8.4190767"><ele>138.0</ele><time>2026-04-04T08:00:23.101Z</time></trkpt><trkpt lat="45.0314533" lon="8.4192183"><ele>138.0</ele><time>2026-04-04T08:00:24.102Z</time></trkpt><trkpt lat="45.0315783" lon="8.4193567"><ele>138.0</ele><time>2026-04-04T08:00:25.103Z</time></trkpt><trkpt lat="45.0317" lon="8.4194967"><ele>138.0</ele><time>2026-04-04T08:00:26.104Z</time></trkpt><trkpt lat="45.0318217" lon="8.4196317"><ele>137.33333333333334</ele><time>2026-04-04T08:00:27.109Z</time></trkpt><trkpt lat="45.0319433" lon="8.4197667"><ele>136.66666666666669</ele><time>2026-04-04T08:00:28.108Z</time></trkpt><trkpt lat="45.032065" lon="8.419905"><ele>136.0</ele><time>2026-04-04T08:00:29.106Z</time></trkpt><trkpt lat="45.0321833" lon="8.4200417"><ele>136.0</ele><time>2026-04-04T08:00:30.105Z</time></trkpt><trkpt lat="45.0323033" lon="8.420175"><ele>136.0</ele><time>2026-04-04T08:00:31.104Z</time></trkpt><trkpt lat="45.032425" lon="8.4203083"><ele>136.0</ele><time>2026-04-04T08:00:32.108Z</time></trkpt><trkpt lat="45.0325467" lon="8.42044"><ele>136.33333333333334</ele><time>2026-04-04T08:00:33.107Z</time></trkpt><trkpt lat="45.0326617" lon="8.4205733"><ele>136.66666666666666</ele><time>2026-04-04T08:00:34.108Z</time></trkpt><trkpt lat="45.0327817" lon="8.42071"><ele>137.0</ele><time>2026-04-04T08:00:35.103Z</time></trkpt><trkpt lat="45.0329" lon="8.4208467"><ele>137.0</ele><time>2026-04-04T08:00:36.105Z</time></trkpt><trkpt lat="45.0330183" lon="8.4209817"><ele>137.0</ele><time>2026-04-04T08:00:37.102Z</time></trkpt><trkpt lat="45.0331417" lon="8.4211133"><ele>137.0</ele><time>2026-04-04T08:00:38.102Z</time></trkpt><trkpt lat="45.0332567" lon="8.4212583"><ele>136.0</ele><time>2026-04-04T08:00:39.106Z</time></trkpt><trkpt lat="45.0333733" lon="8.4213933"><ele>135.0</ele><time>2026-04-04T08:00:40.103Z</time></trkpt><trkpt lat="45.0334967" lon="8.42153"><ele>134.0</ele><time>2026-04-04T08:00:41.104Z</time></trkpt><trkpt lat="45.03362" lon="8.42167"><ele>134.0</ele><time>2026-04-04T08:00:42.104Z</time></trkpt><trkpt lat="45.033745" lon="8.4218067"><ele>134.0</ele><time>2026-04-04T08:00:43.102Z</time></trkpt><trkpt lat="45.03387" lon="8.421945"><ele>134.0</ele><time>2026-04-04T08:00:44.106Z</time></trkpt><trkpt lat="45.0339967" lon="8.4220883"><ele>134.0</ele><time>2026-04-04T08:00:45.101Z</time></trkpt><trkpt lat="45.0341233" lon="8.42223"><ele>134.0</ele><time>2026-04-04T08:00:46.103Z</time></trkpt><trkpt lat="45.0342517" lon="8.4223683"><ele>134.0</ele><time>2026-04-04T08:00:47.11Z</time></trkpt><trkpt lat="45.0343783" lon="8.42251"><ele>134.0</ele><time>2026-04-04T08:00:48.101Z</time></trkpt><trkpt lat="45.0345067" lon="8.4226533"><ele>134.0</ele><time>2026-04-04T08:00:49.104Z</time></trkpt><trkpt lat="45.0346367" lon="8.4227983"><ele>134.0</ele><time>2026-04-04T08:00:50.101Z</time></trkpt><trkpt lat="45.0347667" lon="8.4229417"><ele>134.0</ele><time>2026-04-04T08:00:51.097Z</time></trkpt><trkpt lat="45.034895" lon="8.423085"><ele>134.0</ele><time>2026-04-04T08:00:52.105Z</time></trkpt><trkpt lat="45.035025" lon="8.4232283"><ele>134.0</ele><time>2026-04-04T08:00:53.1Z</time></trkpt><trkpt lat="45.0351533" lon="8.423375"><ele>134.33333333333331</ele><time>2026-04-04T08:00:54.103Z</time></trkpt><trkpt lat="45.035285" lon="8.4235183"><ele>134.66666666666666</ele><time>2026-04-04T08:00:55.107Z</time></trkpt><trkpt lat="45.035415" lon="8.4236633"><ele>135.0</ele><time>2026-04-04T08:00:56.102Z</time></trkpt><trkpt lat="45.0355483" lon="8.4238083"><ele>135.0</ele><time>2026-04-04T08:00:57.1Z</time></trkpt><trkpt lat="45.0356783" lon="8.423955"><ele>135.0</ele><time>2026-04-04T08:00:58.103Z</time></trkpt><trkpt lat="45.03581" lon="8.4241067"><ele>135.0</ele><time>2026-04-04T08:00:59.101Z</time></trkpt><trkpt lat="45.0359417" lon="8.4242567"><ele>135.0</ele><time>2026-04-04T08:01:00.106Z</time></trkpt><trkpt lat="45.0360833" lon="8.42441"><ele>135.0</ele><time>2026-04-04T08:01:01.099Z</time></trkpt><trkpt lat="45.0362283" lon="8.42457"><ele>135.0</ele><time>2026-04-04T08:01:02.101Z</time></trkpt><trkpt lat="45.03638" lon="8.4247417"><ele>134.66666666666666</ele><time>2026-04-04T08:01:03.102Z</time></trkpt><trkpt lat="45.0365383" lon="8.424915"><ele>134.33333333333331</ele><time>2026-04-04T08:01:04.106Z</time></trkpt><trkpt lat="45.036695" lon="8.425095"><ele>134.0</ele><time>2026-04-04T08:01:05.102Z</time></trkpt><trkpt lat="45.036855" lon="8.42528"><ele>133.33333333333331</ele><time>2026-04-04T08:01:06.104Z</time></trkpt><trkpt lat="45.0370183" lon="8.425465"><ele>132.66666666666666</ele><time>2026-04-04T08:01:07.105Z</time></trkpt><trkpt lat="45.0371833" lon="8.4256467"><ele>132.0</ele><time>2026-04-04T08:01:08.105Z</time></trkpt><trkpt lat="45.0373467" lon="8.425835"><ele>132.0</ele><time>2026-04-04T08:01:09.106Z</time></trkpt><trkpt lat="45.03751" lon="8.4260233"><ele>132.0</ele><time>2026-04-04T08:01:10.103Z</time></trkpt><trkpt lat="45.0376783" lon="8.4262083"><ele>132.0</ele><time>2026-04-04T08:01:11.101Z</time></trkpt><trkpt lat="45.0378467" lon="8.4263933"><ele>132.0</ele><time>2026-04-04T08:01:12.11Z</time></trkpt><trkpt lat="45.0380133" lon="8.42658"><ele>132.0</ele><time>2026-04-04T08:01:13.103Z</time></trkpt><trkpt lat="45.03818" lon="8.4267667"><ele>132.0</ele><time>2026-04-04T08:01:14.102Z</time></trkpt><trkpt lat="45.0383467" lon="8.4269533"><ele>131.33333333333334</ele><time>2026-04-04T08:01:15.105Z</time></trkpt><trkpt lat="45.03851" lon="8.427145"><ele>130.66666666666669</ele><time>2026-04-04T08:01:16.105Z</time></trkpt><trkpt lat="45.0386717" lon="8.42734"><ele>130.0</ele><time>2026-04-04T08:01:17.102Z</time></trkpt><trkpt lat="45.038835" lon="8.4275283"><ele>130.0</ele><time>2026-04-04T08:01:18.1Z</time></trkpt><trkpt lat="45.039" lon="8.4277133"><ele>130.0</ele><time>2026-04-04T08:01:19.104Z</time></trkpt><trkpt lat="45.03916" lon="8.4279017"><ele>130.0</ele><time>2026-04-04T08:01:20.103Z</time></trkpt><trkpt lat="45.0393217" lon="8.42808"><ele>129.66666666666669</ele><time>2026-04-04T08:01:21.106Z</time></trkpt><trkpt lat="45.0394817" lon="8.4282583"><ele>129.33333333333334</ele><time>2026-04-04T08:01:22.102Z</time></trkpt><trkpt lat="45.0396417" lon="8.4284333"><ele>129.0</ele><time>2026-04-04T08:01:23.099Z</time></trkpt><trkpt lat="45.0398" lon="8.428605"><ele>129.0</ele><time>2026-04-04T08:01:24.103Z</time></trkpt><trkpt lat="45.0399517" lon="8.4287833"><ele>129.0</ele><time>2026-04-04T08:01:25.103Z</time></trkpt><trkpt lat="45.0401033" lon="8.42896"><ele>129.0</ele><time>2026-04-04T08:01:26.103Z</time></trkpt><trkpt lat="45.040255" lon="8.4291333"><ele>129.0</ele><time>2026-04-04T08:01:27.1Z</time></trkpt><trkpt lat="45.0404033" lon="8.4293067"><ele>129.0</ele><time>2026-04-04T08:01:28.104Z</time></trkpt><trkpt lat="45.04055" lon="8.429485"><ele>129.0</ele><time>2026-04-04T08:01:29.106Z</time></trkpt><trkpt lat="45.040695" lon="8.4296717"><ele>128.66666666666666</ele><time>2026-04-04T08:01:30.105Z</time></trkpt><trkpt lat="45.040835" lon="8.429865"><ele>128.33333333333331</ele><time>2026-04-04T08:01:31.105Z</time></trkpt><trkpt lat="45.040965" lon="8.4300683"><ele>128.0</ele><time>2026-04-04T08:01:32.106Z</time></trkpt><trkpt lat="45.041085" lon="8.43029"><ele>128.0</ele><time>2026-04-04T08:01:33.1Z</time></trkpt><trkpt lat="45.0411983" lon="8.4305217"><ele>128.0</ele><time>2026-04-04T08:01:34.104Z</time></trkpt><trkpt lat="45.0413117" lon="8.430755"><ele>128.0</ele><time>2026-04-04T08:01:35.101Z</time></trkpt><trkpt lat="45.041425" lon="8.4309867"><ele>128.0</ele><time>2026-04-04T08:01:36.099Z</time></trkpt><trkpt lat="45.0415383" lon="8.4312217"><ele>128.0</ele><time>2026-04-04T08:01:37.105Z</time></trkpt><trkpt lat="45.04165" lon="8.4314517"><ele>128.0</ele><time>2026-04-04T08:01:38.103Z</time></trkpt><trkpt lat="45.0417633" lon="8.4316867"><ele>127.66666666666666</ele><time>2026-04-04T08:01:39.105Z</time></trkpt><trkpt lat="45.041875" lon="8.4319233"><ele>127.33333333333334</ele><time>2026-04-04T08:01:40.099Z</time></trkpt><trkpt lat="45.0419867" lon="8.43216"><ele>127.0</ele><time>2026-04-04T08:01:41.107Z</time></trkpt><trkpt lat="45.0420983" lon="8.4324"><ele>127.0</ele><time>2026-04-04T08:01:42.108Z</time></trkpt><trkpt lat="45.042215" lon="8.4326383"><ele>127.0</ele><time>2026-04-04T08:01:43.104Z</time></trkpt><trkpt lat="45.0423333" lon="8.43288"><ele>127.0</ele><time>2026-04-04T08:01:44.101Z</time></trkpt><trkpt lat="45.04245" lon="8.4331183"><ele>126.33333333333334</ele><time>2026-04-04T08:01:45.103Z</time></trkpt><trkpt lat="45.042565" lon="8.4333583"><ele>125.66666666666666</ele><time>2026-04-04T08:01:46.106Z</time></trkpt><trkpt lat="45.0426817" lon="8.4335933"><ele>125.0</ele><time>2026-04-04T08:01:47.103Z</time></trkpt><trkpt lat="45.0427967" lon="8.43383"><ele>125.0</ele><time>2026-04-04T08:01:48.1Z</time></trkpt><trkpt lat="45.0429133" lon="8.4340667"><ele>125.0</ele><time>2026-04-04T08:01:49.102Z</time></trkpt><trkpt lat="45.0430267" lon="8.4343033"><ele>125.0</ele><time>2026-04-04T08:01:50.104Z</time></trkpt><trkpt lat="45.04314" lon="8.4345367"><ele>125.33333333333333</ele><time>2026-04-04T08:01:51.113Z</time></trkpt><trkpt lat="45.04325" lon="8.434765"><ele>125.66666666666666</ele><time>2026-04-04T08:01:52.1Z</time></trkpt><trkpt lat="45.04336" lon="8.434995"><ele>126.0</ele><time>2026-04-04T08:01:53.101Z</time></trkpt><trkpt lat="45.0434683" lon="8.4352267"><ele>126.0</ele><time>2026-04-04T08:01:54.106Z</time></trkpt><trkpt lat="45.0435767" lon="8.435455"><ele>126.0</ele><time>2026-04-04T08:01:55.107Z</time></trkpt><trkpt lat="45.0436833" lon="8.43568"><ele>126.0</ele><time>2026-04-04T08:01:56.107Z</time></trkpt><trkpt lat="45.04379" lon="8.4359017"><ele>125.66666666666666</ele><time>2026-04-04T08:01:57.098Z</time></trkpt><trkpt lat="45.043895" lon="8.43612"><ele>125.33333333333333</ele><time>2026-04-04T08:01:58.105Z</time></trkpt><trkpt lat="45.044" lon="8.4363383"><ele>125.0</ele><time>2026-04-04T08:01:59.106Z</time></trkpt><trkpt lat="45.0441067" lon="8.4365583"><ele>125.0</ele><time>2026-04-04T08:02:00.103Z</time></trkpt><trkpt lat="45.0442133" lon="8.4367767"><ele>125.0</ele><time>2026-04-04T08:02:01.1Z</time></trkpt><trkpt lat="45.0443233" lon="8.4369917"><ele>125.0</ele><time>2026-04-04T08:02:02.103Z</time></trkpt><trkpt lat="45.0444317" lon="8.437215"><ele>125.0</ele><time>2026-04-04T08:02:03.104Z</time></trkpt><trkpt lat="45.0445383" lon="8.43744"><ele>125.0</ele><time>2026-04-04T08:02:04.098Z</time></trkpt><trkpt lat="45.0446433" lon="8.4376633"><ele>125.0</ele><time>2026-04-04T08:02:05.104Z</time></trkpt><trkpt lat="45.0447533" lon="8.4378833"><ele>125.33333333333333</ele><time>2026-04-04T08:02:06.101Z</time></trkpt><trkpt lat="45.0448633" lon="8.4381083"><ele>125.66666666666666</ele><time>2026-04-04T08:02:07.102Z</time></trkpt><trkpt lat="45.0449767" lon="8.4383367"><ele>126.0</ele><time>2026-04-04T08:02:08.104Z</time></trkpt><trkpt lat="45.0450883" lon="8.43857"><ele>126.0</ele><time>2026-04-04T08:02:09.1Z</time></trkpt><trkpt lat="45.0452033" lon="8.4388033"><ele>126.0</ele><time>2026-04-04T08:02:10.103Z</time></trkpt><trkpt lat="45.0453183" lon="8.439035"><ele>126.0</ele><time>2026-04-04T08:02:11.106Z</time></trkpt><trkpt lat="45.0454283" lon="8.4392683"><ele>126.0</ele><time>2026-04-04T08:02:12.11Z</time></trkpt><trkpt lat="45.04554" lon="8.439495"><ele>126.0</ele><time>2026-04-04T08:02:13.102Z</time></trkpt><trkpt lat="45.0456483" lon="8.439715"><ele>126.0</ele><time>2026-04-04T08:02:14.101Z</time></trkpt><trkpt lat="45.0457583" lon="8.43993"><ele>126.0</ele><time>2026-04-04T08:02:15.1Z</time></trkpt><trkpt lat="45.0458633" lon="8.4401433"><ele>126.0</ele><time>2026-04-04T08:02:16.104Z</time></trkpt><trkpt lat="45.045965" lon="8.4403483"><ele>126.0</ele><time>2026-04-04T08:02:17.105Z</time></trkpt><trkpt lat="45.046065" lon="8.4405517"><ele>126.0</ele><time>2026-04-04T08:02:18.103Z</time></trkpt><trkpt lat="45.0461633" lon="8.4407567"><ele>126.0</ele><time>2026-04-04T08:02:19.104Z</time></trkpt><trkpt lat="45.0462583" lon="8.440965"><ele>126.0</ele><time>2026-04-04T08:02:20.1Z</time></trkpt><trkpt lat="45.046355" lon="8.4411667"><ele>125.33333333333334</ele><time>2026-04-04T08:02:21.11Z</time></trkpt><trkpt lat="45.0464483" lon="8.4413667"><ele>124.66666666666667</ele><time>2026-04-04T08:02:22.1Z</time></trkpt><trkpt lat="45.0465417" lon="8.4415667"><ele>124.0</ele><time>2026-04-04T08:02:23.105Z</time></trkpt><trkpt lat="45.0466367" lon="8.4417617"><ele>125.66666666666667</ele><time>2026-04-04T08:02:24.103Z</time></trkpt><trkpt lat="45.0467283" lon="8.44195"><ele>127.33333333333334</ele><time>2026-04-04T08:02:25.101Z</time></trkpt><trkpt lat="45.0468133" lon="8.4421317"><ele>129.0</ele><time>2026-04-04T08:02:26.103Z</time></trkpt><trkpt lat="45.0468967" lon="8.4423083"><ele>129.0</ele><time>2026-04-04T08:02:27.1Z</time></trkpt><trkpt lat="45.0469817" lon="8.4424833"><ele>129.0</ele><time>2026-04-04T08:02:28.101Z</time></trkpt><trkpt lat="45.0470667" lon="8.4426533"><ele>129.0</ele><time>2026-04-04T08:02:29.1Z</time></trkpt><trkpt lat="45.0471517" lon="8.4428217"><ele>129.0</ele><time>2026-04-04T08:02:30.103Z</time></trkpt><trkpt lat="45.047235" lon="8.442985"><ele>129.0</ele><time>2026-04-04T08:02:31.108Z</time></trkpt><trkpt lat="45.047315" lon="8.4431467"><ele>129.0</ele><time>2026-04-04T08:02:32.102Z</time></trkpt><trkpt lat="45.047395" lon="8.443305"><ele>129.0</ele><time>2026-04-04T08:02:33.102Z</time></trkpt><trkpt lat="45.047475" lon="8.4434667"><ele>129.0</ele><time>2026-04-04T08:02:34.103Z</time></trkpt><trkpt lat="45.047555" lon="8.4436217"><ele>129.0</ele><time>2026-04-04T08:02:35.101Z</time></trkpt><trkpt lat="45.0476433" lon="8.44377"><ele>129.0</ele><time>2026-04-04T08:02:36.103Z</time></trkpt><trkpt lat="45.0477383" lon="8.4439117"><ele>129.0</ele><time>2026-04-04T08:02:37.106Z</time></trkpt><trkpt lat="45.0478367" lon="8.444055"><ele>129.0</ele><time>2026-04-04T08:02:38.1Z</time></trkpt><trkpt lat="45.0479333" lon="8.4442033"><ele>128.75</ele><time>2026-04-04T08:02:39.107Z</time></trkpt><trkpt lat="45.0480333" lon="8.4443483"><ele>128.5</ele><time>2026-04-04T08:02:40.104Z</time></trkpt><trkpt lat="45.0481367" lon="8.4444833"><ele>128.25</ele><time>2026-04-04T08:02:41.101Z</time></trkpt><trkpt lat="45.0482467" lon="8.44462"><ele>128.0</ele><time>2026-04-04T08:02:42.103Z</time></trkpt><trkpt lat="45.0483483" lon="8.44476"><ele>128.0</ele><time>2026-04-04T08:02:43.096Z</time></trkpt><trkpt lat="45.04845" lon="8.444895"><ele>128.0</ele><time>2026-04-04T08:02:44.109Z</time></trkpt><trkpt lat="45.0485517" lon="8.4450283"><ele>128.0</ele><time>2026-04-04T08:02:45.097Z</time></trkpt><trkpt lat="45.0486517" lon="8.4451617"><ele>128.0</ele><time>2026-04-04T08:02:46.11Z</time></trkpt><trkpt lat="45.0487517" lon="8.445295"><ele>128.0</ele><time>2026-04-04T08:02:47.1Z</time></trkpt><trkpt lat="45.0488533" lon="8.4454233"><ele>128.0</ele><time>2026-04-04T08:02:48.101Z</time></trkpt><trkpt lat="45.0489533" lon="8.4455517"><ele>128.0</ele><time>2026-04-04T08:02:49.101Z</time></trkpt><trkpt lat="45.0490533" lon="8.4456817"><ele>128.0</ele><time>2026-04-04T08:02:50.101Z</time></trkpt><trkpt lat="45.0491467" lon="8.44581"><ele>128.0</ele><time>2026-04-04T08:02:51.099Z</time></trkpt><trkpt lat="45.04924" lon="8.4459367"><ele>128.0</ele><time>2026-04-04T08:02:52.102Z</time></trkpt><trkpt lat="45.0493333" lon="8.4460633"><ele>128.0</ele><time>2026-04-04T08:02:53.105Z</time></trkpt><trkpt lat="45.049425" lon="8.446185"><ele>128.0</ele><time>2026-04-04T08:02:54.102Z</time></trkpt><trkpt lat="45.049505" lon="8.446295"><ele>128.0</ele><time>2026-04-04T08:02:55.106Z</time></trkpt><trkpt lat="45.0495733" lon="8.4463817"><ele>128.0</ele><time>2026-04-04T08:02:56.106Z</time></trkpt><trkpt lat="45.0496283" lon="8.44646"><ele>128.0</ele><time>2026-04-04T08:02:57.102Z</time></trkpt><trkpt lat="45.049675" lon="8.4465267"><ele>128.0</ele><time>2026-04-04T08:02:58.104Z</time></trkpt><trkpt lat="45.04962" lon="8.4466717"><ele>128.0</ele><time>2026-04-04T08:03:00.102Z</time></trkpt><trkpt lat="45.0495283" lon="8.4467833"><ele>128.0</ele><time>2026-04-04T08:03:01.106Z</time></trkpt><trkpt lat="45.0494083" lon="8.4469283"><ele>128.0</ele><time>2026-04-04T08:03:02.108Z</time></trkpt><trkpt lat="45.049295" lon="8.447105"><ele>128.0</ele><time>2026-04-04T08:03:03.105Z</time></trkpt><trkpt lat="45.0491783" lon="8.4472967"><ele>127.0</ele><time>2026-04-04T08:03:04.101Z</time></trkpt><trkpt lat="45.0490433" lon="8.4475"><ele>126.0</ele><time>2026-04-04T08:03:05.107Z</time></trkpt><trkpt lat="45.0489117" lon="8.4477117"><ele>125.0</ele><time>2026-04-04T08:03:06.099Z</time></trkpt><trkpt lat="45.04878" lon="8.44793"><ele>125.0</ele><time>2026-04-04T08:03:07.099Z</time></trkpt><trkpt lat="45.0486467" lon="8.4481617"><ele>125.0</ele><time>2026-04-04T08:03:08.107Z</time></trkpt><trkpt lat="45.0485083" lon="8.4484017"><ele>125.0</ele><time>2026-04-04T08:03:09.102Z</time></trkpt><trkpt lat="45.0483683" lon="8.44864"><ele>125.66666666666666</ele><time>2026-04-04T08:03:10.099Z</time></trkpt><trkpt lat="45.0482317" lon="8.44888"><ele>126.33333333333334</ele><time>2026-04-04T08:03:11.096Z</time></trkpt><trkpt lat="45.04809" lon="8.449125"><ele>127.0</ele><time>2026-04-04T08:03:12.104Z</time></trkpt><trkpt lat="45.0479533" lon="8.449365"><ele>127.0</ele><time>2026-04-04T08:03:13.104Z</time></trkpt><trkpt lat="45.04782" lon="8.4496017"><ele>127.0</ele><time>2026-04-04T08:03:14.107Z</time></trkpt><trkpt lat="45.047695" lon="8.4498333"><ele>127.0</ele><time>2026-04-04T08:03:15.101Z</time></trkpt><trkpt lat="45.04757" lon="8.4500533"><ele>126.66666666666667</ele><time>2026-04-04T08:03:16.103Z</time></trkpt><trkpt lat="45.04745" lon="8.450265"><ele>126.33333333333334</ele><time>2026-04-04T08:03:17.102Z</time></trkpt><trkpt lat="45.0473367" lon="8.450465"><ele>126.0</ele><time>2026-04-04T08:03:18.102Z</time></trkpt><trkpt lat="45.0472117" lon="8.4506383"><ele>125.66666666666666</ele><time>2026-04-04T08:03:19.103Z</time></trkpt><trkpt lat="45.0470933" lon="8.4508017"><ele>125.33333333333333</ele><time>2026-04-04T08:03:20.105Z</time></trkpt><trkpt lat="45.0469633" lon="8.4509467"><ele>125.0</ele><time>2026-04-04T08:03:21.102Z</time></trkpt><trkpt lat="45.0468267" lon="8.45108"><ele>125.0</ele><time>2026-04-04T08:03:22.106Z</time></trkpt><trkpt lat="45.0466833" lon="8.4512117"><ele>125.0</ele><time>2026-04-04T08:03:23.103Z</time></trkpt><trkpt lat="45.0465383" lon="8.45135"><ele>125.0</ele><time>2026-04-04T08:03:24.1Z</time></trkpt><trkpt lat="45.046395" lon="8.45149"><ele>124.66666666666666</ele><time>2026-04-04T08:03:25.105Z</time></trkpt><trkpt lat="45.04625" lon="8.451625"><ele>124.33333333333334</ele><time>2026-04-04T08:03:26.101Z</time></trkpt><trkpt lat="45.0461117" lon="8.4517567"><ele>124.0</ele><time>2026-04-04T08:03:27.1Z</time></trkpt><trkpt lat="45.0459717" lon="8.4518883"><ele>124.0</ele><time>2026-04-04T08:03:28.1Z</time></trkpt><trkpt lat="45.0458317" lon="8.4520233"><ele>124.0</ele><time>2026-04-04T08:03:29.101Z</time></trkpt><trkpt lat="45.0456933" lon="8.45216"><ele>124.0</ele><time>2026-04-04T08:03:30.103Z</time></trkpt><trkpt lat="45.0455517" lon="8.4522967"><ele>124.66666666666667</ele><time>2026-04-04T08:03:31.102Z</time></trkpt><trkpt lat="45.04541" lon="8.4524333"><ele>125.33333333333334</ele><time>2026-04-04T08:03:32.106Z</time></trkpt><trkpt lat="45.04527" lon="8.45257"><ele>126.0</ele><time>2026-04-04T08:03:33.1Z</time></trkpt><trkpt lat="45.0451417" lon="8.4526967"><ele>126.0</ele><time>2026-04-04T08:03:34.1Z</time></trkpt><trkpt lat="45.0450183" lon="8.4528217"><ele>126.0</ele><time>2026-04-04T08:03:35.099Z</time></trkpt><trkpt lat="45.044905" lon="8.452935"><ele>126.0</ele><time>2026-04-04T08:03:36.101Z</time></trkpt><trkpt lat="45.0447933" lon="8.45304"><ele>126.0</ele><time>2026-04-04T08:03:37.101Z</time></trkpt><trkpt lat="45.044685" lon="8.45314"><ele>129.25</ele><time>2026-04-04T08:03:38.099Z</time></trkpt><trkpt lat="45.0445817" lon="8.4532417"><ele>132.5</ele><time>2026-04-04T08:03:39.098Z</time></trkpt><trkpt lat="45.044485" lon="8.4533283"><ele>135.75</ele><time>2026-04-04T08:03:40.1Z</time></trkpt><trkpt lat="45.0443867" lon="8.4534133"><ele>139.0</ele><time>2026-04-04T08:03:41.106Z</time></trkpt><trkpt lat="45.0443017" lon="8.4534933"><ele>139.0</ele><time>2026-04-04T08:03:42.103Z</time></trkpt><trkpt lat="45.044235" lon="8.4535533"><ele>139.0</ele><time>2026-04-04T08:03:43.101Z</time></trkpt><trkpt lat="45.0441383" lon="8.4536267"><ele>139.0</ele><time>2026-04-04T08:03:45.101Z</time></trkpt><trkpt lat="45.044065" lon="8.4536433"><ele>139.0</ele><time>2026-04-04T08:03:47.104Z</time></trkpt><trkpt lat="45.04393" lon="8.4536"><ele>139.0</ele><time>2026-04-04T08:03:49.111Z</time></trkpt><trkpt lat="45.0438367" lon="8.4535783"><ele>139.0</ele><time>2026-04-04T08:03:50.101Z</time></trkpt><trkpt lat="45.0437383" lon="8.4535533"><ele>139.0</ele><time>2026-04-04T08:03:51.102Z</time></trkpt><trkpt lat="45.0436367" lon="8.453515"><ele>139.0</ele><time>2026-04-04T08:03:52.104Z</time></trkpt><trkpt lat="45.0435233" lon="8.4534883"><ele>139.0</ele><time>2026-04-04T08:03:53.1Z</time></trkpt><trkpt lat="45.043415" lon="8.4534683"><ele>139.0</ele><time>2026-04-04T08:03:54.101Z</time></trkpt><trkpt lat="45.04331" lon="8.453445"><ele>139.4</ele><time>2026-04-04T08:03:55.106Z</time></trkpt><trkpt lat="45.0432033" lon="8.4534233"><ele>139.8</ele><time>2026-04-04T08:03:56.104Z</time></trkpt><trkpt lat="45.0431017" lon="8.4533983"><ele>140.2</ele><time>2026-04-04T08:03:57.105Z</time></trkpt><trkpt lat="45.042995" lon="8.4533733"><ele>140.6</ele><time>2026-04-04T08:03:58.099Z</time></trkpt><trkpt lat="45.0428917" lon="8.453355"><ele>141.0</ele><time>2026-04-04T08:03:59.099Z</time></trkpt><trkpt lat="45.0427883" lon="8.45333"><ele>141.0</ele><time>2026-04-04T08:04:00.102Z</time></trkpt><trkpt lat="45.0426867" lon="8.453305"><ele>141.0</ele><time>2026-04-04T08:04:01.101Z</time></trkpt><trkpt lat="45.042585" lon="8.4532817"><ele>141.0</ele><time>2026-04-04T08:04:02.104Z</time></trkpt><trkpt lat="45.0424833" lon="8.453255"><ele>141.0</ele><time>2026-04-04T08:04:03.101Z</time></trkpt><trkpt lat="45.0423833" lon="8.4532283"><ele>141.0</ele><time>2026-04-04T08:04:04.103Z</time></trkpt><trkpt lat="45.0422783" lon="8.4531967"><ele>141.25</ele><time>2026-04-04T08:04:05.105Z</time></trkpt><trkpt lat="45.0421717" lon="8.4531517"><ele>141.5</ele><time>2026-04-04T08:04:06.1Z</time></trkpt><trkpt lat="45.0420583" lon="8.4530983"><ele>141.75</ele><time>2026-04-04T08:04:07.099Z</time></trkpt><trkpt lat="45.0419433" lon="8.45304"><ele>142.0</ele><time>2026-04-04T08:04:08.106Z</time></trkpt><trkpt lat="45.0418267" lon="8.452975"><ele>142.0</ele><time>2026-04-04T08:04:09.104Z</time></trkpt><trkpt lat="45.0417133" lon="8.4529017"><ele>142.0</ele><time>2026-04-04T08:04:10.102Z</time></trkpt><trkpt lat="45.041595" lon="8.4528317"><ele>142.0</ele><time>2026-04-04T08:04:11.105Z</time></trkpt><trkpt lat="45.0414767" lon="8.4527583"><ele>142.0</ele><time>2026-04-04T08:04:12.102Z</time></trkpt><trkpt lat="45.0413567" lon="8.4526867"><ele>142.75</ele><time>2026-04-04T08:04:13.104Z</time></trkpt><trkpt lat="45.0412283" lon="8.4526117"><ele>143.5</ele><time>2026-04-04T08:04:14.101Z</time></trkpt><trkpt lat="45.0410967" lon="8.4525233"><ele>144.25</ele><time>2026-04-04T08:04:15.101Z</time></trkpt><trkpt lat="45.0409567" lon="8.4524367"><ele>145.0</ele><time>2026-04-04T08:04:16.103Z</time></trkpt><trkpt lat="45.0408167" lon="8.4523467"><ele>144.75</ele><time>2026-04-04T08:04:17.102Z</time></trkpt><trkpt lat="45.0406833" lon="8.4522667"><ele>144.5</ele><time>2026-04-04T08:04:18.103Z</time></trkpt><trkpt lat="45.0405567" lon="8.4521883"><ele>144.25</ele><time>2026-04-04T08:04:19.104Z</time></trkpt><trkpt lat="45.0404367" lon="8.45211"><ele>144.0</ele><time>2026-04-04T08:04:20.1Z</time></trkpt><trkpt lat="45.0403133" lon="8.4520333"><ele>144.25</ele><time>2026-04-04T08:04:21.102Z</time></trkpt><trkpt lat="45.040195" lon="8.4519533"><ele>144.5</ele><time>2026-04-04T08:04:22.103Z</time></trkpt><trkpt lat="45.0400717" lon="8.4518733"><ele>144.75</ele><time>2026-04-04T08:04:23.1Z</time></trkpt><trkpt lat="45.03995" lon="8.451795"><ele>145.0</ele><time>2026-04-04T08:04:24.098Z</time></trkpt><trkpt lat="45.0398233" lon="8.45171"><ele>145.0</ele><time>2026-04-04T08:04:25.101Z</time></trkpt><trkpt lat="45.039695" lon="8.4516233"><ele>145.0</ele><time>2026-04-04T08:04:26.099Z</time></trkpt><trkpt lat="45.039565" lon="8.45154"><ele>145.0</ele><time>2026-04-04T08:04:27.098Z</time></trkpt><trkpt lat="45.0394367" lon="8.4514617"><ele>145.0</ele><time>2026-04-04T08:04:28.102Z</time></trkpt><trkpt lat="45.0393017" lon="8.4513833"><ele>145.0</ele><time>2026-04-04T08:04:29.1Z</time></trkpt><trkpt lat="45.0391683" lon="8.4513017"><ele>145.0</ele><time>2026-04-04T08:04:30.104Z</time></trkpt><trkpt lat="45.0390283" lon="8.4512383"><ele>145.0</ele><time>2026-04-04T08:04:31.106Z</time></trkpt><trkpt lat="45.0388817" lon="8.4512017"><ele>145.0</ele><time>2026-04-04T08:04:32.107Z</time></trkpt><trkpt lat="45.038725" lon="8.4512117"><ele>145.33333333333334</ele><time>2026-04-04T08:04:33.099Z</time></trkpt><trkpt lat="45.0385667" lon="8.45125"><ele>145.66666666666666</ele><time>2026-04-04T08:04:34.102Z</time></trkpt><trkpt lat="45.0384133" lon="8.4512817"><ele>146.0</ele><time>2026-04-04T08:04:35.101Z</time></trkpt><trkpt lat="45.03825" lon="8.451335"><ele>146.0</ele><time>2026-04-04T08:04:36.102Z</time></trkpt><trkpt lat="45.038085" lon="8.4513983"><ele>146.0</ele><time>2026-04-04T08:04:37.102Z</time></trkpt><trkpt lat="45.037925" lon="8.45146"><ele>146.0</ele><time>2026-04-04T08:04:38.113Z</time></trkpt><trkpt lat="45.03776" lon="8.45152"><ele>146.0</ele><time>2026-04-04T08:04:39.102Z</time></trkpt><trkpt lat="45.0375983" lon="8.4515783"><ele>146.0</ele><time>2026-04-04T08:04:40.104Z</time></trkpt><trkpt lat="45.0374383" lon="8.4516433"><ele>146.0</ele><time>2026-04-04T08:04:41.102Z</time></trkpt><trkpt lat="45.0372733" lon="8.45171"><ele>146.33333333333331</ele><time>2026-04-04T08:04:42.109Z</time></trkpt><trkpt lat="45.037105" lon="8.45178"><ele>146.66666666666666</ele><time>2026-04-04T08:04:43.114Z</time></trkpt><trkpt lat="45.03694" lon="8.451845"><ele>147.0</ele><time>2026-04-04T08:04:44.108Z</time></trkpt><trkpt lat="45.03677" lon="8.451905"><ele>147.0</ele><time>2026-04-04T08:04:45.107Z</time></trkpt><trkpt lat="45.036595" lon="8.4519683"><ele>147.0</ele><time>2026-04-04T08:04:46.103Z</time></trkpt><trkpt lat="45.0364217" lon="8.4520383"><ele>147.0</ele><time>2026-04-04T08:04:47.101Z</time></trkpt><trkpt lat="45.03625" lon="8.4521067"><ele>146.66666666666666</ele><time>2026-04-04T08:04:48.101Z</time></trkpt><trkpt lat="45.03608" lon="8.452165"><ele>146.33333333333331</ele><time>2026-04-04T08:04:49.101Z</time></trkpt><trkpt lat="45.0359083" lon="8.4522367"><ele>146.0</ele><time>2026-04-04T08:04:50.104Z</time></trkpt><trkpt lat="45.035735" lon="8.4522833"><ele>146.0</ele><time>2026-04-04T08:04:51.099Z</time></trkpt><trkpt lat="45.0355617" lon="8.452345"><ele>146.0</ele><time>2026-04-04T08:04:52.1Z</time></trkpt><trkpt lat="45.0353883" lon="8.45242"><ele>146.0</ele><time>2026-04-04T08:04:53.105Z</time></trkpt><trkpt lat="45.035215" lon="8.4524967"><ele>146.0</ele><time>2026-04-04T08:04:54.107Z</time></trkpt><trkpt lat="45.0350383" lon="8.452565"><ele>146.0</ele><time>2026-04-04T08:04:55.105Z</time></trkpt><trkpt lat="45.0348617" lon="8.4526317"><ele>146.0</ele><time>2026-04-04T08:04:56.101Z</time></trkpt><trkpt lat="45.034685" lon="8.4527067"><ele>146.33333333333331</ele><time>2026-04-04T08:04:57.101Z</time></trkpt><trkpt lat="45.03451" lon="8.4527783"><ele>146.66666666666666</ele><time>2026-04-04T08:04:58.105Z</time></trkpt><trkpt lat="45.0343317" lon="8.4528467"><ele>147.0</ele><time>2026-04-04T08:04:59.101Z</time></trkpt><trkpt lat="45.034155" lon="8.4529117"><ele>148.0</ele><time>2026-04-04T08:05:00.101Z</time></trkpt><trkpt lat="45.0339733" lon="8.4529733"><ele>149.0</ele><time>2026-04-04T08:05:01.102Z</time></trkpt><trkpt lat="45.0337917" lon="8.4530367"><ele>150.0</ele><time>2026-04-04T08:05:02.103Z</time></trkpt><trkpt lat="45.03361" lon="8.4530917"><ele>150.0</ele><time>2026-04-04T08:05:03.102Z</time></trkpt><trkpt lat="45.0334233" lon="8.45312"><ele>150.0</ele><time>2026-04-04T08:05:04.106Z</time></trkpt><trkpt lat="45.0332367" lon="8.45311"><ele>150.0</ele><time>2026-04-04T08:05:05.106Z</time></trkpt><trkpt lat="45.0330533" lon="8.4530817"><ele>150.33333333333334</ele><time>2026-04-04T08:05:06.099Z</time></trkpt><trkpt lat="45.0328717" lon="8.45305"><ele>150.66666666666669</ele><time>2026-04-04T08:05:07.107Z</time></trkpt><trkpt lat="45.03269" lon="8.4530133"><ele>151.0</ele><time>2026-04-04T08:05:08.1Z</time></trkpt><trkpt lat="45.03251" lon="8.4529733"><ele>154.66666666666669</ele><time>2026-04-04T08:05:09.104Z</time></trkpt><trkpt lat="45.03233" lon="8.4529383"><ele>158.33333333333334</ele><time>2026-04-04T08:05:10.112Z</time></trkpt><trkpt lat="45.03215" lon="8.4529067"><ele>162.0</ele><time>2026-04-04T08:05:11.102Z</time></trkpt><trkpt lat="45.03198" lon="8.4528633"><ele>162.0</ele><time>2026-04-04T08:05:12.105Z</time></trkpt><trkpt lat="45.0318167" lon="8.4528117"><ele>162.0</ele><time>2026-04-04T08:05:13.106Z</time></trkpt><trkpt lat="45.0316683" lon="8.452745"><ele>162.0</ele><time>2026-04-04T08:05:14.1Z</time></trkpt><trkpt lat="45.031525" lon="8.4526633"><ele>164.5</ele><time>2026-04-04T08:05:15.106Z</time></trkpt><trkpt lat="45.0313867" lon="8.4525833"><ele>167.0</ele><time>2026-04-04T08:05:16.106Z</time></trkpt><trkpt lat="45.0312583" lon="8.4525067"><ele>169.5</ele><time>2026-04-04T08:05:17.106Z</time></trkpt><trkpt lat="45.031135" lon="8.4524483"><ele>172.0</ele><time>2026-04-04T08:05:18.1Z</time></trkpt><trkpt lat="45.0310183" lon="8.4524333"><ele>172.0</ele><time>2026-04-04T08:05:19.101Z</time></trkpt><trkpt lat="45.030915" lon="8.4524733"><ele>172.0</ele><time>2026-04-04T08:05:20.106Z</time></trkpt><trkpt lat="45.03081" lon="8.452545"><ele>172.0</ele><time>2026-04-04T08:05:21.103Z</time></trkpt><trkpt lat="45.0307117" lon="8.45264"><ele>172.0</ele><time>2026-04-04T08:05:22.105Z</time></trkpt><trkpt lat="45.0306217" lon="8.4527733"><ele>172.0</ele><time>2026-04-04T08:05:23.1Z</time></trkpt><trkpt lat="45.0305433" lon="8.45292"><ele>172.0</ele><time>2026-04-04T08:05:24.103Z</time></trkpt><trkpt lat="45.0304683" lon="8.45306"><ele>172.0</ele><time>2026-04-04T08:05:25.102Z</time></trkpt><trkpt lat="45.0303817" lon="8.453205"><ele>172.0</ele><time>2026-04-04T08:05:26.099Z</time></trkpt><trkpt lat="45.0302583" lon="8.453325"><ele>173.66666666666669</ele><time>2026-04-04T08:05:27.098Z</time></trkpt><trkpt lat="45.0301233" lon="8.4534383"><ele>175.33333333333334</ele><time>2026-04-04T08:05:28.099Z</time></trkpt><trkpt lat="45.0299817" lon="8.453545"><ele>177.0</ele><time>2026-04-04T08:05:29.1Z</time></trkpt><trkpt lat="45.029815" lon="8.45362"><ele>177.33333333333334</ele><time>2026-04-04T08:05:30.1Z</time></trkpt><trkpt lat="45.02966" lon="8.45369"><ele>177.66666666666669</ele><time>2026-04-04T08:05:31.102Z</time></trkpt><trkpt lat="45.0295017" lon="8.4537567"><ele>178.0</ele><time>2026-04-04T08:05:32.104Z</time></trkpt><trkpt lat="45.0293433" lon="8.4538317"><ele>179.0</ele><time>2026-04-04T08:05:33.1Z</time></trkpt><trkpt lat="45.02918" lon="8.4539083"><ele>180.0</ele><time>2026-04-04T08:05:34.107Z</time></trkpt><trkpt lat="45.0290117" lon="8.453975"><ele>181.0</ele><time>2026-04-04T08:05:35.104Z</time></trkpt><trkpt lat="45.0288417" lon="8.4540167"><ele>185.0</ele><time>2026-04-04T08:05:36.1Z</time></trkpt><trkpt lat="45.028665" lon="8.4540633"><ele>189.0</ele><time>2026-04-04T08:05:37.104Z</time></trkpt><trkpt lat="45.0284883" lon="8.4541133"><ele>193.0</ele><time>2026-04-04T08:05:38.103Z</time></trkpt><trkpt lat="45.028315" lon="8.4541617"><ele>196.66666666666666</ele><time>2026-04-04T08:05:39.104Z</time></trkpt><trkpt lat="45.0281467" lon="8.4542283"><ele>200.33333333333331</ele><time>2026-04-04T08:05:40.106Z</time></trkpt><trkpt lat="45.02799" lon="8.4543283"><ele>204.0</ele><time>2026-04-04T08:05:41.103Z</time></trkpt><trkpt lat="45.0278467" lon="8.4544633"><ele>204.0</ele><time>2026-04-04T08:05:42.109Z</time></trkpt><trkpt lat="45.0277167" lon="8.4546083"><ele>204.0</ele><time>2026-04-04T08:05:43.104Z</time></trkpt><trkpt lat="45.0276017" lon="8.4547483"><ele>204.0</ele><time>2026-04-04T08:05:44.104Z</time></trkpt><trkpt lat="45.0275067" lon="8.454885"><ele>204.33333333333334</ele><time>2026-04-04T08:05:45.101Z</time></trkpt><trkpt lat="45.02743" lon="8.4549867"><ele>204.66666666666669</ele><time>2026-04-04T08:05:46.107Z</time></trkpt><trkpt lat="45.0273633" lon="8.4550617"><ele>205.0</ele><time>2026-04-04T08:05:47.098Z</time></trkpt><trkpt lat="45.0273083" lon="8.45512"><ele>205.33333333333334</ele><time>2026-04-04T08:05:48.103Z</time></trkpt><trkpt lat="45.0272383" lon="8.4551633"><ele>205.66666666666669</ele><time>2026-04-04T08:05:49.104Z</time></trkpt><trkpt lat="45.0271617" lon="8.4551933"><ele>206.0</ele><time>2026-04-04T08:05:50.101Z</time></trkpt><trkpt lat="45.02708" lon="8.45522"><ele>206.0</ele><time>2026-04-04T08:05:51.098Z</time></trkpt><trkpt lat="45.026975" lon="8.45523"><ele>206.0</ele><time>2026-04-04T08:05:52.098Z</time></trkpt><trkpt lat="45.0268583" lon="8.4552333"><ele>206.0</ele><time>2026-04-04T08:05:53.104Z</time></trkpt><trkpt lat="45.0267667" lon="8.45525"><ele>206.0</ele><time>2026-04-04T08:05:54.103Z</time></trkpt><trkpt lat="45.0266817" lon="8.4552667"><ele>206.0</ele><time>2026-04-04T08:05:55.1Z</time></trkpt><trkpt lat="45.0266133" lon="8.4552817"><ele>206.60000000000002</ele><time>2026-04-04T08:05:56.103Z</time></trkpt><trkpt lat="45.0265017" lon="8.45531"><ele>207.2</ele><time>2026-04-04T08:05:58.103Z</time></trkpt><trkpt lat="45.02643" lon="8.4553183"><ele>207.8</ele><time>2026-04-04T08:05:59.104Z</time></trkpt><trkpt lat="45.0263283" lon="8.4553117"><ele>208.39999999999998</ele><time>2026-04-04T08:06:00.1Z</time></trkpt><trkpt lat="45.0262267" lon="8.4552983"><ele>209.0</ele><time>2026-04-04T08:06:01.105Z</time></trkpt><trkpt lat="45.0261233" lon="8.45529"><ele>209.0</ele><time>2026-04-04T08:06:02.104Z</time></trkpt><trkpt lat="45.026015" lon="8.4552883"><ele>209.0</ele><time>2026-04-04T08:06:03.103Z</time></trkpt><trkpt lat="45.0258933" lon="8.4552767"><ele>209.0</ele><time>2026-04-04T08:06:04.102Z</time></trkpt><trkpt lat="45.0257633" lon="8.4552683"><ele>209.0</ele><time>2026-04-04T08:06:05.11Z</time></trkpt><trkpt lat="45.025645" lon="8.4552567"><ele>209.5</ele><time>2026-04-04T08:06:06.1Z</time></trkpt><trkpt lat="45.02553" lon="8.4552433"><ele>210.0</ele><time>2026-04-04T08:06:07.108Z</time></trkpt><trkpt lat="45.0254167" lon="8.455235"><ele>210.5</ele><time>2026-04-04T08:06:08.102Z</time></trkpt><trkpt lat="45.0253017" lon="8.4552283"><ele>211.0</ele><time>2026-04-04T08:06:09.097Z</time></trkpt><trkpt lat="45.02519" lon="8.4552367"><ele>211.0</ele><time>2026-04-04T08:06:10.104Z</time></trkpt><trkpt lat="45.02508" lon="8.455255"><ele>211.0</ele><time>2026-04-04T08:06:11.101Z</time></trkpt><trkpt lat="45.0249717" lon="8.4552867"><ele>211.0</ele><time>2026-04-04T08:06:12.105Z</time></trkpt><trkpt lat="45.024865" lon="8.455325"><ele>211.0</ele><time>2026-04-04T08:06:13.107Z</time></trkpt><trkpt lat="45.024755" lon="8.45537"><ele>211.0</ele><time>2026-04-04T08:06:14.1Z</time></trkpt><trkpt lat="45.0246433" lon="8.455415"><ele>210.5</ele><time>2026-04-04T08:06:15.106Z</time></trkpt><trkpt lat="45.02453" lon="8.4554567"><ele>210.0</ele><time>2026-04-04T08:06:16.111Z</time></trkpt><trkpt lat="45.024415" lon="8.455495"><ele>209.5</ele><time>2026-04-04T08:06:17.108Z</time></trkpt><trkpt lat="45.0242967" lon="8.4555167"><ele>209.0</ele><time>2026-04-04T08:06:18.102Z</time></trkpt><trkpt lat="45.0241883" lon="8.4555083"><ele>208.75</ele><time>2026-04-04T08:06:19.1Z</time></trkpt><trkpt lat="45.0240833" lon="8.4554667"><ele>208.5</ele><time>2026-04-04T08:06:20.103Z</time></trkpt><trkpt lat="45.023985" lon="8.4554033"><ele>208.25</ele><time>2026-04-04T08:06:21.1Z</time></trkpt><trkpt lat="45.0238867" lon="8.4553233"><ele>208.0</ele><time>2026-04-04T08:06:22.102Z</time></trkpt><trkpt lat="45.0237817" lon="8.4552367"><ele>211.0</ele><time>2026-04-04T08:06:23.103Z</time></trkpt><trkpt lat="45.02367" lon="8.45515"><ele>214.0</ele><time>2026-04-04T08:06:24.105Z</time></trkpt><trkpt lat="45.02356" lon="8.4550533"><ele>217.0</ele><time>2026-04-04T08:06:25.105Z</time></trkpt><trkpt lat="45.0234533" lon="8.4549683"><ele>220.0</ele><time>2026-04-04T08:06:26.104Z</time></trkpt><trkpt lat="45.0233367" lon="8.4548983"><ele>220.25</ele><time>2026-04-04T08:06:27.102Z</time></trkpt><trkpt lat="45.02321" lon="8.4548433"><ele>220.5</ele><time>2026-04-04T08:06:28.101Z</time></trkpt><trkpt lat="45.0230717" lon="8.45481"><ele>220.75</ele><time>2026-04-04T08:06:29.105Z</time></trkpt><trkpt lat="45.0229433" lon="8.45476"><ele>221.0</ele><time>2026-04-04T08:06:30.104Z</time></trkpt><trkpt lat="45.0228283" lon="8.45469"><ele>222.5</ele><time>2026-04-04T08:06:31.105Z</time></trkpt><trkpt lat="45.0227167" lon="8.45461"><ele>224.0</ele><time>2026-04-04T08:06:32.104Z</time></trkpt><trkpt lat="45.0226083" lon="8.454525"><ele>225.5</ele><time>2026-04-04T08:06:33.103Z</time></trkpt><trkpt lat="45.0225017" lon="8.4544383"><ele>227.0</ele><time>2026-04-04T08:06:34.103Z</time></trkpt><trkpt lat="45.0223967" lon="8.4543517"><ele>230.25</ele><time>2026-04-04T08:06:35.101Z</time></trkpt><trkpt lat="45.0222933" lon="8.4542683"><ele>233.5</ele><time>2026-04-04T08:06:36.098Z</time></trkpt><trkpt lat="45.0221917" lon="8.4541867"><ele>236.75</ele><time>2026-04-04T08:06:37.113Z</time></trkpt><trkpt lat="45.0220867" lon="8.454125"><ele>240.0</ele><time>2026-04-04T08:06:38.1Z</time></trkpt><trkpt lat="45.0219833" lon="8.454085"><ele>240.0</ele><time>2026-04-04T08:06:39.103Z</time></trkpt><trkpt lat="45.0218833" lon="8.454085"><ele>240.0</ele><time>2026-04-04T08:06:40.099Z</time></trkpt><trkpt lat="45.0217833" lon="8.45413"><ele>240.0</ele><time>2026-04-04T08:06:41.102Z</time></trkpt><trkpt lat="45.0216833" lon="8.454195"><ele>240.0</ele><time>2026-04-04T08:06:42.099Z</time></trkpt><trkpt lat="45.021585" lon="8.4542567"><ele>240.0</ele><time>2026-04-04T08:06:43.101Z</time></trkpt><trkpt lat="45.0214833" lon="8.45432"><ele>240.6</ele><time>2026-04-04T08:06:44.104Z</time></trkpt><trkpt lat="45.0213883" lon="8.45437"><ele>241.2</ele><time>2026-04-04T08:06:45.103Z</time></trkpt><trkpt lat="45.021295" lon="8.4544267"><ele>241.8</ele><time>2026-04-04T08:06:46.101Z</time></trkpt><trkpt lat="45.0212033" lon="8.4544817"><ele>242.4</ele><time>2026-04-04T08:06:47.105Z</time></trkpt><trkpt lat="45.0211067" lon="8.4545283"><ele>243.0</ele><time>2026-04-04T08:06:48.105Z</time></trkpt><trkpt lat="45.0210183" lon="8.4545633"><ele>243.0</ele><time>2026-04-04T08:06:49.102Z</time></trkpt><trkpt lat="45.020935" lon="8.4545867"><ele>243.0</ele><time>2026-04-04T08:06:50.105Z</time></trkpt><trkpt lat="45.0208667" lon="8.4546"><ele>243.0</ele><time>2026-04-04T08:06:51.099Z</time></trkpt><trkpt lat="45.0208033" lon="8.4546183"><ele>243.0</ele><time>2026-04-04T08:06:52.107Z</time></trkpt><trkpt lat="45.0207267" lon="8.4546417"><ele>243.0</ele><time>2026-04-04T08:06:53.102Z</time></trkpt><trkpt lat="45.0206383" lon="8.45468"><ele>243.0</ele><time>2026-04-04T08:06:54.104Z</time></trkpt><trkpt lat="45.0205517" lon="8.4547233"><ele>242.60000000000002</ele><time>2026-04-04T08:06:55.102Z</time></trkpt><trkpt lat="45.0204517" lon="8.4547617"><ele>242.20000000000002</ele><time>2026-04-04T08:06:56.105Z</time></trkpt><trkpt lat="45.0203433" lon="8.4548067"><ele>241.8</ele><time>2026-04-04T08:06:57.106Z</time></trkpt><trkpt lat="45.0202333" lon="8.4548533"><ele>241.4</ele><time>2026-04-04T08:06:58.101Z</time></trkpt><trkpt lat="45.0201233" lon="8.4548933"><ele>241.0</ele><time>2026-04-04T08:06:59.103Z</time></trkpt><trkpt lat="45.0200183" lon="8.4549317"><ele>238.8</ele><time>2026-04-04T08:07:00.099Z</time></trkpt><trkpt lat="45.019915" lon="8.4549633"><ele>236.60000000000002</ele><time>2026-04-04T08:07:01.103Z</time></trkpt><trkpt lat="45.0198167" lon="8.4549983"><ele>234.4</ele><time>2026-04-04T08:07:02.103Z</time></trkpt><trkpt lat="45.019715" lon="8.4550483"><ele>232.2</ele><time>2026-04-04T08:07:03.102Z</time></trkpt><trkpt lat="45.019605" lon="8.45509"><ele>230.0</ele><time>2026-04-04T08:07:04.102Z</time></trkpt><trkpt lat="45.0195033" lon="8.4551283"><ele>230.0</ele><time>2026-04-04T08:07:05.104Z</time></trkpt><trkpt lat="45.0193883" lon="8.455165"><ele>230.0</ele><time>2026-04-04T08:07:06.105Z</time></trkpt><trkpt lat="45.0192933" lon="8.4552167"><ele>230.0</ele><time>2026-04-04T08:07:07.105Z</time></trkpt><trkpt lat="45.01922" lon="8.4552633"><ele>230.0</ele><time>2026-04-04T08:07:08.105Z</time></trkpt><trkpt lat="45.01915" lon="8.4553083"><ele>230.0</ele><time>2026-04-04T08:07:09.102Z</time></trkpt><trkpt lat="45.0190883" lon="8.455375"><ele>227.83333333333334</ele><time>2026-04-04T08:07:10.104Z</time></trkpt><trkpt lat="45.0190317" lon="8.4554683"><ele>225.66666666666669</ele><time>2026-04-04T08:07:11.105Z</time></trkpt><trkpt lat="45.0189933" lon="8.4555683"><ele>223.5</ele><time>2026-04-04T08:07:12.1Z</time></trkpt><trkpt lat="45.0189717" lon="8.4556783"><ele>221.33333333333331</ele><time>2026-04-04T08:07:13.103Z</time></trkpt><trkpt lat="45.0189533" lon="8.45579"><ele>219.16666666666666</ele><time>2026-04-04T08:07:14.105Z</time></trkpt><trkpt lat="45.0189367" lon="8.4559"><ele>217.0</ele><time>2026-04-04T08:07:15.103Z</time></trkpt><trkpt lat="45.0189183" lon="8.4560133"><ele>217.0</ele><time>2026-04-04T08:07:16.099Z</time></trkpt><trkpt lat="45.01889" lon="8.4561233"><ele>217.0</ele><time>2026-04-04T08:07:17.101Z</time></trkpt><trkpt lat="45.018855" lon="8.456235"><ele>217.0</ele><time>2026-04-04T08:07:18.107Z</time></trkpt><trkpt lat="45.01883" lon="8.4563733"><ele>217.0</ele><time>2026-04-04T08:07:19.107Z</time></trkpt><trkpt lat="45.01882" lon="8.4565183"><ele>217.0</ele><time>2026-04-04T08:07:20.107Z</time></trkpt><trkpt lat="45.0188067" lon="8.4566717"><ele>216.25</ele><time>2026-04-04T08:07:21.104Z</time></trkpt><trkpt lat="45.0187833" lon="8.4568417"><ele>215.5</ele><time>2026-04-04T08:07:22.107Z</time></trkpt><trkpt lat="45.0187683" lon="8.4570133"><ele>214.75</ele><time>2026-04-04T08:07:23.102Z</time></trkpt><trkpt lat="45.018755" lon="8.4571883"><ele>214.0</ele><time>2026-04-04T08:07:24.103Z</time></trkpt><trkpt lat="45.0187433" lon="8.4573667"><ele>213.0</ele><time>2026-04-04T08:07:25.104Z</time></trkpt><trkpt lat="45.018735" lon="8.4575433"><ele>212.0</ele><time>2026-04-04T08:07:26.104Z</time></trkpt><trkpt lat="45.0187467" lon="8.4577183"><ele>211.0</ele><time>2026-04-04T08:07:27.1Z</time></trkpt><trkpt lat="45.01878" lon="8.457885"><ele>210.0</ele><time>2026-04-04T08:07:28.103Z</time></trkpt><trkpt lat="45.018815" lon="8.4580533"><ele>208.83333333333334</ele><time>2026-04-04T08:07:29.105Z</time></trkpt><trkpt lat="45.0188533" lon="8.4582017"><ele>207.66666666666669</ele><time>2026-04-04T08:07:30.109Z</time></trkpt><trkpt lat="45.0189" lon="8.4583167"><ele>206.5</ele><time>2026-04-04T08:07:31.102Z</time></trkpt><trkpt lat="45.0189567" lon="8.45841"><ele>205.33333333333334</ele><time>2026-04-04T08:07:32.1Z</time></trkpt><trkpt lat="45.0190183" lon="8.4584783"><ele>204.16666666666669</ele><time>2026-04-04T08:07:33.107Z</time></trkpt><trkpt lat="45.019075" lon="8.4585417"><ele>203.0</ele><time>2026-04-04T08:07:34.102Z</time></trkpt><trkpt lat="45.0191217" lon="8.4586133"><ele>203.0</ele><time>2026-04-04T08:07:35.103Z</time></trkpt><trkpt lat="45.01912" lon="8.4587617"><ele>203.0</ele><time>2026-04-04T08:07:37.104Z</time></trkpt><trkpt lat="45.0190033" lon="8.4587033"><ele>203.0</ele><time>2026-04-04T08:07:41.098Z</time></trkpt><trkpt lat="45.0189133" lon="8.4586517"><ele>203.0</ele><time>2026-04-04T08:07:42.099Z</time></trkpt><trkpt lat="45.0188033" lon="8.45858"><ele>203.0</ele><time>2026-04-04T08:07:43.108Z</time></trkpt><trkpt lat="45.0187067" lon="8.458505"><ele>203.0</ele><time>2026-04-04T08:07:44.098Z</time></trkpt><trkpt lat="45.0186133" lon="8.4584233"><ele>203.0</ele><time>2026-04-04T08:07:45.103Z</time></trkpt><trkpt lat="45.0185267" lon="8.458325"><ele>203.0</ele><time>2026-04-04T08:07:46.098Z</time></trkpt><trkpt lat="45.0184617" lon="8.4582033"><ele>203.0</ele><time>2026-04-04T08:07:47.1Z</time></trkpt><trkpt lat="45.01841" lon="8.4580683"><ele>203.0</ele><time>2026-04-04T08:07:48.104Z</time></trkpt><trkpt lat="45.0183433" lon="8.457935"><ele>198.5</ele><time>2026-04-04T08:07:49.098Z</time></trkpt><trkpt lat="45.01828" lon="8.4577883"><ele>194.0</ele><time>2026-04-04T08:07:50.102Z</time></trkpt><trkpt lat="45.0181967" lon="8.45765"><ele>189.5</ele><time>2026-04-04T08:07:51.099Z</time></trkpt><trkpt lat="45.018105" lon="8.4575133"><ele>185.0</ele><time>2026-04-04T08:07:52.103Z</time></trkpt><trkpt lat="45.018015" lon="8.4573767"><ele>185.0</ele><time>2026-04-04T08:07:53.102Z</time></trkpt><trkpt lat="45.0179383" lon="8.4572567"><ele>185.0</ele><time>2026-04-04T08:07:54.107Z</time></trkpt><trkpt lat="45.0178883" lon="8.4571583"><ele>185.0</ele><time>2026-04-04T08:07:55.103Z</time></trkpt><trkpt lat="45.0178533" lon="8.4570517"><ele>185.0</ele><time>2026-04-04T08:07:56.1Z</time></trkpt><trkpt lat="45.017835" lon="8.4569333"><ele>185.0</ele><time>2026-04-04T08:07:57.099Z</time></trkpt><trkpt lat="45.01782" lon="8.4568"><ele>186.2</ele><time>2026-04-04T08:07:58.103Z</time></trkpt><trkpt lat="45.01782" lon="8.456665"><ele>187.4</ele><time>2026-04-04T08:07:59.107Z</time></trkpt><trkpt lat="45.0178017" lon="8.4565433"><ele>188.60000000000002</ele><time>2026-04-04T08:08:00.101Z</time></trkpt><trkpt lat="45.01776" lon="8.45641"><ele>189.8</ele><time>2026-04-04T08:08:02.108Z</time></trkpt><trkpt lat="45.0176567" lon="8.4563833"><ele>191.0</ele><time>2026-04-04T08:08:04.103Z</time></trkpt><trkpt lat="45.0176067" lon="8.4564467"><ele>191.0</ele><time>2026-04-04T08:08:05.102Z</time></trkpt><trkpt lat="45.0175517" lon="8.456545"><ele>191.0</ele><time>2026-04-04T08:08:06.105Z</time></trkpt><trkpt lat="45.017505" lon="8.45666"><ele>191.0</ele><time>2026-04-04T08:08:07.103Z</time></trkpt><trkpt lat="45.01747" lon="8.45679"><ele>191.0</ele><time>2026-04-04T08:08:08.102Z</time></trkpt><trkpt lat="45.0174667" lon="8.4569567"><ele>191.0</ele><time>2026-04-04T08:08:09.1Z</time></trkpt><trkpt lat="45.0174717" lon="8.45714"><ele>189.5</ele><time>2026-04-04T08:08:10.108Z</time></trkpt><trkpt lat="45.0174817" lon="8.4573283"><ele>188.0</ele><time>2026-04-04T08:08:11.102Z</time></trkpt><trkpt lat="45.0175233" lon="8.457525"><ele>186.5</ele><time>2026-04-04T08:08:12.102Z</time></trkpt><trkpt lat="45.01754" lon="8.4577133"><ele>185.0</ele><time>2026-04-04T08:08:13.102Z</time></trkpt><trkpt lat="45.0175433" lon="8.4579017"><ele>184.25</ele><time>2026-04-04T08:08:14.106Z</time></trkpt><trkpt lat="45.017525" lon="8.4580867"><ele>183.5</ele><time>2026-04-04T08:08:15.107Z</time></trkpt><trkpt lat="45.0174867" lon="8.458295"><ele>182.75</ele><time>2026-04-04T08:08:16.102Z</time></trkpt><trkpt lat="45.0174317" lon="8.4584867"><ele>182.0</ele><time>2026-04-04T08:08:17.102Z</time></trkpt><trkpt lat="45.0173733" lon="8.45869"><ele>176.33333333333331</ele><time>2026-04-04T08:08:18.1Z</time></trkpt><trkpt lat="45.017315" lon="8.458895"><ele>170.66666666666666</ele><time>2026-04-04T08:08:19.104Z</time></trkpt><trkpt lat="45.0172567" lon="8.4591167"><ele>165.0</ele><time>2026-04-04T08:08:20.099Z</time></trkpt><trkpt lat="45.017185" lon="8.459325"><ele>165.0</ele><time>2026-04-04T08:08:21.1Z</time></trkpt><trkpt lat="45.0171017" lon="8.4595167"><ele>165.0</ele><time>2026-04-04T08:08:22.103Z</time></trkpt><trkpt lat="45.0170067" lon="8.45969"><ele>165.0</ele><time>2026-04-04T08:08:23.101Z</time></trkpt><trkpt lat="45.0169033" lon="8.4598383"><ele>165.25</ele><time>2026-04-04T08:08:24.101Z</time></trkpt><trkpt lat="45.0168" lon="8.4599717"><ele>165.5</ele><time>2026-04-04T08:08:25.112Z</time></trkpt><trkpt lat="45.0166733" lon="8.46004"><ele>165.75</ele><time>2026-04-04T08:08:26.105Z</time></trkpt><trkpt lat="45.0165317" lon="8.4600767"><ele>166.0</ele><time>2026-04-04T08:08:27.103Z</time></trkpt><trkpt lat="45.016385" lon="8.4601117"><ele>164.33333333333334</ele><time>2026-04-04T08:08:28.105Z</time></trkpt><trkpt lat="45.0162267" lon="8.46014"><ele>162.66666666666666</ele><time>2026-04-04T08:08:29.103Z</time></trkpt><trkpt lat="45.016065" lon="8.4601717"><ele>161.0</ele><time>2026-04-04T08:08:30.099Z</time></trkpt><trkpt lat="45.015905" lon="8.4601967"><ele>158.75</ele><time>2026-04-04T08:08:31.101Z</time></trkpt><trkpt lat="45.0157467" lon="8.4602333"><ele>156.5</ele><time>2026-04-04T08:08:32.101Z</time></trkpt><trkpt lat="45.0155967" lon="8.4602717"><ele>154.25</ele><time>2026-04-04T08:08:33.105Z</time></trkpt><trkpt lat="45.0154733" lon="8.46031"><ele>152.0</ele><time>2026-04-04T08:08:34.102Z</time></trkpt><trkpt lat="45.0153667" lon="8.4603767"><ele>151.75</ele><time>2026-04-04T08:08:35.104Z</time></trkpt><trkpt lat="45.0152767" lon="8.4604867"><ele>151.5</ele><time>2026-04-04T08:08:36.103Z</time></trkpt><trkpt lat="45.01521" lon="8.4606217"><ele>151.25</ele><time>2026-04-04T08:08:37.101Z</time></trkpt><trkpt lat="45.015175" lon="8.460765"><ele>151.0</ele><time>2026-04-04T08:08:38.101Z</time></trkpt><trkpt lat="45.015175" lon="8.4609233"><ele>151.0</ele><time>2026-04-04T08:08:39.101Z</time></trkpt><trkpt lat="45.0152067" lon="8.4610883"><ele>151.0</ele><time>2026-04-04T08:08:40.103Z</time></trkpt><trkpt lat="45.0152733" lon="8.46124"><ele>151.0</ele><time>2026-04-04T08:08:41.105Z</time></trkpt><trkpt lat="45.015365" lon="8.4613733"><ele>151.0</ele><time>2026-04-04T08:08:42.103Z</time></trkpt><trkpt lat="45.0154617" lon="8.461495"><ele>148.75</ele><time>2026-04-04T08:08:43.105Z</time></trkpt><trkpt lat="45.015555" lon="8.4616133"><ele>146.5</ele><time>2026-04-04T08:08:44.104Z</time></trkpt><trkpt lat="45.0156217" lon="8.4617433"><ele>144.25</ele><time>2026-04-04T08:08:45.104Z</time></trkpt><trkpt lat="45.015655" lon="8.4618867"><ele>142.0</ele><time>2026-04-04T08:08:46.103Z</time></trkpt><trkpt lat="45.0156517" lon="8.4620383"><ele>140.25</ele><time>2026-04-04T08:08:47.099Z</time></trkpt><trkpt lat="45.01562" lon="8.4622033"><ele>138.5</ele><time>2026-04-04T08:08:48.1Z</time></trkpt><trkpt lat="45.01554" lon="8.462365"><ele>136.75</ele><time>2026-04-04T08:08:49.102Z</time></trkpt><trkpt lat="45.0154417" lon="8.4625433"><ele>135.0</ele><time>2026-04-04T08:08:50.105Z</time></trkpt><trkpt lat="45.0153233" lon="8.4627333"><ele>135.0</ele><time>2026-04-04T08:08:51.099Z</time></trkpt><trkpt lat="45.0152033" lon="8.462935"><ele>135.0</ele><time>2026-04-04T08:08:52.103Z</time></trkpt><trkpt lat="45.0150767" lon="8.4631383"><ele>135.0</ele><time>2026-04-04T08:08:53.102Z</time></trkpt><trkpt lat="45.0149533" lon="8.4633433"><ele>133.33333333333334</ele><time>2026-04-04T08:08:54.1Z</time></trkpt><trkpt lat="45.0148317" lon="8.46355"><ele>131.66666666666669</ele><time>2026-04-04T08:08:55.107Z</time></trkpt><trkpt lat="45.01471" lon="8.46376"><ele>130.0</ele><time>2026-04-04T08:08:56.105Z</time></trkpt><trkpt lat="45.0145833" lon="8.4639683"><ele>129.66666666666669</ele><time>2026-04-04T08:08:57.1Z</time></trkpt><trkpt lat="45.0144583" lon="8.4641767"><ele>129.33333333333334</ele><time>2026-04-04T08:08:58.104Z</time></trkpt><trkpt lat="45.0143317" lon="8.4643833"><ele>129.0</ele><time>2026-04-04T08:08:59.104Z</time></trkpt><trkpt lat="45.0142067" lon="8.4645933"><ele>128.33333333333334</ele><time>2026-04-04T08:09:00.099Z</time></trkpt><trkpt lat="45.0140833" lon="8.4648017"><ele>127.66666666666667</ele><time>2026-04-04T08:09:01.1Z</time></trkpt><trkpt lat="45.01396" lon="8.4650067"><ele>127.0</ele><time>2026-04-04T08:09:02.104Z</time></trkpt><trkpt lat="45.0138417" lon="8.465205"><ele>127.0</ele><time>2026-04-04T08:09:03.103Z</time></trkpt><trkpt lat="45.0137233" lon="8.4653967"><ele>127.0</ele><time>2026-04-04T08:09:04.105Z</time></trkpt><trkpt lat="45.0136117" lon="8.4655817"><ele>127.0</ele><time>2026-04-04T08:09:05.099Z</time></trkpt><trkpt lat="45.0135033" lon="8.46576"><ele>128.0</ele><time>2026-04-04T08:09:06.105Z</time></trkpt><trkpt lat="45.0134" lon="8.465935"><ele>129.0</ele><time>2026-04-04T08:09:07.105Z</time></trkpt><trkpt lat="45.0132917" lon="8.4661117"><ele>130.0</ele><time>2026-04-04T08:09:08.103Z</time></trkpt><trkpt lat="45.0131833" lon="8.46629"><ele>131.0</ele><time>2026-04-04T08:09:09.104Z</time></trkpt><trkpt lat="45.0130783" lon="8.4664683"><ele>132.0</ele><time>2026-04-04T08:09:10.098Z</time></trkpt><trkpt lat="45.012975" lon="8.46665"><ele>133.0</ele><time>2026-04-04T08:09:11.103Z</time></trkpt><trkpt lat="45.0128717" lon="8.4668317"><ele>133.0</ele><time>2026-04-04T08:09:12.102Z</time></trkpt><trkpt lat="45.012765" lon="8.4670133"><ele>133.0</ele><time>2026-04-04T08:09:13.103Z</time></trkpt><trkpt lat="45.0126533" lon="8.4671983"><ele>133.0</ele><time>2026-04-04T08:09:14.101Z</time></trkpt><trkpt lat="45.0125417" lon="8.4673783"><ele>133.33333333333334</ele><time>2026-04-04T08:09:15.1Z</time></trkpt><trkpt lat="45.01243" lon="8.4675617"><ele>133.66666666666666</ele><time>2026-04-04T08:09:16.101Z</time></trkpt><trkpt lat="45.01232" lon="8.4677433"><ele>134.0</ele><time>2026-04-04T08:09:17.102Z</time></trkpt><trkpt lat="45.012205" lon="8.4679233"><ele>134.33333333333331</ele><time>2026-04-04T08:09:18.104Z</time></trkpt><trkpt lat="45.0120883" lon="8.4681033"><ele>134.66666666666666</ele><time>2026-04-04T08:09:19.108Z</time></trkpt><trkpt lat="45.0119733" lon="8.4682867"><ele>135.0</ele><time>2026-04-04T08:09:20.102Z</time></trkpt><trkpt lat="45.011855" lon="8.46847"><ele>135.0</ele><time>2026-04-04T08:09:21.098Z</time></trkpt><trkpt lat="45.0117383" lon="8.468655"><ele>135.0</ele><time>2026-04-04T08:09:22.106Z</time></trkpt><trkpt lat="45.0116167" lon="8.4688383"><ele>135.0</ele><time>2026-04-04T08:09:23.103Z</time></trkpt><trkpt lat="45.0114833" lon="8.4690017"><ele>137.0</ele><time>2026-04-04T08:09:24.104Z</time></trkpt><trkpt lat="45.0113417" lon="8.4691367"><ele>139.0</ele><time>2026-04-04T08:09:25.107Z</time></trkpt><trkpt lat="45.01119" lon="8.46925"><ele>141.0</ele><time>2026-04-04T08:09:26.106Z</time></trkpt><trkpt lat="45.0110367" lon="8.4693633"><ele>141.0</ele><time>2026-04-04T08:09:27.103Z</time></trkpt><trkpt lat="45.01088" lon="8.46947"><ele>141.0</ele><time>2026-04-04T08:09:28.107Z</time></trkpt><trkpt lat="45.010725" lon="8.46958"><ele>141.0</ele><time>2026-04-04T08:09:29.11Z</time></trkpt><trkpt lat="45.0105717" lon="8.4696883"><ele>141.66666666666666</ele><time>2026-04-04T08:09:30.103Z</time></trkpt><trkpt lat="45.0104167" lon="8.4698033"><ele>142.33333333333331</ele><time>2026-04-04T08:09:31.103Z</time></trkpt><trkpt lat="45.0102633" lon="8.46992"><ele>143.0</ele><time>2026-04-04T08:09:32.103Z</time></trkpt><trkpt lat="45.0101067" lon="8.4700433"><ele>143.33333333333331</ele><time>2026-04-04T08:09:33.099Z</time></trkpt><trkpt lat="45.0099483" lon="8.470165"><ele>143.66666666666666</ele><time>2026-04-04T08:09:34.104Z</time></trkpt><trkpt lat="45.0097833" lon="8.4702883"><ele>144.0</ele><time>2026-04-04T08:09:35.103Z</time></trkpt><trkpt lat="45.0096183" lon="8.4704117"><ele>144.33333333333334</ele><time>2026-04-04T08:09:36.104Z</time></trkpt><trkpt lat="45.0094517" lon="8.4705317"><ele>144.66666666666669</ele><time>2026-04-04T08:09:37.101Z</time></trkpt><trkpt lat="45.009285" lon="8.47065"><ele>145.0</ele><time>2026-04-04T08:09:38.101Z</time></trkpt><trkpt lat="45.009115" lon="8.4707767"><ele>145.0</ele><time>2026-04-04T08:09:39.099Z</time></trkpt><trkpt lat="45.0089467" lon="8.4709033"><ele>145.0</ele><time>2026-04-04T08:09:40.111Z</time></trkpt><trkpt lat="45.0087783" lon="8.47103"><ele>145.0</ele><time>2026-04-04T08:09:41.101Z</time></trkpt><trkpt lat="45.0086133" lon="8.4711633"><ele>146.66666666666669</ele><time>2026-04-04T08:09:42.103Z</time></trkpt><trkpt lat="45.0084483" lon="8.4713"><ele>148.33333333333334</ele><time>2026-04-04T08:09:43.103Z</time></trkpt><trkpt lat="45.0082833" lon="8.4714433"><ele>150.0</ele><time>2026-04-04T08:09:44.105Z</time></trkpt><trkpt lat="45.0081167" lon="8.4715867"><ele>150.0</ele><time>2026-04-04T08:09:45.101Z</time></trkpt><trkpt lat="45.007955" lon="8.47173"><ele>150.0</ele><time>2026-04-04T08:09:46.105Z</time></trkpt><trkpt lat="45.007795" lon="8.4718733"><ele>150.0</ele><time>2026-04-04T08:09:47.103Z</time></trkpt><trkpt lat="45.007635" lon="8.4720183"><ele>152.66666666666666</ele><time>2026-04-04T08:09:48.106Z</time></trkpt><trkpt lat="45.0074767" lon="8.472165"><ele>155.33333333333331</ele><time>2026-04-04T08:09:49.11Z</time></trkpt><trkpt lat="45.0073217" lon="8.4723083"><ele>158.0</ele><time>2026-04-04T08:09:50.105Z</time></trkpt><trkpt lat="45.0071667" lon="8.4724483"><ele>158.0</ele><time>2026-04-04T08:09:51.101Z</time></trkpt><trkpt lat="45.0070117" lon="8.472575"><ele>158.0</ele><time>2026-04-04T08:09:52.103Z</time></trkpt><trkpt lat="45.0068483" lon="8.4726767"><ele>158.0</ele><time>2026-04-04T08:09:53.102Z</time></trkpt><trkpt lat="45.0066833" lon="8.472765"><ele>157.0</ele><time>2026-04-04T08:09:54.105Z</time></trkpt><trkpt lat="45.0065217" lon="8.4728467"><ele>156.0</ele><time>2026-04-04T08:09:55.109Z</time></trkpt><trkpt lat="45.00636" lon="8.4729167"><ele>155.0</ele><time>2026-04-04T08:09:56.108Z</time></trkpt><trkpt lat="45.00621" lon="8.47299"><ele>156.33333333333331</ele><time>2026-04-04T08:09:57.099Z</time></trkpt><trkpt lat="45.0060633" lon="8.473075"><ele>157.66666666666666</ele><time>2026-04-04T08:09:58.105Z</time></trkpt><trkpt lat="45.00593" lon="8.4731933"><ele>159.0</ele><time>2026-04-04T08:09:59.106Z</time></trkpt><trkpt lat="45.0058" lon="8.47332"><ele>159.0</ele><time>2026-04-04T08:10:00.099Z</time></trkpt><trkpt lat="45.0056733" lon="8.4734383"><ele>159.0</ele><time>2026-04-04T08:10:01.103Z</time></trkpt><trkpt lat="45.00556" lon="8.4735467"><ele>159.0</ele><time>2026-04-04T08:10:02.1Z</time></trkpt><trkpt lat="45.0054667" lon="8.4736467"><ele>159.0</ele><time>2026-04-04T08:10:03.102Z</time></trkpt><trkpt lat="45.0054" lon="8.4737583"><ele>160.4</ele><time>2026-04-04T08:10:04.102Z</time></trkpt><trkpt lat="45.005355" lon="8.4738767"><ele>161.8</ele><time>2026-04-04T08:10:05.103Z</time></trkpt><trkpt lat="45.0053433" lon="8.47401"><ele>163.20000000000002</ele><time>2026-04-04T08:10:06.104Z</time></trkpt><trkpt lat="45.005355" lon="8.4741567"><ele>164.60000000000002</ele><time>2026-04-04T08:10:07.102Z</time></trkpt><trkpt lat="45.0053833" lon="8.4743033"><ele>166.0</ele><time>2026-04-04T08:10:08.103Z</time></trkpt><trkpt lat="45.0054117" lon="8.4744617"><ele>167.0</ele><time>2026-04-04T08:10:09.102Z</time></trkpt><trkpt lat="45.0054383" lon="8.4746383"><ele>168.0</ele><time>2026-04-04T08:10:10.103Z</time></trkpt><trkpt lat="45.00546" lon="8.474835"><ele>169.0</ele><time>2026-04-04T08:10:11.103Z</time></trkpt><trkpt lat="45.0054667" lon="8.4750483"><ele>170.0</ele><time>2026-04-04T08:10:12.104Z</time></trkpt><trkpt lat="45.005455" lon="8.47526"><ele>171.75</ele><time>2026-04-04T08:10:13.105Z</time></trkpt><trkpt lat="45.005425" lon="8.47546"><ele>173.5</ele><time>2026-04-04T08:10:14.103Z</time></trkpt><trkpt lat="45.005395" lon="8.475655"><ele>175.25</ele><time>2026-04-04T08:10:15.105Z</time></trkpt><trkpt lat="45.00537" lon="8.4758317"><ele>177.0</ele><time>2026-04-04T08:10:16.101Z</time></trkpt><trkpt lat="45.0053667" lon="8.47601"><ele>177.0</ele><time>2026-04-04T08:10:17.101Z</time></trkpt><trkpt lat="45.0053767" lon="8.476195"><ele>177.0</ele><time>2026-04-04T08:10:18.102Z</time></trkpt><trkpt lat="45.0054117" lon="8.4763867"><ele>177.0</ele><time>2026-04-04T08:10:19.098Z</time></trkpt><trkpt lat="45.005455" lon="8.4765867"><ele>177.0</ele><time>2026-04-04T08:10:20.099Z</time></trkpt><trkpt lat="45.005495" lon="8.4767983"><ele>178.0</ele><time>2026-04-04T08:10:21.098Z</time></trkpt><trkpt lat="45.0055217" lon="8.477015"><ele>179.0</ele><time>2026-04-04T08:10:22.097Z</time></trkpt><trkpt lat="45.0055367" lon="8.477235"><ele>180.0</ele><time>2026-04-04T08:10:23.105Z</time></trkpt><trkpt lat="45.0055417" lon="8.477445"><ele>182.33333333333334</ele><time>2026-04-04T08:10:24.102Z</time></trkpt><trkpt lat="45.0055417" lon="8.4776533"><ele>184.66666666666669</ele><time>2026-04-04T08:10:25.102Z</time></trkpt><trkpt lat="45.005545" lon="8.4778683"><ele>187.0</ele><time>2026-04-04T08:10:26.102Z</time></trkpt><trkpt lat="45.0055433" lon="8.478085"><ele>189.0</ele><time>2026-04-04T08:10:27.099Z</time></trkpt><trkpt lat="45.0055333" lon="8.478305"><ele>191.0</ele><time>2026-04-04T08:10:28.099Z</time></trkpt><trkpt lat="45.0055117" lon="8.47852"><ele>193.0</ele><time>2026-04-04T08:10:29.106Z</time></trkpt><trkpt lat="45.0054767" lon="8.478735"><ele>195.0</ele><time>2026-04-04T08:10:30.104Z</time></trkpt><trkpt lat="45.0054367" lon="8.478945"><ele>197.0</ele><time>2026-04-04T08:10:31.099Z</time></trkpt><trkpt lat="45.0053983" lon="8.4791583"><ele>199.0</ele><time>2026-04-04T08:10:32.1Z</time></trkpt><trkpt lat="45.0053583" lon="8.47937"><ele>199.0</ele><time>2026-04-04T08:10:33.101Z</time></trkpt><trkpt lat="45.00532" lon="8.4795817"><ele>199.0</ele><time>2026-04-04T08:10:34.107Z</time></trkpt><trkpt lat="45.0052817" lon="8.4797917"><ele>199.0</ele><time>2026-04-04T08:10:35.101Z</time></trkpt><trkpt lat="45.0052483" lon="8.4799983"><ele>200.25</ele><time>2026-04-04T08:10:36.104Z</time></trkpt><trkpt lat="45.005215" lon="8.4801967"><ele>201.5</ele><time>2026-04-04T08:10:37.103Z</time></trkpt><trkpt lat="45.0051817" lon="8.480405"><ele>202.75</ele><time>2026-04-04T08:10:38.103Z</time></trkpt><trkpt lat="45.0051383" lon="8.4806067"><ele>204.0</ele><time>2026-04-04T08:10:39.101Z</time></trkpt><trkpt lat="45.0050783" lon="8.480795"><ele>205.0</ele><time>2026-04-04T08:10:40.104Z</time></trkpt><trkpt lat="45.0050033" lon="8.4809717"><ele>206.0</ele><time>2026-04-04T08:10:41.103Z</time></trkpt><trkpt lat="45.00492" lon="8.4811433"><ele>207.0</ele><time>2026-04-04T08:10:42.102Z</time></trkpt><trkpt lat="45.0048317" lon="8.4813083"><ele>208.0</ele><time>2026-04-04T08:10:43.108Z</time></trkpt><trkpt lat="45.0047517" lon="8.4814633"><ele>210.5</ele><time>2026-04-04T08:10:44.1Z</time></trkpt><trkpt lat="45.0046867" lon="8.4816217"><ele>213.0</ele><time>2026-04-04T08:10:45.103Z</time></trkpt><trkpt lat="45.0046417" lon="8.481785"><ele>215.5</ele><time>2026-04-04T08:10:46.114Z</time></trkpt><trkpt lat="45.0046117" lon="8.48196"><ele>218.0</ele><time>2026-04-04T08:10:47.1Z</time></trkpt><trkpt lat="45.0045833" lon="8.4821417"><ele>220.0</ele><time>2026-04-04T08:10:48.103Z</time></trkpt><trkpt lat="45.0045567" lon="8.4823167"><ele>222.0</ele><time>2026-04-04T08:10:49.101Z</time></trkpt><trkpt lat="45.0045267" lon="8.48248"><ele>224.0</ele><time>2026-04-04T08:10:50.1Z</time></trkpt><trkpt lat="45.0045017" lon="8.482615"><ele>226.0</ele><time>2026-04-04T08:10:51.101Z</time></trkpt><trkpt lat="45.0044733" lon="8.4827283"><ele>228.0</ele><time>2026-04-04T08:10:52.101Z</time></trkpt><trkpt lat="45.0044417" lon="8.482825"><ele>228.0</ele><time>2026-04-04T08:10:53.102Z</time></trkpt><trkpt lat="45.00441" lon="8.4829067"><ele>228.0</ele><time>2026-04-04T08:10:54.102Z</time></trkpt><trkpt lat="45.0042433" lon="8.48292"><ele>228.0</ele><time>2026-04-04T08:10:56.102Z</time></trkpt><trkpt lat="45.0040967" lon="8.4829017"><ele>228.0</ele><time>2026-04-04T08:10:57.103Z</time></trkpt><trkpt lat="45.0039767" lon="8.482895"><ele>230.25</ele><time>2026-04-04T08:10:58.107Z</time></trkpt><trkpt lat="45.003855" lon="8.4828867"><ele>232.5</ele><time>2026-04-04T08:10:59.103Z</time></trkpt><trkpt lat="45.0037333" lon="8.48288"><ele>234.75</ele><time>2026-04-04T08:11:00.103Z</time></trkpt><trkpt lat="45.0036117" lon="8.48287"><ele>237.0</ele><time>2026-04-04T08:11:01.107Z</time></trkpt><trkpt lat="45.00349" lon="8.4828583"><ele>237.0</ele><time>2026-04-04T08:11:02.109Z</time></trkpt><trkpt lat="45.0033683" lon="8.482835"><ele>237.0</ele><time>2026-04-04T08:11:03.102Z</time></trkpt><trkpt lat="45.0032533" lon="8.4827983"><ele>237.0</ele><time>2026-04-04T08:11:04.105Z</time></trkpt><trkpt lat="45.0031467" lon="8.4827483"><ele>237.0</ele><time>2026-04-04T08:11:05.106Z</time></trkpt><trkpt lat="45.0030533" lon="8.4827033"><ele>239.85714285714283</ele><time>2026-04-04T08:11:06.104Z</time></trkpt><trkpt lat="45.002965" lon="8.4826733"><ele>242.71428571428572</ele><time>2026-04-04T08:11:07.104Z</time></trkpt><trkpt lat="45.0028867" lon="8.482665"><ele>245.57142857142856</ele><time>2026-04-04T08:11:08.102Z</time></trkpt><trkpt lat="45.00281" lon="8.482665"><ele>248.42857142857142</ele><time>2026-04-04T08:11:09.102Z</time></trkpt><trkpt lat="45.0027467" lon="8.4826717"><ele>251.28571428571428</ele><time>2026-04-04T08:11:10.099Z</time></trkpt><trkpt lat="45.00268" lon="8.4826783"><ele>254.14285714285714</ele><time>2026-04-04T08:11:11.101Z</time></trkpt><trkpt lat="45.0026317" lon="8.48262"><ele>257.0</ele><time>2026-04-04T08:11:12.099Z</time></trkpt><trkpt lat="45.0025817" lon="8.482515"><ele>257.0</ele><time>2026-04-04T08:11:13.105Z</time></trkpt><trkpt lat="45.002535" lon="8.48239"><ele>257.0</ele><time>2026-04-04T08:11:14.102Z</time></trkpt><trkpt lat="45.002475" lon="8.48228"><ele>257.0</ele><time>2026-04-04T08:11:15.103Z</time></trkpt><trkpt lat="45.002435" lon="8.482155"><ele>257.0</ele><time>2026-04-04T08:11:16.101Z</time></trkpt><trkpt lat="45.0024067" lon="8.4820283"><ele>257.0</ele><time>2026-04-04T08:11:17.103Z</time></trkpt><trkpt lat="45.0023833" lon="8.4819183"><ele>257.2</ele><time>2026-04-04T08:11:18.104Z</time></trkpt><trkpt lat="45.002355" lon="8.4818283"><ele>257.4</ele><time>2026-04-04T08:11:19.103Z</time></trkpt><trkpt lat="45.0023033" lon="8.4816983"><ele>257.6</ele><time>2026-04-04T08:11:21.106Z</time></trkpt><trkpt lat="45.0022233" lon="8.4817567"><ele>257.8</ele><time>2026-04-04T08:11:24.109Z</time></trkpt><trkpt lat="45.002255" lon="8.4819133"><ele>258.0</ele><time>2026-04-04T08:11:26.107Z</time></trkpt><trkpt lat="45.0022733" lon="8.4820083"><ele>261.1666666666667</ele><time>2026-04-04T08:11:27.101Z</time></trkpt><trkpt lat="45.0022933" lon="8.482115"><ele>264.3333333333333</ele><time>2026-04-04T08:11:28.102Z</time></trkpt><trkpt lat="45.0023167" lon="8.48222"><ele>267.5</ele><time>2026-04-04T08:11:29.103Z</time></trkpt><trkpt lat="45.0023467" lon="8.4823283"><ele>270.66666666666663</ele><time>2026-04-04T08:11:30.099Z</time></trkpt><trkpt lat="45.00237" lon="8.4824417"><ele>273.8333333333333</ele><time>2026-04-04T08:11:31.098Z</time></trkpt><trkpt lat="45.0023933" lon="8.4825517"><ele>277.0</ele><time>2026-04-04T08:11:32.1Z</time></trkpt><trkpt lat="45.0024133" lon="8.4826617"><ele>277.0</ele><time>2026-04-04T08:11:33.101Z</time></trkpt><trkpt lat="45.002435" lon="8.48277"><ele>277.0</ele><time>2026-04-04T08:11:34.101Z</time></trkpt><trkpt lat="45.002465" lon="8.48288"><ele>277.0</ele><time>2026-04-04T08:11:35.107Z</time></trkpt><trkpt lat="45.0025033" lon="8.4829917"><ele>277.0</ele><time>2026-04-04T08:11:36.102Z</time></trkpt><trkpt lat="45.0025483" lon="8.4830967"><ele>277.0</ele><time>2026-04-04T08:11:37.102Z</time></trkpt><trkpt lat="45.0025983" lon="8.4831917"><ele>277.0</ele><time>2026-04-04T08:11:38.102Z</time></trkpt><trkpt lat="45.0026483" lon="8.4832817"><ele>276.3333333333333</ele><time>2026-04-04T08:11:39.1Z</time></trkpt><trkpt lat="45.00271" lon="8.48336"><ele>275.66666666666663</ele><time>2026-04-04T08:11:40.104Z</time></trkpt><trkpt lat="45.0027733" lon="8.48344"><ele>275.0</ele><time>2026-04-04T08:11:41.101Z</time></trkpt><trkpt lat="45.002835" lon="8.4835233"><ele>274.3333333333333</ele><time>2026-04-04T08:11:42.106Z</time></trkpt><trkpt lat="45.0029" lon="8.4836033"><ele>273.6666666666667</ele><time>2026-04-04T08:11:43.101Z</time></trkpt><trkpt lat="45.0029583" lon="8.4836917"><ele>273.0</ele><time>2026-04-04T08:11:44.105Z</time></trkpt><trkpt lat="45.0030117" lon="8.4837817"><ele>273.0</ele><time>2026-04-04T08:11:45.104Z</time></trkpt><trkpt lat="45.00306" lon="8.4838683"><ele>273.0</ele><time>2026-04-04T08:11:46.109Z</time></trkpt><trkpt lat="45.0031033" lon="8.483955"><ele>273.0</ele><time>2026-04-04T08:11:47.101Z</time></trkpt><trkpt lat="45.0031417" lon="8.4840433"><ele>273.0</ele><time>2026-04-04T08:11:48.103Z</time></trkpt><trkpt lat="45.003175" lon="8.484135"><ele>273.0</ele><time>2026-04-04T08:11:49.104Z</time></trkpt><trkpt lat="45.003205" lon="8.4842283"><ele>273.0</ele><time>2026-04-04T08:11:50.099Z</time></trkpt><trkpt lat="45.0032317" lon="8.48433"><ele>273.0</ele><time>2026-04-04T08:11:51.103Z</time></trkpt><trkpt lat="45.0032517" lon="8.4844417"><ele>273.0</ele><time>2026-04-04T08:11:52.104Z</time></trkpt><trkpt lat="45.003265" lon="8.4845617"><ele>273.0</ele><time>2026-04-04T08:11:53.101Z</time></trkpt><trkpt lat="45.0032717" lon="8.4846783"><ele>273.0</ele><time>2026-04-04T08:11:54.102Z</time></trkpt><trkpt lat="45.003275" lon="8.4847967"><ele>273.0</ele><time>2026-04-04T08:11:55.099Z</time></trkpt><trkpt lat="45.0032767" lon="8.4849183"><ele>273.0</ele><time>2026-04-04T08:11:56.098Z</time></trkpt><trkpt lat="45.003265" lon="8.4850433"><ele>273.0</ele><time>2026-04-04T08:11:57.101Z</time></trkpt><trkpt lat="45.003255" lon="8.4851717"><ele>273.6</ele><time>2026-04-04T08:11:58.101Z</time></trkpt><trkpt lat="45.00324" lon="8.4853033"><ele>274.20000000000005</ele><time>2026-04-04T08:11:59.102Z</time></trkpt><trkpt lat="45.003225" lon="8.4854383"><ele>274.8</ele><time>2026-04-04T08:12:00.1Z</time></trkpt><trkpt lat="45.0032067" lon="8.4855717"><ele>275.40000000000003</ele><time>2026-04-04T08:12:01.102Z</time></trkpt><trkpt lat="45.0031883" lon="8.4857083"><ele>276.0</ele><time>2026-04-04T08:12:02.105Z</time></trkpt><trkpt lat="45.0031683" lon="8.4858433"><ele>276.0</ele><time>2026-04-04T08:12:03.103Z</time></trkpt><trkpt lat="45.00315" lon="8.4859783"><ele>276.0</ele><time>2026-04-04T08:12:04.103Z</time></trkpt><trkpt lat="45.003135" lon="8.4861133"><ele>276.0</ele><time>2026-04-04T08:12:05.104Z</time></trkpt><trkpt lat="45.0031183" lon="8.4862517"><ele>276.0</ele><time>2026-04-04T08:12:06.105Z</time></trkpt><trkpt lat="45.003105" lon="8.486385"><ele>276.0</ele><time>2026-04-04T08:12:07.101Z</time></trkpt><trkpt lat="45.00309" lon="8.486505"><ele>274.6666666666667</ele><time>2026-04-04T08:12:08.099Z</time></trkpt><trkpt lat="45.0030783" lon="8.4866133"><ele>273.3333333333333</ele><time>2026-04-04T08:12:09.1Z</time></trkpt><trkpt lat="45.0030633" lon="8.4867117"><ele>272.0</ele><time>2026-04-04T08:12:10.096Z</time></trkpt><trkpt lat="45.00305" lon="8.486805"><ele>270.66666666666663</ele><time>2026-04-04T08:12:11.1Z</time></trkpt><trkpt lat="45.003035" lon="8.4868967"><ele>269.3333333333333</ele><time>2026-04-04T08:12:12.102Z</time></trkpt><trkpt lat="45.00302" lon="8.4869867"><ele>268.0</ele><time>2026-04-04T08:12:13.103Z</time></trkpt><trkpt lat="45.00298" lon="8.48715"><ele>266.8</ele><time>2026-04-04T08:12:15.104Z</time></trkpt><trkpt lat="45.002935" lon="8.4872767"><ele>265.6</ele><time>2026-04-04T08:12:17.1Z</time></trkpt><trkpt lat="45.002895" lon="8.48739"><ele>264.4</ele><time>2026-04-04T08:12:19.1Z</time></trkpt><trkpt lat="45.002875" lon="8.4875217"><ele>263.2</ele><time>2026-04-04T08:12:21.104Z</time></trkpt><trkpt lat="45.00289" lon="8.4876733"><ele>262.0</ele><time>2026-04-04T08:12:23.1Z</time></trkpt><trkpt lat="45.002905" lon="8.4877617"><ele>262.0</ele><time>2026-04-04T08:12:24.102Z</time></trkpt><trkpt lat="45.0029217" lon="8.4878533"><ele>262.0</ele><time>2026-04-04T08:12:25.105Z</time></trkpt><trkpt lat="45.0029417" lon="8.48795"><ele>262.0</ele><time>2026-04-04T08:12:26.105Z</time></trkpt><trkpt lat="45.0029583" lon="8.4880533"><ele>262.0</ele><time>2026-04-04T08:12:27.101Z</time></trkpt><trkpt lat="45.0029717" lon="8.4881617"><ele>262.0</ele><time>2026-04-04T08:12:28.103Z</time></trkpt><trkpt lat="45.0029767" lon="8.4882867"><ele>262.0</ele><time>2026-04-04T08:12:29.102Z</time></trkpt><trkpt lat="45.0029867" lon="8.4884233"><ele>260.4</ele><time>2026-04-04T08:12:30.104Z</time></trkpt><trkpt lat="45.003005" lon="8.4885583"><ele>258.79999999999995</ele><time>2026-04-04T08:12:31.104Z</time></trkpt><trkpt lat="45.0030317" lon="8.488695"><ele>257.2</ele><time>2026-04-04T08:12:32.104Z</time></trkpt><trkpt lat="45.0030583" lon="8.4888367"><ele>255.6</ele><time>2026-04-04T08:12:33.102Z</time></trkpt><trkpt lat="45.0030867" lon="8.4889733"><ele>254.0</ele><time>2026-04-04T08:12:34.102Z</time></trkpt><trkpt lat="45.003115" lon="8.489105"><ele>252.79999999999998</ele><time>2026-04-04T08:12:35.103Z</time></trkpt><trkpt lat="45.0031433" lon="8.4892383"><ele>251.59999999999997</ele><time>2026-04-04T08:12:36.1Z</time></trkpt><trkpt lat="45.0031767" lon="8.4893733"><ele>250.4</ele><time>2026-04-04T08:12:37.101Z</time></trkpt><trkpt lat="45.0032117" lon="8.4895033"><ele>249.2</ele><time>2026-04-04T08:12:38.106Z</time></trkpt><trkpt lat="45.0032583" lon="8.4896333"><ele>248.0</ele><time>2026-04-04T08:12:39.104Z</time></trkpt><trkpt lat="45.0033083" lon="8.48976"><ele>249.8</ele><time>2026-04-04T08:12:40.102Z</time></trkpt><trkpt lat="45.0033617" lon="8.48989"><ele>251.60000000000002</ele><time>2026-04-04T08:12:41.1Z</time></trkpt><trkpt lat="45.003415" lon="8.4900283"><ele>253.39999999999998</ele><time>2026-04-04T08:12:42.102Z</time></trkpt><trkpt lat="45.003465" lon="8.490175"><ele>255.2</ele><time>2026-04-04T08:12:43.107Z</time></trkpt><trkpt lat="45.0035133" lon="8.49032"><ele>257.0</ele><time>2026-04-04T08:12:44.101Z</time></trkpt><trkpt lat="45.0035583" lon="8.4904683"><ele>257.0</ele><time>2026-04-04T08:12:45.102Z</time></trkpt><trkpt lat="45.0036033" lon="8.4906167"><ele>257.0</ele><time>2026-04-04T08:12:46.103Z</time></trkpt><trkpt lat="45.0036433" lon="8.4907683"><ele>257.0</ele><time>2026-04-04T08:12:47.104Z</time></trkpt><trkpt lat="45.0036783" lon="8.49092"><ele>257.0</ele><time>2026-04-04T08:12:48.103Z</time></trkpt><trkpt lat="45.003705" lon="8.4910783"><ele>257.0</ele><time>2026-04-04T08:12:49.104Z</time></trkpt><trkpt lat="45.0037217" lon="8.4912433"><ele>257.0</ele><time>2026-04-04T08:12:50.102Z</time></trkpt><trkpt lat="45.0037367" lon="8.491405"><ele>257.0</ele><time>2026-04-04T08:12:51.104Z</time></trkpt><trkpt lat="45.0037467" lon="8.4915717"><ele>257.0</ele><time>2026-04-04T08:12:52.102Z</time></trkpt><trkpt lat="45.0037483" lon="8.49173"><ele>257.0</ele><time>2026-04-04T08:12:53.101Z</time></trkpt><trkpt lat="45.0037417" lon="8.491885"><ele>257.0</ele><time>2026-04-04T08:12:54.101Z</time></trkpt><trkpt lat="45.0037317" lon="8.4920283"><ele>257.0</ele><time>2026-04-04T08:12:55.102Z</time></trkpt><trkpt lat="45.0037117" lon="8.492165"><ele>257.0</ele><time>2026-04-04T08:12:56.105Z</time></trkpt><trkpt lat="45.0036917" lon="8.4922983"><ele>257.0</ele><time>2026-04-04T08:12:57.102Z</time></trkpt><trkpt lat="45.0036767" lon="8.49243"><ele>257.8</ele><time>2026-04-04T08:12:58.104Z</time></trkpt><trkpt lat="45.003665" lon="8.4925783"><ele>258.6</ele><time>2026-04-04T08:12:59.105Z</time></trkpt><trkpt lat="45.00368" lon="8.4927083"><ele>259.40000000000003</ele><time>2026-04-04T08:13:00.104Z</time></trkpt><trkpt lat="45.003715" lon="8.49283"><ele>260.2</ele><time>2026-04-04T08:13:01.099Z</time></trkpt><trkpt lat="45.0037717" lon="8.4929433"><ele>261.0</ele><time>2026-04-04T08:13:02.103Z</time></trkpt><trkpt lat="45.003845" lon="8.4930367"><ele>261.0</ele><time>2026-04-04T08:13:03.11Z</time></trkpt><trkpt lat="45.0039517" lon="8.4930967"><ele>261.0</ele><time>2026-04-04T08:13:04.102Z</time></trkpt><trkpt lat="45.0040767" lon="8.49313"><ele>261.0</ele><time>2026-04-04T08:13:05.107Z</time></trkpt><trkpt lat="45.0042117" lon="8.4931567"><ele>261.0</ele><time>2026-04-04T08:13:06.103Z</time></trkpt><trkpt lat="45.0043433" lon="8.4931883"><ele>261.25</ele><time>2026-04-04T08:13:07.104Z</time></trkpt><trkpt lat="45.0044733" lon="8.4932167"><ele>261.5</ele><time>2026-04-04T08:13:08.102Z</time></trkpt><trkpt lat="45.004605" lon="8.4932467"><ele>261.75</ele><time>2026-04-04T08:13:09.11Z</time></trkpt><trkpt lat="45.0047417" lon="8.493275"><ele>262.0</ele><time>2026-04-04T08:13:10.102Z</time></trkpt><trkpt lat="45.0048767" lon="8.4933067"><ele>262.0</ele><time>2026-04-04T08:13:11.107Z</time></trkpt><trkpt lat="45.0050117" lon="8.4933333"><ele>262.0</ele><time>2026-04-04T08:13:12.103Z</time></trkpt><trkpt lat="45.0051483" lon="8.4933517"><ele>262.0</ele><time>2026-04-04T08:13:13.106Z</time></trkpt><trkpt lat="45.0052833" lon="8.4933583"><ele>262.0</ele><time>2026-04-04T08:13:14.103Z</time></trkpt><trkpt lat="45.0054183" lon="8.4933367"><ele>262.0</ele><time>2026-04-04T08:13:15.102Z</time></trkpt><trkpt lat="45.0055533" lon="8.49329"><ele>262.0</ele><time>2026-04-04T08:13:16.1Z</time></trkpt><trkpt lat="45.0056867" lon="8.4932233"><ele>262.0</ele><time>2026-04-04T08:13:17.106Z</time></trkpt><trkpt lat="45.00582" lon="8.4931517"><ele>262.0</ele><time>2026-04-04T08:13:18.098Z</time></trkpt><trkpt lat="45.00595" lon="8.4930833"><ele>262.25</ele><time>2026-04-04T08:13:19.105Z</time></trkpt><trkpt lat="45.0060767" lon="8.4930217"><ele>262.5</ele><time>2026-04-04T08:13:20.099Z</time></trkpt><trkpt lat="45.0062017" lon="8.492965"><ele>262.75</ele><time>2026-04-04T08:13:21.099Z</time></trkpt><trkpt lat="45.0063267" lon="8.4929133"><ele>263.0</ele><time>2026-04-04T08:13:22.101Z</time></trkpt><trkpt lat="45.0064583" lon="8.4928917"><ele>263.0</ele><time>2026-04-04T08:13:23.114Z</time></trkpt><trkpt lat="45.006585" lon="8.4928983"><ele>263.0</ele><time>2026-04-04T08:13:24.102Z</time></trkpt><trkpt lat="45.0067083" lon="8.4929333"><ele>263.0</ele><time>2026-04-04T08:13:25.103Z</time></trkpt><trkpt lat="45.0068383" lon="8.4929767"><ele>263.0</ele><time>2026-04-04T08:13:26.102Z</time></trkpt><trkpt lat="45.0069667" lon="8.493035"><ele>263.0</ele><time>2026-04-04T08:13:27.106Z</time></trkpt><trkpt lat="45.0070983" lon="8.4931"><ele>263.0</ele><time>2026-04-04T08:13:28.103Z</time></trkpt><trkpt lat="45.0072433" lon="8.4931717"><ele>263.0</ele><time>2026-04-04T08:13:29.104Z</time></trkpt><trkpt lat="45.0073817" lon="8.4932517"><ele>263.0</ele><time>2026-04-04T08:13:30.105Z</time></trkpt><trkpt lat="45.0075133" lon="8.4933483"><ele>259.6666666666667</ele><time>2026-04-04T08:13:31.103Z</time></trkpt><trkpt lat="45.0076433" lon="8.4934633"><ele>256.3333333333333</ele><time>2026-04-04T08:13:32.099Z</time></trkpt><trkpt lat="45.00777" lon="8.4935867"><ele>253.0</ele><time>2026-04-04T08:13:33.102Z</time></trkpt><trkpt lat="45.0078883" lon="8.4937233"><ele>253.0</ele><time>2026-04-04T08:13:34.106Z</time></trkpt><trkpt lat="45.0080033" lon="8.4938633"><ele>253.0</ele><time>2026-04-04T08:13:35.103Z</time></trkpt><trkpt lat="45.00812" lon="8.4940117"><ele>253.0</ele><time>2026-04-04T08:13:36.106Z</time></trkpt><trkpt lat="45.0082367" lon="8.494155"><ele>251.33333333333331</ele><time>2026-04-04T08:13:37.107Z</time></trkpt><trkpt lat="45.0083517" lon="8.4943017"><ele>249.66666666666669</ele><time>2026-04-04T08:13:38.107Z</time></trkpt><trkpt lat="45.00847" lon="8.4944467"><ele>248.0</ele><time>2026-04-04T08:13:39.102Z</time></trkpt><trkpt lat="45.0085883" lon="8.4945933"><ele>244.66666666666669</ele><time>2026-04-04T08:13:40.102Z</time></trkpt><trkpt lat="45.008705" lon="8.4947417"><ele>241.33333333333331</ele><time>2026-04-04T08:13:41.101Z</time></trkpt><trkpt lat="45.008825" lon="8.4948917"><ele>238.0</ele><time>2026-04-04T08:13:42.108Z</time></trkpt><trkpt lat="45.008945" lon="8.4950433"><ele>238.0</ele><time>2026-04-04T08:13:43.105Z</time></trkpt><trkpt lat="45.0090683" lon="8.4951967"><ele>238.0</ele><time>2026-04-04T08:13:44.106Z</time></trkpt><trkpt lat="45.009195" lon="8.4953533"><ele>238.0</ele><time>2026-04-04T08:13:45.105Z</time></trkpt><trkpt lat="45.0093233" lon="8.4955117"><ele>236.66666666666666</ele><time>2026-04-04T08:13:46.114Z</time></trkpt><trkpt lat="45.0094517" lon="8.4956733"><ele>235.33333333333331</ele><time>2026-04-04T08:13:47.111Z</time></trkpt><trkpt lat="45.0095833" lon="8.4958283"><ele>234.0</ele><time>2026-04-04T08:13:48.11Z</time></trkpt><trkpt lat="45.009715" lon="8.4959833"><ele>234.0</ele><time>2026-04-04T08:13:49.109Z</time></trkpt><trkpt lat="45.009845" lon="8.496145"><ele>234.0</ele><time>2026-04-04T08:13:50.106Z</time></trkpt><trkpt lat="45.0099783" lon="8.4963033"><ele>234.0</ele><time>2026-04-04T08:13:51.105Z</time></trkpt><trkpt lat="45.0101117" lon="8.4964667"><ele>232.33333333333331</ele><time>2026-04-04T08:13:52.099Z</time></trkpt><trkpt lat="45.0102433" lon="8.4966317"><ele>230.66666666666666</ele><time>2026-04-04T08:13:53.099Z</time></trkpt><trkpt lat="45.0103733" lon="8.4968"><ele>229.0</ele><time>2026-04-04T08:13:54.105Z</time></trkpt><trkpt lat="45.010495" lon="8.496975"><ele>226.0</ele><time>2026-04-04T08:13:55.099Z</time></trkpt><trkpt lat="45.0106017" lon="8.4971667"><ele>223.0</ele><time>2026-04-04T08:13:56.102Z</time></trkpt><trkpt lat="45.0106817" lon="8.49738"><ele>220.0</ele><time>2026-04-04T08:13:57.106Z</time></trkpt><trkpt lat="45.0107417" lon="8.4976"><ele>220.0</ele><time>2026-04-04T08:13:58.105Z</time></trkpt><trkpt lat="45.0107933" lon="8.4978267"><ele>220.0</ele><time>2026-04-04T08:13:59.108Z</time></trkpt><trkpt lat="45.010845" lon="8.4980483"><ele>220.0</ele><time>2026-04-04T08:14:00.103Z</time></trkpt><trkpt lat="45.0108983" lon="8.4982667"><ele>221.0</ele><time>2026-04-04T08:14:01.1Z</time></trkpt><trkpt lat="45.01095" lon="8.4984783"><ele>222.0</ele><time>2026-04-04T08:14:02.103Z</time></trkpt><trkpt lat="45.0110017" lon="8.49869"><ele>223.0</ele><time>2026-04-04T08:14:03.1Z</time></trkpt><trkpt lat="45.0110483" lon="8.4988983"><ele>220.66666666666666</ele><time>2026-04-04T08:14:04.106Z</time></trkpt><trkpt lat="45.01109" lon="8.4991083"><ele>218.33333333333331</ele><time>2026-04-04T08:14:05.104Z</time></trkpt><trkpt lat="45.011135" lon="8.499315"><ele>216.0</ele><time>2026-04-04T08:14:06.103Z</time></trkpt><trkpt lat="45.0111817" lon="8.4995167"><ele>214.0</ele><time>2026-04-04T08:14:07.102Z</time></trkpt><trkpt lat="45.0112283" lon="8.4997233"><ele>212.0</ele><time>2026-04-04T08:14:08.099Z</time></trkpt><trkpt lat="45.0112767" lon="8.499935"><ele>210.0</ele><time>2026-04-04T08:14:09.106Z</time></trkpt><trkpt lat="45.0113233" lon="8.5001567"><ele>210.0</ele><time>2026-04-04T08:14:10.105Z</time></trkpt><trkpt lat="45.0113633" lon="8.5003783"><ele>210.0</ele><time>2026-04-04T08:14:11.102Z</time></trkpt><trkpt lat="45.011395" lon="8.5006117"><ele>210.0</ele><time>2026-04-04T08:14:12.108Z</time></trkpt><trkpt lat="45.0114183" lon="8.5008467"><ele>207.66666666666669</ele><time>2026-04-04T08:14:13.102Z</time></trkpt><trkpt lat="45.01143" lon="8.5010833"><ele>205.33333333333334</ele><time>2026-04-04T08:14:14.099Z</time></trkpt><trkpt lat="45.0114217" lon="8.5013283"><ele>203.0</ele><time>2026-04-04T08:14:15.104Z</time></trkpt><trkpt lat="45.0113917" lon="8.5015683"><ele>201.66666666666669</ele><time>2026-04-04T08:14:16.101Z</time></trkpt><trkpt lat="45.01134" lon="8.5018017"><ele>200.33333333333331</ele><time>2026-04-04T08:14:17.101Z</time></trkpt><trkpt lat="45.0112817" lon="8.5020283"><ele>199.0</ele><time>2026-04-04T08:14:18.098Z</time></trkpt><trkpt lat="45.0112283" lon="8.5022533"><ele>198.33333333333331</ele><time>2026-04-04T08:14:19.103Z</time></trkpt><trkpt lat="45.0111983" lon="8.5024817"><ele>197.66666666666669</ele><time>2026-04-04T08:14:20.107Z</time></trkpt><trkpt lat="45.0112033" lon="8.5027117"><ele>197.0</ele><time>2026-04-04T08:14:21.105Z</time></trkpt><trkpt lat="45.0112317" lon="8.50295"><ele>196.0</ele><time>2026-04-04T08:14:22.1Z</time></trkpt><trkpt lat="45.0112783" lon="8.5031917"><ele>195.0</ele><time>2026-04-04T08:14:23.101Z</time></trkpt><trkpt lat="45.0113283" lon="8.503435"><ele>194.0</ele><time>2026-04-04T08:14:24.104Z</time></trkpt><trkpt lat="45.0113733" lon="8.5036817"><ele>193.0</ele><time>2026-04-04T08:14:25.098Z</time></trkpt><trkpt lat="45.0114183" lon="8.5039183"><ele>192.0</ele><time>2026-04-04T08:14:26.1Z</time></trkpt><trkpt lat="45.011465" lon="8.5041433"><ele>191.0</ele><time>2026-04-04T08:14:27.103Z</time></trkpt><trkpt lat="45.01152" lon="8.50435"><ele>191.0</ele><time>2026-04-04T08:14:28.106Z</time></trkpt><trkpt lat="45.0115967" lon="8.5045367"><ele>191.0</ele><time>2026-04-04T08:14:29.101Z</time></trkpt><trkpt lat="45.0117033" lon="8.504695"><ele>191.0</ele><time>2026-04-04T08:14:30.102Z</time></trkpt><trkpt lat="45.0118267" lon="8.5048383"><ele>193.66666666666666</ele><time>2026-04-04T08:14:31.104Z</time></trkpt><trkpt lat="45.011955" lon="8.5049783"><ele>196.33333333333331</ele><time>2026-04-04T08:14:32.101Z</time></trkpt><trkpt lat="45.0120933" lon="8.5051117"><ele>199.0</ele><time>2026-04-04T08:14:33.1Z</time></trkpt><trkpt lat="45.0122317" lon="8.5052483"><ele>199.0</ele><time>2026-04-04T08:14:34.108Z</time></trkpt><trkpt lat="45.01237" lon="8.5053867"><ele>199.0</ele><time>2026-04-04T08:14:35.114Z</time></trkpt><trkpt lat="45.0125133" lon="8.5055267"><ele>199.0</ele><time>2026-04-04T08:14:36.106Z</time></trkpt><trkpt lat="45.0126533" lon="8.5056733"><ele>197.33333333333331</ele><time>2026-04-04T08:14:37.102Z</time></trkpt><trkpt lat="45.0127833" lon="8.50583"><ele>195.66666666666669</ele><time>2026-04-04T08:14:38.103Z</time></trkpt><trkpt lat="45.0129" lon="8.5059983"><ele>194.0</ele><time>2026-04-04T08:14:39.102Z</time></trkpt><trkpt lat="45.0129983" lon="8.506175"><ele>190.33333333333334</ele><time>2026-04-04T08:14:40.105Z</time></trkpt><trkpt lat="45.013075" lon="8.5063617"><ele>186.66666666666669</ele><time>2026-04-04T08:14:41.103Z</time></trkpt><trkpt lat="45.01314" lon="8.5065483"><ele>183.0</ele><time>2026-04-04T08:14:42.101Z</time></trkpt><trkpt lat="45.0131933" lon="8.50675"><ele>183.0</ele><time>2026-04-04T08:14:43.107Z</time></trkpt><trkpt lat="45.013235" lon="8.50696"><ele>183.0</ele><time>2026-04-04T08:14:44.109Z</time></trkpt><trkpt lat="45.0132683" lon="8.5071883"><ele>183.0</ele><time>2026-04-04T08:14:45.101Z</time></trkpt><trkpt lat="45.0132967" lon="8.5074117"><ele>182.33333333333334</ele><time>2026-04-04T08:14:46.107Z</time></trkpt><trkpt lat="45.0133267" lon="8.5076383"><ele>181.66666666666669</ele><time>2026-04-04T08:14:47.103Z</time></trkpt><trkpt lat="45.013355" lon="8.5078633"><ele>181.0</ele><time>2026-04-04T08:14:48.102Z</time></trkpt><trkpt lat="45.0133833" lon="8.5080817"><ele>181.0</ele><time>2026-04-04T08:14:49.101Z</time></trkpt><trkpt lat="45.0134067" lon="8.50826"><ele>181.0</ele><time>2026-04-04T08:14:50.103Z</time></trkpt><trkpt lat="45.0134433" lon="8.508405"><ele>181.0</ele><time>2026-04-04T08:14:51.102Z</time></trkpt><trkpt lat="45.0134983" lon="8.5085267"><ele>181.0</ele><time>2026-04-04T08:14:52.105Z</time></trkpt><trkpt lat="45.0135733" lon="8.5086067"><ele>181.0</ele><time>2026-04-04T08:14:53.105Z</time></trkpt><trkpt lat="45.0136717" lon="8.5086517"><ele>181.0</ele><time>2026-04-04T08:14:54.105Z</time></trkpt><trkpt lat="45.013795" lon="8.5086683"><ele>181.0</ele><time>2026-04-04T08:14:55.103Z</time></trkpt><trkpt lat="45.0139267" lon="8.50869"><ele>181.0</ele><time>2026-04-04T08:14:56.103Z</time></trkpt><trkpt lat="45.01406" lon="8.508745"><ele>181.0</ele><time>2026-04-04T08:14:57.102Z</time></trkpt><trkpt lat="45.014195" lon="8.5088367"><ele>179.75</ele><time>2026-04-04T08:14:58.101Z</time></trkpt><trkpt lat="45.0143133" lon="8.5089683"><ele>178.5</ele><time>2026-04-04T08:14:59.102Z</time></trkpt><trkpt lat="45.0144233" lon="8.5091083"><ele>177.25</ele><time>2026-04-04T08:15:00.102Z</time></trkpt><trkpt lat="45.0145217" lon="8.5092583"><ele>176.0</ele><time>2026-04-04T08:15:01.101Z</time></trkpt><trkpt lat="45.01461" lon="8.50941"><ele>173.5</ele><time>2026-04-04T08:15:02.102Z</time></trkpt><trkpt lat="45.014675" lon="8.50958"><ele>171.0</ele><time>2026-04-04T08:15:03.1Z</time></trkpt><trkpt lat="45.01472" lon="8.5097617"><ele>168.5</ele><time>2026-04-04T08:15:04.104Z</time></trkpt><trkpt lat="45.01475" lon="8.50996"><ele>166.0</ele><time>2026-04-04T08:15:05.105Z</time></trkpt><trkpt lat="45.01477" lon="8.510165"><ele>166.0</ele><time>2026-04-04T08:15:06.102Z</time></trkpt><trkpt lat="45.014785" lon="8.51037"><ele>166.0</ele><time>2026-04-04T08:15:07.109Z</time></trkpt><trkpt lat="45.0148017" lon="8.5105567"><ele>166.0</ele><time>2026-04-04T08:15:08.103Z</time></trkpt><trkpt lat="45.0148283" lon="8.5107383"><ele>166.0</ele><time>2026-04-04T08:15:09.105Z</time></trkpt><trkpt lat="45.0148867" lon="8.5108817"><ele>166.5</ele><time>2026-04-04T08:15:10.102Z</time></trkpt><trkpt lat="45.01497" lon="8.5109783"><ele>167.0</ele><time>2026-04-04T08:15:11.104Z</time></trkpt><trkpt lat="45.01509" lon="8.5110117"><ele>167.5</ele><time>2026-04-04T08:15:12.102Z</time></trkpt><trkpt lat="45.0152183" lon="8.51101"><ele>168.0</ele><time>2026-04-04T08:15:13.098Z</time></trkpt><trkpt lat="45.0153483" lon="8.5109867"><ele>168.0</ele><time>2026-04-04T08:15:14.105Z</time></trkpt><trkpt lat="45.015485" lon="8.5109467"><ele>168.0</ele><time>2026-04-04T08:15:15.103Z</time></trkpt><trkpt lat="45.0156183" lon="8.5109233"><ele>168.0</ele><time>2026-04-04T08:15:16.1Z</time></trkpt><trkpt lat="45.01575" lon="8.5109433"><ele>168.0</ele><time>2026-04-04T08:15:17.106Z</time></trkpt><trkpt lat="45.0158683" lon="8.511015"><ele>168.0</ele><time>2026-04-04T08:15:18.107Z</time></trkpt><trkpt lat="45.0159717" lon="8.511125"><ele>168.0</ele><time>2026-04-04T08:15:19.1Z</time></trkpt><trkpt lat="45.0160517" lon="8.5112883"><ele>168.0</ele><time>2026-04-04T08:15:20.098Z</time></trkpt><trkpt lat="45.0161167" lon="8.5114817"><ele>168.0</ele><time>2026-04-04T08:15:21.098Z</time></trkpt><trkpt lat="45.0161767" lon="8.5116867"><ele>164.0</ele><time>2026-04-04T08:15:22.108Z</time></trkpt><trkpt lat="45.0162417" lon="8.511885"><ele>160.0</ele><time>2026-04-04T08:15:23.104Z</time></trkpt><trkpt lat="45.0163183" lon="8.51207"><ele>156.0</ele><time>2026-04-04T08:15:24.101Z</time></trkpt><trkpt lat="45.016415" lon="8.5122283"><ele>156.33333333333334</ele><time>2026-04-04T08:15:25.104Z</time></trkpt><trkpt lat="45.0165333" lon="8.5123567"><ele>156.66666666666669</ele><time>2026-04-04T08:15:26.102Z</time></trkpt><trkpt lat="45.0166667" lon="8.512455"><ele>157.0</ele><time>2026-04-04T08:15:27.101Z</time></trkpt><trkpt lat="45.0168183" lon="8.51252"><ele>157.0</ele><time>2026-04-04T08:15:28.107Z</time></trkpt><trkpt lat="45.016975" lon="8.512555"><ele>157.0</ele><time>2026-04-04T08:15:29.102Z</time></trkpt><trkpt lat="45.0171383" lon="8.512565"><ele>157.0</ele><time>2026-04-04T08:15:30.105Z</time></trkpt><trkpt lat="45.0173" lon="8.5125533"><ele>157.0</ele><time>2026-04-04T08:15:31.1Z</time></trkpt><trkpt lat="45.0174567" lon="8.5125133"><ele>157.0</ele><time>2026-04-04T08:15:32.102Z</time></trkpt><trkpt lat="45.0176083" lon="8.5124733"><ele>157.0</ele><time>2026-04-04T08:15:33.103Z</time></trkpt><trkpt lat="45.017765" lon="8.51245"><ele>155.66666666666669</ele><time>2026-04-04T08:15:34.103Z</time></trkpt><trkpt lat="45.0179167" lon="8.512455"><ele>154.33333333333334</ele><time>2026-04-04T08:15:35.109Z</time></trkpt><trkpt lat="45.01807" lon="8.512485"><ele>153.0</ele><time>2026-04-04T08:15:36.102Z</time></trkpt><trkpt lat="45.01821" lon="8.512585"><ele>152.0</ele><time>2026-04-04T08:15:37.101Z</time></trkpt><trkpt lat="45.0183617" lon="8.5126917"><ele>151.0</ele><time>2026-04-04T08:15:38.104Z</time></trkpt><trkpt lat="45.0185167" lon="8.5128117"><ele>150.0</ele><time>2026-04-04T08:15:39.107Z</time></trkpt><trkpt lat="45.0186717" lon="8.512935"><ele>148.33333333333334</ele><time>2026-04-04T08:15:40.107Z</time></trkpt><trkpt lat="45.018825" lon="8.5130533"><ele>146.66666666666669</ele><time>2026-04-04T08:15:41.102Z</time></trkpt><trkpt lat="45.0189733" lon="8.51317"><ele>145.0</ele><time>2026-04-04T08:15:42.099Z</time></trkpt><trkpt lat="45.01912" lon="8.5132783"><ele>144.66666666666669</ele><time>2026-04-04T08:15:43.099Z</time></trkpt><trkpt lat="45.019265" lon="8.5133867"><ele>144.33333333333334</ele><time>2026-04-04T08:15:44.103Z</time></trkpt><trkpt lat="45.01941" lon="8.5134967"><ele>144.0</ele><time>2026-04-04T08:15:45.103Z</time></trkpt><trkpt lat="45.019555" lon="8.5136083"><ele>144.0</ele><time>2026-04-04T08:15:46.106Z</time></trkpt><trkpt lat="45.0197017" lon="8.5137183"><ele>144.0</ele><time>2026-04-04T08:15:47.1Z</time></trkpt><trkpt lat="45.0198467" lon="8.5138267"><ele>144.0</ele><time>2026-04-04T08:15:48.102Z</time></trkpt><trkpt lat="45.0199967" lon="8.5139367"><ele>143.0</ele><time>2026-04-04T08:15:49.11Z</time></trkpt><trkpt lat="45.0201417" lon="8.514045"><ele>142.0</ele><time>2026-04-04T08:15:50.102Z</time></trkpt><trkpt lat="45.0202883" lon="8.5141533"><ele>141.0</ele><time>2026-04-04T08:15:51.099Z</time></trkpt><trkpt lat="45.0204367" lon="8.514265"><ele>141.0</ele><time>2026-04-04T08:15:52.108Z</time></trkpt><trkpt lat="45.02059" lon="8.51438"><ele>141.0</ele><time>2026-04-04T08:15:53.101Z</time></trkpt><trkpt lat="45.0207467" lon="8.5144933"><ele>141.0</ele><time>2026-04-04T08:15:54.102Z</time></trkpt><trkpt lat="45.0209067" lon="8.51461"><ele>140.33333333333334</ele><time>2026-04-04T08:15:55.104Z</time></trkpt><trkpt lat="45.02107" lon="8.5147283"><ele>139.66666666666669</ele><time>2026-04-04T08:15:56.103Z</time></trkpt><trkpt lat="45.021235" lon="8.5148517"><ele>139.0</ele><time>2026-04-04T08:15:57.107Z</time></trkpt><trkpt lat="45.0214033" lon="8.514975"><ele>139.0</ele><time>2026-04-04T08:15:58.102Z</time></trkpt><trkpt lat="45.021575" lon="8.5151017"><ele>139.0</ele><time>2026-04-04T08:15:59.107Z</time></trkpt><trkpt lat="45.0217483" lon="8.5152283"><ele>139.0</ele><time>2026-04-04T08:16:00.101Z</time></trkpt><trkpt lat="45.0219283" lon="8.5153567"><ele>138.66666666666669</ele><time>2026-04-04T08:16:01.102Z</time></trkpt><trkpt lat="45.0221083" lon="8.51549"><ele>138.33333333333334</ele><time>2026-04-04T08:16:02.107Z</time></trkpt><trkpt lat="45.02229" lon="8.5156233"><ele>138.0</ele><time>2026-04-04T08:16:03.099Z</time></trkpt><trkpt lat="45.0224733" lon="8.5157533"><ele>137.0</ele><time>2026-04-04T08:16:04.104Z</time></trkpt><trkpt lat="45.02265" lon="8.51588"><ele>136.0</ele><time>2026-04-04T08:16:05.103Z</time></trkpt><trkpt lat="45.0228267" lon="8.515985"><ele>135.0</ele><time>2026-04-04T08:16:06.103Z</time></trkpt><trkpt lat="45.0230083" lon="8.5160667"><ele>135.0</ele><time>2026-04-04T08:16:07.105Z</time></trkpt><trkpt lat="45.0231883" lon="8.5161267"><ele>135.0</ele><time>2026-04-04T08:16:08.101Z</time></trkpt><trkpt lat="45.0233733" lon="8.5161783"><ele>135.0</ele><time>2026-04-04T08:16:09.101Z</time></trkpt><trkpt lat="45.0235567" lon="8.5162283"><ele>134.66666666666666</ele><time>2026-04-04T08:16:10.104Z</time></trkpt><trkpt lat="45.0237383" lon="8.5162817"><ele>134.33333333333331</ele><time>2026-04-04T08:16:11.102Z</time></trkpt><trkpt lat="45.023925" lon="8.5163283"><ele>134.0</ele><time>2026-04-04T08:16:12.1Z</time></trkpt><trkpt lat="45.0241083" lon="8.51638"><ele>133.33333333333331</ele><time>2026-04-04T08:16:13.101Z</time></trkpt><trkpt lat="45.02429" lon="8.5164333"><ele>132.66666666666666</ele><time>2026-04-04T08:16:14.102Z</time></trkpt><trkpt lat="45.0244717" lon="8.5164883"><ele>132.0</ele><time>2026-04-04T08:16:15.104Z</time></trkpt><trkpt lat="45.0246583" lon="8.51654"><ele>132.0</ele><time>2026-04-04T08:16:16.104Z</time></trkpt><trkpt lat="45.0248467" lon="8.51659"><ele>132.0</ele><time>2026-04-04T08:16:17.1Z</time></trkpt><trkpt lat="45.025035" lon="8.5166433"><ele>132.0</ele><time>2026-04-04T08:16:18.104Z</time></trkpt><trkpt lat="45.025225" lon="8.5166967"><ele>131.66666666666666</ele><time>2026-04-04T08:16:19.102Z</time></trkpt><trkpt lat="45.02542" lon="8.516745"><ele>131.33333333333331</ele><time>2026-04-04T08:16:20.106Z</time></trkpt><trkpt lat="45.0256117" lon="8.5168033"><ele>131.0</ele><time>2026-04-04T08:16:21.104Z</time></trkpt><trkpt lat="45.0258033" lon="8.5168617"><ele>130.0</ele><time>2026-04-04T08:16:22.102Z</time></trkpt><trkpt lat="45.0259933" lon="8.5169233"><ele>129.0</ele><time>2026-04-04T08:16:23.106Z</time></trkpt><trkpt lat="45.0261817" lon="8.5169917"><ele>128.0</ele><time>2026-04-04T08:16:24.104Z</time></trkpt><trkpt lat="45.0263667" lon="8.5170683"><ele>128.33333333333331</ele><time>2026-04-04T08:16:25.106Z</time></trkpt><trkpt lat="45.02655" lon="8.5171517"><ele>128.66666666666666</ele><time>2026-04-04T08:16:26.106Z</time></trkpt><trkpt lat="45.026725" lon="8.5172467"><ele>129.0</ele><time>2026-04-04T08:16:27.1Z</time></trkpt><trkpt lat="45.026895" lon="8.5173517"><ele>128.33333333333334</ele><time>2026-04-04T08:16:28.1Z</time></trkpt><trkpt lat="45.0270633" lon="8.51745"><ele>127.66666666666667</ele><time>2026-04-04T08:16:29.105Z</time></trkpt><trkpt lat="45.02723" lon="8.51755"><ele>127.0</ele><time>2026-04-04T08:16:30.102Z</time></trkpt><trkpt lat="45.0273983" lon="8.5176467"><ele>127.0</ele><time>2026-04-04T08:16:31.102Z</time></trkpt><trkpt lat="45.0275683" lon="8.5177417"><ele>127.0</ele><time>2026-04-04T08:16:32.108Z</time></trkpt><trkpt lat="45.02774" lon="8.51784"><ele>127.0</ele><time>2026-04-04T08:16:33.104Z</time></trkpt><trkpt lat="45.02791" lon="8.5179467"><ele>127.0</ele><time>2026-04-04T08:16:34.103Z</time></trkpt><trkpt lat="45.0280817" lon="8.5180517"><ele>127.0</ele><time>2026-04-04T08:16:35.102Z</time></trkpt><trkpt lat="45.0282533" lon="8.5181567"><ele>127.0</ele><time>2026-04-04T08:16:36.107Z</time></trkpt><trkpt lat="45.0284233" lon="8.5182617"><ele>126.33333333333334</ele><time>2026-04-04T08:16:37.101Z</time></trkpt><trkpt lat="45.028595" lon="8.5183617"><ele>125.66666666666666</ele><time>2026-04-04T08:16:38.1Z</time></trkpt><trkpt lat="45.0287617" lon="8.5184583"><ele>125.0</ele><time>2026-04-04T08:16:39.103Z</time></trkpt><trkpt lat="45.0289317" lon="8.518555"><ele>125.0</ele><time>2026-04-04T08:16:40.102Z</time></trkpt><trkpt lat="45.0291017" lon="8.5186483"><ele>125.0</ele><time>2026-04-04T08:16:41.105Z</time></trkpt><trkpt lat="45.0292683" lon="8.51875"><ele>125.0</ele><time>2026-04-04T08:16:42.103Z</time></trkpt><trkpt lat="45.0294333" lon="8.51885"><ele>125.0</ele><time>2026-04-04T08:16:43.102Z</time></trkpt><trkpt lat="45.0295983" lon="8.51895"><ele>125.0</ele><time>2026-04-04T08:16:44.111Z</time></trkpt><trkpt lat="45.0297617" lon="8.5190517"><ele>125.0</ele><time>2026-04-04T08:16:45.104Z</time></trkpt><trkpt lat="45.029925" lon="8.51916"><ele>124.33333333333333</ele><time>2026-04-04T08:16:46.108Z</time></trkpt><trkpt lat="45.03008" lon="8.5192817"><ele>123.66666666666666</ele><time>2026-04-04T08:16:47.114Z</time></trkpt><trkpt lat="45.030225" lon="8.5194033"><ele>123.0</ele><time>2026-04-04T08:16:48.1Z</time></trkpt><trkpt lat="45.0303683" lon="8.519525"><ele>122.66666666666666</ele><time>2026-04-04T08:16:49.107Z</time></trkpt><trkpt lat="45.0305017" lon="8.5196517"><ele>122.33333333333333</ele><time>2026-04-04T08:16:50.101Z</time></trkpt><trkpt lat="45.0306317" lon="8.5197783"><ele>122.0</ele><time>2026-04-04T08:16:51.104Z</time></trkpt><trkpt lat="45.0307617" lon="8.5198967"><ele>122.0</ele><time>2026-04-04T08:16:52.103Z</time></trkpt><trkpt lat="45.0308867" lon="8.5200133"><ele>122.0</ele><time>2026-04-04T08:16:53.102Z</time></trkpt><trkpt lat="45.03101" lon="8.52013"><ele>122.0</ele><time>2026-04-04T08:16:54.104Z</time></trkpt><trkpt lat="45.0311283" lon="8.5202433"><ele>122.0</ele><time>2026-04-04T08:16:55.102Z</time></trkpt><trkpt lat="45.03124" lon="8.5203517"><ele>122.5</ele><time>2026-04-04T08:16:56.103Z</time></trkpt><trkpt lat="45.0313533" lon="8.5204567"><ele>123.0</ele><time>2026-04-04T08:16:57.105Z</time></trkpt><trkpt lat="45.031465" lon="8.520565"><ele>123.5</ele><time>2026-04-04T08:16:58.103Z</time></trkpt><trkpt lat="45.0315717" lon="8.5206783"><ele>124.0</ele><time>2026-04-04T08:16:59.099Z</time></trkpt><trkpt lat="45.0316667" lon="8.5208"><ele>124.0</ele><time>2026-04-04T08:17:00.102Z</time></trkpt><trkpt lat="45.03175" lon="8.5209283"><ele>124.0</ele><time>2026-04-04T08:17:01.102Z</time></trkpt><trkpt lat="45.03182" lon="8.5210583"><ele>124.0</ele><time>2026-04-04T08:17:02.102Z</time></trkpt><trkpt lat="45.0318867" lon="8.521175"><ele>124.0</ele><time>2026-04-04T08:17:03.107Z</time></trkpt><trkpt lat="45.031945" lon="8.521275"><ele>124.0</ele><time>2026-04-04T08:17:04.101Z</time></trkpt><trkpt lat="45.0319967" lon="8.5213633"><ele>124.00000000000001</ele><time>2026-04-04T08:17:05.104Z</time></trkpt><trkpt lat="45.032045" lon="8.5214417"><ele>124.0</ele><time>2026-04-04T08:17:06.103Z</time></trkpt><trkpt lat="45.0320917" lon="8.5215083"><ele>124.0</ele><time>2026-04-04T08:17:07.105Z</time></trkpt><trkpt lat="45.0321383" lon="8.52157"><ele>124.0</ele><time>2026-04-04T08:17:08.099Z</time></trkpt><trkpt lat="45.0322133" lon="8.5216983"><ele>124.00000000000001</ele><time>2026-04-04T08:17:10.1Z</time></trkpt><trkpt lat="45.0322617" lon="8.5217767"><ele>124.0</ele><time>2026-04-04T08:17:11.098Z</time></trkpt><trkpt lat="45.032315" lon="8.5218533"><ele>124.00000000000001</ele><time>2026-04-04T08:17:12.102Z</time></trkpt><trkpt lat="45.032365" lon="8.5219283"><ele>124.0</ele><time>2026-04-04T08:17:13.107Z</time></trkpt><trkpt lat="45.032425" lon="8.5219917"><ele>124.0</ele><time>2026-04-04T08:17:14.103Z</time></trkpt><trkpt lat="45.032485" lon="8.5220633"><ele>124.0</ele><time>2026-04-04T08:17:15.098Z</time></trkpt><trkpt lat="45.0325517" lon="8.5221267"><ele>124.00000000000001</ele><time>2026-04-04T08:17:16.104Z</time></trkpt><trkpt lat="45.03262" lon="8.5221933"><ele>124.0</ele><time>2026-04-04T08:17:17.103Z</time></trkpt><trkpt lat="45.032695" lon="8.5222483"><ele>124.2</ele><time>2026-04-04T08:17:18.105Z</time></trkpt><trkpt lat="45.03277" lon="8.5223067"><ele>124.4</ele><time>2026-04-04T08:17:19.104Z</time></trkpt><trkpt lat="45.0328433" lon="8.522365"><ele>124.6</ele><time>2026-04-04T08:17:20.099Z</time></trkpt><trkpt lat="45.0329183" lon="8.5224383"><ele>124.8</ele><time>2026-04-04T08:17:21.101Z</time></trkpt><trkpt lat="45.0330017" lon="8.5224967"><ele>125.0</ele><time>2026-04-04T08:17:22.103Z</time></trkpt><trkpt lat="45.03309" lon="8.5225567"><ele>124.99999999999999</ele><time>2026-04-04T08:17:23.108Z</time></trkpt><trkpt lat="45.033175" lon="8.5226217"><ele>125.0</ele><time>2026-04-04T08:17:24.1Z</time></trkpt><trkpt lat="45.033255" lon="8.5226767"><ele>125.0</ele><time>2026-04-04T08:17:25.104Z</time></trkpt><trkpt lat="45.03333" lon="8.5227283"><ele>125.0</ele><time>2026-04-04T08:17:26.103Z</time></trkpt><trkpt lat="45.0334067" lon="8.5227783"><ele>124.99999999999999</ele><time>2026-04-04T08:17:27.104Z</time></trkpt><trkpt lat="45.0334817" lon="8.5228233"><ele>125.0</ele><time>2026-04-04T08:17:28.104Z</time></trkpt><trkpt lat="45.0335567" lon="8.5228833"><ele>124.99999999999999</ele><time>2026-04-04T08:17:29.106Z</time></trkpt><trkpt lat="45.0336233" lon="8.5229533"><ele>125.0</ele><time>2026-04-04T08:17:30.107Z</time></trkpt><trkpt lat="45.0336917" lon="8.5230283"><ele>125.0</ele><time>2026-04-04T08:17:31.1Z</time></trkpt><trkpt lat="45.033755" lon="8.5231067"><ele>125.0</ele><time>2026-04-04T08:17:32.097Z</time></trkpt><trkpt lat="45.0338233" lon="8.5231733"><ele>124.99999999999999</ele><time>2026-04-04T08:17:33.099Z</time></trkpt><trkpt lat="45.0338817" lon="8.52326"><ele>125.0</ele><time>2026-04-04T08:17:34.101Z</time></trkpt><trkpt lat="45.0339467" lon="8.523335"><ele>124.99999999999999</ele><time>2026-04-04T08:17:35.102Z</time></trkpt><trkpt lat="45.0340133" lon="8.5234167"><ele>125.0</ele><time>2026-04-04T08:17:36.099Z</time></trkpt><trkpt lat="45.0340783" lon="8.5235"><ele>125.0</ele><time>2026-04-04T08:17:37.104Z</time></trkpt><trkpt lat="45.0341417" lon="8.5235933"><ele>125.0</ele><time>2026-04-04T08:17:38.099Z</time></trkpt><trkpt lat="45.0342067" lon="8.5236733"><ele>124.99999999999999</ele><time>2026-04-04T08:17:39.108Z</time></trkpt><trkpt lat="45.0342617" lon="8.5237733"><ele>125.0</ele><time>2026-04-04T08:17:40.103Z</time></trkpt><trkpt lat="45.0343183" lon="8.5238817"><ele>124.66666666666666</ele><time>2026-04-04T08:17:41.105Z</time></trkpt><trkpt lat="45.0343917" lon="8.5239567"><ele>124.33333333333333</ele><time>2026-04-04T08:17:42.107Z</time></trkpt><trkpt lat="45.034455" lon="8.5240433"><ele>124.0</ele><time>2026-04-04T08:17:43.106Z</time></trkpt><trkpt lat="45.0345183" lon="8.5241367"><ele>123.66666666666666</ele><time>2026-04-04T08:17:44.104Z</time></trkpt><trkpt lat="45.03457" lon="8.5242417"><ele>123.33333333333333</ele><time>2026-04-04T08:17:45.104Z</time></trkpt><trkpt lat="45.0346167" lon="8.524345"><ele>123.0</ele><time>2026-04-04T08:17:46.105Z</time></trkpt><trkpt lat="45.0346667" lon="8.52444"><ele>123.0</ele><time>2026-04-04T08:17:47.104Z</time></trkpt><trkpt lat="45.03472" lon="8.5245267"><ele>123.0</ele><time>2026-04-04T08:17:48.107Z</time></trkpt><trkpt lat="45.034765" lon="8.5246083"><ele>123.0</ele><time>2026-04-04T08:17:49.101Z</time></trkpt><trkpt lat="45.034795" lon="8.52469"><ele>123.0</ele><time>2026-04-04T08:17:50.102Z</time></trkpt><trkpt lat="45.0348417" lon="8.5247917"><ele>123.0</ele><time>2026-04-04T08:17:52.106Z</time></trkpt><trkpt lat="45.0348317" lon="8.5248817"><ele>123.0</ele><time>2026-04-04T08:17:54.099Z</time></trkpt><trkpt lat="45.03478" lon="8.5249783"><ele>122.80000000000001</ele><time>2026-04-04T08:17:56.106Z</time></trkpt><trkpt lat="45.0347417" lon="8.5250583"><ele>122.60000000000001</ele><time>2026-04-04T08:17:57.098Z</time></trkpt><trkpt lat="45.03467" lon="8.5251533"><ele>122.39999999999999</ele><time>2026-04-04T08:17:58.1Z</time></trkpt><trkpt lat="45.03459" lon="8.5252633"><ele>122.19999999999999</ele><time>2026-04-04T08:17:59.099Z</time></trkpt><trkpt lat="45.0345033" lon="8.5253933"><ele>122.0</ele><time>2026-04-04T08:18:00.102Z</time></trkpt><trkpt lat="45.03442" lon="8.525525"><ele>122.0</ele><time>2026-04-04T08:18:01.104Z</time></trkpt><trkpt lat="45.034335" lon="8.525655"><ele>122.0</ele><time>2026-04-04T08:18:02.105Z</time></trkpt><trkpt lat="45.0342433" lon="8.52578"><ele>122.0</ele><time>2026-04-04T08:18:03.103Z</time></trkpt><trkpt lat="45.0341467" lon="8.5258933"><ele>122.0</ele><time>2026-04-04T08:18:04.114Z</time></trkpt><trkpt lat="45.0340567" lon="8.5260067"><ele>122.0</ele><time>2026-04-04T08:18:05.104Z</time></trkpt><trkpt lat="45.0339617" lon="8.5261217"><ele>122.0</ele><time>2026-04-04T08:18:06.102Z</time></trkpt><trkpt lat="45.033865" lon="8.526235"><ele>122.0</ele><time>2026-04-04T08:18:07.104Z</time></trkpt><trkpt lat="45.0337667" lon="8.5263533"><ele>122.0</ele><time>2026-04-04T08:18:08.103Z</time></trkpt><trkpt lat="45.0336617" lon="8.5264783"><ele>122.0</ele><time>2026-04-04T08:18:09.108Z</time></trkpt><trkpt lat="45.033555" lon="8.5266067"><ele>122.0</ele><time>2026-04-04T08:18:10.101Z</time></trkpt><trkpt lat="45.03344" lon="8.5267367"><ele>122.0</ele><time>2026-04-04T08:18:11.103Z</time></trkpt><trkpt lat="45.0333283" lon="8.52687"><ele>122.0</ele><time>2026-04-04T08:18:12.101Z</time></trkpt><trkpt lat="45.0332167" lon="8.52701"><ele>122.5</ele><time>2026-04-04T08:18:13.107Z</time></trkpt><trkpt lat="45.033105" lon="8.5271467"><ele>123.0</ele><time>2026-04-04T08:18:14.102Z</time></trkpt><trkpt lat="45.0330017" lon="8.527285"><ele>123.5</ele><time>2026-04-04T08:18:15.101Z</time></trkpt><trkpt lat="45.032895" lon="8.5274183"><ele>124.0</ele><time>2026-04-04T08:18:16.108Z</time></trkpt><trkpt lat="45.0327933" lon="8.527545"><ele>124.0</ele><time>2026-04-04T08:18:17.105Z</time></trkpt><trkpt lat="45.0326867" lon="8.5276717"><ele>124.0</ele><time>2026-04-04T08:18:18.098Z</time></trkpt><trkpt lat="45.0325767" lon="8.527795"><ele>124.0</ele><time>2026-04-04T08:18:19.103Z</time></trkpt><trkpt lat="45.0324717" lon="8.527925"><ele>124.0</ele><time>2026-04-04T08:18:20.107Z</time></trkpt><trkpt lat="45.0323633" lon="8.5280583"><ele>124.5</ele><time>2026-04-04T08:18:21.102Z</time></trkpt><trkpt lat="45.032255" lon="8.5281933"><ele>125.0</ele><time>2026-04-04T08:18:22.103Z</time></trkpt><trkpt lat="45.0321417" lon="8.5283283"><ele>125.5</ele><time>2026-04-04T08:18:23.1Z</time></trkpt><trkpt lat="45.0320217" lon="8.5284583"><ele>126.0</ele><time>2026-04-04T08:18:24.108Z</time></trkpt><trkpt lat="45.0319033" lon="8.5285933"><ele>125.66666666666666</ele><time>2026-04-04T08:18:25.105Z</time></trkpt><trkpt lat="45.03179" lon="8.5287333"><ele>125.33333333333333</ele><time>2026-04-04T08:18:26.105Z</time></trkpt><trkpt lat="45.0316733" lon="8.528875"><ele>125.0</ele><time>2026-04-04T08:18:27.102Z</time></trkpt><trkpt lat="45.0315617" lon="8.5290233"><ele>125.66666666666666</ele><time>2026-04-04T08:18:28.105Z</time></trkpt><trkpt lat="45.03144" lon="8.529175"><ele>126.33333333333334</ele><time>2026-04-04T08:18:29.104Z</time></trkpt><trkpt lat="45.03132" lon="8.5293233"><ele>127.0</ele><time>2026-04-04T08:18:30.099Z</time></trkpt><trkpt lat="45.031205" lon="8.5294683"><ele>126.33333333333334</ele><time>2026-04-04T08:18:31.105Z</time></trkpt><trkpt lat="45.0310917" lon="8.52961"><ele>125.66666666666666</ele><time>2026-04-04T08:18:32.1Z</time></trkpt><trkpt lat="45.030975" lon="8.5297533"><ele>125.0</ele><time>2026-04-04T08:18:33.101Z</time></trkpt><trkpt lat="45.030855" lon="8.52989"><ele>124.33333333333333</ele><time>2026-04-04T08:18:34.101Z</time></trkpt><trkpt lat="45.0307317" lon="8.5300283"><ele>123.66666666666666</ele><time>2026-04-04T08:18:35.101Z</time></trkpt><trkpt lat="45.0306083" lon="8.5301683"><ele>123.0</ele><time>2026-04-04T08:18:36.106Z</time></trkpt><trkpt lat="45.03049" lon="8.5303117"><ele>123.33333333333334</ele><time>2026-04-04T08:18:37.1Z</time></trkpt><trkpt lat="45.0303783" lon="8.5304583"><ele>123.66666666666667</ele><time>2026-04-04T08:18:38.098Z</time></trkpt><trkpt lat="45.030265" lon="8.5306"><ele>124.0</ele><time>2026-04-04T08:18:39.101Z</time></trkpt><trkpt lat="45.0301533" lon="8.5307383"><ele>124.0</ele><time>2026-04-04T08:18:40.105Z</time></trkpt><trkpt lat="45.0300417" lon="8.5308717"><ele>124.0</ele><time>2026-04-04T08:18:41.104Z</time></trkpt><trkpt lat="45.0299317" lon="8.5310067"><ele>124.0</ele><time>2026-04-04T08:18:42.1Z</time></trkpt><trkpt lat="45.0298233" lon="8.5311417"><ele>124.0</ele><time>2026-04-04T08:18:43.099Z</time></trkpt><trkpt lat="45.02971" lon="8.5312783"><ele>124.33333333333334</ele><time>2026-04-04T08:18:44.103Z</time></trkpt><trkpt lat="45.0295933" lon="8.5314217"><ele>124.66666666666666</ele><time>2026-04-04T08:18:45.103Z</time></trkpt><trkpt lat="45.0294717" lon="8.5315667"><ele>125.0</ele><time>2026-04-04T08:18:46.101Z</time></trkpt><trkpt lat="45.0293483" lon="8.53172"><ele>125.0</ele><time>2026-04-04T08:18:47.102Z</time></trkpt><trkpt lat="45.0292167" lon="8.531875"><ele>125.0</ele><time>2026-04-04T08:18:48.099Z</time></trkpt><trkpt lat="45.0290817" lon="8.53204"><ele>125.0</ele><time>2026-04-04T08:18:49.101Z</time></trkpt><trkpt lat="45.0289483" lon="8.532205"><ele>124.66666666666666</ele><time>2026-04-04T08:18:50.099Z</time></trkpt><trkpt lat="45.028815" lon="8.5323667"><ele>124.33333333333334</ele><time>2026-04-04T08:18:51.102Z</time></trkpt><trkpt lat="45.02868" lon="8.5325283"><ele>124.0</ele><time>2026-04-04T08:18:52.101Z</time></trkpt><trkpt lat="45.028545" lon="8.5326917"><ele>124.0</ele><time>2026-04-04T08:18:53.101Z</time></trkpt><trkpt lat="45.028405" lon="8.5328533"><ele>124.0</ele><time>2026-04-04T08:18:54.1Z</time></trkpt><trkpt lat="45.0282683" lon="8.53302"><ele>124.0</ele><time>2026-04-04T08:18:55.105Z</time></trkpt><trkpt lat="45.0281317" lon="8.5331833"><ele>123.33333333333334</ele><time>2026-04-04T08:18:56.102Z</time></trkpt><trkpt lat="45.0279933" lon="8.5333467"><ele>122.66666666666666</ele><time>2026-04-04T08:18:57.098Z</time></trkpt><trkpt lat="45.027855" lon="8.5335133"><ele>122.0</ele><time>2026-04-04T08:18:58.098Z</time></trkpt><trkpt lat="45.0277167" lon="8.5336767"><ele>122.33333333333333</ele><time>2026-04-04T08:18:59.099Z</time></trkpt><trkpt lat="45.0275783" lon="8.533845"><ele>122.66666666666666</ele><time>2026-04-04T08:19:00.105Z</time></trkpt><trkpt lat="45.0274417" lon="8.5340083"><ele>123.0</ele><time>2026-04-04T08:19:01.1Z</time></trkpt><trkpt lat="45.0273033" lon="8.534175"><ele>123.33333333333334</ele><time>2026-04-04T08:19:02.102Z</time></trkpt><trkpt lat="45.0271667" lon="8.53434"><ele>123.66666666666667</ele><time>2026-04-04T08:19:03.099Z</time></trkpt><trkpt lat="45.0270283" lon="8.534505"><ele>124.0</ele><time>2026-04-04T08:19:04.108Z</time></trkpt><trkpt lat="45.0268917" lon="8.53467"><ele>124.0</ele><time>2026-04-04T08:19:05.101Z</time></trkpt><trkpt lat="45.026755" lon="8.5348317"><ele>124.0</ele><time>2026-04-04T08:19:06.105Z</time></trkpt><trkpt lat="45.0266183" lon="8.5349983"><ele>124.0</ele><time>2026-04-04T08:19:07.103Z</time></trkpt><trkpt lat="45.0264817" lon="8.5351633"><ele>124.0</ele><time>2026-04-04T08:19:08.109Z</time></trkpt><trkpt lat="45.0263483" lon="8.535335"><ele>124.0</ele><time>2026-04-04T08:19:09.099Z</time></trkpt><trkpt lat="45.0262117" lon="8.535505"><ele>124.0</ele><time>2026-04-04T08:19:10.103Z</time></trkpt><trkpt lat="45.0260767" lon="8.5356783"><ele>123.66666666666667</ele><time>2026-04-04T08:19:11.105Z</time></trkpt><trkpt lat="45.02594" lon="8.5358467"><ele>123.33333333333334</ele><time>2026-04-04T08:19:12.106Z</time></trkpt><trkpt lat="45.0258017" lon="8.5360183"><ele>123.0</ele><time>2026-04-04T08:19:13.106Z</time></trkpt><trkpt lat="45.02566" lon="8.53619"><ele>123.66666666666666</ele><time>2026-04-04T08:19:14.106Z</time></trkpt><trkpt lat="45.0255183" lon="8.5363633"><ele>124.33333333333333</ele><time>2026-04-04T08:19:15.104Z</time></trkpt><trkpt lat="45.0253783" lon="8.536535"><ele>125.0</ele><time>2026-04-04T08:19:16.107Z</time></trkpt><trkpt lat="45.025235" lon="8.536705"><ele>125.0</ele><time>2026-04-04T08:19:17.103Z</time></trkpt><trkpt lat="45.0250917" lon="8.5368767"><ele>125.0</ele><time>2026-04-04T08:19:18.103Z</time></trkpt><trkpt lat="45.024945" lon="8.5370467"><ele>125.0</ele><time>2026-04-04T08:19:19.105Z</time></trkpt><trkpt lat="45.0247967" lon="8.5372183"><ele>125.66666666666666</ele><time>2026-04-04T08:19:20.102Z</time></trkpt><trkpt lat="45.0246533" lon="8.5373933"><ele>126.33333333333334</ele><time>2026-04-04T08:19:21.104Z</time></trkpt><trkpt lat="45.0245083" lon="8.5375683"><ele>127.0</ele><time>2026-04-04T08:19:22.1Z</time></trkpt><trkpt lat="45.0243683" lon="8.5377533"><ele>126.33333333333334</ele><time>2026-04-04T08:19:23.1Z</time></trkpt><trkpt lat="45.0242267" lon="8.53794"><ele>125.66666666666666</ele><time>2026-04-04T08:19:24.102Z</time></trkpt><trkpt lat="45.0240817" lon="8.53812"><ele>125.0</ele><time>2026-04-04T08:19:25.103Z</time></trkpt><trkpt lat="45.0239333" lon="8.538295"><ele>125.0</ele><time>2026-04-04T08:19:26.106Z</time></trkpt><trkpt lat="45.02379" lon="8.5384783"><ele>125.0</ele><time>2026-04-04T08:19:27.105Z</time></trkpt><trkpt lat="45.0236483" lon="8.5386583"><ele>125.0</ele><time>2026-04-04T08:19:28.1Z</time></trkpt><trkpt lat="45.0234933" lon="8.538825"><ele>125.0</ele><time>2026-04-04T08:19:29.106Z</time></trkpt><trkpt lat="45.0233483" lon="8.538995"><ele>125.0</ele><time>2026-04-04T08:19:30.104Z</time></trkpt><trkpt lat="45.0232017" lon="8.5391633"><ele>125.0</ele><time>2026-04-04T08:19:31.105Z</time></trkpt><trkpt lat="45.023055" lon="8.5393267"><ele>124.33333333333333</ele><time>2026-04-04T08:19:32.1Z</time></trkpt><trkpt lat="45.0229167" lon="8.5394983"><ele>123.66666666666666</ele><time>2026-04-04T08:19:33.098Z</time></trkpt><trkpt lat="45.022775" lon="8.53967"><ele>123.0</ele><time>2026-04-04T08:19:34.1Z</time></trkpt><trkpt lat="45.0226333" lon="8.539845"><ele>123.0</ele><time>2026-04-04T08:19:35.098Z</time></trkpt><trkpt lat="45.0224833" lon="8.5400133"><ele>123.0</ele><time>2026-04-04T08:19:36.107Z</time></trkpt><trkpt lat="45.0223367" lon="8.5401833"><ele>123.0</ele><time>2026-04-04T08:19:37.105Z</time></trkpt><trkpt lat="45.0221917" lon="8.540355"><ele>122.33333333333334</ele><time>2026-04-04T08:19:38.101Z</time></trkpt><trkpt lat="45.0220483" lon="8.5405217"><ele>121.66666666666667</ele><time>2026-04-04T08:19:39.101Z</time></trkpt><trkpt lat="45.02191" lon="8.54069"><ele>121.0</ele><time>2026-04-04T08:19:40.102Z</time></trkpt><trkpt lat="45.0217683" lon="8.5408533"><ele>121.0</ele><time>2026-04-04T08:19:41.099Z</time></trkpt><trkpt lat="45.0216267" lon="8.5410183"><ele>121.0</ele><time>2026-04-04T08:19:42.101Z</time></trkpt><trkpt lat="45.0214867" lon="8.541185"><ele>121.0</ele><time>2026-04-04T08:19:43.108Z</time></trkpt><trkpt lat="45.021345" lon="8.5413533"><ele>121.0</ele><time>2026-04-04T08:19:44.098Z</time></trkpt><trkpt lat="45.0211983" lon="8.5415167"><ele>121.0</ele><time>2026-04-04T08:19:45.104Z</time></trkpt><trkpt lat="45.021055" lon="8.5416833"><ele>121.0</ele><time>2026-04-04T08:19:46.101Z</time></trkpt><trkpt lat="45.02091" lon="8.54187"><ele>120.66666666666667</ele><time>2026-04-04T08:19:47.1Z</time></trkpt><trkpt lat="45.02076" lon="8.5420533"><ele>120.33333333333334</ele><time>2026-04-04T08:19:48.1Z</time></trkpt><trkpt lat="45.02061" lon="8.5422383"><ele>120.0</ele><time>2026-04-04T08:19:49.101Z</time></trkpt><trkpt lat="45.020455" lon="8.5424233"><ele>120.0</ele><time>2026-04-04T08:19:50.106Z</time></trkpt><trkpt lat="45.0203" lon="8.5426083"><ele>120.0</ele><time>2026-04-04T08:19:51.106Z</time></trkpt><trkpt lat="45.0201467" lon="8.542795"><ele>120.0</ele><time>2026-04-04T08:19:52.1Z</time></trkpt><trkpt lat="45.0199917" lon="8.5429833"><ele>121.33333333333334</ele><time>2026-04-04T08:19:53.102Z</time></trkpt><trkpt lat="45.0198417" lon="8.5431767"><ele>122.66666666666667</ele><time>2026-04-04T08:19:54.103Z</time></trkpt><trkpt lat="45.0196867" lon="8.5433667"><ele>124.0</ele><time>2026-04-04T08:19:55.101Z</time></trkpt><trkpt lat="45.01953" lon="8.54355"><ele>124.0</ele><time>2026-04-04T08:19:56.105Z</time></trkpt><trkpt lat="45.0193733" lon="8.5437383"><ele>124.0</ele><time>2026-04-04T08:19:57.101Z</time></trkpt><trkpt lat="45.0192167" lon="8.54393"><ele>124.0</ele><time>2026-04-04T08:19:58.104Z</time></trkpt><trkpt lat="45.0190583" lon="8.5441217"><ele>124.0</ele><time>2026-04-04T08:19:59.106Z</time></trkpt><trkpt lat="45.0189017" lon="8.5443167"><ele>124.0</ele><time>2026-04-04T08:20:00.106Z</time></trkpt><trkpt lat="45.0187433" lon="8.544515"><ele>124.0</ele><time>2026-04-04T08:20:01.103Z</time></trkpt><trkpt lat="45.0185883" lon="8.544715"><ele>123.33333333333334</ele><time>2026-04-04T08:20:02.1Z</time></trkpt><trkpt lat="45.0184267" lon="8.5449133"><ele>122.66666666666666</ele><time>2026-04-04T08:20:03.109Z</time></trkpt><trkpt lat="45.0182667" lon="8.5451117"><ele>122.0</ele><time>2026-04-04T08:20:04.101Z</time></trkpt><trkpt lat="45.01811" lon="8.5453133"><ele>121.66666666666666</ele><time>2026-04-04T08:20:05.101Z</time></trkpt><trkpt lat="45.0179517" lon="8.5455117"><ele>121.33333333333334</ele><time>2026-04-04T08:20:06.101Z</time></trkpt><trkpt lat="45.0177917" lon="8.5457033"><ele>121.0</ele><time>2026-04-04T08:20:07.102Z</time></trkpt><trkpt lat="45.0176333" lon="8.54589"><ele>122.66666666666667</ele><time>2026-04-04T08:20:08.11Z</time></trkpt><trkpt lat="45.0174817" lon="8.5460683"><ele>124.33333333333334</ele><time>2026-04-04T08:20:09.102Z</time></trkpt><trkpt lat="45.0173367" lon="8.5462467"><ele>126.0</ele><time>2026-04-04T08:20:10.102Z</time></trkpt><trkpt lat="45.0171917" lon="8.5464167"><ele>126.66666666666666</ele><time>2026-04-04T08:20:11.109Z</time></trkpt><trkpt lat="45.017045" lon="8.5465833"><ele>127.33333333333333</ele><time>2026-04-04T08:20:12.104Z</time></trkpt><trkpt lat="45.0169" lon="8.54675"><ele>128.0</ele><time>2026-04-04T08:20:13.103Z</time></trkpt><trkpt lat="45.0167567" lon="8.5469167"><ele>128.66666666666666</ele><time>2026-04-04T08:20:14.101Z</time></trkpt><trkpt lat="45.016615" lon="8.5470817"><ele>129.33333333333334</ele><time>2026-04-04T08:20:15.101Z</time></trkpt><trkpt lat="45.0164767" lon="8.5472533"><ele>130.0</ele><time>2026-04-04T08:20:16.103Z</time></trkpt><trkpt lat="45.0163317" lon="8.5474117"><ele>130.0</ele><time>2026-04-04T08:20:17.103Z</time></trkpt><trkpt lat="45.0161867" lon="8.5475767"><ele>130.0</ele><time>2026-04-04T08:20:18.105Z</time></trkpt><trkpt lat="45.0160417" lon="8.5477417"><ele>130.0</ele><time>2026-04-04T08:20:19.106Z</time></trkpt><trkpt lat="45.0159017" lon="8.5479133"><ele>130.0</ele><time>2026-04-04T08:20:20.106Z</time></trkpt><trkpt lat="45.01576" lon="8.5480833"><ele>130.0</ele><time>2026-04-04T08:20:21.101Z</time></trkpt><trkpt lat="45.0156183" lon="8.5482517"><ele>130.0</ele><time>2026-04-04T08:20:22.101Z</time></trkpt><trkpt lat="45.015475" lon="8.5484217"><ele>130.0</ele><time>2026-04-04T08:20:23.101Z</time></trkpt><trkpt lat="45.0153317" lon="8.5485933"><ele>130.0</ele><time>2026-04-04T08:20:24.107Z</time></trkpt><trkpt lat="45.0151917" lon="8.54877"><ele>130.0</ele><time>2026-04-04T08:20:25.108Z</time></trkpt><trkpt lat="45.0150517" lon="8.5489433"><ele>130.33333333333334</ele><time>2026-04-04T08:20:26.1Z</time></trkpt><trkpt lat="45.01491" lon="8.549115"><ele>130.66666666666666</ele><time>2026-04-04T08:20:27.104Z</time></trkpt><trkpt lat="45.014765" lon="8.549285"><ele>131.0</ele><time>2026-04-04T08:20:28.103Z</time></trkpt><trkpt lat="45.0146217" lon="8.5494533"><ele>131.33333333333331</ele><time>2026-04-04T08:20:29.099Z</time></trkpt><trkpt lat="45.0144783" lon="8.5496233"><ele>131.66666666666666</ele><time>2026-04-04T08:20:30.104Z</time></trkpt><trkpt lat="45.0143367" lon="8.54979"><ele>132.0</ele><time>2026-04-04T08:20:31.114Z</time></trkpt><trkpt lat="45.014195" lon="8.549955"><ele>132.33333333333334</ele><time>2026-04-04T08:20:32.106Z</time></trkpt><trkpt lat="45.0140533" lon="8.5501217"><ele>132.66666666666669</ele><time>2026-04-04T08:20:33.101Z</time></trkpt><trkpt lat="45.0139117" lon="8.5502867"><ele>133.0</ele><time>2026-04-04T08:20:34.108Z</time></trkpt><trkpt lat="45.01377" lon="8.5504533"><ele>133.0</ele><time>2026-04-04T08:20:35.101Z</time></trkpt><trkpt lat="45.01363" lon="8.55062"><ele>133.0</ele><time>2026-04-04T08:20:36.102Z</time></trkpt><trkpt lat="45.0134917" lon="8.550785"><ele>133.0</ele><time>2026-04-04T08:20:37.103Z</time></trkpt><trkpt lat="45.0133517" lon="8.55095"><ele>134.33333333333334</ele><time>2026-04-04T08:20:38.103Z</time></trkpt><trkpt lat="45.013215" lon="8.551115"><ele>135.66666666666666</ele><time>2026-04-04T08:20:39.107Z</time></trkpt><trkpt lat="45.0130817" lon="8.5512783"><ele>137.0</ele><time>2026-04-04T08:20:40.101Z</time></trkpt><trkpt lat="45.0129483" lon="8.5514383"><ele>137.0</ele><time>2026-04-04T08:20:41.101Z</time></trkpt><trkpt lat="45.0128167" lon="8.5515917"><ele>137.0</ele><time>2026-04-04T08:20:42.104Z</time></trkpt><trkpt lat="45.012685" lon="8.5517433"><ele>137.0</ele><time>2026-04-04T08:20:43.103Z</time></trkpt><trkpt lat="45.01255" lon="8.5518867"><ele>137.66666666666666</ele><time>2026-04-04T08:20:44.103Z</time></trkpt><trkpt lat="45.012415" lon="8.5520283"><ele>138.33333333333334</ele><time>2026-04-04T08:20:45.099Z</time></trkpt><trkpt lat="45.012275" lon="8.5521667"><ele>139.0</ele><time>2026-04-04T08:20:46.105Z</time></trkpt><trkpt lat="45.0121367" lon="8.552305"><ele>139.0</ele><time>2026-04-04T08:20:47.099Z</time></trkpt><trkpt lat="45.0119933" lon="8.5524433"><ele>139.0</ele><time>2026-04-04T08:20:48.106Z</time></trkpt><trkpt lat="45.011845" lon="8.552575"><ele>139.0</ele><time>2026-04-04T08:20:49.099Z</time></trkpt><trkpt lat="45.01169" lon="8.5526983"><ele>139.33333333333334</ele><time>2026-04-04T08:20:50.106Z</time></trkpt><trkpt lat="45.0115317" lon="8.55282"><ele>139.66666666666666</ele><time>2026-04-04T08:20:51.103Z</time></trkpt><trkpt lat="45.01137" lon="8.5529383"><ele>140.0</ele><time>2026-04-04T08:20:52.103Z</time></trkpt><trkpt lat="45.0112017" lon="8.553055"><ele>140.33333333333331</ele><time>2026-04-04T08:20:53.101Z</time></trkpt><trkpt lat="45.0110267" lon="8.55317"><ele>140.66666666666666</ele><time>2026-04-04T08:20:54.103Z</time></trkpt><trkpt lat="45.0108467" lon="8.5532783"><ele>141.0</ele><time>2026-04-04T08:20:55.106Z</time></trkpt><trkpt lat="45.01066" lon="8.5533833"><ele>141.0</ele><time>2026-04-04T08:20:56.098Z</time></trkpt><trkpt lat="45.010465" lon="8.5534833"><ele>141.0</ele><time>2026-04-04T08:20:57.099Z</time></trkpt><trkpt lat="45.01027" lon="8.553575"><ele>141.0</ele><time>2026-04-04T08:20:58.104Z</time></trkpt><trkpt lat="45.0100733" lon="8.55366"><ele>142.66666666666666</ele><time>2026-04-04T08:20:59.102Z</time></trkpt><trkpt lat="45.0098717" lon="8.553735"><ele>144.33333333333331</ele><time>2026-04-04T08:21:00.098Z</time></trkpt><trkpt lat="45.00967" lon="8.5538033"><ele>146.0</ele><time>2026-04-04T08:21:01.104Z</time></trkpt><trkpt lat="45.00947" lon="8.5538683"><ele>146.0</ele><time>2026-04-04T08:21:02.101Z</time></trkpt><trkpt lat="45.00927" lon="8.5539267"><ele>146.0</ele><time>2026-04-04T08:21:03.1Z</time></trkpt><trkpt lat="45.00907" lon="8.553975"><ele>146.0</ele><time>2026-04-04T08:21:04.102Z</time></trkpt><trkpt lat="45.008865" lon="8.554015"><ele>145.66666666666666</ele><time>2026-04-04T08:21:05.103Z</time></trkpt><trkpt lat="45.0086617" lon="8.5540533"><ele>145.33333333333334</ele><time>2026-04-04T08:21:06.104Z</time></trkpt><trkpt lat="45.008455" lon="8.5540833"><ele>145.0</ele><time>2026-04-04T08:21:07.103Z</time></trkpt><trkpt lat="45.00825" lon="8.5541017"><ele>144.66666666666669</ele><time>2026-04-04T08:21:08.1Z</time></trkpt><trkpt lat="45.0080483" lon="8.5541133"><ele>144.33333333333334</ele><time>2026-04-04T08:21:09.098Z</time></trkpt><trkpt lat="45.00785" lon="8.5541183"><ele>144.0</ele><time>2026-04-04T08:21:10.105Z</time></trkpt><trkpt lat="45.00765" lon="8.5541133"><ele>145.66666666666666</ele><time>2026-04-04T08:21:11.105Z</time></trkpt><trkpt lat="45.00745" lon="8.5541033"><ele>147.33333333333331</ele><time>2026-04-04T08:21:12.112Z</time></trkpt><trkpt lat="45.0072533" lon="8.5540867"><ele>149.0</ele><time>2026-04-04T08:21:13.103Z</time></trkpt><trkpt lat="45.0070567" lon="8.5540583"><ele>149.0</ele><time>2026-04-04T08:21:14.098Z</time></trkpt><trkpt lat="45.0068583" lon="8.554025"><ele>149.0</ele><time>2026-04-04T08:21:15.104Z</time></trkpt><trkpt lat="45.0066583" lon="8.5539883"><ele>149.0</ele><time>2026-04-04T08:21:16.1Z</time></trkpt><trkpt lat="45.0064567" lon="8.55395"><ele>149.66666666666666</ele><time>2026-04-04T08:21:17.103Z</time></trkpt><trkpt lat="45.006255" lon="8.5539033"><ele>150.33333333333334</ele><time>2026-04-04T08:21:18.098Z</time></trkpt><trkpt lat="45.0060567" lon="8.55385"><ele>151.0</ele><time>2026-04-04T08:21:19.1Z</time></trkpt><trkpt lat="45.0058583" lon="8.5537817"><ele>152.0</ele><time>2026-04-04T08:21:20.11Z</time></trkpt><trkpt lat="45.00566" lon="8.5537117"><ele>153.0</ele><time>2026-04-04T08:21:21.099Z</time></trkpt><trkpt lat="45.00546" lon="8.5536433"><ele>154.0</ele><time>2026-04-04T08:21:22.1Z</time></trkpt><trkpt lat="45.0052583" lon="8.5535767"><ele>155.66666666666669</ele><time>2026-04-04T08:21:23.101Z</time></trkpt><trkpt lat="45.0050583" lon="8.5535033"><ele>157.33333333333334</ele><time>2026-04-04T08:21:24.101Z</time></trkpt><trkpt lat="45.0048567" lon="8.5534217"><ele>159.0</ele><time>2026-04-04T08:21:25.103Z</time></trkpt><trkpt lat="45.0046567" lon="8.55335"><ele>159.66666666666666</ele><time>2026-04-04T08:21:26.102Z</time></trkpt><trkpt lat="45.0044583" lon="8.5532767"><ele>160.33333333333331</ele><time>2026-04-04T08:21:27.1Z</time></trkpt><trkpt lat="45.0042583" lon="8.5532083"><ele>161.0</ele><time>2026-04-04T08:21:28.103Z</time></trkpt><trkpt lat="45.00406" lon="8.5531383"><ele>161.0</ele><time>2026-04-04T08:21:29.105Z</time></trkpt><trkpt lat="45.003865" lon="8.5530617"><ele>161.0</ele><time>2026-04-04T08:21:30.104Z</time></trkpt><trkpt lat="45.0036717" lon="8.5529883"><ele>161.0</ele><time>2026-04-04T08:21:31.1Z</time></trkpt><trkpt lat="45.0034817" lon="8.5529167"><ele>163.0</ele><time>2026-04-04T08:21:32.103Z</time></trkpt><trkpt lat="45.00329" lon="8.5528467"><ele>165.0</ele><time>2026-04-04T08:21:33.101Z</time></trkpt><trkpt lat="45.0030967" lon="8.552785"><ele>167.0</ele><time>2026-04-04T08:21:34.107Z</time></trkpt><trkpt lat="45.002905" lon="8.55272"><ele>167.0</ele><time>2026-04-04T08:21:35.102Z</time></trkpt><trkpt lat="45.0027167" lon="8.5526533"><ele>167.0</ele><time>2026-04-04T08:21:36.101Z</time></trkpt><trkpt lat="45.0025267" lon="8.5525917"><ele>167.0</ele><time>2026-04-04T08:21:37.103Z</time></trkpt><trkpt lat="45.0023367" lon="8.5525367"><ele>166.66666666666666</ele><time>2026-04-04T08:21:38.104Z</time></trkpt><trkpt lat="45.0021467" lon="8.5524767"><ele>166.33333333333334</ele><time>2026-04-04T08:21:39.105Z</time></trkpt><trkpt lat="45.0019617" lon="8.552405"><ele>166.0</ele><time>2026-04-04T08:21:40.104Z</time></trkpt><trkpt lat="45.0017933" lon="8.5523083"><ele>167.66666666666669</ele><time>2026-04-04T08:21:41.108Z</time></trkpt><trkpt lat="45.00161" lon="8.5522367"><ele>169.33333333333334</ele><time>2026-04-04T08:21:42.098Z</time></trkpt><trkpt lat="45.0014233" lon="8.55217"><ele>171.0</ele><time>2026-04-04T08:21:43.104Z</time></trkpt><trkpt lat="45.0012367" lon="8.5521067"><ele>171.0</ele><time>2026-04-04T08:21:44.101Z</time></trkpt><trkpt lat="45.001045" lon="8.5520567"><ele>171.0</ele><time>2026-04-04T08:21:45.106Z</time></trkpt><trkpt lat="45.0008533" lon="8.5520167"><ele>171.0</ele><time>2026-04-04T08:21:46.103Z</time></trkpt><trkpt lat="45.0006583" lon="8.5519917"><ele>174.66666666666666</ele><time>2026-04-04T08:21:47.1Z</time></trkpt><trkpt lat="45.0004633" lon="8.5519833"><ele>178.33333333333331</ele><time>2026-04-04T08:21:48.107Z</time></trkpt><trkpt lat="45.0002683" lon="8.551985"><ele>182.0</ele><time>2026-04-04T08:21:49.102Z</time></trkpt><trkpt lat="45.0000767" lon="8.5519983"><ele>182.0</ele><time>2026-04-04T08:21:50.102Z</time></trkpt><trkpt lat="44.9998867" lon="8.5520317"><ele>182.0</ele><time>2026-04-04T08:21:51.1Z</time></trkpt><trkpt lat="44.999695" lon="8.5520783"><ele>182.0</ele><time>2026-04-04T08:21:52.105Z</time></trkpt><trkpt lat="44.9995067" lon="8.55214"><ele>180.66666666666666</ele><time>2026-04-04T08:21:53.101Z</time></trkpt><trkpt lat="44.9993133" lon="8.55222"><ele>179.33333333333334</ele><time>2026-04-04T08:21:54.103Z</time></trkpt><trkpt lat="44.9991217" lon="8.5523067"><ele>178.0</ele><time>2026-04-04T08:21:55.101Z</time></trkpt><trkpt lat="44.9989417" lon="8.5524133"><ele>178.0</ele><time>2026-04-04T08:21:56.103Z</time></trkpt><trkpt lat="44.9987633" lon="8.5525367"><ele>178.0</ele><time>2026-04-04T08:21:57.108Z</time></trkpt><trkpt lat="44.9985883" lon="8.5526733"><ele>178.0</ele><time>2026-04-04T08:21:58.103Z</time></trkpt><trkpt lat="44.9984117" lon="8.5528217"><ele>179.33333333333334</ele><time>2026-04-04T08:21:59.102Z</time></trkpt><trkpt lat="44.9982417" lon="8.5529833"><ele>180.66666666666666</ele><time>2026-04-04T08:22:00.099Z</time></trkpt><trkpt lat="44.998075" lon="8.553155"><ele>182.0</ele><time>2026-04-04T08:22:01.105Z</time></trkpt><trkpt lat="44.99791" lon="8.55333"><ele>182.0</ele><time>2026-04-04T08:22:02.108Z</time></trkpt><trkpt lat="44.99775" lon="8.5535083"><ele>182.0</ele><time>2026-04-04T08:22:03.104Z</time></trkpt><trkpt lat="44.9975883" lon="8.553695"><ele>182.0</ele><time>2026-04-04T08:22:04.102Z</time></trkpt><trkpt lat="44.99743" lon="8.5538867"><ele>186.33333333333331</ele><time>2026-04-04T08:22:05.1Z</time></trkpt><trkpt lat="44.9972633" lon="8.554085"><ele>190.66666666666666</ele><time>2026-04-04T08:22:06.111Z</time></trkpt><trkpt lat="44.9970967" lon="8.5542817"><ele>195.0</ele><time>2026-04-04T08:22:07.099Z</time></trkpt><trkpt lat="44.99693" lon="8.5544783"><ele>197.0</ele><time>2026-04-04T08:22:08.107Z</time></trkpt><trkpt lat="44.9967617" lon="8.5546717"><ele>199.0</ele><time>2026-04-04T08:22:09.099Z</time></trkpt><trkpt lat="44.9965733" lon="8.55483"><ele>201.0</ele><time>2026-04-04T08:22:10.099Z</time></trkpt><trkpt lat="44.9964033" lon="8.55501"><ele>201.0</ele><time>2026-04-04T08:22:11.109Z</time></trkpt><trkpt lat="44.996235" lon="8.5551883"><ele>201.0</ele><time>2026-04-04T08:22:12.104Z</time></trkpt><trkpt lat="44.9960717" lon="8.5553617"><ele>201.0</ele><time>2026-04-04T08:22:13.111Z</time></trkpt><trkpt lat="44.9951967" lon="8.5562483"><ele>194.0</ele><time>2026-04-04T08:22:19.104Z</time></trkpt><trkpt lat="44.9951" lon="8.556495"><ele>187.0</ele><time>2026-04-04T08:22:20.104Z</time></trkpt><trkpt lat="44.9949733" lon="8.5566767"><ele>180.0</ele><time>2026-04-04T08:22:21.105Z</time></trkpt><trkpt lat="44.9948167" lon="8.5568317"><ele>177.0</ele><time>2026-04-04T08:22:22.103Z</time></trkpt><trkpt lat="44.9946617" lon="8.5569883"><ele>174.0</ele><time>2026-04-04T08:22:23.107Z</time></trkpt><trkpt lat="44.9944983" lon="8.5571433"><ele>171.0</ele><time>2026-04-04T08:22:24.096Z</time></trkpt><trkpt lat="44.9943267" lon="8.55729"><ele>169.33333333333334</ele><time>2026-04-04T08:22:25.102Z</time></trkpt><trkpt lat="44.994155" lon="8.5574367"><ele>167.66666666666669</ele><time>2026-04-04T08:22:26.11Z</time></trkpt><trkpt lat="44.9939833" lon="8.5575883"><ele>166.0</ele><time>2026-04-04T08:22:27.097Z</time></trkpt><trkpt lat="44.9938167" lon="8.557755"><ele>164.33333333333334</ele><time>2026-04-04T08:22:28.098Z</time></trkpt><trkpt lat="44.993645" lon="8.557915"><ele>162.66666666666666</ele><time>2026-04-04T08:22:29.105Z</time></trkpt><trkpt lat="44.993475" lon="8.55807"><ele>161.0</ele><time>2026-04-04T08:22:30.101Z</time></trkpt><trkpt lat="44.9933133" lon="8.5582217"><ele>161.0</ele><time>2026-04-04T08:22:31.102Z</time></trkpt><trkpt lat="44.9931483" lon="8.5583683"><ele>161.0</ele><time>2026-04-04T08:22:32.104Z</time></trkpt><trkpt lat="44.9929817" lon="8.558515"><ele>161.0</ele><time>2026-04-04T08:22:33.101Z</time></trkpt><trkpt lat="44.992815" lon="8.558665"><ele>158.66666666666666</ele><time>2026-04-04T08:22:34.099Z</time></trkpt><trkpt lat="44.9926417" lon="8.5588067"><ele>156.33333333333334</ele><time>2026-04-04T08:22:35.103Z</time></trkpt><trkpt lat="44.9924683" lon="8.55894"><ele>154.0</ele><time>2026-04-04T08:22:36.101Z</time></trkpt><trkpt lat="44.9922933" lon="8.5590633"><ele>154.0</ele><time>2026-04-04T08:22:37.101Z</time></trkpt><trkpt lat="44.99212" lon="8.5591767"><ele>154.0</ele><time>2026-04-04T08:22:38.101Z</time></trkpt><trkpt lat="44.9919467" lon="8.5592783"><ele>154.0</ele><time>2026-04-04T08:22:39.108Z</time></trkpt><trkpt lat="44.9917733" lon="8.5593733"><ele>152.66666666666669</ele><time>2026-04-04T08:22:40.103Z</time></trkpt><trkpt lat="44.9916" lon="8.5594617"><ele>151.33333333333334</ele><time>2026-04-04T08:22:41.101Z</time></trkpt><trkpt lat="44.991425" lon="8.5595317"><ele>150.0</ele><time>2026-04-04T08:22:42.1Z</time></trkpt><trkpt lat="44.9912467" lon="8.5595917"><ele>150.0</ele><time>2026-04-04T08:22:43.103Z</time></trkpt><trkpt lat="44.991065" lon="8.55965"><ele>150.0</ele><time>2026-04-04T08:22:44.102Z</time></trkpt><trkpt lat="44.9908817" lon="8.5597033"><ele>150.0</ele><time>2026-04-04T08:22:45.102Z</time></trkpt><trkpt lat="44.9906933" lon="8.5597483"><ele>149.33333333333334</ele><time>2026-04-04T08:22:46.101Z</time></trkpt><trkpt lat="44.9904983" lon="8.5597817"><ele>148.66666666666669</ele><time>2026-04-04T08:22:47.102Z</time></trkpt><trkpt lat="44.990305" lon="8.55982"><ele>148.0</ele><time>2026-04-04T08:22:48.105Z</time></trkpt><trkpt lat="44.9901117" lon="8.5598567"><ele>146.66666666666669</ele><time>2026-04-04T08:22:49.102Z</time></trkpt><trkpt lat="44.9899167" lon="8.5598717"><ele>145.33333333333334</ele><time>2026-04-04T08:22:50.102Z</time></trkpt><trkpt lat="44.9897183" lon="8.5598667"><ele>144.0</ele><time>2026-04-04T08:22:51.111Z</time></trkpt><trkpt lat="44.98952" lon="8.5598467"><ele>144.0</ele><time>2026-04-04T08:22:52.107Z</time></trkpt><trkpt lat="44.9893217" lon="8.5598233"><ele>144.0</ele><time>2026-04-04T08:22:53.098Z</time></trkpt><trkpt lat="44.9891183" lon="8.5597933"><ele>144.0</ele><time>2026-04-04T08:22:54.1Z</time></trkpt><trkpt lat="44.988915" lon="8.5597567"><ele>142.66666666666666</ele><time>2026-04-04T08:22:55.109Z</time></trkpt><trkpt lat="44.988715" lon="8.5597067"><ele>141.33333333333331</ele><time>2026-04-04T08:22:56.103Z</time></trkpt><trkpt lat="44.9885133" lon="8.559655"><ele>140.0</ele><time>2026-04-04T08:22:57.101Z</time></trkpt><trkpt lat="44.9883117" lon="8.5595967"><ele>140.0</ele><time>2026-04-04T08:22:58.104Z</time></trkpt><trkpt lat="44.9881167" lon="8.5595183"><ele>140.0</ele><time>2026-04-04T08:22:59.1Z</time></trkpt><trkpt lat="44.98792" lon="8.5594267"><ele>140.0</ele><time>2026-04-04T08:23:00.101Z</time></trkpt><trkpt lat="44.9877267" lon="8.5593283"><ele>140.0</ele><time>2026-04-04T08:23:01.109Z</time></trkpt><trkpt lat="44.9875317" lon="8.5592267"><ele>140.0</ele><time>2026-04-04T08:23:02.101Z</time></trkpt><trkpt lat="44.987335" lon="8.559125"><ele>140.0</ele><time>2026-04-04T08:23:03.102Z</time></trkpt><trkpt lat="44.9871383" lon="8.559025"><ele>138.33333333333331</ele><time>2026-04-04T08:23:04.101Z</time></trkpt><trkpt lat="44.9869433" lon="8.55893"><ele>136.66666666666666</ele><time>2026-04-04T08:23:05.104Z</time></trkpt><trkpt lat="44.98675" lon="8.558835"><ele>135.0</ele><time>2026-04-04T08:23:06.103Z</time></trkpt><trkpt lat="44.98656" lon="8.55874"><ele>134.66666666666666</ele><time>2026-04-04T08:23:07.103Z</time></trkpt><trkpt lat="44.9863717" lon="8.5586417"><ele>134.33333333333331</ele><time>2026-04-04T08:23:08.104Z</time></trkpt><trkpt lat="44.9861833" lon="8.55855"><ele>134.0</ele><time>2026-04-04T08:23:09.103Z</time></trkpt><trkpt lat="44.9859967" lon="8.5584517"><ele>132.66666666666666</ele><time>2026-04-04T08:23:10.105Z</time></trkpt><trkpt lat="44.9858083" lon="8.558355"><ele>131.33333333333334</ele><time>2026-04-04T08:23:11.115Z</time></trkpt><trkpt lat="44.9856217" lon="8.5582583"><ele>130.0</ele><time>2026-04-04T08:23:12.106Z</time></trkpt><trkpt lat="44.9854317" lon="8.5581617"><ele>130.0</ele><time>2026-04-04T08:23:13.106Z</time></trkpt><trkpt lat="44.9852417" lon="8.558065"><ele>130.0</ele><time>2026-04-04T08:23:14.107Z</time></trkpt><trkpt lat="44.98505" lon="8.557965"><ele>130.0</ele><time>2026-04-04T08:23:15.102Z</time></trkpt><trkpt lat="44.9848583" lon="8.5578633"><ele>129.0</ele><time>2026-04-04T08:23:16.103Z</time></trkpt><trkpt lat="44.984665" lon="8.5577617"><ele>128.0</ele><time>2026-04-04T08:23:17.102Z</time></trkpt><trkpt lat="44.98447" lon="8.5576617"><ele>127.0</ele><time>2026-04-04T08:23:18.104Z</time></trkpt><trkpt lat="44.9842783" lon="8.557565"><ele>126.66666666666667</ele><time>2026-04-04T08:23:19.105Z</time></trkpt><trkpt lat="44.9840883" lon="8.55747"><ele>126.33333333333334</ele><time>2026-04-04T08:23:20.106Z</time></trkpt><trkpt lat="44.9838967" lon="8.55739"><ele>126.0</ele><time>2026-04-04T08:23:21.104Z</time></trkpt><trkpt lat="44.9837033" lon="8.5573233"><ele>126.0</ele><time>2026-04-04T08:23:22.106Z</time></trkpt><trkpt lat="44.9835117" lon="8.55727"><ele>126.0</ele><time>2026-04-04T08:23:23.107Z</time></trkpt><trkpt lat="44.98332" lon="8.5572283"><ele>126.0</ele><time>2026-04-04T08:23:24.104Z</time></trkpt><trkpt lat="44.9831317" lon="8.5572017"><ele>128.33333333333334</ele><time>2026-04-04T08:23:25.109Z</time></trkpt><trkpt lat="44.9829383" lon="8.5571933"><ele>130.66666666666669</ele><time>2026-04-04T08:23:26.109Z</time></trkpt><trkpt lat="44.982745" lon="8.5571983"><ele>133.0</ele><time>2026-04-04T08:23:27.102Z</time></trkpt><trkpt lat="44.9825533" lon="8.5572133"><ele>132.0</ele><time>2026-04-04T08:23:28.107Z</time></trkpt><trkpt lat="44.9823667" lon="8.5572383"><ele>131.0</ele><time>2026-04-04T08:23:29.104Z</time></trkpt><trkpt lat="44.9821783" lon="8.5572683"><ele>130.0</ele><time>2026-04-04T08:23:30.101Z</time></trkpt><trkpt lat="44.98199" lon="8.5573017"><ele>130.0</ele><time>2026-04-04T08:23:31.102Z</time></trkpt><trkpt lat="44.9818017" lon="8.557345"><ele>130.0</ele><time>2026-04-04T08:23:32.107Z</time></trkpt><trkpt lat="44.9816083" lon="8.5573833"><ele>130.0</ele><time>2026-04-04T08:23:33.102Z</time></trkpt><trkpt lat="44.9814117" lon="8.5574167"><ele>129.66666666666669</ele><time>2026-04-04T08:23:34.104Z</time></trkpt><trkpt lat="44.981215" lon="8.55746"><ele>129.33333333333334</ele><time>2026-04-04T08:23:35.103Z</time></trkpt><trkpt lat="44.981015" lon="8.5575067"><ele>129.0</ele><time>2026-04-04T08:23:36.103Z</time></trkpt><trkpt lat="44.980815" lon="8.5575517"><ele>130.0</ele><time>2026-04-04T08:23:37.107Z</time></trkpt><trkpt lat="44.9806183" lon="8.5575967"><ele>131.0</ele><time>2026-04-04T08:23:38.103Z</time></trkpt><trkpt lat="44.9804233" lon="8.557635"><ele>132.0</ele><time>2026-04-04T08:23:39.102Z</time></trkpt><trkpt lat="44.9802317" lon="8.5576717"><ele>132.0</ele><time>2026-04-04T08:23:40.102Z</time></trkpt><trkpt lat="44.98005" lon="8.55771"><ele>132.0</ele><time>2026-04-04T08:23:41.103Z</time></trkpt><trkpt lat="44.979875" lon="8.5577517"><ele>132.0</ele><time>2026-04-04T08:23:42.109Z</time></trkpt><trkpt lat="44.9797067" lon="8.5577883"><ele>134.33333333333334</ele><time>2026-04-04T08:23:43.104Z</time></trkpt><trkpt lat="44.9795383" lon="8.5578217"><ele>136.66666666666669</ele><time>2026-04-04T08:23:44.103Z</time></trkpt><trkpt lat="44.979365" lon="8.55785"><ele>139.0</ele><time>2026-04-04T08:23:45.104Z</time></trkpt><trkpt lat="44.97919" lon="8.5578833"><ele>142.66666666666669</ele><time>2026-04-04T08:23:46.101Z</time></trkpt><trkpt lat="44.979005" lon="8.5579117"><ele>146.33333333333334</ele><time>2026-04-04T08:23:47.103Z</time></trkpt><trkpt lat="44.97883" lon="8.5579417"><ele>150.0</ele><time>2026-04-04T08:23:48.102Z</time></trkpt><trkpt lat="44.9786667" lon="8.557975"><ele>150.0</ele><time>2026-04-04T08:23:49.107Z</time></trkpt><trkpt lat="44.97851" lon="8.558"><ele>150.0</ele><time>2026-04-04T08:23:50.102Z</time></trkpt><trkpt lat="44.9783617" lon="8.55803"><ele>150.0</ele><time>2026-04-04T08:23:51.103Z</time></trkpt><trkpt lat="44.97822" lon="8.5580583"><ele>149.0</ele><time>2026-04-04T08:23:52.101Z</time></trkpt><trkpt lat="44.978085" lon="8.5580883"><ele>148.0</ele><time>2026-04-04T08:23:53.117Z</time></trkpt><trkpt lat="44.97795" lon="8.5581133"><ele>147.0</ele><time>2026-04-04T08:23:54.102Z</time></trkpt><trkpt lat="44.977815" lon="8.5581417"><ele>146.0</ele><time>2026-04-04T08:23:55.106Z</time></trkpt><trkpt lat="44.9776733" lon="8.55818"><ele>146.0</ele><time>2026-04-04T08:23:56.107Z</time></trkpt><trkpt lat="44.97752" lon="8.5582183"><ele>146.0</ele><time>2026-04-04T08:23:57.106Z</time></trkpt><trkpt lat="44.977365" lon="8.5582583"><ele>146.0</ele><time>2026-04-04T08:23:58.105Z</time></trkpt><trkpt lat="44.9771933" lon="8.5583033"><ele>143.5</ele><time>2026-04-04T08:23:59.107Z</time></trkpt><trkpt lat="44.97699" lon="8.55836"><ele>141.0</ele><time>2026-04-04T08:24:00.1Z</time></trkpt><trkpt lat="44.9767483" lon="8.5584217"><ele>140.0</ele><time>2026-04-04T08:24:01.102Z</time></trkpt><trkpt lat="44.97648" lon="8.55847"><ele>139.0</ele><time>2026-04-04T08:24:02.1Z</time></trkpt><trkpt lat="44.9762017" lon="8.5585083"><ele>139.0</ele><time>2026-04-04T08:24:03.11Z</time></trkpt><trkpt lat="44.97593" lon="8.5585517"><ele>139.0</ele><time>2026-04-04T08:24:04.104Z</time></trkpt><trkpt lat="44.9756667" lon="8.5586"><ele>137.5</ele><time>2026-04-04T08:24:05.108Z</time></trkpt><trkpt lat="44.9754083" lon="8.5586467"><ele>136.0</ele><time>2026-04-04T08:24:06.113Z</time></trkpt><trkpt lat="44.97516" lon="8.55869"><ele>135.5</ele><time>2026-04-04T08:24:07.109Z</time></trkpt><trkpt lat="44.9749217" lon="8.5587383"><ele>135.0</ele><time>2026-04-04T08:24:08.105Z</time></trkpt><trkpt lat="44.97469" lon="8.5587933"><ele>135.0</ele><time>2026-04-04T08:24:09.103Z</time></trkpt><trkpt lat="44.9744633" lon="8.558855"><ele>135.0</ele><time>2026-04-04T08:24:10.108Z</time></trkpt><trkpt lat="44.9742417" lon="8.55892"><ele>133.33333333333334</ele><time>2026-04-04T08:24:11.107Z</time></trkpt><trkpt lat="44.9740233" lon="8.5589917"><ele>131.66666666666669</ele><time>2026-04-04T08:24:12.108Z</time></trkpt><trkpt lat="44.9738083" lon="8.5590783"><ele>130.0</ele><time>2026-04-04T08:24:13.105Z</time></trkpt><trkpt lat="44.9736017" lon="8.559175"><ele>130.0</ele><time>2026-04-04T08:24:14.105Z</time></trkpt><trkpt lat="44.973395" lon="8.5592767"><ele>130.0</ele><time>2026-04-04T08:24:15.105Z</time></trkpt><trkpt lat="44.9731817" lon="8.55939"><ele>130.0</ele><time>2026-04-04T08:24:16.107Z</time></trkpt><trkpt lat="44.97297" lon="8.5595167"><ele>130.0</ele><time>2026-04-04T08:24:17.104Z</time></trkpt><trkpt lat="44.9727583" lon="8.5596517"><ele>130.0</ele><time>2026-04-04T08:24:18.106Z</time></trkpt><trkpt lat="44.972545" lon="8.5597983"><ele>128.0</ele><time>2026-04-04T08:24:19.103Z</time></trkpt><trkpt lat="44.9723367" lon="8.559955"><ele>126.0</ele><time>2026-04-04T08:24:20.099Z</time></trkpt><trkpt lat="44.97213" lon="8.5601233"><ele>126.0</ele><time>2026-04-04T08:24:21.102Z</time></trkpt><trkpt lat="44.97193" lon="8.5603067"><ele>126.0</ele><time>2026-04-04T08:24:22.105Z</time></trkpt><trkpt lat="44.9717333" lon="8.5605"><ele>125.5</ele><time>2026-04-04T08:24:23.102Z</time></trkpt><trkpt lat="44.9715367" lon="8.560695"><ele>125.0</ele><time>2026-04-04T08:24:24.101Z</time></trkpt><trkpt lat="44.971345" lon="8.5609017"><ele>125.0</ele><time>2026-04-04T08:24:25.108Z</time></trkpt><trkpt lat="44.9711617" lon="8.56112"><ele>125.0</ele><time>2026-04-04T08:24:26.099Z</time></trkpt><trkpt lat="44.9709833" lon="8.5613517"><ele>125.0</ele><time>2026-04-04T08:24:27.101Z</time></trkpt><trkpt lat="44.9708083" lon="8.5615933"><ele>125.0</ele><time>2026-04-04T08:24:28.101Z</time></trkpt><trkpt lat="44.970635" lon="8.5618367"><ele>122.5</ele><time>2026-04-04T08:24:29.103Z</time></trkpt><trkpt lat="44.97047" lon="8.5620883"><ele>120.0</ele><time>2026-04-04T08:24:30.102Z</time></trkpt><trkpt lat="44.97031" lon="8.562345"><ele>120.0</ele><time>2026-04-04T08:24:31.1Z</time></trkpt><trkpt lat="44.9701617" lon="8.5626133"><ele>120.0</ele><time>2026-04-04T08:24:32.101Z</time></trkpt><trkpt lat="44.9700217" lon="8.5628783"><ele>119.5</ele><time>2026-04-04T08:24:33.103Z</time></trkpt><trkpt lat="44.9698817" lon="8.563145"><ele>119.0</ele><time>2026-04-04T08:24:34.103Z</time></trkpt><trkpt lat="44.9697367" lon="8.56341"><ele>119.0</ele><time>2026-04-04T08:24:35.106Z</time></trkpt><trkpt lat="44.969595" lon="8.5636717"><ele>119.0</ele><time>2026-04-04T08:24:36.106Z</time></trkpt><trkpt lat="44.969455" lon="8.563935"><ele>118.5</ele><time>2026-04-04T08:24:37.103Z</time></trkpt><trkpt lat="44.969315" lon="8.5641967"><ele>118.0</ele><time>2026-04-04T08:24:38.101Z</time></trkpt><trkpt lat="44.9691767" lon="8.56446"><ele>117.0</ele><time>2026-04-04T08:24:39.102Z</time></trkpt><trkpt lat="44.969035" lon="8.5647183"><ele>116.0</ele><time>2026-04-04T08:24:40.101Z</time></trkpt><trkpt lat="44.9689" lon="8.564975"><ele>116.0</ele><time>2026-04-04T08:24:41.106Z</time></trkpt><trkpt lat="44.96876" lon="8.5652317"><ele>116.0</ele><time>2026-04-04T08:24:42.099Z</time></trkpt><trkpt lat="44.9686233" lon="8.5654783"><ele>116.0</ele><time>2026-04-04T08:24:43.105Z</time></trkpt><trkpt lat="44.9684983" lon="8.5657183"><ele>116.0</ele><time>2026-04-04T08:24:44.099Z</time></trkpt><trkpt lat="44.9683783" lon="8.5659417"><ele>116.0</ele><time>2026-04-04T08:24:45.102Z</time></trkpt><trkpt lat="44.9682633" lon="8.5661617"><ele>115.66666666666666</ele><time>2026-04-04T08:24:46.102Z</time></trkpt><trkpt lat="44.968145" lon="8.5663833"><ele>115.33333333333334</ele><time>2026-04-04T08:24:47.106Z</time></trkpt><trkpt lat="44.96802" lon="8.566615"><ele>115.0</ele><time>2026-04-04T08:24:48.103Z</time></trkpt><trkpt lat="44.9678833" lon="8.5668533"><ele>115.0</ele><time>2026-04-04T08:24:49.103Z</time></trkpt><trkpt lat="44.967745" lon="8.56712"><ele>115.0</ele><time>2026-04-04T08:24:50.104Z</time></trkpt><trkpt lat="44.9675967" lon="8.56741"><ele>114.0</ele><time>2026-04-04T08:24:51.102Z</time></trkpt><trkpt lat="44.9674283" lon="8.5677117"><ele>113.0</ele><time>2026-04-04T08:24:52.102Z</time></trkpt><trkpt lat="44.96725" lon="8.568025"><ele>113.0</ele><time>2026-04-04T08:24:53.101Z</time></trkpt><trkpt lat="44.9670717" lon="8.56834"><ele>113.0</ele><time>2026-04-04T08:24:54.103Z</time></trkpt><trkpt lat="44.9668967" lon="8.56865"><ele>113.0</ele><time>2026-04-04T08:24:55.112Z</time></trkpt><trkpt lat="44.9667233" lon="8.5689567"><ele>113.0</ele><time>2026-04-04T08:24:56.105Z</time></trkpt><trkpt lat="44.966555" lon="8.5692567"><ele>113.0</ele><time>2026-04-04T08:24:57.1Z</time></trkpt><trkpt lat="44.9663933" lon="8.5695483"><ele>113.0</ele><time>2026-04-04T08:24:58.1Z</time></trkpt><trkpt lat="44.9662333" lon="8.569835"><ele>113.0</ele><time>2026-04-04T08:24:59.103Z</time></trkpt><trkpt lat="44.9660817" lon="8.57011"><ele>113.0</ele><time>2026-04-04T08:25:00.101Z</time></trkpt><trkpt lat="44.9659317" lon="8.57038"><ele>112.0</ele><time>2026-04-04T08:25:01.104Z</time></trkpt><trkpt lat="44.96579" lon="8.5706483"><ele>111.0</ele><time>2026-04-04T08:25:02.099Z</time></trkpt><trkpt lat="44.9656433" lon="8.5709067"><ele>111.0</ele><time>2026-04-04T08:25:03.105Z</time></trkpt><trkpt lat="44.9655017" lon="8.57116"><ele>111.0</ele><time>2026-04-04T08:25:04.106Z</time></trkpt><trkpt lat="44.9653667" lon="8.5714167"><ele>110.5</ele><time>2026-04-04T08:25:05.105Z</time></trkpt><trkpt lat="44.9652283" lon="8.5716717"><ele>110.0</ele><time>2026-04-04T08:25:06.103Z</time></trkpt><trkpt lat="44.9650967" lon="8.5719267"><ele>109.33333333333333</ele><time>2026-04-04T08:25:07.103Z</time></trkpt><trkpt lat="44.964965" lon="8.5721733"><ele>108.66666666666666</ele><time>2026-04-04T08:25:08.108Z</time></trkpt><trkpt lat="44.9648333" lon="8.5724117"><ele>108.0</ele><time>2026-04-04T08:25:09.106Z</time></trkpt><trkpt lat="44.9647017" lon="8.57265"><ele>108.66666666666666</ele><time>2026-04-04T08:25:10.106Z</time></trkpt><trkpt lat="44.9645717" lon="8.5728883"><ele>109.33333333333333</ele><time>2026-04-04T08:25:11.101Z</time></trkpt><trkpt lat="44.9644417" lon="8.573125"><ele>110.0</ele><time>2026-04-04T08:25:12.103Z</time></trkpt><trkpt lat="44.964315" lon="8.5733633"><ele>109.33333333333333</ele><time>2026-04-04T08:25:13.105Z</time></trkpt><trkpt lat="44.9641883" lon="8.5736017"><ele>108.66666666666666</ele><time>2026-04-04T08:25:14.105Z</time></trkpt><trkpt lat="44.9640617" lon="8.5738333"><ele>108.0</ele><time>2026-04-04T08:25:15.1Z</time></trkpt><trkpt lat="44.9639333" lon="8.574065"><ele>108.0</ele><time>2026-04-04T08:25:16.101Z</time></trkpt><trkpt lat="44.9638033" lon="8.5742933"><ele>108.0</ele><time>2026-04-04T08:25:17.108Z</time></trkpt><trkpt lat="44.963665" lon="8.5745117"><ele>108.0</ele><time>2026-04-04T08:25:18.102Z</time></trkpt><trkpt lat="44.9635267" lon="8.5747267"><ele>108.66666666666666</ele><time>2026-04-04T08:25:19.101Z</time></trkpt><trkpt lat="44.963385" lon="8.5749367"><ele>109.33333333333333</ele><time>2026-04-04T08:25:20.102Z</time></trkpt><trkpt lat="44.9632433" lon="8.5751383"><ele>110.0</ele><time>2026-04-04T08:25:21.105Z</time></trkpt><trkpt lat="44.963105" lon="8.5753317"><ele>109.33333333333333</ele><time>2026-04-04T08:25:22.103Z</time></trkpt><trkpt lat="44.9629667" lon="8.5755033"><ele>108.66666666666666</ele><time>2026-04-04T08:25:23.103Z</time></trkpt><trkpt lat="44.962835" lon="8.5756567"><ele>108.0</ele><time>2026-04-04T08:25:24.106Z</time></trkpt><trkpt lat="44.96271" lon="8.5757967"><ele>108.0</ele><time>2026-04-04T08:25:25.102Z</time></trkpt><trkpt lat="44.9625933" lon="8.57593"><ele>108.0</ele><time>2026-04-04T08:25:26.099Z</time></trkpt><trkpt lat="44.9624867" lon="8.5760533"><ele>108.0</ele><time>2026-04-04T08:25:27.102Z</time></trkpt><trkpt lat="44.9623883" lon="8.576165"><ele>108.0</ele><time>2026-04-04T08:25:28.104Z</time></trkpt><trkpt lat="44.9623017" lon="8.5762633"><ele>108.0</ele><time>2026-04-04T08:25:29.103Z</time></trkpt><trkpt lat="44.9622133" lon="8.5763433"><ele>108.00000000000001</ele><time>2026-04-04T08:25:30.106Z</time></trkpt><trkpt lat="44.9621217" lon="8.5764117"><ele>108.00000000000001</ele><time>2026-04-04T08:25:31.105Z</time></trkpt><trkpt lat="44.962025" lon="8.5764783"><ele>108.0</ele><time>2026-04-04T08:25:32.099Z</time></trkpt><trkpt lat="44.9619283" lon="8.576565"><ele>108.0</ele><time>2026-04-04T08:25:33.1Z</time></trkpt><trkpt lat="44.9618367" lon="8.5766767"><ele>108.0</ele><time>2026-04-04T08:25:34.105Z</time></trkpt><trkpt lat="44.9617367" lon="8.5767933"><ele>108.0</ele><time>2026-04-04T08:25:35.1Z</time></trkpt><trkpt lat="44.9616333" lon="8.5768967"><ele>108.0</ele><time>2026-04-04T08:25:36.101Z</time></trkpt><trkpt lat="44.9615033" lon="8.5769783"><ele>108.0</ele><time>2026-04-04T08:25:37.104Z</time></trkpt><trkpt lat="44.9613617" lon="8.57706"><ele>107.66666666666666</ele><time>2026-04-04T08:25:38.104Z</time></trkpt><trkpt lat="44.9612183" lon="8.5771417"><ele>107.33333333333333</ele><time>2026-04-04T08:25:39.103Z</time></trkpt><trkpt lat="44.9610733" lon="8.5772267"><ele>107.0</ele><time>2026-04-04T08:25:40.103Z</time></trkpt><trkpt lat="44.9609233" lon="8.5773133"><ele>106.33333333333333</ele><time>2026-04-04T08:25:41.106Z</time></trkpt><trkpt lat="44.96077" lon="8.5774"><ele>105.66666666666666</ele><time>2026-04-04T08:25:42.108Z</time></trkpt><trkpt lat="44.9606183" lon="8.577475"><ele>105.0</ele><time>2026-04-04T08:25:43.106Z</time></trkpt><trkpt lat="44.9604717" lon="8.577545"><ele>105.0</ele><time>2026-04-04T08:25:44.106Z</time></trkpt><trkpt lat="44.96033" lon="8.5776067"><ele>105.0</ele><time>2026-04-04T08:25:45.101Z</time></trkpt><trkpt lat="44.9602" lon="8.5776567"><ele>105.0</ele><time>2026-04-04T08:25:46.105Z</time></trkpt><trkpt lat="44.96009" lon="8.5776967"><ele>105.0</ele><time>2026-04-04T08:25:47.11Z</time></trkpt><trkpt lat="44.9600033" lon="8.5777167"><ele>104.6</ele><time>2026-04-04T08:25:48.103Z</time></trkpt><trkpt lat="44.9599367" lon="8.577735"><ele>104.2</ele><time>2026-04-04T08:25:49.106Z</time></trkpt><trkpt lat="44.95984" lon="8.5777633"><ele>103.80000000000001</ele><time>2026-04-04T08:25:51.098Z</time></trkpt><trkpt lat="44.95975" lon="8.5777933"><ele>103.4</ele><time>2026-04-04T08:25:54.1Z</time></trkpt><trkpt lat="44.9596833" lon="8.5778733"><ele>103.0</ele><time>2026-04-04T08:25:56.103Z</time></trkpt><trkpt lat="44.9596567" lon="8.5780567"><ele>102.80000000000001</ele><time>2026-04-04T08:25:58.101Z</time></trkpt><trkpt lat="44.9596633" lon="8.5781667"><ele>102.6</ele><time>2026-04-04T08:25:59.102Z</time></trkpt><trkpt lat="44.9596833" lon="8.5783083"><ele>102.4</ele><time>2026-04-04T08:26:00.105Z</time></trkpt><trkpt lat="44.95971" lon="8.5784783"><ele>102.19999999999999</ele><time>2026-04-04T08:26:01.103Z</time></trkpt><trkpt lat="44.9597017" lon="8.5786767"><ele>102.0</ele><time>2026-04-04T08:26:02.108Z</time></trkpt><trkpt lat="44.9596883" lon="8.57889"><ele>102.0</ele><time>2026-04-04T08:26:03.102Z</time></trkpt><trkpt lat="44.9596567" lon="8.5791167"><ele>102.0</ele><time>2026-04-04T08:26:04.109Z</time></trkpt><trkpt lat="44.95962" lon="8.5793517"><ele>102.0</ele><time>2026-04-04T08:26:05.105Z</time></trkpt><trkpt lat="44.95958" lon="8.5795983"><ele>102.33333333333334</ele><time>2026-04-04T08:26:06.109Z</time></trkpt><trkpt lat="44.9595383" lon="8.5798367"><ele>102.66666666666667</ele><time>2026-04-04T08:26:07.1Z</time></trkpt><trkpt lat="44.9594967" lon="8.5800767"><ele>103.0</ele><time>2026-04-04T08:26:08.102Z</time></trkpt><trkpt lat="44.9594517" lon="8.5803083"><ele>103.66666666666667</ele><time>2026-04-04T08:26:09.102Z</time></trkpt><trkpt lat="44.9594083" lon="8.5805383"><ele>104.33333333333334</ele><time>2026-04-04T08:26:10.103Z</time></trkpt><trkpt lat="44.9593667" lon="8.58077"><ele>105.0</ele><time>2026-04-04T08:26:11.102Z</time></trkpt><trkpt lat="44.9593317" lon="8.581005"><ele>105.33333333333334</ele><time>2026-04-04T08:26:12.104Z</time></trkpt><trkpt lat="44.9593033" lon="8.5812383"><ele>105.66666666666667</ele><time>2026-04-04T08:26:13.106Z</time></trkpt><trkpt lat="44.9592833" lon="8.5814733"><ele>106.0</ele><time>2026-04-04T08:26:14.104Z</time></trkpt><trkpt lat="44.9592717" lon="8.581715"><ele>106.0</ele><time>2026-04-04T08:26:15.106Z</time></trkpt><trkpt lat="44.9592617" lon="8.5819583"><ele>106.0</ele><time>2026-04-04T08:26:16.107Z</time></trkpt><trkpt lat="44.9592533" lon="8.5822"><ele>106.0</ele><time>2026-04-04T08:26:17.099Z</time></trkpt><trkpt lat="44.95924" lon="8.582435"><ele>106.33333333333334</ele><time>2026-04-04T08:26:18.1Z</time></trkpt><trkpt lat="44.959225" lon="8.5826683"><ele>106.66666666666666</ele><time>2026-04-04T08:26:19.104Z</time></trkpt><trkpt lat="44.9592" lon="8.5828967"><ele>107.0</ele><time>2026-04-04T08:26:20.101Z</time></trkpt><trkpt lat="44.9591633" lon="8.58312"><ele>107.0</ele><time>2026-04-04T08:26:21.101Z</time></trkpt><trkpt lat="44.9591167" lon="8.5833383"><ele>107.0</ele><time>2026-04-04T08:26:22.106Z</time></trkpt><trkpt lat="44.95907" lon="8.5835533"><ele>107.0</ele><time>2026-04-04T08:26:23.107Z</time></trkpt><trkpt lat="44.9590217" lon="8.5837667"><ele>106.66666666666666</ele><time>2026-04-04T08:26:24.101Z</time></trkpt><trkpt lat="44.9589733" lon="8.5839817"><ele>106.33333333333334</ele><time>2026-04-04T08:26:25.106Z</time></trkpt><trkpt lat="44.9589283" lon="8.5841983"><ele>106.0</ele><time>2026-04-04T08:26:26.105Z</time></trkpt><trkpt lat="44.958885" lon="8.5844167"><ele>106.0</ele><time>2026-04-04T08:26:27.101Z</time></trkpt><trkpt lat="44.95884" lon="8.584635"><ele>106.0</ele><time>2026-04-04T08:26:28.103Z</time></trkpt><trkpt lat="44.9587983" lon="8.58484"><ele>106.0</ele><time>2026-04-04T08:26:29.103Z</time></trkpt><trkpt lat="44.9587583" lon="8.5850483"><ele>106.0</ele><time>2026-04-04T08:26:30.106Z</time></trkpt><trkpt lat="44.9587183" lon="8.5852633"><ele>106.0</ele><time>2026-04-04T08:26:31.103Z</time></trkpt><trkpt lat="44.95868" lon="8.5854767"><ele>106.0</ele><time>2026-04-04T08:26:32.103Z</time></trkpt><trkpt lat="44.9586467" lon="8.58569"><ele>106.33333333333334</ele><time>2026-04-04T08:26:33.102Z</time></trkpt><trkpt lat="44.9586167" lon="8.5859067"><ele>106.66666666666666</ele><time>2026-04-04T08:26:34.103Z</time></trkpt><trkpt lat="44.9585883" lon="8.5861233"><ele>107.0</ele><time>2026-04-04T08:26:35.104Z</time></trkpt><trkpt lat="44.9585617" lon="8.5863417"><ele>107.0</ele><time>2026-04-04T08:26:36.101Z</time></trkpt><trkpt lat="44.9585333" lon="8.586555"><ele>107.0</ele><time>2026-04-04T08:26:37.101Z</time></trkpt><trkpt lat="44.958505" lon="8.5867717"><ele>107.0</ele><time>2026-04-04T08:26:38.101Z</time></trkpt><trkpt lat="44.9584783" lon="8.58699"><ele>107.0</ele><time>2026-04-04T08:26:39.1Z</time></trkpt><trkpt lat="44.958455" lon="8.5872083"><ele>107.0</ele><time>2026-04-04T08:26:40.108Z</time></trkpt><trkpt lat="44.958425" lon="8.5874233"><ele>107.0</ele><time>2026-04-04T08:26:41.101Z</time></trkpt><trkpt lat="44.9583933" lon="8.5876417"><ele>106.66666666666666</ele><time>2026-04-04T08:26:42.102Z</time></trkpt><trkpt lat="44.95836" lon="8.5878567"><ele>106.33333333333334</ele><time>2026-04-04T08:26:43.1Z</time></trkpt><trkpt lat="44.958325" lon="8.5880733"><ele>106.0</ele><time>2026-04-04T08:26:44.099Z</time></trkpt><trkpt lat="44.958285" lon="8.5882883"><ele>106.0</ele><time>2026-04-04T08:26:45.104Z</time></trkpt><trkpt lat="44.95824" lon="8.5885"><ele>106.0</ele><time>2026-04-04T08:26:46.102Z</time></trkpt><trkpt lat="44.9582033" lon="8.588715"><ele>106.0</ele><time>2026-04-04T08:26:47.1Z</time></trkpt><trkpt lat="44.9581683" lon="8.5889333"><ele>106.33333333333334</ele><time>2026-04-04T08:26:48.099Z</time></trkpt><trkpt lat="44.95813" lon="8.58915"><ele>106.66666666666666</ele><time>2026-04-04T08:26:49.105Z</time></trkpt><trkpt lat="44.9581" lon="8.5893667"><ele>107.0</ele><time>2026-04-04T08:26:50.098Z</time></trkpt><trkpt lat="44.958085" lon="8.589585"><ele>107.33333333333333</ele><time>2026-04-04T08:26:51.101Z</time></trkpt><trkpt lat="44.9580833" lon="8.5898033"><ele>107.66666666666666</ele><time>2026-04-04T08:26:52.102Z</time></trkpt><trkpt lat="44.9580983" lon="8.590015"><ele>108.0</ele><time>2026-04-04T08:26:53.099Z</time></trkpt><trkpt lat="44.9581267" lon="8.590225"><ele>108.0</ele><time>2026-04-04T08:26:54.105Z</time></trkpt><trkpt lat="44.9581633" lon="8.5904333"><ele>108.0</ele><time>2026-04-04T08:26:55.104Z</time></trkpt><trkpt lat="44.9582083" lon="8.590625"><ele>108.0</ele><time>2026-04-04T08:26:56.103Z</time></trkpt><trkpt lat="44.9582617" lon="8.5907867"><ele>108.0</ele><time>2026-04-04T08:26:57.107Z</time></trkpt><trkpt lat="44.9583217" lon="8.5909233"><ele>108.25</ele><time>2026-04-04T08:26:58.097Z</time></trkpt><trkpt lat="44.9583867" lon="8.5910667"><ele>108.5</ele><time>2026-04-04T08:26:59.098Z</time></trkpt><trkpt lat="44.958455" lon="8.591205"><ele>108.75</ele><time>2026-04-04T08:27:00.105Z</time></trkpt><trkpt lat="44.9585217" lon="8.5913433"><ele>109.0</ele><time>2026-04-04T08:27:01.107Z</time></trkpt><trkpt lat="44.9585933" lon="8.5914733"><ele>108.5</ele><time>2026-04-04T08:27:02.099Z</time></trkpt><trkpt lat="44.95866" lon="8.591605"><ele>108.0</ele><time>2026-04-04T08:27:03.101Z</time></trkpt><trkpt lat="44.95872" lon="8.59174"><ele>107.5</ele><time>2026-04-04T08:27:04.101Z</time></trkpt><trkpt lat="44.9587867" lon="8.591875"><ele>107.0</ele><time>2026-04-04T08:27:05.103Z</time></trkpt><trkpt lat="44.9588483" lon="8.5920267"><ele>106.5</ele><time>2026-04-04T08:27:06.102Z</time></trkpt><trkpt lat="44.9589233" lon="8.5921883"><ele>106.0</ele><time>2026-04-04T08:27:07.105Z</time></trkpt><trkpt lat="44.9590033" lon="8.5923517"><ele>105.5</ele><time>2026-04-04T08:27:08.102Z</time></trkpt><trkpt lat="44.9590833" lon="8.5925133"><ele>105.0</ele><time>2026-04-04T08:27:09.102Z</time></trkpt><trkpt lat="44.9591633" lon="8.5926633"><ele>105.5</ele><time>2026-04-04T08:27:10.1Z</time></trkpt><trkpt lat="44.9592383" lon="8.5928317"><ele>106.0</ele><time>2026-04-04T08:27:11.102Z</time></trkpt><trkpt lat="44.959315" lon="8.592985"><ele>106.5</ele><time>2026-04-04T08:27:12.109Z</time></trkpt><trkpt lat="44.9593867" lon="8.5931333"><ele>107.0</ele><time>2026-04-04T08:27:13.104Z</time></trkpt><trkpt lat="44.9594383" lon="8.593275"><ele>107.0</ele><time>2026-04-04T08:27:14.105Z</time></trkpt><trkpt lat="44.9594667" lon="8.5934233"><ele>107.0</ele><time>2026-04-04T08:27:15.103Z</time></trkpt><trkpt lat="44.9594783" lon="8.5935833"><ele>107.0</ele><time>2026-04-04T08:27:16.105Z</time></trkpt><trkpt lat="44.959465" lon="8.5937567"><ele>107.0</ele><time>2026-04-04T08:27:17.103Z</time></trkpt><trkpt lat="44.9594467" lon="8.5939333"><ele>107.0</ele><time>2026-04-04T08:27:18.102Z</time></trkpt><trkpt lat="44.9594217" lon="8.5941117"><ele>107.0</ele><time>2026-04-04T08:27:19.107Z</time></trkpt><trkpt lat="44.9594017" lon="8.5943"><ele>107.0</ele><time>2026-04-04T08:27:20.106Z</time></trkpt><trkpt lat="44.9593867" lon="8.5944917"><ele>107.0</ele><time>2026-04-04T08:27:21.109Z</time></trkpt><trkpt lat="44.9593717" lon="8.5946817"><ele>107.0</ele><time>2026-04-04T08:27:22.098Z</time></trkpt><trkpt lat="44.9593617" lon="8.594865"><ele>107.0</ele><time>2026-04-04T08:27:23.106Z</time></trkpt><trkpt lat="44.95936" lon="8.5950583"><ele>107.0</ele><time>2026-04-04T08:27:24.099Z</time></trkpt><trkpt lat="44.9593567" lon="8.59525"><ele>107.0</ele><time>2026-04-04T08:27:25.1Z</time></trkpt><trkpt lat="44.959345" lon="8.5954367"><ele>107.0</ele><time>2026-04-04T08:27:26.1Z</time></trkpt><trkpt lat="44.9593283" lon="8.5956233"><ele>107.0</ele><time>2026-04-04T08:27:27.101Z</time></trkpt><trkpt lat="44.9593233" lon="8.595815"><ele>107.0</ele><time>2026-04-04T08:27:28.099Z</time></trkpt><trkpt lat="44.959305" lon="8.5959983"><ele>107.0</ele><time>2026-04-04T08:27:29.103Z</time></trkpt><trkpt lat="44.9592917" lon="8.59618"><ele>106.75</ele><time>2026-04-04T08:27:30.105Z</time></trkpt><trkpt lat="44.9592767" lon="8.5963617"><ele>106.5</ele><time>2026-04-04T08:27:31.1Z</time></trkpt><trkpt lat="44.9592617" lon="8.5965383"><ele>106.25</ele><time>2026-04-04T08:27:32.106Z</time></trkpt><trkpt lat="44.9592533" lon="8.5967183"><ele>106.0</ele><time>2026-04-04T08:27:33.103Z</time></trkpt><trkpt lat="44.959255" lon="8.5969067"><ele>106.0</ele><time>2026-04-04T08:27:34.103Z</time></trkpt><trkpt lat="44.9592583" lon="8.5970983"><ele>106.0</ele><time>2026-04-04T08:27:35.099Z</time></trkpt><trkpt lat="44.9592583" lon="8.597285"><ele>106.0</ele><time>2026-04-04T08:27:36.11Z</time></trkpt><trkpt lat="44.95926" lon="8.59747"><ele>106.0</ele><time>2026-04-04T08:27:37.1Z</time></trkpt><trkpt lat="44.95926" lon="8.5976517"><ele>106.0</ele><time>2026-04-04T08:27:38.104Z</time></trkpt><trkpt lat="44.9592617" lon="8.597835"><ele>106.0</ele><time>2026-04-04T08:27:39.102Z</time></trkpt><trkpt lat="44.9592617" lon="8.598015"><ele>106.0</ele><time>2026-04-04T08:27:40.101Z</time></trkpt><trkpt lat="44.9592617" lon="8.5981883"><ele>106.0</ele><time>2026-04-04T08:27:41.108Z</time></trkpt><trkpt lat="44.9592633" lon="8.598355"><ele>105.6</ele><time>2026-04-04T08:27:42.104Z</time></trkpt><trkpt lat="44.95927" lon="8.5985167"><ele>105.19999999999999</ele><time>2026-04-04T08:27:43.107Z</time></trkpt><trkpt lat="44.9592833" lon="8.5986733"><ele>104.80000000000001</ele><time>2026-04-04T08:27:44.098Z</time></trkpt><trkpt lat="44.9592983" lon="8.5988267"><ele>104.4</ele><time>2026-04-04T08:27:45.109Z</time></trkpt><trkpt lat="44.9593133" lon="8.5989783"><ele>104.0</ele><time>2026-04-04T08:27:46.099Z</time></trkpt><trkpt lat="44.9593233" lon="8.5991283"><ele>104.0</ele><time>2026-04-04T08:27:47.101Z</time></trkpt><trkpt lat="44.9593317" lon="8.5992783"><ele>104.0</ele><time>2026-04-04T08:27:48.101Z</time></trkpt><trkpt lat="44.9593433" lon="8.59943"><ele>104.0</ele><time>2026-04-04T08:27:49.101Z</time></trkpt><trkpt lat="44.9593533" lon="8.5995867"><ele>104.0</ele><time>2026-04-04T08:27:50.104Z</time></trkpt><trkpt lat="44.9593633" lon="8.5997467"><ele>104.0</ele><time>2026-04-04T08:27:51.1Z</time></trkpt><trkpt lat="44.9593717" lon="8.59991"><ele>104.0</ele><time>2026-04-04T08:27:52.105Z</time></trkpt><trkpt lat="44.9593817" lon="8.600075"><ele>104.0</ele><time>2026-04-04T08:27:53.105Z</time></trkpt><trkpt lat="44.9593883" lon="8.6002367"><ele>104.0</ele><time>2026-04-04T08:27:54.101Z</time></trkpt><trkpt lat="44.9593933" lon="8.6004017"><ele>104.0</ele><time>2026-04-04T08:27:55.107Z</time></trkpt><trkpt lat="44.9593933" lon="8.60056"><ele>104.0</ele><time>2026-04-04T08:27:56.106Z</time></trkpt><trkpt lat="44.9593983" lon="8.6007067"><ele>104.0</ele><time>2026-04-04T08:27:57.104Z</time></trkpt><trkpt lat="44.959395" lon="8.60086"><ele>104.0</ele><time>2026-04-04T08:27:58.102Z</time></trkpt><trkpt lat="44.9593833" lon="8.6010117"><ele>104.0</ele><time>2026-04-04T08:27:59.103Z</time></trkpt><trkpt lat="44.9593733" lon="8.6011683"><ele>104.0</ele><time>2026-04-04T08:28:00.1Z</time></trkpt><trkpt lat="44.959365" lon="8.60133"><ele>104.0</ele><time>2026-04-04T08:28:01.108Z</time></trkpt><trkpt lat="44.9593617" lon="8.6015"><ele>104.0</ele><time>2026-04-04T08:28:02.101Z</time></trkpt><trkpt lat="44.9593633" lon="8.6016783"><ele>104.0</ele><time>2026-04-04T08:28:03.1Z</time></trkpt><trkpt lat="44.9593717" lon="8.6018617"><ele>104.0</ele><time>2026-04-04T08:28:04.106Z</time></trkpt><trkpt lat="44.9593783" lon="8.602055"><ele>104.0</ele><time>2026-04-04T08:28:05.102Z</time></trkpt><trkpt lat="44.95939" lon="8.60225"><ele>104.0</ele><time>2026-04-04T08:28:06.1Z</time></trkpt><trkpt lat="44.9594" lon="8.6024467"><ele>104.0</ele><time>2026-04-04T08:28:07.098Z</time></trkpt><trkpt lat="44.9594083" lon="8.6026367"><ele>104.0</ele><time>2026-04-04T08:28:08.108Z</time></trkpt><trkpt lat="44.9594083" lon="8.6028117"><ele>104.75</ele><time>2026-04-04T08:28:09.101Z</time></trkpt><trkpt lat="44.9594" lon="8.6029833"><ele>105.5</ele><time>2026-04-04T08:28:10.1Z</time></trkpt><trkpt lat="44.9593833" lon="8.6031517"><ele>106.25</ele><time>2026-04-04T08:28:11.101Z</time></trkpt><trkpt lat="44.959355" lon="8.6033367"><ele>107.0</ele><time>2026-04-04T08:28:12.1Z</time></trkpt><trkpt lat="44.9593283" lon="8.60353"><ele>106.75</ele><time>2026-04-04T08:28:13.102Z</time></trkpt><trkpt lat="44.9593" lon="8.6037283"><ele>106.5</ele><time>2026-04-04T08:28:14.098Z</time></trkpt><trkpt lat="44.9592917" lon="8.6039383"><ele>106.25</ele><time>2026-04-04T08:28:15.099Z</time></trkpt><trkpt lat="44.9592767" lon="8.6041267"><ele>106.0</ele><time>2026-04-04T08:28:16.098Z</time></trkpt><trkpt lat="44.9592583" lon="8.604315"><ele>106.0</ele><time>2026-04-04T08:28:17.1Z</time></trkpt><trkpt lat="44.959235" lon="8.6045033"><ele>106.0</ele><time>2026-04-04T08:28:18.101Z</time></trkpt><trkpt lat="44.9592183" lon="8.6046983"><ele>106.0</ele><time>2026-04-04T08:28:19.101Z</time></trkpt><trkpt lat="44.9591933" lon="8.60489"><ele>106.0</ele><time>2026-04-04T08:28:20.103Z</time></trkpt><trkpt lat="44.9591667" lon="8.6050867"><ele>106.0</ele><time>2026-04-04T08:28:21.102Z</time></trkpt><trkpt lat="44.959135" lon="8.60529"><ele>106.0</ele><time>2026-04-04T08:28:22.104Z</time></trkpt><trkpt lat="44.959105" lon="8.6054933"><ele>106.0</ele><time>2026-04-04T08:28:23.103Z</time></trkpt><trkpt lat="44.9590733" lon="8.6057017"><ele>106.0</ele><time>2026-04-04T08:28:24.107Z</time></trkpt><trkpt lat="44.9590417" lon="8.6059117"><ele>106.0</ele><time>2026-04-04T08:28:25.105Z</time></trkpt><trkpt lat="44.9590117" lon="8.606125"><ele>106.0</ele><time>2026-04-04T08:28:26.102Z</time></trkpt><trkpt lat="44.95898" lon="8.60634"><ele>106.0</ele><time>2026-04-04T08:28:27.103Z</time></trkpt><trkpt lat="44.95895" lon="8.606555"><ele>105.75</ele><time>2026-04-04T08:28:28.106Z</time></trkpt><trkpt lat="44.95892" lon="8.60676"><ele>105.5</ele><time>2026-04-04T08:28:29.102Z</time></trkpt><trkpt lat="44.95889" lon="8.6069567"><ele>105.25</ele><time>2026-04-04T08:28:30.104Z</time></trkpt><trkpt lat="44.95886" lon="8.6071483"><ele>105.0</ele><time>2026-04-04T08:28:31.101Z</time></trkpt><trkpt lat="44.9588333" lon="8.6073383"><ele>104.5</ele><time>2026-04-04T08:28:32.1Z</time></trkpt><trkpt lat="44.9588067" lon="8.60752"><ele>104.0</ele><time>2026-04-04T08:28:33.1Z</time></trkpt><trkpt lat="44.9587817" lon="8.6076967"><ele>103.5</ele><time>2026-04-04T08:28:34.099Z</time></trkpt><trkpt lat="44.9587583" lon="8.6078733"><ele>103.0</ele><time>2026-04-04T08:28:35.098Z</time></trkpt><trkpt lat="44.9587317" lon="8.6080417"><ele>103.0</ele><time>2026-04-04T08:28:36.108Z</time></trkpt><trkpt lat="44.9587017" lon="8.6082117"><ele>103.0</ele><time>2026-04-04T08:28:37.105Z</time></trkpt><trkpt lat="44.9586717" lon="8.608375"><ele>103.0</ele><time>2026-04-04T08:28:38.098Z</time></trkpt><trkpt lat="44.95864" lon="8.6085383"><ele>103.0</ele><time>2026-04-04T08:28:39.105Z</time></trkpt><trkpt lat="44.958605" lon="8.6087017"><ele>103.0</ele><time>2026-04-04T08:28:40.106Z</time></trkpt><trkpt lat="44.958565" lon="8.6088717"><ele>103.0</ele><time>2026-04-04T08:28:41.105Z</time></trkpt><trkpt lat="44.95853" lon="8.6090433"><ele>103.0</ele><time>2026-04-04T08:28:42.1Z</time></trkpt><trkpt lat="44.95849" lon="8.6092217"><ele>103.0</ele><time>2026-04-04T08:28:43.105Z</time></trkpt><trkpt lat="44.958445" lon="8.6094067"><ele>103.0</ele><time>2026-04-04T08:28:44.102Z</time></trkpt><trkpt lat="44.9583933" lon="8.609595"><ele>103.0</ele><time>2026-04-04T08:28:45.103Z</time></trkpt><trkpt lat="44.958335" lon="8.6097817"><ele>103.0</ele><time>2026-04-04T08:28:46.103Z</time></trkpt><trkpt lat="44.9582717" lon="8.6099683"><ele>103.0</ele><time>2026-04-04T08:28:47.106Z</time></trkpt><trkpt lat="44.9582067" lon="8.6101517"><ele>102.5</ele><time>2026-04-04T08:28:48.104Z</time></trkpt><trkpt lat="44.958145" lon="8.6103283"><ele>102.0</ele><time>2026-04-04T08:28:49.099Z</time></trkpt><trkpt lat="44.958085" lon="8.6104917"><ele>101.5</ele><time>2026-04-04T08:28:50.097Z</time></trkpt><trkpt lat="44.9580317" lon="8.610645"><ele>101.0</ele><time>2026-04-04T08:28:51.1Z</time></trkpt><trkpt lat="44.9579917" lon="8.610795"><ele>100.99999999999999</ele><time>2026-04-04T08:28:52.099Z</time></trkpt><trkpt lat="44.9579583" lon="8.6109283"><ele>101.0</ele><time>2026-04-04T08:28:53.101Z</time></trkpt><trkpt lat="44.9579317" lon="8.6110367"><ele>101.0</ele><time>2026-04-04T08:28:54.102Z</time></trkpt><trkpt lat="44.957905" lon="8.611125"><ele>101.0</ele><time>2026-04-04T08:28:55.099Z</time></trkpt><trkpt lat="44.9578633" lon="8.6112117"><ele>100.99999999999999</ele><time>2026-04-04T08:28:56.113Z</time></trkpt><trkpt lat="44.957835" lon="8.6113017"><ele>101.0</ele><time>2026-04-04T08:28:57.098Z</time></trkpt><trkpt lat="44.9578233" lon="8.611395"><ele>101.19999999999999</ele><time>2026-04-04T08:28:58.101Z</time></trkpt><trkpt lat="44.957865" lon="8.6115667"><ele>101.39999999999999</ele><time>2026-04-04T08:29:00.101Z</time></trkpt><trkpt lat="44.9579517" lon="8.6115817"><ele>101.6</ele><time>2026-04-04T08:29:01.102Z</time></trkpt><trkpt lat="44.9580167" lon="8.6115917"><ele>101.8</ele><time>2026-04-04T08:29:02.104Z</time></trkpt><trkpt lat="44.9580917" lon="8.611525"><ele>102.0</ele><time>2026-04-04T08:29:03.102Z</time></trkpt><trkpt lat="44.9581633" lon="8.6114417"><ele>102.0</ele><time>2026-04-04T08:29:04.106Z</time></trkpt><trkpt lat="44.95824" lon="8.6113583"><ele>102.0</ele><time>2026-04-04T08:29:05.101Z</time></trkpt><trkpt lat="44.958355" lon="8.611295"><ele>102.0</ele><time>2026-04-04T08:29:06.104Z</time></trkpt><trkpt lat="44.9584883" lon="8.6112433"><ele>102.0</ele><time>2026-04-04T08:29:07.108Z</time></trkpt><trkpt lat="44.9586383" lon="8.6111917"><ele>102.33333333333334</ele><time>2026-04-04T08:29:08.105Z</time></trkpt><trkpt lat="44.9587983" lon="8.61113"><ele>102.66666666666667</ele><time>2026-04-04T08:29:09.107Z</time></trkpt><trkpt lat="44.9589617" lon="8.6110683"><ele>103.0</ele><time>2026-04-04T08:29:10.104Z</time></trkpt><trkpt lat="44.9591267" lon="8.6110017"><ele>104.0</ele><time>2026-04-04T08:29:11.104Z</time></trkpt><trkpt lat="44.9592867" lon="8.6109267"><ele>105.0</ele><time>2026-04-04T08:29:12.105Z</time></trkpt><trkpt lat="44.959445" lon="8.6108417"><ele>106.0</ele><time>2026-04-04T08:29:13.106Z</time></trkpt><trkpt lat="44.9596067" lon="8.61075"><ele>106.0</ele><time>2026-04-04T08:29:14.106Z</time></trkpt><trkpt lat="44.959765" lon="8.6106533"><ele>106.0</ele><time>2026-04-04T08:29:15.099Z</time></trkpt><trkpt lat="44.9599233" lon="8.6105533"><ele>106.0</ele><time>2026-04-04T08:29:16.097Z</time></trkpt><trkpt lat="44.9600833" lon="8.61046"><ele>106.0</ele><time>2026-04-04T08:29:17.11Z</time></trkpt><trkpt lat="44.960245" lon="8.6103817"><ele>106.0</ele><time>2026-04-04T08:29:18.101Z</time></trkpt><trkpt lat="44.9604133" lon="8.6103133"><ele>106.0</ele><time>2026-04-04T08:29:19.1Z</time></trkpt><trkpt lat="44.9605867" lon="8.6102633"><ele>106.0</ele><time>2026-04-04T08:29:20.103Z</time></trkpt><trkpt lat="44.9607633" lon="8.6102167"><ele>106.0</ele><time>2026-04-04T08:29:21.105Z</time></trkpt><trkpt lat="44.9609417" lon="8.61018"><ele>106.0</ele><time>2026-04-04T08:29:22.102Z</time></trkpt><trkpt lat="44.9611233" lon="8.610145"><ele>107.0</ele><time>2026-04-04T08:29:23.106Z</time></trkpt><trkpt lat="44.9613067" lon="8.6101067"><ele>108.0</ele><time>2026-04-04T08:29:24.102Z</time></trkpt><trkpt lat="44.9614867" lon="8.610065"><ele>109.0</ele><time>2026-04-04T08:29:25.101Z</time></trkpt><trkpt lat="44.9616567" lon="8.6100267"><ele>109.5</ele><time>2026-04-04T08:29:26.107Z</time></trkpt><trkpt lat="44.9618117" lon="8.6099967"><ele>110.0</ele><time>2026-04-04T08:29:27.106Z</time></trkpt><trkpt lat="44.9619567" lon="8.6099667"><ele>110.5</ele><time>2026-04-04T08:29:28.105Z</time></trkpt><trkpt lat="44.962095" lon="8.6099433"><ele>111.0</ele><time>2026-04-04T08:29:29.107Z</time></trkpt><trkpt lat="44.9622317" lon="8.6099183"><ele>111.0</ele><time>2026-04-04T08:29:30.112Z</time></trkpt><trkpt lat="44.9623667" lon="8.6098967"><ele>111.0</ele><time>2026-04-04T08:29:31.102Z</time></trkpt><trkpt lat="44.9625" lon="8.6098667"><ele>111.0</ele><time>2026-04-04T08:29:32.104Z</time></trkpt><trkpt lat="44.962635" lon="8.6098333"><ele>111.0</ele><time>2026-04-04T08:29:33.106Z</time></trkpt><trkpt lat="44.96277" lon="8.6098033"><ele>110.75</ele><time>2026-04-04T08:29:34.11Z</time></trkpt><trkpt lat="44.9629017" lon="8.6097767"><ele>110.5</ele><time>2026-04-04T08:29:35.106Z</time></trkpt><trkpt lat="44.963035" lon="8.6097467"><ele>110.25</ele><time>2026-04-04T08:29:36.109Z</time></trkpt><trkpt lat="44.9631633" lon="8.6097183"><ele>110.0</ele><time>2026-04-04T08:29:37.101Z</time></trkpt><trkpt lat="44.9632883" lon="8.60969"><ele>110.0</ele><time>2026-04-04T08:29:38.101Z</time></trkpt><trkpt lat="44.9634083" lon="8.6096617"><ele>110.0</ele><time>2026-04-04T08:29:39.102Z</time></trkpt><trkpt lat="44.9635333" lon="8.6096283"><ele>110.0</ele><time>2026-04-04T08:29:40.102Z</time></trkpt><trkpt lat="44.9636567" lon="8.6095967"><ele>110.0</ele><time>2026-04-04T08:29:41.102Z</time></trkpt><trkpt lat="44.963775" lon="8.6095683"><ele>110.0</ele><time>2026-04-04T08:29:42.103Z</time></trkpt><trkpt lat="44.963885" lon="8.6095417"><ele>110.0</ele><time>2026-04-04T08:29:43.102Z</time></trkpt><trkpt lat="44.9639833" lon="8.60952"><ele>110.0</ele><time>2026-04-04T08:29:44.103Z</time></trkpt><trkpt lat="44.9640683" lon="8.6095"><ele>110.0</ele><time>2026-04-04T08:29:45.1Z</time></trkpt><trkpt lat="44.96415" lon="8.6094867"><ele>110.0</ele><time>2026-04-04T08:29:46.102Z</time></trkpt><trkpt lat="44.9642317" lon="8.609465"><ele>109.83333333333333</ele><time>2026-04-04T08:29:47.103Z</time></trkpt><trkpt lat="44.9643133" lon="8.6094517"><ele>109.66666666666666</ele><time>2026-04-04T08:29:48.104Z</time></trkpt><trkpt lat="44.9643967" lon="8.6094367"><ele>109.5</ele><time>2026-04-04T08:29:49.106Z</time></trkpt><trkpt lat="44.96448" lon="8.6094267"><ele>109.33333333333334</ele><time>2026-04-04T08:29:50.102Z</time></trkpt><trkpt lat="44.96457" lon="8.6094233"><ele>109.16666666666667</ele><time>2026-04-04T08:29:51.101Z</time></trkpt><trkpt lat="44.96467" lon="8.609435"><ele>109.0</ele><time>2026-04-04T08:29:52.108Z</time></trkpt><trkpt lat="44.9647733" lon="8.6094533"><ele>109.0</ele><time>2026-04-04T08:29:53.102Z</time></trkpt><trkpt lat="44.9648817" lon="8.609485"><ele>109.0</ele><time>2026-04-04T08:29:54.105Z</time></trkpt><trkpt lat="44.964995" lon="8.60952"><ele>109.0</ele><time>2026-04-04T08:29:55.099Z</time></trkpt><trkpt lat="44.9651067" lon="8.60956"><ele>109.0</ele><time>2026-04-04T08:29:56.104Z</time></trkpt><trkpt lat="44.965215" lon="8.6096"><ele>109.2</ele><time>2026-04-04T08:29:57.102Z</time></trkpt><trkpt lat="44.96532" lon="8.6096417"><ele>109.4</ele><time>2026-04-04T08:29:58.098Z</time></trkpt><trkpt lat="44.9654067" lon="8.6096833"><ele>109.6</ele><time>2026-04-04T08:29:59.101Z</time></trkpt><trkpt lat="44.9654833" lon="8.6097133"><ele>109.8</ele><time>2026-04-04T08:30:00.099Z</time></trkpt><trkpt lat="44.9655533" lon="8.6097283"><ele>110.0</ele><time>2026-04-04T08:30:01.105Z</time></trkpt><trkpt lat="44.9656533" lon="8.6097733"><ele>110.0</ele><time>2026-04-04T08:30:03.102Z</time></trkpt><trkpt lat="44.9657567" lon="8.6098267"><ele>110.0</ele><time>2026-04-04T08:30:05.106Z</time></trkpt><trkpt lat="44.965865" lon="8.6098917"><ele>110.0</ele><time>2026-04-04T08:30:07.107Z</time></trkpt><trkpt lat="44.9659667" lon="8.6099567"><ele>110.0</ele><time>2026-04-04T08:30:09.101Z</time></trkpt><trkpt lat="44.9660667" lon="8.61004"><ele>110.16666666666666</ele><time>2026-04-04T08:30:11.105Z</time></trkpt><trkpt lat="44.9661783" lon="8.6101133"><ele>110.33333333333333</ele><time>2026-04-04T08:30:13.105Z</time></trkpt><trkpt lat="44.96624" lon="8.6101533"><ele>110.5</ele><time>2026-04-04T08:30:14.102Z</time></trkpt><trkpt lat="44.9663017" lon="8.6101967"><ele>110.66666666666666</ele><time>2026-04-04T08:30:15.106Z</time></trkpt><trkpt lat="44.9663583" lon="8.61024"><ele>110.83333333333333</ele><time>2026-04-04T08:30:16.099Z</time></trkpt><trkpt lat="44.9664217" lon="8.6102817"><ele>111.0</ele><time>2026-04-04T08:30:17.105Z</time></trkpt><trkpt lat="44.9664817" lon="8.6103217"><ele>111.14285714285714</ele><time>2026-04-04T08:30:18.102Z</time></trkpt><trkpt lat="44.9665467" lon="8.6103617"><ele>111.28571428571429</ele><time>2026-04-04T08:30:19.104Z</time></trkpt><trkpt lat="44.9666083" lon="8.6103967"><ele>111.42857142857143</ele><time>2026-04-04T08:30:20.106Z</time></trkpt><trkpt lat="44.9666733" lon="8.6104317"><ele>111.57142857142857</ele><time>2026-04-04T08:30:21.097Z</time></trkpt><trkpt lat="44.9667383" lon="8.6104667"><ele>111.71428571428572</ele><time>2026-04-04T08:30:22.109Z</time></trkpt><trkpt lat="44.9668083" lon="8.6105067"><ele>111.85714285714286</ele><time>2026-04-04T08:30:23.103Z</time></trkpt><trkpt lat="44.96688" lon="8.61055"><ele>112.0</ele><time>2026-04-04T08:30:24.099Z</time></trkpt><trkpt lat="44.9669517" lon="8.6105933"><ele>112.00000000000001</ele><time>2026-04-04T08:30:25.103Z</time></trkpt><trkpt lat="44.967025" lon="8.6106417"><ele>112.0</ele><time>2026-04-04T08:30:26.102Z</time></trkpt><trkpt lat="44.9671017" lon="8.61069"><ele>112.0</ele><time>2026-04-04T08:30:27.101Z</time></trkpt><trkpt lat="44.9671833" lon="8.6107417"><ele>112.0</ele><time>2026-04-04T08:30:28.103Z</time></trkpt><trkpt lat="44.967265" lon="8.6107917"><ele>112.00000000000001</ele><time>2026-04-04T08:30:29.104Z</time></trkpt><trkpt lat="44.967355" lon="8.6108483"><ele>112.0</ele><time>2026-04-04T08:30:30.101Z</time></trkpt><trkpt lat="44.967445" lon="8.6109067"><ele>112.19999999999999</ele><time>2026-04-04T08:30:31.104Z</time></trkpt><trkpt lat="44.9675333" lon="8.6109633"><ele>112.39999999999999</ele><time>2026-04-04T08:30:32.105Z</time></trkpt><trkpt lat="44.9676233" lon="8.6110217"><ele>112.60000000000001</ele><time>2026-04-04T08:30:33.111Z</time></trkpt><trkpt lat="44.9677017" lon="8.6110783"><ele>112.80000000000001</ele><time>2026-04-04T08:30:34.107Z</time></trkpt><trkpt lat="44.9677783" lon="8.61113"><ele>113.0</ele><time>2026-04-04T08:30:35.101Z</time></trkpt><trkpt lat="44.9678633" lon="8.611175"><ele>113.2</ele><time>2026-04-04T08:30:36.109Z</time></trkpt><trkpt lat="44.96795" lon="8.6112233"><ele>113.4</ele><time>2026-04-04T08:30:37.107Z</time></trkpt><trkpt lat="44.968035" lon="8.6112767"><ele>113.60000000000001</ele><time>2026-04-04T08:30:38.102Z</time></trkpt><trkpt lat="44.9681233" lon="8.6113233"><ele>113.80000000000001</ele><time>2026-04-04T08:30:39.107Z</time></trkpt><trkpt lat="44.9682117" lon="8.6113783"><ele>114.0</ele><time>2026-04-04T08:30:40.102Z</time></trkpt><trkpt lat="44.9682983" lon="8.6114383"><ele>113.6</ele><time>2026-04-04T08:30:41.107Z</time></trkpt><trkpt lat="44.9683867" lon="8.6114983"><ele>113.2</ele><time>2026-04-04T08:30:42.101Z</time></trkpt><trkpt lat="44.9684767" lon="8.6115633"><ele>112.79999999999998</ele><time>2026-04-04T08:30:43.102Z</time></trkpt><trkpt lat="44.9685667" lon="8.6116183"><ele>112.39999999999999</ele><time>2026-04-04T08:30:44.105Z</time></trkpt><trkpt lat="44.968645" lon="8.6116767"><ele>112.0</ele><time>2026-04-04T08:30:45.102Z</time></trkpt><trkpt lat="44.9687183" lon="8.611735"><ele>112.00000000000001</ele><time>2026-04-04T08:30:46.105Z</time></trkpt><trkpt lat="44.9687917" lon="8.6117917"><ele>112.0</ele><time>2026-04-04T08:30:47.1Z</time></trkpt><trkpt lat="44.9688533" lon="8.6118667"><ele>112.0</ele><time>2026-04-04T08:30:48.102Z</time></trkpt><trkpt lat="44.968915" lon="8.61195"><ele>112.0</ele><time>2026-04-04T08:30:49.101Z</time></trkpt><trkpt lat="44.96897" lon="8.612055"><ele>112.00000000000001</ele><time>2026-04-04T08:30:50.104Z</time></trkpt><trkpt lat="44.9690283" lon="8.6121717"><ele>112.0</ele><time>2026-04-04T08:30:51.104Z</time></trkpt><trkpt lat="44.969085" lon="8.6123067"><ele>112.19999999999999</ele><time>2026-04-04T08:30:52.102Z</time></trkpt><trkpt lat="44.9691333" lon="8.6124433"><ele>112.39999999999999</ele><time>2026-04-04T08:30:53.103Z</time></trkpt><trkpt lat="44.96918" lon="8.6125817"><ele>112.60000000000001</ele><time>2026-04-04T08:30:54.104Z</time></trkpt><trkpt lat="44.969225" lon="8.6127233"><ele>112.80000000000001</ele><time>2026-04-04T08:30:55.1Z</time></trkpt><trkpt lat="44.9692667" lon="8.6128717"><ele>113.0</ele><time>2026-04-04T08:30:56.102Z</time></trkpt><trkpt lat="44.969315" lon="8.6130267"><ele>113.5</ele><time>2026-04-04T08:30:57.101Z</time></trkpt><trkpt lat="44.9693567" lon="8.6131783"><ele>114.0</ele><time>2026-04-04T08:30:58.101Z</time></trkpt><trkpt lat="44.9694" lon="8.6133267"><ele>114.5</ele><time>2026-04-04T08:30:59.107Z</time></trkpt><trkpt lat="44.96944" lon="8.613475"><ele>115.0</ele><time>2026-04-04T08:31:00.107Z</time></trkpt><trkpt lat="44.9694783" lon="8.61362"><ele>115.4</ele><time>2026-04-04T08:31:01.101Z</time></trkpt><trkpt lat="44.9695117" lon="8.613765"><ele>115.8</ele><time>2026-04-04T08:31:02.104Z</time></trkpt><trkpt lat="44.9695417" lon="8.613905"><ele>116.19999999999999</ele><time>2026-04-04T08:31:03.099Z</time></trkpt><trkpt lat="44.9695717" lon="8.6140467"><ele>116.6</ele><time>2026-04-04T08:31:04.106Z</time></trkpt><trkpt lat="44.9696" lon="8.6141883"><ele>117.0</ele><time>2026-04-04T08:31:05.1Z</time></trkpt><trkpt lat="44.9696267" lon="8.6143317"><ele>117.0</ele><time>2026-04-04T08:31:06.099Z</time></trkpt><trkpt lat="44.9696533" lon="8.6144767"><ele>116.99999999999999</ele><time>2026-04-04T08:31:07.107Z</time></trkpt><trkpt lat="44.9696817" lon="8.6146233"><ele>116.99999999999999</ele><time>2026-04-04T08:31:08.1Z</time></trkpt><trkpt lat="44.9697083" lon="8.6147717"><ele>117.0</ele><time>2026-04-04T08:31:09.1Z</time></trkpt><trkpt lat="44.9697383" lon="8.6149133"><ele>117.0</ele><time>2026-04-04T08:31:10.097Z</time></trkpt><trkpt lat="44.9697617" lon="8.6150517"><ele>117.0</ele><time>2026-04-04T08:31:11.099Z</time></trkpt><trkpt lat="44.9697867" lon="8.61519"><ele>116.99999999999999</ele><time>2026-04-04T08:31:12.1Z</time></trkpt><trkpt lat="44.969815" lon="8.6153283"><ele>116.99999999999999</ele><time>2026-04-04T08:31:13.108Z</time></trkpt><trkpt lat="44.9698433" lon="8.6154717"><ele>117.0</ele><time>2026-04-04T08:31:14.104Z</time></trkpt><trkpt lat="44.9698767" lon="8.615625"><ele>117.0</ele><time>2026-04-04T08:31:15.103Z</time></trkpt><trkpt lat="44.96991" lon="8.6157833"><ele>117.0</ele><time>2026-04-04T08:31:16.109Z</time></trkpt><trkpt lat="44.9699467" lon="8.61595"><ele>117.0</ele><time>2026-04-04T08:31:17.102Z</time></trkpt><trkpt lat="44.9699833" lon="8.6161267"><ele>117.0</ele><time>2026-04-04T08:31:18.11Z</time></trkpt><trkpt lat="44.9700283" lon="8.616305"><ele>117.0</ele><time>2026-04-04T08:31:19.101Z</time></trkpt><trkpt lat="44.9700767" lon="8.61649"><ele>117.75</ele><time>2026-04-04T08:31:20.103Z</time></trkpt><trkpt lat="44.970135" lon="8.6166683"><ele>118.5</ele><time>2026-04-04T08:31:21.101Z</time></trkpt><trkpt lat="44.970205" lon="8.616845"><ele>119.25</ele><time>2026-04-04T08:31:22.103Z</time></trkpt><trkpt lat="44.97028" lon="8.61702"><ele>120.0</ele><time>2026-04-04T08:31:23.103Z</time></trkpt><trkpt lat="44.9703683" lon="8.61718"><ele>120.0</ele><time>2026-04-04T08:31:24.102Z</time></trkpt><trkpt lat="44.97046" lon="8.6173367"><ele>120.0</ele><time>2026-04-04T08:31:25.108Z</time></trkpt><trkpt lat="44.9705583" lon="8.61749"><ele>120.0</ele><time>2026-04-04T08:31:26.101Z</time></trkpt><trkpt lat="44.9706633" lon="8.6176367"><ele>120.0</ele><time>2026-04-04T08:31:27.106Z</time></trkpt><trkpt lat="44.9707717" lon="8.6177817"><ele>120.33333333333334</ele><time>2026-04-04T08:31:28.111Z</time></trkpt><trkpt lat="44.97088" lon="8.6179317"><ele>120.66666666666667</ele><time>2026-04-04T08:31:29.105Z</time></trkpt><trkpt lat="44.9709867" lon="8.61809"><ele>121.0</ele><time>2026-04-04T08:31:30.101Z</time></trkpt><trkpt lat="44.9711" lon="8.6182517"><ele>121.0</ele><time>2026-04-04T08:31:31.107Z</time></trkpt><trkpt lat="44.97122" lon="8.618405"><ele>121.0</ele><time>2026-04-04T08:31:32.105Z</time></trkpt><trkpt lat="44.9713383" lon="8.618565"><ele>121.0</ele><time>2026-04-04T08:31:33.099Z</time></trkpt><trkpt lat="44.9714567" lon="8.6187283"><ele>121.0</ele><time>2026-04-04T08:31:34.1Z</time></trkpt><trkpt lat="44.9715733" lon="8.6188917"><ele>121.0</ele><time>2026-04-04T08:31:35.102Z</time></trkpt><trkpt lat="44.97169" lon="8.6190517"><ele>121.0</ele><time>2026-04-04T08:31:36.101Z</time></trkpt><trkpt lat="44.971805" lon="8.619215"><ele>122.0</ele><time>2026-04-04T08:31:37.102Z</time></trkpt><trkpt lat="44.97192" lon="8.6193717"><ele>123.0</ele><time>2026-04-04T08:31:38.102Z</time></trkpt><trkpt lat="44.972035" lon="8.6195167"><ele>124.0</ele><time>2026-04-04T08:31:39.104Z</time></trkpt><trkpt lat="44.9721533" lon="8.6196533"><ele>124.0</ele><time>2026-04-04T08:31:40.099Z</time></trkpt><trkpt lat="44.9722867" lon="8.6197733"><ele>124.0</ele><time>2026-04-04T08:31:41.106Z</time></trkpt><trkpt lat="44.9724283" lon="8.6198817"><ele>124.0</ele><time>2026-04-04T08:31:42.104Z</time></trkpt><trkpt lat="44.97257" lon="8.619985"><ele>124.25</ele><time>2026-04-04T08:31:43.101Z</time></trkpt><trkpt lat="44.9727133" lon="8.6200767"><ele>124.5</ele><time>2026-04-04T08:31:44.108Z</time></trkpt><trkpt lat="44.9728433" lon="8.62017"><ele>124.75</ele><time>2026-04-04T08:31:45.103Z</time></trkpt><trkpt lat="44.9729667" lon="8.620255"><ele>125.0</ele><time>2026-04-04T08:31:46.1Z</time></trkpt><trkpt lat="44.9730867" lon="8.6203367"><ele>125.75</ele><time>2026-04-04T08:31:47.101Z</time></trkpt><trkpt lat="44.973195" lon="8.6204117"><ele>126.5</ele><time>2026-04-04T08:31:48.102Z</time></trkpt><trkpt lat="44.9733033" lon="8.62049"><ele>127.25</ele><time>2026-04-04T08:31:49.102Z</time></trkpt><trkpt lat="44.973415" lon="8.6205767"><ele>128.0</ele><time>2026-04-04T08:31:50.105Z</time></trkpt><trkpt lat="44.9735283" lon="8.6206717"><ele>128.0</ele><time>2026-04-04T08:31:51.1Z</time></trkpt><trkpt lat="44.9736433" lon="8.620775"><ele>128.0</ele><time>2026-04-04T08:31:52.103Z</time></trkpt><trkpt lat="44.9737583" lon="8.62088"><ele>128.0</ele><time>2026-04-04T08:31:53.104Z</time></trkpt><trkpt lat="44.9738733" lon="8.6209917"><ele>128.0</ele><time>2026-04-04T08:31:54.104Z</time></trkpt><trkpt lat="44.9739867" lon="8.62111"><ele>128.75</ele><time>2026-04-04T08:31:55.106Z</time></trkpt><trkpt lat="44.9741" lon="8.6212233"><ele>129.5</ele><time>2026-04-04T08:31:56.098Z</time></trkpt><trkpt lat="44.974215" lon="8.62134"><ele>130.25</ele><time>2026-04-04T08:31:57.1Z</time></trkpt><trkpt lat="44.9743283" lon="8.6214567"><ele>131.0</ele><time>2026-04-04T08:31:58.099Z</time></trkpt><trkpt lat="44.9744433" lon="8.6215733"><ele>131.0</ele><time>2026-04-04T08:31:59.099Z</time></trkpt><trkpt lat="44.9745567" lon="8.6216883"><ele>131.0</ele><time>2026-04-04T08:32:00.1Z</time></trkpt><trkpt lat="44.97467" lon="8.6218067"><ele>131.0</ele><time>2026-04-04T08:32:01.103Z</time></trkpt><trkpt lat="44.9747833" lon="8.621925"><ele>131.0</ele><time>2026-04-04T08:32:02.101Z</time></trkpt><trkpt lat="44.9749" lon="8.62204"><ele>132.0</ele><time>2026-04-04T08:32:03.1Z</time></trkpt><trkpt lat="44.975015" lon="8.6221517"><ele>133.0</ele><time>2026-04-04T08:32:04.1Z</time></trkpt><trkpt lat="44.975135" lon="8.6222683"><ele>134.0</ele><time>2026-04-04T08:32:05.103Z</time></trkpt><trkpt lat="44.9752583" lon="8.6223867"><ele>135.0</ele><time>2026-04-04T08:32:06.101Z</time></trkpt><trkpt lat="44.97538" lon="8.6225083"><ele>135.0</ele><time>2026-04-04T08:32:07.101Z</time></trkpt><trkpt lat="44.975495" lon="8.6226333"><ele>135.0</ele><time>2026-04-04T08:32:08.105Z</time></trkpt><trkpt lat="44.975605" lon="8.62277"><ele>135.0</ele><time>2026-04-04T08:32:09.1Z</time></trkpt><trkpt lat="44.9757167" lon="8.6229217"><ele>135.0</ele><time>2026-04-04T08:32:10.101Z</time></trkpt><trkpt lat="44.975825" lon="8.6230867"><ele>136.0</ele><time>2026-04-04T08:32:11.11Z</time></trkpt><trkpt lat="44.9759367" lon="8.6232517"><ele>137.0</ele><time>2026-04-04T08:32:12.103Z</time></trkpt><trkpt lat="44.9760467" lon="8.6234233"><ele>138.0</ele><time>2026-04-04T08:32:13.109Z</time></trkpt><trkpt lat="44.976155" lon="8.6235867"><ele>140.0</ele><time>2026-04-04T08:32:14.101Z</time></trkpt><trkpt lat="44.97626" lon="8.62375"><ele>142.0</ele><time>2026-04-04T08:32:15.098Z</time></trkpt><trkpt lat="44.976365" lon="8.623895"><ele>144.0</ele><time>2026-04-04T08:32:16.102Z</time></trkpt><trkpt lat="44.97646" lon="8.6240333"><ele>146.0</ele><time>2026-04-04T08:32:17.101Z</time></trkpt><trkpt lat="44.976535" lon="8.6241933"><ele>146.0</ele><time>2026-04-04T08:32:18.105Z</time></trkpt><trkpt lat="44.9765917" lon="8.6243583"><ele>146.0</ele><time>2026-04-04T08:32:19.102Z</time></trkpt><trkpt lat="44.9766317" lon="8.62452"><ele>146.0</ele><time>2026-04-04T08:32:20.101Z</time></trkpt><trkpt lat="44.9766583" lon="8.6246883"><ele>146.0</ele><time>2026-04-04T08:32:21.106Z</time></trkpt><trkpt lat="44.9766867" lon="8.6248567"><ele>147.75</ele><time>2026-04-04T08:32:22.101Z</time></trkpt><trkpt lat="44.97673" lon="8.6250183"><ele>149.5</ele><time>2026-04-04T08:32:23.102Z</time></trkpt><trkpt lat="44.9768" lon="8.625165"><ele>151.25</ele><time>2026-04-04T08:32:24.098Z</time></trkpt><trkpt lat="44.976885" lon="8.6252833"><ele>153.0</ele><time>2026-04-04T08:32:25.105Z</time></trkpt><trkpt lat="44.97699" lon="8.62536"><ele>153.0</ele><time>2026-04-04T08:32:26.101Z</time></trkpt><trkpt lat="44.9771083" lon="8.6253717"><ele>153.0</ele><time>2026-04-04T08:32:27.101Z</time></trkpt><trkpt lat="44.9772333" lon="8.6253467"><ele>153.0</ele><time>2026-04-04T08:32:28.105Z</time></trkpt><trkpt lat="44.977355" lon="8.62528"><ele>153.0</ele><time>2026-04-04T08:32:29.099Z</time></trkpt><trkpt lat="44.97747" lon="8.6251883"><ele>152.8</ele><time>2026-04-04T08:32:30.1Z</time></trkpt><trkpt lat="44.9775817" lon="8.6251067"><ele>152.60000000000002</ele><time>2026-04-04T08:32:31.1Z</time></trkpt><trkpt lat="44.9776817" lon="8.6250633"><ele>152.39999999999998</ele><time>2026-04-04T08:32:32.103Z</time></trkpt><trkpt lat="44.9777817" lon="8.62507"><ele>152.2</ele><time>2026-04-04T08:32:33.099Z</time></trkpt><trkpt lat="44.977875" lon="8.62513"><ele>152.0</ele><time>2026-04-04T08:32:34.105Z</time></trkpt><trkpt lat="44.9779533" lon="8.6252233"><ele>152.0</ele><time>2026-04-04T08:32:35.101Z</time></trkpt><trkpt lat="44.9780533" lon="8.6253117"><ele>152.0</ele><time>2026-04-04T08:32:36.107Z</time></trkpt><trkpt lat="44.9781517" lon="8.6254267"><ele>152.0</ele><time>2026-04-04T08:32:37.108Z</time></trkpt><trkpt lat="44.9782433" lon="8.6255567"><ele>152.0</ele><time>2026-04-04T08:32:38.102Z</time></trkpt><trkpt lat="44.9783233" lon="8.6256983"><ele>153.0</ele><time>2026-04-04T08:32:39.104Z</time></trkpt><trkpt lat="44.9784017" lon="8.6258367"><ele>154.0</ele><time>2026-04-04T08:32:40.107Z</time></trkpt><trkpt lat="44.9784817" lon="8.625965"><ele>155.0</ele><time>2026-04-04T08:32:41.1Z</time></trkpt><trkpt lat="44.9785517" lon="8.6261017"><ele>156.0</ele><time>2026-04-04T08:32:42.1Z</time></trkpt><trkpt lat="44.97862" lon="8.626245"><ele>158.75</ele><time>2026-04-04T08:32:43.102Z</time></trkpt><trkpt lat="44.9786917" lon="8.6263817"><ele>161.5</ele><time>2026-04-04T08:32:44.103Z</time></trkpt><trkpt lat="44.9787617" lon="8.6265217"><ele>164.25</ele><time>2026-04-04T08:32:45.101Z</time></trkpt><trkpt lat="44.97883" lon="8.6266583"><ele>167.0</ele><time>2026-04-04T08:32:46.102Z</time></trkpt><trkpt lat="44.9788933" lon="8.6267917"><ele>167.0</ele><time>2026-04-04T08:32:47.102Z</time></trkpt><trkpt lat="44.9789533" lon="8.6269083"><ele>167.0</ele><time>2026-04-04T08:32:48.101Z</time></trkpt><trkpt lat="44.9790217" lon="8.62701"><ele>167.0</ele><time>2026-04-04T08:32:49.104Z</time></trkpt><trkpt lat="44.9791017" lon="8.62708"><ele>167.0</ele><time>2026-04-04T08:32:50.102Z</time></trkpt><trkpt lat="44.979185" lon="8.6271217"><ele>167.0</ele><time>2026-04-04T08:32:51.102Z</time></trkpt><trkpt lat="44.9792733" lon="8.627135"><ele>167.8</ele><time>2026-04-04T08:32:52.103Z</time></trkpt><trkpt lat="44.9793667" lon="8.62712"><ele>168.6</ele><time>2026-04-04T08:32:53.105Z</time></trkpt><trkpt lat="44.97947" lon="8.6270683"><ele>169.4</ele><time>2026-04-04T08:32:54.102Z</time></trkpt><trkpt lat="44.9795733" lon="8.6270067"><ele>170.20000000000002</ele><time>2026-04-04T08:32:55.107Z</time></trkpt><trkpt lat="44.97967" lon="8.62696"><ele>171.0</ele><time>2026-04-04T08:32:56.103Z</time></trkpt><trkpt lat="44.9797617" lon="8.6269233"><ele>171.0</ele><time>2026-04-04T08:32:57.104Z</time></trkpt><trkpt lat="44.97985" lon="8.6269083"><ele>171.0</ele><time>2026-04-04T08:32:58.103Z</time></trkpt><trkpt lat="44.979935" lon="8.626925"><ele>171.0</ele><time>2026-04-04T08:32:59.103Z</time></trkpt><trkpt lat="44.979995" lon="8.6269983"><ele>171.0</ele><time>2026-04-04T08:33:00.105Z</time></trkpt><trkpt lat="44.9800533" lon="8.62707"><ele>171.0</ele><time>2026-04-04T08:33:01.102Z</time></trkpt><trkpt lat="44.9800617" lon="8.6271917"><ele>171.0</ele><time>2026-04-04T08:33:02.102Z</time></trkpt><trkpt lat="44.9800567" lon="8.6273133"><ele>173.25</ele><time>2026-04-04T08:33:03.105Z</time></trkpt><trkpt lat="44.979985" lon="8.627435"><ele>175.5</ele><time>2026-04-04T08:33:04.102Z</time></trkpt><trkpt lat="44.979905" lon="8.6275517"><ele>177.75</ele><time>2026-04-04T08:33:05.108Z</time></trkpt><trkpt lat="44.97982" lon="8.6276717"><ele>180.0</ele><time>2026-04-04T08:33:06.1Z</time></trkpt><trkpt lat="44.9797233" lon="8.6277917"><ele>183.0</ele><time>2026-04-04T08:33:07.108Z</time></trkpt><trkpt lat="44.979635" lon="8.627925"><ele>186.0</ele><time>2026-04-04T08:33:08.102Z</time></trkpt><trkpt lat="44.9795433" lon="8.6280367"><ele>189.0</ele><time>2026-04-04T08:33:09.105Z</time></trkpt><trkpt lat="44.9794583" lon="8.6281567"><ele>192.0</ele><time>2026-04-04T08:33:10.103Z</time></trkpt><trkpt lat="44.97938" lon="8.6282767"><ele>192.0</ele><time>2026-04-04T08:33:11.1Z</time></trkpt><trkpt lat="44.9793017" lon="8.628395"><ele>192.0</ele><time>2026-04-04T08:33:12.105Z</time></trkpt><trkpt lat="44.9792217" lon="8.6285"><ele>192.0</ele><time>2026-04-04T08:33:13.103Z</time></trkpt><trkpt lat="44.979145" lon="8.6285967"><ele>192.0</ele><time>2026-04-04T08:33:14.103Z</time></trkpt><trkpt lat="44.9790833" lon="8.6287083"><ele>192.0</ele><time>2026-04-04T08:33:15.099Z</time></trkpt><trkpt lat="44.9790417" lon="8.628835"><ele>192.2</ele><time>2026-04-04T08:33:16.101Z</time></trkpt><trkpt lat="44.9790333" lon="8.6289867"><ele>192.39999999999998</ele><time>2026-04-04T08:33:17.102Z</time></trkpt><trkpt lat="44.9790633" lon="8.62914"><ele>192.60000000000002</ele><time>2026-04-04T08:33:18.1Z</time></trkpt><trkpt lat="44.979105" lon="8.62929"><ele>192.8</ele><time>2026-04-04T08:33:19.105Z</time></trkpt><trkpt lat="44.9791617" lon="8.6294267"><ele>193.0</ele><time>2026-04-04T08:33:20.102Z</time></trkpt><trkpt lat="44.9792283" lon="8.6295467"><ele>190.75</ele><time>2026-04-04T08:33:21.097Z</time></trkpt><trkpt lat="44.9793167" lon="8.629635"><ele>188.5</ele><time>2026-04-04T08:33:22.101Z</time></trkpt><trkpt lat="44.9794233" lon="8.6297"><ele>186.25</ele><time>2026-04-04T08:33:23.105Z</time></trkpt><trkpt lat="44.9795483" lon="8.6297333"><ele>184.0</ele><time>2026-04-04T08:33:24.104Z</time></trkpt><trkpt lat="44.9796717" lon="8.6297517"><ele>184.0</ele><time>2026-04-04T08:33:25.098Z</time></trkpt><trkpt lat="44.9798" lon="8.62977"><ele>184.0</ele><time>2026-04-04T08:33:26.105Z</time></trkpt><trkpt lat="44.9799217" lon="8.62979"><ele>184.0</ele><time>2026-04-04T08:33:27.098Z</time></trkpt><trkpt lat="44.9800417" lon="8.629815"><ele>184.0</ele><time>2026-04-04T08:33:28.101Z</time></trkpt><trkpt lat="44.9801617" lon="8.6298533"><ele>183.0</ele><time>2026-04-04T08:33:29.101Z</time></trkpt><trkpt lat="44.98029" lon="8.6298783"><ele>182.0</ele><time>2026-04-04T08:33:30.099Z</time></trkpt><trkpt lat="44.9804283" lon="8.629895"><ele>181.0</ele><time>2026-04-04T08:33:31.103Z</time></trkpt><trkpt lat="44.9805617" lon="8.6298983"><ele>180.0</ele><time>2026-04-04T08:33:32.1Z</time></trkpt><trkpt lat="44.9806933" lon="8.6298933"><ele>180.0</ele><time>2026-04-04T08:33:33.104Z</time></trkpt><trkpt lat="44.980825" lon="8.62989"><ele>180.0</ele><time>2026-04-04T08:33:34.105Z</time></trkpt><trkpt lat="44.98096" lon="8.6298817"><ele>180.0</ele><time>2026-04-04T08:33:35.102Z</time></trkpt><trkpt lat="44.9810917" lon="8.6298783"><ele>180.0</ele><time>2026-04-04T08:33:36.103Z</time></trkpt><trkpt lat="44.98122" lon="8.6298767"><ele>180.0</ele><time>2026-04-04T08:33:37.104Z</time></trkpt><trkpt lat="44.9813517" lon="8.6298783"><ele>180.0</ele><time>2026-04-04T08:33:38.104Z</time></trkpt><trkpt lat="44.9814883" lon="8.6298783"><ele>180.0</ele><time>2026-04-04T08:33:39.103Z</time></trkpt><trkpt lat="44.9816283" lon="8.629875"><ele>180.0</ele><time>2026-04-04T08:33:40.102Z</time></trkpt><trkpt lat="44.98177" lon="8.6298883"><ele>180.0</ele><time>2026-04-04T08:33:41.102Z</time></trkpt><trkpt lat="44.9819133" lon="8.629915"><ele>180.0</ele><time>2026-04-04T08:33:42.11Z</time></trkpt><trkpt lat="44.98205" lon="8.62997"><ele>180.0</ele><time>2026-04-04T08:33:43.102Z</time></trkpt><trkpt lat="44.9821867" lon="8.63003"><ele>180.0</ele><time>2026-04-04T08:33:44.109Z</time></trkpt><trkpt lat="44.9823117" lon="8.6301383"><ele>180.0</ele><time>2026-04-04T08:33:45.106Z</time></trkpt><trkpt lat="44.9824233" lon="8.630265"><ele>180.0</ele><time>2026-04-04T08:33:46.105Z</time></trkpt><trkpt lat="44.9825167" lon="8.6304117"><ele>180.0</ele><time>2026-04-04T08:33:47.104Z</time></trkpt><trkpt lat="44.9825983" lon="8.630575"><ele>180.0</ele><time>2026-04-04T08:33:48.098Z</time></trkpt><trkpt lat="44.9826617" lon="8.6307483"><ele>180.25</ele><time>2026-04-04T08:33:49.106Z</time></trkpt><trkpt lat="44.9827133" lon="8.6309233"><ele>180.5</ele><time>2026-04-04T08:33:50.102Z</time></trkpt><trkpt lat="44.9827467" lon="8.6311083"><ele>180.75</ele><time>2026-04-04T08:33:51.101Z</time></trkpt><trkpt lat="44.9827667" lon="8.6313"><ele>181.0</ele><time>2026-04-04T08:33:52.105Z</time></trkpt><trkpt lat="44.9827783" lon="8.6314967"><ele>181.0</ele><time>2026-04-04T08:33:53.102Z</time></trkpt><trkpt lat="44.9827833" lon="8.6317083"><ele>181.0</ele><time>2026-04-04T08:33:54.104Z</time></trkpt><trkpt lat="44.9827883" lon="8.63193"><ele>181.0</ele><time>2026-04-04T08:33:55.104Z</time></trkpt><trkpt lat="44.9827967" lon="8.632155"><ele>179.33333333333334</ele><time>2026-04-04T08:33:56.105Z</time></trkpt><trkpt lat="44.9828033" lon="8.632375"><ele>177.66666666666666</ele><time>2026-04-04T08:33:57.106Z</time></trkpt><trkpt lat="44.98281" lon="8.6325933"><ele>176.0</ele><time>2026-04-04T08:33:58.102Z</time></trkpt><trkpt lat="44.9828133" lon="8.632805"><ele>176.0</ele><time>2026-04-04T08:33:59.103Z</time></trkpt><trkpt lat="44.982815" lon="8.63302"><ele>176.0</ele><time>2026-04-04T08:34:00.103Z</time></trkpt><trkpt lat="44.9828233" lon="8.63324"><ele>176.0</ele><time>2026-04-04T08:34:01.103Z</time></trkpt><trkpt lat="44.9828417" lon="8.6334633"><ele>175.0</ele><time>2026-04-04T08:34:02.103Z</time></trkpt><trkpt lat="44.9828667" lon="8.6336883"><ele>174.0</ele><time>2026-04-04T08:34:03.1Z</time></trkpt><trkpt lat="44.9829017" lon="8.6339167"><ele>173.0</ele><time>2026-04-04T08:34:04.101Z</time></trkpt><trkpt lat="44.9829483" lon="8.6341367"><ele>173.0</ele><time>2026-04-04T08:34:05.109Z</time></trkpt><trkpt lat="44.983" lon="8.6343533"><ele>173.0</ele><time>2026-04-04T08:34:06.104Z</time></trkpt><trkpt lat="44.9830533" lon="8.6345683"><ele>173.0</ele><time>2026-04-04T08:34:07.098Z</time></trkpt><trkpt lat="44.9831033" lon="8.6347833"><ele>171.0</ele><time>2026-04-04T08:34:08.101Z</time></trkpt><trkpt lat="44.98315" lon="8.6349967"><ele>169.0</ele><time>2026-04-04T08:34:09.104Z</time></trkpt><trkpt lat="44.9832017" lon="8.6352083"><ele>167.0</ele><time>2026-04-04T08:34:10.101Z</time></trkpt><trkpt lat="44.9832483" lon="8.6354267"><ele>166.0</ele><time>2026-04-04T08:34:11.1Z</time></trkpt><trkpt lat="44.9832983" lon="8.635645"><ele>165.0</ele><time>2026-04-04T08:34:12.106Z</time></trkpt><trkpt lat="44.9833483" lon="8.6358633"><ele>164.0</ele><time>2026-04-04T08:34:13.101Z</time></trkpt><trkpt lat="44.9833983" lon="8.63608"><ele>166.66666666666666</ele><time>2026-04-04T08:34:14.102Z</time></trkpt><trkpt lat="44.98345" lon="8.6362967"><ele>169.33333333333334</ele><time>2026-04-04T08:34:15.099Z</time></trkpt><trkpt lat="44.9835" lon="8.636515"><ele>172.0</ele><time>2026-04-04T08:34:16.101Z</time></trkpt><trkpt lat="44.9835517" lon="8.6367317"><ele>172.0</ele><time>2026-04-04T08:34:17.102Z</time></trkpt><trkpt lat="44.9836017" lon="8.63695"><ele>172.0</ele><time>2026-04-04T08:34:18.099Z</time></trkpt><trkpt lat="44.9836517" lon="8.6371667"><ele>172.0</ele><time>2026-04-04T08:34:19.106Z</time></trkpt><trkpt lat="44.9837017" lon="8.63738"><ele>169.66666666666669</ele><time>2026-04-04T08:34:20.106Z</time></trkpt><trkpt lat="44.9837567" lon="8.6375817"><ele>167.33333333333334</ele><time>2026-04-04T08:34:21.103Z</time></trkpt><trkpt lat="44.9838167" lon="8.63778"><ele>165.0</ele><time>2026-04-04T08:34:22.104Z</time></trkpt><trkpt lat="44.98389" lon="8.6379633"><ele>164.5</ele><time>2026-04-04T08:34:23.105Z</time></trkpt><trkpt lat="44.9839783" lon="8.63813"><ele>164.0</ele><time>2026-04-04T08:34:24.106Z</time></trkpt><trkpt lat="44.984085" lon="8.6382767"><ele>163.5</ele><time>2026-04-04T08:34:25.1Z</time></trkpt><trkpt lat="44.9842067" lon="8.6384067"><ele>163.0</ele><time>2026-04-04T08:34:26.105Z</time></trkpt><trkpt lat="44.9843467" lon="8.6385167"><ele>163.0</ele><time>2026-04-04T08:34:27.104Z</time></trkpt><trkpt lat="44.9844917" lon="8.63862"><ele>163.0</ele><time>2026-04-04T08:34:28.104Z</time></trkpt><trkpt lat="44.984645" lon="8.6387133"><ele>163.0</ele><time>2026-04-04T08:34:29.108Z</time></trkpt><trkpt lat="44.9848" lon="8.638805"><ele>160.33333333333334</ele><time>2026-04-04T08:34:30.102Z</time></trkpt><trkpt lat="44.9849567" lon="8.6388983"><ele>157.66666666666666</ele><time>2026-04-04T08:34:31.103Z</time></trkpt><trkpt lat="44.985115" lon="8.6389933"><ele>155.0</ele><time>2026-04-04T08:34:32.1Z</time></trkpt><trkpt lat="44.9852717" lon="8.6390867"><ele>154.66666666666666</ele><time>2026-04-04T08:34:33.105Z</time></trkpt><trkpt lat="44.9854267" lon="8.6391817"><ele>154.33333333333334</ele><time>2026-04-04T08:34:34.101Z</time></trkpt><trkpt lat="44.9855833" lon="8.6392717"><ele>154.0</ele><time>2026-04-04T08:34:35.105Z</time></trkpt><trkpt lat="44.9857367" lon="8.6393667"><ele>154.0</ele><time>2026-04-04T08:34:36.101Z</time></trkpt><trkpt lat="44.9858883" lon="8.639455"><ele>154.0</ele><time>2026-04-04T08:34:37.105Z</time></trkpt><trkpt lat="44.9860417" lon="8.6395433"><ele>154.0</ele><time>2026-04-04T08:34:38.103Z</time></trkpt><trkpt lat="44.9861933" lon="8.6396283"><ele>152.0</ele><time>2026-04-04T08:34:39.103Z</time></trkpt><trkpt lat="44.9863483" lon="8.6397133"><ele>150.0</ele><time>2026-04-04T08:34:40.104Z</time></trkpt><trkpt lat="44.9865017" lon="8.6398017"><ele>148.0</ele><time>2026-04-04T08:34:41.101Z</time></trkpt><trkpt lat="44.98665" lon="8.6398983"><ele>147.33333333333334</ele><time>2026-04-04T08:34:42.106Z</time></trkpt><trkpt lat="44.9867967" lon="8.639995"><ele>146.66666666666666</ele><time>2026-04-04T08:34:43.104Z</time></trkpt><trkpt lat="44.98694" lon="8.6400933"><ele>146.0</ele><time>2026-04-04T08:34:44.1Z</time></trkpt><trkpt lat="44.987085" lon="8.6401783"><ele>146.0</ele><time>2026-04-04T08:34:45.102Z</time></trkpt><trkpt lat="44.9872267" lon="8.6402683"><ele>146.0</ele><time>2026-04-04T08:34:46.103Z</time></trkpt><trkpt lat="44.9873733" lon="8.6403467"><ele>146.0</ele><time>2026-04-04T08:34:47.102Z</time></trkpt><trkpt lat="44.98752" lon="8.6404233"><ele>144.33333333333331</ele><time>2026-04-04T08:34:48.102Z</time></trkpt><trkpt lat="44.987675" lon="8.640495"><ele>142.66666666666666</ele><time>2026-04-04T08:34:49.104Z</time></trkpt><trkpt lat="44.98783" lon="8.6405683"><ele>141.0</ele><time>2026-04-04T08:34:50.1Z</time></trkpt><trkpt lat="44.987985" lon="8.64063"><ele>141.0</ele><time>2026-04-04T08:34:51.103Z</time></trkpt><trkpt lat="44.9881367" lon="8.6406817"><ele>141.0</ele><time>2026-04-04T08:34:52.105Z</time></trkpt><trkpt lat="44.9882817" lon="8.6407267"><ele>141.0</ele><time>2026-04-04T08:34:53.104Z</time></trkpt><trkpt lat="44.98841" lon="8.6407717"><ele>141.0</ele><time>2026-04-04T08:34:54.103Z</time></trkpt><trkpt lat="44.9885367" lon="8.6408033"><ele>141.0</ele><time>2026-04-04T08:34:55.103Z</time></trkpt><trkpt lat="44.9886683" lon="8.6408267"><ele>141.0</ele><time>2026-04-04T08:34:56.102Z</time></trkpt><trkpt lat="44.9888017" lon="8.64084"><ele>141.0</ele><time>2026-04-04T08:34:57.109Z</time></trkpt><trkpt lat="44.9889417" lon="8.6408467"><ele>141.0</ele><time>2026-04-04T08:34:58.1Z</time></trkpt><trkpt lat="44.9890867" lon="8.640845"><ele>140.75</ele><time>2026-04-04T08:34:59.102Z</time></trkpt><trkpt lat="44.989235" lon="8.6408367"><ele>140.5</ele><time>2026-04-04T08:35:00.103Z</time></trkpt><trkpt lat="44.9893817" lon="8.6408267"><ele>140.25</ele><time>2026-04-04T08:35:01.101Z</time></trkpt><trkpt lat="44.9895317" lon="8.6408133"><ele>140.0</ele><time>2026-04-04T08:35:02.108Z</time></trkpt><trkpt lat="44.98968" lon="8.6408017"><ele>140.0</ele><time>2026-04-04T08:35:03.101Z</time></trkpt><trkpt lat="44.9898367" lon="8.6407817"><ele>140.0</ele><time>2026-04-04T08:35:04.102Z</time></trkpt><trkpt lat="44.9899867" lon="8.6407633"><ele>140.0</ele><time>2026-04-04T08:35:05.102Z</time></trkpt><trkpt lat="44.9901367" lon="8.640745"><ele>139.0</ele><time>2026-04-04T08:35:06.102Z</time></trkpt><trkpt lat="44.9902883" lon="8.6407233"><ele>138.0</ele><time>2026-04-04T08:35:07.103Z</time></trkpt><trkpt lat="44.99044" lon="8.6407067"><ele>137.0</ele><time>2026-04-04T08:35:08.101Z</time></trkpt><trkpt lat="44.99059" lon="8.64069"><ele>137.0</ele><time>2026-04-04T08:35:09.099Z</time></trkpt><trkpt lat="44.9907383" lon="8.6406717"><ele>137.0</ele><time>2026-04-04T08:35:10.101Z</time></trkpt><trkpt lat="44.9908883" lon="8.640655"><ele>137.0</ele><time>2026-04-04T08:35:11.103Z</time></trkpt><trkpt lat="44.9910383" lon="8.6406333"><ele>136.5</ele><time>2026-04-04T08:35:12.109Z</time></trkpt><trkpt lat="44.99118" lon="8.64062"><ele>136.0</ele><time>2026-04-04T08:35:13.102Z</time></trkpt><trkpt lat="44.991315" lon="8.640605"><ele>135.5</ele><time>2026-04-04T08:35:14.103Z</time></trkpt><trkpt lat="44.991445" lon="8.6405917"><ele>135.0</ele><time>2026-04-04T08:35:15.103Z</time></trkpt><trkpt lat="44.99157" lon="8.640575"><ele>135.25</ele><time>2026-04-04T08:35:16.105Z</time></trkpt><trkpt lat="44.9917" lon="8.6405617"><ele>135.5</ele><time>2026-04-04T08:35:17.106Z</time></trkpt><trkpt lat="44.9918367" lon="8.640535"><ele>135.75</ele><time>2026-04-04T08:35:18.1Z</time></trkpt><trkpt lat="44.9919833" lon="8.64051"><ele>136.0</ele><time>2026-04-04T08:35:19.102Z</time></trkpt><trkpt lat="44.992135" lon="8.64049"><ele>136.0</ele><time>2026-04-04T08:35:20.102Z</time></trkpt><trkpt lat="44.99229" lon="8.6404717"><ele>136.0</ele><time>2026-04-04T08:35:21.1Z</time></trkpt><trkpt lat="44.9924467" lon="8.6404467"><ele>136.0</ele><time>2026-04-04T08:35:22.1Z</time></trkpt><trkpt lat="44.9926067" lon="8.640425"><ele>136.66666666666669</ele><time>2026-04-04T08:35:23.099Z</time></trkpt><trkpt lat="44.99277" lon="8.6404017"><ele>137.33333333333334</ele><time>2026-04-04T08:35:24.102Z</time></trkpt><trkpt lat="44.9929283" lon="8.6403717"><ele>138.0</ele><time>2026-04-04T08:35:25.106Z</time></trkpt><trkpt lat="44.9930883" lon="8.64036"><ele>138.0</ele><time>2026-04-04T08:35:26.103Z</time></trkpt><trkpt lat="44.99325" lon="8.640355"><ele>138.0</ele><time>2026-04-04T08:35:27.101Z</time></trkpt><trkpt lat="44.9934117" lon="8.640345"><ele>138.0</ele><time>2026-04-04T08:35:28.1Z</time></trkpt><trkpt lat="44.9935717" lon="8.6403283"><ele>137.33333333333334</ele><time>2026-04-04T08:35:29.105Z</time></trkpt><trkpt lat="44.9937317" lon="8.6403067"><ele>136.66666666666669</ele><time>2026-04-04T08:35:30.107Z</time></trkpt><trkpt lat="44.9938917" lon="8.6402783"><ele>136.0</ele><time>2026-04-04T08:35:31.102Z</time></trkpt><trkpt lat="44.994055" lon="8.6402617"><ele>135.33333333333334</ele><time>2026-04-04T08:35:32.106Z</time></trkpt><trkpt lat="44.9942167" lon="8.6402283"><ele>134.66666666666666</ele><time>2026-04-04T08:35:33.099Z</time></trkpt><trkpt lat="44.9943833" lon="8.64019"><ele>134.0</ele><time>2026-04-04T08:35:34.109Z</time></trkpt><trkpt lat="44.99455" lon="8.6401467"><ele>134.0</ele><time>2026-04-04T08:35:35.101Z</time></trkpt><trkpt lat="44.994715" lon="8.6400983"><ele>134.0</ele><time>2026-04-04T08:35:36.1Z</time></trkpt><trkpt lat="44.9948783" lon="8.6400517"><ele>134.0</ele><time>2026-04-04T08:35:37.1Z</time></trkpt><trkpt lat="44.99504" lon="8.6400067"><ele>133.66666666666666</ele><time>2026-04-04T08:35:38.103Z</time></trkpt><trkpt lat="44.9952" lon="8.6399617"><ele>133.33333333333334</ele><time>2026-04-04T08:35:39.104Z</time></trkpt><trkpt lat="44.9953567" lon="8.6399133"><ele>133.0</ele><time>2026-04-04T08:35:40.109Z</time></trkpt><trkpt lat="44.9955117" lon="8.6398667"><ele>133.0</ele><time>2026-04-04T08:35:41.102Z</time></trkpt><trkpt lat="44.9956633" lon="8.6398183"><ele>133.0</ele><time>2026-04-04T08:35:42.1Z</time></trkpt><trkpt lat="44.9958167" lon="8.639775"><ele>133.0</ele><time>2026-04-04T08:35:43.106Z</time></trkpt><trkpt lat="44.99597" lon="8.6397283"><ele>133.33333333333334</ele><time>2026-04-04T08:35:44.104Z</time></trkpt><trkpt lat="44.99612" lon="8.6396867"><ele>133.66666666666666</ele><time>2026-04-04T08:35:45.101Z</time></trkpt><trkpt lat="44.9962683" lon="8.639645"><ele>134.0</ele><time>2026-04-04T08:35:46.102Z</time></trkpt><trkpt lat="44.9964133" lon="8.6395983"><ele>134.0</ele><time>2026-04-04T08:35:47.109Z</time></trkpt><trkpt lat="44.9965583" lon="8.6395517"><ele>134.0</ele><time>2026-04-04T08:35:48.1Z</time></trkpt><trkpt lat="44.996705" lon="8.6395067"><ele>134.0</ele><time>2026-04-04T08:35:49.1Z</time></trkpt><trkpt lat="44.9968467" lon="8.639465"><ele>134.0</ele><time>2026-04-04T08:35:50.113Z</time></trkpt><trkpt lat="44.9969783" lon="8.639425"><ele>133.75</ele><time>2026-04-04T08:35:51.105Z</time></trkpt><trkpt lat="44.9971133" lon="8.639385"><ele>133.5</ele><time>2026-04-04T08:35:52.101Z</time></trkpt><trkpt lat="44.9972483" lon="8.6393417"><ele>133.25</ele><time>2026-04-04T08:35:53.106Z</time></trkpt><trkpt lat="44.997395" lon="8.6392933"><ele>133.0</ele><time>2026-04-04T08:35:54.101Z</time></trkpt><trkpt lat="44.9975467" lon="8.6392533"><ele>133.0</ele><time>2026-04-04T08:35:55.102Z</time></trkpt><trkpt lat="44.9976967" lon="8.6392117"><ele>133.0</ele><time>2026-04-04T08:35:56.106Z</time></trkpt><trkpt lat="44.9978433" lon="8.6391783"><ele>133.0</ele><time>2026-04-04T08:35:57.101Z</time></trkpt><trkpt lat="44.9979933" lon="8.6391433"><ele>133.0</ele><time>2026-04-04T08:35:58.101Z</time></trkpt><trkpt lat="44.9981417" lon="8.639105"><ele>133.0</ele><time>2026-04-04T08:35:59.102Z</time></trkpt><trkpt lat="44.9982933" lon="8.6390617"><ele>133.0</ele><time>2026-04-04T08:36:00.1Z</time></trkpt><trkpt lat="44.9984383" lon="8.639025"><ele>134.33333333333334</ele><time>2026-04-04T08:36:01.105Z</time></trkpt><trkpt lat="44.99859" lon="8.63898"><ele>135.66666666666666</ele><time>2026-04-04T08:36:02.107Z</time></trkpt><trkpt lat="44.9987367" lon="8.6389367"><ele>137.0</ele><time>2026-04-04T08:36:03.1Z</time></trkpt><trkpt lat="44.99888" lon="8.6388933"><ele>137.0</ele><time>2026-04-04T08:36:04.103Z</time></trkpt><trkpt lat="44.99902" lon="8.6388533"><ele>137.0</ele><time>2026-04-04T08:36:05.105Z</time></trkpt><trkpt lat="44.99915" lon="8.6388183"><ele>137.0</ele><time>2026-04-04T08:36:06.105Z</time></trkpt><trkpt lat="44.9992767" lon="8.638785"><ele>137.0</ele><time>2026-04-04T08:36:07.106Z</time></trkpt><trkpt lat="44.999405" lon="8.6387383"><ele>136.5</ele><time>2026-04-04T08:36:08.101Z</time></trkpt><trkpt lat="44.9995317" lon="8.6386983"><ele>136.0</ele><time>2026-04-04T08:36:09.1Z</time></trkpt><trkpt lat="44.999665" lon="8.6386517"><ele>135.5</ele><time>2026-04-04T08:36:10.102Z</time></trkpt><trkpt lat="44.9998017" lon="8.6386067"><ele>135.0</ele><time>2026-04-04T08:36:11.104Z</time></trkpt><trkpt lat="44.9999367" lon="8.6385733"><ele>135.0</ele><time>2026-04-04T08:36:12.107Z</time></trkpt><trkpt lat="45.0000717" lon="8.6385383"><ele>135.0</ele><time>2026-04-04T08:36:13.106Z</time></trkpt><trkpt lat="45.0002083" lon="8.6385"><ele>135.0</ele><time>2026-04-04T08:36:14.103Z</time></trkpt><trkpt lat="45.000345" lon="8.63846"><ele>135.0</ele><time>2026-04-04T08:36:15.102Z</time></trkpt><trkpt lat="45.0004783" lon="8.6384217"><ele>135.0</ele><time>2026-04-04T08:36:16.102Z</time></trkpt><trkpt lat="45.00061" lon="8.63839"><ele>135.0</ele><time>2026-04-04T08:36:17.103Z</time></trkpt><trkpt lat="45.0007433" lon="8.638355"><ele>135.0</ele><time>2026-04-04T08:36:18.108Z</time></trkpt><trkpt lat="45.000875" lon="8.6383183"><ele>135.0</ele><time>2026-04-04T08:36:19.112Z</time></trkpt><trkpt lat="45.0010133" lon="8.638295"><ele>135.75</ele><time>2026-04-04T08:36:20.103Z</time></trkpt><trkpt lat="45.0011533" lon="8.63828"><ele>136.5</ele><time>2026-04-04T08:36:21.101Z</time></trkpt><trkpt lat="45.0012867" lon="8.638285"><ele>137.25</ele><time>2026-04-04T08:36:22.104Z</time></trkpt><trkpt lat="45.001425" lon="8.638295"><ele>138.0</ele><time>2026-04-04T08:36:23.103Z</time></trkpt><trkpt lat="45.0015533" lon="8.638325"><ele>138.4</ele><time>2026-04-04T08:36:24.099Z</time></trkpt><trkpt lat="45.00167" lon="8.6383683"><ele>138.8</ele><time>2026-04-04T08:36:25.103Z</time></trkpt><trkpt lat="45.001775" lon="8.6384133"><ele>139.2</ele><time>2026-04-04T08:36:26.102Z</time></trkpt><trkpt lat="45.0018767" lon="8.63846"><ele>139.6</ele><time>2026-04-04T08:36:27.097Z</time></trkpt><trkpt lat="45.0019717" lon="8.638505"><ele>140.0</ele><time>2026-04-04T08:36:28.099Z</time></trkpt><trkpt lat="45.0020533" lon="8.6385467"><ele>140.0</ele><time>2026-04-04T08:36:29.099Z</time></trkpt><trkpt lat="45.00212" lon="8.6385883"><ele>140.0</ele><time>2026-04-04T08:36:30.1Z</time></trkpt><trkpt lat="45.00218" lon="8.6386267"><ele>140.0</ele><time>2026-04-04T08:36:31.102Z</time></trkpt><trkpt lat="45.0022883" lon="8.638725"><ele>140.0</ele><time>2026-04-04T08:36:33.101Z</time></trkpt><trkpt lat="45.0023333" lon="8.6388083"><ele>140.0</ele><time>2026-04-04T08:36:34.105Z</time></trkpt><trkpt lat="45.0023733" lon="8.6389067"><ele>140.0</ele><time>2026-04-04T08:36:35.103Z</time></trkpt><trkpt lat="45.002405" lon="8.639025"><ele>140.2</ele><time>2026-04-04T08:36:36.104Z</time></trkpt><trkpt lat="45.002435" lon="8.6391367"><ele>140.4</ele><time>2026-04-04T08:36:37.105Z</time></trkpt><trkpt lat="45.0024583" lon="8.6392567"><ele>140.6</ele><time>2026-04-04T08:36:38.108Z</time></trkpt><trkpt lat="45.002465" lon="8.6393967"><ele>140.8</ele><time>2026-04-04T08:36:39.108Z</time></trkpt><trkpt lat="45.002455" lon="8.6395483"><ele>141.0</ele><time>2026-04-04T08:36:40.104Z</time></trkpt><trkpt lat="45.0024317" lon="8.6397083"><ele>141.75</ele><time>2026-04-04T08:36:41.104Z</time></trkpt><trkpt lat="45.0024033" lon="8.63988"><ele>142.5</ele><time>2026-04-04T08:36:42.103Z</time></trkpt><trkpt lat="45.0023883" lon="8.6400667"><ele>143.25</ele><time>2026-04-04T08:36:43.104Z</time></trkpt><trkpt lat="45.0023867" lon="8.64027"><ele>144.0</ele><time>2026-04-04T08:36:44.109Z</time></trkpt><trkpt lat="45.0024033" lon="8.6404883"><ele>144.0</ele><time>2026-04-04T08:36:45.104Z</time></trkpt><trkpt lat="45.002435" lon="8.6407167"><ele>144.0</ele><time>2026-04-04T08:36:46.102Z</time></trkpt><trkpt lat="45.0024783" lon="8.64094"><ele>144.0</ele><time>2026-04-04T08:36:47.103Z</time></trkpt><trkpt lat="45.0025267" lon="8.6411633"><ele>144.0</ele><time>2026-04-04T08:36:48.106Z</time></trkpt><trkpt lat="45.00257" lon="8.6413883"><ele>144.0</ele><time>2026-04-04T08:36:49.101Z</time></trkpt><trkpt lat="45.00262" lon="8.641605"><ele>144.0</ele><time>2026-04-04T08:36:50.101Z</time></trkpt><trkpt lat="45.0026767" lon="8.6418183"><ele>144.66666666666666</ele><time>2026-04-04T08:36:51.101Z</time></trkpt><trkpt lat="45.00273" lon="8.642045"><ele>145.33333333333331</ele><time>2026-04-04T08:36:52.099Z</time></trkpt><trkpt lat="45.0027817" lon="8.6422767"><ele>146.0</ele><time>2026-04-04T08:36:53.106Z</time></trkpt><trkpt lat="45.00283" lon="8.64249"><ele>146.0</ele><time>2026-04-04T08:36:54.104Z</time></trkpt><trkpt lat="45.0028783" lon="8.6427033"><ele>146.0</ele><time>2026-04-04T08:36:55.101Z</time></trkpt><trkpt lat="45.0029233" lon="8.642915"><ele>146.0</ele><time>2026-04-04T08:36:56.098Z</time></trkpt><trkpt lat="45.0029617" lon="8.643125"><ele>146.0</ele><time>2026-04-04T08:36:57.106Z</time></trkpt><trkpt lat="45.00299" lon="8.64334"><ele>146.0</ele><time>2026-04-04T08:36:58.1Z</time></trkpt><trkpt lat="45.0030183" lon="8.6435583"><ele>146.0</ele><time>2026-04-04T08:36:59.098Z</time></trkpt><trkpt lat="45.003035" lon="8.6437867"><ele>146.33333333333331</ele><time>2026-04-04T08:37:00.102Z</time></trkpt><trkpt lat="45.003045" lon="8.644025"><ele>146.66666666666666</ele><time>2026-04-04T08:37:01.103Z</time></trkpt><trkpt lat="45.00305" lon="8.6442683"><ele>147.0</ele><time>2026-04-04T08:37:02.101Z</time></trkpt><trkpt lat="45.0030417" lon="8.64451"><ele>146.33333333333334</ele><time>2026-04-04T08:37:03.101Z</time></trkpt><trkpt lat="45.0030233" lon="8.64476"><ele>145.66666666666669</ele><time>2026-04-04T08:37:04.101Z</time></trkpt><trkpt lat="45.0029967" lon="8.6450067"><ele>145.0</ele><time>2026-04-04T08:37:05.111Z</time></trkpt><trkpt lat="45.0029517" lon="8.645255"><ele>144.33333333333334</ele><time>2026-04-04T08:37:06.101Z</time></trkpt><trkpt lat="45.0029133" lon="8.6455017"><ele>143.66666666666666</ele><time>2026-04-04T08:37:07.103Z</time></trkpt><trkpt lat="45.002855" lon="8.6457383"><ele>143.0</ele><time>2026-04-04T08:37:08.109Z</time></trkpt><trkpt lat="45.0027833" lon="8.6459733"><ele>143.0</ele><time>2026-04-04T08:37:09.103Z</time></trkpt><trkpt lat="45.0027117" lon="8.64621"><ele>143.0</ele><time>2026-04-04T08:37:10.103Z</time></trkpt><trkpt lat="45.00264" lon="8.646445"><ele>143.0</ele><time>2026-04-04T08:37:11.103Z</time></trkpt><trkpt lat="45.0025733" lon="8.6466867"><ele>143.0</ele><time>2026-04-04T08:37:12.1Z</time></trkpt><trkpt lat="45.0025067" lon="8.646925"><ele>143.0</ele><time>2026-04-04T08:37:13.107Z</time></trkpt><trkpt lat="45.0024383" lon="8.6471667"><ele>143.0</ele><time>2026-04-04T08:37:14.106Z</time></trkpt><trkpt lat="45.00237" lon="8.647405"><ele>145.0</ele><time>2026-04-04T08:37:15.111Z</time></trkpt><trkpt lat="45.0023017" lon="8.6476467"><ele>147.0</ele><time>2026-04-04T08:37:16.103Z</time></trkpt><trkpt lat="45.002235" lon="8.6478917"><ele>149.0</ele><time>2026-04-04T08:37:17.102Z</time></trkpt><trkpt lat="45.002175" lon="8.6481333"><ele>149.0</ele><time>2026-04-04T08:37:18.102Z</time></trkpt><trkpt lat="45.0021067" lon="8.6483733"><ele>149.0</ele><time>2026-04-04T08:37:19.104Z</time></trkpt><trkpt lat="45.0020433" lon="8.6486117"><ele>149.0</ele><time>2026-04-04T08:37:20.103Z</time></trkpt><trkpt lat="45.0019833" lon="8.6488467"><ele>148.33333333333331</ele><time>2026-04-04T08:37:21.102Z</time></trkpt><trkpt lat="45.0019233" lon="8.6490783"><ele>147.66666666666666</ele><time>2026-04-04T08:37:22.102Z</time></trkpt><trkpt lat="45.0018733" lon="8.6493433"><ele>147.0</ele><time>2026-04-04T08:37:23.101Z</time></trkpt><trkpt lat="45.0018267" lon="8.6496017"><ele>147.0</ele><time>2026-04-04T08:37:24.103Z</time></trkpt><trkpt lat="45.0017817" lon="8.649745"><ele>147.0</ele><time>2026-04-04T08:37:25.106Z</time></trkpt><trkpt lat="45.0017683" lon="8.6499533"><ele>147.0</ele><time>2026-04-04T08:37:26.11Z</time></trkpt><trkpt lat="45.001745" lon="8.6501367"><ele>147.0</ele><time>2026-04-04T08:37:27.104Z</time></trkpt><trkpt lat="45.0017333" lon="8.6503333"><ele>145.0</ele><time>2026-04-04T08:37:28.106Z</time></trkpt><trkpt lat="45.00173" lon="8.6505867"><ele>143.0</ele><time>2026-04-04T08:37:29.104Z</time></trkpt><trkpt lat="45.00174" lon="8.65092"><ele>141.0</ele><time>2026-04-04T08:37:30.106Z</time></trkpt><trkpt lat="45.00176" lon="8.6512317"><ele>140.5</ele><time>2026-04-04T08:37:31.107Z</time></trkpt><trkpt lat="45.0017783" lon="8.6514367"><ele>140.0</ele><time>2026-04-04T08:37:32.098Z</time></trkpt><trkpt lat="45.00179" lon="8.6516183"><ele>139.5</ele><time>2026-04-04T08:37:33.099Z</time></trkpt><trkpt lat="45.001795" lon="8.6518"><ele>139.0</ele><time>2026-04-04T08:37:34.098Z</time></trkpt><trkpt lat="45.0017867" lon="8.6519367"><ele>139.8</ele><time>2026-04-04T08:37:35.099Z</time></trkpt><trkpt lat="45.0017833" lon="8.6520683"><ele>140.60000000000002</ele><time>2026-04-04T08:37:36.099Z</time></trkpt><trkpt lat="45.0017933" lon="8.652195"><ele>141.4</ele><time>2026-04-04T08:37:37.103Z</time></trkpt><trkpt lat="45.0018283" lon="8.6523117"><ele>142.20000000000002</ele><time>2026-04-04T08:37:38.103Z</time></trkpt><trkpt lat="45.0018817" lon="8.6524117"><ele>143.0</ele><time>2026-04-04T08:37:39.099Z</time></trkpt><trkpt lat="45.00196" lon="8.6524933"><ele>143.0</ele><time>2026-04-04T08:37:40.103Z</time></trkpt><trkpt lat="45.00204" lon="8.65258"><ele>143.0</ele><time>2026-04-04T08:37:41.104Z</time></trkpt><trkpt lat="45.0021217" lon="8.652675"><ele>143.0</ele><time>2026-04-04T08:37:42.103Z</time></trkpt><trkpt lat="45.0021967" lon="8.6527983"><ele>143.0</ele><time>2026-04-04T08:37:43.104Z</time></trkpt><trkpt lat="45.0022783" lon="8.6529333"><ele>143.0</ele><time>2026-04-04T08:37:44.098Z</time></trkpt><trkpt lat="45.002365" lon="8.65308"><ele>143.66666666666666</ele><time>2026-04-04T08:37:45.101Z</time></trkpt><trkpt lat="45.0024667" lon="8.6532367"><ele>144.33333333333334</ele><time>2026-04-04T08:37:46.103Z</time></trkpt><trkpt lat="45.0025783" lon="8.6533967"><ele>145.0</ele><time>2026-04-04T08:37:47.104Z</time></trkpt><trkpt lat="45.0026967" lon="8.653555"><ele>144.0</ele><time>2026-04-04T08:37:48.105Z</time></trkpt><trkpt lat="45.0028233" lon="8.6537217"><ele>143.0</ele><time>2026-04-04T08:37:49.104Z</time></trkpt><trkpt lat="45.002955" lon="8.6538883"><ele>142.0</ele><time>2026-04-04T08:37:50.104Z</time></trkpt><trkpt lat="45.0030867" lon="8.6540533"><ele>142.0</ele><time>2026-04-04T08:37:51.103Z</time></trkpt><trkpt lat="45.0032167" lon="8.6542133"><ele>142.0</ele><time>2026-04-04T08:37:52.106Z</time></trkpt><trkpt lat="45.00334" lon="8.6543867"><ele>142.0</ele><time>2026-04-04T08:37:53.104Z</time></trkpt><trkpt lat="45.0034733" lon="8.6545433"><ele>138.33333333333334</ele><time>2026-04-04T08:37:54.103Z</time></trkpt><trkpt lat="45.0036017" lon="8.6547117"><ele>134.66666666666666</ele><time>2026-04-04T08:37:55.104Z</time></trkpt><trkpt lat="45.0037183" lon="8.6548917"><ele>131.0</ele><time>2026-04-04T08:37:56.099Z</time></trkpt><trkpt lat="45.0038333" lon="8.655075"><ele>131.0</ele><time>2026-04-04T08:37:57.101Z</time></trkpt><trkpt lat="45.0039367" lon="8.6552717"><ele>131.0</ele><time>2026-04-04T08:37:58.107Z</time></trkpt><trkpt lat="45.004035" lon="8.6554767"><ele>131.0</ele><time>2026-04-04T08:37:59.1Z</time></trkpt><trkpt lat="45.00412" lon="8.6556833"><ele>130.33333333333331</ele><time>2026-04-04T08:38:00.102Z</time></trkpt><trkpt lat="45.0041967" lon="8.6558933"><ele>129.66666666666666</ele><time>2026-04-04T08:38:01.102Z</time></trkpt><trkpt lat="45.00426" lon="8.6561017"><ele>129.0</ele><time>2026-04-04T08:38:02.1Z</time></trkpt><trkpt lat="45.0043183" lon="8.6562917"><ele>129.0</ele><time>2026-04-04T08:38:03.105Z</time></trkpt><trkpt lat="45.0043633" lon="8.6564617"><ele>129.0</ele><time>2026-04-04T08:38:04.101Z</time></trkpt><trkpt lat="45.004405" lon="8.6566083"><ele>129.0</ele><time>2026-04-04T08:38:05.103Z</time></trkpt><trkpt lat="45.0044383" lon="8.6567317"><ele>129.0</ele><time>2026-04-04T08:38:06.104Z</time></trkpt><trkpt lat="45.0044633" lon="8.6568317"><ele>129.0</ele><time>2026-04-04T08:38:07.102Z</time></trkpt><trkpt lat="45.0044917" lon="8.6569933"><ele>128.85714285714283</ele><time>2026-04-04T08:38:09.099Z</time></trkpt><trkpt lat="45.0044967" lon="8.657085"><ele>128.71428571428572</ele><time>2026-04-04T08:38:10.106Z</time></trkpt><trkpt lat="45.00449" lon="8.65718"><ele>128.57142857142856</ele><time>2026-04-04T08:38:11.105Z</time></trkpt><trkpt lat="45.0044817" lon="8.65728"><ele>128.42857142857142</ele><time>2026-04-04T08:38:12.101Z</time></trkpt><trkpt lat="45.0044817" lon="8.65738"><ele>128.28571428571428</ele><time>2026-04-04T08:38:13.108Z</time></trkpt><trkpt lat="45.0044983" lon="8.6574783"><ele>128.14285714285714</ele><time>2026-04-04T08:38:14.105Z</time></trkpt><trkpt lat="45.00453" lon="8.6575683"><ele>128.0</ele><time>2026-04-04T08:38:15.102Z</time></trkpt><trkpt lat="45.0045817" lon="8.6576317"><ele>127.99999999999999</ele><time>2026-04-04T08:38:16.103Z</time></trkpt><trkpt lat="45.0046367" lon="8.6576883"><ele>128.0</ele><time>2026-04-04T08:38:17.105Z</time></trkpt><trkpt lat="45.004695" lon="8.65775"><ele>128.0</ele><time>2026-04-04T08:38:18.099Z</time></trkpt><trkpt lat="45.0047417" lon="8.6578283"><ele>128.0</ele><time>2026-04-04T08:38:19.101Z</time></trkpt><trkpt lat="45.0047717" lon="8.6579433"><ele>127.99999999999999</ele><time>2026-04-04T08:38:20.109Z</time></trkpt><trkpt lat="45.00479" lon="8.658085"><ele>128.0</ele><time>2026-04-04T08:38:21.1Z</time></trkpt><trkpt lat="45.0047967" lon="8.658245"><ele>128.25</ele><time>2026-04-04T08:38:22.108Z</time></trkpt><trkpt lat="45.004805" lon="8.6584117"><ele>128.5</ele><time>2026-04-04T08:38:23.1Z</time></trkpt><trkpt lat="45.0048133" lon="8.65858"><ele>128.75</ele><time>2026-04-04T08:38:24.101Z</time></trkpt><trkpt lat="45.0048217" lon="8.658755"><ele>129.0</ele><time>2026-04-04T08:38:25.101Z</time></trkpt><trkpt lat="45.0048283" lon="8.6589317"><ele>129.25</ele><time>2026-04-04T08:38:26.1Z</time></trkpt><trkpt lat="45.004835" lon="8.6591033"><ele>129.5</ele><time>2026-04-04T08:38:27.101Z</time></trkpt><trkpt lat="45.00484" lon="8.6592717"><ele>129.75</ele><time>2026-04-04T08:38:28.1Z</time></trkpt><trkpt lat="45.0048433" lon="8.659445"><ele>130.0</ele><time>2026-04-04T08:38:29.106Z</time></trkpt><trkpt lat="45.0048433" lon="8.6596283"><ele>129.5</ele><time>2026-04-04T08:38:30.101Z</time></trkpt><trkpt lat="45.00484" lon="8.6598167"><ele>129.0</ele><time>2026-04-04T08:38:31.109Z</time></trkpt><trkpt lat="45.0048317" lon="8.6600183"><ele>128.5</ele><time>2026-04-04T08:38:32.108Z</time></trkpt><trkpt lat="45.0048183" lon="8.6602233"><ele>128.0</ele><time>2026-04-04T08:38:33.104Z</time></trkpt><trkpt lat="45.0048017" lon="8.6604233"><ele>128.0</ele><time>2026-04-04T08:38:34.101Z</time></trkpt><trkpt lat="45.004785" lon="8.6606267"><ele>128.0</ele><time>2026-04-04T08:38:35.104Z</time></trkpt><trkpt lat="45.0047617" lon="8.6608267"><ele>128.0</ele><time>2026-04-04T08:38:36.1Z</time></trkpt><trkpt lat="45.00474" lon="8.661025"><ele>128.0</ele><time>2026-04-04T08:38:37.101Z</time></trkpt><trkpt lat="45.004715" lon="8.66122"><ele>128.0</ele><time>2026-04-04T08:38:38.103Z</time></trkpt><trkpt lat="45.0046867" lon="8.661415"><ele>128.0</ele><time>2026-04-04T08:38:39.107Z</time></trkpt><trkpt lat="45.00466" lon="8.66161"><ele>128.0</ele><time>2026-04-04T08:38:40.099Z</time></trkpt><trkpt lat="45.0046317" lon="8.661805"><ele>128.0</ele><time>2026-04-04T08:38:41.105Z</time></trkpt><trkpt lat="45.0046067" lon="8.6620033"><ele>127.75</ele><time>2026-04-04T08:38:42.103Z</time></trkpt><trkpt lat="45.00458" lon="8.6622"><ele>127.5</ele><time>2026-04-04T08:38:43.1Z</time></trkpt><trkpt lat="45.0045517" lon="8.6623967"><ele>127.25</ele><time>2026-04-04T08:38:44.106Z</time></trkpt><trkpt lat="45.0045233" lon="8.6625933"><ele>127.0</ele><time>2026-04-04T08:38:45.102Z</time></trkpt><trkpt lat="45.004495" lon="8.6627883"><ele>126.75</ele><time>2026-04-04T08:38:46.098Z</time></trkpt><trkpt lat="45.0044683" lon="8.66298"><ele>126.5</ele><time>2026-04-04T08:38:47.103Z</time></trkpt><trkpt lat="45.0044417" lon="8.6631733"><ele>126.25</ele><time>2026-04-04T08:38:48.103Z</time></trkpt><trkpt lat="45.00441" lon="8.66336"><ele>126.0</ele><time>2026-04-04T08:38:49.098Z</time></trkpt><trkpt lat="45.0043817" lon="8.6635483"><ele>125.0</ele><time>2026-04-04T08:38:50.104Z</time></trkpt><trkpt lat="45.0043483" lon="8.6637367"><ele>124.0</ele><time>2026-04-04T08:38:51.101Z</time></trkpt><trkpt lat="45.0043167" lon="8.6639233"><ele>123.0</ele><time>2026-04-04T08:38:52.106Z</time></trkpt><trkpt lat="45.004275" lon="8.6641117"><ele>122.0</ele><time>2026-04-04T08:38:53.101Z</time></trkpt><trkpt lat="45.0042267" lon="8.6643083"><ele>121.66666666666666</ele><time>2026-04-04T08:38:54.101Z</time></trkpt><trkpt lat="45.0041733" lon="8.6645117"><ele>121.33333333333334</ele><time>2026-04-04T08:38:55.1Z</time></trkpt><trkpt lat="45.0041133" lon="8.6647217"><ele>121.0</ele><time>2026-04-04T08:38:56.102Z</time></trkpt><trkpt lat="45.0040583" lon="8.6649383"><ele>123.0</ele><time>2026-04-04T08:38:57.109Z</time></trkpt><trkpt lat="45.0039867" lon="8.665145"><ele>125.0</ele><time>2026-04-04T08:38:58.101Z</time></trkpt><trkpt lat="45.0039117" lon="8.6653483"><ele>127.0</ele><time>2026-04-04T08:38:59.104Z</time></trkpt><trkpt lat="45.0038283" lon="8.6655433"><ele>127.0</ele><time>2026-04-04T08:39:00.103Z</time></trkpt><trkpt lat="45.0037467" lon="8.66573"><ele>127.0</ele><time>2026-04-04T08:39:01.102Z</time></trkpt><trkpt lat="45.0036733" lon="8.6659083"><ele>127.0</ele><time>2026-04-04T08:39:02.099Z</time></trkpt><trkpt lat="45.0036033" lon="8.6660733"><ele>127.0</ele><time>2026-04-04T08:39:03.104Z</time></trkpt><trkpt lat="45.0035333" lon="8.666235"><ele>127.0</ele><time>2026-04-04T08:39:04.099Z</time></trkpt><trkpt lat="45.0034667" lon="8.6663917"><ele>127.0</ele><time>2026-04-04T08:39:05.101Z</time></trkpt><trkpt lat="45.0034067" lon="8.666545"><ele>127.0</ele><time>2026-04-04T08:39:06.104Z</time></trkpt><trkpt lat="45.0033533" lon="8.666685"><ele>127.0</ele><time>2026-04-04T08:39:07.1Z</time></trkpt><trkpt lat="45.0033083" lon="8.66679"><ele>127.00000000000001</ele><time>2026-04-04T08:39:08.1Z</time></trkpt><trkpt lat="45.0032717" lon="8.666875"><ele>127.0</ele><time>2026-04-04T08:39:09.103Z</time></trkpt><trkpt lat="45.0031917" lon="8.667015"><ele>127.0</ele><time>2026-04-04T08:39:11.106Z</time></trkpt><trkpt lat="45.0031367" lon="8.6670783"><ele>127.0</ele><time>2026-04-04T08:39:12.104Z</time></trkpt><trkpt lat="45.0030783" lon="8.667135"><ele>127.00000000000001</ele><time>2026-04-04T08:39:13.106Z</time></trkpt><trkpt lat="45.0030117" lon="8.667165"><ele>127.0</ele><time>2026-04-04T08:39:14.103Z</time></trkpt><trkpt lat="45.0029483" lon="8.6671967"><ele>127.0</ele><time>2026-04-04T08:39:15.105Z</time></trkpt><trkpt lat="45.0028883" lon="8.6672433"><ele>127.0</ele><time>2026-04-04T08:39:16.106Z</time></trkpt><trkpt lat="45.0028417" lon="8.6673133"><ele>127.0</ele><time>2026-04-04T08:39:17.1Z</time></trkpt><trkpt lat="45.00281" lon="8.6673933"><ele>127.0</ele><time>2026-04-04T08:39:18.107Z</time></trkpt><trkpt lat="45.0028083" lon="8.6674833"><ele>127.0</ele><time>2026-04-04T08:39:19.109Z</time></trkpt><trkpt lat="45.00281" lon="8.66758"><ele>127.0</ele><time>2026-04-04T08:39:20.107Z</time></trkpt><trkpt lat="45.0028217" lon="8.6676883"><ele>127.0</ele><time>2026-04-04T08:39:21.102Z</time></trkpt><trkpt lat="45.0028083" lon="8.66781"><ele>127.0</ele><time>2026-04-04T08:39:22.098Z</time></trkpt><trkpt lat="45.0027767" lon="8.6679283"><ele>126.99999999999999</ele><time>2026-04-04T08:39:23.104Z</time></trkpt><trkpt lat="45.0027367" lon="8.66805"><ele>126.99999999999999</ele><time>2026-04-04T08:39:24.102Z</time></trkpt><trkpt lat="45.0026833" lon="8.668185"><ele>127.0</ele><time>2026-04-04T08:39:25.103Z</time></trkpt><trkpt lat="45.00263" lon="8.6683333"><ele>127.0</ele><time>2026-04-04T08:39:26.099Z</time></trkpt><trkpt lat="45.0025767" lon="8.6684883"><ele>127.0</ele><time>2026-04-04T08:39:27.1Z</time></trkpt><trkpt lat="45.00252" lon="8.668655"><ele>127.0</ele><time>2026-04-04T08:39:28.1Z</time></trkpt><trkpt lat="45.0024667" lon="8.6688267"><ele>127.0</ele><time>2026-04-04T08:39:29.101Z</time></trkpt><trkpt lat="45.0024183" lon="8.669"><ele>127.0</ele><time>2026-04-04T08:39:30.1Z</time></trkpt><trkpt lat="45.0023667" lon="8.6691767"><ele>128.0</ele><time>2026-04-04T08:39:31.102Z</time></trkpt><trkpt lat="45.0023183" lon="8.6693533"><ele>129.0</ele><time>2026-04-04T08:39:32.104Z</time></trkpt><trkpt lat="45.0022667" lon="8.6695333"><ele>130.0</ele><time>2026-04-04T08:39:33.104Z</time></trkpt><trkpt lat="45.002215" lon="8.669715"><ele>131.0</ele><time>2026-04-04T08:39:34.104Z</time></trkpt><trkpt lat="45.0021617" lon="8.6699"><ele>131.0</ele><time>2026-04-04T08:39:35.099Z</time></trkpt><trkpt lat="45.00211" lon="8.670085"><ele>131.0</ele><time>2026-04-04T08:39:36.102Z</time></trkpt><trkpt lat="45.0020583" lon="8.6702683"><ele>131.0</ele><time>2026-04-04T08:39:37.104Z</time></trkpt><trkpt lat="45.0020083" lon="8.670445"><ele>131.0</ele><time>2026-04-04T08:39:38.098Z</time></trkpt><trkpt lat="45.00196" lon="8.6706183"><ele>131.25</ele><time>2026-04-04T08:39:39.101Z</time></trkpt><trkpt lat="45.0019133" lon="8.6707867"><ele>131.5</ele><time>2026-04-04T08:39:40.105Z</time></trkpt><trkpt lat="45.0018683" lon="8.6709483"><ele>131.75</ele><time>2026-04-04T08:39:41.105Z</time></trkpt><trkpt lat="45.0018233" lon="8.6711033"><ele>132.0</ele><time>2026-04-04T08:39:42.1Z</time></trkpt><trkpt lat="45.00178" lon="8.6712617"><ele>132.0</ele><time>2026-04-04T08:39:43.102Z</time></trkpt><trkpt lat="45.0017367" lon="8.6714217"><ele>132.0</ele><time>2026-04-04T08:39:44.103Z</time></trkpt><trkpt lat="45.00169" lon="8.6715833"><ele>132.0</ele><time>2026-04-04T08:39:45.098Z</time></trkpt><trkpt lat="45.0016517" lon="8.671745"><ele>132.0</ele><time>2026-04-04T08:39:46.102Z</time></trkpt><trkpt lat="45.0016183" lon="8.6718933"><ele>131.83333333333334</ele><time>2026-04-04T08:39:47.103Z</time></trkpt><trkpt lat="45.00159" lon="8.672025"><ele>131.66666666666666</ele><time>2026-04-04T08:39:48.097Z</time></trkpt><trkpt lat="45.00157" lon="8.6721383"><ele>131.5</ele><time>2026-04-04T08:39:49.11Z</time></trkpt><trkpt lat="45.00155" lon="8.6722417"><ele>131.33333333333331</ele><time>2026-04-04T08:39:50.104Z</time></trkpt><trkpt lat="45.00153" lon="8.6723383"><ele>131.16666666666666</ele><time>2026-04-04T08:39:51.105Z</time></trkpt><trkpt lat="45.001515" lon="8.6724367"><ele>131.0</ele><time>2026-04-04T08:39:52.099Z</time></trkpt><trkpt lat="45.0015033" lon="8.67254"><ele>131.0</ele><time>2026-04-04T08:39:53.103Z</time></trkpt><trkpt lat="45.0014917" lon="8.67265"><ele>131.0</ele><time>2026-04-04T08:39:54.107Z</time></trkpt><trkpt lat="45.0014767" lon="8.6727567"><ele>131.0</ele><time>2026-04-04T08:39:55.104Z</time></trkpt><trkpt lat="45.001465" lon="8.672865"><ele>131.0</ele><time>2026-04-04T08:39:56.103Z</time></trkpt><trkpt lat="45.0014583" lon="8.6729767"><ele>131.0</ele><time>2026-04-04T08:39:57.1Z</time></trkpt><trkpt lat="45.0014517" lon="8.6730817"><ele>131.0</ele><time>2026-04-04T08:39:58.1Z</time></trkpt><trkpt lat="45.001445" lon="8.6731867"><ele>130.6</ele><time>2026-04-04T08:39:59.102Z</time></trkpt><trkpt lat="45.0014383" lon="8.673285"><ele>130.2</ele><time>2026-04-04T08:40:00.105Z</time></trkpt><trkpt lat="45.00143" lon="8.6733867"><ele>129.8</ele><time>2026-04-04T08:40:01.109Z</time></trkpt><trkpt lat="45.001415" lon="8.6735483"><ele>129.4</ele><time>2026-04-04T08:40:03.104Z</time></trkpt><trkpt lat="45.001395" lon="8.6736967"><ele>129.0</ele><time>2026-04-04T08:40:05.106Z</time></trkpt><trkpt lat="45.001365" lon="8.6738617"><ele>128.85714285714283</ele><time>2026-04-04T08:40:07.105Z</time></trkpt><trkpt lat="45.001335" lon="8.6739483"><ele>128.71428571428572</ele><time>2026-04-04T08:40:08.102Z</time></trkpt><trkpt lat="45.0012933" lon="8.674025"><ele>128.57142857142856</ele><time>2026-04-04T08:40:09.102Z</time></trkpt><trkpt lat="45.0012433" lon="8.6741017"><ele>128.42857142857142</ele><time>2026-04-04T08:40:10.102Z</time></trkpt><trkpt lat="45.0011933" lon="8.674185"><ele>128.28571428571428</ele><time>2026-04-04T08:40:11.102Z</time></trkpt><trkpt lat="45.0011617" lon="8.6742783"><ele>128.14285714285714</ele><time>2026-04-04T08:40:12.098Z</time></trkpt><trkpt lat="45.00118" lon="8.67439"><ele>128.0</ele><time>2026-04-04T08:40:13.104Z</time></trkpt><trkpt lat="45.001195" lon="8.6745"><ele>127.99999999999999</ele><time>2026-04-04T08:40:14.1Z</time></trkpt><trkpt lat="45.0011983" lon="8.6746183"><ele>128.0</ele><time>2026-04-04T08:40:15.1Z</time></trkpt><trkpt lat="45.0011833" lon="8.6747367"><ele>128.0</ele><time>2026-04-04T08:40:16.1Z</time></trkpt><trkpt lat="45.0011567" lon="8.6748533"><ele>128.0</ele><time>2026-04-04T08:40:17.101Z</time></trkpt><trkpt lat="45.0011067" lon="8.67496"><ele>127.99999999999999</ele><time>2026-04-04T08:40:18.103Z</time></trkpt><trkpt lat="45.0010333" lon="8.6750633"><ele>128.0</ele><time>2026-04-04T08:40:19.104Z</time></trkpt><trkpt lat="45.0009517" lon="8.6751633"><ele>128.0</ele><time>2026-04-04T08:40:20.104Z</time></trkpt><trkpt lat="45.0008667" lon="8.6752717"><ele>128.0</ele><time>2026-04-04T08:40:21.101Z</time></trkpt><trkpt lat="45.0007817" lon="8.6753817"><ele>128.0</ele><time>2026-04-04T08:40:22.1Z</time></trkpt><trkpt lat="45.0006933" lon="8.6754967"><ele>128.0</ele><time>2026-04-04T08:40:23.101Z</time></trkpt><trkpt lat="45.0006" lon="8.6756117"><ele>128.5</ele><time>2026-04-04T08:40:24.102Z</time></trkpt><trkpt lat="45.0005017" lon="8.6757217"><ele>129.0</ele><time>2026-04-04T08:40:25.107Z</time></trkpt><trkpt lat="45.0003967" lon="8.6758267"><ele>129.5</ele><time>2026-04-04T08:40:26.108Z</time></trkpt><trkpt lat="45.0002917" lon="8.6759267"><ele>130.0</ele><time>2026-04-04T08:40:27.101Z</time></trkpt><trkpt lat="45.0001833" lon="8.6760233"><ele>129.75</ele><time>2026-04-04T08:40:28.1Z</time></trkpt><trkpt lat="45.0000733" lon="8.676115"><ele>129.5</ele><time>2026-04-04T08:40:29.103Z</time></trkpt><trkpt lat="44.99996" lon="8.67621"><ele>129.25</ele><time>2026-04-04T08:40:30.101Z</time></trkpt><trkpt lat="44.9998533" lon="8.676305"><ele>129.0</ele><time>2026-04-04T08:40:31.106Z</time></trkpt><trkpt lat="44.99974" lon="8.6764017"><ele>129.0</ele><time>2026-04-04T08:40:32.101Z</time></trkpt><trkpt lat="44.9996267" lon="8.67651"><ele>129.0</ele><time>2026-04-04T08:40:33.1Z</time></trkpt><trkpt lat="44.9995183" lon="8.67663"><ele>129.0</ele><time>2026-04-04T08:40:34.102Z</time></trkpt><trkpt lat="44.9994183" lon="8.6767567"><ele>129.0</ele><time>2026-04-04T08:40:35.099Z</time></trkpt><trkpt lat="44.9993283" lon="8.6768983"><ele>129.25</ele><time>2026-04-04T08:40:36.101Z</time></trkpt><trkpt lat="44.9992467" lon="8.6770417"><ele>129.5</ele><time>2026-04-04T08:40:37.1Z</time></trkpt><trkpt lat="44.99917" lon="8.677185"><ele>129.75</ele><time>2026-04-04T08:40:38.1Z</time></trkpt><trkpt lat="44.9991017" lon="8.6773283"><ele>130.0</ele><time>2026-04-04T08:40:39.1Z</time></trkpt><trkpt lat="44.999035" lon="8.6774667"><ele>130.0</ele><time>2026-04-04T08:40:40.103Z</time></trkpt><trkpt lat="44.9989667" lon="8.6776033"><ele>130.0</ele><time>2026-04-04T08:40:41.103Z</time></trkpt><trkpt lat="44.998895" lon="8.6777433"><ele>130.0</ele><time>2026-04-04T08:40:42.103Z</time></trkpt><trkpt lat="44.9988167" lon="8.6778933"><ele>130.0</ele><time>2026-04-04T08:40:43.102Z</time></trkpt><trkpt lat="44.9987433" lon="8.67805"><ele>129.75</ele><time>2026-04-04T08:40:44.104Z</time></trkpt><trkpt lat="44.9986667" lon="8.6782117"><ele>129.5</ele><time>2026-04-04T08:40:45.107Z</time></trkpt><trkpt lat="44.99859" lon="8.67838"><ele>129.25</ele><time>2026-04-04T08:40:46.103Z</time></trkpt><trkpt lat="44.9985117" lon="8.6785533"><ele>129.0</ele><time>2026-04-04T08:40:47.105Z</time></trkpt><trkpt lat="44.9984317" lon="8.6787333"><ele>128.33333333333334</ele><time>2026-04-04T08:40:48.106Z</time></trkpt><trkpt lat="44.998355" lon="8.678915"><ele>127.66666666666667</ele><time>2026-04-04T08:40:49.102Z</time></trkpt><trkpt lat="44.9982783" lon="8.6790983"><ele>127.0</ele><time>2026-04-04T08:40:50.101Z</time></trkpt><trkpt lat="44.998205" lon="8.6792867"><ele>126.33333333333334</ele><time>2026-04-04T08:40:51.1Z</time></trkpt><trkpt lat="44.9981333" lon="8.679475"><ele>125.66666666666666</ele><time>2026-04-04T08:40:52.104Z</time></trkpt><trkpt lat="44.998065" lon="8.679665"><ele>125.0</ele><time>2026-04-04T08:40:53.104Z</time></trkpt><trkpt lat="44.9979967" lon="8.679855"><ele>125.0</ele><time>2026-04-04T08:40:54.101Z</time></trkpt><trkpt lat="44.9979333" lon="8.6800417"><ele>125.0</ele><time>2026-04-04T08:40:55.1Z</time></trkpt><trkpt lat="44.99787" lon="8.680225"><ele>125.0</ele><time>2026-04-04T08:40:56.103Z</time></trkpt><trkpt lat="44.9978033" lon="8.6804033"><ele>125.0</ele><time>2026-04-04T08:40:57.114Z</time></trkpt><trkpt lat="44.9977417" lon="8.6805833"><ele>124.25</ele><time>2026-04-04T08:40:58.099Z</time></trkpt><trkpt lat="44.997675" lon="8.6807633"><ele>123.5</ele><time>2026-04-04T08:40:59.098Z</time></trkpt><trkpt lat="44.997605" lon="8.6809467"><ele>122.75</ele><time>2026-04-04T08:41:00.11Z</time></trkpt><trkpt lat="44.997535" lon="8.6811367"><ele>122.0</ele><time>2026-04-04T08:41:01.101Z</time></trkpt><trkpt lat="44.9974617" lon="8.6813233"><ele>120.0</ele><time>2026-04-04T08:41:02.1Z</time></trkpt><trkpt lat="44.99739" lon="8.6815133"><ele>118.0</ele><time>2026-04-04T08:41:03.106Z</time></trkpt><trkpt lat="44.9973167" lon="8.6817067"><ele>116.0</ele><time>2026-04-04T08:41:04.114Z</time></trkpt><trkpt lat="44.99724" lon="8.68191"><ele>115.66666666666666</ele><time>2026-04-04T08:41:05.098Z</time></trkpt><trkpt lat="44.9971617" lon="8.68212"><ele>115.33333333333334</ele><time>2026-04-04T08:41:06.103Z</time></trkpt><trkpt lat="44.9970833" lon="8.6823283"><ele>115.0</ele><time>2026-04-04T08:41:07.1Z</time></trkpt><trkpt lat="44.9970033" lon="8.682535"><ele>115.0</ele><time>2026-04-04T08:41:08.104Z</time></trkpt><trkpt lat="44.9969267" lon="8.6827383"><ele>115.0</ele><time>2026-04-04T08:41:09.103Z</time></trkpt><trkpt lat="44.9968517" lon="8.68294"><ele>115.0</ele><time>2026-04-04T08:41:10.102Z</time></trkpt><trkpt lat="44.9967783" lon="8.6831367"><ele>115.5</ele><time>2026-04-04T08:41:11.109Z</time></trkpt><trkpt lat="44.9967033" lon="8.683325"><ele>116.0</ele><time>2026-04-04T08:41:12.103Z</time></trkpt><trkpt lat="44.99664" lon="8.6834883"><ele>116.5</ele><time>2026-04-04T08:41:13.102Z</time></trkpt><trkpt lat="44.9965933" lon="8.683625"><ele>117.0</ele><time>2026-04-04T08:41:14.103Z</time></trkpt><trkpt lat="44.996565" lon="8.6837267"><ele>118.6</ele><time>2026-04-04T08:41:15.104Z</time></trkpt><trkpt lat="44.9965267" lon="8.6838267"><ele>120.19999999999999</ele><time>2026-04-04T08:41:17.101Z</time></trkpt><trkpt lat="44.9964833" lon="8.6839367"><ele>121.8</ele><time>2026-04-04T08:41:20.108Z</time></trkpt><trkpt lat="44.9964317" lon="8.6840933"><ele>123.4</ele><time>2026-04-04T08:41:22.099Z</time></trkpt><trkpt lat="44.996395" lon="8.6842083"><ele>125.0</ele><time>2026-04-04T08:41:23.102Z</time></trkpt><trkpt lat="44.99635" lon="8.6843267"><ele>125.5</ele><time>2026-04-04T08:41:24.101Z</time></trkpt><trkpt lat="44.9963" lon="8.6844517"><ele>126.0</ele><time>2026-04-04T08:41:25.101Z</time></trkpt><trkpt lat="44.99625" lon="8.6845933"><ele>126.5</ele><time>2026-04-04T08:41:26.102Z</time></trkpt><trkpt lat="44.9961967" lon="8.6847383"><ele>127.0</ele><time>2026-04-04T08:41:27.1Z</time></trkpt><trkpt lat="44.9961433" lon="8.6848933"><ele>127.0</ele><time>2026-04-04T08:41:28.102Z</time></trkpt><trkpt lat="44.9960933" lon="8.685055"><ele>127.0</ele><time>2026-04-04T08:41:29.103Z</time></trkpt><trkpt lat="44.9960567" lon="8.6852217"><ele>127.0</ele><time>2026-04-04T08:41:30.103Z</time></trkpt><trkpt lat="44.99604" lon="8.685395"><ele>127.0</ele><time>2026-04-04T08:41:31.104Z</time></trkpt><trkpt lat="44.9960383" lon="8.68557"><ele>126.5</ele><time>2026-04-04T08:41:32.102Z</time></trkpt><trkpt lat="44.9960467" lon="8.6857517"><ele>126.0</ele><time>2026-04-04T08:41:33.109Z</time></trkpt><trkpt lat="44.9960633" lon="8.6859367"><ele>125.5</ele><time>2026-04-04T08:41:34.102Z</time></trkpt><trkpt lat="44.99608" lon="8.68613"><ele>125.0</ele><time>2026-04-04T08:41:35.1Z</time></trkpt><trkpt lat="44.99611" lon="8.6863367"><ele>123.66666666666666</ele><time>2026-04-04T08:41:36.1Z</time></trkpt><trkpt lat="44.9961417" lon="8.6865483"><ele>122.33333333333334</ele><time>2026-04-04T08:41:37.1Z</time></trkpt><trkpt lat="44.9961733" lon="8.6867667"><ele>121.0</ele><time>2026-04-04T08:41:38.109Z</time></trkpt><trkpt lat="44.9962" lon="8.6869883"><ele>120.66666666666667</ele><time>2026-04-04T08:41:39.099Z</time></trkpt><trkpt lat="44.99621" lon="8.68721"><ele>120.33333333333334</ele><time>2026-04-04T08:41:40.104Z</time></trkpt><trkpt lat="44.99621" lon="8.6874317"><ele>120.0</ele><time>2026-04-04T08:41:41.1Z</time></trkpt><trkpt lat="44.9961883" lon="8.687655"><ele>119.0</ele><time>2026-04-04T08:41:42.102Z</time></trkpt><trkpt lat="44.9961583" lon="8.6878817"><ele>118.0</ele><time>2026-04-04T08:41:43.102Z</time></trkpt><trkpt lat="44.996115" lon="8.6881033"><ele>117.0</ele><time>2026-04-04T08:41:44.098Z</time></trkpt><trkpt lat="44.9960717" lon="8.6883317"><ele>117.0</ele><time>2026-04-04T08:41:45.105Z</time></trkpt><trkpt lat="44.996035" lon="8.6885633"><ele>117.0</ele><time>2026-04-04T08:41:46.103Z</time></trkpt><trkpt lat="44.9959967" lon="8.68879"><ele>117.0</ele><time>2026-04-04T08:41:47.102Z</time></trkpt><trkpt lat="44.9959583" lon="8.689015"><ele>117.33333333333334</ele><time>2026-04-04T08:41:48.104Z</time></trkpt><trkpt lat="44.9959167" lon="8.6892417"><ele>117.66666666666667</ele><time>2026-04-04T08:41:49.101Z</time></trkpt><trkpt lat="44.995865" lon="8.689465"><ele>118.0</ele><time>2026-04-04T08:41:50.099Z</time></trkpt><trkpt lat="44.9958133" lon="8.6896817"><ele>118.0</ele><time>2026-04-04T08:41:51.102Z</time></trkpt><trkpt lat="44.99577" lon="8.6898983"><ele>118.0</ele><time>2026-04-04T08:41:52.106Z</time></trkpt><trkpt lat="44.9957283" lon="8.6901117"><ele>118.0</ele><time>2026-04-04T08:41:53.103Z</time></trkpt><trkpt lat="44.9956867" lon="8.6903283"><ele>118.0</ele><time>2026-04-04T08:41:54.103Z</time></trkpt><trkpt lat="44.99565" lon="8.6905433"><ele>118.0</ele><time>2026-04-04T08:41:55.107Z</time></trkpt><trkpt lat="44.9956183" lon="8.69076"><ele>118.0</ele><time>2026-04-04T08:41:56.099Z</time></trkpt><trkpt lat="44.995595" lon="8.69098"><ele>119.33333333333334</ele><time>2026-04-04T08:41:57.1Z</time></trkpt><trkpt lat="44.9955883" lon="8.6912033"><ele>120.66666666666666</ele><time>2026-04-04T08:41:58.1Z</time></trkpt><trkpt lat="44.9956" lon="8.6914283"><ele>122.0</ele><time>2026-04-04T08:41:59.111Z</time></trkpt><trkpt lat="44.995625" lon="8.6916433"><ele>122.0</ele><time>2026-04-04T08:42:00.102Z</time></trkpt><trkpt lat="44.9956667" lon="8.6918633"><ele>122.0</ele><time>2026-04-04T08:42:01.106Z</time></trkpt><trkpt lat="44.9957133" lon="8.69208"><ele>122.0</ele><time>2026-04-04T08:42:02.1Z</time></trkpt><trkpt lat="44.9957667" lon="8.6923"><ele>122.33333333333333</ele><time>2026-04-04T08:42:03.102Z</time></trkpt><trkpt lat="44.99582" lon="8.6925317"><ele>122.66666666666666</ele><time>2026-04-04T08:42:04.102Z</time></trkpt><trkpt lat="44.9958667" lon="8.6927717"><ele>123.0</ele><time>2026-04-04T08:42:05.105Z</time></trkpt><trkpt lat="44.9959067" lon="8.6930117"><ele>121.66666666666666</ele><time>2026-04-04T08:42:06.113Z</time></trkpt><trkpt lat="44.99594" lon="8.6932517"><ele>120.33333333333333</ele><time>2026-04-04T08:42:07.099Z</time></trkpt><trkpt lat="44.995975" lon="8.693495"><ele>119.0</ele><time>2026-04-04T08:42:08.108Z</time></trkpt><trkpt lat="44.996005" lon="8.6937433"><ele>119.0</ele><time>2026-04-04T08:42:09.099Z</time></trkpt><trkpt lat="44.9960367" lon="8.6939967"><ele>119.0</ele><time>2026-04-04T08:42:10.101Z</time></trkpt><trkpt lat="44.9960667" lon="8.6942517"><ele>119.0</ele><time>2026-04-04T08:42:11.099Z</time></trkpt><trkpt lat="44.9960967" lon="8.6945083"><ele>119.0</ele><time>2026-04-04T08:42:12.11Z</time></trkpt><trkpt lat="44.9961267" lon="8.6947633"><ele>119.0</ele><time>2026-04-04T08:42:13.099Z</time></trkpt><trkpt lat="44.996155" lon="8.6950267"><ele>119.0</ele><time>2026-04-04T08:42:14.111Z</time></trkpt><trkpt lat="44.9961783" lon="8.69529"><ele>118.66666666666666</ele><time>2026-04-04T08:42:15.107Z</time></trkpt><trkpt lat="44.996205" lon="8.6955517"><ele>118.33333333333334</ele><time>2026-04-04T08:42:16.102Z</time></trkpt><trkpt lat="44.9962317" lon="8.6958167"><ele>118.0</ele><time>2026-04-04T08:42:17.103Z</time></trkpt><trkpt lat="44.99626" lon="8.6960833"><ele>117.33333333333334</ele><time>2026-04-04T08:42:18.104Z</time></trkpt><trkpt lat="44.99629" lon="8.6963517"><ele>116.66666666666666</ele><time>2026-04-04T08:42:19.105Z</time></trkpt><trkpt lat="44.9963167" lon="8.69662"><ele>116.0</ele><time>2026-04-04T08:42:20.101Z</time></trkpt><trkpt lat="44.996345" lon="8.6968867"><ele>115.66666666666666</ele><time>2026-04-04T08:42:21.103Z</time></trkpt><trkpt lat="44.9963767" lon="8.6971517"><ele>115.33333333333334</ele><time>2026-04-04T08:42:22.101Z</time></trkpt><trkpt lat="44.9964017" lon="8.6974117"><ele>115.0</ele><time>2026-04-04T08:42:23.109Z</time></trkpt><trkpt lat="44.9964267" lon="8.69767"><ele>114.66666666666667</ele><time>2026-04-04T08:42:24.101Z</time></trkpt><trkpt lat="44.9964483" lon="8.69793"><ele>114.33333333333334</ele><time>2026-04-04T08:42:25.1Z</time></trkpt><trkpt lat="44.996475" lon="8.69819"><ele>114.0</ele><time>2026-04-04T08:42:26.105Z</time></trkpt><trkpt lat="44.9965017" lon="8.6984467"><ele>113.33333333333334</ele><time>2026-04-04T08:42:27.104Z</time></trkpt><trkpt lat="44.9965283" lon="8.698705"><ele>112.66666666666667</ele><time>2026-04-04T08:42:28.101Z</time></trkpt><trkpt lat="44.9965567" lon="8.698965"><ele>112.0</ele><time>2026-04-04T08:42:29.106Z</time></trkpt><trkpt lat="44.99658" lon="8.6992217"><ele>112.0</ele><time>2026-04-04T08:42:30.103Z</time></trkpt><trkpt lat="44.9966067" lon="8.69947"><ele>112.0</ele><time>2026-04-04T08:42:31.102Z</time></trkpt><trkpt lat="44.9966333" lon="8.6997217"><ele>112.0</ele><time>2026-04-04T08:42:32.104Z</time></trkpt><trkpt lat="44.9966567" lon="8.6999733"><ele>112.0</ele><time>2026-04-04T08:42:33.098Z</time></trkpt><trkpt lat="44.9966767" lon="8.70023"><ele>112.0</ele><time>2026-04-04T08:42:34.105Z</time></trkpt><trkpt lat="44.99669" lon="8.7004917"><ele>112.0</ele><time>2026-04-04T08:42:35.103Z</time></trkpt><trkpt lat="44.9967017" lon="8.7007567"><ele>112.0</ele><time>2026-04-04T08:42:36.102Z</time></trkpt><trkpt lat="44.9967067" lon="8.7010267"><ele>112.0</ele><time>2026-04-04T08:42:37.106Z</time></trkpt><trkpt lat="44.9967033" lon="8.7012983"><ele>112.0</ele><time>2026-04-04T08:42:38.104Z</time></trkpt><trkpt lat="44.9966967" lon="8.701575"><ele>111.66666666666667</ele><time>2026-04-04T08:42:39.104Z</time></trkpt><trkpt lat="44.99669" lon="8.7018567"><ele>111.33333333333334</ele><time>2026-04-04T08:42:40.1Z</time></trkpt><trkpt lat="44.99668" lon="8.70213"><ele>111.0</ele><time>2026-04-04T08:42:41.104Z</time></trkpt><trkpt lat="44.9966717" lon="8.702405"><ele>111.0</ele><time>2026-04-04T08:42:42.106Z</time></trkpt><trkpt lat="44.9966733" lon="8.7026733"><ele>111.0</ele><time>2026-04-04T08:42:43.109Z</time></trkpt><trkpt lat="44.9966867" lon="8.7029467"><ele>111.0</ele><time>2026-04-04T08:42:44.112Z</time></trkpt><trkpt lat="44.9967067" lon="8.703215"><ele>110.33333333333334</ele><time>2026-04-04T08:42:45.099Z</time></trkpt><trkpt lat="44.9967383" lon="8.70348"><ele>109.66666666666667</ele><time>2026-04-04T08:42:46.107Z</time></trkpt><trkpt lat="44.99677" lon="8.7037483"><ele>109.0</ele><time>2026-04-04T08:42:47.102Z</time></trkpt><trkpt lat="44.9968033" lon="8.7040183"><ele>108.66666666666667</ele><time>2026-04-04T08:42:48.11Z</time></trkpt><trkpt lat="44.99684" lon="8.7042883"><ele>108.33333333333334</ele><time>2026-04-04T08:42:49.104Z</time></trkpt><trkpt lat="44.9968817" lon="8.70456"><ele>108.0</ele><time>2026-04-04T08:42:50.108Z</time></trkpt><trkpt lat="44.996935" lon="8.7048333"><ele>108.0</ele><time>2026-04-04T08:42:51.101Z</time></trkpt><trkpt lat="44.9969917" lon="8.7050983"><ele>108.0</ele><time>2026-04-04T08:42:52.106Z</time></trkpt><trkpt lat="44.997055" lon="8.7053617"><ele>108.0</ele><time>2026-04-04T08:42:53.105Z</time></trkpt><trkpt lat="44.9971217" lon="8.7056267"><ele>107.33333333333334</ele><time>2026-04-04T08:42:54.104Z</time></trkpt><trkpt lat="44.9971883" lon="8.7058883"><ele>106.66666666666667</ele><time>2026-04-04T08:42:55.108Z</time></trkpt><trkpt lat="44.9972567" lon="8.7061517"><ele>106.0</ele><time>2026-04-04T08:42:56.101Z</time></trkpt><trkpt lat="44.9973267" lon="8.7064133"><ele>106.0</ele><time>2026-04-04T08:42:57.108Z</time></trkpt><trkpt lat="44.9973967" lon="8.706675"><ele>106.0</ele><time>2026-04-04T08:42:58.101Z</time></trkpt><trkpt lat="44.9974667" lon="8.7069367"><ele>106.0</ele><time>2026-04-04T08:42:59.103Z</time></trkpt><trkpt lat="44.997535" lon="8.7071983"><ele>105.33333333333334</ele><time>2026-04-04T08:43:00.105Z</time></trkpt><trkpt lat="44.9975967" lon="8.7074617"><ele>104.66666666666666</ele><time>2026-04-04T08:43:01.101Z</time></trkpt><trkpt lat="44.9976617" lon="8.7077233"><ele>104.0</ele><time>2026-04-04T08:43:02.1Z</time></trkpt><trkpt lat="44.9977133" lon="8.7079917"><ele>103.66666666666666</ele><time>2026-04-04T08:43:03.106Z</time></trkpt><trkpt lat="44.9977533" lon="8.708265"><ele>103.33333333333334</ele><time>2026-04-04T08:43:04.104Z</time></trkpt><trkpt lat="44.9977983" lon="8.7085383"><ele>103.0</ele><time>2026-04-04T08:43:05.103Z</time></trkpt><trkpt lat="44.9978483" lon="8.7088233"><ele>102.66666666666667</ele><time>2026-04-04T08:43:06.102Z</time></trkpt><trkpt lat="44.9978917" lon="8.7091067"><ele>102.33333333333334</ele><time>2026-04-04T08:43:07.104Z</time></trkpt><trkpt lat="44.9979333" lon="8.7093883"><ele>102.0</ele><time>2026-04-04T08:43:08.104Z</time></trkpt><trkpt lat="44.9979717" lon="8.7096683"><ele>102.0</ele><time>2026-04-04T08:43:09.104Z</time></trkpt><trkpt lat="44.99801" lon="8.709945"><ele>102.0</ele><time>2026-04-04T08:43:10.102Z</time></trkpt><trkpt lat="44.99804" lon="8.7102233"><ele>102.0</ele><time>2026-04-04T08:43:11.102Z</time></trkpt><trkpt lat="44.99805" lon="8.7105033"><ele>101.66666666666666</ele><time>2026-04-04T08:43:12.108Z</time></trkpt><trkpt lat="44.99804" lon="8.7107833"><ele>101.33333333333333</ele><time>2026-04-04T08:43:13.107Z</time></trkpt><trkpt lat="44.9980183" lon="8.71106"><ele>101.0</ele><time>2026-04-04T08:43:14.104Z</time></trkpt><trkpt lat="44.997985" lon="8.7113367"><ele>100.66666666666666</ele><time>2026-04-04T08:43:15.099Z</time></trkpt><trkpt lat="44.997945" lon="8.71161"><ele>100.33333333333334</ele><time>2026-04-04T08:43:16.103Z</time></trkpt><trkpt lat="44.997905" lon="8.7118867"><ele>100.0</ele><time>2026-04-04T08:43:17.102Z</time></trkpt><trkpt lat="44.997865" lon="8.7121633"><ele>100.66666666666667</ele><time>2026-04-04T08:43:18.104Z</time></trkpt><trkpt lat="44.9978283" lon="8.71244"><ele>101.33333333333334</ele><time>2026-04-04T08:43:19.1Z</time></trkpt><trkpt lat="44.9977917" lon="8.7127167"><ele>102.0</ele><time>2026-04-04T08:43:20.11Z</time></trkpt><trkpt lat="44.9977583" lon="8.71299"><ele>102.0</ele><time>2026-04-04T08:43:21.098Z</time></trkpt><trkpt lat="44.9977333" lon="8.7132617"><ele>102.0</ele><time>2026-04-04T08:43:22.104Z</time></trkpt><trkpt lat="44.9977167" lon="8.713535"><ele>102.0</ele><time>2026-04-04T08:43:23.104Z</time></trkpt><trkpt lat="44.99771" lon="8.713805"><ele>101.0</ele><time>2026-04-04T08:43:24.1Z</time></trkpt><trkpt lat="44.99771" lon="8.714075"><ele>100.0</ele><time>2026-04-04T08:43:25.113Z</time></trkpt><trkpt lat="44.997715" lon="8.7143467"><ele>99.0</ele><time>2026-04-04T08:43:26.103Z</time></trkpt><trkpt lat="44.997725" lon="8.7146117"><ele>99.0</ele><time>2026-04-04T08:43:27.102Z</time></trkpt><trkpt lat="44.9977383" lon="8.714875"><ele>99.0</ele><time>2026-04-04T08:43:28.102Z</time></trkpt><trkpt lat="44.9977517" lon="8.7151333"><ele>99.0</ele><time>2026-04-04T08:43:29.1Z</time></trkpt><trkpt lat="44.9977633" lon="8.715395"><ele>98.66666666666666</ele><time>2026-04-04T08:43:30.106Z</time></trkpt><trkpt lat="44.9977767" lon="8.7156517"><ele>98.33333333333333</ele><time>2026-04-04T08:43:31.106Z</time></trkpt><trkpt lat="44.9977883" lon="8.7159117"><ele>98.0</ele><time>2026-04-04T08:43:32.105Z</time></trkpt><trkpt lat="44.9977933" lon="8.716175"><ele>98.0</ele><time>2026-04-04T08:43:33.104Z</time></trkpt><trkpt lat="44.9977867" lon="8.7164417"><ele>98.0</ele><time>2026-04-04T08:43:34.103Z</time></trkpt><trkpt lat="44.9977683" lon="8.716715"><ele>98.0</ele><time>2026-04-04T08:43:35.104Z</time></trkpt><trkpt lat="44.9977417" lon="8.7169867"><ele>98.0</ele><time>2026-04-04T08:43:36.099Z</time></trkpt><trkpt lat="44.99771" lon="8.7172633"><ele>98.0</ele><time>2026-04-04T08:43:37.105Z</time></trkpt><trkpt lat="44.9976717" lon="8.7175417"><ele>98.0</ele><time>2026-04-04T08:43:38.102Z</time></trkpt><trkpt lat="44.997635" lon="8.71782"><ele>98.0</ele><time>2026-04-04T08:43:39.103Z</time></trkpt><trkpt lat="44.997595" lon="8.7181017"><ele>98.0</ele><time>2026-04-04T08:43:40.106Z</time></trkpt><trkpt lat="44.9975583" lon="8.71838"><ele>98.0</ele><time>2026-04-04T08:43:41.099Z</time></trkpt><trkpt lat="44.99752" lon="8.71865"><ele>98.0</ele><time>2026-04-04T08:43:42.099Z</time></trkpt><trkpt lat="44.99748" lon="8.718925"><ele>98.0</ele><time>2026-04-04T08:43:43.104Z</time></trkpt><trkpt lat="44.99744" lon="8.7192017"><ele>98.0</ele><time>2026-04-04T08:43:44.101Z</time></trkpt><trkpt lat="44.9974" lon="8.7194783"><ele>98.0</ele><time>2026-04-04T08:43:45.104Z</time></trkpt><trkpt lat="44.9973583" lon="8.7197517"><ele>98.0</ele><time>2026-04-04T08:43:46.1Z</time></trkpt><trkpt lat="44.9973183" lon="8.720025"><ele>98.0</ele><time>2026-04-04T08:43:47.101Z</time></trkpt><trkpt lat="44.99728" lon="8.720295"><ele>97.0</ele><time>2026-04-04T08:43:48.1Z</time></trkpt><trkpt lat="44.99724" lon="8.720565"><ele>96.0</ele><time>2026-04-04T08:43:49.103Z</time></trkpt><trkpt lat="44.9972" lon="8.7208367"><ele>95.0</ele><time>2026-04-04T08:43:50.102Z</time></trkpt><trkpt lat="44.9971633" lon="8.7211067"><ele>94.33333333333334</ele><time>2026-04-04T08:43:51.097Z</time></trkpt><trkpt lat="44.9971267" lon="8.7213733"><ele>93.66666666666667</ele><time>2026-04-04T08:43:52.107Z</time></trkpt><trkpt lat="44.9970917" lon="8.7216417"><ele>93.0</ele><time>2026-04-04T08:43:53.101Z</time></trkpt><trkpt lat="44.9970583" lon="8.721915"><ele>93.0</ele><time>2026-04-04T08:43:54.1Z</time></trkpt><trkpt lat="44.9970267" lon="8.7221867"><ele>93.0</ele><time>2026-04-04T08:43:55.1Z</time></trkpt><trkpt lat="44.996995" lon="8.7224617"><ele>93.0</ele><time>2026-04-04T08:43:56.101Z</time></trkpt><trkpt lat="44.9969633" lon="8.722735"><ele>93.66666666666667</ele><time>2026-04-04T08:43:57.102Z</time></trkpt><trkpt lat="44.99693" lon="8.7230083"><ele>94.33333333333334</ele><time>2026-04-04T08:43:58.112Z</time></trkpt><trkpt lat="44.996895" lon="8.7232783"><ele>95.0</ele><time>2026-04-04T08:43:59.1Z</time></trkpt><trkpt lat="44.9968533" lon="8.7235417"><ele>95.66666666666667</ele><time>2026-04-04T08:44:00.105Z</time></trkpt><trkpt lat="44.9968117" lon="8.7238017"><ele>96.33333333333334</ele><time>2026-04-04T08:44:01.102Z</time></trkpt><trkpt lat="44.99677" lon="8.7240583"><ele>97.0</ele><time>2026-04-04T08:44:02.103Z</time></trkpt><trkpt lat="44.9967283" lon="8.724315"><ele>97.0</ele><time>2026-04-04T08:44:03.1Z</time></trkpt><trkpt lat="44.99669" lon="8.7245667"><ele>97.0</ele><time>2026-04-04T08:44:04.101Z</time></trkpt><trkpt lat="44.996655" lon="8.7248117"><ele>97.0</ele><time>2026-04-04T08:44:05.102Z</time></trkpt><trkpt lat="44.9966233" lon="8.7250517"><ele>96.66666666666667</ele><time>2026-04-04T08:44:06.102Z</time></trkpt><trkpt lat="44.996595" lon="8.725295"><ele>96.33333333333334</ele><time>2026-04-04T08:44:07.099Z</time></trkpt><trkpt lat="44.996575" lon="8.725545"><ele>96.0</ele><time>2026-04-04T08:44:08.102Z</time></trkpt><trkpt lat="44.9965583" lon="8.7257967"><ele>96.0</ele><time>2026-04-04T08:44:09.104Z</time></trkpt><trkpt lat="44.99654" lon="8.7260533"><ele>96.0</ele><time>2026-04-04T08:44:10.106Z</time></trkpt><trkpt lat="44.9965167" lon="8.7263033"><ele>96.0</ele><time>2026-04-04T08:44:11.102Z</time></trkpt><trkpt lat="44.9964867" lon="8.7265383"><ele>96.33333333333334</ele><time>2026-04-04T08:44:12.106Z</time></trkpt><trkpt lat="44.99645" lon="8.726765"><ele>96.66666666666667</ele><time>2026-04-04T08:44:13.103Z</time></trkpt><trkpt lat="44.996415" lon="8.7269833"><ele>97.0</ele><time>2026-04-04T08:44:14.103Z</time></trkpt><trkpt lat="44.9963833" lon="8.7271933"><ele>97.25</ele><time>2026-04-04T08:44:15.101Z</time></trkpt><trkpt lat="44.9963517" lon="8.7273883"><ele>97.5</ele><time>2026-04-04T08:44:16.106Z</time></trkpt><trkpt lat="44.99633" lon="8.7275733"><ele>97.75</ele><time>2026-04-04T08:44:17.105Z</time></trkpt><trkpt lat="44.9963" lon="8.727735"><ele>98.0</ele><time>2026-04-04T08:44:18.098Z</time></trkpt><trkpt lat="44.996255" lon="8.727875"><ele>97.60000000000001</ele><time>2026-04-04T08:44:19.108Z</time></trkpt><trkpt lat="44.9961917" lon="8.7279983"><ele>97.2</ele><time>2026-04-04T08:44:20.099Z</time></trkpt><trkpt lat="44.9961167" lon="8.7281"><ele>96.8</ele><time>2026-04-04T08:44:21.099Z</time></trkpt><trkpt lat="44.996015" lon="8.728175"><ele>96.4</ele><time>2026-04-04T08:44:22.107Z</time></trkpt><trkpt lat="44.9959017" lon="8.7282317"><ele>96.0</ele><time>2026-04-04T08:44:23.104Z</time></trkpt><trkpt lat="44.99578" lon="8.7282567"><ele>95.75</ele><time>2026-04-04T08:44:24.107Z</time></trkpt><trkpt lat="44.9956483" lon="8.7282483"><ele>95.5</ele><time>2026-04-04T08:44:25.111Z</time></trkpt><trkpt lat="44.995505" lon="8.7282117"><ele>95.25</ele><time>2026-04-04T08:44:26.103Z</time></trkpt><trkpt lat="44.9953533" lon="8.7281633"><ele>95.0</ele><time>2026-04-04T08:44:27.1Z</time></trkpt><trkpt lat="44.9951883" lon="8.7281133"><ele>95.0</ele><time>2026-04-04T08:44:28.103Z</time></trkpt><trkpt lat="44.9950167" lon="8.7280633"><ele>95.0</ele><time>2026-04-04T08:44:29.101Z</time></trkpt><trkpt lat="44.99484" lon="8.7280117"><ele>95.0</ele><time>2026-04-04T08:44:30.101Z</time></trkpt><trkpt lat="44.9946683" lon="8.72796"><ele>95.33333333333334</ele><time>2026-04-04T08:44:31.102Z</time></trkpt><trkpt lat="44.994495" lon="8.7279083"><ele>95.66666666666667</ele><time>2026-04-04T08:44:32.104Z</time></trkpt><trkpt lat="44.99432" lon="8.72786"><ele>96.0</ele><time>2026-04-04T08:44:33.106Z</time></trkpt><trkpt lat="44.99415" lon="8.7278133"><ele>96.0</ele><time>2026-04-04T08:44:34.105Z</time></trkpt><trkpt lat="44.9939767" lon="8.727765"><ele>96.0</ele><time>2026-04-04T08:44:35.112Z</time></trkpt><trkpt lat="44.9938033" lon="8.7277183"><ele>96.0</ele><time>2026-04-04T08:44:36.111Z</time></trkpt><trkpt lat="44.9936333" lon="8.72767"><ele>96.33333333333334</ele><time>2026-04-04T08:44:37.104Z</time></trkpt><trkpt lat="44.9934717" lon="8.7276217"><ele>96.66666666666667</ele><time>2026-04-04T08:44:38.102Z</time></trkpt><trkpt lat="44.9933183" lon="8.7275767"><ele>97.0</ele><time>2026-04-04T08:44:39.099Z</time></trkpt><trkpt lat="44.9931717" lon="8.7275317"><ele>96.33333333333334</ele><time>2026-04-04T08:44:40.107Z</time></trkpt><trkpt lat="44.9930233" lon="8.7274867"><ele>95.66666666666667</ele><time>2026-04-04T08:44:41.101Z</time></trkpt><trkpt lat="44.99287" lon="8.72744"><ele>95.0</ele><time>2026-04-04T08:44:42.099Z</time></trkpt><trkpt lat="44.99271" lon="8.7273917"><ele>95.0</ele><time>2026-04-04T08:44:43.115Z</time></trkpt><trkpt lat="44.992545" lon="8.7273433"><ele>95.0</ele><time>2026-04-04T08:44:44.102Z</time></trkpt><trkpt lat="44.992375" lon="8.72729"><ele>95.0</ele><time>2026-04-04T08:44:45.105Z</time></trkpt><trkpt lat="44.9922" lon="8.727235"><ele>94.66666666666667</ele><time>2026-04-04T08:44:46.098Z</time></trkpt><trkpt lat="44.9920217" lon="8.7271783"><ele>94.33333333333333</ele><time>2026-04-04T08:44:47.1Z</time></trkpt><trkpt lat="44.9918383" lon="8.7271183"><ele>94.0</ele><time>2026-04-04T08:44:48.103Z</time></trkpt><trkpt lat="44.99165" lon="8.7270617"><ele>94.0</ele><time>2026-04-04T08:44:49.111Z</time></trkpt><trkpt lat="44.9914583" lon="8.7270067"><ele>94.0</ele><time>2026-04-04T08:44:50.103Z</time></trkpt><trkpt lat="44.9912667" lon="8.7269517"><ele>94.0</ele><time>2026-04-04T08:44:51.1Z</time></trkpt><trkpt lat="44.9910767" lon="8.7268967"><ele>94.33333333333333</ele><time>2026-04-04T08:44:52.105Z</time></trkpt><trkpt lat="44.9908883" lon="8.7268417"><ele>94.66666666666667</ele><time>2026-04-04T08:44:53.106Z</time></trkpt><trkpt lat="44.9907" lon="8.72679"><ele>95.0</ele><time>2026-04-04T08:44:54.105Z</time></trkpt><trkpt lat="44.9905117" lon="8.7267333"><ele>95.0</ele><time>2026-04-04T08:44:55.1Z</time></trkpt><trkpt lat="44.990325" lon="8.7266733"><ele>95.0</ele><time>2026-04-04T08:44:56.1Z</time></trkpt><trkpt lat="44.9901367" lon="8.7266117"><ele>95.0</ele><time>2026-04-04T08:44:57.107Z</time></trkpt><trkpt lat="44.9899517" lon="8.7265517"><ele>94.66666666666667</ele><time>2026-04-04T08:44:58.103Z</time></trkpt><trkpt lat="44.9897683" lon="8.7264917"><ele>94.33333333333333</ele><time>2026-04-04T08:44:59.101Z</time></trkpt><trkpt lat="44.9895867" lon="8.7264233"><ele>94.0</ele><time>2026-04-04T08:45:00.109Z</time></trkpt><trkpt lat="44.9894083" lon="8.7263533"><ele>94.0</ele><time>2026-04-04T08:45:01.101Z</time></trkpt><trkpt lat="44.9892283" lon="8.7262833"><ele>94.0</ele><time>2026-04-04T08:45:02.104Z</time></trkpt><trkpt lat="44.9890483" lon="8.7262067"><ele>94.0</ele><time>2026-04-04T08:45:03.101Z</time></trkpt><trkpt lat="44.98887" lon="8.7261333"><ele>94.66666666666666</ele><time>2026-04-04T08:45:04.103Z</time></trkpt><trkpt lat="44.9886933" lon="8.7260633"><ele>95.33333333333333</ele><time>2026-04-04T08:45:05.105Z</time></trkpt><trkpt lat="44.9885183" lon="8.7259983"><ele>96.0</ele><time>2026-04-04T08:45:06.104Z</time></trkpt><trkpt lat="44.988345" lon="8.7259417"><ele>96.0</ele><time>2026-04-04T08:45:07.104Z</time></trkpt><trkpt lat="44.9881717" lon="8.7258867"><ele>96.0</ele><time>2026-04-04T08:45:08.103Z</time></trkpt><trkpt lat="44.9879983" lon="8.7258417"><ele>96.0</ele><time>2026-04-04T08:45:09.106Z</time></trkpt><trkpt lat="44.9878267" lon="8.7257833"><ele>96.0</ele><time>2026-04-04T08:45:10.101Z</time></trkpt><trkpt lat="44.987655" lon="8.725725"><ele>96.0</ele><time>2026-04-04T08:45:11.101Z</time></trkpt><trkpt lat="44.9874817" lon="8.7256767"><ele>96.0</ele><time>2026-04-04T08:45:12.101Z</time></trkpt><trkpt lat="44.9873117" lon="8.7256217"><ele>95.66666666666667</ele><time>2026-04-04T08:45:13.104Z</time></trkpt><trkpt lat="44.98714" lon="8.7255733"><ele>95.33333333333334</ele><time>2026-04-04T08:45:14.102Z</time></trkpt><trkpt lat="44.98697" lon="8.7255317"><ele>95.0</ele><time>2026-04-04T08:45:15.105Z</time></trkpt><trkpt lat="44.9868017" lon="8.7254967"><ele>95.33333333333334</ele><time>2026-04-04T08:45:16.107Z</time></trkpt><trkpt lat="44.986635" lon="8.725475"><ele>95.66666666666667</ele><time>2026-04-04T08:45:17.106Z</time></trkpt><trkpt lat="44.9864633" lon="8.7254683"><ele>96.0</ele><time>2026-04-04T08:45:18.104Z</time></trkpt><trkpt lat="44.986295" lon="8.725465"><ele>96.0</ele><time>2026-04-04T08:45:19.107Z</time></trkpt><trkpt lat="44.98613" lon="8.7254817"><ele>96.0</ele><time>2026-04-04T08:45:20.109Z</time></trkpt><trkpt lat="44.9859617" lon="8.72552"><ele>96.0</ele><time>2026-04-04T08:45:21.106Z</time></trkpt><trkpt lat="44.9857983" lon="8.7255767"><ele>95.66666666666667</ele><time>2026-04-04T08:45:22.11Z</time></trkpt><trkpt lat="44.9856383" lon="8.72566"><ele>95.33333333333334</ele><time>2026-04-04T08:45:23.103Z</time></trkpt><trkpt lat="44.98548" lon="8.7257633"><ele>95.0</ele><time>2026-04-04T08:45:24.106Z</time></trkpt><trkpt lat="44.98533" lon="8.7258883"><ele>95.0</ele><time>2026-04-04T08:45:25.106Z</time></trkpt><trkpt lat="44.985185" lon="8.72603"><ele>95.0</ele><time>2026-04-04T08:45:26.104Z</time></trkpt><trkpt lat="44.9850417" lon="8.7261867"><ele>95.0</ele><time>2026-04-04T08:45:27.099Z</time></trkpt><trkpt lat="44.9849033" lon="8.7263467"><ele>92.33333333333334</ele><time>2026-04-04T08:45:28.103Z</time></trkpt><trkpt lat="44.9847667" lon="8.72651"><ele>89.66666666666667</ele><time>2026-04-04T08:45:29.113Z</time></trkpt><trkpt lat="44.9846333" lon="8.7266767"><ele>87.0</ele><time>2026-04-04T08:45:30.101Z</time></trkpt><trkpt lat="44.9844967" lon="8.7268383"><ele>86.0</ele><time>2026-04-04T08:45:31.105Z</time></trkpt><trkpt lat="44.9843583" lon="8.72701"><ele>85.0</ele><time>2026-04-04T08:45:32.109Z</time></trkpt><trkpt lat="44.9842233" lon="8.727175"><ele>84.0</ele><time>2026-04-04T08:45:33.102Z</time></trkpt><trkpt lat="44.9840867" lon="8.72733"><ele>82.33333333333333</ele><time>2026-04-04T08:45:34.103Z</time></trkpt><trkpt lat="44.9839583" lon="8.7274817"><ele>80.66666666666666</ele><time>2026-04-04T08:45:35.109Z</time></trkpt><trkpt lat="44.9838317" lon="8.7276267"><ele>79.0</ele><time>2026-04-04T08:45:36.104Z</time></trkpt><trkpt lat="44.9837117" lon="8.7277683"><ele>79.0</ele><time>2026-04-04T08:45:37.102Z</time></trkpt><trkpt lat="44.9835917" lon="8.7279133"><ele>79.0</ele><time>2026-04-04T08:45:38.101Z</time></trkpt><trkpt lat="44.9834683" lon="8.7280567"><ele>79.0</ele><time>2026-04-04T08:45:39.104Z</time></trkpt><trkpt lat="44.983345" lon="8.72822"><ele>79.33333333333333</ele><time>2026-04-04T08:45:40.099Z</time></trkpt><trkpt lat="44.98321" lon="8.7283833"><ele>79.66666666666667</ele><time>2026-04-04T08:45:41.108Z</time></trkpt><trkpt lat="44.98307" lon="8.728555"><ele>80.0</ele><time>2026-04-04T08:45:42.1Z</time></trkpt><trkpt lat="44.9829183" lon="8.72873"><ele>80.0</ele><time>2026-04-04T08:45:43.104Z</time></trkpt><trkpt lat="44.982765" lon="8.728905"><ele>80.0</ele><time>2026-04-04T08:45:44.099Z</time></trkpt><trkpt lat="44.9826133" lon="8.7290817"><ele>80.0</ele><time>2026-04-04T08:45:45.101Z</time></trkpt><trkpt lat="44.9824617" lon="8.72926"><ele>80.66666666666667</ele><time>2026-04-04T08:45:46.099Z</time></trkpt><trkpt lat="44.9823183" lon="8.729435"><ele>81.33333333333333</ele><time>2026-04-04T08:45:47.107Z</time></trkpt><trkpt lat="44.9821783" lon="8.7296217"><ele>82.0</ele><time>2026-04-04T08:45:48.101Z</time></trkpt><trkpt lat="44.98204" lon="8.7298183"><ele>82.0</ele><time>2026-04-04T08:45:49.101Z</time></trkpt><trkpt lat="44.981905" lon="8.73003"><ele>82.0</ele><time>2026-04-04T08:45:50.104Z</time></trkpt><trkpt lat="44.9817717" lon="8.7302517"><ele>82.0</ele><time>2026-04-04T08:45:51.101Z</time></trkpt><trkpt lat="44.981645" lon="8.7305033"><ele>82.0</ele><time>2026-04-04T08:45:52.1Z</time></trkpt><trkpt lat="44.98152" lon="8.7307617"><ele>82.0</ele><time>2026-04-04T08:45:53.1Z</time></trkpt><trkpt lat="44.9814033" lon="8.7310317"><ele>82.0</ele><time>2026-04-04T08:45:54.101Z</time></trkpt><trkpt lat="44.9813017" lon="8.73131"><ele>82.0</ele><time>2026-04-04T08:45:55.1Z</time></trkpt><trkpt lat="44.9812067" lon="8.7315883"><ele>82.0</ele><time>2026-04-04T08:45:56.105Z</time></trkpt><trkpt lat="44.98112" lon="8.7318633"><ele>82.0</ele><time>2026-04-04T08:45:57.101Z</time></trkpt><trkpt lat="44.9810383" lon="8.7321383"><ele>81.66666666666666</ele><time>2026-04-04T08:45:58.1Z</time></trkpt><trkpt lat="44.980955" lon="8.73241"><ele>81.33333333333333</ele><time>2026-04-04T08:45:59.101Z</time></trkpt><trkpt lat="44.98087" lon="8.7326817"><ele>81.0</ele><time>2026-04-04T08:46:00.105Z</time></trkpt><trkpt lat="44.9807833" lon="8.7329533"><ele>81.33333333333333</ele><time>2026-04-04T08:46:01.104Z</time></trkpt><trkpt lat="44.980695" lon="8.73323"><ele>81.66666666666666</ele><time>2026-04-04T08:46:02.1Z</time></trkpt><trkpt lat="44.9806083" lon="8.73351"><ele>82.0</ele><time>2026-04-04T08:46:03.099Z</time></trkpt><trkpt lat="44.9805217" lon="8.7337867"><ele>82.0</ele><time>2026-04-04T08:46:04.097Z</time></trkpt><trkpt lat="44.9804333" lon="8.7340683"><ele>82.0</ele><time>2026-04-04T08:46:05.112Z</time></trkpt><trkpt lat="44.980345" lon="8.7343517"><ele>82.0</ele><time>2026-04-04T08:46:06.101Z</time></trkpt><trkpt lat="44.9802567" lon="8.7346367"><ele>82.0</ele><time>2026-04-04T08:46:07.107Z</time></trkpt><trkpt lat="44.9801667" lon="8.7349283"><ele>82.0</ele><time>2026-04-04T08:46:08.101Z</time></trkpt><trkpt lat="44.980075" lon="8.7352167"><ele>82.0</ele><time>2026-04-04T08:46:09.1Z</time></trkpt><trkpt lat="44.9799833" lon="8.7355033"><ele>82.0</ele><time>2026-04-04T08:46:10.101Z</time></trkpt><trkpt lat="44.9798917" lon="8.735795"><ele>82.0</ele><time>2026-04-04T08:46:11.105Z</time></trkpt><trkpt lat="44.9798017" lon="8.7360867"><ele>82.0</ele><time>2026-04-04T08:46:12.104Z</time></trkpt><trkpt lat="44.9797117" lon="8.7363783"><ele>82.0</ele><time>2026-04-04T08:46:13.103Z</time></trkpt><trkpt lat="44.9796233" lon="8.73667"><ele>82.5</ele><time>2026-04-04T08:46:14.107Z</time></trkpt><trkpt lat="44.9795333" lon="8.7369633"><ele>83.0</ele><time>2026-04-04T08:46:15.099Z</time></trkpt><trkpt lat="44.97944" lon="8.7372583"><ele>83.0</ele><time>2026-04-04T08:46:16.102Z</time></trkpt><trkpt lat="44.9793467" lon="8.7375483"><ele>83.0</ele><time>2026-04-04T08:46:17.1Z</time></trkpt><trkpt lat="44.979255" lon="8.7378367"><ele>83.0</ele><time>2026-04-04T08:46:18.102Z</time></trkpt><trkpt lat="44.979165" lon="8.7381267"><ele>83.33333333333334</ele><time>2026-04-04T08:46:19.101Z</time></trkpt><trkpt lat="44.9790767" lon="8.7384117"><ele>83.66666666666667</ele><time>2026-04-04T08:46:20.102Z</time></trkpt><trkpt lat="44.9789917" lon="8.738685"><ele>84.0</ele><time>2026-04-04T08:46:21.104Z</time></trkpt><trkpt lat="44.97891" lon="8.7389467"><ele>84.0</ele><time>2026-04-04T08:46:22.104Z</time></trkpt><trkpt lat="44.9788317" lon="8.7391983"><ele>84.0</ele><time>2026-04-04T08:46:23.11Z</time></trkpt><trkpt lat="44.97875" lon="8.7394433"><ele>84.0</ele><time>2026-04-04T08:46:24.107Z</time></trkpt><trkpt lat="44.9786683" lon="8.7396833"><ele>83.66666666666667</ele><time>2026-04-04T08:46:25.107Z</time></trkpt><trkpt lat="44.978575" lon="8.7399167"><ele>83.33333333333334</ele><time>2026-04-04T08:46:26.102Z</time></trkpt><trkpt lat="44.9784717" lon="8.74014"><ele>83.0</ele><time>2026-04-04T08:46:27.101Z</time></trkpt><trkpt lat="44.9783533" lon="8.74035"><ele>82.66666666666667</ele><time>2026-04-04T08:46:28.101Z</time></trkpt><trkpt lat="44.9782233" lon="8.7405533"><ele>82.33333333333333</ele><time>2026-04-04T08:46:29.099Z</time></trkpt><trkpt lat="44.978085" lon="8.740755"><ele>82.0</ele><time>2026-04-04T08:46:30.109Z</time></trkpt><trkpt lat="44.977945" lon="8.74096"><ele>81.66666666666666</ele><time>2026-04-04T08:46:31.1Z</time></trkpt><trkpt lat="44.9778033" lon="8.7411683"><ele>81.33333333333333</ele><time>2026-04-04T08:46:32.101Z</time></trkpt><trkpt lat="44.9776567" lon="8.7413867"><ele>81.0</ele><time>2026-04-04T08:46:33.102Z</time></trkpt><trkpt lat="44.97751" lon="8.741605"><ele>80.66666666666667</ele><time>2026-04-04T08:46:34.103Z</time></trkpt><trkpt lat="44.9773617" lon="8.7418267"><ele>80.33333333333334</ele><time>2026-04-04T08:46:35.102Z</time></trkpt><trkpt lat="44.9772133" lon="8.742055"><ele>80.0</ele><time>2026-04-04T08:46:36.1Z</time></trkpt><trkpt lat="44.9770633" lon="8.7422783"><ele>80.0</ele><time>2026-04-04T08:46:37.111Z</time></trkpt><trkpt lat="44.9769133" lon="8.7425033"><ele>80.0</ele><time>2026-04-04T08:46:38.105Z</time></trkpt><trkpt lat="44.9767583" lon="8.7427233"><ele>80.0</ele><time>2026-04-04T08:46:39.106Z</time></trkpt><trkpt lat="44.9766083" lon="8.7429433"><ele>80.33333333333334</ele><time>2026-04-04T08:46:40.101Z</time></trkpt><trkpt lat="44.9764617" lon="8.743155"><ele>80.66666666666667</ele><time>2026-04-04T08:46:41.101Z</time></trkpt><trkpt lat="44.9763167" lon="8.7433633"><ele>81.0</ele><time>2026-04-04T08:46:42.103Z</time></trkpt><trkpt lat="44.9761733" lon="8.7435683"><ele>81.0</ele><time>2026-04-04T08:46:43.101Z</time></trkpt><trkpt lat="44.9760317" lon="8.7437683"><ele>81.0</ele><time>2026-04-04T08:46:44.103Z</time></trkpt><trkpt lat="44.9758933" lon="8.7439683"><ele>81.0</ele><time>2026-04-04T08:46:45.098Z</time></trkpt><trkpt lat="44.975755" lon="8.7441667"><ele>81.0</ele><time>2026-04-04T08:46:46.098Z</time></trkpt><trkpt lat="44.9756167" lon="8.7443783"><ele>81.0</ele><time>2026-04-04T08:46:47.103Z</time></trkpt><trkpt lat="44.9754817" lon="8.744585"><ele>81.0</ele><time>2026-04-04T08:46:48.101Z</time></trkpt><trkpt lat="44.9753467" lon="8.7447883"><ele>81.0</ele><time>2026-04-04T08:46:49.106Z</time></trkpt><trkpt lat="44.9752117" lon="8.744995"><ele>81.0</ele><time>2026-04-04T08:46:50.104Z</time></trkpt><trkpt lat="44.9750733" lon="8.745195"><ele>81.0</ele><time>2026-04-04T08:46:51.102Z</time></trkpt><trkpt lat="44.9749417" lon="8.7453933"><ele>81.33333333333333</ele><time>2026-04-04T08:46:52.104Z</time></trkpt><trkpt lat="44.974815" lon="8.7455833"><ele>81.66666666666666</ele><time>2026-04-04T08:46:53.101Z</time></trkpt><trkpt lat="44.9746917" lon="8.7457567"><ele>82.0</ele><time>2026-04-04T08:46:54.106Z</time></trkpt><trkpt lat="44.97457" lon="8.7459233"><ele>81.66666666666666</ele><time>2026-04-04T08:46:55.103Z</time></trkpt><trkpt lat="44.9744567" lon="8.7460867"><ele>81.33333333333333</ele><time>2026-04-04T08:46:56.102Z</time></trkpt><trkpt lat="44.9743433" lon="8.746245"><ele>81.0</ele><time>2026-04-04T08:46:57.104Z</time></trkpt><trkpt lat="44.9742383" lon="8.7463967"><ele>81.0</ele><time>2026-04-04T08:46:58.104Z</time></trkpt><trkpt lat="44.9741433" lon="8.746535"><ele>81.0</ele><time>2026-04-04T08:46:59.104Z</time></trkpt><trkpt lat="44.97406" lon="8.7466567"><ele>81.0</ele><time>2026-04-04T08:47:00.099Z</time></trkpt><trkpt lat="44.9739917" lon="8.7467583"><ele>81.0</ele><time>2026-04-04T08:47:01.1Z</time></trkpt><trkpt lat="44.9739367" lon="8.7468467"><ele>81.0</ele><time>2026-04-04T08:47:02.101Z</time></trkpt><trkpt lat="44.9738867" lon="8.7469167"><ele>81.0</ele><time>2026-04-04T08:47:03.099Z</time></trkpt><trkpt lat="44.9738083" lon="8.746985"><ele>81.0</ele><time>2026-04-04T08:47:05.101Z</time></trkpt><trkpt lat="44.9736983" lon="8.7470333"><ele>81.0</ele><time>2026-04-04T08:47:07.11Z</time></trkpt><trkpt lat="44.9736283" lon="8.7470733"><ele>81.0</ele><time>2026-04-04T08:47:08.1Z</time></trkpt><trkpt lat="44.9735717" lon="8.74713"><ele>81.0</ele><time>2026-04-04T08:47:09.102Z</time></trkpt><trkpt lat="44.9735317" lon="8.7472"><ele>81.0</ele><time>2026-04-04T08:47:10.105Z</time></trkpt><trkpt lat="44.973555" lon="8.7473233"><ele>81.0</ele><time>2026-04-04T08:47:11.104Z</time></trkpt><trkpt lat="44.97358" lon="8.7474283"><ele>81.0</ele><time>2026-04-04T08:47:12.104Z</time></trkpt><trkpt lat="44.9736283" lon="8.7475217"><ele>81.0</ele><time>2026-04-04T08:47:13.106Z</time></trkpt><trkpt lat="44.97372" lon="8.747575"><ele>81.0</ele><time>2026-04-04T08:47:14.101Z</time></trkpt><trkpt lat="44.9738183" lon="8.7476333"><ele>81.0</ele><time>2026-04-04T08:47:15.101Z</time></trkpt><trkpt lat="44.9739117" lon="8.7477517"><ele>81.0</ele><time>2026-04-04T08:47:16.106Z</time></trkpt><trkpt lat="44.9740083" lon="8.7478833"><ele>81.0</ele><time>2026-04-04T08:47:17.1Z</time></trkpt><trkpt lat="44.9741017" lon="8.7480267"><ele>81.0</ele><time>2026-04-04T08:47:18.104Z</time></trkpt><trkpt lat="44.9742" lon="8.7481833"><ele>81.0</ele><time>2026-04-04T08:47:19.103Z</time></trkpt><trkpt lat="44.9743033" lon="8.7483533"><ele>80.66666666666667</ele><time>2026-04-04T08:47:20.103Z</time></trkpt><trkpt lat="44.9744117" lon="8.7485383"><ele>80.33333333333334</ele><time>2026-04-04T08:47:21.104Z</time></trkpt><trkpt lat="44.9745267" lon="8.748735"><ele>80.0</ele><time>2026-04-04T08:47:22.101Z</time></trkpt><trkpt lat="44.9746433" lon="8.748935"><ele>80.0</ele><time>2026-04-04T08:47:23.099Z</time></trkpt><trkpt lat="44.97476" lon="8.7491317"><ele>80.0</ele><time>2026-04-04T08:47:24.1Z</time></trkpt><trkpt lat="44.97488" lon="8.7493333"><ele>80.0</ele><time>2026-04-04T08:47:25.103Z</time></trkpt><trkpt lat="44.9749967" lon="8.7495367"><ele>80.0</ele><time>2026-04-04T08:47:26.101Z</time></trkpt><trkpt lat="44.97511" lon="8.74974"><ele>80.0</ele><time>2026-04-04T08:47:27.105Z</time></trkpt><trkpt lat="44.9752217" lon="8.7499383"><ele>80.0</ele><time>2026-04-04T08:47:28.105Z</time></trkpt><trkpt lat="44.9753333" lon="8.7501367"><ele>79.66666666666667</ele><time>2026-04-04T08:47:29.1Z</time></trkpt><trkpt lat="44.975445" lon="8.75033"><ele>79.33333333333333</ele><time>2026-04-04T08:47:30.105Z</time></trkpt><trkpt lat="44.9755533" lon="8.7505233"><ele>79.0</ele><time>2026-04-04T08:47:31.101Z</time></trkpt><trkpt lat="44.97566" lon="8.750715"><ele>79.0</ele><time>2026-04-04T08:47:32.104Z</time></trkpt><trkpt lat="44.9757667" lon="8.750905"><ele>79.0</ele><time>2026-04-04T08:47:33.104Z</time></trkpt><trkpt lat="44.9758733" lon="8.75109"><ele>79.0</ele><time>2026-04-04T08:47:34.102Z</time></trkpt><trkpt lat="44.97598" lon="8.7512717"><ele>80.0</ele><time>2026-04-04T08:47:35.105Z</time></trkpt><trkpt lat="44.9760833" lon="8.7514517"><ele>81.0</ele><time>2026-04-04T08:47:36.101Z</time></trkpt><trkpt lat="44.9761867" lon="8.75163"><ele>82.0</ele><time>2026-04-04T08:47:37.101Z</time></trkpt><trkpt lat="44.9762883" lon="8.75181"><ele>82.0</ele><time>2026-04-04T08:47:38.099Z</time></trkpt><trkpt lat="44.9763867" lon="8.7519933"><ele>82.0</ele><time>2026-04-04T08:47:39.1Z</time></trkpt><trkpt lat="44.97648" lon="8.7521817"><ele>82.0</ele><time>2026-04-04T08:47:40.101Z</time></trkpt><trkpt lat="44.976575" lon="8.75237"><ele>82.0</ele><time>2026-04-04T08:47:41.099Z</time></trkpt><trkpt lat="44.9766633" lon="8.7525667"><ele>82.0</ele><time>2026-04-04T08:47:42.102Z</time></trkpt><trkpt lat="44.976745" lon="8.75277"><ele>82.0</ele><time>2026-04-04T08:47:43.106Z</time></trkpt><trkpt lat="44.9768233" lon="8.752975"><ele>81.66666666666666</ele><time>2026-04-04T08:47:44.105Z</time></trkpt><trkpt lat="44.9768967" lon="8.7531783"><ele>81.33333333333333</ele><time>2026-04-04T08:47:45.106Z</time></trkpt><trkpt lat="44.976965" lon="8.75338"><ele>81.0</ele><time>2026-04-04T08:47:46.101Z</time></trkpt><trkpt lat="44.9770267" lon="8.7535767"><ele>81.5</ele><time>2026-04-04T08:47:47.101Z</time></trkpt><trkpt lat="44.9770833" lon="8.753765"><ele>82.0</ele><time>2026-04-04T08:47:48.107Z</time></trkpt><trkpt lat="44.977135" lon="8.7539467"><ele>82.5</ele><time>2026-04-04T08:47:49.1Z</time></trkpt><trkpt lat="44.9771817" lon="8.7541183"><ele>83.0</ele><time>2026-04-04T08:47:50.101Z</time></trkpt><trkpt lat="44.9772217" lon="8.7542883"><ele>83.0</ele><time>2026-04-04T08:47:51.1Z</time></trkpt><trkpt lat="44.977255" lon="8.7544517"><ele>83.0</ele><time>2026-04-04T08:47:52.1Z</time></trkpt><trkpt lat="44.9772933" lon="8.7546067"><ele>83.0</ele><time>2026-04-04T08:47:53.105Z</time></trkpt><trkpt lat="44.9773283" lon="8.75476"><ele>83.0</ele><time>2026-04-04T08:47:54.102Z</time></trkpt><trkpt lat="44.977365" lon="8.7549217"><ele>83.0</ele><time>2026-04-04T08:47:55.105Z</time></trkpt><trkpt lat="44.9774083" lon="8.7550883"><ele>83.0</ele><time>2026-04-04T08:47:56.106Z</time></trkpt><trkpt lat="44.9774467" lon="8.7552667"><ele>83.0</ele><time>2026-04-04T08:47:57.099Z</time></trkpt><trkpt lat="44.9774883" lon="8.75545"><ele>83.0</ele><time>2026-04-04T08:47:58.106Z</time></trkpt><trkpt lat="44.9775317" lon="8.7556383"><ele>82.5</ele><time>2026-04-04T08:47:59.105Z</time></trkpt><trkpt lat="44.9775783" lon="8.7558267"><ele>82.0</ele><time>2026-04-04T08:48:00.105Z</time></trkpt><trkpt lat="44.9776217" lon="8.7560167"><ele>81.5</ele><time>2026-04-04T08:48:01.102Z</time></trkpt><trkpt lat="44.97767" lon="8.756205"><ele>81.0</ele><time>2026-04-04T08:48:02.103Z</time></trkpt><trkpt lat="44.97772" lon="8.75639"><ele>81.0</ele><time>2026-04-04T08:48:03.106Z</time></trkpt><trkpt lat="44.9777667" lon="8.756575"><ele>81.0</ele><time>2026-04-04T08:48:04.104Z</time></trkpt><trkpt lat="44.9778117" lon="8.75676"><ele>81.0</ele><time>2026-04-04T08:48:05.106Z</time></trkpt><trkpt lat="44.9778583" lon="8.7569467"><ele>81.0</ele><time>2026-04-04T08:48:06.103Z</time></trkpt><trkpt lat="44.977905" lon="8.757135"><ele>81.0</ele><time>2026-04-04T08:48:07.101Z</time></trkpt><trkpt lat="44.97795" lon="8.757325"><ele>81.0</ele><time>2026-04-04T08:48:08.105Z</time></trkpt><trkpt lat="44.9779967" lon="8.7575133"><ele>81.0</ele><time>2026-04-04T08:48:09.104Z</time></trkpt><trkpt lat="44.9780433" lon="8.7576983"><ele>81.0</ele><time>2026-04-04T08:48:10.1Z</time></trkpt><trkpt lat="44.9780867" lon="8.7578817"><ele>81.25</ele><time>2026-04-04T08:48:11.104Z</time></trkpt><trkpt lat="44.9781283" lon="8.7580667"><ele>81.5</ele><time>2026-04-04T08:48:12.102Z</time></trkpt><trkpt lat="44.978165" lon="8.75825"><ele>81.75</ele><time>2026-04-04T08:48:13.104Z</time></trkpt><trkpt lat="44.9782067" lon="8.758425"><ele>82.0</ele><time>2026-04-04T08:48:14.104Z</time></trkpt><trkpt lat="44.9782417" lon="8.7585933"><ele>82.25</ele><time>2026-04-04T08:48:15.104Z</time></trkpt><trkpt lat="44.9782733" lon="8.7587617"><ele>82.5</ele><time>2026-04-04T08:48:16.103Z</time></trkpt><trkpt lat="44.978305" lon="8.758935"><ele>82.75</ele><time>2026-04-04T08:48:17.106Z</time></trkpt><trkpt lat="44.9783383" lon="8.7591183"><ele>83.0</ele><time>2026-04-04T08:48:18.106Z</time></trkpt><trkpt lat="44.9783767" lon="8.75931"><ele>82.33333333333334</ele><time>2026-04-04T08:48:19.104Z</time></trkpt><trkpt lat="44.978415" lon="8.75951"><ele>81.66666666666667</ele><time>2026-04-04T08:48:20.101Z</time></trkpt><trkpt lat="44.97846" lon="8.7597183"><ele>81.0</ele><time>2026-04-04T08:48:21.1Z</time></trkpt><trkpt lat="44.9785083" lon="8.7599283"><ele>81.0</ele><time>2026-04-04T08:48:22.107Z</time></trkpt><trkpt lat="44.9785583" lon="8.7601483"><ele>81.0</ele><time>2026-04-04T08:48:23.104Z</time></trkpt><trkpt lat="44.978605" lon="8.7603817"><ele>81.0</ele><time>2026-04-04T08:48:24.101Z</time></trkpt><trkpt lat="44.9786533" lon="8.7606167"><ele>81.33333333333333</ele><time>2026-04-04T08:48:25.099Z</time></trkpt><trkpt lat="44.9786967" lon="8.76086"><ele>81.66666666666666</ele><time>2026-04-04T08:48:26.104Z</time></trkpt><trkpt lat="44.9787433" lon="8.76109"><ele>82.0</ele><time>2026-04-04T08:48:27.097Z</time></trkpt><trkpt lat="44.97877" lon="8.761335"><ele>82.0</ele><time>2026-04-04T08:48:28.104Z</time></trkpt><trkpt lat="44.9787917" lon="8.7615717"><ele>82.0</ele><time>2026-04-04T08:48:29.108Z</time></trkpt><trkpt lat="44.9788133" lon="8.761805"><ele>82.0</ele><time>2026-04-04T08:48:30.107Z</time></trkpt><trkpt lat="44.97883" lon="8.76204"><ele>82.0</ele><time>2026-04-04T08:48:31.1Z</time></trkpt><trkpt lat="44.9788333" lon="8.76228"><ele>82.0</ele><time>2026-04-04T08:48:32.101Z</time></trkpt><trkpt lat="44.978835" lon="8.7625217"><ele>82.0</ele><time>2026-04-04T08:48:33.101Z</time></trkpt><trkpt lat="44.97883" lon="8.7627683"><ele>82.0</ele><time>2026-04-04T08:48:34.103Z</time></trkpt><trkpt lat="44.9788183" lon="8.763015"><ele>82.0</ele><time>2026-04-04T08:48:35.106Z</time></trkpt><trkpt lat="44.9788" lon="8.7632583"><ele>82.0</ele><time>2026-04-04T08:48:36.101Z</time></trkpt><trkpt lat="44.9787783" lon="8.7635017"><ele>82.33333333333333</ele><time>2026-04-04T08:48:37.102Z</time></trkpt><trkpt lat="44.9787533" lon="8.763745"><ele>82.66666666666667</ele><time>2026-04-04T08:48:38.104Z</time></trkpt><trkpt lat="44.9787283" lon="8.7639867"><ele>83.0</ele><time>2026-04-04T08:48:39.104Z</time></trkpt><trkpt lat="44.9787017" lon="8.76423"><ele>82.66666666666667</ele><time>2026-04-04T08:48:40.106Z</time></trkpt><trkpt lat="44.9786783" lon="8.764475"><ele>82.33333333333333</ele><time>2026-04-04T08:48:41.101Z</time></trkpt><trkpt lat="44.9786567" lon="8.7647183"><ele>82.0</ele><time>2026-04-04T08:48:42.1Z</time></trkpt><trkpt lat="44.97864" lon="8.7649617"><ele>80.66666666666666</ele><time>2026-04-04T08:48:43.102Z</time></trkpt><trkpt lat="44.9786333" lon="8.7652033"><ele>79.33333333333333</ele><time>2026-04-04T08:48:44.101Z</time></trkpt><trkpt lat="44.9786333" lon="8.765445"><ele>78.0</ele><time>2026-04-04T08:48:45.1Z</time></trkpt><trkpt lat="44.97864" lon="8.7656867"><ele>78.0</ele><time>2026-04-04T08:48:46.1Z</time></trkpt><trkpt lat="44.9786483" lon="8.7659283"><ele>78.0</ele><time>2026-04-04T08:48:47.104Z</time></trkpt><trkpt lat="44.97866" lon="8.766165"><ele>78.0</ele><time>2026-04-04T08:48:48.103Z</time></trkpt><trkpt lat="44.9786733" lon="8.7664017"><ele>78.33333333333333</ele><time>2026-04-04T08:48:49.104Z</time></trkpt><trkpt lat="44.9786883" lon="8.7666383"><ele>78.66666666666666</ele><time>2026-04-04T08:48:50.099Z</time></trkpt><trkpt lat="44.9787067" lon="8.7668767"><ele>79.0</ele><time>2026-04-04T08:48:51.099Z</time></trkpt><trkpt lat="44.9787333" lon="8.7671117"><ele>79.0</ele><time>2026-04-04T08:48:52.106Z</time></trkpt><trkpt lat="44.9787667" lon="8.7673433"><ele>79.0</ele><time>2026-04-04T08:48:53.098Z</time></trkpt><trkpt lat="44.9788083" lon="8.767575"><ele>79.0</ele><time>2026-04-04T08:48:54.1Z</time></trkpt><trkpt lat="44.978855" lon="8.7678067"><ele>79.66666666666666</ele><time>2026-04-04T08:48:55.101Z</time></trkpt><trkpt lat="44.9789067" lon="8.76804"><ele>80.33333333333333</ele><time>2026-04-04T08:48:56.105Z</time></trkpt><trkpt lat="44.97896" lon="8.7682733"><ele>81.0</ele><time>2026-04-04T08:48:57.104Z</time></trkpt><trkpt lat="44.979015" lon="8.7685"><ele>81.0</ele><time>2026-04-04T08:48:58.102Z</time></trkpt><trkpt lat="44.97907" lon="8.7687333"><ele>81.0</ele><time>2026-04-04T08:48:59.104Z</time></trkpt><trkpt lat="44.9791283" lon="8.7689617"><ele>81.0</ele><time>2026-04-04T08:49:00.105Z</time></trkpt><trkpt lat="44.9791883" lon="8.7691917"><ele>80.33333333333333</ele><time>2026-04-04T08:49:01.103Z</time></trkpt><trkpt lat="44.97925" lon="8.769415"><ele>79.66666666666666</ele><time>2026-04-04T08:49:02.102Z</time></trkpt><trkpt lat="44.9793083" lon="8.7696417"><ele>79.0</ele><time>2026-04-04T08:49:03.1Z</time></trkpt><trkpt lat="44.9793683" lon="8.7698683"><ele>79.0</ele><time>2026-04-04T08:49:04.113Z</time></trkpt><trkpt lat="44.9794217" lon="8.7701"><ele>79.0</ele><time>2026-04-04T08:49:05.104Z</time></trkpt><trkpt lat="44.97947" lon="8.7703333"><ele>79.0</ele><time>2026-04-04T08:49:06.1Z</time></trkpt><trkpt lat="44.9794983" lon="8.770575"><ele>79.0</ele><time>2026-04-04T08:49:07.107Z</time></trkpt><trkpt lat="44.97951" lon="8.7708283"><ele>79.0</ele><time>2026-04-04T08:49:08.101Z</time></trkpt><trkpt lat="44.9795117" lon="8.7710867"><ele>79.0</ele><time>2026-04-04T08:49:09.108Z</time></trkpt><trkpt lat="44.9795017" lon="8.7713433"><ele>79.0</ele><time>2026-04-04T08:49:10.108Z</time></trkpt><trkpt lat="44.9794783" lon="8.7715967"><ele>79.0</ele><time>2026-04-04T08:49:11.101Z</time></trkpt><trkpt lat="44.9794467" lon="8.7718467"><ele>79.0</ele><time>2026-04-04T08:49:12.103Z</time></trkpt><trkpt lat="44.97941" lon="8.772095"><ele>79.33333333333333</ele><time>2026-04-04T08:49:13.102Z</time></trkpt><trkpt lat="44.9793717" lon="8.772345"><ele>79.66666666666667</ele><time>2026-04-04T08:49:14.109Z</time></trkpt><trkpt lat="44.9793317" lon="8.7726"><ele>80.0</ele><time>2026-04-04T08:49:15.098Z</time></trkpt><trkpt lat="44.9792917" lon="8.772855"><ele>80.0</ele><time>2026-04-04T08:49:16.104Z</time></trkpt><trkpt lat="44.9792533" lon="8.7731117"><ele>80.0</ele><time>2026-04-04T08:49:17.106Z</time></trkpt><trkpt lat="44.97921" lon="8.77337"><ele>80.0</ele><time>2026-04-04T08:49:18.104Z</time></trkpt><trkpt lat="44.9791617" lon="8.773625"><ele>80.33333333333334</ele><time>2026-04-04T08:49:19.103Z</time></trkpt><trkpt lat="44.9791117" lon="8.7738783"><ele>80.66666666666667</ele><time>2026-04-04T08:49:20.1Z</time></trkpt><trkpt lat="44.979055" lon="8.77413"><ele>81.0</ele><time>2026-04-04T08:49:21.105Z</time></trkpt><trkpt lat="44.9789933" lon="8.77438"><ele>81.33333333333333</ele><time>2026-04-04T08:49:22.103Z</time></trkpt><trkpt lat="44.9789233" lon="8.774625"><ele>81.66666666666666</ele><time>2026-04-04T08:49:23.104Z</time></trkpt><trkpt lat="44.97885" lon="8.7748667"><ele>82.0</ele><time>2026-04-04T08:49:24.102Z</time></trkpt><trkpt lat="44.9787733" lon="8.7751083"><ele>81.66666666666666</ele><time>2026-04-04T08:49:25.101Z</time></trkpt><trkpt lat="44.978695" lon="8.7753467"><ele>81.33333333333333</ele><time>2026-04-04T08:49:26.098Z</time></trkpt><trkpt lat="44.9786133" lon="8.7755917"><ele>81.0</ele><time>2026-04-04T08:49:27.105Z</time></trkpt><trkpt lat="44.978535" lon="8.775835"><ele>81.0</ele><time>2026-04-04T08:49:28.11Z</time></trkpt><trkpt lat="44.9784617" lon="8.7760817"><ele>81.0</ele><time>2026-04-04T08:49:29.1Z</time></trkpt><trkpt lat="44.9783867" lon="8.776325"><ele>81.0</ele><time>2026-04-04T08:49:30.101Z</time></trkpt><trkpt lat="44.9783217" lon="8.7765817"><ele>81.0</ele><time>2026-04-04T08:49:31.108Z</time></trkpt><trkpt lat="44.9782633" lon="8.7768417"><ele>81.0</ele><time>2026-04-04T08:49:32.1Z</time></trkpt><trkpt lat="44.9782117" lon="8.7771117"><ele>81.0</ele><time>2026-04-04T08:49:33.104Z</time></trkpt><trkpt lat="44.9781583" lon="8.7773817"><ele>81.66666666666667</ele><time>2026-04-04T08:49:34.1Z</time></trkpt><trkpt lat="44.9781033" lon="8.777645"><ele>82.33333333333334</ele><time>2026-04-04T08:49:35.103Z</time></trkpt><trkpt lat="44.9780517" lon="8.77791"><ele>83.0</ele><time>2026-04-04T08:49:36.11Z</time></trkpt><trkpt lat="44.9779983" lon="8.7781767"><ele>83.0</ele><time>2026-04-04T08:49:37.102Z</time></trkpt><trkpt lat="44.9779433" lon="8.778445"><ele>83.0</ele><time>2026-04-04T08:49:38.102Z</time></trkpt><trkpt lat="44.97789" lon="8.7787133"><ele>83.0</ele><time>2026-04-04T08:49:39.099Z</time></trkpt><trkpt lat="44.977835" lon="8.7789783"><ele>82.66666666666667</ele><time>2026-04-04T08:49:40.101Z</time></trkpt><trkpt lat="44.97778" lon="8.779245"><ele>82.33333333333333</ele><time>2026-04-04T08:49:41.1Z</time></trkpt><trkpt lat="44.9777233" lon="8.7795117"><ele>82.0</ele><time>2026-04-04T08:49:42.098Z</time></trkpt><trkpt lat="44.97767" lon="8.77978"><ele>81.66666666666666</ele><time>2026-04-04T08:49:43.103Z</time></trkpt><trkpt lat="44.9776167" lon="8.7800517"><ele>81.33333333333333</ele><time>2026-04-04T08:49:44.102Z</time></trkpt><trkpt lat="44.977565" lon="8.780325"><ele>81.0</ele><time>2026-04-04T08:49:45.104Z</time></trkpt><trkpt lat="44.9775117" lon="8.7806017"><ele>81.0</ele><time>2026-04-04T08:49:46.102Z</time></trkpt><trkpt lat="44.9774567" lon="8.7808783"><ele>81.0</ele><time>2026-04-04T08:49:47.109Z</time></trkpt><trkpt lat="44.9774033" lon="8.781155"><ele>81.0</ele><time>2026-04-04T08:49:48.102Z</time></trkpt><trkpt lat="44.97735" lon="8.7814333"><ele>81.33333333333333</ele><time>2026-04-04T08:49:49.107Z</time></trkpt><trkpt lat="44.9772983" lon="8.7817083"><ele>81.66666666666666</ele><time>2026-04-04T08:49:50.104Z</time></trkpt><trkpt lat="44.977245" lon="8.7819817"><ele>82.0</ele><time>2026-04-04T08:49:51.105Z</time></trkpt><trkpt lat="44.9771917" lon="8.7822567"><ele>82.0</ele><time>2026-04-04T08:49:52.102Z</time></trkpt><trkpt lat="44.9771383" lon="8.78253"><ele>82.0</ele><time>2026-04-04T08:49:53.106Z</time></trkpt><trkpt lat="44.977085" lon="8.7828067"><ele>82.0</ele><time>2026-04-04T08:49:54.103Z</time></trkpt><trkpt lat="44.9770283" lon="8.7830817"><ele>82.33333333333333</ele><time>2026-04-04T08:49:55.101Z</time></trkpt><trkpt lat="44.976975" lon="8.7833583"><ele>82.66666666666667</ele><time>2026-04-04T08:49:56.103Z</time></trkpt><trkpt lat="44.97692" lon="8.7836367"><ele>83.0</ele><time>2026-04-04T08:49:57.1Z</time></trkpt><trkpt lat="44.9768633" lon="8.7839133"><ele>83.0</ele><time>2026-04-04T08:49:58.103Z</time></trkpt><trkpt lat="44.976805" lon="8.7841967"><ele>83.0</ele><time>2026-04-04T08:49:59.105Z</time></trkpt><trkpt lat="44.9767483" lon="8.7844783"><ele>83.0</ele><time>2026-04-04T08:50:00.103Z</time></trkpt><trkpt lat="44.9766917" lon="8.78476"><ele>82.33333333333334</ele><time>2026-04-04T08:50:01.101Z</time></trkpt><trkpt lat="44.9766383" lon="8.78504"><ele>81.66666666666667</ele><time>2026-04-04T08:50:02.103Z</time></trkpt><trkpt lat="44.9765833" lon="8.7853233"><ele>81.0</ele><time>2026-04-04T08:50:03.099Z</time></trkpt><trkpt lat="44.9765267" lon="8.7856067"><ele>80.66666666666667</ele><time>2026-04-04T08:50:04.101Z</time></trkpt><trkpt lat="44.9764717" lon="8.7858867"><ele>80.33333333333334</ele><time>2026-04-04T08:50:05.102Z</time></trkpt><trkpt lat="44.9764133" lon="8.7861717"><ele>80.0</ele><time>2026-04-04T08:50:06.1Z</time></trkpt><trkpt lat="44.976355" lon="8.786455"><ele>80.0</ele><time>2026-04-04T08:50:07.102Z</time></trkpt><trkpt lat="44.9762967" lon="8.7867383"><ele>80.0</ele><time>2026-04-04T08:50:08.103Z</time></trkpt><trkpt lat="44.9762433" lon="8.7870233"><ele>80.0</ele><time>2026-04-04T08:50:09.101Z</time></trkpt><trkpt lat="44.976195" lon="8.78731"><ele>80.0</ele><time>2026-04-04T08:50:10.097Z</time></trkpt><trkpt lat="44.976155" lon="8.7876017"><ele>80.0</ele><time>2026-04-04T08:50:11.102Z</time></trkpt><trkpt lat="44.9761217" lon="8.7878983"><ele>80.0</ele><time>2026-04-04T08:50:12.1Z</time></trkpt><trkpt lat="44.9760983" lon="8.7881933"><ele>80.0</ele><time>2026-04-04T08:50:13.107Z</time></trkpt><trkpt lat="44.9760783" lon="8.7884917"><ele>80.0</ele><time>2026-04-04T08:50:14.103Z</time></trkpt><trkpt lat="44.97606" lon="8.7887817"><ele>80.0</ele><time>2026-04-04T08:50:15.102Z</time></trkpt><trkpt lat="44.9760417" lon="8.7890767"><ele>80.0</ele><time>2026-04-04T08:50:16.102Z</time></trkpt><trkpt lat="44.9760233" lon="8.7893683"><ele>80.0</ele><time>2026-04-04T08:50:17.103Z</time></trkpt><trkpt lat="44.9760067" lon="8.7896617"><ele>80.0</ele><time>2026-04-04T08:50:18.098Z</time></trkpt><trkpt lat="44.97599" lon="8.7899483"><ele>80.0</ele><time>2026-04-04T08:50:19.098Z</time></trkpt><trkpt lat="44.9759733" lon="8.79024"><ele>80.0</ele><time>2026-04-04T08:50:20.098Z</time></trkpt><trkpt lat="44.9759567" lon="8.7905267"><ele>80.0</ele><time>2026-04-04T08:50:21.097Z</time></trkpt><trkpt lat="44.9759417" lon="8.7908133"><ele>80.66666666666667</ele><time>2026-04-04T08:50:22.098Z</time></trkpt><trkpt lat="44.9759283" lon="8.7910983"><ele>81.33333333333333</ele><time>2026-04-04T08:50:23.103Z</time></trkpt><trkpt lat="44.975915" lon="8.7913833"><ele>82.0</ele><time>2026-04-04T08:50:24.1Z</time></trkpt><trkpt lat="44.9759" lon="8.7916617"><ele>81.66666666666666</ele><time>2026-04-04T08:50:25.099Z</time></trkpt><trkpt lat="44.9758817" lon="8.7919383"><ele>81.33333333333333</ele><time>2026-04-04T08:50:26.1Z</time></trkpt><trkpt lat="44.975865" lon="8.7922133"><ele>81.0</ele><time>2026-04-04T08:50:27.101Z</time></trkpt><trkpt lat="44.9758433" lon="8.7924817"><ele>81.0</ele><time>2026-04-04T08:50:28.102Z</time></trkpt><trkpt lat="44.97582" lon="8.7927433"><ele>81.0</ele><time>2026-04-04T08:50:29.102Z</time></trkpt><trkpt lat="44.9757917" lon="8.7930017"><ele>81.0</ele><time>2026-04-04T08:50:30.105Z</time></trkpt><trkpt lat="44.9757617" lon="8.7932533"><ele>81.0</ele><time>2026-04-04T08:50:31.104Z</time></trkpt><trkpt lat="44.9757317" lon="8.7935017"><ele>81.0</ele><time>2026-04-04T08:50:32.105Z</time></trkpt><trkpt lat="44.9757" lon="8.7937467"><ele>81.0</ele><time>2026-04-04T08:50:33.105Z</time></trkpt><trkpt lat="44.9756667" lon="8.79399"><ele>81.0</ele><time>2026-04-04T08:50:34.103Z</time></trkpt><trkpt lat="44.975635" lon="8.7942317"><ele>81.0</ele><time>2026-04-04T08:50:35.104Z</time></trkpt><trkpt lat="44.9756033" lon="8.794475"><ele>81.0</ele><time>2026-04-04T08:50:36.102Z</time></trkpt><trkpt lat="44.9755733" lon="8.79472"><ele>81.0</ele><time>2026-04-04T08:50:37.104Z</time></trkpt><trkpt lat="44.97554" lon="8.794965"><ele>81.0</ele><time>2026-04-04T08:50:38.1Z</time></trkpt><trkpt lat="44.9755067" lon="8.7952083"><ele>81.0</ele><time>2026-04-04T08:50:39.099Z</time></trkpt><trkpt lat="44.9754733" lon="8.7954517"><ele>81.66666666666667</ele><time>2026-04-04T08:50:40.109Z</time></trkpt><trkpt lat="44.9754383" lon="8.7956983"><ele>82.33333333333334</ele><time>2026-04-04T08:50:41.101Z</time></trkpt><trkpt lat="44.9754067" lon="8.7959517"><ele>83.0</ele><time>2026-04-04T08:50:42.104Z</time></trkpt><trkpt lat="44.975375" lon="8.7962083"><ele>83.0</ele><time>2026-04-04T08:50:43.111Z</time></trkpt><trkpt lat="44.9753417" lon="8.79647"><ele>83.0</ele><time>2026-04-04T08:50:44.103Z</time></trkpt><trkpt lat="44.97531" lon="8.7967333"><ele>83.0</ele><time>2026-04-04T08:50:45.096Z</time></trkpt><trkpt lat="44.9752767" lon="8.7970033"><ele>83.0</ele><time>2026-04-04T08:50:46.1Z</time></trkpt><trkpt lat="44.9752433" lon="8.797275"><ele>83.0</ele><time>2026-04-04T08:50:47.1Z</time></trkpt><trkpt lat="44.97521" lon="8.7975483"><ele>83.0</ele><time>2026-04-04T08:50:48.104Z</time></trkpt><trkpt lat="44.97518" lon="8.7978233"><ele>82.66666666666667</ele><time>2026-04-04T08:50:49.102Z</time></trkpt><trkpt lat="44.97515" lon="8.7980933"><ele>82.33333333333333</ele><time>2026-04-04T08:50:50.102Z</time></trkpt><trkpt lat="44.9751217" lon="8.798365"><ele>82.0</ele><time>2026-04-04T08:50:51.1Z</time></trkpt><trkpt lat="44.97509" lon="8.7986367"><ele>82.0</ele><time>2026-04-04T08:50:52.103Z</time></trkpt><trkpt lat="44.9750583" lon="8.7989117"><ele>82.0</ele><time>2026-04-04T08:50:53.101Z</time></trkpt><trkpt lat="44.9750267" lon="8.7991817"><ele>82.0</ele><time>2026-04-04T08:50:54.102Z</time></trkpt><trkpt lat="44.975" lon="8.79945"><ele>82.66666666666666</ele><time>2026-04-04T08:50:55.099Z</time></trkpt><trkpt lat="44.9749733" lon="8.799715"><ele>83.33333333333333</ele><time>2026-04-04T08:50:56.101Z</time></trkpt><trkpt lat="44.974945" lon="8.7999817"><ele>84.0</ele><time>2026-04-04T08:50:57.099Z</time></trkpt><trkpt lat="44.974915" lon="8.8002433"><ele>84.0</ele><time>2026-04-04T08:50:58.103Z</time></trkpt><trkpt lat="44.974885" lon="8.8005017"><ele>84.0</ele><time>2026-04-04T08:50:59.104Z</time></trkpt><trkpt lat="44.974855" lon="8.8007583"><ele>84.0</ele><time>2026-04-04T08:51:00.102Z</time></trkpt><trkpt lat="44.974825" lon="8.8010117"><ele>84.33333333333333</ele><time>2026-04-04T08:51:01.101Z</time></trkpt><trkpt lat="44.974795" lon="8.8012617"><ele>84.66666666666666</ele><time>2026-04-04T08:51:02.104Z</time></trkpt><trkpt lat="44.9747667" lon="8.80151"><ele>85.0</ele><time>2026-04-04T08:51:03.104Z</time></trkpt><trkpt lat="44.9747383" lon="8.8017583"><ele>84.33333333333333</ele><time>2026-04-04T08:51:04.099Z</time></trkpt><trkpt lat="44.9747083" lon="8.802"><ele>83.66666666666667</ele><time>2026-04-04T08:51:05.103Z</time></trkpt><trkpt lat="44.9746783" lon="8.8022483"><ele>83.0</ele><time>2026-04-04T08:51:06.103Z</time></trkpt><trkpt lat="44.9746517" lon="8.8024933"><ele>83.33333333333334</ele><time>2026-04-04T08:51:07.101Z</time></trkpt><trkpt lat="44.974625" lon="8.8027433"><ele>83.66666666666667</ele><time>2026-04-04T08:51:08.101Z</time></trkpt><trkpt lat="44.9745967" lon="8.8029967"><ele>84.0</ele><time>2026-04-04T08:51:09.105Z</time></trkpt><trkpt lat="44.9745717" lon="8.8032517"><ele>83.66666666666667</ele><time>2026-04-04T08:51:10.098Z</time></trkpt><trkpt lat="44.974545" lon="8.803505"><ele>83.33333333333334</ele><time>2026-04-04T08:51:11.104Z</time></trkpt><trkpt lat="44.97452" lon="8.8037583"><ele>83.0</ele><time>2026-04-04T08:51:12.101Z</time></trkpt><trkpt lat="44.9744917" lon="8.8040167"><ele>83.0</ele><time>2026-04-04T08:51:13.1Z</time></trkpt><trkpt lat="44.9744617" lon="8.804275"><ele>83.0</ele><time>2026-04-04T08:51:14.099Z</time></trkpt><trkpt lat="44.9744283" lon="8.8045317"><ele>83.0</ele><time>2026-04-04T08:51:15.099Z</time></trkpt><trkpt lat="44.9743983" lon="8.8047933"><ele>83.0</ele><time>2026-04-04T08:51:16.103Z</time></trkpt><trkpt lat="44.9743683" lon="8.805055"><ele>83.0</ele><time>2026-04-04T08:51:17.103Z</time></trkpt><trkpt lat="44.9743383" lon="8.8053183"><ele>83.0</ele><time>2026-04-04T08:51:18.101Z</time></trkpt><trkpt lat="44.9743067" lon="8.805585"><ele>83.33333333333334</ele><time>2026-04-04T08:51:19.104Z</time></trkpt><trkpt lat="44.9742733" lon="8.8058433"><ele>83.66666666666667</ele><time>2026-04-04T08:51:20.105Z</time></trkpt><trkpt lat="44.9742417" lon="8.8061017"><ele>84.0</ele><time>2026-04-04T08:51:21.104Z</time></trkpt><trkpt lat="44.97421" lon="8.8063617"><ele>83.66666666666667</ele><time>2026-04-04T08:51:22.102Z</time></trkpt><trkpt lat="44.974175" lon="8.8066233"><ele>83.33333333333334</ele><time>2026-04-04T08:51:23.101Z</time></trkpt><trkpt lat="44.97414" lon="8.8068817"><ele>83.0</ele><time>2026-04-04T08:51:24.101Z</time></trkpt><trkpt lat="44.9741067" lon="8.8071367"><ele>83.33333333333334</ele><time>2026-04-04T08:51:25.103Z</time></trkpt><trkpt lat="44.9740783" lon="8.8073883"><ele>83.66666666666667</ele><time>2026-04-04T08:51:26.102Z</time></trkpt><trkpt lat="44.9740517" lon="8.807645"><ele>84.0</ele><time>2026-04-04T08:51:27.109Z</time></trkpt><trkpt lat="44.9740217" lon="8.8079"><ele>84.0</ele><time>2026-04-04T08:51:28.102Z</time></trkpt><trkpt lat="44.97399" lon="8.808145"><ele>84.0</ele><time>2026-04-04T08:51:29.103Z</time></trkpt><trkpt lat="44.9739617" lon="8.8083867"><ele>84.0</ele><time>2026-04-04T08:51:30.104Z</time></trkpt><trkpt lat="44.9739367" lon="8.8086233"><ele>83.66666666666667</ele><time>2026-04-04T08:51:31.103Z</time></trkpt><trkpt lat="44.9739117" lon="8.8088567"><ele>83.33333333333334</ele><time>2026-04-04T08:51:32.102Z</time></trkpt><trkpt lat="44.9738867" lon="8.809085"><ele>83.0</ele><time>2026-04-04T08:51:33.1Z</time></trkpt><trkpt lat="44.9738633" lon="8.8093183"><ele>83.66666666666667</ele><time>2026-04-04T08:51:34.101Z</time></trkpt><trkpt lat="44.9738383" lon="8.80955"><ele>84.33333333333333</ele><time>2026-04-04T08:51:35.101Z</time></trkpt><trkpt lat="44.9738117" lon="8.8097733"><ele>85.0</ele><time>2026-04-04T08:51:36.102Z</time></trkpt><trkpt lat="44.973785" lon="8.8099967"><ele>85.33333333333333</ele><time>2026-04-04T08:51:37.105Z</time></trkpt><trkpt lat="44.9737583" lon="8.8102167"><ele>85.66666666666667</ele><time>2026-04-04T08:51:38.102Z</time></trkpt><trkpt lat="44.973735" lon="8.81043"><ele>86.0</ele><time>2026-04-04T08:51:39.103Z</time></trkpt><trkpt lat="44.9737083" lon="8.8106433"><ele>86.0</ele><time>2026-04-04T08:51:40.102Z</time></trkpt><trkpt lat="44.97368" lon="8.8108317"><ele>86.0</ele><time>2026-04-04T08:51:41.105Z</time></trkpt><trkpt lat="44.9736467" lon="8.81099"><ele>86.0</ele><time>2026-04-04T08:51:42.1Z</time></trkpt><trkpt lat="44.9736117" lon="8.8111267"><ele>86.0</ele><time>2026-04-04T08:51:43.103Z</time></trkpt><trkpt lat="44.9735767" lon="8.8112417"><ele>86.0</ele><time>2026-04-04T08:51:44.1Z</time></trkpt><trkpt lat="44.973535" lon="8.8113367"><ele>86.0</ele><time>2026-04-04T08:51:45.107Z</time></trkpt><trkpt lat="44.9734883" lon="8.811425"><ele>86.0</ele><time>2026-04-04T08:51:46.101Z</time></trkpt><trkpt lat="44.9734283" lon="8.8115"><ele>86.0</ele><time>2026-04-04T08:51:47.106Z</time></trkpt><trkpt lat="44.97336" lon="8.81157"><ele>86.0</ele><time>2026-04-04T08:51:48.105Z</time></trkpt><trkpt lat="44.9732967" lon="8.8116483"><ele>86.0</ele><time>2026-04-04T08:51:49.107Z</time></trkpt><trkpt lat="44.9732483" lon="8.8117583"><ele>86.0</ele><time>2026-04-04T08:51:50.103Z</time></trkpt><trkpt lat="44.9732633" lon="8.81188"><ele>86.0</ele><time>2026-04-04T08:51:51.097Z</time></trkpt><trkpt lat="44.9732867" lon="8.8119983"><ele>86.0</ele><time>2026-04-04T08:51:52.102Z</time></trkpt><trkpt lat="44.9733317" lon="8.8120933"><ele>86.0</ele><time>2026-04-04T08:51:53.103Z</time></trkpt><trkpt lat="44.9734017" lon="8.812155"><ele>86.0</ele><time>2026-04-04T08:51:54.11Z</time></trkpt><trkpt lat="44.9734933" lon="8.8121967"><ele>86.0</ele><time>2026-04-04T08:51:55.103Z</time></trkpt><trkpt lat="44.9736033" lon="8.8121833"><ele>86.0</ele><time>2026-04-04T08:51:56.111Z</time></trkpt><trkpt lat="44.97371" lon="8.8121633"><ele>86.0</ele><time>2026-04-04T08:51:57.104Z</time></trkpt><trkpt lat="44.9738217" lon="8.81213"><ele>86.0</ele><time>2026-04-04T08:51:58.099Z</time></trkpt><trkpt lat="44.9739333" lon="8.8120967"><ele>86.0</ele><time>2026-04-04T08:51:59.105Z</time></trkpt><trkpt lat="44.97405" lon="8.8120667"><ele>86.0</ele><time>2026-04-04T08:52:00.1Z</time></trkpt><trkpt lat="44.97417" lon="8.8120467"><ele>86.0</ele><time>2026-04-04T08:52:01.104Z</time></trkpt><trkpt lat="44.974295" lon="8.8120433"><ele>86.0</ele><time>2026-04-04T08:52:02.1Z</time></trkpt><trkpt lat="44.974425" lon="8.8120617"><ele>86.0</ele><time>2026-04-04T08:52:03.101Z</time></trkpt><trkpt lat="44.9745583" lon="8.812105"><ele>85.66666666666667</ele><time>2026-04-04T08:52:04.1Z</time></trkpt><trkpt lat="44.974695" lon="8.812165"><ele>85.33333333333333</ele><time>2026-04-04T08:52:05.104Z</time></trkpt><trkpt lat="44.974835" lon="8.8122417"><ele>85.0</ele><time>2026-04-04T08:52:06.107Z</time></trkpt><trkpt lat="44.9749783" lon="8.8123317"><ele>85.33333333333333</ele><time>2026-04-04T08:52:07.103Z</time></trkpt><trkpt lat="44.97512" lon="8.8124317"><ele>85.66666666666667</ele><time>2026-04-04T08:52:08.103Z</time></trkpt><trkpt lat="44.975265" lon="8.8125317"><ele>86.0</ele><time>2026-04-04T08:52:09.105Z</time></trkpt><trkpt lat="44.9754083" lon="8.8126333"><ele>86.0</ele><time>2026-04-04T08:52:10.103Z</time></trkpt><trkpt lat="44.97556" lon="8.812735"><ele>86.0</ele><time>2026-04-04T08:52:11.102Z</time></trkpt><trkpt lat="44.9757133" lon="8.8128433"><ele>86.0</ele><time>2026-04-04T08:52:12.1Z</time></trkpt><trkpt lat="44.97587" lon="8.8129533"><ele>86.0</ele><time>2026-04-04T08:52:13.101Z</time></trkpt><trkpt lat="44.97603" lon="8.8130633"><ele>86.0</ele><time>2026-04-04T08:52:14.101Z</time></trkpt><trkpt lat="44.9761917" lon="8.8131783"><ele>86.0</ele><time>2026-04-04T08:52:15.101Z</time></trkpt><trkpt lat="44.9763583" lon="8.8132917"><ele>86.0</ele><time>2026-04-04T08:52:16.103Z</time></trkpt><trkpt lat="44.976525" lon="8.81341"><ele>86.0</ele><time>2026-04-04T08:52:17.104Z</time></trkpt><trkpt lat="44.9766933" lon="8.813525"><ele>86.0</ele><time>2026-04-04T08:52:18.108Z</time></trkpt><trkpt lat="44.9768583" lon="8.8136367"><ele>86.0</ele><time>2026-04-04T08:52:19.105Z</time></trkpt><trkpt lat="44.9770217" lon="8.8137483"><ele>86.0</ele><time>2026-04-04T08:52:20.102Z</time></trkpt><trkpt lat="44.9771867" lon="8.8138583"><ele>86.0</ele><time>2026-04-04T08:52:21.103Z</time></trkpt><trkpt lat="44.97735" lon="8.8139683"><ele>86.0</ele><time>2026-04-04T08:52:22.107Z</time></trkpt><trkpt lat="44.9775117" lon="8.8140817"><ele>86.0</ele><time>2026-04-04T08:52:23.104Z</time></trkpt><trkpt lat="44.977675" lon="8.8141917"><ele>86.0</ele><time>2026-04-04T08:52:24.112Z</time></trkpt><trkpt lat="44.97784" lon="8.814305"><ele>85.33333333333334</ele><time>2026-04-04T08:52:25.101Z</time></trkpt><trkpt lat="44.9780033" lon="8.8144183"><ele>84.66666666666667</ele><time>2026-04-04T08:52:26.103Z</time></trkpt><trkpt lat="44.9781633" lon="8.8145333"><ele>84.0</ele><time>2026-04-04T08:52:27.103Z</time></trkpt><trkpt lat="44.978325" lon="8.8146483"><ele>83.66666666666667</ele><time>2026-04-04T08:52:28.105Z</time></trkpt><trkpt lat="44.978485" lon="8.8147667"><ele>83.33333333333334</ele><time>2026-04-04T08:52:29.103Z</time></trkpt><trkpt lat="44.9786467" lon="8.8148833"><ele>83.0</ele><time>2026-04-04T08:52:30.101Z</time></trkpt><trkpt lat="44.9788083" lon="8.8149983"><ele>83.0</ele><time>2026-04-04T08:52:31.105Z</time></trkpt><trkpt lat="44.9789683" lon="8.8151167"><ele>83.0</ele><time>2026-04-04T08:52:32.102Z</time></trkpt><trkpt lat="44.97913" lon="8.8152317"><ele>83.0</ele><time>2026-04-04T08:52:33.101Z</time></trkpt><trkpt lat="44.97929" lon="8.81535"><ele>82.66666666666667</ele><time>2026-04-04T08:52:34.109Z</time></trkpt><trkpt lat="44.97945" lon="8.8154733"><ele>82.33333333333333</ele><time>2026-04-04T08:52:35.108Z</time></trkpt><trkpt lat="44.9796117" lon="8.8156"><ele>82.0</ele><time>2026-04-04T08:52:36.099Z</time></trkpt><trkpt lat="44.9797733" lon="8.81573"><ele>82.0</ele><time>2026-04-04T08:52:37.104Z</time></trkpt><trkpt lat="44.9799333" lon="8.8158617"><ele>82.0</ele><time>2026-04-04T08:52:38.098Z</time></trkpt><trkpt lat="44.9800917" lon="8.8159933"><ele>82.0</ele><time>2026-04-04T08:52:39.098Z</time></trkpt><trkpt lat="44.9802517" lon="8.816125"><ele>81.66666666666666</ele><time>2026-04-04T08:52:40.099Z</time></trkpt><trkpt lat="44.9804133" lon="8.81626"><ele>81.33333333333333</ele><time>2026-04-04T08:52:41.104Z</time></trkpt><trkpt lat="44.9805717" lon="8.816395"><ele>81.0</ele><time>2026-04-04T08:52:42.1Z</time></trkpt><trkpt lat="44.9807317" lon="8.8165333"><ele>81.0</ele><time>2026-04-04T08:52:43.101Z</time></trkpt><trkpt lat="44.980895" lon="8.8166733"><ele>81.0</ele><time>2026-04-04T08:52:44.097Z</time></trkpt><trkpt lat="44.9810583" lon="8.8168117"><ele>81.0</ele><time>2026-04-04T08:52:45.099Z</time></trkpt><trkpt lat="44.9812217" lon="8.8169517"><ele>81.0</ele><time>2026-04-04T08:52:46.099Z</time></trkpt><trkpt lat="44.9813917" lon="8.8170917"><ele>81.0</ele><time>2026-04-04T08:52:47.098Z</time></trkpt><trkpt lat="44.9815633" lon="8.81723"><ele>81.0</ele><time>2026-04-04T08:52:48.104Z</time></trkpt><trkpt lat="44.9817333" lon="8.8173717"><ele>81.0</ele><time>2026-04-04T08:52:49.104Z</time></trkpt><trkpt lat="44.9819067" lon="8.81751"><ele>81.0</ele><time>2026-04-04T08:52:50.1Z</time></trkpt><trkpt lat="44.982075" lon="8.8176517"><ele>81.0</ele><time>2026-04-04T08:52:51.103Z</time></trkpt><trkpt lat="44.9822433" lon="8.81779"><ele>81.0</ele><time>2026-04-04T08:52:52.103Z</time></trkpt><trkpt lat="44.9824133" lon="8.817935"><ele>81.0</ele><time>2026-04-04T08:52:53.104Z</time></trkpt><trkpt lat="44.98258" lon="8.8180767"><ele>81.0</ele><time>2026-04-04T08:52:54.101Z</time></trkpt><trkpt lat="44.9827467" lon="8.818215"><ele>81.33333333333333</ele><time>2026-04-04T08:52:55.109Z</time></trkpt><trkpt lat="44.9829133" lon="8.8183517"><ele>81.66666666666666</ele><time>2026-04-04T08:52:56.103Z</time></trkpt><trkpt lat="44.9830783" lon="8.8184867"><ele>82.0</ele><time>2026-04-04T08:52:57.102Z</time></trkpt><trkpt lat="44.9832417" lon="8.8186217"><ele>82.0</ele><time>2026-04-04T08:52:58.107Z</time></trkpt><trkpt lat="44.9834067" lon="8.818755"><ele>82.0</ele><time>2026-04-04T08:52:59.105Z</time></trkpt><trkpt lat="44.9835717" lon="8.8188883"><ele>82.0</ele><time>2026-04-04T08:53:00.102Z</time></trkpt><trkpt lat="44.9837333" lon="8.81902"><ele>82.0</ele><time>2026-04-04T08:53:01.099Z</time></trkpt><trkpt lat="44.9838917" lon="8.8191533"><ele>82.0</ele><time>2026-04-04T08:53:02.099Z</time></trkpt><trkpt lat="44.98405" lon="8.8192867"><ele>82.0</ele><time>2026-04-04T08:53:03.103Z</time></trkpt><trkpt lat="44.98421" lon="8.8194217"><ele>81.33333333333333</ele><time>2026-04-04T08:53:04.1Z</time></trkpt><trkpt lat="44.9843683" lon="8.8195533"><ele>80.66666666666667</ele><time>2026-04-04T08:53:05.099Z</time></trkpt><trkpt lat="44.9845267" lon="8.81969"><ele>80.0</ele><time>2026-04-04T08:53:06.103Z</time></trkpt><trkpt lat="44.9846833" lon="8.81982"><ele>80.0</ele><time>2026-04-04T08:53:07.102Z</time></trkpt><trkpt lat="44.98484" lon="8.8199517"><ele>80.0</ele><time>2026-04-04T08:53:08.101Z</time></trkpt><trkpt lat="44.985" lon="8.8200833"><ele>80.0</ele><time>2026-04-04T08:53:09.1Z</time></trkpt><trkpt lat="44.9851583" lon="8.8202133"><ele>79.66666666666667</ele><time>2026-04-04T08:53:10.103Z</time></trkpt><trkpt lat="44.9853167" lon="8.82034"><ele>79.33333333333333</ele><time>2026-04-04T08:53:11.101Z</time></trkpt><trkpt lat="44.9854717" lon="8.8204667"><ele>79.0</ele><time>2026-04-04T08:53:12.104Z</time></trkpt><trkpt lat="44.9856217" lon="8.82059"><ele>79.0</ele><time>2026-04-04T08:53:13.103Z</time></trkpt><trkpt lat="44.9857633" lon="8.8207067"><ele>79.0</ele><time>2026-04-04T08:53:14.104Z</time></trkpt><trkpt lat="44.9858867" lon="8.8208067"><ele>79.0</ele><time>2026-04-04T08:53:15.1Z</time></trkpt><trkpt lat="44.98599" lon="8.8208933"><ele>79.0</ele><time>2026-04-04T08:53:16.107Z</time></trkpt><trkpt lat="44.9860683" lon="8.8209667"><ele>78.83333333333333</ele><time>2026-04-04T08:53:17.108Z</time></trkpt><trkpt lat="44.9861267" lon="8.82104"><ele>78.66666666666666</ele><time>2026-04-04T08:53:18.105Z</time></trkpt><trkpt lat="44.986175" lon="8.8211183"><ele>78.5</ele><time>2026-04-04T08:53:19.105Z</time></trkpt><trkpt lat="44.9862117" lon="8.8212167"><ele>78.33333333333333</ele><time>2026-04-04T08:53:20.103Z</time></trkpt><trkpt lat="44.9862417" lon="8.8213383"><ele>78.16666666666667</ele><time>2026-04-04T08:53:21.107Z</time></trkpt><trkpt lat="44.9862883" lon="8.8214583"><ele>78.0</ele><time>2026-04-04T08:53:22.099Z</time></trkpt><trkpt lat="44.9863533" lon="8.821565"><ele>78.0</ele><time>2026-04-04T08:53:23.106Z</time></trkpt><trkpt lat="44.9864167" lon="8.8216717"><ele>78.0</ele><time>2026-04-04T08:53:24.101Z</time></trkpt><trkpt lat="44.98647" lon="8.821785"><ele>78.0</ele><time>2026-04-04T08:53:25.102Z</time></trkpt><trkpt lat="44.9865033" lon="8.8219133"><ele>78.0</ele><time>2026-04-04T08:53:26.106Z</time></trkpt><trkpt lat="44.9865133" lon="8.8220633"><ele>78.0</ele><time>2026-04-04T08:53:27.1Z</time></trkpt><trkpt lat="44.9865167" lon="8.822225"><ele>78.25</ele><time>2026-04-04T08:53:28.105Z</time></trkpt><trkpt lat="44.986515" lon="8.8224017"><ele>78.5</ele><time>2026-04-04T08:53:29.099Z</time></trkpt><trkpt lat="44.986505" lon="8.8225883"><ele>78.75</ele><time>2026-04-04T08:53:30.102Z</time></trkpt><trkpt lat="44.98649" lon="8.822785"><ele>79.0</ele><time>2026-04-04T08:53:31.104Z</time></trkpt><trkpt lat="44.9864617" lon="8.8229867"><ele>79.0</ele><time>2026-04-04T08:53:32.104Z</time></trkpt><trkpt lat="44.9864267" lon="8.8231917"><ele>79.0</ele><time>2026-04-04T08:53:33.1Z</time></trkpt><trkpt lat="44.986385" lon="8.8233967"><ele>79.0</ele><time>2026-04-04T08:53:34.103Z</time></trkpt><trkpt lat="44.9863433" lon="8.8236117"><ele>79.0</ele><time>2026-04-04T08:53:35.106Z</time></trkpt><trkpt lat="44.9863" lon="8.8238233"><ele>79.0</ele><time>2026-04-04T08:53:36.103Z</time></trkpt><trkpt lat="44.986255" lon="8.8240333"><ele>79.0</ele><time>2026-04-04T08:53:37.107Z</time></trkpt><trkpt lat="44.9862117" lon="8.8242467"><ele>78.66666666666666</ele><time>2026-04-04T08:53:38.103Z</time></trkpt><trkpt lat="44.9861717" lon="8.8244667"><ele>78.33333333333333</ele><time>2026-04-04T08:53:39.104Z</time></trkpt><trkpt lat="44.9861333" lon="8.82469"><ele>78.0</ele><time>2026-04-04T08:53:40.102Z</time></trkpt><trkpt lat="44.986095" lon="8.8249133"><ele>78.0</ele><time>2026-04-04T08:53:41.103Z</time></trkpt><trkpt lat="44.9860533" lon="8.8251367"><ele>78.0</ele><time>2026-04-04T08:53:42.109Z</time></trkpt><trkpt lat="44.9860083" lon="8.8253683"><ele>78.0</ele><time>2026-04-04T08:53:43.105Z</time></trkpt><trkpt lat="44.9859583" lon="8.8255917"><ele>78.0</ele><time>2026-04-04T08:53:44.11Z</time></trkpt><trkpt lat="44.9858983" lon="8.8258083"><ele>78.0</ele><time>2026-04-04T08:53:45.111Z</time></trkpt><trkpt lat="44.98583" lon="8.826015"><ele>78.0</ele><time>2026-04-04T08:53:46.099Z</time></trkpt><trkpt lat="44.9857533" lon="8.8262117"><ele>78.66666666666667</ele><time>2026-04-04T08:53:47.101Z</time></trkpt><trkpt lat="44.9856733" lon="8.82641"><ele>79.33333333333334</ele><time>2026-04-04T08:53:48.104Z</time></trkpt><trkpt lat="44.9855933" lon="8.8266117"><ele>80.0</ele><time>2026-04-04T08:53:49.1Z</time></trkpt><trkpt lat="44.985515" lon="8.826815"><ele>80.33333333333334</ele><time>2026-04-04T08:53:50.109Z</time></trkpt><trkpt lat="44.985435" lon="8.8270167"><ele>80.66666666666667</ele><time>2026-04-04T08:53:51.101Z</time></trkpt><trkpt lat="44.985355" lon="8.8272117"><ele>81.0</ele><time>2026-04-04T08:53:52.114Z</time></trkpt><trkpt lat="44.9852767" lon="8.827405"><ele>81.0</ele><time>2026-04-04T08:53:53.101Z</time></trkpt><trkpt lat="44.985205" lon="8.8276033"><ele>81.0</ele><time>2026-04-04T08:53:54.102Z</time></trkpt><trkpt lat="44.9851383" lon="8.8278083"><ele>81.0</ele><time>2026-04-04T08:53:55.103Z</time></trkpt><trkpt lat="44.9850883" lon="8.82803"><ele>81.0</ele><time>2026-04-04T08:53:56.104Z</time></trkpt><trkpt lat="44.985055" lon="8.8282667"><ele>81.0</ele><time>2026-04-04T08:53:57.101Z</time></trkpt><trkpt lat="44.9850267" lon="8.8285117"><ele>81.0</ele><time>2026-04-04T08:53:58.101Z</time></trkpt><trkpt lat="44.9850017" lon="8.8287633"><ele>81.0</ele><time>2026-04-04T08:53:59.105Z</time></trkpt><trkpt lat="44.9849767" lon="8.8290183"><ele>81.0</ele><time>2026-04-04T08:54:00.099Z</time></trkpt><trkpt lat="44.9849483" lon="8.829275"><ele>81.0</ele><time>2026-04-04T08:54:01.106Z</time></trkpt><trkpt lat="44.9849233" lon="8.8295367"><ele>80.66666666666667</ele><time>2026-04-04T08:54:02.106Z</time></trkpt><trkpt lat="44.984895" lon="8.8297917"><ele>80.33333333333334</ele><time>2026-04-04T08:54:03.106Z</time></trkpt><trkpt lat="44.9848717" lon="8.8300483"><ele>80.0</ele><time>2026-04-04T08:54:04.109Z</time></trkpt><trkpt lat="44.9848417" lon="8.8303017"><ele>80.0</ele><time>2026-04-04T08:54:05.111Z</time></trkpt><trkpt lat="44.9848083" lon="8.8305533"><ele>80.0</ele><time>2026-04-04T08:54:06.102Z</time></trkpt><trkpt lat="44.98477" lon="8.8308"><ele>80.0</ele><time>2026-04-04T08:54:07.103Z</time></trkpt><trkpt lat="44.984715" lon="8.83104"><ele>80.0</ele><time>2026-04-04T08:54:08.101Z</time></trkpt><trkpt lat="44.9846433" lon="8.8312683"><ele>80.0</ele><time>2026-04-04T08:54:09.102Z</time></trkpt><trkpt lat="44.9845583" lon="8.8314867"><ele>80.0</ele><time>2026-04-04T08:54:10.104Z</time></trkpt><trkpt lat="44.9844617" lon="8.8317"><ele>79.66666666666667</ele><time>2026-04-04T08:54:11.104Z</time></trkpt><trkpt lat="44.9843567" lon="8.8319167"><ele>79.33333333333333</ele><time>2026-04-04T08:54:12.105Z</time></trkpt><trkpt lat="44.9842483" lon="8.83214"><ele>79.0</ele><time>2026-04-04T08:54:13.101Z</time></trkpt><trkpt lat="44.9841383" lon="8.8323633"><ele>79.0</ele><time>2026-04-04T08:54:14.102Z</time></trkpt><trkpt lat="44.98403" lon="8.83259"><ele>79.0</ele><time>2026-04-04T08:54:15.101Z</time></trkpt><trkpt lat="44.98392" lon="8.8328133"><ele>79.0</ele><time>2026-04-04T08:54:16.102Z</time></trkpt><trkpt lat="44.9838133" lon="8.8330383"><ele>79.0</ele><time>2026-04-04T08:54:17.102Z</time></trkpt><trkpt lat="44.9837067" lon="8.8332583"><ele>79.0</ele><time>2026-04-04T08:54:18.102Z</time></trkpt><trkpt lat="44.9836017" lon="8.8334817"><ele>79.0</ele><time>2026-04-04T08:54:19.105Z</time></trkpt><trkpt lat="44.9834967" lon="8.8337"><ele>79.0</ele><time>2026-04-04T08:54:20.102Z</time></trkpt><trkpt lat="44.9833917" lon="8.8339217"><ele>79.0</ele><time>2026-04-04T08:54:21.106Z</time></trkpt><trkpt lat="44.983285" lon="8.8341483"><ele>79.0</ele><time>2026-04-04T08:54:22.101Z</time></trkpt><trkpt lat="44.9831783" lon="8.834375"><ele>78.33333333333333</ele><time>2026-04-04T08:54:23.101Z</time></trkpt><trkpt lat="44.9830767" lon="8.834605"><ele>77.66666666666667</ele><time>2026-04-04T08:54:24.1Z</time></trkpt><trkpt lat="44.9829833" lon="8.83484"><ele>77.0</ele><time>2026-04-04T08:54:25.099Z</time></trkpt><trkpt lat="44.98289" lon="8.83508"><ele>77.66666666666667</ele><time>2026-04-04T08:54:26.105Z</time></trkpt><trkpt lat="44.9827983" lon="8.835325"><ele>78.33333333333333</ele><time>2026-04-04T08:54:27.102Z</time></trkpt><trkpt lat="44.98271" lon="8.8355683"><ele>79.0</ele><time>2026-04-04T08:54:28.096Z</time></trkpt><trkpt lat="44.9826217" lon="8.8358133"><ele>79.0</ele><time>2026-04-04T08:54:29.107Z</time></trkpt><trkpt lat="44.9825333" lon="8.83606"><ele>79.0</ele><time>2026-04-04T08:54:30.101Z</time></trkpt><trkpt lat="44.9824433" lon="8.8363067"><ele>79.0</ele><time>2026-04-04T08:54:31.107Z</time></trkpt><trkpt lat="44.9823567" lon="8.836555"><ele>79.0</ele><time>2026-04-04T08:54:32.099Z</time></trkpt><trkpt lat="44.982265" lon="8.8367983"><ele>79.0</ele><time>2026-04-04T08:54:33.099Z</time></trkpt><trkpt lat="44.982175" lon="8.83704"><ele>79.0</ele><time>2026-04-04T08:54:34.101Z</time></trkpt><trkpt lat="44.982085" lon="8.8372783"><ele>79.33333333333333</ele><time>2026-04-04T08:54:35.098Z</time></trkpt><trkpt lat="44.9819983" lon="8.837515"><ele>79.66666666666667</ele><time>2026-04-04T08:54:36.101Z</time></trkpt><trkpt lat="44.981915" lon="8.8377467"><ele>80.0</ele><time>2026-04-04T08:54:37.103Z</time></trkpt><trkpt lat="44.9818333" lon="8.8379783"><ele>80.33333333333334</ele><time>2026-04-04T08:54:38.109Z</time></trkpt><trkpt lat="44.9817567" lon="8.8382117"><ele>80.66666666666667</ele><time>2026-04-04T08:54:39.102Z</time></trkpt><trkpt lat="44.9816933" lon="8.8384467"><ele>81.0</ele><time>2026-04-04T08:54:40.099Z</time></trkpt><trkpt lat="44.9816417" lon="8.838685"><ele>81.0</ele><time>2026-04-04T08:54:41.103Z</time></trkpt><trkpt lat="44.9816083" lon="8.8389217"><ele>81.0</ele><time>2026-04-04T08:54:42.106Z</time></trkpt><trkpt lat="44.9815917" lon="8.8391683"><ele>81.0</ele><time>2026-04-04T08:54:43.109Z</time></trkpt><trkpt lat="44.9815883" lon="8.839415"><ele>81.0</ele><time>2026-04-04T08:54:44.099Z</time></trkpt><trkpt lat="44.9815933" lon="8.8396633"><ele>81.0</ele><time>2026-04-04T08:54:45.1Z</time></trkpt><trkpt lat="44.9816017" lon="8.8399117"><ele>81.0</ele><time>2026-04-04T08:54:46.101Z</time></trkpt><trkpt lat="44.98161" lon="8.8401633"><ele>81.33333333333333</ele><time>2026-04-04T08:54:47.105Z</time></trkpt><trkpt lat="44.9816133" lon="8.8404217"><ele>81.66666666666666</ele><time>2026-04-04T08:54:48.108Z</time></trkpt><trkpt lat="44.981605" lon="8.8406817"><ele>82.0</ele><time>2026-04-04T08:54:49.109Z</time></trkpt><trkpt lat="44.9815817" lon="8.84094"><ele>82.0</ele><time>2026-04-04T08:54:50.103Z</time></trkpt><trkpt lat="44.9815483" lon="8.84119"><ele>82.0</ele><time>2026-04-04T08:54:51.106Z</time></trkpt><trkpt lat="44.981505" lon="8.84144"><ele>82.0</ele><time>2026-04-04T08:54:52.103Z</time></trkpt><trkpt lat="44.98146" lon="8.841695"><ele>81.66666666666666</ele><time>2026-04-04T08:54:53.102Z</time></trkpt><trkpt lat="44.981415" lon="8.8419483"><ele>81.33333333333333</ele><time>2026-04-04T08:54:54.105Z</time></trkpt><trkpt lat="44.9813667" lon="8.8422"><ele>81.0</ele><time>2026-04-04T08:54:55.106Z</time></trkpt><trkpt lat="44.98132" lon="8.8424533"><ele>80.66666666666667</ele><time>2026-04-04T08:54:56.1Z</time></trkpt><trkpt lat="44.9812733" lon="8.842705"><ele>80.33333333333334</ele><time>2026-04-04T08:54:57.1Z</time></trkpt><trkpt lat="44.9812267" lon="8.8429583"><ele>80.0</ele><time>2026-04-04T08:54:58.099Z</time></trkpt><trkpt lat="44.981185" lon="8.8432017"><ele>80.0</ele><time>2026-04-04T08:54:59.102Z</time></trkpt><trkpt lat="44.9811433" lon="8.84345"><ele>80.0</ele><time>2026-04-04T08:55:00.101Z</time></trkpt><trkpt lat="44.98111" lon="8.8437033"><ele>80.0</ele><time>2026-04-04T08:55:01.103Z</time></trkpt><trkpt lat="44.98109" lon="8.8439567"><ele>80.0</ele><time>2026-04-04T08:55:02.098Z</time></trkpt><trkpt lat="44.9810767" lon="8.84422"><ele>80.0</ele><time>2026-04-04T08:55:03.1Z</time></trkpt><trkpt lat="44.9810667" lon="8.8444833"><ele>80.0</ele><time>2026-04-04T08:55:04.104Z</time></trkpt><trkpt lat="44.9810533" lon="8.8447467"><ele>80.66666666666667</ele><time>2026-04-04T08:55:05.112Z</time></trkpt><trkpt lat="44.9810417" lon="8.8450117"><ele>81.33333333333333</ele><time>2026-04-04T08:55:06.105Z</time></trkpt><trkpt lat="44.9810283" lon="8.8452767"><ele>82.0</ele><time>2026-04-04T08:55:07.106Z</time></trkpt><trkpt lat="44.9810133" lon="8.8455467"><ele>82.0</ele><time>2026-04-04T08:55:08.1Z</time></trkpt><trkpt lat="44.9809983" lon="8.8458167"><ele>82.0</ele><time>2026-04-04T08:55:09.107Z</time></trkpt><trkpt lat="44.98098" lon="8.8460867"><ele>82.0</ele><time>2026-04-04T08:55:10.1Z</time></trkpt><trkpt lat="44.9809667" lon="8.8463583"><ele>82.0</ele><time>2026-04-04T08:55:11.102Z</time></trkpt><trkpt lat="44.9809533" lon="8.8466333"><ele>82.0</ele><time>2026-04-04T08:55:12.105Z</time></trkpt><trkpt lat="44.9809433" lon="8.8469067"><ele>82.0</ele><time>2026-04-04T08:55:13.107Z</time></trkpt><trkpt lat="44.980945" lon="8.84718"><ele>82.0</ele><time>2026-04-04T08:55:14.1Z</time></trkpt><trkpt lat="44.980955" lon="8.8474533"><ele>82.0</ele><time>2026-04-04T08:55:15.105Z</time></trkpt><trkpt lat="44.9809767" lon="8.847725"><ele>82.0</ele><time>2026-04-04T08:55:16.108Z</time></trkpt><trkpt lat="44.9810017" lon="8.8479967"><ele>82.0</ele><time>2026-04-04T08:55:17.107Z</time></trkpt><trkpt lat="44.9810217" lon="8.84827"><ele>82.0</ele><time>2026-04-04T08:55:18.1Z</time></trkpt><trkpt lat="44.981045" lon="8.8485433"><ele>82.0</ele><time>2026-04-04T08:55:19.1Z</time></trkpt><trkpt lat="44.98108" lon="8.8488167"><ele>82.0</ele><time>2026-04-04T08:55:20.101Z</time></trkpt><trkpt lat="44.981125" lon="8.8490867"><ele>82.0</ele><time>2026-04-04T08:55:21.103Z</time></trkpt><trkpt lat="44.9811767" lon="8.8493533"><ele>82.0</ele><time>2026-04-04T08:55:22.106Z</time></trkpt><trkpt lat="44.9812317" lon="8.84962"><ele>82.0</ele><time>2026-04-04T08:55:23.105Z</time></trkpt><trkpt lat="44.9812867" lon="8.849885"><ele>82.0</ele><time>2026-04-04T08:55:24.103Z</time></trkpt><trkpt lat="44.9813467" lon="8.850145"><ele>82.0</ele><time>2026-04-04T08:55:25.101Z</time></trkpt><trkpt lat="44.9814083" lon="8.850405"><ele>82.0</ele><time>2026-04-04T08:55:26.103Z</time></trkpt><trkpt lat="44.9814717" lon="8.8506667"><ele>82.0</ele><time>2026-04-04T08:55:27.102Z</time></trkpt><trkpt lat="44.9815367" lon="8.8509233"><ele>82.0</ele><time>2026-04-04T08:55:28.103Z</time></trkpt><trkpt lat="44.9815983" lon="8.8511767"><ele>82.0</ele><time>2026-04-04T08:55:29.108Z</time></trkpt><trkpt lat="44.9816617" lon="8.8514267"><ele>82.0</ele><time>2026-04-04T08:55:30.101Z</time></trkpt><trkpt lat="44.9817233" lon="8.8516717"><ele>82.0</ele><time>2026-04-04T08:55:31.105Z</time></trkpt><trkpt lat="44.981785" lon="8.85191"><ele>82.0</ele><time>2026-04-04T08:55:32.102Z</time></trkpt><trkpt lat="44.9818383" lon="8.8521517"><ele>82.0</ele><time>2026-04-04T08:55:33.1Z</time></trkpt><trkpt lat="44.9818717" lon="8.8523983"><ele>82.0</ele><time>2026-04-04T08:55:34.106Z</time></trkpt><trkpt lat="44.9818817" lon="8.8526533"><ele>82.0</ele><time>2026-04-04T08:55:35.104Z</time></trkpt><trkpt lat="44.98187" lon="8.85291"><ele>82.0</ele><time>2026-04-04T08:55:36.101Z</time></trkpt><trkpt lat="44.981845" lon="8.8531683"><ele>82.0</ele><time>2026-04-04T08:55:37.098Z</time></trkpt><trkpt lat="44.9818217" lon="8.8534233"><ele>81.33333333333333</ele><time>2026-04-04T08:55:38.105Z</time></trkpt><trkpt lat="44.9817933" lon="8.8536817"><ele>80.66666666666667</ele><time>2026-04-04T08:55:39.102Z</time></trkpt><trkpt lat="44.9817667" lon="8.8539433"><ele>80.0</ele><time>2026-04-04T08:55:40.101Z</time></trkpt><trkpt lat="44.9817433" lon="8.854205"><ele>80.33333333333334</ele><time>2026-04-04T08:55:41.099Z</time></trkpt><trkpt lat="44.9817167" lon="8.85447"><ele>80.66666666666667</ele><time>2026-04-04T08:55:42.106Z</time></trkpt><trkpt lat="44.9816883" lon="8.8547383"><ele>81.0</ele><time>2026-04-04T08:55:43.1Z</time></trkpt><trkpt lat="44.98166" lon="8.85501"><ele>81.0</ele><time>2026-04-04T08:55:44.102Z</time></trkpt><trkpt lat="44.981635" lon="8.85528"><ele>81.0</ele><time>2026-04-04T08:55:45.102Z</time></trkpt><trkpt lat="44.9816133" lon="8.8555533"><ele>81.0</ele><time>2026-04-04T08:55:46.1Z</time></trkpt><trkpt lat="44.9816" lon="8.8558283"><ele>81.0</ele><time>2026-04-04T08:55:47.108Z</time></trkpt><trkpt lat="44.981595" lon="8.8561017"><ele>81.0</ele><time>2026-04-04T08:55:48.11Z</time></trkpt><trkpt lat="44.9816" lon="8.856375"><ele>81.0</ele><time>2026-04-04T08:55:49.111Z</time></trkpt><trkpt lat="44.981605" lon="8.8566483"><ele>81.0</ele><time>2026-04-04T08:55:50.104Z</time></trkpt><trkpt lat="44.9816117" lon="8.8569217"><ele>81.0</ele><time>2026-04-04T08:55:51.108Z</time></trkpt><trkpt lat="44.98162" lon="8.8571933"><ele>81.0</ele><time>2026-04-04T08:55:52.107Z</time></trkpt><trkpt lat="44.9816283" lon="8.8574667"><ele>81.33333333333333</ele><time>2026-04-04T08:55:53.105Z</time></trkpt><trkpt lat="44.981635" lon="8.85774"><ele>81.66666666666666</ele><time>2026-04-04T08:55:54.105Z</time></trkpt><trkpt lat="44.9816433" lon="8.8580117"><ele>82.0</ele><time>2026-04-04T08:55:55.1Z</time></trkpt><trkpt lat="44.9816533" lon="8.8582833"><ele>82.0</ele><time>2026-04-04T08:55:56.107Z</time></trkpt><trkpt lat="44.9816617" lon="8.8585517"><ele>82.0</ele><time>2026-04-04T08:55:57.105Z</time></trkpt><trkpt lat="44.98167" lon="8.8588183"><ele>82.0</ele><time>2026-04-04T08:55:58.111Z</time></trkpt><trkpt lat="44.9816767" lon="8.8590867"><ele>82.33333333333333</ele><time>2026-04-04T08:55:59.108Z</time></trkpt><trkpt lat="44.981685" lon="8.8593533"><ele>82.66666666666667</ele><time>2026-04-04T08:56:00.104Z</time></trkpt><trkpt lat="44.981695" lon="8.8596217"><ele>83.0</ele><time>2026-04-04T08:56:01.105Z</time></trkpt><trkpt lat="44.9817033" lon="8.859895"><ele>83.0</ele><time>2026-04-04T08:56:02.107Z</time></trkpt><trkpt lat="44.9817117" lon="8.8601717"><ele>83.0</ele><time>2026-04-04T08:56:03.103Z</time></trkpt><trkpt lat="44.98172" lon="8.8604483"><ele>83.0</ele><time>2026-04-04T08:56:04.1Z</time></trkpt><trkpt lat="44.9817283" lon="8.8607267"><ele>83.0</ele><time>2026-04-04T08:56:05.103Z</time></trkpt><trkpt lat="44.981735" lon="8.8610117"><ele>83.0</ele><time>2026-04-04T08:56:06.098Z</time></trkpt><trkpt lat="44.9817417" lon="8.8612967"><ele>83.0</ele><time>2026-04-04T08:56:07.097Z</time></trkpt><trkpt lat="44.98175" lon="8.8615817"><ele>83.0</ele><time>2026-04-04T08:56:08.103Z</time></trkpt><trkpt lat="44.9817583" lon="8.8618633"><ele>83.0</ele><time>2026-04-04T08:56:09.101Z</time></trkpt><trkpt lat="44.9817683" lon="8.862145"><ele>83.0</ele><time>2026-04-04T08:56:10.102Z</time></trkpt><trkpt lat="44.981775" lon="8.862425"><ele>83.33333333333334</ele><time>2026-04-04T08:56:11.107Z</time></trkpt><trkpt lat="44.9817817" lon="8.8627067"><ele>83.66666666666667</ele><time>2026-04-04T08:56:12.102Z</time></trkpt><trkpt lat="44.98179" lon="8.8629867"><ele>84.0</ele><time>2026-04-04T08:56:13.103Z</time></trkpt><trkpt lat="44.9817983" lon="8.8632617"><ele>83.33333333333333</ele><time>2026-04-04T08:56:14.106Z</time></trkpt><trkpt lat="44.981805" lon="8.8635267"><ele>82.66666666666666</ele><time>2026-04-04T08:56:15.105Z</time></trkpt><trkpt lat="44.9818083" lon="8.8637917"><ele>82.0</ele><time>2026-04-04T08:56:16.101Z</time></trkpt><trkpt lat="44.9818167" lon="8.86405"><ele>82.33333333333333</ele><time>2026-04-04T08:56:17.108Z</time></trkpt><trkpt lat="44.98183" lon="8.8643083"><ele>82.66666666666667</ele><time>2026-04-04T08:56:18.103Z</time></trkpt><trkpt lat="44.9818433" lon="8.8645667"><ele>83.0</ele><time>2026-04-04T08:56:19.103Z</time></trkpt><trkpt lat="44.9818667" lon="8.864825"><ele>83.0</ele><time>2026-04-04T08:56:20.098Z</time></trkpt><trkpt lat="44.9818983" lon="8.8650833"><ele>83.0</ele><time>2026-04-04T08:56:21.101Z</time></trkpt><trkpt lat="44.98194" lon="8.8653467"><ele>83.0</ele><time>2026-04-04T08:56:22.102Z</time></trkpt><trkpt lat="44.9819883" lon="8.865605"><ele>83.0</ele><time>2026-04-04T08:56:23.1Z</time></trkpt><trkpt lat="44.9820483" lon="8.8658617"><ele>83.0</ele><time>2026-04-04T08:56:24.101Z</time></trkpt><trkpt lat="44.9821133" lon="8.8661167"><ele>83.0</ele><time>2026-04-04T08:56:25.103Z</time></trkpt><trkpt lat="44.9821833" lon="8.86637"><ele>83.0</ele><time>2026-04-04T08:56:26.109Z</time></trkpt><trkpt lat="44.9822667" lon="8.866615"><ele>83.0</ele><time>2026-04-04T08:56:27.1Z</time></trkpt><trkpt lat="44.9823583" lon="8.8668533"><ele>83.0</ele><time>2026-04-04T08:56:28.105Z</time></trkpt><trkpt lat="44.9824567" lon="8.867085"><ele>82.33333333333334</ele><time>2026-04-04T08:56:29.106Z</time></trkpt><trkpt lat="44.9825617" lon="8.8673033"><ele>81.66666666666667</ele><time>2026-04-04T08:56:30.1Z</time></trkpt><trkpt lat="44.9826667" lon="8.867515"><ele>81.0</ele><time>2026-04-04T08:56:31.101Z</time></trkpt><trkpt lat="44.9827767" lon="8.8677233"><ele>80.66666666666667</ele><time>2026-04-04T08:56:32.102Z</time></trkpt><trkpt lat="44.9828833" lon="8.867925"><ele>80.33333333333334</ele><time>2026-04-04T08:56:33.104Z</time></trkpt><trkpt lat="44.982985" lon="8.8681217"><ele>80.0</ele><time>2026-04-04T08:56:34.102Z</time></trkpt><trkpt lat="44.9830867" lon="8.8683133"><ele>80.0</ele><time>2026-04-04T08:56:35.102Z</time></trkpt><trkpt lat="44.9831867" lon="8.8685017"><ele>80.0</ele><time>2026-04-04T08:56:36.103Z</time></trkpt><trkpt lat="44.983285" lon="8.8686883"><ele>80.0</ele><time>2026-04-04T08:56:37.107Z</time></trkpt><trkpt lat="44.983385" lon="8.8688733"><ele>80.66666666666667</ele><time>2026-04-04T08:56:38.102Z</time></trkpt><trkpt lat="44.983485" lon="8.869055"><ele>81.33333333333333</ele><time>2026-04-04T08:56:39.103Z</time></trkpt><trkpt lat="44.9835817" lon="8.8692333"><ele>82.0</ele><time>2026-04-04T08:56:40.106Z</time></trkpt><trkpt lat="44.983675" lon="8.8694017"><ele>82.0</ele><time>2026-04-04T08:56:41.104Z</time></trkpt><trkpt lat="44.9837383" lon="8.8695783"><ele>82.0</ele><time>2026-04-04T08:56:42.101Z</time></trkpt><trkpt lat="44.9837733" lon="8.8697583"><ele>82.0</ele><time>2026-04-04T08:56:43.103Z</time></trkpt><trkpt lat="44.983775" lon="8.8699417"><ele>82.0</ele><time>2026-04-04T08:56:44.103Z</time></trkpt><trkpt lat="44.9837517" lon="8.87013"><ele>81.5</ele><time>2026-04-04T08:56:45.103Z</time></trkpt><trkpt lat="44.983705" lon="8.8703233"><ele>81.0</ele><time>2026-04-04T08:56:46.108Z</time></trkpt><trkpt lat="44.9836533" lon="8.8705133"><ele>80.5</ele><time>2026-04-04T08:56:47.121Z</time></trkpt><trkpt lat="44.9835983" lon="8.8706967"><ele>80.0</ele><time>2026-04-04T08:56:48.103Z</time></trkpt><trkpt lat="44.9835517" lon="8.870885"><ele>80.25</ele><time>2026-04-04T08:56:49.102Z</time></trkpt><trkpt lat="44.9835033" lon="8.8710717"><ele>80.5</ele><time>2026-04-04T08:56:50.101Z</time></trkpt><trkpt lat="44.9834583" lon="8.871255"><ele>80.75</ele><time>2026-04-04T08:56:51.103Z</time></trkpt><trkpt lat="44.983405" lon="8.8714317"><ele>81.0</ele><time>2026-04-04T08:56:52.107Z</time></trkpt><trkpt lat="44.9833417" lon="8.87161"><ele>80.5</ele><time>2026-04-04T08:56:53.1Z</time></trkpt><trkpt lat="44.9832883" lon="8.871785"><ele>80.0</ele><time>2026-04-04T08:56:54.101Z</time></trkpt><trkpt lat="44.9832317" lon="8.8719617"><ele>79.5</ele><time>2026-04-04T08:56:55.101Z</time></trkpt><trkpt lat="44.9831667" lon="8.8721333"><ele>79.0</ele><time>2026-04-04T08:56:56.11Z</time></trkpt><trkpt lat="44.9831033" lon="8.8723183"><ele>79.0</ele><time>2026-04-04T08:56:57.101Z</time></trkpt><trkpt lat="44.9830433" lon="8.872505"><ele>79.0</ele><time>2026-04-04T08:56:58.103Z</time></trkpt><trkpt lat="44.982985" lon="8.8726933"><ele>79.0</ele><time>2026-04-04T08:56:59.107Z</time></trkpt><trkpt lat="44.9829267" lon="8.8728733"><ele>79.0</ele><time>2026-04-04T08:57:00.105Z</time></trkpt><trkpt lat="44.9828717" lon="8.873055"><ele>79.0</ele><time>2026-04-04T08:57:01.106Z</time></trkpt><trkpt lat="44.9828183" lon="8.8732317"><ele>79.0</ele><time>2026-04-04T08:57:02.106Z</time></trkpt><trkpt lat="44.9827667" lon="8.8733983"><ele>79.0</ele><time>2026-04-04T08:57:03.103Z</time></trkpt><trkpt lat="44.9827183" lon="8.87355"><ele>79.0</ele><time>2026-04-04T08:57:04.107Z</time></trkpt><trkpt lat="44.9826717" lon="8.873705"><ele>79.5</ele><time>2026-04-04T08:57:05.104Z</time></trkpt><trkpt lat="44.982625" lon="8.8738533"><ele>80.0</ele><time>2026-04-04T08:57:06.103Z</time></trkpt><trkpt lat="44.9825833" lon="8.8740033"><ele>80.5</ele><time>2026-04-04T08:57:07.103Z</time></trkpt><trkpt lat="44.9825383" lon="8.8741583"><ele>81.0</ele><time>2026-04-04T08:57:08.102Z</time></trkpt><trkpt lat="44.9824917" lon="8.8743017"><ele>81.8</ele><time>2026-04-04T08:57:09.099Z</time></trkpt><trkpt lat="44.9824467" lon="8.8744433"><ele>82.6</ele><time>2026-04-04T08:57:10.103Z</time></trkpt><trkpt lat="44.982405" lon="8.874585"><ele>83.4</ele><time>2026-04-04T08:57:11.105Z</time></trkpt><trkpt lat="44.9823617" lon="8.8747217"><ele>84.2</ele><time>2026-04-04T08:57:12.106Z</time></trkpt><trkpt lat="44.9823267" lon="8.8748617"><ele>85.0</ele><time>2026-04-04T08:57:13.098Z</time></trkpt><trkpt lat="44.9822833" lon="8.8749933"><ele>84.66666666666666</ele><time>2026-04-04T08:57:14.102Z</time></trkpt><trkpt lat="44.9822383" lon="8.8751233"><ele>84.33333333333333</ele><time>2026-04-04T08:57:15.1Z</time></trkpt><trkpt lat="44.9821983" lon="8.8752317"><ele>84.0</ele><time>2026-04-04T08:57:16.1Z</time></trkpt><trkpt lat="44.9821633" lon="8.8753267"><ele>83.66666666666667</ele><time>2026-04-04T08:57:17.102Z</time></trkpt><trkpt lat="44.9821267" lon="8.8754083"><ele>83.33333333333334</ele><time>2026-04-04T08:57:18.102Z</time></trkpt><trkpt lat="44.9820933" lon="8.875485"><ele>83.0</ele><time>2026-04-04T08:57:19.1Z</time></trkpt><trkpt lat="44.9820633" lon="8.87565"><ele>83.0</ele><time>2026-04-04T08:57:21.1Z</time></trkpt><trkpt lat="44.9821317" lon="8.8757817"><ele>83.0</ele><time>2026-04-04T08:57:23.1Z</time></trkpt><trkpt lat="44.9821667" lon="8.875865"><ele>83.0</ele><time>2026-04-04T08:57:24.107Z</time></trkpt><trkpt lat="44.9822483" lon="8.87595"><ele>83.0</ele><time>2026-04-04T08:57:25.102Z</time></trkpt><trkpt lat="44.982315" lon="8.8760433"><ele>83.0</ele><time>2026-04-04T08:57:26.104Z</time></trkpt><trkpt lat="44.982395" lon="8.876145"><ele>83.2</ele><time>2026-04-04T08:57:27.101Z</time></trkpt><trkpt lat="44.9824683" lon="8.876265"><ele>83.4</ele><time>2026-04-04T08:57:28.104Z</time></trkpt><trkpt lat="44.9825333" lon="8.876385"><ele>83.60000000000001</ele><time>2026-04-04T08:57:29.106Z</time></trkpt><trkpt lat="44.9825933" lon="8.876505"><ele>83.80000000000001</ele><time>2026-04-04T08:57:30.105Z</time></trkpt><trkpt lat="44.9826583" lon="8.876625"><ele>84.0</ele><time>2026-04-04T08:57:31.104Z</time></trkpt><trkpt lat="44.98272" lon="8.8767367"><ele>84.16666666666667</ele><time>2026-04-04T08:57:32.101Z</time></trkpt><trkpt lat="44.98278" lon="8.8768417"><ele>84.33333333333333</ele><time>2026-04-04T08:57:33.099Z</time></trkpt><trkpt lat="44.9828317" lon="8.8769317"><ele>84.5</ele><time>2026-04-04T08:57:34.106Z</time></trkpt><trkpt lat="44.9828783" lon="8.8770067"><ele>84.66666666666666</ele><time>2026-04-04T08:57:35.099Z</time></trkpt><trkpt lat="44.9829217" lon="8.8770783"><ele>84.83333333333333</ele><time>2026-04-04T08:57:36.099Z</time></trkpt><trkpt lat="44.9829567" lon="8.8771533"><ele>85.0</ele><time>2026-04-04T08:57:37.098Z</time></trkpt><trkpt lat="44.982975" lon="8.87726"><ele>85.0</ele><time>2026-04-04T08:57:39.101Z</time></trkpt><trkpt lat="44.9829367" lon="8.8774"><ele>85.0</ele><time>2026-04-04T08:57:41.102Z</time></trkpt><trkpt lat="44.9829067" lon="8.87748"><ele>85.0</ele><time>2026-04-04T08:57:42.104Z</time></trkpt><trkpt lat="44.9828633" lon="8.8775733"><ele>85.0</ele><time>2026-04-04T08:57:43.103Z</time></trkpt><trkpt lat="44.9828133" lon="8.8776617"><ele>85.0</ele><time>2026-04-04T08:57:44.104Z</time></trkpt><trkpt lat="44.9827567" lon="8.8777517"><ele>85.0</ele><time>2026-04-04T08:57:45.106Z</time></trkpt><trkpt lat="44.9827117" lon="8.8778533"><ele>85.16666666666666</ele><time>2026-04-04T08:57:46.105Z</time></trkpt><trkpt lat="44.9826517" lon="8.87793"><ele>85.33333333333333</ele><time>2026-04-04T08:57:47.104Z</time></trkpt><trkpt lat="44.9826033" lon="8.8780067"><ele>85.5</ele><time>2026-04-04T08:57:48.105Z</time></trkpt><trkpt lat="44.9825183" lon="8.8780867"><ele>85.66666666666667</ele><time>2026-04-04T08:57:50.102Z</time></trkpt><trkpt lat="44.9824683" lon="8.878145"><ele>85.83333333333334</ele><time>2026-04-04T08:57:52.104Z</time></trkpt><trkpt lat="44.9824167" lon="8.8782117"><ele>86.0</ele><time>2026-04-04T08:57:54.102Z</time></trkpt><trkpt lat="44.9823467" lon="8.87828"><ele>86.19999999999999</ele><time>2026-04-04T08:57:56.103Z</time></trkpt><trkpt lat="44.9822817" lon="8.8783417"><ele>86.39999999999999</ele><time>2026-04-04T08:57:58.103Z</time></trkpt><trkpt lat="44.98222" lon="8.8784283"><ele>86.6</ele><time>2026-04-04T08:58:00.1Z</time></trkpt><trkpt lat="44.9821567" lon="8.8785183"><ele>86.8</ele><time>2026-04-04T08:58:02.102Z</time></trkpt><trkpt lat="44.9820867" lon="8.8786133"><ele>87.0</ele><time>2026-04-04T08:58:04.1Z</time></trkpt><trkpt lat="44.9820133" lon="8.8787283"><ele>87.0</ele><time>2026-04-04T08:58:06.101Z</time></trkpt><trkpt lat="44.981935" lon="8.8787383"><ele>87.0</ele><time>2026-04-04T08:58:08.105Z</time></trkpt><trkpt lat="44.9818533" lon="8.8787183"><ele>87.0</ele><time>2026-04-04T08:58:10.103Z</time></trkpt><trkpt lat="44.9817933" lon="8.8786817"><ele>87.0</ele><time>2026-04-04T08:58:11.102Z</time></trkpt><trkpt lat="44.981735" lon="8.8786433"><ele>87.0</ele><time>2026-04-04T08:58:12.102Z</time></trkpt><trkpt lat="44.981625" lon="8.878545"><ele>87.0</ele><time>2026-04-04T08:58:14.102Z</time></trkpt><trkpt lat="44.9815717" lon="8.8784883"><ele>87.0</ele><time>2026-04-04T08:58:15.101Z</time></trkpt><trkpt lat="44.981465" lon="8.8784117"><ele>87.0</ele><time>2026-04-04T08:58:17.098Z</time></trkpt><trkpt lat="44.98139" lon="8.87835"><ele>87.0</ele><time>2026-04-04T08:58:19.101Z</time></trkpt><trkpt lat="44.9813233" lon="8.878405"><ele>87.0</ele><time>2026-04-04T08:58:23.102Z</time></trkpt><trkpt lat="44.9812733" lon="8.8785033"><ele>87.0</ele><time>2026-04-04T08:58:25.102Z</time></trkpt><trkpt lat="44.981235" lon="8.8785967"><ele>87.0</ele><time>2026-04-04T08:58:26.1Z</time></trkpt><trkpt lat="44.98121" lon="8.8786883"><ele>87.6</ele><time>2026-04-04T08:58:27.104Z</time></trkpt><trkpt lat="44.9811817" lon="8.878775"><ele>88.19999999999999</ele><time>2026-04-04T08:58:28.101Z</time></trkpt><trkpt lat="44.98118" lon="8.8788767"><ele>88.8</ele><time>2026-04-04T08:58:29.102Z</time></trkpt><trkpt lat="44.981165" lon="8.8790367"><ele>89.4</ele><time>2026-04-04T08:58:31.104Z</time></trkpt><trkpt lat="44.9811383" lon="8.8791733"><ele>90.0</ele><time>2026-04-04T08:58:33.106Z</time></trkpt><trkpt lat="44.9810983" lon="8.879325"><ele>90.33333333333333</ele><time>2026-04-04T08:58:35.101Z</time></trkpt><trkpt lat="44.981055" lon="8.87947"><ele>90.66666666666667</ele><time>2026-04-04T08:58:37.101Z</time></trkpt><trkpt lat="44.9810067" lon="8.879585"><ele>91.0</ele><time>2026-04-04T08:58:39.103Z</time></trkpt><trkpt lat="44.9809683" lon="8.879665"><ele>91.33333333333334</ele><time>2026-04-04T08:58:41.104Z</time></trkpt><trkpt lat="44.9808783" lon="8.8797"><ele>91.66666666666667</ele><time>2026-04-04T08:58:44.103Z</time></trkpt><trkpt lat="44.9808117" lon="8.8796733"><ele>92.0</ele><time>2026-04-04T08:58:45.105Z</time></trkpt><trkpt lat="44.98075" lon="8.8796517"><ele>92.0</ele><time>2026-04-04T08:58:46.101Z</time></trkpt><trkpt lat="44.9806217" lon="8.8796"><ele>92.0</ele><time>2026-04-04T08:58:48.099Z</time></trkpt><trkpt lat="44.9804967" lon="8.879535"><ele>92.0</ele><time>2026-04-04T08:58:50.101Z</time></trkpt><trkpt lat="44.9804317" lon="8.879505"><ele>92.0</ele><time>2026-04-04T08:58:51.103Z</time></trkpt><trkpt lat="44.9803667" lon="8.8794883"><ele>92.0</ele><time>2026-04-04T08:58:52.1Z</time></trkpt><trkpt lat="44.9803017" lon="8.87948"><ele>92.0</ele><time>2026-04-04T08:58:53.105Z</time></trkpt><trkpt lat="44.9801983" lon="8.8794667"><ele>92.0</ele><time>2026-04-04T08:58:55.103Z</time></trkpt><trkpt lat="44.9801317" lon="8.8794533"><ele>92.0</ele><time>2026-04-04T08:58:57.105Z</time></trkpt><trkpt lat="44.9800683" lon="8.879435"><ele>92.0</ele><time>2026-04-04T08:59:02.106Z</time></trkpt><trkpt lat="44.9799917" lon="8.87947"><ele>92.0</ele><time>2026-04-04T08:59:04.105Z</time></trkpt><trkpt lat="44.97992" lon="8.87951"><ele>92.0</ele><time>2026-04-04T08:59:05.1Z</time></trkpt><trkpt lat="44.979825" lon="8.879535"><ele>91.5</ele><time>2026-04-04T08:59:06.1Z</time></trkpt><trkpt lat="44.9797433" lon="8.879565"><ele>91.0</ele><time>2026-04-04T08:59:07.104Z</time></trkpt><trkpt lat="44.9796617" lon="8.8795917"><ele>90.5</ele><time>2026-04-04T08:59:08.102Z</time></trkpt><trkpt lat="44.9795783" lon="8.879595"><ele>90.0</ele><time>2026-04-04T08:59:09.097Z</time></trkpt><trkpt lat="44.9794983" lon="8.8796083"><ele>89.5</ele><time>2026-04-04T08:59:10.1Z</time></trkpt><trkpt lat="44.9794267" lon="8.8796183"><ele>89.0</ele><time>2026-04-04T08:59:11.103Z</time></trkpt><trkpt lat="44.97936" lon="8.87962"><ele>89.0</ele><time>2026-04-04T08:59:12.101Z</time></trkpt><trkpt lat="44.9792583" lon="8.8796483"><ele>89.0</ele><time>2026-04-04T08:59:14.102Z</time></trkpt><trkpt lat="44.9792233" lon="8.8797267"><ele>89.0</ele><time>2026-04-04T08:59:16.099Z</time></trkpt><trkpt lat="44.9792617" lon="8.8797983"><ele>89.0</ele><time>2026-04-04T08:59:17.104Z</time></trkpt><trkpt lat="44.979265" lon="8.8799017"><ele>89.0</ele><time>2026-04-04T08:59:19.103Z</time></trkpt><trkpt lat="44.9792717" lon="8.88"><ele>89.0</ele><time>2026-04-04T08:59:20.104Z</time></trkpt><trkpt lat="44.9792917" lon="8.8801133"><ele>89.5</ele><time>2026-04-04T08:59:21.104Z</time></trkpt><trkpt lat="44.97931" lon="8.8802117"><ele>90.0</ele><time>2026-04-04T08:59:22.105Z</time></trkpt><trkpt lat="44.9793217" lon="8.8803033"><ele>90.5</ele><time>2026-04-04T08:59:23.106Z</time></trkpt><trkpt lat="44.9793333" lon="8.8803917"><ele>91.0</ele><time>2026-04-04T08:59:24.105Z</time></trkpt><trkpt lat="44.9793633" lon="8.8805333"><ele>91.5</ele><time>2026-04-04T08:59:26.1Z</time></trkpt><trkpt lat="44.979445" lon="8.880605"><ele>92.0</ele><time>2026-04-04T08:59:28.097Z</time></trkpt><trkpt lat="44.9795217" lon="8.8806233"><ele>92.0</ele><time>2026-04-04T08:59:30.1Z</time></trkpt><trkpt lat="44.9795483" lon="8.8807067"><ele>92.0</ele><time>2026-04-04T08:59:32.1Z</time></trkpt><trkpt lat="44.9795733" lon="8.8808267"><ele>92.0</ele><time>2026-04-04T08:59:34.101Z</time></trkpt><trkpt lat="44.979585" lon="8.880915"><ele>92.0</ele><time>2026-04-04T08:59:36.101Z</time></trkpt><trkpt lat="44.9796033" lon="8.8810333"><ele>92.0</ele><time>2026-04-04T09:00:04.101Z</time></trkpt><trkpt lat="44.9796067" lon="8.8811617"><ele>92.0</ele><time>2026-04-04T09:00:06.11Z</time></trkpt><trkpt lat="44.97965" lon="8.88134"><ele>92.0</ele><time>2026-04-04T09:00:08.105Z</time></trkpt><trkpt lat="44.9796717" lon="8.8814367"><ele>92.0</ele><time>2026-04-04T09:00:09.099Z</time></trkpt><trkpt lat="44.9796767" lon="8.8815433"><ele>92.0</ele><time>2026-04-04T09:00:10.103Z</time></trkpt><trkpt lat="44.9796967" lon="8.8816517"><ele>92.0</ele><time>2026-04-04T09:00:11.108Z</time></trkpt><trkpt lat="44.979735" lon="8.8817433"><ele>92.0</ele><time>2026-04-04T09:00:12.106Z</time></trkpt><trkpt lat="44.9797317" lon="8.881875"><ele>92.0</ele><time>2026-04-04T09:00:13.106Z</time></trkpt><trkpt lat="44.9797417" lon="8.881975"><ele>91.33333333333334</ele><time>2026-04-04T09:00:14.105Z</time></trkpt><trkpt lat="44.9797633" lon="8.882065"><ele>90.66666666666667</ele><time>2026-04-04T09:00:15.098Z</time></trkpt><trkpt lat="44.97977" lon="8.882155"><ele>90.0</ele><time>2026-04-04T09:00:16.1Z</time></trkpt><trkpt lat="44.97976" lon="8.8822517"><ele>89.33333333333333</ele><time>2026-04-04T09:00:17.098Z</time></trkpt><trkpt lat="44.9797517" lon="8.8823633"><ele>88.66666666666666</ele><time>2026-04-04T09:00:18.101Z</time></trkpt><trkpt lat="44.97973" lon="8.8825083"><ele>88.0</ele><time>2026-04-04T09:00:19.1Z</time></trkpt><trkpt lat="44.97972" lon="8.8826383"><ele>87.80000000000001</ele><time>2026-04-04T09:00:20.105Z</time></trkpt><trkpt lat="44.9797183" lon="8.8827633"><ele>87.6</ele><time>2026-04-04T09:00:21.102Z</time></trkpt><trkpt lat="44.9797233" lon="8.8828917"><ele>87.4</ele><time>2026-04-04T09:00:22.102Z</time></trkpt><trkpt lat="44.9797167" lon="8.8830217"><ele>87.19999999999999</ele><time>2026-04-04T09:00:23.104Z</time></trkpt><trkpt lat="44.9796983" lon="8.8831567"><ele>87.0</ele><time>2026-04-04T09:00:24.102Z</time></trkpt><trkpt lat="44.9796867" lon="8.88327"><ele>87.0</ele><time>2026-04-04T09:00:25.103Z</time></trkpt><trkpt lat="44.9796883" lon="8.8833967"><ele>87.0</ele><time>2026-04-04T09:00:26.103Z</time></trkpt><trkpt lat="44.9796867" lon="8.88352"><ele>87.0</ele><time>2026-04-04T09:00:27.102Z</time></trkpt><trkpt lat="44.97968" lon="8.8836417"><ele>87.0</ele><time>2026-04-04T09:00:28.103Z</time></trkpt><trkpt lat="44.9796833" lon="8.8837667"><ele>87.0</ele><time>2026-04-04T09:00:29.104Z</time></trkpt><trkpt lat="44.9796883" lon="8.8838883"><ele>87.0</ele><time>2026-04-04T09:00:30.102Z</time></trkpt><trkpt lat="44.979685" lon="8.8840233"><ele>87.0</ele><time>2026-04-04T09:00:31.103Z</time></trkpt><trkpt lat="44.9796783" lon="8.8841517"><ele>87.0</ele><time>2026-04-04T09:00:32.103Z</time></trkpt><trkpt lat="44.9796617" lon="8.8842767"><ele>87.0</ele><time>2026-04-04T09:00:33.105Z</time></trkpt><trkpt lat="44.9796483" lon="8.8844017"><ele>87.0</ele><time>2026-04-04T09:00:34.098Z</time></trkpt><trkpt lat="44.9796367" lon="8.884515"><ele>87.0</ele><time>2026-04-04T09:00:35.104Z</time></trkpt><trkpt lat="44.979625" lon="8.8846283"><ele>87.0</ele><time>2026-04-04T09:00:36.102Z</time></trkpt><trkpt lat="44.9796133" lon="8.8847183"><ele>86.8</ele><time>2026-04-04T09:00:37.101Z</time></trkpt><trkpt lat="44.9796" lon="8.8848417"><ele>86.6</ele><time>2026-04-04T09:00:39.097Z</time></trkpt><trkpt lat="44.9795533" lon="8.8850233"><ele>86.39999999999999</ele><time>2026-04-04T09:01:00.099Z</time></trkpt><trkpt lat="44.9795367" lon="8.88519"><ele>86.19999999999999</ele><time>2026-04-04T09:01:02.098Z</time></trkpt><trkpt lat="44.9795267" lon="8.8853"><ele>86.0</ele><time>2026-04-04T09:01:03.1Z</time></trkpt><trkpt lat="44.9795183" lon="8.885415"><ele>85.8</ele><time>2026-04-04T09:01:04.1Z</time></trkpt><trkpt lat="44.9795017" lon="8.885525"><ele>85.6</ele><time>2026-04-04T09:01:05.101Z</time></trkpt><trkpt lat="44.97947" lon="8.8856483"><ele>85.4</ele><time>2026-04-04T09:01:06.101Z</time></trkpt><trkpt lat="44.9794367" lon="8.8857883"><ele>85.2</ele><time>2026-04-04T09:01:07.102Z</time></trkpt><trkpt lat="44.9794" lon="8.885925"><ele>85.0</ele><time>2026-04-04T09:01:08.099Z</time></trkpt><trkpt lat="44.97938" lon="8.8860667"><ele>85.0</ele><time>2026-04-04T09:01:09.101Z</time></trkpt><trkpt lat="44.9793383" lon="8.8861917"><ele>85.0</ele><time>2026-04-04T09:01:10.103Z</time></trkpt><trkpt lat="44.9792917" lon="8.88632"><ele>85.0</ele><time>2026-04-04T09:01:11.102Z</time></trkpt><trkpt lat="44.9792467" lon="8.886455"><ele>85.0</ele><time>2026-04-04T09:01:12.104Z</time></trkpt><trkpt lat="44.9792067" lon="8.8866"><ele>85.0</ele><time>2026-04-04T09:01:13.111Z</time></trkpt><trkpt lat="44.9791683" lon="8.8867433"><ele>86.0</ele><time>2026-04-04T09:01:14.102Z</time></trkpt><trkpt lat="44.979125" lon="8.8868883"><ele>87.0</ele><time>2026-04-04T09:01:15.104Z</time></trkpt><trkpt lat="44.9790883" lon="8.88704"><ele>88.0</ele><time>2026-04-04T09:01:16.1Z</time></trkpt><trkpt lat="44.9790517" lon="8.8871933"><ele>89.0</ele><time>2026-04-04T09:01:17.108Z</time></trkpt><trkpt lat="44.97902" lon="8.8873483"><ele>89.0</ele><time>2026-04-04T09:01:18.097Z</time></trkpt><trkpt lat="44.9789983" lon="8.8875083"><ele>89.0</ele><time>2026-04-04T09:01:19.11Z</time></trkpt><trkpt lat="44.9789733" lon="8.887665"><ele>89.0</ele><time>2026-04-04T09:01:20.101Z</time></trkpt><trkpt lat="44.97894" lon="8.887825"><ele>89.0</ele><time>2026-04-04T09:01:21.1Z</time></trkpt><trkpt lat="44.9789167" lon="8.8880017"><ele>88.25</ele><time>2026-04-04T09:01:22.097Z</time></trkpt><trkpt lat="44.9788917" lon="8.8881817"><ele>87.5</ele><time>2026-04-04T09:01:23.104Z</time></trkpt><trkpt lat="44.978865" lon="8.888365"><ele>86.75</ele><time>2026-04-04T09:01:24.099Z</time></trkpt><trkpt lat="44.978835" lon="8.888555"><ele>86.0</ele><time>2026-04-04T09:01:25.098Z</time></trkpt><trkpt lat="44.9788083" lon="8.88875"><ele>86.0</ele><time>2026-04-04T09:01:26.097Z</time></trkpt><trkpt lat="44.9787767" lon="8.8889483"><ele>86.0</ele><time>2026-04-04T09:01:27.1Z</time></trkpt><trkpt lat="44.978745" lon="8.889145"><ele>86.0</ele><time>2026-04-04T09:01:28.099Z</time></trkpt><trkpt lat="44.9787167" lon="8.8893417"><ele>86.0</ele><time>2026-04-04T09:01:29.1Z</time></trkpt><trkpt lat="44.97868" lon="8.8895433"><ele>86.0</ele><time>2026-04-04T09:01:30.103Z</time></trkpt><trkpt lat="44.9786533" lon="8.88975"><ele>86.0</ele><time>2026-04-04T09:01:31.102Z</time></trkpt><trkpt lat="44.9786217" lon="8.8899483"><ele>86.0</ele><time>2026-04-04T09:01:32.107Z</time></trkpt><trkpt lat="44.9785917" lon="8.8901483"><ele>86.0</ele><time>2026-04-04T09:01:33.103Z</time></trkpt><trkpt lat="44.9785633" lon="8.8903517"><ele>86.0</ele><time>2026-04-04T09:01:34.103Z</time></trkpt><trkpt lat="44.9785267" lon="8.89055"><ele>86.0</ele><time>2026-04-04T09:01:35.103Z</time></trkpt><trkpt lat="44.97849" lon="8.8907533"><ele>86.0</ele><time>2026-04-04T09:01:36.109Z</time></trkpt><trkpt lat="44.9784567" lon="8.890975"><ele>85.33333333333334</ele><time>2026-04-04T09:01:37.103Z</time></trkpt><trkpt lat="44.9784317" lon="8.8911883"><ele>84.66666666666667</ele><time>2026-04-04T09:01:38.101Z</time></trkpt><trkpt lat="44.978405" lon="8.8914"><ele>84.0</ele><time>2026-04-04T09:01:39.106Z</time></trkpt><trkpt lat="44.978375" lon="8.8916267"><ele>84.0</ele><time>2026-04-04T09:01:40.104Z</time></trkpt><trkpt lat="44.978345" lon="8.8918483"><ele>84.0</ele><time>2026-04-04T09:01:41.1Z</time></trkpt><trkpt lat="44.978315" lon="8.89207"><ele>84.0</ele><time>2026-04-04T09:01:42.101Z</time></trkpt><trkpt lat="44.9782783" lon="8.8922917"><ele>84.0</ele><time>2026-04-04T09:01:43.105Z</time></trkpt><trkpt lat="44.978245" lon="8.8925167"><ele>84.0</ele><time>2026-04-04T09:01:44.102Z</time></trkpt><trkpt lat="44.9782133" lon="8.8927333"><ele>84.0</ele><time>2026-04-04T09:01:45.105Z</time></trkpt><trkpt lat="44.97818" lon="8.8929517"><ele>84.0</ele><time>2026-04-04T09:01:46.105Z</time></trkpt><trkpt lat="44.9781417" lon="8.8931683"><ele>84.0</ele><time>2026-04-04T09:01:47.104Z</time></trkpt><trkpt lat="44.9781067" lon="8.8933867"><ele>84.0</ele><time>2026-04-04T09:01:48.102Z</time></trkpt><trkpt lat="44.9780767" lon="8.8936033"><ele>84.0</ele><time>2026-04-04T09:01:49.105Z</time></trkpt><trkpt lat="44.9780433" lon="8.893825"><ele>84.0</ele><time>2026-04-04T09:01:50.105Z</time></trkpt><trkpt lat="44.97801" lon="8.894045"><ele>84.0</ele><time>2026-04-04T09:01:51.109Z</time></trkpt><trkpt lat="44.9779733" lon="8.8942633"><ele>84.0</ele><time>2026-04-04T09:01:52.103Z</time></trkpt><trkpt lat="44.9779383" lon="8.8944717"><ele>84.0</ele><time>2026-04-04T09:01:53.103Z</time></trkpt><trkpt lat="44.9779083" lon="8.8946717"><ele>84.0</ele><time>2026-04-04T09:01:54.102Z</time></trkpt><trkpt lat="44.97788" lon="8.8948633"><ele>84.0</ele><time>2026-04-04T09:01:55.103Z</time></trkpt><trkpt lat="44.9778483" lon="8.89506"><ele>84.0</ele><time>2026-04-04T09:01:56.107Z</time></trkpt><trkpt lat="44.9778183" lon="8.895265"><ele>84.0</ele><time>2026-04-04T09:01:57.101Z</time></trkpt><trkpt lat="44.9777917" lon="8.8954683"><ele>84.0</ele><time>2026-04-04T09:01:58.103Z</time></trkpt><trkpt lat="44.9777683" lon="8.89568"><ele>84.0</ele><time>2026-04-04T09:01:59.103Z</time></trkpt><trkpt lat="44.9777517" lon="8.8958983"><ele>83.0</ele><time>2026-04-04T09:02:00.103Z</time></trkpt><trkpt lat="44.9777317" lon="8.8961083"><ele>82.0</ele><time>2026-04-04T09:02:01.104Z</time></trkpt><trkpt lat="44.9777067" lon="8.89632"><ele>81.0</ele><time>2026-04-04T09:02:02.102Z</time></trkpt><trkpt lat="44.9776683" lon="8.8965383"><ele>81.66666666666667</ele><time>2026-04-04T09:02:03.102Z</time></trkpt><trkpt lat="44.9776183" lon="8.896775"><ele>82.33333333333334</ele><time>2026-04-04T09:02:04.103Z</time></trkpt><trkpt lat="44.9775567" lon="8.8970017"><ele>83.0</ele><time>2026-04-04T09:02:05.099Z</time></trkpt><trkpt lat="44.97749" lon="8.897205"><ele>83.33333333333334</ele><time>2026-04-04T09:02:06.1Z</time></trkpt><trkpt lat="44.977415" lon="8.8974017"><ele>83.66666666666667</ele><time>2026-04-04T09:02:07.101Z</time></trkpt><trkpt lat="44.9773433" lon="8.8976133"><ele>84.0</ele><time>2026-04-04T09:02:08.102Z</time></trkpt><trkpt lat="44.9772683" lon="8.8978167"><ele>84.0</ele><time>2026-04-04T09:02:09.102Z</time></trkpt><trkpt lat="44.9771967" lon="8.8980167"><ele>84.0</ele><time>2026-04-04T09:02:10.101Z</time></trkpt><trkpt lat="44.977135" lon="8.89822"><ele>84.0</ele><time>2026-04-04T09:02:11.101Z</time></trkpt><trkpt lat="44.97708" lon="8.89843"><ele>84.33333333333333</ele><time>2026-04-04T09:02:12.099Z</time></trkpt><trkpt lat="44.9770333" lon="8.8986533"><ele>84.66666666666666</ele><time>2026-04-04T09:02:13.105Z</time></trkpt><trkpt lat="44.976995" lon="8.898885"><ele>85.0</ele><time>2026-04-04T09:02:14.102Z</time></trkpt><trkpt lat="44.9769717" lon="8.89913"><ele>85.33333333333333</ele><time>2026-04-04T09:02:15.098Z</time></trkpt><trkpt lat="44.9769533" lon="8.8993767"><ele>85.66666666666667</ele><time>2026-04-04T09:02:16.105Z</time></trkpt><trkpt lat="44.9769383" lon="8.8996367"><ele>86.0</ele><time>2026-04-04T09:02:17.102Z</time></trkpt><trkpt lat="44.9769283" lon="8.8999017"><ele>85.66666666666667</ele><time>2026-04-04T09:02:18.105Z</time></trkpt><trkpt lat="44.9769233" lon="8.900155"><ele>85.33333333333333</ele><time>2026-04-04T09:02:19.106Z</time></trkpt><trkpt lat="44.9769067" lon="8.9004"><ele>85.0</ele><time>2026-04-04T09:02:20.101Z</time></trkpt><trkpt lat="44.9768867" lon="8.9006417"><ele>85.0</ele><time>2026-04-04T09:02:21.1Z</time></trkpt><trkpt lat="44.9768717" lon="8.900875"><ele>85.0</ele><time>2026-04-04T09:02:22.102Z</time></trkpt><trkpt lat="44.976865" lon="8.9011117"><ele>85.0</ele><time>2026-04-04T09:02:23.106Z</time></trkpt><trkpt lat="44.9768683" lon="8.901345"><ele>85.0</ele><time>2026-04-04T09:02:24.099Z</time></trkpt><trkpt lat="44.9768783" lon="8.9015783"><ele>85.0</ele><time>2026-04-04T09:02:25.101Z</time></trkpt><trkpt lat="44.97689" lon="8.90181"><ele>85.0</ele><time>2026-04-04T09:02:26.101Z</time></trkpt><trkpt lat="44.9769033" lon="8.90204"><ele>85.0</ele><time>2026-04-04T09:02:27.099Z</time></trkpt><trkpt lat="44.9769033" lon="8.9022717"><ele>85.0</ele><time>2026-04-04T09:02:28.105Z</time></trkpt><trkpt lat="44.976885" lon="8.9025033"><ele>85.0</ele><time>2026-04-04T09:02:29.098Z</time></trkpt><trkpt lat="44.9768583" lon="8.90274"><ele>85.0</ele><time>2026-04-04T09:02:30.101Z</time></trkpt><trkpt lat="44.9768267" lon="8.90298"><ele>85.0</ele><time>2026-04-04T09:02:31.104Z</time></trkpt><trkpt lat="44.9767833" lon="8.9032167"><ele>85.0</ele><time>2026-04-04T09:02:32.099Z</time></trkpt><trkpt lat="44.9767383" lon="8.9034567"><ele>85.0</ele><time>2026-04-04T09:02:33.098Z</time></trkpt><trkpt lat="44.9766917" lon="8.9036967"><ele>85.0</ele><time>2026-04-04T09:02:34.098Z</time></trkpt><trkpt lat="44.976645" lon="8.9039417"><ele>85.0</ele><time>2026-04-04T09:02:35.104Z</time></trkpt><trkpt lat="44.9765967" lon="8.904185"><ele>85.66666666666666</ele><time>2026-04-04T09:02:36.099Z</time></trkpt><trkpt lat="44.9765483" lon="8.90443"><ele>86.33333333333333</ele><time>2026-04-04T09:02:37.1Z</time></trkpt><trkpt lat="44.9764983" lon="8.9046767"><ele>87.0</ele><time>2026-04-04T09:02:38.102Z</time></trkpt><trkpt lat="44.9764483" lon="8.9049217"><ele>86.66666666666667</ele><time>2026-04-04T09:02:39.099Z</time></trkpt><trkpt lat="44.9764017" lon="8.9051633"><ele>86.33333333333334</ele><time>2026-04-04T09:02:40.096Z</time></trkpt><trkpt lat="44.9763567" lon="8.9054083"><ele>86.0</ele><time>2026-04-04T09:02:41.1Z</time></trkpt><trkpt lat="44.9763117" lon="8.9056567"><ele>86.0</ele><time>2026-04-04T09:02:42.1Z</time></trkpt><trkpt lat="44.976265" lon="8.9059067"><ele>86.0</ele><time>2026-04-04T09:02:43.102Z</time></trkpt><trkpt lat="44.9762167" lon="8.9061583"><ele>86.0</ele><time>2026-04-04T09:02:44.102Z</time></trkpt><trkpt lat="44.9761683" lon="8.9064133"><ele>85.66666666666667</ele><time>2026-04-04T09:02:45.103Z</time></trkpt><trkpt lat="44.9761217" lon="8.9066633"><ele>85.33333333333333</ele><time>2026-04-04T09:02:46.1Z</time></trkpt><trkpt lat="44.9760717" lon="8.90692"><ele>85.0</ele><time>2026-04-04T09:02:47.103Z</time></trkpt><trkpt lat="44.9760233" lon="8.907175"><ele>84.66666666666666</ele><time>2026-04-04T09:02:48.102Z</time></trkpt><trkpt lat="44.975975" lon="8.9074317"><ele>84.33333333333333</ele><time>2026-04-04T09:02:49.109Z</time></trkpt><trkpt lat="44.975925" lon="8.9076967"><ele>84.0</ele><time>2026-04-04T09:02:50.104Z</time></trkpt><trkpt lat="44.9758733" lon="8.907965"><ele>84.33333333333333</ele><time>2026-04-04T09:02:51.105Z</time></trkpt><trkpt lat="44.9758217" lon="8.9082283"><ele>84.66666666666666</ele><time>2026-04-04T09:02:52.1Z</time></trkpt><trkpt lat="44.97577" lon="8.9084917"><ele>85.0</ele><time>2026-04-04T09:02:53.108Z</time></trkpt><trkpt lat="44.9757217" lon="8.908745"><ele>85.33333333333333</ele><time>2026-04-04T09:02:54.103Z</time></trkpt><trkpt lat="44.9756733" lon="8.9089967"><ele>85.66666666666667</ele><time>2026-04-04T09:02:55.101Z</time></trkpt><trkpt lat="44.9756233" lon="8.9092483"><ele>86.0</ele><time>2026-04-04T09:02:56.099Z</time></trkpt><trkpt lat="44.9755733" lon="8.909495"><ele>86.33333333333334</ele><time>2026-04-04T09:02:57.113Z</time></trkpt><trkpt lat="44.9755233" lon="8.9097417"><ele>86.66666666666667</ele><time>2026-04-04T09:02:58.102Z</time></trkpt><trkpt lat="44.9754717" lon="8.9099883"><ele>87.0</ele><time>2026-04-04T09:02:59.102Z</time></trkpt><trkpt lat="44.975415" lon="8.91023"><ele>87.0</ele><time>2026-04-04T09:03:00.1Z</time></trkpt><trkpt lat="44.97535" lon="8.9104667"><ele>87.0</ele><time>2026-04-04T09:03:01.105Z</time></trkpt><trkpt lat="44.9752767" lon="8.9106983"><ele>87.0</ele><time>2026-04-04T09:03:02.101Z</time></trkpt><trkpt lat="44.9752" lon="8.9109267"><ele>86.33333333333333</ele><time>2026-04-04T09:03:03.105Z</time></trkpt><trkpt lat="44.9751217" lon="8.9111617"><ele>85.66666666666666</ele><time>2026-04-04T09:03:04.101Z</time></trkpt><trkpt lat="44.9750417" lon="8.9113967"><ele>85.0</ele><time>2026-04-04T09:03:05.103Z</time></trkpt><trkpt lat="44.9749633" lon="8.911635"><ele>85.0</ele><time>2026-04-04T09:03:06.101Z</time></trkpt><trkpt lat="44.974885" lon="8.9118767"><ele>85.0</ele><time>2026-04-04T09:03:07.103Z</time></trkpt><trkpt lat="44.9748017" lon="8.9121133"><ele>85.0</ele><time>2026-04-04T09:03:08.101Z</time></trkpt><trkpt lat="44.9747183" lon="8.9123517"><ele>85.0</ele><time>2026-04-04T09:03:09.103Z</time></trkpt><trkpt lat="44.9746333" lon="8.9125933"><ele>85.0</ele><time>2026-04-04T09:03:10.101Z</time></trkpt><trkpt lat="44.9745467" lon="8.9128333"><ele>85.0</ele><time>2026-04-04T09:03:11.101Z</time></trkpt><trkpt lat="44.9744567" lon="8.9130733"><ele>85.0</ele><time>2026-04-04T09:03:12.103Z</time></trkpt><trkpt lat="44.9743583" lon="8.9133033"><ele>85.0</ele><time>2026-04-04T09:03:13.099Z</time></trkpt><trkpt lat="44.97426" lon="8.9135367"><ele>85.0</ele><time>2026-04-04T09:03:14.099Z</time></trkpt><trkpt lat="44.97416" lon="8.9137717"><ele>85.0</ele><time>2026-04-04T09:03:15.1Z</time></trkpt><trkpt lat="44.9740567" lon="8.914005"><ele>85.0</ele><time>2026-04-04T09:03:16.099Z</time></trkpt><trkpt lat="44.9739533" lon="8.9142433"><ele>85.0</ele><time>2026-04-04T09:03:17.103Z</time></trkpt><trkpt lat="44.97385" lon="8.9144783"><ele>84.66666666666666</ele><time>2026-04-04T09:03:18.106Z</time></trkpt><trkpt lat="44.9737433" lon="8.9147117"><ele>84.33333333333333</ele><time>2026-04-04T09:03:19.101Z</time></trkpt><trkpt lat="44.9736383" lon="8.9149433"><ele>84.0</ele><time>2026-04-04T09:03:20.101Z</time></trkpt><trkpt lat="44.9735333" lon="8.9151767"><ele>84.0</ele><time>2026-04-04T09:03:21.101Z</time></trkpt><trkpt lat="44.9734267" lon="8.9154117"><ele>84.0</ele><time>2026-04-04T09:03:22.1Z</time></trkpt><trkpt lat="44.97332" lon="8.91565"><ele>84.0</ele><time>2026-04-04T09:03:23.104Z</time></trkpt><trkpt lat="44.9732167" lon="8.91589"><ele>84.0</ele><time>2026-04-04T09:03:24.1Z</time></trkpt><trkpt lat="44.973115" lon="8.9161417"><ele>84.0</ele><time>2026-04-04T09:03:25.102Z</time></trkpt><trkpt lat="44.97301" lon="8.9163917"><ele>84.0</ele><time>2026-04-04T09:03:26.102Z</time></trkpt><trkpt lat="44.9729083" lon="8.916635"><ele>84.33333333333333</ele><time>2026-04-04T09:03:27.1Z</time></trkpt><trkpt lat="44.9728083" lon="8.9168767"><ele>84.66666666666666</ele><time>2026-04-04T09:03:28.108Z</time></trkpt><trkpt lat="44.97271" lon="8.9171167"><ele>85.0</ele><time>2026-04-04T09:03:29.099Z</time></trkpt><trkpt lat="44.972625" lon="8.9173633"><ele>85.0</ele><time>2026-04-04T09:03:30.104Z</time></trkpt><trkpt lat="44.9725533" lon="8.9176217"><ele>85.0</ele><time>2026-04-04T09:03:31.107Z</time></trkpt><trkpt lat="44.972495" lon="8.9178867"><ele>85.0</ele><time>2026-04-04T09:03:32.11Z</time></trkpt><trkpt lat="44.9724467" lon="8.9181567"><ele>85.66666666666666</ele><time>2026-04-04T09:03:33.104Z</time></trkpt><trkpt lat="44.9723967" lon="8.9184283"><ele>86.33333333333333</ele><time>2026-04-04T09:03:34.098Z</time></trkpt><trkpt lat="44.9723517" lon="8.9187017"><ele>87.0</ele><time>2026-04-04T09:03:35.102Z</time></trkpt><trkpt lat="44.9723067" lon="8.9189783"><ele>87.0</ele><time>2026-04-04T09:03:36.101Z</time></trkpt><trkpt lat="44.97226" lon="8.9192583"><ele>87.0</ele><time>2026-04-04T09:03:37.101Z</time></trkpt><trkpt lat="44.9722167" lon="8.9195383"><ele>87.0</ele><time>2026-04-04T09:03:38.11Z</time></trkpt><trkpt lat="44.9721717" lon="8.919815"><ele>87.33333333333333</ele><time>2026-04-04T09:03:39.099Z</time></trkpt><trkpt lat="44.9721233" lon="8.920085"><ele>87.66666666666666</ele><time>2026-04-04T09:03:40.103Z</time></trkpt><trkpt lat="44.9720783" lon="8.9203583"><ele>88.0</ele><time>2026-04-04T09:03:41.101Z</time></trkpt><trkpt lat="44.972035" lon="8.9206333"><ele>88.33333333333333</ele><time>2026-04-04T09:03:42.106Z</time></trkpt><trkpt lat="44.971995" lon="8.92091"><ele>88.66666666666667</ele><time>2026-04-04T09:03:43.101Z</time></trkpt><trkpt lat="44.9719533" lon="8.921185"><ele>89.0</ele><time>2026-04-04T09:03:44.1Z</time></trkpt><trkpt lat="44.9719117" lon="8.92145"><ele>89.0</ele><time>2026-04-04T09:03:45.101Z</time></trkpt><trkpt lat="44.9718667" lon="8.9217133"><ele>89.0</ele><time>2026-04-04T09:03:46.098Z</time></trkpt><trkpt lat="44.9718217" lon="8.9219767"><ele>89.0</ele><time>2026-04-04T09:03:47.103Z</time></trkpt><trkpt lat="44.97178" lon="8.9222367"><ele>89.0</ele><time>2026-04-04T09:03:48.101Z</time></trkpt><trkpt lat="44.9717433" lon="8.92249"><ele>89.0</ele><time>2026-04-04T09:03:49.099Z</time></trkpt><trkpt lat="44.9717067" lon="8.9227383"><ele>89.0</ele><time>2026-04-04T09:03:50.107Z</time></trkpt><trkpt lat="44.9716733" lon="8.92297"><ele>89.33333333333334</ele><time>2026-04-04T09:03:51.1Z</time></trkpt><trkpt lat="44.971645" lon="8.9232"><ele>89.66666666666667</ele><time>2026-04-04T09:03:52.101Z</time></trkpt><trkpt lat="44.9716183" lon="8.9234267"><ele>90.0</ele><time>2026-04-04T09:03:53.108Z</time></trkpt><trkpt lat="44.9715933" lon="8.9236483"><ele>90.33333333333333</ele><time>2026-04-04T09:03:54.103Z</time></trkpt><trkpt lat="44.9715667" lon="8.9238717"><ele>90.66666666666666</ele><time>2026-04-04T09:03:55.104Z</time></trkpt><trkpt lat="44.9715317" lon="8.9241"><ele>91.0</ele><time>2026-04-04T09:03:56.102Z</time></trkpt><trkpt lat="44.971485" lon="8.9243317"><ele>91.0</ele><time>2026-04-04T09:03:57.102Z</time></trkpt><trkpt lat="44.9714233" lon="8.9245633"><ele>91.0</ele><time>2026-04-04T09:03:58.101Z</time></trkpt><trkpt lat="44.9713483" lon="8.9247983"><ele>91.0</ele><time>2026-04-04T09:03:59.107Z</time></trkpt><trkpt lat="44.9712583" lon="8.92503"><ele>91.33333333333333</ele><time>2026-04-04T09:04:00.102Z</time></trkpt><trkpt lat="44.971155" lon="8.9252617"><ele>91.66666666666667</ele><time>2026-04-04T09:04:01.099Z</time></trkpt><trkpt lat="44.9710417" lon="8.9254867"><ele>92.0</ele><time>2026-04-04T09:04:02.101Z</time></trkpt><trkpt lat="44.97092" lon="8.92571"><ele>91.33333333333334</ele><time>2026-04-04T09:04:03.1Z</time></trkpt><trkpt lat="44.97079" lon="8.9259317"><ele>90.66666666666667</ele><time>2026-04-04T09:04:04.099Z</time></trkpt><trkpt lat="44.9706567" lon="8.9261483"><ele>90.0</ele><time>2026-04-04T09:04:05.103Z</time></trkpt><trkpt lat="44.9705183" lon="8.926365"><ele>90.0</ele><time>2026-04-04T09:04:06.103Z</time></trkpt><trkpt lat="44.9703783" lon="8.9265817"><ele>90.0</ele><time>2026-04-04T09:04:07.102Z</time></trkpt><trkpt lat="44.970235" lon="8.9268017"><ele>90.0</ele><time>2026-04-04T09:04:08.105Z</time></trkpt><trkpt lat="44.9700917" lon="8.927025"><ele>91.0</ele><time>2026-04-04T09:04:09.105Z</time></trkpt><trkpt lat="44.9699467" lon="8.9272467"><ele>92.0</ele><time>2026-04-04T09:04:10.1Z</time></trkpt><trkpt lat="44.969805" lon="8.9274717"><ele>93.0</ele><time>2026-04-04T09:04:11.106Z</time></trkpt><trkpt lat="44.96966" lon="8.9276983"><ele>93.0</ele><time>2026-04-04T09:04:12.102Z</time></trkpt><trkpt lat="44.9695167" lon="8.9279233"><ele>93.0</ele><time>2026-04-04T09:04:13.107Z</time></trkpt><trkpt lat="44.969375" lon="8.928145"><ele>93.0</ele><time>2026-04-04T09:04:14.1Z</time></trkpt><trkpt lat="44.969235" lon="8.9283633"><ele>93.0</ele><time>2026-04-04T09:04:15.101Z</time></trkpt><trkpt lat="44.9690967" lon="8.92858"><ele>93.0</ele><time>2026-04-04T09:04:16.102Z</time></trkpt><trkpt lat="44.9689567" lon="8.9287967"><ele>93.0</ele><time>2026-04-04T09:04:17.099Z</time></trkpt><trkpt lat="44.9688183" lon="8.9290067"><ele>93.0</ele><time>2026-04-04T09:04:18.103Z</time></trkpt><trkpt lat="44.96868" lon="8.929215"><ele>93.0</ele><time>2026-04-04T09:04:19.101Z</time></trkpt><trkpt lat="44.9685467" lon="8.9294217"><ele>93.0</ele><time>2026-04-04T09:04:20.096Z</time></trkpt><trkpt lat="44.968415" lon="8.9296183"><ele>93.66666666666667</ele><time>2026-04-04T09:04:21.104Z</time></trkpt><trkpt lat="44.9682883" lon="8.929815"><ele>94.33333333333334</ele><time>2026-04-04T09:04:22.102Z</time></trkpt><trkpt lat="44.9681683" lon="8.9300167"><ele>95.0</ele><time>2026-04-04T09:04:23.099Z</time></trkpt><trkpt lat="44.96805" lon="8.930235"><ele>95.0</ele><time>2026-04-04T09:04:24.106Z</time></trkpt><trkpt lat="44.9679417" lon="8.9304517"><ele>95.0</ele><time>2026-04-04T09:04:25.103Z</time></trkpt><trkpt lat="44.9678367" lon="8.9306683"><ele>95.0</ele><time>2026-04-04T09:04:26.1Z</time></trkpt><trkpt lat="44.9677383" lon="8.9309017"><ele>95.0</ele><time>2026-04-04T09:04:27.099Z</time></trkpt><trkpt lat="44.9676417" lon="8.931135"><ele>95.0</ele><time>2026-04-04T09:04:28.101Z</time></trkpt><trkpt lat="44.9675417" lon="8.931365"><ele>95.0</ele><time>2026-04-04T09:04:29.102Z</time></trkpt><trkpt lat="44.9674417" lon="8.9315967"><ele>95.33333333333334</ele><time>2026-04-04T09:04:30.103Z</time></trkpt><trkpt lat="44.9673417" lon="8.9318367"><ele>95.66666666666667</ele><time>2026-04-04T09:04:31.104Z</time></trkpt><trkpt lat="44.9672417" lon="8.9320683"><ele>96.0</ele><time>2026-04-04T09:04:32.104Z</time></trkpt><trkpt lat="44.9671417" lon="8.932305"><ele>96.0</ele><time>2026-04-04T09:04:33.101Z</time></trkpt><trkpt lat="44.9670417" lon="8.9325383"><ele>96.0</ele><time>2026-04-04T09:04:34.099Z</time></trkpt><trkpt lat="44.96694" lon="8.9327733"><ele>96.0</ele><time>2026-04-04T09:04:35.103Z</time></trkpt><trkpt lat="44.9668383" lon="8.933005"><ele>95.33333333333333</ele><time>2026-04-04T09:04:36.103Z</time></trkpt><trkpt lat="44.9667383" lon="8.9332367"><ele>94.66666666666666</ele><time>2026-04-04T09:04:37.112Z</time></trkpt><trkpt lat="44.966635" lon="8.93347"><ele>94.0</ele><time>2026-04-04T09:04:38.102Z</time></trkpt><trkpt lat="44.9665333" lon="8.9337"><ele>95.66666666666666</ele><time>2026-04-04T09:04:39.106Z</time></trkpt><trkpt lat="44.9664317" lon="8.9339283"><ele>97.33333333333333</ele><time>2026-04-04T09:04:40.101Z</time></trkpt><trkpt lat="44.9663333" lon="8.9341567"><ele>99.0</ele><time>2026-04-04T09:04:41.103Z</time></trkpt><trkpt lat="44.9662333" lon="8.9343817"><ele>99.0</ele><time>2026-04-04T09:04:42.102Z</time></trkpt><trkpt lat="44.966135" lon="8.9346033"><ele>99.0</ele><time>2026-04-04T09:04:43.103Z</time></trkpt><trkpt lat="44.9660383" lon="8.93483"><ele>99.0</ele><time>2026-04-04T09:04:44.102Z</time></trkpt><trkpt lat="44.9659467" lon="8.9350583"><ele>98.0</ele><time>2026-04-04T09:04:45.101Z</time></trkpt><trkpt lat="44.965855" lon="8.93528"><ele>97.0</ele><time>2026-04-04T09:04:46.106Z</time></trkpt><trkpt lat="44.9657633" lon="8.9354933"><ele>96.0</ele><time>2026-04-04T09:04:47.105Z</time></trkpt><trkpt lat="44.965675" lon="8.9357017"><ele>96.0</ele><time>2026-04-04T09:04:48.101Z</time></trkpt><trkpt lat="44.9655867" lon="8.9359083"><ele>96.0</ele><time>2026-04-04T09:04:49.101Z</time></trkpt><trkpt lat="44.9655017" lon="8.936105"><ele>96.0</ele><time>2026-04-04T09:04:50.102Z</time></trkpt><trkpt lat="44.9654183" lon="8.9363"><ele>96.0</ele><time>2026-04-04T09:04:51.103Z</time></trkpt><trkpt lat="44.965335" lon="8.9364917"><ele>96.0</ele><time>2026-04-04T09:04:52.101Z</time></trkpt><trkpt lat="44.965255" lon="8.9366767"><ele>96.0</ele><time>2026-04-04T09:04:53.105Z</time></trkpt><trkpt lat="44.9651783" lon="8.9368517"><ele>96.4</ele><time>2026-04-04T09:04:54.103Z</time></trkpt><trkpt lat="44.965105" lon="8.9370067"><ele>96.8</ele><time>2026-04-04T09:04:55.104Z</time></trkpt><trkpt lat="44.9650383" lon="8.9371433"><ele>97.2</ele><time>2026-04-04T09:04:56.106Z</time></trkpt><trkpt lat="44.9649817" lon="8.937255"><ele>97.60000000000001</ele><time>2026-04-04T09:04:57.104Z</time></trkpt><trkpt lat="44.9649433" lon="8.93734"><ele>98.0</ele><time>2026-04-04T09:04:58.102Z</time></trkpt><trkpt lat="44.9648967" lon="8.9374233"><ele>98.2</ele><time>2026-04-04T09:05:00.108Z</time></trkpt><trkpt lat="44.96493" lon="8.9375333"><ele>98.4</ele><time>2026-04-04T09:05:17.101Z</time></trkpt><trkpt lat="44.964995" lon="8.937605"><ele>98.60000000000001</ele><time>2026-04-04T09:05:18.105Z</time></trkpt><trkpt lat="44.965075" lon="8.9377067"><ele>98.80000000000001</ele><time>2026-04-04T09:05:19.104Z</time></trkpt><trkpt lat="44.96517" lon="8.9378217"><ele>99.0</ele><time>2026-04-04T09:05:20.105Z</time></trkpt><trkpt lat="44.9652883" lon="8.9379633"><ele>98.5</ele><time>2026-04-04T09:05:21.104Z</time></trkpt><trkpt lat="44.9654017" lon="8.9380967"><ele>98.0</ele><time>2026-04-04T09:05:22.101Z</time></trkpt><trkpt lat="44.9655117" lon="8.938235"><ele>97.5</ele><time>2026-04-04T09:05:23.104Z</time></trkpt><trkpt lat="44.9656133" lon="8.938375"><ele>97.0</ele><time>2026-04-04T09:05:24.104Z</time></trkpt><trkpt lat="44.965715" lon="8.9385067"><ele>97.0</ele><time>2026-04-04T09:05:25.103Z</time></trkpt><trkpt lat="44.9658067" lon="8.93863"><ele>97.0</ele><time>2026-04-04T09:05:26.109Z</time></trkpt><trkpt lat="44.9658833" lon="8.9387483"><ele>97.0</ele><time>2026-04-04T09:05:27.105Z</time></trkpt><trkpt lat="44.96594" lon="8.9388567"><ele>97.0</ele><time>2026-04-04T09:05:28.098Z</time></trkpt><trkpt lat="44.965965" lon="8.938955"><ele>97.0</ele><time>2026-04-04T09:05:29.104Z</time></trkpt><trkpt lat="44.96597" lon="8.939045"><ele>97.19999999999999</ele><time>2026-04-04T09:05:30.105Z</time></trkpt><trkpt lat="44.9659633" lon="8.9391417"><ele>97.4</ele><time>2026-04-04T09:05:31.1Z</time></trkpt><trkpt lat="44.9659367" lon="8.9392533"><ele>97.6</ele><time>2026-04-04T09:05:32.101Z</time></trkpt><trkpt lat="44.9658883" lon="8.9393867"><ele>97.80000000000001</ele><time>2026-04-04T09:05:33.1Z</time></trkpt><trkpt lat="44.9658117" lon="8.9395417"><ele>98.0</ele><time>2026-04-04T09:05:34.101Z</time></trkpt><trkpt lat="44.9657467" lon="8.9397067"><ele>98.0</ele><time>2026-04-04T09:05:35.101Z</time></trkpt><trkpt lat="44.9656817" lon="8.93987"><ele>98.0</ele><time>2026-04-04T09:05:36.101Z</time></trkpt><trkpt lat="44.9656167" lon="8.94003"><ele>98.0</ele><time>2026-04-04T09:05:37.101Z</time></trkpt><trkpt lat="44.965555" lon="8.94018"><ele>98.0</ele><time>2026-04-04T09:05:38.104Z</time></trkpt><trkpt lat="44.9655" lon="8.9403217"><ele>98.0</ele><time>2026-04-04T09:05:39.105Z</time></trkpt><trkpt lat="44.9654433" lon="8.9404633"><ele>98.0</ele><time>2026-04-04T09:05:40.105Z</time></trkpt><trkpt lat="44.9653883" lon="8.9406067"><ele>98.0</ele><time>2026-04-04T09:05:41.102Z</time></trkpt><trkpt lat="44.96534" lon="8.9407633"><ele>98.0</ele><time>2026-04-04T09:05:42.104Z</time></trkpt><trkpt lat="44.9653033" lon="8.9409283"><ele>98.5</ele><time>2026-04-04T09:05:43.105Z</time></trkpt><trkpt lat="44.96529" lon="8.94111"><ele>99.0</ele><time>2026-04-04T09:05:44.1Z</time></trkpt><trkpt lat="44.96529" lon="8.9413"><ele>99.5</ele><time>2026-04-04T09:05:45.099Z</time></trkpt><trkpt lat="44.9652933" lon="8.9414967"><ele>100.0</ele><time>2026-04-04T09:05:46.1Z</time></trkpt><trkpt lat="44.9652917" lon="8.9416933"><ele>100.25</ele><time>2026-04-04T09:05:47.105Z</time></trkpt><trkpt lat="44.9652917" lon="8.941895"><ele>100.5</ele><time>2026-04-04T09:05:48.1Z</time></trkpt><trkpt lat="44.965285" lon="8.9420983"><ele>100.75</ele><time>2026-04-04T09:05:49.103Z</time></trkpt><trkpt lat="44.9652683" lon="8.9423"><ele>101.0</ele><time>2026-04-04T09:05:50.098Z</time></trkpt><trkpt lat="44.96525" lon="8.9425083"><ele>101.25</ele><time>2026-04-04T09:05:51.102Z</time></trkpt><trkpt lat="44.9652283" lon="8.9427183"><ele>101.5</ele><time>2026-04-04T09:05:52.098Z</time></trkpt><trkpt lat="44.9652033" lon="8.9429233"><ele>101.75</ele><time>2026-04-04T09:05:53.101Z</time></trkpt><trkpt lat="44.96518" lon="8.9431233"><ele>102.0</ele><time>2026-04-04T09:05:54.105Z</time></trkpt><trkpt lat="44.9651617" lon="8.9433017"><ele>101.6</ele><time>2026-04-04T09:05:55.102Z</time></trkpt><trkpt lat="44.96515" lon="8.9434567"><ele>101.19999999999999</ele><time>2026-04-04T09:05:56.107Z</time></trkpt><trkpt lat="44.9651383" lon="8.9435933"><ele>100.8</ele><time>2026-04-04T09:05:57.102Z</time></trkpt><trkpt lat="44.965125" lon="8.943715"><ele>100.4</ele><time>2026-04-04T09:05:58.1Z</time></trkpt><trkpt lat="44.9650967" lon="8.94382"><ele>100.0</ele><time>2026-04-04T09:05:59.108Z</time></trkpt><trkpt lat="44.9650567" lon="8.94392"><ele>100.0</ele><time>2026-04-04T09:06:00.099Z</time></trkpt><trkpt lat="44.9649917" lon="8.9439867"><ele>100.0</ele><time>2026-04-04T09:06:01.103Z</time></trkpt><trkpt lat="44.964915" lon="8.94402"><ele>100.0</ele><time>2026-04-04T09:06:02.098Z</time></trkpt><trkpt lat="44.96481" lon="8.9440117"><ele>100.0</ele><time>2026-04-04T09:06:03.106Z</time></trkpt><trkpt lat="44.96468" lon="8.9439967"><ele>100.0</ele><time>2026-04-04T09:06:04.104Z</time></trkpt><trkpt lat="44.9645483" lon="8.9439517"><ele>100.0</ele><time>2026-04-04T09:06:05.102Z</time></trkpt><trkpt lat="44.9644233" lon="8.94392"><ele>100.0</ele><time>2026-04-04T09:06:06.102Z</time></trkpt><trkpt lat="44.9642967" lon="8.9438917"><ele>100.0</ele><time>2026-04-04T09:06:07.103Z</time></trkpt><trkpt lat="44.9641717" lon="8.9438633"><ele>100.0</ele><time>2026-04-04T09:06:08.103Z</time></trkpt><trkpt lat="44.96405" lon="8.9438417"><ele>99.75</ele><time>2026-04-04T09:06:09.101Z</time></trkpt><trkpt lat="44.96393" lon="8.9438233"><ele>99.5</ele><time>2026-04-04T09:06:10.101Z</time></trkpt><trkpt lat="44.96381" lon="8.9438083"><ele>99.25</ele><time>2026-04-04T09:06:11.103Z</time></trkpt><trkpt lat="44.9636933" lon="8.9437967"><ele>99.0</ele><time>2026-04-04T09:06:12.099Z</time></trkpt><trkpt lat="44.9635817" lon="8.9437883"><ele>99.0</ele><time>2026-04-04T09:06:13.103Z</time></trkpt><trkpt lat="44.9634733" lon="8.9437917"><ele>99.0</ele><time>2026-04-04T09:06:14.107Z</time></trkpt><trkpt lat="44.9633717" lon="8.94382"><ele>99.0</ele><time>2026-04-04T09:06:15.101Z</time></trkpt><trkpt lat="44.9632767" lon="8.9438767"><ele>99.0</ele><time>2026-04-04T09:06:16.103Z</time></trkpt><trkpt lat="44.9631883" lon="8.94396"><ele>99.0</ele><time>2026-04-04T09:06:17.103Z</time></trkpt><trkpt lat="44.9631067" lon="8.9440517"><ele>99.16666666666667</ele><time>2026-04-04T09:06:18.101Z</time></trkpt><trkpt lat="44.9630317" lon="8.9441417"><ele>99.33333333333334</ele><time>2026-04-04T09:06:19.101Z</time></trkpt><trkpt lat="44.96296" lon="8.9442267"><ele>99.5</ele><time>2026-04-04T09:06:20.101Z</time></trkpt><trkpt lat="44.9629017" lon="8.9443"><ele>99.66666666666667</ele><time>2026-04-04T09:06:21.101Z</time></trkpt><trkpt lat="44.9628483" lon="8.9443733"><ele>99.83333333333334</ele><time>2026-04-04T09:06:22.104Z</time></trkpt><trkpt lat="44.962805" lon="8.944445"><ele>100.0</ele><time>2026-04-04T09:06:23.101Z</time></trkpt><trkpt lat="44.9627533" lon="8.9445533"><ele>100.0</ele><time>2026-04-04T09:06:25.104Z</time></trkpt><trkpt lat="44.9626933" lon="8.944665"><ele>100.0</ele><time>2026-04-04T09:06:27.104Z</time></trkpt><trkpt lat="44.9626" lon="8.9447833"><ele>100.0</ele><time>2026-04-04T09:06:29.103Z</time></trkpt><trkpt lat="44.9625633" lon="8.94486"><ele>100.0</ele><time>2026-04-04T09:06:30.107Z</time></trkpt><trkpt lat="44.9625567" lon="8.9450433"><ele>100.0</ele><time>2026-04-04T09:06:32.106Z</time></trkpt><trkpt lat="44.9625783" lon="8.945155"><ele>100.00000000000001</ele><time>2026-04-04T09:06:33.104Z</time></trkpt><trkpt lat="44.962575" lon="8.94526"><ele>100.0</ele><time>2026-04-04T09:06:34.101Z</time></trkpt><trkpt lat="44.9625683" lon="8.9453633"><ele>100.0</ele><time>2026-04-04T09:06:35.106Z</time></trkpt><trkpt lat="44.962535" lon="8.94546"><ele>100.0</ele><time>2026-04-04T09:06:36.097Z</time></trkpt><trkpt lat="44.9624833" lon="8.9455433"><ele>100.00000000000001</ele><time>2026-04-04T09:06:37.107Z</time></trkpt><trkpt lat="44.9624117" lon="8.9456133"><ele>100.0</ele><time>2026-04-04T09:06:38.104Z</time></trkpt><trkpt lat="44.9623117" lon="8.9456483"><ele>100.0</ele><time>2026-04-04T09:06:39.098Z</time></trkpt><trkpt lat="44.9622067" lon="8.945665"><ele>100.0</ele><time>2026-04-04T09:06:40.098Z</time></trkpt><trkpt lat="44.962095" lon="8.9456567"><ele>100.0</ele><time>2026-04-04T09:06:41.102Z</time></trkpt><trkpt lat="44.9619767" lon="8.9456533"><ele>100.0</ele><time>2026-04-04T09:06:42.101Z</time></trkpt><trkpt lat="44.9618567" lon="8.94564"><ele>100.0</ele><time>2026-04-04T09:06:43.102Z</time></trkpt><trkpt lat="44.9617283" lon="8.9456333"><ele>100.0</ele><time>2026-04-04T09:06:44.103Z</time></trkpt><trkpt lat="44.96161" lon="8.945635"><ele>100.0</ele><time>2026-04-04T09:06:45.102Z</time></trkpt><trkpt lat="44.9614917" lon="8.9456417"><ele>100.0</ele><time>2026-04-04T09:06:46.1Z</time></trkpt><trkpt lat="44.9613533" lon="8.9456483"><ele>100.0</ele><time>2026-04-04T09:06:47.102Z</time></trkpt><trkpt lat="44.96119" lon="8.9456483"><ele>100.0</ele><time>2026-04-04T09:06:48.103Z</time></trkpt><trkpt lat="44.961025" lon="8.9456417"><ele>100.0</ele><time>2026-04-04T09:06:49.105Z</time></trkpt><trkpt lat="44.9608667" lon="8.945635"><ele>99.75</ele><time>2026-04-04T09:06:50.104Z</time></trkpt><trkpt lat="44.9607133" lon="8.945625"><ele>99.5</ele><time>2026-04-04T09:06:51.104Z</time></trkpt><trkpt lat="44.960565" lon="8.9456067"><ele>99.25</ele><time>2026-04-04T09:06:52.102Z</time></trkpt><trkpt lat="44.9604217" lon="8.94558"><ele>99.0</ele><time>2026-04-04T09:06:53.114Z</time></trkpt><trkpt lat="44.9602867" lon="8.94555"><ele>99.0</ele><time>2026-04-04T09:06:54.103Z</time></trkpt><trkpt lat="44.9601517" lon="8.945515"><ele>99.0</ele><time>2026-04-04T09:06:55.101Z</time></trkpt><trkpt lat="44.9600233" lon="8.9454783"><ele>99.0</ele><time>2026-04-04T09:06:56.102Z</time></trkpt><trkpt lat="44.9599167" lon="8.9454467"><ele>99.0</ele><time>2026-04-04T09:06:57.102Z</time></trkpt><trkpt lat="44.959835" lon="8.9454283"><ele>99.2</ele><time>2026-04-04T09:06:58.102Z</time></trkpt><trkpt lat="44.9597617" lon="8.94543"><ele>99.4</ele><time>2026-04-04T09:06:59.102Z</time></trkpt><trkpt lat="44.9596667" lon="8.94556"><ele>99.6</ele><time>2026-04-04T09:07:01.104Z</time></trkpt><trkpt lat="44.9596483" lon="8.9457083"><ele>99.8</ele><time>2026-04-04T09:07:02.101Z</time></trkpt><trkpt lat="44.9596283" lon="8.9458983"><ele>100.0</ele><time>2026-04-04T09:07:03.102Z</time></trkpt><trkpt lat="44.95961" lon="8.9461083"><ele>100.0</ele><time>2026-04-04T09:07:04.099Z</time></trkpt><trkpt lat="44.9595933" lon="8.94633"><ele>100.0</ele><time>2026-04-04T09:07:05.101Z</time></trkpt><trkpt lat="44.95958" lon="8.9465683"><ele>100.0</ele><time>2026-04-04T09:07:06.102Z</time></trkpt><trkpt lat="44.95957" lon="8.9468217"><ele>99.66666666666667</ele><time>2026-04-04T09:07:07.103Z</time></trkpt><trkpt lat="44.9595583" lon="8.9470817"><ele>99.33333333333334</ele><time>2026-04-04T09:07:08.102Z</time></trkpt><trkpt lat="44.9595467" lon="8.9473367"><ele>99.0</ele><time>2026-04-04T09:07:09.1Z</time></trkpt><trkpt lat="44.9595333" lon="8.94759"><ele>100.0</ele><time>2026-04-04T09:07:10.105Z</time></trkpt><trkpt lat="44.959525" lon="8.9478383"><ele>101.0</ele><time>2026-04-04T09:07:11.103Z</time></trkpt><trkpt lat="44.9595167" lon="8.9480717"><ele>102.0</ele><time>2026-04-04T09:07:12.106Z</time></trkpt><trkpt lat="44.9595083" lon="8.948275"><ele>101.8</ele><time>2026-04-04T09:07:13.112Z</time></trkpt><trkpt lat="44.959495" lon="8.9484433"><ele>101.6</ele><time>2026-04-04T09:07:14.102Z</time></trkpt><trkpt lat="44.9594617" lon="8.9485817"><ele>101.39999999999999</ele><time>2026-04-04T09:07:15.106Z</time></trkpt><trkpt lat="44.959405" lon="8.9487083"><ele>101.19999999999999</ele><time>2026-04-04T09:07:16.103Z</time></trkpt><trkpt lat="44.9593283" lon="8.9488367"><ele>101.0</ele><time>2026-04-04T09:07:17.105Z</time></trkpt><trkpt lat="44.959235" lon="8.9489783"><ele>101.0</ele><time>2026-04-04T09:07:18.097Z</time></trkpt><trkpt lat="44.9591367" lon="8.94913"><ele>101.0</ele><time>2026-04-04T09:07:19.104Z</time></trkpt><trkpt lat="44.9590383" lon="8.94929"><ele>101.0</ele><time>2026-04-04T09:07:20.102Z</time></trkpt><trkpt lat="44.9589433" lon="8.9494533"><ele>101.0</ele><time>2026-04-04T09:07:21.098Z</time></trkpt><trkpt lat="44.9588417" lon="8.9496033"><ele>100.66666666666666</ele><time>2026-04-04T09:07:22.107Z</time></trkpt><trkpt lat="44.9587217" lon="8.949745"><ele>100.33333333333334</ele><time>2026-04-04T09:07:23.103Z</time></trkpt><trkpt lat="44.958595" lon="8.9498717"><ele>100.0</ele><time>2026-04-04T09:07:24.098Z</time></trkpt><trkpt lat="44.9584667" lon="8.9499983"><ele>99.66666666666667</ele><time>2026-04-04T09:07:25.104Z</time></trkpt><trkpt lat="44.9583383" lon="8.9501367"><ele>99.33333333333334</ele><time>2026-04-04T09:07:26.1Z</time></trkpt><trkpt lat="44.9582233" lon="8.95028"><ele>99.0</ele><time>2026-04-04T09:07:27.098Z</time></trkpt><trkpt lat="44.9581217" lon="8.9504417"><ele>99.0</ele><time>2026-04-04T09:07:28.1Z</time></trkpt><trkpt lat="44.9580267" lon="8.950615"><ele>99.0</ele><time>2026-04-04T09:07:29.1Z</time></trkpt><trkpt lat="44.9579417" lon="8.9507933"><ele>99.0</ele><time>2026-04-04T09:07:30.102Z</time></trkpt><trkpt lat="44.9578583" lon="8.950975"><ele>99.0</ele><time>2026-04-04T09:07:31.102Z</time></trkpt><trkpt lat="44.9577783" lon="8.9511583"><ele>99.0</ele><time>2026-04-04T09:07:32.103Z</time></trkpt><trkpt lat="44.957715" lon="8.9513533"><ele>99.0</ele><time>2026-04-04T09:07:33.103Z</time></trkpt><trkpt lat="44.957675" lon="8.9515667"><ele>99.33333333333334</ele><time>2026-04-04T09:07:34.104Z</time></trkpt><trkpt lat="44.9576517" lon="8.951795"><ele>99.66666666666667</ele><time>2026-04-04T09:07:35.106Z</time></trkpt><trkpt lat="44.9576367" lon="8.9520317"><ele>100.0</ele><time>2026-04-04T09:07:36.101Z</time></trkpt><trkpt lat="44.9576233" lon="8.9522783"><ele>100.0</ele><time>2026-04-04T09:07:37.107Z</time></trkpt><trkpt lat="44.957605" lon="8.9525333"><ele>100.0</ele><time>2026-04-04T09:07:38.11Z</time></trkpt><trkpt lat="44.957585" lon="8.95279"><ele>100.0</ele><time>2026-04-04T09:07:39.102Z</time></trkpt><trkpt lat="44.957565" lon="8.9530483"><ele>100.0</ele><time>2026-04-04T09:07:40.103Z</time></trkpt><trkpt lat="44.9575483" lon="8.9533067"><ele>100.0</ele><time>2026-04-04T09:07:41.109Z</time></trkpt><trkpt lat="44.9575317" lon="8.953565"><ele>100.0</ele><time>2026-04-04T09:07:42.101Z</time></trkpt><trkpt lat="44.9575117" lon="8.9538217"><ele>100.0</ele><time>2026-04-04T09:07:43.103Z</time></trkpt><trkpt lat="44.95749" lon="8.9540767"><ele>100.0</ele><time>2026-04-04T09:07:44.099Z</time></trkpt><trkpt lat="44.957465" lon="8.95433"><ele>100.0</ele><time>2026-04-04T09:07:45.103Z</time></trkpt><trkpt lat="44.9574417" lon="8.954585"><ele>100.0</ele><time>2026-04-04T09:07:46.099Z</time></trkpt><trkpt lat="44.9574167" lon="8.954845"><ele>100.0</ele><time>2026-04-04T09:07:47.105Z</time></trkpt><trkpt lat="44.9573933" lon="8.955105"><ele>100.0</ele><time>2026-04-04T09:07:48.102Z</time></trkpt><trkpt lat="44.9573717" lon="8.95537"><ele>99.66666666666667</ele><time>2026-04-04T09:07:49.099Z</time></trkpt><trkpt lat="44.9573517" lon="8.9556283"><ele>99.33333333333334</ele><time>2026-04-04T09:07:50.099Z</time></trkpt><trkpt lat="44.9573383" lon="8.9558817"><ele>99.0</ele><time>2026-04-04T09:07:51.102Z</time></trkpt><trkpt lat="44.9573417" lon="8.95613"><ele>99.66666666666666</ele><time>2026-04-04T09:07:52.102Z</time></trkpt><trkpt lat="44.9573583" lon="8.9563767"><ele>100.33333333333333</ele><time>2026-04-04T09:07:53.103Z</time></trkpt><trkpt lat="44.9573717" lon="8.956615"><ele>101.0</ele><time>2026-04-04T09:07:54.104Z</time></trkpt><trkpt lat="44.9573683" lon="8.9568467"><ele>101.33333333333333</ele><time>2026-04-04T09:07:55.103Z</time></trkpt><trkpt lat="44.95735" lon="8.9570683"><ele>101.66666666666666</ele><time>2026-04-04T09:07:56.106Z</time></trkpt><trkpt lat="44.9573167" lon="8.9572933"><ele>102.0</ele><time>2026-04-04T09:07:57.101Z</time></trkpt><trkpt lat="44.957275" lon="8.95752"><ele>102.0</ele><time>2026-04-04T09:07:58.106Z</time></trkpt><trkpt lat="44.9572333" lon="8.9577483"><ele>102.0</ele><time>2026-04-04T09:07:59.102Z</time></trkpt><trkpt lat="44.9572" lon="8.9579733"><ele>102.0</ele><time>2026-04-04T09:08:00.107Z</time></trkpt><trkpt lat="44.957175" lon="8.958195"><ele>101.33333333333334</ele><time>2026-04-04T09:08:01.106Z</time></trkpt><trkpt lat="44.957155" lon="8.958415"><ele>100.66666666666667</ele><time>2026-04-04T09:08:02.101Z</time></trkpt><trkpt lat="44.9571367" lon="8.9586333"><ele>100.0</ele><time>2026-04-04T09:08:03.1Z</time></trkpt><trkpt lat="44.9571183" lon="8.958855"><ele>100.0</ele><time>2026-04-04T09:08:04.103Z</time></trkpt><trkpt lat="44.9571017" lon="8.9590783"><ele>100.0</ele><time>2026-04-04T09:08:05.103Z</time></trkpt><trkpt lat="44.9570817" lon="8.9593033"><ele>100.0</ele><time>2026-04-04T09:08:06.105Z</time></trkpt><trkpt lat="44.9570567" lon="8.9595183"><ele>100.5</ele><time>2026-04-04T09:08:07.103Z</time></trkpt><trkpt lat="44.9570267" lon="8.9597167"><ele>101.0</ele><time>2026-04-04T09:08:08.103Z</time></trkpt><trkpt lat="44.9569917" lon="8.9599033"><ele>101.5</ele><time>2026-04-04T09:08:09.106Z</time></trkpt><trkpt lat="44.956955" lon="8.96006"><ele>102.0</ele><time>2026-04-04T09:08:10.099Z</time></trkpt><trkpt lat="44.9569267" lon="8.9601717"><ele>102.0</ele><time>2026-04-04T09:08:11.098Z</time></trkpt><trkpt lat="44.9569017" lon="8.960265"><ele>102.0</ele><time>2026-04-04T09:08:12.108Z</time></trkpt><trkpt lat="44.95687" lon="8.96039"><ele>102.0</ele><time>2026-04-04T09:08:14.102Z</time></trkpt><trkpt lat="44.9569367" lon="8.960245"><ele>102.0</ele><time>2026-04-04T09:08:27.108Z</time></trkpt><trkpt lat="44.9569583" lon="8.9601167"><ele>102.0</ele><time>2026-04-04T09:08:28.103Z</time></trkpt><trkpt lat="44.9569867" lon="8.9599933"><ele>102.0</ele><time>2026-04-04T09:08:29.103Z</time></trkpt><trkpt lat="44.9570217" lon="8.9598517"><ele>102.0</ele><time>2026-04-04T09:08:30.104Z</time></trkpt><trkpt lat="44.9570583" lon="8.95969"><ele>102.0</ele><time>2026-04-04T09:08:31.1Z</time></trkpt><trkpt lat="44.9570933" lon="8.959515"><ele>102.0</ele><time>2026-04-04T09:08:32.102Z</time></trkpt><trkpt lat="44.95712" lon="8.959325"><ele>101.33333333333334</ele><time>2026-04-04T09:08:33.1Z</time></trkpt><trkpt lat="44.95714" lon="8.9591183"><ele>100.66666666666667</ele><time>2026-04-04T09:08:34.106Z</time></trkpt><trkpt lat="44.9571583" lon="8.9588983"><ele>100.0</ele><time>2026-04-04T09:08:35.101Z</time></trkpt><trkpt lat="44.9571733" lon="8.9586733"><ele>100.0</ele><time>2026-04-04T09:08:36.102Z</time></trkpt><trkpt lat="44.95719" lon="8.9584467"><ele>100.0</ele><time>2026-04-04T09:08:37.099Z</time></trkpt><trkpt lat="44.9572083" lon="8.9582117"><ele>100.0</ele><time>2026-04-04T09:08:38.103Z</time></trkpt><trkpt lat="44.957235" lon="8.9579733"><ele>100.66666666666667</ele><time>2026-04-04T09:08:39.099Z</time></trkpt><trkpt lat="44.9572667" lon="8.9577433"><ele>101.33333333333334</ele><time>2026-04-04T09:08:40.1Z</time></trkpt><trkpt lat="44.9573067" lon="8.957515"><ele>102.0</ele><time>2026-04-04T09:08:41.101Z</time></trkpt><trkpt lat="44.9573483" lon="8.9572917"><ele>102.0</ele><time>2026-04-04T09:08:42.098Z</time></trkpt><trkpt lat="44.95738" lon="8.95707"><ele>102.0</ele><time>2026-04-04T09:08:43.102Z</time></trkpt><trkpt lat="44.9573967" lon="8.9568417"><ele>102.0</ele><time>2026-04-04T09:08:44.104Z</time></trkpt><trkpt lat="44.957395" lon="8.9566"><ele>101.66666666666666</ele><time>2026-04-04T09:08:45.107Z</time></trkpt><trkpt lat="44.9573767" lon="8.9563467"><ele>101.33333333333333</ele><time>2026-04-04T09:08:46.106Z</time></trkpt><trkpt lat="44.9573567" lon="8.9560933"><ele>101.0</ele><time>2026-04-04T09:08:47.101Z</time></trkpt><trkpt lat="44.9573517" lon="8.9558383"><ele>100.33333333333333</ele><time>2026-04-04T09:08:48.102Z</time></trkpt><trkpt lat="44.95736" lon="8.9555767"><ele>99.66666666666666</ele><time>2026-04-04T09:08:49.102Z</time></trkpt><trkpt lat="44.95738" lon="8.9553167"><ele>99.0</ele><time>2026-04-04T09:08:50.1Z</time></trkpt><trkpt lat="44.9574033" lon="8.9550517"><ele>99.33333333333334</ele><time>2026-04-04T09:08:51.102Z</time></trkpt><trkpt lat="44.9574283" lon="8.95479"><ele>99.66666666666667</ele><time>2026-04-04T09:08:52.104Z</time></trkpt><trkpt lat="44.9574567" lon="8.954535"><ele>100.0</ele><time>2026-04-04T09:08:53.105Z</time></trkpt><trkpt lat="44.9574833" lon="8.9542833"><ele>100.0</ele><time>2026-04-04T09:08:54.104Z</time></trkpt><trkpt lat="44.9575067" lon="8.9540333"><ele>100.0</ele><time>2026-04-04T09:08:55.098Z</time></trkpt><trkpt lat="44.9575283" lon="8.95378"><ele>100.0</ele><time>2026-04-04T09:08:56.105Z</time></trkpt><trkpt lat="44.9575483" lon="8.9535217"><ele>100.0</ele><time>2026-04-04T09:08:57.101Z</time></trkpt><trkpt lat="44.9575683" lon="8.95326"><ele>100.0</ele><time>2026-04-04T09:08:58.101Z</time></trkpt><trkpt lat="44.95759" lon="8.9529967"><ele>100.0</ele><time>2026-04-04T09:08:59.103Z</time></trkpt><trkpt lat="44.957605" lon="8.952735"><ele>100.0</ele><time>2026-04-04T09:09:00.101Z</time></trkpt><trkpt lat="44.9576183" lon="8.9524767"><ele>100.0</ele><time>2026-04-04T09:09:01.11Z</time></trkpt><trkpt lat="44.9576367" lon="8.952225"><ele>100.0</ele><time>2026-04-04T09:09:02.104Z</time></trkpt><trkpt lat="44.9576533" lon="8.9519833"><ele>100.0</ele><time>2026-04-04T09:09:03.103Z</time></trkpt><trkpt lat="44.9576717" lon="8.951765"><ele>100.0</ele><time>2026-04-04T09:09:04.106Z</time></trkpt><trkpt lat="44.9576917" lon="8.9515717"><ele>100.0</ele><time>2026-04-04T09:09:05.108Z</time></trkpt><trkpt lat="44.957725" lon="8.9513917"><ele>100.0</ele><time>2026-04-04T09:09:06.106Z</time></trkpt><trkpt lat="44.95778" lon="8.9512217"><ele>99.75</ele><time>2026-04-04T09:09:07.101Z</time></trkpt><trkpt lat="44.9578517" lon="8.9510517"><ele>99.5</ele><time>2026-04-04T09:09:08.103Z</time></trkpt><trkpt lat="44.9579317" lon="8.9508817"><ele>99.25</ele><time>2026-04-04T09:09:09.108Z</time></trkpt><trkpt lat="44.9580183" lon="8.950705"><ele>99.0</ele><time>2026-04-04T09:09:10.101Z</time></trkpt><trkpt lat="44.95811" lon="8.9505283"><ele>99.0</ele><time>2026-04-04T09:09:11.113Z</time></trkpt><trkpt lat="44.9582067" lon="8.9503617"><ele>99.0</ele><time>2026-04-04T09:09:12.102Z</time></trkpt><trkpt lat="44.958315" lon="8.9502033"><ele>99.0</ele><time>2026-04-04T09:09:13.117Z</time></trkpt><trkpt lat="44.9584333" lon="8.9500583"><ele>99.33333333333334</ele><time>2026-04-04T09:09:14.101Z</time></trkpt><trkpt lat="44.9585617" lon="8.9499283"><ele>99.66666666666667</ele><time>2026-04-04T09:09:15.101Z</time></trkpt><trkpt lat="44.958695" lon="8.9498017"><ele>100.0</ele><time>2026-04-04T09:09:16.105Z</time></trkpt><trkpt lat="44.95882" lon="8.9496583"><ele>100.0</ele><time>2026-04-04T09:09:17.103Z</time></trkpt><trkpt lat="44.95893" lon="8.9494917"><ele>100.0</ele><time>2026-04-04T09:09:18.101Z</time></trkpt><trkpt lat="44.9590317" lon="8.9493283"><ele>100.0</ele><time>2026-04-04T09:09:19.099Z</time></trkpt><trkpt lat="44.959125" lon="8.94917"><ele>100.25</ele><time>2026-04-04T09:09:20.101Z</time></trkpt><trkpt lat="44.9592233" lon="8.9490283"><ele>100.5</ele><time>2026-04-04T09:09:21.101Z</time></trkpt><trkpt lat="44.9593133" lon="8.9488933"><ele>100.75</ele><time>2026-04-04T09:09:22.103Z</time></trkpt><trkpt lat="44.9593933" lon="8.9487467"><ele>101.0</ele><time>2026-04-04T09:09:23.1Z</time></trkpt><trkpt lat="44.9594583" lon="8.9485917"><ele>101.0</ele><time>2026-04-04T09:09:24.104Z</time></trkpt><trkpt lat="44.9595017" lon="8.9484217"><ele>101.0</ele><time>2026-04-04T09:09:25.1Z</time></trkpt><trkpt lat="44.9595267" lon="8.9482317"><ele>101.0</ele><time>2026-04-04T09:09:26.102Z</time></trkpt><trkpt lat="44.9595367" lon="8.9480267"><ele>101.0</ele><time>2026-04-04T09:09:27.099Z</time></trkpt><trkpt lat="44.95954" lon="8.9478167"><ele>101.33333333333333</ele><time>2026-04-04T09:09:28.101Z</time></trkpt><trkpt lat="44.9595433" lon="8.9475967"><ele>101.66666666666666</ele><time>2026-04-04T09:09:29.106Z</time></trkpt><trkpt lat="44.9595483" lon="8.947365"><ele>102.0</ele><time>2026-04-04T09:09:30.103Z</time></trkpt><trkpt lat="44.9595517" lon="8.947125"><ele>101.33333333333334</ele><time>2026-04-04T09:09:31.102Z</time></trkpt><trkpt lat="44.95956" lon="8.9468817"><ele>100.66666666666667</ele><time>2026-04-04T09:09:32.102Z</time></trkpt><trkpt lat="44.95957" lon="8.946645"><ele>100.0</ele><time>2026-04-04T09:09:33.101Z</time></trkpt><trkpt lat="44.9595817" lon="8.94642"><ele>100.0</ele><time>2026-04-04T09:09:34.109Z</time></trkpt><trkpt lat="44.959595" lon="8.9462133"><ele>100.0</ele><time>2026-04-04T09:09:35.101Z</time></trkpt><trkpt lat="44.959615" lon="8.9460233"><ele>100.0</ele><time>2026-04-04T09:09:36.099Z</time></trkpt><trkpt lat="44.9596433" lon="8.9458483"><ele>100.0</ele><time>2026-04-04T09:09:37.109Z</time></trkpt><trkpt lat="44.95967" lon="8.945695"><ele>100.00000000000001</ele><time>2026-04-04T09:09:38.101Z</time></trkpt><trkpt lat="44.9597033" lon="8.9455733"><ele>100.0</ele><time>2026-04-04T09:09:39.102Z</time></trkpt><trkpt lat="44.9597367" lon="8.9454783"><ele>100.0</ele><time>2026-04-04T09:09:40.11Z</time></trkpt><trkpt lat="44.9598033" lon="8.9454567"><ele>100.0</ele><time>2026-04-04T09:09:41.105Z</time></trkpt><trkpt lat="44.9598933" lon="8.9454633"><ele>100.00000000000001</ele><time>2026-04-04T09:09:42.103Z</time></trkpt><trkpt lat="44.959985" lon="8.9454717"><ele>100.0</ele><time>2026-04-04T09:09:43.102Z</time></trkpt><trkpt lat="44.9601217" lon="8.9455017"><ele>99.66666666666667</ele><time>2026-04-04T09:09:44.101Z</time></trkpt><trkpt lat="44.96029" lon="8.9455633"><ele>99.33333333333334</ele><time>2026-04-04T09:09:45.101Z</time></trkpt><trkpt lat="44.9604617" lon="8.9456133"><ele>99.0</ele><time>2026-04-04T09:09:46.102Z</time></trkpt><trkpt lat="44.9606367" lon="8.9456433"><ele>99.0</ele><time>2026-04-04T09:09:47.103Z</time></trkpt><trkpt lat="44.9608117" lon="8.9456567"><ele>99.0</ele><time>2026-04-04T09:09:48.104Z</time></trkpt><trkpt lat="44.9609867" lon="8.94566"><ele>99.0</ele><time>2026-04-04T09:09:49.101Z</time></trkpt><trkpt lat="44.961165" lon="8.9456617"><ele>99.33333333333334</ele><time>2026-04-04T09:09:50.1Z</time></trkpt><trkpt lat="44.96135" lon="8.94566"><ele>99.66666666666667</ele><time>2026-04-04T09:09:51.106Z</time></trkpt><trkpt lat="44.9615317" lon="8.945655"><ele>100.0</ele><time>2026-04-04T09:09:52.101Z</time></trkpt><trkpt lat="44.9617083" lon="8.9456583"><ele>100.0</ele><time>2026-04-04T09:09:53.102Z</time></trkpt><trkpt lat="44.9618817" lon="8.9456633"><ele>100.0</ele><time>2026-04-04T09:09:54.099Z</time></trkpt><trkpt lat="44.9620417" lon="8.94567"><ele>100.0</ele><time>2026-04-04T09:09:55.104Z</time></trkpt><trkpt lat="44.962185" lon="8.9456717"><ele>100.0</ele><time>2026-04-04T09:09:56.102Z</time></trkpt><trkpt lat="44.9623033" lon="8.9456567"><ele>100.0</ele><time>2026-04-04T09:09:57.102Z</time></trkpt><trkpt lat="44.9624067" lon="8.9456167"><ele>100.0</ele><time>2026-04-04T09:09:58.102Z</time></trkpt><trkpt lat="44.9624917" lon="8.94556"><ele>100.0</ele><time>2026-04-04T09:09:59.103Z</time></trkpt><trkpt lat="44.96256" lon="8.945485"><ele>100.0</ele><time>2026-04-04T09:10:00.105Z</time></trkpt><trkpt lat="44.96262" lon="8.9453983"><ele>100.00000000000001</ele><time>2026-04-04T09:10:01.103Z</time></trkpt><trkpt lat="44.96267" lon="8.945305"><ele>100.0</ele><time>2026-04-04T09:10:02.105Z</time></trkpt><trkpt lat="44.9627133" lon="8.9452233"><ele>100.0</ele><time>2026-04-04T09:10:03.1Z</time></trkpt><trkpt lat="44.96277" lon="8.9451617"><ele>100.0</ele><time>2026-04-04T09:10:04.103Z</time></trkpt><trkpt lat="44.9628183" lon="8.9450933"><ele>100.0</ele><time>2026-04-04T09:10:05.104Z</time></trkpt><trkpt lat="44.9628617" lon="8.9450167"><ele>100.00000000000001</ele><time>2026-04-04T09:10:06.102Z</time></trkpt><trkpt lat="44.9628583" lon="8.9449083"><ele>100.0</ele><time>2026-04-04T09:10:07.107Z</time></trkpt><trkpt lat="44.9628467" lon="8.9448083"><ele>100.00000000000001</ele><time>2026-04-04T09:10:08.101Z</time></trkpt><trkpt lat="44.9628133" lon="8.94473"><ele>100.0</ele><time>2026-04-04T09:10:09.104Z</time></trkpt><trkpt lat="44.9627233" lon="8.944715"><ele>100.0</ele><time>2026-04-04T09:10:10.105Z</time></trkpt><trkpt lat="44.962645" lon="8.9447283"><ele>100.0</ele><time>2026-04-04T09:10:11.104Z</time></trkpt><trkpt lat="44.9625683" lon="8.9447717"><ele>100.00000000000001</ele><time>2026-04-04T09:10:12.104Z</time></trkpt><trkpt lat="44.9624867" lon="8.9448317"><ele>100.0</ele><time>2026-04-04T09:10:13.105Z</time></trkpt><trkpt lat="44.9623967" lon="8.9448867"><ele>100.0</ele><time>2026-04-04T09:10:14.103Z</time></trkpt><trkpt lat="44.962285" lon="8.944925"><ele>100.0</ele><time>2026-04-04T09:10:15.102Z</time></trkpt><trkpt lat="44.96215" lon="8.94495"><ele>100.0</ele><time>2026-04-04T09:10:16.104Z</time></trkpt><trkpt lat="44.9620033" lon="8.94497"><ele>100.0</ele><time>2026-04-04T09:10:17.106Z</time></trkpt><trkpt lat="44.96184" lon="8.9449817"><ele>100.33333333333334</ele><time>2026-04-04T09:10:18.1Z</time></trkpt><trkpt lat="44.961675" lon="8.9449933"><ele>100.66666666666666</ele><time>2026-04-04T09:10:19.103Z</time></trkpt><trkpt lat="44.9615083" lon="8.9449983"><ele>101.0</ele><time>2026-04-04T09:10:20.102Z</time></trkpt><trkpt lat="44.961335" lon="8.9449883"><ele>101.0</ele><time>2026-04-04T09:10:21.098Z</time></trkpt><trkpt lat="44.9611583" lon="8.9449633"><ele>101.0</ele><time>2026-04-04T09:10:22.097Z</time></trkpt><trkpt lat="44.9609767" lon="8.9449267"><ele>101.0</ele><time>2026-04-04T09:10:23.099Z</time></trkpt><trkpt lat="44.9607867" lon="8.944875"><ele>100.66666666666666</ele><time>2026-04-04T09:10:24.098Z</time></trkpt><trkpt lat="44.9606017" lon="8.9448033"><ele>100.33333333333334</ele><time>2026-04-04T09:10:25.102Z</time></trkpt><trkpt lat="44.9604233" lon="8.94471"><ele>100.0</ele><time>2026-04-04T09:10:26.098Z</time></trkpt><trkpt lat="44.9602517" lon="8.944605"><ele>100.0</ele><time>2026-04-04T09:10:27.1Z</time></trkpt><trkpt lat="44.9600783" lon="8.944495"><ele>100.0</ele><time>2026-04-04T09:10:28.099Z</time></trkpt><trkpt lat="44.959905" lon="8.94438"><ele>100.0</ele><time>2026-04-04T09:10:29.104Z</time></trkpt><trkpt lat="44.95973" lon="8.9442567"><ele>100.0</ele><time>2026-04-04T09:10:30.101Z</time></trkpt><trkpt lat="44.9595533" lon="8.944135"><ele>100.0</ele><time>2026-04-04T09:10:31.104Z</time></trkpt><trkpt lat="44.959375" lon="8.94401"><ele>100.0</ele><time>2026-04-04T09:10:32.104Z</time></trkpt><trkpt lat="44.9592017" lon="8.94389"><ele>100.66666666666667</ele><time>2026-04-04T09:10:33.101Z</time></trkpt><trkpt lat="44.9590317" lon="8.943775"><ele>101.33333333333334</ele><time>2026-04-04T09:10:34.103Z</time></trkpt><trkpt lat="44.9588617" lon="8.9436617"><ele>102.0</ele><time>2026-04-04T09:10:35.103Z</time></trkpt><trkpt lat="44.958695" lon="8.9435517"><ele>102.0</ele><time>2026-04-04T09:10:36.099Z</time></trkpt><trkpt lat="44.9585283" lon="8.9434383"><ele>102.0</ele><time>2026-04-04T09:10:37.106Z</time></trkpt><trkpt lat="44.9583617" lon="8.9433233"><ele>102.0</ele><time>2026-04-04T09:10:38.099Z</time></trkpt><trkpt lat="44.9581917" lon="8.9432083"><ele>102.0</ele><time>2026-04-04T09:10:39.104Z</time></trkpt><trkpt lat="44.9580217" lon="8.9430917"><ele>102.0</ele><time>2026-04-04T09:10:40.103Z</time></trkpt><trkpt lat="44.95785" lon="8.9429733"><ele>102.0</ele><time>2026-04-04T09:10:41.109Z</time></trkpt><trkpt lat="44.9576767" lon="8.9428567"><ele>102.33333333333334</ele><time>2026-04-04T09:10:42.101Z</time></trkpt><trkpt lat="44.9575033" lon="8.94274"><ele>102.66666666666667</ele><time>2026-04-04T09:10:43.11Z</time></trkpt><trkpt lat="44.9573317" lon="8.9426233"><ele>103.0</ele><time>2026-04-04T09:10:44.103Z</time></trkpt><trkpt lat="44.95716" lon="8.9425067"><ele>103.0</ele><time>2026-04-04T09:10:45.099Z</time></trkpt><trkpt lat="44.9569917" lon="8.942395"><ele>103.0</ele><time>2026-04-04T09:10:46.102Z</time></trkpt><trkpt lat="44.9568217" lon="8.9423"><ele>103.0</ele><time>2026-04-04T09:10:47.102Z</time></trkpt><trkpt lat="44.9566517" lon="8.942215"><ele>103.0</ele><time>2026-04-04T09:10:48.101Z</time></trkpt><trkpt lat="44.956485" lon="8.942135"><ele>103.0</ele><time>2026-04-04T09:10:49.1Z</time></trkpt><trkpt lat="44.956315" lon="8.9420617"><ele>103.0</ele><time>2026-04-04T09:10:50.104Z</time></trkpt><trkpt lat="44.9561483" lon="8.9419917"><ele>103.0</ele><time>2026-04-04T09:10:51.102Z</time></trkpt><trkpt lat="44.9559883" lon="8.94192"><ele>103.0</ele><time>2026-04-04T09:10:52.1Z</time></trkpt><trkpt lat="44.9558467" lon="8.941845"><ele>103.0</ele><time>2026-04-04T09:10:53.102Z</time></trkpt><trkpt lat="44.9557283" lon="8.94176"><ele>103.2</ele><time>2026-04-04T09:10:54.1Z</time></trkpt><trkpt lat="44.95563" lon="8.9416633"><ele>103.4</ele><time>2026-04-04T09:10:55.103Z</time></trkpt><trkpt lat="44.9555483" lon="8.9415633"><ele>103.60000000000001</ele><time>2026-04-04T09:10:56.1Z</time></trkpt><trkpt lat="44.9554867" lon="8.9414517"><ele>103.80000000000001</ele><time>2026-04-04T09:10:57.103Z</time></trkpt><trkpt lat="44.9554417" lon="8.9413317"><ele>104.0</ele><time>2026-04-04T09:10:58.105Z</time></trkpt><trkpt lat="44.9553917" lon="8.941225"><ele>103.99999999999999</ele><time>2026-04-04T09:10:59.099Z</time></trkpt><trkpt lat="44.95534" lon="8.9411383"><ele>104.0</ele><time>2026-04-04T09:11:00.106Z</time></trkpt><trkpt lat="44.9552683" lon="8.941115"><ele>104.0</ele><time>2026-04-04T09:11:01.1Z</time></trkpt><trkpt lat="44.9551983" lon="8.9411183"><ele>104.0</ele><time>2026-04-04T09:11:02.101Z</time></trkpt><trkpt lat="44.9551267" lon="8.941185"><ele>103.99999999999999</ele><time>2026-04-04T09:11:03.101Z</time></trkpt><trkpt lat="44.9550567" lon="8.941265"><ele>104.0</ele><time>2026-04-04T09:11:04.101Z</time></trkpt><trkpt lat="44.9549783" lon="8.9413483"><ele>104.0</ele><time>2026-04-04T09:11:05.103Z</time></trkpt><trkpt lat="44.95488" lon="8.9413833"><ele>104.0</ele><time>2026-04-04T09:11:06.103Z</time></trkpt><trkpt lat="44.954775" lon="8.9413933"><ele>104.0</ele><time>2026-04-04T09:11:07.101Z</time></trkpt><trkpt lat="44.9546583" lon="8.9413717"><ele>104.0</ele><time>2026-04-04T09:11:08.104Z</time></trkpt><trkpt lat="44.95453" lon="8.9413367"><ele>104.0</ele><time>2026-04-04T09:11:09.103Z</time></trkpt><trkpt lat="44.9543867" lon="8.9412833"><ele>104.0</ele><time>2026-04-04T09:11:10.103Z</time></trkpt><trkpt lat="44.9542333" lon="8.9412167"><ele>104.0</ele><time>2026-04-04T09:11:11.103Z</time></trkpt><trkpt lat="44.95408" lon="8.94115"><ele>104.0</ele><time>2026-04-04T09:11:12.098Z</time></trkpt><trkpt lat="44.95393" lon="8.9410783"><ele>104.0</ele><time>2026-04-04T09:11:13.101Z</time></trkpt><trkpt lat="44.95378" lon="8.9410067"><ele>104.0</ele><time>2026-04-04T09:11:14.105Z</time></trkpt><trkpt lat="44.9536233" lon="8.94093"><ele>104.0</ele><time>2026-04-04T09:11:15.098Z</time></trkpt><trkpt lat="44.9534617" lon="8.9408517"><ele>104.0</ele><time>2026-04-04T09:11:16.099Z</time></trkpt><trkpt lat="44.9533067" lon="8.9407783"><ele>104.0</ele><time>2026-04-04T09:11:17.1Z</time></trkpt><trkpt lat="44.9531583" lon="8.9407083"><ele>104.66666666666666</ele><time>2026-04-04T09:11:18.101Z</time></trkpt><trkpt lat="44.9530133" lon="8.9406383"><ele>105.33333333333334</ele><time>2026-04-04T09:11:19.103Z</time></trkpt><trkpt lat="44.95287" lon="8.9405667"><ele>106.0</ele><time>2026-04-04T09:11:20.105Z</time></trkpt><trkpt lat="44.9527267" lon="8.9404983"><ele>106.0</ele><time>2026-04-04T09:11:21.099Z</time></trkpt><trkpt lat="44.9525783" lon="8.9404383"><ele>106.0</ele><time>2026-04-04T09:11:22.101Z</time></trkpt><trkpt lat="44.952425" lon="8.9403933"><ele>106.0</ele><time>2026-04-04T09:11:23.101Z</time></trkpt><trkpt lat="44.95226" lon="8.9403567"><ele>105.66666666666667</ele><time>2026-04-04T09:11:24.105Z</time></trkpt><trkpt lat="44.9520933" lon="8.94032"><ele>105.33333333333334</ele><time>2026-04-04T09:11:25.11Z</time></trkpt><trkpt lat="44.95192" lon="8.9402833"><ele>105.0</ele><time>2026-04-04T09:11:26.102Z</time></trkpt><trkpt lat="44.9517533" lon="8.9402467"><ele>105.25</ele><time>2026-04-04T09:11:27.099Z</time></trkpt><trkpt lat="44.951595" lon="8.9402117"><ele>105.5</ele><time>2026-04-04T09:11:28.105Z</time></trkpt><trkpt lat="44.951455" lon="8.9401833"><ele>105.75</ele><time>2026-04-04T09:11:29.102Z</time></trkpt><trkpt lat="44.951325" lon="8.9401733"><ele>106.0</ele><time>2026-04-04T09:11:30.101Z</time></trkpt><trkpt lat="44.9512033" lon="8.9402067"><ele>106.0</ele><time>2026-04-04T09:11:31.102Z</time></trkpt><trkpt lat="44.951085" lon="8.9402767"><ele>106.0</ele><time>2026-04-04T09:11:32.111Z</time></trkpt><trkpt lat="44.950965" lon="8.9403667"><ele>106.0</ele><time>2026-04-04T09:11:33.11Z</time></trkpt><trkpt lat="44.9508367" lon="8.9404533"><ele>106.0</ele><time>2026-04-04T09:11:34.099Z</time></trkpt><trkpt lat="44.9507" lon="8.940515"><ele>106.25</ele><time>2026-04-04T09:11:35.102Z</time></trkpt><trkpt lat="44.9505517" lon="8.94055"><ele>106.5</ele><time>2026-04-04T09:11:36.099Z</time></trkpt><trkpt lat="44.9504017" lon="8.9405633"><ele>106.75</ele><time>2026-04-04T09:11:37.099Z</time></trkpt><trkpt lat="44.950255" lon="8.9405667"><ele>107.0</ele><time>2026-04-04T09:11:38.1Z</time></trkpt><trkpt lat="44.950115" lon="8.9405617"><ele>107.0</ele><time>2026-04-04T09:11:39.101Z</time></trkpt><trkpt lat="44.9499817" lon="8.94057"><ele>107.0</ele><time>2026-04-04T09:11:40.101Z</time></trkpt><trkpt lat="44.9498583" lon="8.9405883"><ele>107.0</ele><time>2026-04-04T09:11:41.1Z</time></trkpt><trkpt lat="44.9497383" lon="8.94065"><ele>107.0</ele><time>2026-04-04T09:11:42.1Z</time></trkpt><trkpt lat="44.949615" lon="8.9407467"><ele>107.0</ele><time>2026-04-04T09:11:43.103Z</time></trkpt><trkpt lat="44.94949" lon="8.9408683"><ele>107.0</ele><time>2026-04-04T09:11:44.1Z</time></trkpt><trkpt lat="44.9493617" lon="8.940995"><ele>107.0</ele><time>2026-04-04T09:11:45.106Z</time></trkpt><trkpt lat="44.949225" lon="8.9411083"><ele>107.0</ele><time>2026-04-04T09:11:46.101Z</time></trkpt><trkpt lat="44.9490817" lon="8.9411967"><ele>107.0</ele><time>2026-04-04T09:11:47.1Z</time></trkpt><trkpt lat="44.9489333" lon="8.9412583"><ele>107.0</ele><time>2026-04-04T09:11:48.1Z</time></trkpt><trkpt lat="44.9487767" lon="8.94131"><ele>107.0</ele><time>2026-04-04T09:11:49.104Z</time></trkpt><trkpt lat="44.9486167" lon="8.9413633"><ele>107.0</ele><time>2026-04-04T09:11:50.109Z</time></trkpt><trkpt lat="44.9484583" lon="8.941425"><ele>107.0</ele><time>2026-04-04T09:11:51.103Z</time></trkpt><trkpt lat="44.9482917" lon="8.9415"><ele>106.66666666666666</ele><time>2026-04-04T09:11:52.102Z</time></trkpt><trkpt lat="44.9481183" lon="8.9415733"><ele>106.33333333333334</ele><time>2026-04-04T09:11:53.107Z</time></trkpt><trkpt lat="44.9479433" lon="8.9416367"><ele>106.0</ele><time>2026-04-04T09:11:54.106Z</time></trkpt><trkpt lat="44.9477667" lon="8.9416917"><ele>106.33333333333334</ele><time>2026-04-04T09:11:55.103Z</time></trkpt><trkpt lat="44.9475917" lon="8.94173"><ele>106.66666666666666</ele><time>2026-04-04T09:11:56.1Z</time></trkpt><trkpt lat="44.9474167" lon="8.9417617"><ele>107.0</ele><time>2026-04-04T09:11:57.1Z</time></trkpt><trkpt lat="44.9472433" lon="8.9417883"><ele>107.66666666666666</ele><time>2026-04-04T09:11:58.099Z</time></trkpt><trkpt lat="44.9470717" lon="8.9418067"><ele>108.33333333333334</ele><time>2026-04-04T09:11:59.103Z</time></trkpt><trkpt lat="44.9469017" lon="8.9418283"><ele>109.0</ele><time>2026-04-04T09:12:00.102Z</time></trkpt><trkpt lat="44.9467383" lon="8.9418683"><ele>110.33333333333334</ele><time>2026-04-04T09:12:01.106Z</time></trkpt><trkpt lat="44.9465833" lon="8.9419417"><ele>111.66666666666666</ele><time>2026-04-04T09:12:02.107Z</time></trkpt><trkpt lat="44.9464383" lon="8.942045"><ele>113.0</ele><time>2026-04-04T09:12:03.099Z</time></trkpt><trkpt lat="44.9463" lon="8.9421733"><ele>113.0</ele><time>2026-04-04T09:12:04.1Z</time></trkpt><trkpt lat="44.9461667" lon="8.942295"><ele>113.0</ele><time>2026-04-04T09:12:05.103Z</time></trkpt><trkpt lat="44.9460317" lon="8.9424083"><ele>113.0</ele><time>2026-04-04T09:12:06.1Z</time></trkpt><trkpt lat="44.9458867" lon="8.9425117"><ele>112.33333333333333</ele><time>2026-04-04T09:12:07.106Z</time></trkpt><trkpt lat="44.945735" lon="8.942595"><ele>111.66666666666666</ele><time>2026-04-04T09:12:08.104Z</time></trkpt><trkpt lat="44.9455767" lon="8.9426683"><ele>111.0</ele><time>2026-04-04T09:12:09.101Z</time></trkpt><trkpt lat="44.9454133" lon="8.942735"><ele>111.0</ele><time>2026-04-04T09:12:10.103Z</time></trkpt><trkpt lat="44.945245" lon="8.9427883"><ele>111.0</ele><time>2026-04-04T09:12:11.101Z</time></trkpt><trkpt lat="44.9450717" lon="8.9428183"><ele>111.0</ele><time>2026-04-04T09:12:12.101Z</time></trkpt><trkpt lat="44.9448983" lon="8.9428267"><ele>111.0</ele><time>2026-04-04T09:12:13.108Z</time></trkpt><trkpt lat="44.944725" lon="8.942825"><ele>111.0</ele><time>2026-04-04T09:12:14.102Z</time></trkpt><trkpt lat="44.9445533" lon="8.9428217"><ele>111.0</ele><time>2026-04-04T09:12:15.102Z</time></trkpt><trkpt lat="44.9443767" lon="8.9428083"><ele>111.33333333333334</ele><time>2026-04-04T09:12:16.104Z</time></trkpt><trkpt lat="44.9442017" lon="8.942785"><ele>111.66666666666667</ele><time>2026-04-04T09:12:17.104Z</time></trkpt><trkpt lat="44.9440283" lon="8.9427483"><ele>112.0</ele><time>2026-04-04T09:12:18.1Z</time></trkpt><trkpt lat="44.943855" lon="8.9427067"><ele>112.0</ele><time>2026-04-04T09:12:19.101Z</time></trkpt><trkpt lat="44.9436783" lon="8.9426683"><ele>112.0</ele><time>2026-04-04T09:12:20.101Z</time></trkpt><trkpt lat="44.9435017" lon="8.9426367"><ele>112.0</ele><time>2026-04-04T09:12:21.099Z</time></trkpt><trkpt lat="44.943325" lon="8.9426183"><ele>111.66666666666667</ele><time>2026-04-04T09:12:22.1Z</time></trkpt><trkpt lat="44.9431517" lon="8.942615"><ele>111.33333333333334</ele><time>2026-04-04T09:12:23.108Z</time></trkpt><trkpt lat="44.942975" lon="8.942625"><ele>111.0</ele><time>2026-04-04T09:12:24.104Z</time></trkpt><trkpt lat="44.9427983" lon="8.9426333"><ele>111.0</ele><time>2026-04-04T09:12:25.108Z</time></trkpt><trkpt lat="44.942625" lon="8.942635"><ele>111.0</ele><time>2026-04-04T09:12:26.101Z</time></trkpt><trkpt lat="44.9424517" lon="8.9426283"><ele>111.0</ele><time>2026-04-04T09:12:27.099Z</time></trkpt><trkpt lat="44.94229" lon="8.94261"><ele>111.25</ele><time>2026-04-04T09:12:28.1Z</time></trkpt><trkpt lat="44.942135" lon="8.9425817"><ele>111.5</ele><time>2026-04-04T09:12:29.099Z</time></trkpt><trkpt lat="44.9419967" lon="8.9425683"><ele>111.75</ele><time>2026-04-04T09:12:30.102Z</time></trkpt><trkpt lat="44.9418667" lon="8.942585"><ele>112.0</ele><time>2026-04-04T09:12:31.1Z</time></trkpt><trkpt lat="44.9417433" lon="8.9426467"><ele>112.66666666666667</ele><time>2026-04-04T09:12:32.105Z</time></trkpt><trkpt lat="44.9416167" lon="8.9427383"><ele>113.33333333333334</ele><time>2026-04-04T09:12:33.104Z</time></trkpt><trkpt lat="44.9414867" lon="8.9428583"><ele>114.0</ele><time>2026-04-04T09:12:34.104Z</time></trkpt><trkpt lat="44.9413517" lon="8.942985"><ele>114.0</ele><time>2026-04-04T09:12:35.105Z</time></trkpt><trkpt lat="44.9412167" lon="8.9431017"><ele>114.0</ele><time>2026-04-04T09:12:36.101Z</time></trkpt><trkpt lat="44.9410833" lon="8.9432067"><ele>114.0</ele><time>2026-04-04T09:12:37.108Z</time></trkpt><trkpt lat="44.94095" lon="8.9433033"><ele>114.66666666666666</ele><time>2026-04-04T09:12:38.103Z</time></trkpt><trkpt lat="44.940815" lon="8.9433967"><ele>115.33333333333333</ele><time>2026-04-04T09:12:39.103Z</time></trkpt><trkpt lat="44.94068" lon="8.9434917"><ele>116.0</ele><time>2026-04-04T09:12:40.1Z</time></trkpt><trkpt lat="44.9405417" lon="8.9435917"><ele>116.0</ele><time>2026-04-04T09:12:41.099Z</time></trkpt><trkpt lat="44.9404033" lon="8.9436933"><ele>116.0</ele><time>2026-04-04T09:12:42.108Z</time></trkpt><trkpt lat="44.9402617" lon="8.9438033"><ele>116.0</ele><time>2026-04-04T09:12:43.101Z</time></trkpt><trkpt lat="44.9401217" lon="8.94393"><ele>116.0</ele><time>2026-04-04T09:12:44.102Z</time></trkpt><trkpt lat="44.9399833" lon="8.9440767"><ele>116.0</ele><time>2026-04-04T09:12:45.103Z</time></trkpt><trkpt lat="44.9398533" lon="8.9442417"><ele>116.0</ele><time>2026-04-04T09:12:46.102Z</time></trkpt><trkpt lat="44.93972" lon="8.9444067"><ele>116.0</ele><time>2026-04-04T09:12:47.103Z</time></trkpt><trkpt lat="44.9395867" lon="8.9445617"><ele>116.0</ele><time>2026-04-04T09:12:48.103Z</time></trkpt><trkpt lat="44.939455" lon="8.94471"><ele>116.0</ele><time>2026-04-04T09:12:49.106Z</time></trkpt><trkpt lat="44.9393267" lon="8.9448533"><ele>116.0</ele><time>2026-04-04T09:12:50.107Z</time></trkpt><trkpt lat="44.9392017" lon="8.9449983"><ele>116.0</ele><time>2026-04-04T09:12:51.108Z</time></trkpt><trkpt lat="44.93908" lon="8.9451417"><ele>116.0</ele><time>2026-04-04T09:12:52.101Z</time></trkpt><trkpt lat="44.93897" lon="8.94529"><ele>116.5</ele><time>2026-04-04T09:12:53.105Z</time></trkpt><trkpt lat="44.9388867" lon="8.94545"><ele>117.0</ele><time>2026-04-04T09:12:54.108Z</time></trkpt><trkpt lat="44.93883" lon="8.94563"><ele>117.5</ele><time>2026-04-04T09:12:55.109Z</time></trkpt><trkpt lat="44.9387983" lon="8.9458383"><ele>118.0</ele><time>2026-04-04T09:12:56.101Z</time></trkpt><trkpt lat="44.938775" lon="8.946055"><ele>118.0</ele><time>2026-04-04T09:12:57.1Z</time></trkpt><trkpt lat="44.9387617" lon="8.9462783"><ele>118.0</ele><time>2026-04-04T09:12:58.103Z</time></trkpt><trkpt lat="44.938745" lon="8.9464933"><ele>118.0</ele><time>2026-04-04T09:12:59.105Z</time></trkpt><trkpt lat="44.93872" lon="8.946685"><ele>117.75</ele><time>2026-04-04T09:13:00.102Z</time></trkpt><trkpt lat="44.9386817" lon="8.9468533"><ele>117.5</ele><time>2026-04-04T09:13:01.1Z</time></trkpt><trkpt lat="44.9386217" lon="8.947"><ele>117.25</ele><time>2026-04-04T09:13:02.103Z</time></trkpt><trkpt lat="44.9385333" lon="8.9471217"><ele>117.0</ele><time>2026-04-04T09:13:03.099Z</time></trkpt><trkpt lat="44.9384233" lon="8.9472267"><ele>117.75</ele><time>2026-04-04T09:13:04.098Z</time></trkpt><trkpt lat="44.9382917" lon="8.947295"><ele>118.5</ele><time>2026-04-04T09:13:05.104Z</time></trkpt><trkpt lat="44.9381533" lon="8.9473633"><ele>119.25</ele><time>2026-04-04T09:13:06.1Z</time></trkpt><trkpt lat="44.9380083" lon="8.947435"><ele>120.0</ele><time>2026-04-04T09:13:07.099Z</time></trkpt><trkpt lat="44.9378567" lon="8.9475133"><ele>120.0</ele><time>2026-04-04T09:13:08.105Z</time></trkpt><trkpt lat="44.937705" lon="8.9475933"><ele>120.0</ele><time>2026-04-04T09:13:09.101Z</time></trkpt><trkpt lat="44.9375583" lon="8.9476683"><ele>120.0</ele><time>2026-04-04T09:13:10.102Z</time></trkpt><trkpt lat="44.9374217" lon="8.9477383"><ele>120.0</ele><time>2026-04-04T09:13:11.105Z</time></trkpt><trkpt lat="44.937295" lon="8.9478033"><ele>120.0</ele><time>2026-04-04T09:13:12.101Z</time></trkpt><trkpt lat="44.9371733" lon="8.947865"><ele>120.0</ele><time>2026-04-04T09:13:13.099Z</time></trkpt><trkpt lat="44.93705" lon="8.9479217"><ele>120.0</ele><time>2026-04-04T09:13:14.1Z</time></trkpt><trkpt lat="44.9369233" lon="8.9479817"><ele>120.0</ele><time>2026-04-04T09:13:15.098Z</time></trkpt><trkpt lat="44.9367933" lon="8.948045"><ele>120.0</ele><time>2026-04-04T09:13:16.102Z</time></trkpt><trkpt lat="44.9366567" lon="8.9481033"><ele>120.0</ele><time>2026-04-04T09:13:17.103Z</time></trkpt><trkpt lat="44.9365133" lon="8.948155"><ele>120.0</ele><time>2026-04-04T09:13:18.104Z</time></trkpt><trkpt lat="44.9363667" lon="8.9482"><ele>120.0</ele><time>2026-04-04T09:13:19.1Z</time></trkpt><trkpt lat="44.93622" lon="8.9482267"><ele>120.0</ele><time>2026-04-04T09:13:20.101Z</time></trkpt><trkpt lat="44.9360733" lon="8.9482333"><ele>120.0</ele><time>2026-04-04T09:13:21.103Z</time></trkpt><trkpt lat="44.9359283" lon="8.948225"><ele>120.0</ele><time>2026-04-04T09:13:22.106Z</time></trkpt><trkpt lat="44.9357883" lon="8.9482133"><ele>120.25</ele><time>2026-04-04T09:13:23.099Z</time></trkpt><trkpt lat="44.9356567" lon="8.94821"><ele>120.5</ele><time>2026-04-04T09:13:24.102Z</time></trkpt><trkpt lat="44.9355183" lon="8.94824"><ele>120.75</ele><time>2026-04-04T09:13:25.1Z</time></trkpt><trkpt lat="44.9353817" lon="8.9483033"><ele>121.0</ele><time>2026-04-04T09:13:26.1Z</time></trkpt><trkpt lat="44.935245" lon="8.9483883"><ele>121.0</ele><time>2026-04-04T09:13:27.098Z</time></trkpt><trkpt lat="44.935105" lon="8.9484833"><ele>121.0</ele><time>2026-04-04T09:13:28.098Z</time></trkpt><trkpt lat="44.9349667" lon="8.948595"><ele>121.0</ele><time>2026-04-04T09:13:29.099Z</time></trkpt><trkpt lat="44.9348283" lon="8.9487233"><ele>121.33333333333334</ele><time>2026-04-04T09:13:30.1Z</time></trkpt><trkpt lat="44.934695" lon="8.94888"><ele>121.66666666666666</ele><time>2026-04-04T09:13:31.105Z</time></trkpt><trkpt lat="44.93456" lon="8.94905"><ele>122.0</ele><time>2026-04-04T09:13:32.102Z</time></trkpt><trkpt lat="44.9344233" lon="8.949225"><ele>122.66666666666666</ele><time>2026-04-04T09:13:33.102Z</time></trkpt><trkpt lat="44.9342833" lon="8.9493967"><ele>123.33333333333334</ele><time>2026-04-04T09:13:34.101Z</time></trkpt><trkpt lat="44.9341417" lon="8.9495633"><ele>124.0</ele><time>2026-04-04T09:13:35.101Z</time></trkpt><trkpt lat="44.9339967" lon="8.9497283"><ele>124.66666666666667</ele><time>2026-04-04T09:13:36.104Z</time></trkpt><trkpt lat="44.9338517" lon="8.9498833"><ele>125.33333333333334</ele><time>2026-04-04T09:13:37.102Z</time></trkpt><trkpt lat="44.933705" lon="8.9500317"><ele>126.0</ele><time>2026-04-04T09:13:38.108Z</time></trkpt><trkpt lat="44.9335567" lon="8.9501783"><ele>126.0</ele><time>2026-04-04T09:13:39.105Z</time></trkpt><trkpt lat="44.9334117" lon="8.9503333"><ele>126.0</ele><time>2026-04-04T09:13:40.102Z</time></trkpt><trkpt lat="44.9332717" lon="8.9504983"><ele>126.0</ele><time>2026-04-04T09:13:41.104Z</time></trkpt><trkpt lat="44.933125" lon="8.95067"><ele>125.33333333333334</ele><time>2026-04-04T09:13:42.103Z</time></trkpt><trkpt lat="44.9329817" lon="8.9508433"><ele>124.66666666666667</ele><time>2026-04-04T09:13:43.106Z</time></trkpt><trkpt lat="44.9328367" lon="8.9510217"><ele>124.0</ele><time>2026-04-04T09:13:44.103Z</time></trkpt><trkpt lat="44.9326883" lon="8.9511983"><ele>124.33333333333334</ele><time>2026-04-04T09:13:45.103Z</time></trkpt><trkpt lat="44.93254" lon="8.95138"><ele>124.66666666666666</ele><time>2026-04-04T09:13:46.1Z</time></trkpt><trkpt lat="44.9323867" lon="8.9515633"><ele>125.0</ele><time>2026-04-04T09:13:47.106Z</time></trkpt><trkpt lat="44.93223" lon="8.9517467"><ele>125.0</ele><time>2026-04-04T09:13:48.106Z</time></trkpt><trkpt lat="44.932075" lon="8.9519167"><ele>125.0</ele><time>2026-04-04T09:13:49.104Z</time></trkpt><trkpt lat="44.9319217" lon="8.9520817"><ele>125.0</ele><time>2026-04-04T09:13:50.099Z</time></trkpt><trkpt lat="44.931765" lon="8.9522333"><ele>125.33333333333333</ele><time>2026-04-04T09:13:51.099Z</time></trkpt><trkpt lat="44.9316083" lon="8.95238"><ele>125.66666666666666</ele><time>2026-04-04T09:13:52.106Z</time></trkpt><trkpt lat="44.9314533" lon="8.9525267"><ele>126.0</ele><time>2026-04-04T09:13:53.102Z</time></trkpt><trkpt lat="44.9312983" lon="8.9526583"><ele>126.0</ele><time>2026-04-04T09:13:54.099Z</time></trkpt><trkpt lat="44.9311317" lon="8.9527717"><ele>126.0</ele><time>2026-04-04T09:13:55.102Z</time></trkpt><trkpt lat="44.9309533" lon="8.9528717"><ele>126.0</ele><time>2026-04-04T09:13:56.102Z</time></trkpt><trkpt lat="44.9307683" lon="8.9529733"><ele>126.0</ele><time>2026-04-04T09:13:57.1Z</time></trkpt><trkpt lat="44.93058" lon="8.95307"><ele>126.0</ele><time>2026-04-04T09:13:58.101Z</time></trkpt><trkpt lat="44.9303883" lon="8.953175"><ele>126.0</ele><time>2026-04-04T09:13:59.102Z</time></trkpt><trkpt lat="44.93019" lon="8.9532783"><ele>126.66666666666666</ele><time>2026-04-04T09:14:00.1Z</time></trkpt><trkpt lat="44.9299933" lon="8.9533817"><ele>127.33333333333333</ele><time>2026-04-04T09:14:01.101Z</time></trkpt><trkpt lat="44.9297917" lon="8.953485"><ele>128.0</ele><time>2026-04-04T09:14:02.099Z</time></trkpt><trkpt lat="44.929585" lon="8.9535933"><ele>128.0</ele><time>2026-04-04T09:14:03.105Z</time></trkpt><trkpt lat="44.9293783" lon="8.953705"><ele>128.0</ele><time>2026-04-04T09:14:04.109Z</time></trkpt><trkpt lat="44.9291717" lon="8.9538183"><ele>128.0</ele><time>2026-04-04T09:14:05.1Z</time></trkpt><trkpt lat="44.9289633" lon="8.9539283"><ele>128.0</ele><time>2026-04-04T09:14:06.101Z</time></trkpt><trkpt lat="44.928755" lon="8.9540367"><ele>128.0</ele><time>2026-04-04T09:14:07.101Z</time></trkpt><trkpt lat="44.9285483" lon="8.954145"><ele>128.0</ele><time>2026-04-04T09:14:08.103Z</time></trkpt><trkpt lat="44.928345" lon="8.95425"><ele>128.33333333333331</ele><time>2026-04-04T09:14:09.1Z</time></trkpt><trkpt lat="44.9281483" lon="8.9543567"><ele>128.66666666666666</ele><time>2026-04-04T09:14:10.099Z</time></trkpt><trkpt lat="44.92796" lon="8.9544567"><ele>129.0</ele><time>2026-04-04T09:14:11.1Z</time></trkpt><trkpt lat="44.9277817" lon="8.95455"><ele>129.0</ele><time>2026-04-04T09:14:12.1Z</time></trkpt><trkpt lat="44.9276117" lon="8.9546383"><ele>129.0</ele><time>2026-04-04T09:14:13.099Z</time></trkpt><trkpt lat="44.9274533" lon="8.9547183"><ele>129.0</ele><time>2026-04-04T09:14:14.098Z</time></trkpt><trkpt lat="44.9273133" lon="8.9547983"><ele>129.0</ele><time>2026-04-04T09:14:15.102Z</time></trkpt><trkpt lat="44.927195" lon="8.9548933"><ele>129.0</ele><time>2026-04-04T09:14:16.099Z</time></trkpt><trkpt lat="44.9270967" lon="8.9550167"><ele>129.0</ele><time>2026-04-04T09:14:17.103Z</time></trkpt><trkpt lat="44.92702" lon="8.9551683"><ele>129.0</ele><time>2026-04-04T09:14:18.098Z</time></trkpt><trkpt lat="44.9269567" lon="8.9553483"><ele>129.0</ele><time>2026-04-04T09:14:19.105Z</time></trkpt><trkpt lat="44.9269117" lon="8.9555517"><ele>129.0</ele><time>2026-04-04T09:14:20.099Z</time></trkpt><trkpt lat="44.92688" lon="8.9557733"><ele>129.0</ele><time>2026-04-04T09:14:21.102Z</time></trkpt><trkpt lat="44.92686" lon="8.95601"><ele>130.0</ele><time>2026-04-04T09:14:22.103Z</time></trkpt><trkpt lat="44.9268433" lon="8.9562533"><ele>131.0</ele><time>2026-04-04T09:14:23.1Z</time></trkpt><trkpt lat="44.926825" lon="8.9565017"><ele>132.0</ele><time>2026-04-04T09:14:24.103Z</time></trkpt><trkpt lat="44.926805" lon="8.956765"><ele>132.33333333333334</ele><time>2026-04-04T09:14:25.102Z</time></trkpt><trkpt lat="44.9267883" lon="8.9570333"><ele>132.66666666666669</ele><time>2026-04-04T09:14:26.104Z</time></trkpt><trkpt lat="44.92677" lon="8.957305"><ele>133.0</ele><time>2026-04-04T09:14:27.103Z</time></trkpt><trkpt lat="44.92675" lon="8.9575717"><ele>132.33333333333334</ele><time>2026-04-04T09:14:28.102Z</time></trkpt><trkpt lat="44.92673" lon="8.9578317"><ele>131.66666666666666</ele><time>2026-04-04T09:14:29.102Z</time></trkpt><trkpt lat="44.9267117" lon="8.9580833"><ele>131.0</ele><time>2026-04-04T09:14:30.102Z</time></trkpt><trkpt lat="44.926695" lon="8.9583267"><ele>131.25</ele><time>2026-04-04T09:14:31.1Z</time></trkpt><trkpt lat="44.92668" lon="8.9585433"><ele>131.5</ele><time>2026-04-04T09:14:32.105Z</time></trkpt><trkpt lat="44.9266683" lon="8.958735"><ele>131.75</ele><time>2026-04-04T09:14:33.104Z</time></trkpt><trkpt lat="44.926655" lon="8.9589017"><ele>132.0</ele><time>2026-04-04T09:14:34.103Z</time></trkpt><trkpt lat="44.9266417" lon="8.9590333"><ele>132.0</ele><time>2026-04-04T09:14:35.104Z</time></trkpt><trkpt lat="44.9266133" lon="8.9591533"><ele>132.0</ele><time>2026-04-04T09:14:36.104Z</time></trkpt><trkpt lat="44.9265683" lon="8.9592417"><ele>132.0</ele><time>2026-04-04T09:14:37.101Z</time></trkpt><trkpt lat="44.9265083" lon="8.95932"><ele>132.0</ele><time>2026-04-04T09:14:38.103Z</time></trkpt><trkpt lat="44.926415" lon="8.9593317"><ele>132.0</ele><time>2026-04-04T09:14:39.101Z</time></trkpt><trkpt lat="44.9263183" lon="8.9593367"><ele>132.0</ele><time>2026-04-04T09:14:40.103Z</time></trkpt><trkpt lat="44.926215" lon="8.9593167"><ele>132.0</ele><time>2026-04-04T09:14:41.098Z</time></trkpt><trkpt lat="44.9261117" lon="8.9592967"><ele>132.0</ele><time>2026-04-04T09:14:42.103Z</time></trkpt><trkpt lat="44.926005" lon="8.9592783"><ele>132.0</ele><time>2026-04-04T09:14:43.103Z</time></trkpt><trkpt lat="44.925895" lon="8.9592567"><ele>132.0</ele><time>2026-04-04T09:14:44.105Z</time></trkpt><trkpt lat="44.9257817" lon="8.9592333"><ele>132.0</ele><time>2026-04-04T09:14:45.104Z</time></trkpt><trkpt lat="44.925665" lon="8.95921"><ele>133.25</ele><time>2026-04-04T09:14:46.102Z</time></trkpt><trkpt lat="44.9255467" lon="8.9591917"><ele>134.5</ele><time>2026-04-04T09:14:47.101Z</time></trkpt><trkpt lat="44.925425" lon="8.95917"><ele>135.75</ele><time>2026-04-04T09:14:48.102Z</time></trkpt><trkpt lat="44.925305" lon="8.959145"><ele>137.0</ele><time>2026-04-04T09:14:49.102Z</time></trkpt><trkpt lat="44.92519" lon="8.9591117"><ele>137.0</ele><time>2026-04-04T09:14:50.107Z</time></trkpt><trkpt lat="44.9250767" lon="8.9590683"><ele>137.0</ele><time>2026-04-04T09:14:51.1Z</time></trkpt><trkpt lat="44.924965" lon="8.9590467"><ele>137.0</ele><time>2026-04-04T09:14:52.101Z</time></trkpt><trkpt lat="44.9248567" lon="8.9590233"><ele>137.0</ele><time>2026-04-04T09:14:53.106Z</time></trkpt><trkpt lat="44.9247517" lon="8.95901"><ele>137.0</ele><time>2026-04-04T09:14:54.102Z</time></trkpt><trkpt lat="44.9246733" lon="8.958955"><ele>137.5</ele><time>2026-04-04T09:14:55.102Z</time></trkpt><trkpt lat="44.9246133" lon="8.9588783"><ele>138.0</ele><time>2026-04-04T09:14:56.101Z</time></trkpt><trkpt lat="44.92456" lon="8.95879"><ele>138.5</ele><time>2026-04-04T09:14:57.097Z</time></trkpt><trkpt lat="44.92452" lon="8.9586917"><ele>139.0</ele><time>2026-04-04T09:14:58.099Z</time></trkpt><trkpt lat="44.9244817" lon="8.958595"><ele>139.5</ele><time>2026-04-04T09:14:59.101Z</time></trkpt><trkpt lat="44.9244217" lon="8.9585067"><ele>140.0</ele><time>2026-04-04T09:15:00.099Z</time></trkpt><trkpt lat="44.9243467" lon="8.95843"><ele>140.2</ele><time>2026-04-04T09:15:01.099Z</time></trkpt><trkpt lat="44.9242567" lon="8.9583633"><ele>140.4</ele><time>2026-04-04T09:15:02.099Z</time></trkpt><trkpt lat="44.924155" lon="8.9583183"><ele>140.6</ele><time>2026-04-04T09:15:03.097Z</time></trkpt><trkpt lat="44.9240467" lon="8.958295"><ele>140.8</ele><time>2026-04-04T09:15:04.1Z</time></trkpt><trkpt lat="44.923935" lon="8.9582933"><ele>141.0</ele><time>2026-04-04T09:15:05.102Z</time></trkpt><trkpt lat="44.923835" lon="8.9583117"><ele>141.0</ele><time>2026-04-04T09:15:06.1Z</time></trkpt><trkpt lat="44.9237433" lon="8.9583583"><ele>141.0</ele><time>2026-04-04T09:15:07.106Z</time></trkpt><trkpt lat="44.9236567" lon="8.9584383"><ele>141.0</ele><time>2026-04-04T09:15:08.105Z</time></trkpt><trkpt lat="44.9235833" lon="8.9585517"><ele>141.0</ele><time>2026-04-04T09:15:09.103Z</time></trkpt><trkpt lat="44.9235183" lon="8.95865"><ele>141.0</ele><time>2026-04-04T09:15:10.106Z</time></trkpt><trkpt lat="44.92345" lon="8.9587383"><ele>141.2</ele><time>2026-04-04T09:15:11.105Z</time></trkpt><trkpt lat="44.9233683" lon="8.9587817"><ele>141.39999999999998</ele><time>2026-04-04T09:15:12.104Z</time></trkpt><trkpt lat="44.9232817" lon="8.9587967"><ele>141.6</ele><time>2026-04-04T09:15:13.102Z</time></trkpt><trkpt lat="44.9231833" lon="8.9588033"><ele>141.79999999999998</ele><time>2026-04-04T09:15:14.102Z</time></trkpt><trkpt lat="44.923075" lon="8.95881"><ele>142.0</ele><time>2026-04-04T09:15:15.103Z</time></trkpt><trkpt lat="44.9229467" lon="8.95878"><ele>142.0</ele><time>2026-04-04T09:15:16.103Z</time></trkpt><trkpt lat="44.9228117" lon="8.9587583"><ele>142.0</ele><time>2026-04-04T09:15:17.102Z</time></trkpt><trkpt lat="44.922665" lon="8.9587333"><ele>142.0</ele><time>2026-04-04T09:15:18.11Z</time></trkpt><trkpt lat="44.9225117" lon="8.9587"><ele>142.0</ele><time>2026-04-04T09:15:19.106Z</time></trkpt><trkpt lat="44.9223583" lon="8.958665"><ele>140.33333333333334</ele><time>2026-04-04T09:15:20.107Z</time></trkpt><trkpt lat="44.92221" lon="8.9586333"><ele>138.66666666666666</ele><time>2026-04-04T09:15:21.099Z</time></trkpt><trkpt lat="44.92206" lon="8.958605"><ele>137.0</ele><time>2026-04-04T09:15:22.101Z</time></trkpt><trkpt lat="44.9219067" lon="8.95858"><ele>137.0</ele><time>2026-04-04T09:15:23.1Z</time></trkpt><trkpt lat="44.9217533" lon="8.9585533"><ele>137.0</ele><time>2026-04-04T09:15:24.099Z</time></trkpt><trkpt lat="44.9216033" lon="8.9585367"><ele>137.0</ele><time>2026-04-04T09:15:25.1Z</time></trkpt><trkpt lat="44.92145" lon="8.9585417"><ele>136.66666666666666</ele><time>2026-04-04T09:15:26.096Z</time></trkpt><trkpt lat="44.921295" lon="8.9585683"><ele>136.33333333333334</ele><time>2026-04-04T09:15:27.1Z</time></trkpt><trkpt lat="44.921135" lon="8.958605"><ele>136.0</ele><time>2026-04-04T09:15:28.106Z</time></trkpt><trkpt lat="44.9209717" lon="8.9586467"><ele>136.33333333333334</ele><time>2026-04-04T09:15:29.102Z</time></trkpt><trkpt lat="44.9208067" lon="8.9586967"><ele>136.66666666666666</ele><time>2026-04-04T09:15:30.1Z</time></trkpt><trkpt lat="44.9206367" lon="8.9587467"><ele>137.0</ele><time>2026-04-04T09:15:31.101Z</time></trkpt><trkpt lat="44.9204633" lon="8.9587967"><ele>137.0</ele><time>2026-04-04T09:15:32.105Z</time></trkpt><trkpt lat="44.9202917" lon="8.9588517"><ele>137.0</ele><time>2026-04-04T09:15:33.099Z</time></trkpt><trkpt lat="44.92012" lon="8.95891"><ele>137.0</ele><time>2026-04-04T09:15:34.106Z</time></trkpt><trkpt lat="44.9199533" lon="8.9589683"><ele>137.0</ele><time>2026-04-04T09:15:35.1Z</time></trkpt><trkpt lat="44.9197867" lon="8.9590333"><ele>137.0</ele><time>2026-04-04T09:15:36.105Z</time></trkpt><trkpt lat="44.9196217" lon="8.9591017"><ele>137.0</ele><time>2026-04-04T09:15:37.103Z</time></trkpt><trkpt lat="44.91946" lon="8.959185"><ele>137.0</ele><time>2026-04-04T09:15:38.101Z</time></trkpt><trkpt lat="44.9193" lon="8.959275"><ele>137.0</ele><time>2026-04-04T09:15:39.103Z</time></trkpt><trkpt lat="44.9191433" lon="8.959375"><ele>137.0</ele><time>2026-04-04T09:15:40.106Z</time></trkpt><trkpt lat="44.91899" lon="8.95948"><ele>137.5</ele><time>2026-04-04T09:15:41.099Z</time></trkpt><trkpt lat="44.9188433" lon="8.9595767"><ele>138.0</ele><time>2026-04-04T09:15:42.102Z</time></trkpt><trkpt lat="44.91871" lon="8.9596567"><ele>138.5</ele><time>2026-04-04T09:15:43.105Z</time></trkpt><trkpt lat="44.9186017" lon="8.9597383"><ele>139.0</ele><time>2026-04-04T09:15:44.099Z</time></trkpt><trkpt lat="44.9185117" lon="8.9598267"><ele>139.0</ele><time>2026-04-04T09:15:45.099Z</time></trkpt><trkpt lat="44.9184333" lon="8.9599133"><ele>139.0</ele><time>2026-04-04T09:15:46.101Z</time></trkpt><trkpt lat="44.9183567" lon="8.960005"><ele>139.0</ele><time>2026-04-04T09:15:47.097Z</time></trkpt><trkpt lat="44.918275" lon="8.9601"><ele>139.0</ele><time>2026-04-04T09:15:48.099Z</time></trkpt><trkpt lat="44.9181767" lon="8.9601917"><ele>139.0</ele><time>2026-04-04T09:15:49.099Z</time></trkpt><trkpt lat="44.9180617" lon="8.9602467"><ele>139.25</ele><time>2026-04-04T09:15:50.095Z</time></trkpt><trkpt lat="44.917935" lon="8.9602767"><ele>139.5</ele><time>2026-04-04T09:15:51.095Z</time></trkpt><trkpt lat="44.9177983" lon="8.9602883"><ele>139.75</ele><time>2026-04-04T09:15:52.1Z</time></trkpt><trkpt lat="44.9176517" lon="8.9603133"><ele>140.0</ele><time>2026-04-04T09:15:53.105Z</time></trkpt><trkpt lat="44.9175017" lon="8.960345"><ele>140.33333333333331</ele><time>2026-04-04T09:15:54.102Z</time></trkpt><trkpt lat="44.9173517" lon="8.9603933"><ele>140.66666666666666</ele><time>2026-04-04T09:15:55.1Z</time></trkpt><trkpt lat="44.9171983" lon="8.9604583"><ele>141.0</ele><time>2026-04-04T09:15:56.107Z</time></trkpt><trkpt lat="44.91705" lon="8.96054"><ele>141.0</ele><time>2026-04-04T09:15:57.102Z</time></trkpt><trkpt lat="44.9169017" lon="8.960635"><ele>141.0</ele><time>2026-04-04T09:15:58.104Z</time></trkpt><trkpt lat="44.9167517" lon="8.96073"><ele>141.0</ele><time>2026-04-04T09:15:59.101Z</time></trkpt><trkpt lat="44.9166033" lon="8.9608167"><ele>142.33333333333334</ele><time>2026-04-04T09:16:00.103Z</time></trkpt><trkpt lat="44.9164617" lon="8.960895"><ele>143.66666666666669</ele><time>2026-04-04T09:16:01.105Z</time></trkpt><trkpt lat="44.9163233" lon="8.9609683"><ele>145.0</ele><time>2026-04-04T09:16:02.102Z</time></trkpt><trkpt lat="44.9161867" lon="8.9610567"><ele>145.0</ele><time>2026-04-04T09:16:03.103Z</time></trkpt><trkpt lat="44.9160567" lon="8.9611733"><ele>145.0</ele><time>2026-04-04T09:16:04.102Z</time></trkpt><trkpt lat="44.9159267" lon="8.9613167"><ele>145.0</ele><time>2026-04-04T09:16:05.103Z</time></trkpt><trkpt lat="44.9158033" lon="8.9614883"><ele>145.0</ele><time>2026-04-04T09:16:06.105Z</time></trkpt><trkpt lat="44.9156817" lon="8.96167"><ele>145.0</ele><time>2026-04-04T09:16:07.103Z</time></trkpt><trkpt lat="44.9155633" lon="8.961855"><ele>145.0</ele><time>2026-04-04T09:16:08.102Z</time></trkpt><trkpt lat="44.9154467" lon="8.9620417"><ele>145.0</ele><time>2026-04-04T09:16:09.106Z</time></trkpt><trkpt lat="44.9153317" lon="8.9622317"><ele>145.0</ele><time>2026-04-04T09:16:10.101Z</time></trkpt><trkpt lat="44.9152217" lon="8.962425"><ele>145.0</ele><time>2026-04-04T09:16:11.109Z</time></trkpt><trkpt lat="44.9151167" lon="8.96262"><ele>145.33333333333334</ele><time>2026-04-04T09:16:12.101Z</time></trkpt><trkpt lat="44.91502" lon="8.9628217"><ele>145.66666666666666</ele><time>2026-04-04T09:16:13.107Z</time></trkpt><trkpt lat="44.91494" lon="8.96303"><ele>146.0</ele><time>2026-04-04T09:16:14.099Z</time></trkpt><trkpt lat="44.9148533" lon="8.96323"><ele>146.0</ele><time>2026-04-04T09:16:15.103Z</time></trkpt><trkpt lat="44.9147533" lon="8.9634183"><ele>146.0</ele><time>2026-04-04T09:16:16.103Z</time></trkpt><trkpt lat="44.91464" lon="8.9635917"><ele>146.0</ele><time>2026-04-04T09:16:17.102Z</time></trkpt><trkpt lat="44.9145183" lon="8.9637567"><ele>146.0</ele><time>2026-04-04T09:16:18.101Z</time></trkpt><trkpt lat="44.914385" lon="8.96391"><ele>146.0</ele><time>2026-04-04T09:16:19.103Z</time></trkpt><trkpt lat="44.9142517" lon="8.9640617"><ele>146.0</ele><time>2026-04-04T09:16:20.101Z</time></trkpt><trkpt lat="44.914115" lon="8.9642133"><ele>146.0</ele><time>2026-04-04T09:16:21.099Z</time></trkpt><trkpt lat="44.9139783" lon="8.9643617"><ele>146.0</ele><time>2026-04-04T09:16:22.101Z</time></trkpt><trkpt lat="44.913845" lon="8.9644983"><ele>146.0</ele><time>2026-04-04T09:16:23.098Z</time></trkpt><trkpt lat="44.9137083" lon="8.9646183"><ele>146.0</ele><time>2026-04-04T09:16:24.102Z</time></trkpt><trkpt lat="44.9135617" lon="8.9647217"><ele>146.0</ele><time>2026-04-04T09:16:25.098Z</time></trkpt><trkpt lat="44.9134083" lon="8.9648033"><ele>146.0</ele><time>2026-04-04T09:16:26.105Z</time></trkpt><trkpt lat="44.91325" lon="8.9648867"><ele>146.33333333333331</ele><time>2026-04-04T09:16:27.099Z</time></trkpt><trkpt lat="44.9130833" lon="8.964975"><ele>146.66666666666666</ele><time>2026-04-04T09:16:28.105Z</time></trkpt><trkpt lat="44.9129117" lon="8.965065"><ele>147.0</ele><time>2026-04-04T09:16:29.101Z</time></trkpt><trkpt lat="44.9127383" lon="8.9651533"><ele>147.66666666666666</ele><time>2026-04-04T09:16:30.103Z</time></trkpt><trkpt lat="44.9125667" lon="8.9652417"><ele>148.33333333333331</ele><time>2026-04-04T09:16:31.102Z</time></trkpt><trkpt lat="44.9124017" lon="8.9653267"><ele>149.0</ele><time>2026-04-04T09:16:32.103Z</time></trkpt><trkpt lat="44.9122483" lon="8.96541"><ele>149.0</ele><time>2026-04-04T09:16:33.102Z</time></trkpt><trkpt lat="44.9120983" lon="8.9654833"><ele>149.0</ele><time>2026-04-04T09:16:34.1Z</time></trkpt><trkpt lat="44.9119517" lon="8.9655467"><ele>149.0</ele><time>2026-04-04T09:16:35.103Z</time></trkpt><trkpt lat="44.9118183" lon="8.9656"><ele>149.2</ele><time>2026-04-04T09:16:36.105Z</time></trkpt><trkpt lat="44.9116983" lon="8.96565"><ele>149.4</ele><time>2026-04-04T09:16:37.1Z</time></trkpt><trkpt lat="44.91161" lon="8.9657183"><ele>149.6</ele><time>2026-04-04T09:16:38.102Z</time></trkpt><trkpt lat="44.91155" lon="8.9658283"><ele>149.8</ele><time>2026-04-04T09:16:39.104Z</time></trkpt><trkpt lat="44.9115083" lon="8.965975"><ele>150.0</ele><time>2026-04-04T09:16:40.106Z</time></trkpt><trkpt lat="44.9114767" lon="8.96616"><ele>150.0</ele><time>2026-04-04T09:16:41.101Z</time></trkpt><trkpt lat="44.9114317" lon="8.9663417"><ele>150.0</ele><time>2026-04-04T09:16:42.102Z</time></trkpt><trkpt lat="44.911375" lon="8.9665083"><ele>150.0</ele><time>2026-04-04T09:16:43.102Z</time></trkpt><trkpt lat="44.9113067" lon="8.9666633"><ele>150.0</ele><time>2026-04-04T09:16:44.102Z</time></trkpt><trkpt lat="44.9112217" lon="8.9667967"><ele>150.25</ele><time>2026-04-04T09:16:45.103Z</time></trkpt><trkpt lat="44.9111217" lon="8.966915"><ele>150.5</ele><time>2026-04-04T09:16:46.1Z</time></trkpt><trkpt lat="44.91101" lon="8.9670117"><ele>150.75</ele><time>2026-04-04T09:16:47.105Z</time></trkpt><trkpt lat="44.910885" lon="8.96709"><ele>151.0</ele><time>2026-04-04T09:16:48.103Z</time></trkpt><trkpt lat="44.9107517" lon="8.96716"><ele>151.2</ele><time>2026-04-04T09:16:49.098Z</time></trkpt><trkpt lat="44.9106233" lon="8.967225"><ele>151.39999999999998</ele><time>2026-04-04T09:16:50.103Z</time></trkpt><trkpt lat="44.9105067" lon="8.96728"><ele>151.6</ele><time>2026-04-04T09:16:51.096Z</time></trkpt><trkpt lat="44.91041" lon="8.9673167"><ele>151.79999999999998</ele><time>2026-04-04T09:16:52.104Z</time></trkpt><trkpt lat="44.91033" lon="8.967355"><ele>152.0</ele><time>2026-04-04T09:16:53.1Z</time></trkpt><trkpt lat="44.9102583" lon="8.9673883"><ele>152.0</ele><time>2026-04-04T09:16:54.099Z</time></trkpt><trkpt lat="44.910195" lon="8.96742"><ele>152.0</ele><time>2026-04-04T09:16:55.103Z</time></trkpt><trkpt lat="44.9100817" lon="8.9674667"><ele>152.0</ele><time>2026-04-04T09:16:57.102Z</time></trkpt><trkpt lat="44.9099767" lon="8.9675183"><ele>152.0</ele><time>2026-04-04T09:16:59.1Z</time></trkpt><trkpt lat="44.9098767" lon="8.967575"><ele>152.0</ele><time>2026-04-04T09:17:01.102Z</time></trkpt><trkpt lat="44.9098117" lon="8.9676083"><ele>152.2</ele><time>2026-04-04T09:17:03.101Z</time></trkpt><trkpt lat="44.9097317" lon="8.9676583"><ele>152.39999999999998</ele><time>2026-04-04T09:17:25.105Z</time></trkpt><trkpt lat="44.9096167" lon="8.96774"><ele>152.60000000000002</ele><time>2026-04-04T09:17:27.102Z</time></trkpt><trkpt lat="44.9095433" lon="8.9678"><ele>152.8</ele><time>2026-04-04T09:17:28.101Z</time></trkpt><trkpt lat="44.9094617" lon="8.9678583"><ele>153.0</ele><time>2026-04-04T09:17:29.109Z</time></trkpt><trkpt lat="44.9093783" lon="8.967915"><ele>153.0</ele><time>2026-04-04T09:17:30.101Z</time></trkpt><trkpt lat="44.909285" lon="8.96797"><ele>153.0</ele><time>2026-04-04T09:17:31.1Z</time></trkpt><trkpt lat="44.9091817" lon="8.968025"><ele>153.0</ele><time>2026-04-04T09:17:32.112Z</time></trkpt><trkpt lat="44.9090767" lon="8.968075"><ele>153.0</ele><time>2026-04-04T09:17:33.096Z</time></trkpt><trkpt lat="44.9089683" lon="8.9681233"><ele>153.0</ele><time>2026-04-04T09:17:34.101Z</time></trkpt><trkpt lat="44.9088517" lon="8.96817"><ele>153.0</ele><time>2026-04-04T09:17:35.103Z</time></trkpt><trkpt lat="44.9087317" lon="8.968225"><ele>153.0</ele><time>2026-04-04T09:17:36.097Z</time></trkpt><trkpt lat="44.90861" lon="8.9682917"><ele>153.0</ele><time>2026-04-04T09:17:37.1Z</time></trkpt><trkpt lat="44.9084833" lon="8.968375"><ele>153.0</ele><time>2026-04-04T09:17:38.098Z</time></trkpt><trkpt lat="44.9083617" lon="8.9684683"><ele>153.75</ele><time>2026-04-04T09:17:39.098Z</time></trkpt><trkpt lat="44.908255" lon="8.968565"><ele>154.5</ele><time>2026-04-04T09:17:40.101Z</time></trkpt><trkpt lat="44.90814" lon="8.968665"><ele>155.25</ele><time>2026-04-04T09:17:41.1Z</time></trkpt><trkpt lat="44.9080283" lon="8.96876"><ele>156.0</ele><time>2026-04-04T09:17:42.098Z</time></trkpt><trkpt lat="44.9079117" lon="8.9688417"><ele>156.0</ele><time>2026-04-04T09:17:43.102Z</time></trkpt><trkpt lat="44.90779" lon="8.968915"><ele>156.0</ele><time>2026-04-04T09:17:44.104Z</time></trkpt><trkpt lat="44.9076667" lon="8.9689867"><ele>156.0</ele><time>2026-04-04T09:17:45.099Z</time></trkpt><trkpt lat="44.9075367" lon="8.9690667"><ele>156.0</ele><time>2026-04-04T09:17:46.099Z</time></trkpt><trkpt lat="44.907405" lon="8.969155"><ele>155.33333333333334</ele><time>2026-04-04T09:17:47.102Z</time></trkpt><trkpt lat="44.907265" lon="8.96925"><ele>154.66666666666669</ele><time>2026-04-04T09:17:48.101Z</time></trkpt><trkpt lat="44.9071233" lon="8.9693583"><ele>154.0</ele><time>2026-04-04T09:17:49.105Z</time></trkpt><trkpt lat="44.9069833" lon="8.9694617"><ele>154.0</ele><time>2026-04-04T09:17:50.103Z</time></trkpt><trkpt lat="44.906835" lon="8.9695783"><ele>154.0</ele><time>2026-04-04T09:17:51.102Z</time></trkpt><trkpt lat="44.906695" lon="8.969695"><ele>154.0</ele><time>2026-04-04T09:17:52.106Z</time></trkpt><trkpt lat="44.9065567" lon="8.9698133"><ele>154.66666666666669</ele><time>2026-04-04T09:17:53.107Z</time></trkpt><trkpt lat="44.9064167" lon="8.9699267"><ele>155.33333333333334</ele><time>2026-04-04T09:17:54.103Z</time></trkpt><trkpt lat="44.9062767" lon="8.97004"><ele>156.0</ele><time>2026-04-04T09:17:55.107Z</time></trkpt><trkpt lat="44.9061333" lon="8.9701533"><ele>156.0</ele><time>2026-04-04T09:17:56.107Z</time></trkpt><trkpt lat="44.9059867" lon="8.970265"><ele>156.0</ele><time>2026-04-04T09:17:57.102Z</time></trkpt><trkpt lat="44.90584" lon="8.9703817"><ele>156.0</ele><time>2026-04-04T09:17:58.101Z</time></trkpt><trkpt lat="44.9056933" lon="8.9704983"><ele>156.66666666666666</ele><time>2026-04-04T09:17:59.108Z</time></trkpt><trkpt lat="44.9055433" lon="8.9706217"><ele>157.33333333333331</ele><time>2026-04-04T09:18:00.1Z</time></trkpt><trkpt lat="44.905395" lon="8.9707383"><ele>158.0</ele><time>2026-04-04T09:18:01.101Z</time></trkpt><trkpt lat="44.9052517" lon="8.9708583"><ele>158.0</ele><time>2026-04-04T09:18:02.106Z</time></trkpt><trkpt lat="44.9051183" lon="8.970975"><ele>158.0</ele><time>2026-04-04T09:18:03.1Z</time></trkpt><trkpt lat="44.9049933" lon="8.971085"><ele>158.0</ele><time>2026-04-04T09:18:04.106Z</time></trkpt><trkpt lat="44.904875" lon="8.9711967"><ele>158.0</ele><time>2026-04-04T09:18:05.105Z</time></trkpt><trkpt lat="44.9047617" lon="8.9713033"><ele>158.0</ele><time>2026-04-04T09:18:06.103Z</time></trkpt><trkpt lat="44.9046417" lon="8.9714133"><ele>158.0</ele><time>2026-04-04T09:18:07.1Z</time></trkpt><trkpt lat="44.9045167" lon="8.9715317"><ele>158.0</ele><time>2026-04-04T09:18:08.101Z</time></trkpt><trkpt lat="44.904385" lon="8.97164"><ele>158.0</ele><time>2026-04-04T09:18:09.102Z</time></trkpt><trkpt lat="44.904245" lon="8.9717417"><ele>158.66666666666666</ele><time>2026-04-04T09:18:10.101Z</time></trkpt><trkpt lat="44.904105" lon="8.97185"><ele>159.33333333333334</ele><time>2026-04-04T09:18:11.101Z</time></trkpt><trkpt lat="44.9039567" lon="8.9719583"><ele>160.0</ele><time>2026-04-04T09:18:12.102Z</time></trkpt><trkpt lat="44.9038117" lon="8.9720567"><ele>160.0</ele><time>2026-04-04T09:18:13.102Z</time></trkpt><trkpt lat="44.903665" lon="8.9721633"><ele>160.0</ele><time>2026-04-04T09:18:14.101Z</time></trkpt><trkpt lat="44.9035167" lon="8.9722667"><ele>160.0</ele><time>2026-04-04T09:18:15.101Z</time></trkpt><trkpt lat="44.90337" lon="8.9723767"><ele>160.33333333333334</ele><time>2026-04-04T09:18:16.107Z</time></trkpt><trkpt lat="44.903235" lon="8.972495"><ele>160.66666666666666</ele><time>2026-04-04T09:18:17.103Z</time></trkpt><trkpt lat="44.9031017" lon="8.972605"><ele>161.0</ele><time>2026-04-04T09:18:18.099Z</time></trkpt><trkpt lat="44.90296" lon="8.9727133"><ele>161.0</ele><time>2026-04-04T09:18:19.104Z</time></trkpt><trkpt lat="44.902815" lon="8.972805"><ele>161.0</ele><time>2026-04-04T09:18:20.104Z</time></trkpt><trkpt lat="44.90267" lon="8.97289"><ele>161.0</ele><time>2026-04-04T09:18:21.106Z</time></trkpt><trkpt lat="44.902525" lon="8.9729583"><ele>161.33333333333331</ele><time>2026-04-04T09:18:22.101Z</time></trkpt><trkpt lat="44.9023783" lon="8.9730183"><ele>161.66666666666666</ele><time>2026-04-04T09:18:23.102Z</time></trkpt><trkpt lat="44.9022283" lon="8.9730733"><ele>162.0</ele><time>2026-04-04T09:18:24.101Z</time></trkpt><trkpt lat="44.902075" lon="8.9731217"><ele>162.0</ele><time>2026-04-04T09:18:25.1Z</time></trkpt><trkpt lat="44.9019217" lon="8.9731617"><ele>162.0</ele><time>2026-04-04T09:18:26.101Z</time></trkpt><trkpt lat="44.9017733" lon="8.9731933"><ele>162.0</ele><time>2026-04-04T09:18:27.099Z</time></trkpt><trkpt lat="44.9016317" lon="8.9732233"><ele>162.0</ele><time>2026-04-04T09:18:28.099Z</time></trkpt><trkpt lat="44.901495" lon="8.9732583"><ele>162.25</ele><time>2026-04-04T09:18:29.102Z</time></trkpt><trkpt lat="44.9013683" lon="8.9732933"><ele>162.5</ele><time>2026-04-04T09:18:30.1Z</time></trkpt><trkpt lat="44.9012467" lon="8.9733383"><ele>162.75</ele><time>2026-04-04T09:18:31.106Z</time></trkpt><trkpt lat="44.9011333" lon="8.97341"><ele>163.0</ele><time>2026-04-04T09:18:32.103Z</time></trkpt><trkpt lat="44.9010283" lon="8.9735133"><ele>163.0</ele><time>2026-04-04T09:18:33.099Z</time></trkpt><trkpt lat="44.9009283" lon="8.9736317"><ele>163.0</ele><time>2026-04-04T09:18:34.102Z</time></trkpt><trkpt lat="44.90083" lon="8.9737567"><ele>163.0</ele><time>2026-04-04T09:18:35.101Z</time></trkpt><trkpt lat="44.900735" lon="8.9738833"><ele>163.0</ele><time>2026-04-04T09:18:36.1Z</time></trkpt><trkpt lat="44.9006433" lon="8.9740167"><ele>163.5</ele><time>2026-04-04T09:18:37.101Z</time></trkpt><trkpt lat="44.9005567" lon="8.9741617"><ele>164.0</ele><time>2026-04-04T09:18:38.101Z</time></trkpt><trkpt lat="44.9004783" lon="8.97432"><ele>164.5</ele><time>2026-04-04T09:18:39.098Z</time></trkpt><trkpt lat="44.9004017" lon="8.9744767"><ele>165.0</ele><time>2026-04-04T09:18:40.101Z</time></trkpt><trkpt lat="44.9003333" lon="8.974625"><ele>165.0</ele><time>2026-04-04T09:18:41.105Z</time></trkpt><trkpt lat="44.900265" lon="8.9747667"><ele>165.0</ele><time>2026-04-04T09:18:42.097Z</time></trkpt><trkpt lat="44.9001833" lon="8.9749"><ele>165.0</ele><time>2026-04-04T09:18:43.104Z</time></trkpt><trkpt lat="44.9000833" lon="8.9750333"><ele>165.0</ele><time>2026-04-04T09:18:44.104Z</time></trkpt><trkpt lat="44.899975" lon="8.97515"><ele>164.75</ele><time>2026-04-04T09:18:45.105Z</time></trkpt><trkpt lat="44.899855" lon="8.9752417"><ele>164.5</ele><time>2026-04-04T09:18:46.102Z</time></trkpt><trkpt lat="44.8997233" lon="8.9753217"><ele>164.25</ele><time>2026-04-04T09:18:47.101Z</time></trkpt><trkpt lat="44.8995883" lon="8.9753917"><ele>164.0</ele><time>2026-04-04T09:18:48.108Z</time></trkpt><trkpt lat="44.89945" lon="8.975465"><ele>164.0</ele><time>2026-04-04T09:18:49.102Z</time></trkpt><trkpt lat="44.89931" lon="8.9755583"><ele>164.0</ele><time>2026-04-04T09:18:50.099Z</time></trkpt><trkpt lat="44.899175" lon="8.9756717"><ele>164.0</ele><time>2026-04-04T09:18:51.1Z</time></trkpt><trkpt lat="44.8990467" lon="8.9757967"><ele>164.75</ele><time>2026-04-04T09:18:52.099Z</time></trkpt><trkpt lat="44.8989283" lon="8.9759267"><ele>165.5</ele><time>2026-04-04T09:18:53.106Z</time></trkpt><trkpt lat="44.8988183" lon="8.976055"><ele>166.25</ele><time>2026-04-04T09:18:54.101Z</time></trkpt><trkpt lat="44.8987117" lon="8.976195"><ele>167.0</ele><time>2026-04-04T09:18:55.103Z</time></trkpt><trkpt lat="44.8986167" lon="8.9763483"><ele>167.0</ele><time>2026-04-04T09:18:56.102Z</time></trkpt><trkpt lat="44.898525" lon="8.9765083"><ele>167.0</ele><time>2026-04-04T09:18:57.105Z</time></trkpt><trkpt lat="44.89843" lon="8.9766683"><ele>167.0</ele><time>2026-04-04T09:18:58.1Z</time></trkpt><trkpt lat="44.8983333" lon="8.976825"><ele>167.0</ele><time>2026-04-04T09:18:59.1Z</time></trkpt><trkpt lat="44.8982383" lon="8.9769783"><ele>167.25</ele><time>2026-04-04T09:19:00.099Z</time></trkpt><trkpt lat="44.89814" lon="8.977125"><ele>167.5</ele><time>2026-04-04T09:19:01.104Z</time></trkpt><trkpt lat="44.8980333" lon="8.977255"><ele>167.75</ele><time>2026-04-04T09:19:02.105Z</time></trkpt><trkpt lat="44.8979217" lon="8.9773633"><ele>168.0</ele><time>2026-04-04T09:19:03.098Z</time></trkpt><trkpt lat="44.8978083" lon="8.977455"><ele>168.0</ele><time>2026-04-04T09:19:04.096Z</time></trkpt><trkpt lat="44.8976867" lon="8.9775267"><ele>168.0</ele><time>2026-04-04T09:19:05.101Z</time></trkpt><trkpt lat="44.8975583" lon="8.977565"><ele>168.0</ele><time>2026-04-04T09:19:06.099Z</time></trkpt><trkpt lat="44.8974283" lon="8.9775783"><ele>168.0</ele><time>2026-04-04T09:19:07.099Z</time></trkpt><trkpt lat="44.8972967" lon="8.9775767"><ele>168.0</ele><time>2026-04-04T09:19:08.102Z</time></trkpt><trkpt lat="44.8971617" lon="8.9775633"><ele>168.0</ele><time>2026-04-04T09:19:09.099Z</time></trkpt><trkpt lat="44.89702" lon="8.977545"><ele>168.0</ele><time>2026-04-04T09:19:10.101Z</time></trkpt><trkpt lat="44.8968767" lon="8.977515"><ele>168.0</ele><time>2026-04-04T09:19:11.101Z</time></trkpt><trkpt lat="44.8967333" lon="8.9774817"><ele>168.0</ele><time>2026-04-04T09:19:12.1Z</time></trkpt><trkpt lat="44.896585" lon="8.9774483"><ele>168.0</ele><time>2026-04-04T09:19:13.1Z</time></trkpt><trkpt lat="44.8964233" lon="8.9774167"><ele>168.0</ele><time>2026-04-04T09:19:14.098Z</time></trkpt><trkpt lat="44.89627" lon="8.977365"><ele>168.0</ele><time>2026-04-04T09:19:15.101Z</time></trkpt><trkpt lat="44.8961117" lon="8.9773133"><ele>168.0</ele><time>2026-04-04T09:19:16.105Z</time></trkpt><trkpt lat="44.8959533" lon="8.9772767"><ele>168.0</ele><time>2026-04-04T09:19:17.102Z</time></trkpt><trkpt lat="44.8957917" lon="8.97725"><ele>168.75</ele><time>2026-04-04T09:19:18.1Z</time></trkpt><trkpt lat="44.8956467" lon="8.9772217"><ele>169.5</ele><time>2026-04-04T09:19:19.102Z</time></trkpt><trkpt lat="44.8955233" lon="8.9771983"><ele>170.25</ele><time>2026-04-04T09:19:20.106Z</time></trkpt><trkpt lat="44.895405" lon="8.9771783"><ele>171.0</ele><time>2026-04-04T09:19:21.1Z</time></trkpt><trkpt lat="44.89529" lon="8.9771583"><ele>171.0</ele><time>2026-04-04T09:19:22.1Z</time></trkpt><trkpt lat="44.8951683" lon="8.9771333"><ele>171.0</ele><time>2026-04-04T09:19:23.1Z</time></trkpt><trkpt lat="44.8950533" lon="8.9771017"><ele>171.0</ele><time>2026-04-04T09:19:24.103Z</time></trkpt><trkpt lat="44.8949383" lon="8.977075"><ele>171.0</ele><time>2026-04-04T09:19:25.102Z</time></trkpt><trkpt lat="44.8948467" lon="8.9770567"><ele>171.0</ele><time>2026-04-04T09:19:26.101Z</time></trkpt><trkpt lat="44.894765" lon="8.9770617"><ele>171.16666666666666</ele><time>2026-04-04T09:19:27.108Z</time></trkpt><trkpt lat="44.8946933" lon="8.9770917"><ele>171.33333333333334</ele><time>2026-04-04T09:19:28.099Z</time></trkpt><trkpt lat="44.894625" lon="8.97716"><ele>171.5</ele><time>2026-04-04T09:19:29.101Z</time></trkpt><trkpt lat="44.8945717" lon="8.9772517"><ele>171.66666666666669</ele><time>2026-04-04T09:19:30.099Z</time></trkpt><trkpt lat="44.8945183" lon="8.9773567"><ele>171.83333333333334</ele><time>2026-04-04T09:19:31.1Z</time></trkpt><trkpt lat="44.89446" lon="8.9774717"><ele>172.0</ele><time>2026-04-04T09:19:32.1Z</time></trkpt><trkpt lat="44.89439" lon="8.9775883"><ele>172.0</ele><time>2026-04-04T09:19:33.099Z</time></trkpt><trkpt lat="44.8943183" lon="8.9777233"><ele>172.0</ele><time>2026-04-04T09:19:34.103Z</time></trkpt><trkpt lat="44.89425" lon="8.9778717"><ele>172.0</ele><time>2026-04-04T09:19:35.1Z</time></trkpt><trkpt lat="44.89418" lon="8.9780083"><ele>172.0</ele><time>2026-04-04T09:19:36.104Z</time></trkpt><trkpt lat="44.89411" lon="8.97814"><ele>172.25</ele><time>2026-04-04T09:19:37.103Z</time></trkpt><trkpt lat="44.8940333" lon="8.9782633"><ele>172.5</ele><time>2026-04-04T09:19:38.101Z</time></trkpt><trkpt lat="44.8939417" lon="8.978355"><ele>172.75</ele><time>2026-04-04T09:19:39.101Z</time></trkpt><trkpt lat="44.8938383" lon="8.978425"><ele>173.0</ele><time>2026-04-04T09:19:40.107Z</time></trkpt><trkpt lat="44.89374" lon="8.9784883"><ele>173.0</ele><time>2026-04-04T09:19:41.102Z</time></trkpt><trkpt lat="44.893645" lon="8.9785567"><ele>173.0</ele><time>2026-04-04T09:19:42.102Z</time></trkpt><trkpt lat="44.8935617" lon="8.9786017"><ele>173.0</ele><time>2026-04-04T09:19:43.099Z</time></trkpt><trkpt lat="44.8934867" lon="8.9786467"><ele>173.0</ele><time>2026-04-04T09:19:44.103Z</time></trkpt><trkpt lat="44.8934117" lon="8.9786867"><ele>173.0</ele><time>2026-04-04T09:19:45.1Z</time></trkpt><trkpt lat="44.8933333" lon="8.9787233"><ele>173.0</ele><time>2026-04-04T09:19:46.104Z</time></trkpt><trkpt lat="44.8932483" lon="8.978765"><ele>173.4</ele><time>2026-04-04T09:19:47.097Z</time></trkpt><trkpt lat="44.8931617" lon="8.97882"><ele>173.8</ele><time>2026-04-04T09:19:48.103Z</time></trkpt><trkpt lat="44.893075" lon="8.9788983"><ele>174.2</ele><time>2026-04-04T09:19:49.105Z</time></trkpt><trkpt lat="44.8929883" lon="8.9789883"><ele>174.6</ele><time>2026-04-04T09:19:50.097Z</time></trkpt><trkpt lat="44.8929017" lon="8.9790867"><ele>175.0</ele><time>2026-04-04T09:19:51.097Z</time></trkpt><trkpt lat="44.8928167" lon="8.979195"><ele>175.0</ele><time>2026-04-04T09:19:52.099Z</time></trkpt><trkpt lat="44.8927383" lon="8.979315"><ele>175.0</ele><time>2026-04-04T09:19:53.102Z</time></trkpt><trkpt lat="44.89266" lon="8.97944"><ele>175.0</ele><time>2026-04-04T09:19:54.104Z</time></trkpt><trkpt lat="44.8925867" lon="8.9795733"><ele>175.0</ele><time>2026-04-04T09:19:55.1Z</time></trkpt><trkpt lat="44.8925133" lon="8.9797133"><ele>175.25</ele><time>2026-04-04T09:19:56.099Z</time></trkpt><trkpt lat="44.8924367" lon="8.9798567"><ele>175.5</ele><time>2026-04-04T09:19:57.101Z</time></trkpt><trkpt lat="44.8923583" lon="8.9799967"><ele>175.75</ele><time>2026-04-04T09:19:58.104Z</time></trkpt><trkpt lat="44.89228" lon="8.9801317"><ele>176.0</ele><time>2026-04-04T09:19:59.103Z</time></trkpt><trkpt lat="44.8921983" lon="8.9802617"><ele>176.20000000000002</ele><time>2026-04-04T09:20:00.098Z</time></trkpt><trkpt lat="44.8921167" lon="8.9803833"><ele>176.4</ele><time>2026-04-04T09:20:01.106Z</time></trkpt><trkpt lat="44.89204" lon="8.9804917"><ele>176.6</ele><time>2026-04-04T09:20:02.101Z</time></trkpt><trkpt lat="44.891975" lon="8.9805883"><ele>176.8</ele><time>2026-04-04T09:20:03.1Z</time></trkpt><trkpt lat="44.8919167" lon="8.980675"><ele>177.0</ele><time>2026-04-04T09:20:04.105Z</time></trkpt><trkpt lat="44.8918667" lon="8.9807533"><ele>177.0</ele><time>2026-04-04T09:20:05.1Z</time></trkpt><trkpt lat="44.8918283" lon="8.980825"><ele>177.0</ele><time>2026-04-04T09:20:06.106Z</time></trkpt><trkpt lat="44.8917533" lon="8.9809317"><ele>177.0</ele><time>2026-04-04T09:20:08.1Z</time></trkpt><trkpt lat="44.891685" lon="8.9810333"><ele>177.0</ele><time>2026-04-04T09:20:10.102Z</time></trkpt><trkpt lat="44.8916317" lon="8.9811283"><ele>177.0</ele><time>2026-04-04T09:20:12.1Z</time></trkpt><trkpt lat="44.8915833" lon="8.98124"><ele>177.0</ele><time>2026-04-04T09:20:14.099Z</time></trkpt><trkpt lat="44.8915417" lon="8.9813883"><ele>177.6</ele><time>2026-04-04T09:20:16.1Z</time></trkpt><trkpt lat="44.89151" lon="8.9815483"><ele>178.2</ele><time>2026-04-04T09:20:18.103Z</time></trkpt><trkpt lat="44.8914917" lon="8.9816367"><ele>178.8</ele><time>2026-04-04T09:20:19.106Z</time></trkpt><trkpt lat="44.8914583" lon="8.981805"><ele>179.4</ele><time>2026-04-04T09:20:21.103Z</time></trkpt><trkpt lat="44.8914333" lon="8.981955"><ele>180.0</ele><time>2026-04-04T09:20:23.102Z</time></trkpt><trkpt lat="44.8914" lon="8.9820567"><ele>180.16666666666666</ele><time>2026-04-04T09:20:25.105Z</time></trkpt><trkpt lat="44.89134" lon="8.9821383"><ele>180.33333333333334</ele><time>2026-04-04T09:20:27.102Z</time></trkpt><trkpt lat="44.8912617" lon="8.9821983"><ele>180.5</ele><time>2026-04-04T09:20:29.102Z</time></trkpt><trkpt lat="44.891195" lon="8.9822583"><ele>180.66666666666669</ele><time>2026-04-04T09:20:31.104Z</time></trkpt><trkpt lat="44.8911167" lon="8.9823033"><ele>180.83333333333334</ele><time>2026-04-04T09:20:34.109Z</time></trkpt><trkpt lat="44.8910533" lon="8.9823183"><ele>181.0</ele><time>2026-04-04T09:20:36.104Z</time></trkpt><trkpt lat="44.8910033" lon="8.9822583"><ele>181.0</ele><time>2026-04-04T09:20:38.098Z</time></trkpt><trkpt lat="44.8909133" lon="8.982125"><ele>181.0</ele><time>2026-04-04T09:20:40.1Z</time></trkpt><trkpt lat="44.8908583" lon="8.9820233"><ele>181.0</ele><time>2026-04-04T09:20:41.101Z</time></trkpt><trkpt lat="44.8908183" lon="8.9819017"><ele>181.0</ele><time>2026-04-04T09:20:42.099Z</time></trkpt><trkpt lat="44.89078" lon="8.9817583"><ele>181.0</ele><time>2026-04-04T09:20:43.103Z</time></trkpt><trkpt lat="44.8907383" lon="8.98162"><ele>181.0</ele><time>2026-04-04T09:20:44.102Z</time></trkpt><trkpt lat="44.8906967" lon="8.9814867"><ele>181.0</ele><time>2026-04-04T09:20:45.1Z</time></trkpt><trkpt lat="44.8906517" lon="8.9813517"><ele>181.0</ele><time>2026-04-04T09:20:46.102Z</time></trkpt><trkpt lat="44.8906017" lon="8.9812117"><ele>181.0</ele><time>2026-04-04T09:20:47.105Z</time></trkpt><trkpt lat="44.8905483" lon="8.9810717"><ele>181.0</ele><time>2026-04-04T09:20:48.103Z</time></trkpt><trkpt lat="44.8904867" lon="8.9809383"><ele>180.60000000000002</ele><time>2026-04-04T09:20:49.104Z</time></trkpt><trkpt lat="44.8904283" lon="8.9808167"><ele>180.2</ele><time>2026-04-04T09:20:50.101Z</time></trkpt><trkpt lat="44.890365" lon="8.9807033"><ele>179.8</ele><time>2026-04-04T09:20:51.101Z</time></trkpt><trkpt lat="44.8903" lon="8.9805917"><ele>179.39999999999998</ele><time>2026-04-04T09:20:52.103Z</time></trkpt><trkpt lat="44.8902367" lon="8.9804783"><ele>179.0</ele><time>2026-04-04T09:20:53.107Z</time></trkpt><trkpt lat="44.8901717" lon="8.9803717"><ele>179.0</ele><time>2026-04-04T09:20:54.099Z</time></trkpt><trkpt lat="44.89011" lon="8.980265"><ele>179.0</ele><time>2026-04-04T09:20:55.101Z</time></trkpt><trkpt lat="44.89005" lon="8.9801533"><ele>179.0</ele><time>2026-04-04T09:20:56.105Z</time></trkpt><trkpt lat="44.8899783" lon="8.9800533"><ele>179.0</ele><time>2026-04-04T09:20:57.107Z</time></trkpt><trkpt lat="44.8898917" lon="8.9799533"><ele>179.0</ele><time>2026-04-04T09:20:58.097Z</time></trkpt><trkpt lat="44.88981" lon="8.97985"><ele>178.39999999999998</ele><time>2026-04-04T09:20:59.104Z</time></trkpt><trkpt lat="44.88973" lon="8.979745"><ele>177.8</ele><time>2026-04-04T09:21:00.1Z</time></trkpt><trkpt lat="44.8896583" lon="8.979645"><ele>177.2</ele><time>2026-04-04T09:21:01.101Z</time></trkpt><trkpt lat="44.8895867" lon="8.9795583"><ele>176.60000000000002</ele><time>2026-04-04T09:21:02.103Z</time></trkpt><trkpt lat="44.8895067" lon="8.9794917"><ele>176.0</ele><time>2026-04-04T09:21:03.1Z</time></trkpt><trkpt lat="44.8894267" lon="8.9794717"><ele>176.0</ele><time>2026-04-04T09:21:04.102Z</time></trkpt><trkpt lat="44.8893417" lon="8.9794883"><ele>176.0</ele><time>2026-04-04T09:21:05.104Z</time></trkpt><trkpt lat="44.8892667" lon="8.9795683"><ele>176.0</ele><time>2026-04-04T09:21:06.103Z</time></trkpt><trkpt lat="44.889195" lon="8.979675"><ele>176.0</ele><time>2026-04-04T09:21:07.103Z</time></trkpt><trkpt lat="44.88912" lon="8.9798167"><ele>176.0</ele><time>2026-04-04T09:21:08.107Z</time></trkpt><trkpt lat="44.8890367" lon="8.97997"><ele>175.5</ele><time>2026-04-04T09:21:09.106Z</time></trkpt><trkpt lat="44.8889483" lon="8.9801233"><ele>175.0</ele><time>2026-04-04T09:21:10.103Z</time></trkpt><trkpt lat="44.8888583" lon="8.9802833"><ele>174.5</ele><time>2026-04-04T09:21:11.105Z</time></trkpt><trkpt lat="44.8887667" lon="8.9804433"><ele>174.0</ele><time>2026-04-04T09:21:12.101Z</time></trkpt><trkpt lat="44.8886767" lon="8.9806017"><ele>174.0</ele><time>2026-04-04T09:21:13.105Z</time></trkpt><trkpt lat="44.8885817" lon="8.980765"><ele>174.0</ele><time>2026-04-04T09:21:14.1Z</time></trkpt><trkpt lat="44.8884883" lon="8.98092"><ele>174.0</ele><time>2026-04-04T09:21:15.101Z</time></trkpt><trkpt lat="44.8884017" lon="8.9810667"><ele>174.0</ele><time>2026-04-04T09:21:16.107Z</time></trkpt><trkpt lat="44.8883217" lon="8.9812117"><ele>175.0</ele><time>2026-04-04T09:21:17.099Z</time></trkpt><trkpt lat="44.888245" lon="8.9813467"><ele>176.0</ele><time>2026-04-04T09:21:18.098Z</time></trkpt><trkpt lat="44.8881683" lon="8.9814783"><ele>177.0</ele><time>2026-04-04T09:21:19.102Z</time></trkpt><trkpt lat="44.8880933" lon="8.981615"><ele>178.0</ele><time>2026-04-04T09:21:20.103Z</time></trkpt><trkpt lat="44.8880183" lon="8.981755"><ele>178.75</ele><time>2026-04-04T09:21:21.104Z</time></trkpt><trkpt lat="44.8879417" lon="8.9818917"><ele>179.5</ele><time>2026-04-04T09:21:22.103Z</time></trkpt><trkpt lat="44.887865" lon="8.9820233"><ele>180.25</ele><time>2026-04-04T09:21:23.098Z</time></trkpt><trkpt lat="44.8877883" lon="8.9821517"><ele>181.0</ele><time>2026-04-04T09:21:24.1Z</time></trkpt><trkpt lat="44.8877133" lon="8.9822717"><ele>181.0</ele><time>2026-04-04T09:21:25.099Z</time></trkpt><trkpt lat="44.8876433" lon="8.9823867"><ele>181.0</ele><time>2026-04-04T09:21:26.101Z</time></trkpt><trkpt lat="44.8875783" lon="8.9824967"><ele>181.0</ele><time>2026-04-04T09:21:27.102Z</time></trkpt><trkpt lat="44.8875183" lon="8.9826067"><ele>181.0</ele><time>2026-04-04T09:21:28.102Z</time></trkpt><trkpt lat="44.8874617" lon="8.9827067"><ele>181.0</ele><time>2026-04-04T09:21:29.099Z</time></trkpt><trkpt lat="44.8874133" lon="8.9827933"><ele>181.0</ele><time>2026-04-04T09:21:30.102Z</time></trkpt><trkpt lat="44.8873733" lon="8.98287"><ele>181.0</ele><time>2026-04-04T09:21:31.104Z</time></trkpt><trkpt lat="44.8873217" lon="8.9829767"><ele>181.0</ele><time>2026-04-04T09:21:33.1Z</time></trkpt><trkpt lat="44.8872767" lon="8.9830417"><ele>181.0</ele><time>2026-04-04T09:21:35.106Z</time></trkpt><trkpt lat="44.8872267" lon="8.9831117"><ele>181.0</ele><time>2026-04-04T09:21:37.1Z</time></trkpt><trkpt lat="44.8871667" lon="8.9831433"><ele>181.0</ele><time>2026-04-04T09:21:39.105Z</time></trkpt><trkpt lat="44.887105" lon="8.9830933"><ele>181.0</ele><time>2026-04-04T09:21:41.1Z</time></trkpt><trkpt lat="44.8870233" lon="8.9829933"><ele>181.0</ele><time>2026-04-04T09:21:43.105Z</time></trkpt><trkpt lat="44.8869717" lon="8.9829317"><ele>181.0</ele><time>2026-04-04T09:21:44.098Z</time></trkpt><trkpt lat="44.88692" lon="8.9828717"><ele>181.0</ele><time>2026-04-04T09:21:45.101Z</time></trkpt><trkpt lat="44.8868667" lon="8.982815"><ele>181.0</ele><time>2026-04-04T09:21:46.1Z</time></trkpt><trkpt lat="44.8867817" lon="8.98272"><ele>181.0</ele><time>2026-04-04T09:21:48.1Z</time></trkpt><trkpt lat="44.8867117" lon="8.9826417"><ele>181.0</ele><time>2026-04-04T09:21:50.099Z</time></trkpt><trkpt lat="44.886645" lon="8.9825633"><ele>180.66666666666669</ele><time>2026-04-04T09:21:52.099Z</time></trkpt><trkpt lat="44.8865933" lon="8.9824983"><ele>180.33333333333334</ele><time>2026-04-04T09:21:55.11Z</time></trkpt><trkpt lat="44.8865267" lon="8.9823967"><ele>180.0</ele><time>2026-04-04T09:22:20.103Z</time></trkpt><trkpt lat="44.8864583" lon="8.9823383"><ele>179.66666666666666</ele><time>2026-04-04T09:22:22.105Z</time></trkpt><trkpt lat="44.886355" lon="8.982405"><ele>179.33333333333331</ele><time>2026-04-04T09:22:24.099Z</time></trkpt><trkpt lat="44.8862983" lon="8.982475"><ele>179.0</ele><time>2026-04-04T09:22:25.102Z</time></trkpt><trkpt lat="44.886235" lon="8.9825667"><ele>178.79999999999998</ele><time>2026-04-04T09:22:26.1Z</time></trkpt><trkpt lat="44.8861683" lon="8.982675"><ele>178.6</ele><time>2026-04-04T09:22:27.101Z</time></trkpt><trkpt lat="44.8860983" lon="8.9827917"><ele>178.4</ele><time>2026-04-04T09:22:28.1Z</time></trkpt><trkpt lat="44.88602" lon="8.9829"><ele>178.2</ele><time>2026-04-04T09:22:29.102Z</time></trkpt><trkpt lat="44.8859367" lon="8.9829917"><ele>178.0</ele><time>2026-04-04T09:22:30.101Z</time></trkpt><trkpt lat="44.8858517" lon="8.98308"><ele>178.4</ele><time>2026-04-04T09:22:31.101Z</time></trkpt><trkpt lat="44.8857733" lon="8.983165"><ele>178.8</ele><time>2026-04-04T09:22:32.104Z</time></trkpt><trkpt lat="44.8856967" lon="8.9832417"><ele>179.2</ele><time>2026-04-04T09:22:33.103Z</time></trkpt><trkpt lat="44.8856167" lon="8.9833017"><ele>179.6</ele><time>2026-04-04T09:22:34.104Z</time></trkpt><trkpt lat="44.8855433" lon="8.983365"><ele>180.0</ele><time>2026-04-04T09:22:35.103Z</time></trkpt><trkpt lat="44.8854717" lon="8.983425"><ele>180.0</ele><time>2026-04-04T09:22:36.103Z</time></trkpt><trkpt lat="44.8853967" lon="8.9834733"><ele>180.0</ele><time>2026-04-04T09:22:37.103Z</time></trkpt><trkpt lat="44.8853333" lon="8.9835217"><ele>180.0</ele><time>2026-04-04T09:22:38.103Z</time></trkpt><trkpt lat="44.8852733" lon="8.9835667"><ele>180.0</ele><time>2026-04-04T09:22:39.101Z</time></trkpt><trkpt lat="44.8852083" lon="8.9836183"><ele>180.0</ele><time>2026-04-04T09:22:40.101Z</time></trkpt><trkpt lat="44.88514" lon="8.9836733"><ele>180.0</ele><time>2026-04-04T09:22:41.102Z</time></trkpt><trkpt lat="44.8850767" lon="8.9837317"><ele>180.6</ele><time>2026-04-04T09:22:42.105Z</time></trkpt><trkpt lat="44.8850067" lon="8.9837933"><ele>181.2</ele><time>2026-04-04T09:22:43.104Z</time></trkpt><trkpt lat="44.8849333" lon="8.9838617"><ele>181.8</ele><time>2026-04-04T09:22:44.1Z</time></trkpt><trkpt lat="44.8848483" lon="8.9839333"><ele>182.4</ele><time>2026-04-04T09:22:45.1Z</time></trkpt><trkpt lat="44.88477" lon="8.98401"><ele>183.0</ele><time>2026-04-04T09:22:46.102Z</time></trkpt><trkpt lat="44.88469" lon="8.9840883"><ele>183.0</ele><time>2026-04-04T09:22:47.1Z</time></trkpt><trkpt lat="44.884605" lon="8.98417"><ele>183.0</ele><time>2026-04-04T09:22:48.101Z</time></trkpt><trkpt lat="44.8845183" lon="8.9842533"><ele>183.0</ele><time>2026-04-04T09:22:49.102Z</time></trkpt><trkpt lat="44.8844233" lon="8.98434"><ele>183.0</ele><time>2026-04-04T09:22:50.099Z</time></trkpt><trkpt lat="44.8843267" lon="8.98443"><ele>183.0</ele><time>2026-04-04T09:22:51.098Z</time></trkpt><trkpt lat="44.8842233" lon="8.9845183"><ele>182.75</ele><time>2026-04-04T09:22:52.098Z</time></trkpt><trkpt lat="44.8841183" lon="8.9846133"><ele>182.5</ele><time>2026-04-04T09:22:53.102Z</time></trkpt><trkpt lat="44.88402" lon="8.9847183"><ele>182.25</ele><time>2026-04-04T09:22:54.105Z</time></trkpt><trkpt lat="44.8839167" lon="8.9848183"><ele>182.0</ele><time>2026-04-04T09:22:55.102Z</time></trkpt><trkpt lat="44.8838167" lon="8.9849183"><ele>181.75</ele><time>2026-04-04T09:22:56.101Z</time></trkpt><trkpt lat="44.8837167" lon="8.98502"><ele>181.5</ele><time>2026-04-04T09:22:57.101Z</time></trkpt><trkpt lat="44.8836183" lon="8.9851283"><ele>181.25</ele><time>2026-04-04T09:22:58.104Z</time></trkpt><trkpt lat="44.8835267" lon="8.9852417"><ele>181.0</ele><time>2026-04-04T09:22:59.101Z</time></trkpt><trkpt lat="44.88344" lon="8.98536"><ele>181.20000000000002</ele><time>2026-04-04T09:23:00.104Z</time></trkpt><trkpt lat="44.8833583" lon="8.9854867"><ele>181.4</ele><time>2026-04-04T09:23:01.102Z</time></trkpt><trkpt lat="44.8832783" lon="8.98561"><ele>181.6</ele><time>2026-04-04T09:23:02.105Z</time></trkpt><trkpt lat="44.88321" lon="8.9857233"><ele>181.8</ele><time>2026-04-04T09:23:03.105Z</time></trkpt><trkpt lat="44.883155" lon="8.98582"><ele>182.0</ele><time>2026-04-04T09:23:04.107Z</time></trkpt><trkpt lat="44.883105" lon="8.98591"><ele>182.0</ele><time>2026-04-04T09:23:05.106Z</time></trkpt><trkpt lat="44.8830567" lon="8.9859983"><ele>182.0</ele><time>2026-04-04T09:23:06.102Z</time></trkpt><trkpt lat="44.8830033" lon="8.9860933"><ele>182.0</ele><time>2026-04-04T09:23:07.102Z</time></trkpt><trkpt lat="44.8829433" lon="8.9861967"><ele>182.0</ele><time>2026-04-04T09:23:08.105Z</time></trkpt><trkpt lat="44.882875" lon="8.986305"><ele>182.0</ele><time>2026-04-04T09:23:09.1Z</time></trkpt><trkpt lat="44.8827983" lon="8.98642"><ele>182.0</ele><time>2026-04-04T09:23:10.106Z</time></trkpt><trkpt lat="44.8827217" lon="8.9865433"><ele>182.0</ele><time>2026-04-04T09:23:11.101Z</time></trkpt><trkpt lat="44.8826417" lon="8.986675"><ele>182.0</ele><time>2026-04-04T09:23:12.106Z</time></trkpt><trkpt lat="44.8825567" lon="8.9868117"><ele>182.0</ele><time>2026-04-04T09:23:13.106Z</time></trkpt><trkpt lat="44.88247" lon="8.98696"><ele>182.33333333333331</ele><time>2026-04-04T09:23:14.1Z</time></trkpt><trkpt lat="44.882375" lon="8.98713"><ele>182.66666666666666</ele><time>2026-04-04T09:23:15.099Z</time></trkpt><trkpt lat="44.882255" lon="8.987345"><ele>183.0</ele><time>2026-04-04T09:23:16.1Z</time></trkpt><trkpt lat="44.88211" lon="8.9875933"><ele>183.0</ele><time>2026-04-04T09:23:17.1Z</time></trkpt><trkpt lat="44.881945" lon="8.9878533"><ele>183.0</ele><time>2026-04-04T09:23:18.105Z</time></trkpt><trkpt lat="44.881785" lon="8.98809"><ele>183.66666666666666</ele><time>2026-04-04T09:23:19.103Z</time></trkpt><trkpt lat="44.8816317" lon="8.988305"><ele>184.33333333333331</ele><time>2026-04-04T09:23:20.102Z</time></trkpt><trkpt lat="44.8814833" lon="8.9884917"><ele>185.0</ele><time>2026-04-04T09:23:21.103Z</time></trkpt><trkpt lat="44.8813317" lon="8.9886483"><ele>185.0</ele><time>2026-04-04T09:23:22.101Z</time></trkpt><trkpt lat="44.8811767" lon="8.9887833"><ele>185.0</ele><time>2026-04-04T09:23:23.103Z</time></trkpt><trkpt lat="44.88101" lon="8.98891"><ele>185.0</ele><time>2026-04-04T09:23:24.1Z</time></trkpt><trkpt lat="44.880835" lon="8.9890233"><ele>185.33333333333331</ele><time>2026-04-04T09:23:25.107Z</time></trkpt><trkpt lat="44.8806517" lon="8.9891283"><ele>185.66666666666666</ele><time>2026-04-04T09:23:26.1Z</time></trkpt><trkpt lat="44.8804717" lon="8.9892267"><ele>186.0</ele><time>2026-04-04T09:23:27.108Z</time></trkpt><trkpt lat="44.8802833" lon="8.98932"><ele>186.33333333333334</ele><time>2026-04-04T09:23:28.103Z</time></trkpt><trkpt lat="44.8800983" lon="8.9894267"><ele>186.66666666666669</ele><time>2026-04-04T09:23:29.104Z</time></trkpt><trkpt lat="44.8799183" lon="8.98953"><ele>187.0</ele><time>2026-04-04T09:23:30.11Z</time></trkpt><trkpt lat="44.8797383" lon="8.98963"><ele>187.0</ele><time>2026-04-04T09:23:31.102Z</time></trkpt><trkpt lat="44.8795617" lon="8.9897317"><ele>187.0</ele><time>2026-04-04T09:23:32.104Z</time></trkpt><trkpt lat="44.8793917" lon="8.98985"><ele>187.0</ele><time>2026-04-04T09:23:33.105Z</time></trkpt><trkpt lat="44.879225" lon="8.98999"><ele>187.66666666666669</ele><time>2026-04-04T09:23:34.111Z</time></trkpt><trkpt lat="44.8790617" lon="8.99015"><ele>188.33333333333334</ele><time>2026-04-04T09:23:35.103Z</time></trkpt><trkpt lat="44.8789117" lon="8.9903517"><ele>189.0</ele><time>2026-04-04T09:23:36.105Z</time></trkpt><trkpt lat="44.8787667" lon="8.9905533"><ele>189.0</ele><time>2026-04-04T09:23:37.1Z</time></trkpt><trkpt lat="44.87863" lon="8.9907667"><ele>189.0</ele><time>2026-04-04T09:23:38.102Z</time></trkpt><trkpt lat="44.8785" lon="8.9909933"><ele>189.0</ele><time>2026-04-04T09:23:39.103Z</time></trkpt><trkpt lat="44.87837" lon="8.9912317"><ele>189.33333333333334</ele><time>2026-04-04T09:23:40.101Z</time></trkpt><trkpt lat="44.8782367" lon="8.9914733"><ele>189.66666666666669</ele><time>2026-04-04T09:23:41.1Z</time></trkpt><trkpt lat="44.8781033" lon="8.9917117"><ele>190.0</ele><time>2026-04-04T09:23:42.108Z</time></trkpt><trkpt lat="44.877975" lon="8.9919517"><ele>190.33333333333334</ele><time>2026-04-04T09:23:43.103Z</time></trkpt><trkpt lat="44.87785" lon="8.99218"><ele>190.66666666666666</ele><time>2026-04-04T09:23:44.102Z</time></trkpt><trkpt lat="44.877725" lon="8.99239"><ele>191.0</ele><time>2026-04-04T09:23:45.102Z</time></trkpt><trkpt lat="44.8775883" lon="8.992575"><ele>192.0</ele><time>2026-04-04T09:23:46.104Z</time></trkpt><trkpt lat="44.8774417" lon="8.99274"><ele>193.0</ele><time>2026-04-04T09:23:47.1Z</time></trkpt><trkpt lat="44.8772833" lon="8.9928867"><ele>194.0</ele><time>2026-04-04T09:23:48.107Z</time></trkpt><trkpt lat="44.8771133" lon="8.9930117"><ele>194.0</ele><time>2026-04-04T09:23:49.106Z</time></trkpt><trkpt lat="44.87694" lon="8.9931217"><ele>194.0</ele><time>2026-04-04T09:23:50.102Z</time></trkpt><trkpt lat="44.8767633" lon="8.9932133"><ele>194.0</ele><time>2026-04-04T09:23:51.102Z</time></trkpt><trkpt lat="44.8765717" lon="8.9932833"><ele>194.0</ele><time>2026-04-04T09:23:52.099Z</time></trkpt><trkpt lat="44.876375" lon="8.9933383"><ele>194.0</ele><time>2026-04-04T09:23:53.106Z</time></trkpt><trkpt lat="44.8761733" lon="8.9933867"><ele>194.0</ele><time>2026-04-04T09:23:54.099Z</time></trkpt><trkpt lat="44.8759733" lon="8.9934417"><ele>194.0</ele><time>2026-04-04T09:23:55.099Z</time></trkpt><trkpt lat="44.8757733" lon="8.9934917"><ele>194.0</ele><time>2026-04-04T09:23:56.101Z</time></trkpt><trkpt lat="44.87558" lon="8.9935267"><ele>194.0</ele><time>2026-04-04T09:23:57.103Z</time></trkpt><trkpt lat="44.8753833" lon="8.9935267"><ele>194.0</ele><time>2026-04-04T09:23:58.098Z</time></trkpt><trkpt lat="44.875195" lon="8.9934933"><ele>194.0</ele><time>2026-04-04T09:23:59.1Z</time></trkpt><trkpt lat="44.8750067" lon="8.9934417"><ele>194.0</ele><time>2026-04-04T09:24:00.104Z</time></trkpt><trkpt lat="44.8748267" lon="8.9933767"><ele>196.0</ele><time>2026-04-04T09:24:01.102Z</time></trkpt><trkpt lat="44.8746483" lon="8.9933167"><ele>198.0</ele><time>2026-04-04T09:24:02.098Z</time></trkpt><trkpt lat="44.8744667" lon="8.9932733"><ele>200.0</ele><time>2026-04-04T09:24:03.103Z</time></trkpt><trkpt lat="44.87428" lon="8.9932583"><ele>200.0</ele><time>2026-04-04T09:24:04.099Z</time></trkpt><trkpt lat="44.8740933" lon="8.9932683"><ele>200.0</ele><time>2026-04-04T09:24:05.104Z</time></trkpt><trkpt lat="44.873905" lon="8.9933067"><ele>200.0</ele><time>2026-04-04T09:24:06.103Z</time></trkpt><trkpt lat="44.8737217" lon="8.99337"><ele>200.0</ele><time>2026-04-04T09:24:07.103Z</time></trkpt><trkpt lat="44.873535" lon="8.9934433"><ele>200.0</ele><time>2026-04-04T09:24:08.1Z</time></trkpt><trkpt lat="44.8733483" lon="8.993525"><ele>200.0</ele><time>2026-04-04T09:24:09.102Z</time></trkpt><trkpt lat="44.8731583" lon="8.99361"><ele>200.66666666666669</ele><time>2026-04-04T09:24:10.103Z</time></trkpt><trkpt lat="44.8729667" lon="8.9936967"><ele>201.33333333333331</ele><time>2026-04-04T09:24:11.101Z</time></trkpt><trkpt lat="44.872775" lon="8.993795"><ele>202.0</ele><time>2026-04-04T09:24:12.104Z</time></trkpt><trkpt lat="44.8725833" lon="8.9939083"><ele>201.66666666666666</ele><time>2026-04-04T09:24:13.104Z</time></trkpt><trkpt lat="44.87239" lon="8.9940367"><ele>201.33333333333331</ele><time>2026-04-04T09:24:14.104Z</time></trkpt><trkpt lat="44.8721983" lon="8.9941667"><ele>201.0</ele><time>2026-04-04T09:24:15.102Z</time></trkpt><trkpt lat="44.8720083" lon="8.9942917"><ele>201.0</ele><time>2026-04-04T09:24:16.104Z</time></trkpt><trkpt lat="44.8718167" lon="8.9944217"><ele>201.0</ele><time>2026-04-04T09:24:17.102Z</time></trkpt><trkpt lat="44.8716217" lon="8.9945417"><ele>201.0</ele><time>2026-04-04T09:24:18.101Z</time></trkpt><trkpt lat="44.87143" lon="8.99465"><ele>203.0</ele><time>2026-04-04T09:24:19.105Z</time></trkpt><trkpt lat="44.871235" lon="8.9947467"><ele>205.0</ele><time>2026-04-04T09:24:20.11Z</time></trkpt><trkpt lat="44.8710433" lon="8.994835"><ele>207.0</ele><time>2026-04-04T09:24:21.104Z</time></trkpt><trkpt lat="44.8708483" lon="8.99492"><ele>207.33333333333331</ele><time>2026-04-04T09:24:22.103Z</time></trkpt><trkpt lat="44.870655" lon="8.9950017"><ele>207.66666666666666</ele><time>2026-04-04T09:24:23.105Z</time></trkpt><trkpt lat="44.8704633" lon="8.99508"><ele>208.0</ele><time>2026-04-04T09:24:24.104Z</time></trkpt><trkpt lat="44.8702717" lon="8.9951617"><ele>208.0</ele><time>2026-04-04T09:24:25.105Z</time></trkpt><trkpt lat="44.8700833" lon="8.9952383"><ele>208.0</ele><time>2026-04-04T09:24:26.102Z</time></trkpt><trkpt lat="44.8698917" lon="8.9953117"><ele>208.0</ele><time>2026-04-04T09:24:27.103Z</time></trkpt><trkpt lat="44.8697" lon="8.9953883"><ele>208.0</ele><time>2026-04-04T09:24:28.103Z</time></trkpt><trkpt lat="44.869515" lon="8.9954717"><ele>208.0</ele><time>2026-04-04T09:24:29.103Z</time></trkpt><trkpt lat="44.8693367" lon="8.9955617"><ele>208.0</ele><time>2026-04-04T09:24:30.104Z</time></trkpt><trkpt lat="44.8691633" lon="8.995655"><ele>206.66666666666666</ele><time>2026-04-04T09:24:31.098Z</time></trkpt><trkpt lat="44.8689933" lon="8.99575"><ele>205.33333333333331</ele><time>2026-04-04T09:24:32.103Z</time></trkpt><trkpt lat="44.8688217" lon="8.9958417"><ele>204.0</ele><time>2026-04-04T09:24:33.101Z</time></trkpt><trkpt lat="44.8686533" lon="8.99594"><ele>204.0</ele><time>2026-04-04T09:24:34.103Z</time></trkpt><trkpt lat="44.8684783" lon="8.9960267"><ele>204.0</ele><time>2026-04-04T09:24:35.104Z</time></trkpt><trkpt lat="44.8683" lon="8.9961167"><ele>204.0</ele><time>2026-04-04T09:24:36.104Z</time></trkpt><trkpt lat="44.8681133" lon="8.9961967"><ele>205.0</ele><time>2026-04-04T09:24:37.106Z</time></trkpt><trkpt lat="44.8679183" lon="8.99626"><ele>206.0</ele><time>2026-04-04T09:24:38.1Z</time></trkpt><trkpt lat="44.86772" lon="8.9963183"><ele>207.0</ele><time>2026-04-04T09:24:39.108Z</time></trkpt><trkpt lat="44.867515" lon="8.99637"><ele>207.33333333333331</ele><time>2026-04-04T09:24:40.101Z</time></trkpt><trkpt lat="44.8673067" lon="8.9964183"><ele>207.66666666666666</ele><time>2026-04-04T09:24:41.106Z</time></trkpt><trkpt lat="44.8671" lon="8.9964683"><ele>208.0</ele><time>2026-04-04T09:24:42.104Z</time></trkpt><trkpt lat="44.866895" lon="8.99652"><ele>207.0</ele><time>2026-04-04T09:24:43.103Z</time></trkpt><trkpt lat="44.8666933" lon="8.99657"><ele>206.0</ele><time>2026-04-04T09:24:44.101Z</time></trkpt><trkpt lat="44.8664983" lon="8.9966233"><ele>205.0</ele><time>2026-04-04T09:24:45.098Z</time></trkpt><trkpt lat="44.8663" lon="8.99669"><ele>205.0</ele><time>2026-04-04T09:24:46.099Z</time></trkpt><trkpt lat="44.86611" lon="8.996775"><ele>205.0</ele><time>2026-04-04T09:24:47.1Z</time></trkpt><trkpt lat="44.8659317" lon="8.99689"><ele>205.0</ele><time>2026-04-04T09:24:48.1Z</time></trkpt><trkpt lat="44.8657567" lon="8.9970317"><ele>205.0</ele><time>2026-04-04T09:24:49.103Z</time></trkpt><trkpt lat="44.8655933" lon="8.9971967"><ele>205.0</ele><time>2026-04-04T09:24:50.103Z</time></trkpt><trkpt lat="44.86543" lon="8.9973633"><ele>205.0</ele><time>2026-04-04T09:24:51.101Z</time></trkpt><trkpt lat="44.8652667" lon="8.9975183"><ele>206.66666666666666</ele><time>2026-04-04T09:24:52.101Z</time></trkpt><trkpt lat="44.8651017" lon="8.997675"><ele>208.33333333333331</ele><time>2026-04-04T09:24:53.102Z</time></trkpt><trkpt lat="44.8649433" lon="8.997835"><ele>210.0</ele><time>2026-04-04T09:24:54.101Z</time></trkpt><trkpt lat="44.8647817" lon="8.9979933"><ele>210.0</ele><time>2026-04-04T09:24:55.099Z</time></trkpt><trkpt lat="44.86462" lon="8.99815"><ele>210.0</ele><time>2026-04-04T09:24:56.108Z</time></trkpt><trkpt lat="44.8644583" lon="8.99831"><ele>210.0</ele><time>2026-04-04T09:24:57.098Z</time></trkpt><trkpt lat="44.8643" lon="8.9984733"><ele>209.33333333333331</ele><time>2026-04-04T09:24:58.1Z</time></trkpt><trkpt lat="44.864145" lon="8.9986367"><ele>208.66666666666666</ele><time>2026-04-04T09:24:59.105Z</time></trkpt><trkpt lat="44.8639917" lon="8.9987967"><ele>208.0</ele><time>2026-04-04T09:25:00.1Z</time></trkpt><trkpt lat="44.8638367" lon="8.9989517"><ele>208.0</ele><time>2026-04-04T09:25:01.109Z</time></trkpt><trkpt lat="44.863675" lon="8.9990983"><ele>208.0</ele><time>2026-04-04T09:25:02.101Z</time></trkpt><trkpt lat="44.863505" lon="8.999225"><ele>208.0</ele><time>2026-04-04T09:25:03.102Z</time></trkpt><trkpt lat="44.8633267" lon="8.9993267"><ele>208.0</ele><time>2026-04-04T09:25:04.103Z</time></trkpt><trkpt lat="44.8631317" lon="8.9994"><ele>208.0</ele><time>2026-04-04T09:25:05.105Z</time></trkpt><trkpt lat="44.86293" lon="8.99945"><ele>208.0</ele><time>2026-04-04T09:25:06.102Z</time></trkpt><trkpt lat="44.8627317" lon="8.9994783"><ele>210.33333333333331</ele><time>2026-04-04T09:25:07.098Z</time></trkpt><trkpt lat="44.862535" lon="8.99949"><ele>212.66666666666669</ele><time>2026-04-04T09:25:08.106Z</time></trkpt><trkpt lat="44.862345" lon="8.9995033"><ele>215.0</ele><time>2026-04-04T09:25:09.099Z</time></trkpt><trkpt lat="44.8621567" lon="8.9995367"><ele>215.0</ele><time>2026-04-04T09:25:10.105Z</time></trkpt><trkpt lat="44.8619717" lon="8.999605"><ele>215.0</ele><time>2026-04-04T09:25:11.102Z</time></trkpt><trkpt lat="44.861795" lon="8.9997117"><ele>215.0</ele><time>2026-04-04T09:25:12.1Z</time></trkpt><trkpt lat="44.8616367" lon="8.9998617"><ele>215.66666666666669</ele><time>2026-04-04T09:25:13.106Z</time></trkpt><trkpt lat="44.861495" lon="9.0000417"><ele>216.33333333333331</ele><time>2026-04-04T09:25:14.103Z</time></trkpt><trkpt lat="44.86137" lon="9.0002483"><ele>217.0</ele><time>2026-04-04T09:25:15.103Z</time></trkpt><trkpt lat="44.8612533" lon="9.0004783"><ele>217.0</ele><time>2026-04-04T09:25:16.103Z</time></trkpt><trkpt lat="44.861145" lon="9.00072"><ele>217.0</ele><time>2026-04-04T09:25:17.103Z</time></trkpt><trkpt lat="44.8610367" lon="9.00096"><ele>217.0</ele><time>2026-04-04T09:25:18.102Z</time></trkpt><trkpt lat="44.86093" lon="9.001195"><ele>216.0</ele><time>2026-04-04T09:25:19.108Z</time></trkpt><trkpt lat="44.860825" lon="9.0014317"><ele>215.0</ele><time>2026-04-04T09:25:20.11Z</time></trkpt><trkpt lat="44.8607217" lon="9.0016667"><ele>214.0</ele><time>2026-04-04T09:25:21.101Z</time></trkpt><trkpt lat="44.8606217" lon="9.0018983"><ele>214.0</ele><time>2026-04-04T09:25:22.11Z</time></trkpt><trkpt lat="44.8605267" lon="9.0021233"><ele>214.0</ele><time>2026-04-04T09:25:23.104Z</time></trkpt><trkpt lat="44.8604267" lon="9.0023333"><ele>214.0</ele><time>2026-04-04T09:25:24.103Z</time></trkpt><trkpt lat="44.86033" lon="9.00255"><ele>213.33333333333331</ele><time>2026-04-04T09:25:25.1Z</time></trkpt><trkpt lat="44.8602417" lon="9.002775"><ele>212.66666666666669</ele><time>2026-04-04T09:25:26.109Z</time></trkpt><trkpt lat="44.860155" lon="9.0029883"><ele>212.0</ele><time>2026-04-04T09:25:27.102Z</time></trkpt><trkpt lat="44.860065" lon="9.003205"><ele>214.33333333333334</ele><time>2026-04-04T09:25:28.098Z</time></trkpt><trkpt lat="44.85997" lon="9.00342"><ele>216.66666666666669</ele><time>2026-04-04T09:25:29.103Z</time></trkpt><trkpt lat="44.859875" lon="9.003635"><ele>219.0</ele><time>2026-04-04T09:25:30.102Z</time></trkpt><trkpt lat="44.8597783" lon="9.0038467"><ele>219.0</ele><time>2026-04-04T09:25:31.106Z</time></trkpt><trkpt lat="44.859665" lon="9.0040333"><ele>219.0</ele><time>2026-04-04T09:25:32.099Z</time></trkpt><trkpt lat="44.8595367" lon="9.0042"><ele>219.0</ele><time>2026-04-04T09:25:33.101Z</time></trkpt><trkpt lat="44.8593917" lon="9.0043433"><ele>221.33333333333331</ele><time>2026-04-04T09:25:34.1Z</time></trkpt><trkpt lat="44.8592383" lon="9.00447"><ele>223.66666666666666</ele><time>2026-04-04T09:25:35.102Z</time></trkpt><trkpt lat="44.8590767" lon="9.0045833"><ele>226.0</ele><time>2026-04-04T09:25:36.1Z</time></trkpt><trkpt lat="44.8589033" lon="9.0046817"><ele>226.0</ele><time>2026-04-04T09:25:37.1Z</time></trkpt><trkpt lat="44.858725" lon="9.0047567"><ele>226.0</ele><time>2026-04-04T09:25:38.104Z</time></trkpt><trkpt lat="44.8585433" lon="9.0048"><ele>226.0</ele><time>2026-04-04T09:25:39.104Z</time></trkpt><trkpt lat="44.858365" lon="9.00481"><ele>232.0</ele><time>2026-04-04T09:25:40.105Z</time></trkpt><trkpt lat="44.858185" lon="9.0048"><ele>238.0</ele><time>2026-04-04T09:25:41.103Z</time></trkpt><trkpt lat="44.8580117" lon="9.0047733"><ele>244.0</ele><time>2026-04-04T09:25:42.103Z</time></trkpt><trkpt lat="44.857845" lon="9.004725"><ele>244.0</ele><time>2026-04-04T09:25:43.105Z</time></trkpt><trkpt lat="44.8576733" lon="9.00467"><ele>244.0</ele><time>2026-04-04T09:25:44.101Z</time></trkpt><trkpt lat="44.8575117" lon="9.00463"><ele>244.0</ele><time>2026-04-04T09:25:45.105Z</time></trkpt><trkpt lat="44.8573567" lon="9.0046033"><ele>243.75</ele><time>2026-04-04T09:25:46.102Z</time></trkpt><trkpt lat="44.8572067" lon="9.0046083"><ele>243.5</ele><time>2026-04-04T09:25:47.102Z</time></trkpt><trkpt lat="44.8570683" lon="9.004635"><ele>243.25</ele><time>2026-04-04T09:25:48.106Z</time></trkpt><trkpt lat="44.8569233" lon="9.0046883"><ele>243.0</ele><time>2026-04-04T09:25:49.102Z</time></trkpt><trkpt lat="44.856795" lon="9.004765"><ele>241.75</ele><time>2026-04-04T09:25:50.101Z</time></trkpt><trkpt lat="44.856675" lon="9.0048567"><ele>240.5</ele><time>2026-04-04T09:25:51.098Z</time></trkpt><trkpt lat="44.8565617" lon="9.004955"><ele>239.25</ele><time>2026-04-04T09:25:52.098Z</time></trkpt><trkpt lat="44.856445" lon="9.005045"><ele>238.0</ele><time>2026-04-04T09:25:53.1Z</time></trkpt><trkpt lat="44.8563267" lon="9.0051183"><ele>235.8</ele><time>2026-04-04T09:25:54.1Z</time></trkpt><trkpt lat="44.8562133" lon="9.005185"><ele>233.60000000000002</ele><time>2026-04-04T09:25:55.097Z</time></trkpt><trkpt lat="44.85611" lon="9.0052433"><ele>231.39999999999998</ele><time>2026-04-04T09:25:56.1Z</time></trkpt><trkpt lat="44.85601" lon="9.0052933"><ele>229.2</ele><time>2026-04-04T09:25:57.102Z</time></trkpt><trkpt lat="44.8559067" lon="9.0053383"><ele>227.0</ele><time>2026-04-04T09:25:58.104Z</time></trkpt><trkpt lat="44.8558083" lon="9.0053817"><ele>227.00000000000003</ele><time>2026-04-04T09:25:59.1Z</time></trkpt><trkpt lat="44.855725" lon="9.005415"><ele>227.0</ele><time>2026-04-04T09:26:00.103Z</time></trkpt><trkpt lat="44.8556583" lon="9.005445"><ele>227.0</ele><time>2026-04-04T09:26:01.103Z</time></trkpt><trkpt lat="44.855595" lon="9.0054717"><ele>227.0</ele><time>2026-04-04T09:26:02.101Z</time></trkpt><trkpt lat="44.8554717" lon="9.0055167"><ele>227.00000000000003</ele><time>2026-04-04T09:26:04.106Z</time></trkpt><trkpt lat="44.8553983" lon="9.00554"><ele>227.0</ele><time>2026-04-04T09:26:05.1Z</time></trkpt><trkpt lat="44.855315" lon="9.005575"><ele>227.00000000000003</ele><time>2026-04-04T09:26:06.102Z</time></trkpt><trkpt lat="44.8552267" lon="9.0056133"><ele>227.0</ele><time>2026-04-04T09:26:07.102Z</time></trkpt><trkpt lat="44.8551417" lon="9.005645"><ele>227.0</ele><time>2026-04-04T09:26:08.098Z</time></trkpt><trkpt lat="44.8550617" lon="9.005685"><ele>227.0</ele><time>2026-04-04T09:26:09.099Z</time></trkpt><trkpt lat="44.8549867" lon="9.0057167"><ele>227.00000000000003</ele><time>2026-04-04T09:26:10.103Z</time></trkpt><trkpt lat="44.8549167" lon="9.0057483"><ele>227.0</ele><time>2026-04-04T09:26:11.101Z</time></trkpt><trkpt lat="44.85485" lon="9.005785"><ele>227.0</ele><time>2026-04-04T09:26:12.109Z</time></trkpt><trkpt lat="44.854785" lon="9.0058183"><ele>227.00000000000003</ele><time>2026-04-04T09:26:13.101Z</time></trkpt><trkpt lat="44.854715" lon="9.0058467"><ele>227.0</ele><time>2026-04-04T09:26:14.105Z</time></trkpt><trkpt lat="44.8546383" lon="9.0058783"><ele>227.0</ele><time>2026-04-04T09:26:15.098Z</time></trkpt><trkpt lat="44.854565" lon="9.0059133"><ele>227.00000000000003</ele><time>2026-04-04T09:26:16.098Z</time></trkpt><trkpt lat="44.8544983" lon="9.0059383"><ele>227.0</ele><time>2026-04-04T09:26:17.1Z</time></trkpt><trkpt lat="44.8544317" lon="9.005975"><ele>227.0</ele><time>2026-04-04T09:26:18.105Z</time></trkpt><trkpt lat="44.854365" lon="9.0060117"><ele>227.00000000000003</ele><time>2026-04-04T09:26:19.106Z</time></trkpt><trkpt lat="44.85429" lon="9.0060467"><ele>227.0</ele><time>2026-04-04T09:26:20.099Z</time></trkpt><trkpt lat="44.8542217" lon="9.0060783"><ele>227.0</ele><time>2026-04-04T09:26:21.099Z</time></trkpt><trkpt lat="44.8541483" lon="9.0061067"><ele>227.0</ele><time>2026-04-04T09:26:22.101Z</time></trkpt><trkpt lat="44.8540633" lon="9.00614"><ele>227.00000000000003</ele><time>2026-04-04T09:26:23.103Z</time></trkpt><trkpt lat="44.8539567" lon="9.006185"><ele>227.0</ele><time>2026-04-04T09:26:24.102Z</time></trkpt><trkpt lat="44.8538317" lon="9.0062383"><ele>227.0</ele><time>2026-04-04T09:26:25.104Z</time></trkpt><trkpt lat="44.8537" lon="9.0063017"><ele>227.0</ele><time>2026-04-04T09:26:26.103Z</time></trkpt><trkpt lat="44.8535683" lon="9.0063767"><ele>227.0</ele><time>2026-04-04T09:26:27.106Z</time></trkpt><trkpt lat="44.8534267" lon="9.0064533"><ele>227.0</ele><time>2026-04-04T09:26:28.107Z</time></trkpt><trkpt lat="44.8532783" lon="9.0065383"><ele>226.33333333333334</ele><time>2026-04-04T09:26:29.098Z</time></trkpt><trkpt lat="44.8531183" lon="9.0066167"><ele>225.66666666666669</ele><time>2026-04-04T09:26:30.1Z</time></trkpt><trkpt lat="44.85296" lon="9.0066933"><ele>225.0</ele><time>2026-04-04T09:26:31.103Z</time></trkpt><trkpt lat="44.8528033" lon="9.0067717"><ele>225.0</ele><time>2026-04-04T09:26:32.099Z</time></trkpt><trkpt lat="44.852645" lon="9.006845"><ele>225.0</ele><time>2026-04-04T09:26:33.106Z</time></trkpt><trkpt lat="44.85248" lon="9.00692"><ele>225.0</ele><time>2026-04-04T09:26:34.102Z</time></trkpt><trkpt lat="44.852315" lon="9.0070067"><ele>226.66666666666669</ele><time>2026-04-04T09:26:35.1Z</time></trkpt><trkpt lat="44.8521467" lon="9.0070917"><ele>228.33333333333334</ele><time>2026-04-04T09:26:36.098Z</time></trkpt><trkpt lat="44.85198" lon="9.00717"><ele>230.0</ele><time>2026-04-04T09:26:37.108Z</time></trkpt><trkpt lat="44.8518183" lon="9.0072417"><ele>231.33333333333334</ele><time>2026-04-04T09:26:38.111Z</time></trkpt><trkpt lat="44.8516567" lon="9.0073133"><ele>232.66666666666669</ele><time>2026-04-04T09:26:39.115Z</time></trkpt><trkpt lat="44.851495" lon="9.0073817"><ele>234.0</ele><time>2026-04-04T09:26:40.1Z</time></trkpt><trkpt lat="44.8513333" lon="9.0074533"><ele>232.66666666666669</ele><time>2026-04-04T09:26:41.1Z</time></trkpt><trkpt lat="44.85117" lon="9.00753"><ele>231.33333333333334</ele><time>2026-04-04T09:26:42.103Z</time></trkpt><trkpt lat="44.8510083" lon="9.0076183"><ele>230.0</ele><time>2026-04-04T09:26:43.103Z</time></trkpt><trkpt lat="44.850845" lon="9.0077167"><ele>230.0</ele><time>2026-04-04T09:26:44.101Z</time></trkpt><trkpt lat="44.8506833" lon="9.0078267"><ele>230.0</ele><time>2026-04-04T09:26:45.101Z</time></trkpt><trkpt lat="44.8505267" lon="9.0079683"><ele>230.0</ele><time>2026-04-04T09:26:46.102Z</time></trkpt><trkpt lat="44.8503833" lon="9.0081117"><ele>230.0</ele><time>2026-04-04T09:26:47.102Z</time></trkpt><trkpt lat="44.8502383" lon="9.0082683"><ele>230.0</ele><time>2026-04-04T09:26:48.098Z</time></trkpt><trkpt lat="44.8500833" lon="9.0084233"><ele>230.0</ele><time>2026-04-04T09:26:49.1Z</time></trkpt><trkpt lat="44.84993" lon="9.008585"><ele>230.0</ele><time>2026-04-04T09:26:50.105Z</time></trkpt><trkpt lat="44.849775" lon="9.0087567"><ele>230.0</ele><time>2026-04-04T09:26:51.101Z</time></trkpt><trkpt lat="44.84962" lon="9.0089267"><ele>230.0</ele><time>2026-04-04T09:26:52.11Z</time></trkpt><trkpt lat="44.849465" lon="9.0090967"><ele>230.0</ele><time>2026-04-04T09:26:53.102Z</time></trkpt><trkpt lat="44.8493167" lon="9.0092667"><ele>230.0</ele><time>2026-04-04T09:26:54.101Z</time></trkpt><trkpt lat="44.8491717" lon="9.0094333"><ele>230.0</ele><time>2026-04-04T09:26:55.104Z</time></trkpt><trkpt lat="44.849035" lon="9.0095933"><ele>230.0</ele><time>2026-04-04T09:26:56.102Z</time></trkpt><trkpt lat="44.8489067" lon="9.0097467"><ele>230.0</ele><time>2026-04-04T09:26:57.108Z</time></trkpt><trkpt lat="44.84879" lon="9.0098867"><ele>230.0</ele><time>2026-04-04T09:26:58.101Z</time></trkpt><trkpt lat="44.8486817" lon="9.0100167"><ele>230.0</ele><time>2026-04-04T09:26:59.102Z</time></trkpt><trkpt lat="44.848575" lon="9.0101467"><ele>230.0</ele><time>2026-04-04T09:27:00.096Z</time></trkpt><trkpt lat="44.8484683" lon="9.01028"><ele>230.0</ele><time>2026-04-04T09:27:01.104Z</time></trkpt><trkpt lat="44.8483533" lon="9.01041"><ele>230.0</ele><time>2026-04-04T09:27:02.104Z</time></trkpt><trkpt lat="44.8482367" lon="9.01054"><ele>231.0</ele><time>2026-04-04T09:27:03.1Z</time></trkpt><trkpt lat="44.8481167" lon="9.0106733"><ele>232.0</ele><time>2026-04-04T09:27:04.1Z</time></trkpt><trkpt lat="44.8479917" lon="9.010815"><ele>233.0</ele><time>2026-04-04T09:27:05.102Z</time></trkpt><trkpt lat="44.847865" lon="9.01096"><ele>233.0</ele><time>2026-04-04T09:27:06.099Z</time></trkpt><trkpt lat="44.8477317" lon="9.0111017"><ele>233.0</ele><time>2026-04-04T09:27:07.102Z</time></trkpt><trkpt lat="44.8475967" lon="9.0112433"><ele>233.0</ele><time>2026-04-04T09:27:08.102Z</time></trkpt><trkpt lat="44.84746" lon="9.0113833"><ele>233.33333333333334</ele><time>2026-04-04T09:27:09.101Z</time></trkpt><trkpt lat="44.8473183" lon="9.0115217"><ele>233.66666666666669</ele><time>2026-04-04T09:27:10.104Z</time></trkpt><trkpt lat="44.8471767" lon="9.01166"><ele>234.0</ele><time>2026-04-04T09:27:11.105Z</time></trkpt><trkpt lat="44.84704" lon="9.0117817"><ele>234.66666666666669</ele><time>2026-04-04T09:27:12.108Z</time></trkpt><trkpt lat="44.84691" lon="9.0118983"><ele>235.33333333333334</ele><time>2026-04-04T09:27:13.104Z</time></trkpt><trkpt lat="44.84678" lon="9.012015"><ele>236.0</ele><time>2026-04-04T09:27:14.105Z</time></trkpt><trkpt lat="44.8466533" lon="9.01213"><ele>236.25</ele><time>2026-04-04T09:27:15.106Z</time></trkpt><trkpt lat="44.8465317" lon="9.0122433"><ele>236.5</ele><time>2026-04-04T09:27:16.103Z</time></trkpt><trkpt lat="44.8464217" lon="9.0123417"><ele>236.75</ele><time>2026-04-04T09:27:17.106Z</time></trkpt><trkpt lat="44.8463233" lon="9.012435"><ele>237.0</ele><time>2026-04-04T09:27:18.1Z</time></trkpt><trkpt lat="44.8462267" lon="9.0125133"><ele>237.0</ele><time>2026-04-04T09:27:19.105Z</time></trkpt><trkpt lat="44.8461217" lon="9.012555"><ele>237.0</ele><time>2026-04-04T09:27:20.103Z</time></trkpt><trkpt lat="44.8460117" lon="9.0125667"><ele>237.0</ele><time>2026-04-04T09:27:21.103Z</time></trkpt><trkpt lat="44.845895" lon="9.0125517"><ele>237.0</ele><time>2026-04-04T09:27:22.104Z</time></trkpt><trkpt lat="44.845765" lon="9.0125317"><ele>237.5</ele><time>2026-04-04T09:27:23.101Z</time></trkpt><trkpt lat="44.8456333" lon="9.0125067"><ele>238.0</ele><time>2026-04-04T09:27:24.099Z</time></trkpt><trkpt lat="44.8454883" lon="9.0124733"><ele>238.5</ele><time>2026-04-04T09:27:25.1Z</time></trkpt><trkpt lat="44.845345" lon="9.0124383"><ele>239.0</ele><time>2026-04-04T09:27:26.101Z</time></trkpt><trkpt lat="44.84521" lon="9.0124017"><ele>239.5</ele><time>2026-04-04T09:27:27.099Z</time></trkpt><trkpt lat="44.84508" lon="9.0123867"><ele>240.0</ele><time>2026-04-04T09:27:28.098Z</time></trkpt><trkpt lat="44.844955" lon="9.0123767"><ele>240.5</ele><time>2026-04-04T09:27:29.098Z</time></trkpt><trkpt lat="44.844835" lon="9.01238"><ele>241.0</ele><time>2026-04-04T09:27:30.1Z</time></trkpt><trkpt lat="44.844715" lon="9.0124083"><ele>241.0</ele><time>2026-04-04T09:27:31.1Z</time></trkpt><trkpt lat="44.8445967" lon="9.0124583"><ele>241.0</ele><time>2026-04-04T09:27:32.103Z</time></trkpt><trkpt lat="44.8444767" lon="9.0125133"><ele>241.0</ele><time>2026-04-04T09:27:33.103Z</time></trkpt><trkpt lat="44.844355" lon="9.01257"><ele>241.0</ele><time>2026-04-04T09:27:34.105Z</time></trkpt><trkpt lat="44.8442333" lon="9.01264"><ele>243.75</ele><time>2026-04-04T09:27:35.101Z</time></trkpt><trkpt lat="44.8441133" lon="9.0127083"><ele>246.5</ele><time>2026-04-04T09:27:36.104Z</time></trkpt><trkpt lat="44.8439833" lon="9.0127667"><ele>249.25</ele><time>2026-04-04T09:27:37.102Z</time></trkpt><trkpt lat="44.8438467" lon="9.0128033"><ele>252.0</ele><time>2026-04-04T09:27:38.098Z</time></trkpt><trkpt lat="44.8437133" lon="9.0128433"><ele>252.0</ele><time>2026-04-04T09:27:39.105Z</time></trkpt><trkpt lat="44.84359" lon="9.012865"><ele>252.0</ele><time>2026-04-04T09:27:40.103Z</time></trkpt><trkpt lat="44.843475" lon="9.0129083"><ele>252.0</ele><time>2026-04-04T09:27:41.104Z</time></trkpt><trkpt lat="44.843365" lon="9.0129833"><ele>252.0</ele><time>2026-04-04T09:27:42.096Z</time></trkpt><trkpt lat="44.84327" lon="9.0130767"><ele>254.25</ele><time>2026-04-04T09:27:43.101Z</time></trkpt><trkpt lat="44.8431783" lon="9.013165"><ele>256.5</ele><time>2026-04-04T09:27:44.102Z</time></trkpt><trkpt lat="44.84308" lon="9.0132517"><ele>258.75</ele><time>2026-04-04T09:27:45.099Z</time></trkpt><trkpt lat="44.8429633" lon="9.0133217"><ele>261.0</ele><time>2026-04-04T09:27:46.101Z</time></trkpt><trkpt lat="44.8428367" lon="9.01337"><ele>261.0</ele><time>2026-04-04T09:27:47.103Z</time></trkpt><trkpt lat="44.8427" lon="9.013395"><ele>261.0</ele><time>2026-04-04T09:27:48.102Z</time></trkpt><trkpt lat="44.84256" lon="9.01339"><ele>261.0</ele><time>2026-04-04T09:27:49.099Z</time></trkpt><trkpt lat="44.8424283" lon="9.0133583"><ele>261.0</ele><time>2026-04-04T09:27:50.1Z</time></trkpt><trkpt lat="44.84231" lon="9.013305"><ele>266.75</ele><time>2026-04-04T09:27:51.108Z</time></trkpt><trkpt lat="44.8422083" lon="9.0132267"><ele>272.5</ele><time>2026-04-04T09:27:52.102Z</time></trkpt><trkpt lat="44.8421217" lon="9.0131183"><ele>278.25</ele><time>2026-04-04T09:27:53.102Z</time></trkpt><trkpt lat="44.8420433" lon="9.0129817"><ele>284.0</ele><time>2026-04-04T09:27:54.102Z</time></trkpt><trkpt lat="44.8419733" lon="9.0128117"><ele>284.0</ele><time>2026-04-04T09:27:55.101Z</time></trkpt><trkpt lat="44.841895" lon="9.01263"><ele>284.0</ele><time>2026-04-04T09:27:56.105Z</time></trkpt><trkpt lat="44.8418183" lon="9.0124567"><ele>284.0</ele><time>2026-04-04T09:27:57.104Z</time></trkpt><trkpt lat="44.8417467" lon="9.012305"><ele>284.0</ele><time>2026-04-04T09:27:58.102Z</time></trkpt><trkpt lat="44.8416717" lon="9.0121833"><ele>285.0</ele><time>2026-04-04T09:27:59.1Z</time></trkpt><trkpt lat="44.8415983" lon="9.012085"><ele>286.0</ele><time>2026-04-04T09:28:00.1Z</time></trkpt><trkpt lat="44.8415117" lon="9.0120183"><ele>287.0</ele><time>2026-04-04T09:28:01.105Z</time></trkpt><trkpt lat="44.8414167" lon="9.0119783"><ele>288.0</ele><time>2026-04-04T09:28:02.101Z</time></trkpt><trkpt lat="44.8413033" lon="9.0119667"><ele>289.0</ele><time>2026-04-04T09:28:03.11Z</time></trkpt><trkpt lat="44.84118" lon="9.0119783"><ele>289.0</ele><time>2026-04-04T09:28:04.101Z</time></trkpt><trkpt lat="44.84105" lon="9.01201"><ele>289.0</ele><time>2026-04-04T09:28:05.102Z</time></trkpt><trkpt lat="44.8409283" lon="9.01206"><ele>289.0</ele><time>2026-04-04T09:28:06.1Z</time></trkpt><trkpt lat="44.8408167" lon="9.012095"><ele>289.0</ele><time>2026-04-04T09:28:07.107Z</time></trkpt><trkpt lat="44.8407217" lon="9.0121283"><ele>291.0</ele><time>2026-04-04T09:28:08.1Z</time></trkpt><trkpt lat="44.8406267" lon="9.0121717"><ele>293.0</ele><time>2026-04-04T09:28:09.099Z</time></trkpt><trkpt lat="44.8405333" lon="9.012235"><ele>295.0</ele><time>2026-04-04T09:28:10.1Z</time></trkpt><trkpt lat="44.8404683" lon="9.0123433"><ele>297.0</ele><time>2026-04-04T09:28:11.101Z</time></trkpt><trkpt lat="44.84041" lon="9.0124433"><ele>299.0</ele><time>2026-04-04T09:28:12.1Z</time></trkpt><trkpt lat="44.8403483" lon="9.012525"><ele>299.0</ele><time>2026-04-04T09:28:13.102Z</time></trkpt><trkpt lat="44.8402867" lon="9.0125883"><ele>299.0</ele><time>2026-04-04T09:28:14.1Z</time></trkpt><trkpt lat="44.84021" lon="9.012615"><ele>299.0</ele><time>2026-04-04T09:28:15.098Z</time></trkpt><trkpt lat="44.8401167" lon="9.0125967"><ele>299.0</ele><time>2026-04-04T09:28:16.102Z</time></trkpt><trkpt lat="44.8399817" lon="9.0125233"><ele>299.0</ele><time>2026-04-04T09:28:17.101Z</time></trkpt><trkpt lat="44.83985" lon="9.012475"><ele>300.33333333333337</ele><time>2026-04-04T09:28:18.103Z</time></trkpt><trkpt lat="44.8397083" lon="9.0124333"><ele>301.6666666666667</ele><time>2026-04-04T09:28:19.101Z</time></trkpt><trkpt lat="44.839565" lon="9.0123933"><ele>303.0</ele><time>2026-04-04T09:28:20.101Z</time></trkpt><trkpt lat="44.839405" lon="9.0123433"><ele>303.6666666666667</ele><time>2026-04-04T09:28:21.102Z</time></trkpt><trkpt lat="44.83925" lon="9.0123"><ele>304.33333333333337</ele><time>2026-04-04T09:28:22.102Z</time></trkpt><trkpt lat="44.8390867" lon="9.0122517"><ele>305.0</ele><time>2026-04-04T09:28:23.106Z</time></trkpt><trkpt lat="44.8389383" lon="9.0121783"><ele>305.0</ele><time>2026-04-04T09:28:24.102Z</time></trkpt><trkpt lat="44.8388033" lon="9.0120783"><ele>305.0</ele><time>2026-04-04T09:28:25.104Z</time></trkpt><trkpt lat="44.838675" lon="9.0119717"><ele>305.0</ele><time>2026-04-04T09:28:26.098Z</time></trkpt><trkpt lat="44.838535" lon="9.011875"><ele>305.6666666666667</ele><time>2026-04-04T09:28:27.097Z</time></trkpt><trkpt lat="44.838395" lon="9.011785"><ele>306.3333333333333</ele><time>2026-04-04T09:28:28.103Z</time></trkpt><trkpt lat="44.8382567" lon="9.0116967"><ele>307.0</ele><time>2026-04-04T09:28:29.104Z</time></trkpt><trkpt lat="44.838125" lon="9.0116033"><ele>303.66666666666663</ele><time>2026-04-04T09:28:30.1Z</time></trkpt><trkpt lat="44.8379967" lon="9.0114883"><ele>300.3333333333333</ele><time>2026-04-04T09:28:31.104Z</time></trkpt><trkpt lat="44.8378717" lon="9.0113633"><ele>297.0</ele><time>2026-04-04T09:28:32.106Z</time></trkpt><trkpt lat="44.8377483" lon="9.0112333"><ele>297.75</ele><time>2026-04-04T09:28:33.1Z</time></trkpt><trkpt lat="44.8376283" lon="9.0111033"><ele>298.5</ele><time>2026-04-04T09:28:34.106Z</time></trkpt><trkpt lat="44.83751" lon="9.0109683"><ele>299.25</ele><time>2026-04-04T09:28:35.101Z</time></trkpt><trkpt lat="44.8373967" lon="9.01084"><ele>300.0</ele><time>2026-04-04T09:28:36.104Z</time></trkpt><trkpt lat="44.8372967" lon="9.0107283"><ele>300.0</ele><time>2026-04-04T09:28:37.104Z</time></trkpt><trkpt lat="44.8371933" lon="9.0106433"><ele>300.0</ele><time>2026-04-04T09:28:38.099Z</time></trkpt><trkpt lat="44.8370967" lon="9.0106117"><ele>300.0</ele><time>2026-04-04T09:28:39.101Z</time></trkpt><trkpt lat="44.83698" lon="9.0106383"><ele>300.0</ele><time>2026-04-04T09:28:40.102Z</time></trkpt><trkpt lat="44.8368533" lon="9.0106767"><ele>303.5</ele><time>2026-04-04T09:28:41.104Z</time></trkpt><trkpt lat="44.83671" lon="9.0107133"><ele>307.0</ele><time>2026-04-04T09:28:42.101Z</time></trkpt><trkpt lat="44.8365633" lon="9.0107533"><ele>310.5</ele><time>2026-04-04T09:28:43.099Z</time></trkpt><trkpt lat="44.8364267" lon="9.0107983"><ele>314.0</ele><time>2026-04-04T09:28:44.101Z</time></trkpt><trkpt lat="44.836295" lon="9.0108317"><ele>314.0</ele><time>2026-04-04T09:28:45.102Z</time></trkpt><trkpt lat="44.8361633" lon="9.0108433"><ele>314.0</ele><time>2026-04-04T09:28:46.102Z</time></trkpt><trkpt lat="44.836035" lon="9.0108233"><ele>314.0</ele><time>2026-04-04T09:28:47.103Z</time></trkpt><trkpt lat="44.8359083" lon="9.0107817"><ele>314.0</ele><time>2026-04-04T09:28:48.106Z</time></trkpt><trkpt lat="44.8357833" lon="9.01075"><ele>316.5</ele><time>2026-04-04T09:28:49.106Z</time></trkpt><trkpt lat="44.835655" lon="9.0107383"><ele>319.0</ele><time>2026-04-04T09:28:50.103Z</time></trkpt><trkpt lat="44.83553" lon="9.0107367"><ele>321.5</ele><time>2026-04-04T09:28:51.102Z</time></trkpt><trkpt lat="44.8354" lon="9.0107233"><ele>324.0</ele><time>2026-04-04T09:28:52.097Z</time></trkpt><trkpt lat="44.8352733" lon="9.0106867"><ele>324.0</ele><time>2026-04-04T09:28:53.098Z</time></trkpt><trkpt lat="44.8351417" lon="9.0106383"><ele>324.0</ele><time>2026-04-04T09:28:54.105Z</time></trkpt><trkpt lat="44.8350017" lon="9.0105967"><ele>324.0</ele><time>2026-04-04T09:28:55.098Z</time></trkpt><trkpt lat="44.8348617" lon="9.0105683"><ele>324.0</ele><time>2026-04-04T09:28:56.099Z</time></trkpt><trkpt lat="44.8347167" lon="9.0105567"><ele>323.5</ele><time>2026-04-04T09:28:57.098Z</time></trkpt><trkpt lat="44.834575" lon="9.0105633"><ele>323.0</ele><time>2026-04-04T09:28:58.102Z</time></trkpt><trkpt lat="44.8344383" lon="9.0106083"><ele>322.5</ele><time>2026-04-04T09:28:59.105Z</time></trkpt><trkpt lat="44.8343133" lon="9.010695"><ele>322.0</ele><time>2026-04-04T09:29:00.101Z</time></trkpt><trkpt lat="44.8341883" lon="9.0107933"><ele>321.75</ele><time>2026-04-04T09:29:01.101Z</time></trkpt><trkpt lat="44.8340617" lon="9.0108817"><ele>321.5</ele><time>2026-04-04T09:29:02.101Z</time></trkpt><trkpt lat="44.83393" lon="9.0109517"><ele>321.25</ele><time>2026-04-04T09:29:03.101Z</time></trkpt><trkpt lat="44.8337867" lon="9.011005"><ele>321.0</ele><time>2026-04-04T09:29:04.099Z</time></trkpt><trkpt lat="44.83363" lon="9.0110367"><ele>319.6666666666667</ele><time>2026-04-04T09:29:05.102Z</time></trkpt><trkpt lat="44.83347" lon="9.01105"><ele>318.33333333333337</ele><time>2026-04-04T09:29:06.108Z</time></trkpt><trkpt lat="44.8333083" lon="9.011055"><ele>317.0</ele><time>2026-04-04T09:29:07.11Z</time></trkpt><trkpt lat="44.8331467" lon="9.0110467"><ele>317.0</ele><time>2026-04-04T09:29:08.099Z</time></trkpt><trkpt lat="44.8329833" lon="9.0110217"><ele>317.0</ele><time>2026-04-04T09:29:09.108Z</time></trkpt><trkpt lat="44.8328233" lon="9.0110017"><ele>317.0</ele><time>2026-04-04T09:29:10.101Z</time></trkpt><trkpt lat="44.832665" lon="9.010985"><ele>319.33333333333337</ele><time>2026-04-04T09:29:11.104Z</time></trkpt><trkpt lat="44.8325083" lon="9.0109567"><ele>321.6666666666667</ele><time>2026-04-04T09:29:12.102Z</time></trkpt><trkpt lat="44.8323517" lon="9.0109083"><ele>324.0</ele><time>2026-04-04T09:29:13.102Z</time></trkpt><trkpt lat="44.8321817" lon="9.01085"><ele>324.3333333333333</ele><time>2026-04-04T09:29:14.098Z</time></trkpt><trkpt lat="44.8320167" lon="9.0107933"><ele>324.66666666666663</ele><time>2026-04-04T09:29:15.103Z</time></trkpt><trkpt lat="44.8318667" lon="9.0107317"><ele>325.0</ele><time>2026-04-04T09:29:16.105Z</time></trkpt><trkpt lat="44.831725" lon="9.0106483"><ele>325.0</ele><time>2026-04-04T09:29:17.104Z</time></trkpt><trkpt lat="44.831595" lon="9.01054"><ele>325.0</ele><time>2026-04-04T09:29:18.108Z</time></trkpt><trkpt lat="44.83147" lon="9.0104233"><ele>325.0</ele><time>2026-04-04T09:29:19.107Z</time></trkpt><trkpt lat="44.8313483" lon="9.0103067"><ele>325.0</ele><time>2026-04-04T09:29:20.104Z</time></trkpt><trkpt lat="44.831225" lon="9.0101917"><ele>325.0</ele><time>2026-04-04T09:29:21.099Z</time></trkpt><trkpt lat="44.8311" lon="9.01007"><ele>325.0</ele><time>2026-04-04T09:29:22.112Z</time></trkpt><trkpt lat="44.8309783" lon="9.009935"><ele>325.0</ele><time>2026-04-04T09:29:23.105Z</time></trkpt><trkpt lat="44.8308633" lon="9.00979"><ele>327.3333333333333</ele><time>2026-04-04T09:29:24.108Z</time></trkpt><trkpt lat="44.8307617" lon="9.009625"><ele>329.6666666666667</ele><time>2026-04-04T09:29:25.104Z</time></trkpt><trkpt lat="44.8306667" lon="9.0094467"><ele>332.0</ele><time>2026-04-04T09:29:26.104Z</time></trkpt><trkpt lat="44.83058" lon="9.0092483"><ele>331.6666666666667</ele><time>2026-04-04T09:29:27.102Z</time></trkpt><trkpt lat="44.8305017" lon="9.0090383"><ele>331.3333333333333</ele><time>2026-04-04T09:29:28.109Z</time></trkpt><trkpt lat="44.8304283" lon="9.0088267"><ele>331.0</ele><time>2026-04-04T09:29:29.106Z</time></trkpt><trkpt lat="44.8303533" lon="9.0086217"><ele>331.0</ele><time>2026-04-04T09:29:30.105Z</time></trkpt><trkpt lat="44.8302833" lon="9.008445"><ele>331.0</ele><time>2026-04-04T09:29:31.101Z</time></trkpt><trkpt lat="44.8302083" lon="9.0083233"><ele>331.0</ele><time>2026-04-04T09:29:32.101Z</time></trkpt><trkpt lat="44.8301267" lon="9.0082617"><ele>331.0</ele><time>2026-04-04T09:29:33.107Z</time></trkpt><trkpt lat="44.830045" lon="9.0082433"><ele>331.0</ele><time>2026-04-04T09:29:34.103Z</time></trkpt><trkpt lat="44.829965" lon="9.0082333"><ele>335.0</ele><time>2026-04-04T09:29:35.103Z</time></trkpt><trkpt lat="44.829885" lon="9.0082167"><ele>339.0</ele><time>2026-04-04T09:29:36.102Z</time></trkpt><trkpt lat="44.8298067" lon="9.00819"><ele>343.0</ele><time>2026-04-04T09:29:37.099Z</time></trkpt><trkpt lat="44.82973" lon="9.00815"><ele>347.0</ele><time>2026-04-04T09:29:38.106Z</time></trkpt><trkpt lat="44.8296583" lon="9.008085"><ele>351.0</ele><time>2026-04-04T09:29:39.1Z</time></trkpt><trkpt lat="44.8296083" lon="9.0079767"><ele>355.0</ele><time>2026-04-04T09:29:40.103Z</time></trkpt><trkpt lat="44.829555" lon="9.0078467"><ele>355.0</ele><time>2026-04-04T09:29:41.103Z</time></trkpt><trkpt lat="44.8294933" lon="9.0077117"><ele>355.0</ele><time>2026-04-04T09:29:42.101Z</time></trkpt><trkpt lat="44.8294217" lon="9.00758"><ele>355.0</ele><time>2026-04-04T09:29:43.102Z</time></trkpt><trkpt lat="44.829325" lon="9.0074767"><ele>355.0</ele><time>2026-04-04T09:29:44.101Z</time></trkpt><trkpt lat="44.829215" lon="9.0074183"><ele>358.4</ele><time>2026-04-04T09:29:45.107Z</time></trkpt><trkpt lat="44.8291083" lon="9.0074017"><ele>361.8</ele><time>2026-04-04T09:29:46.1Z</time></trkpt><trkpt lat="44.8290033" lon="9.0073967"><ele>365.20000000000005</ele><time>2026-04-04T09:29:47.102Z</time></trkpt><trkpt lat="44.8288883" lon="9.0073833"><ele>368.6</ele><time>2026-04-04T09:29:48.102Z</time></trkpt><trkpt lat="44.8287817" lon="9.0073417"><ele>372.0</ele><time>2026-04-04T09:29:49.115Z</time></trkpt><trkpt lat="44.82868" lon="9.00728"><ele>372.0</ele><time>2026-04-04T09:29:50.101Z</time></trkpt><trkpt lat="44.8285767" lon="9.0072083"><ele>372.0</ele><time>2026-04-04T09:29:51.101Z</time></trkpt><trkpt lat="44.8284733" lon="9.0071417"><ele>372.0</ele><time>2026-04-04T09:29:52.1Z</time></trkpt><trkpt lat="44.8283717" lon="9.0070917"><ele>372.0</ele><time>2026-04-04T09:29:53.104Z</time></trkpt><trkpt lat="44.8282817" lon="9.007045"><ele>372.0</ele><time>2026-04-04T09:29:54.099Z</time></trkpt><trkpt lat="44.828205" lon="9.0070017"><ele>372.8</ele><time>2026-04-04T09:29:55.103Z</time></trkpt><trkpt lat="44.8281367" lon="9.006955"><ele>373.6</ele><time>2026-04-04T09:29:56.103Z</time></trkpt><trkpt lat="44.8280883" lon="9.00684"><ele>374.40000000000003</ele><time>2026-04-04T09:29:58.098Z</time></trkpt><trkpt lat="44.8281567" lon="9.006775"><ele>375.20000000000005</ele><time>2026-04-04T09:29:59.106Z</time></trkpt><trkpt lat="44.828215" lon="9.0067383"><ele>376.0</ele><time>2026-04-04T09:30:00.101Z</time></trkpt><trkpt lat="44.828345" lon="9.0067883"><ele>376.0</ele><time>2026-04-04T09:30:02.099Z</time></trkpt><trkpt lat="44.8284433" lon="9.00684"><ele>376.0</ele><time>2026-04-04T09:30:04.099Z</time></trkpt><trkpt lat="44.82855" lon="9.0068783"><ele>376.0</ele><time>2026-04-04T09:31:00.102Z</time></trkpt><trkpt lat="44.8286633" lon="9.0069533"><ele>376.0</ele><time>2026-04-04T09:31:02.101Z</time></trkpt><trkpt lat="44.8287233" lon="9.0069967"><ele>376.0</ele><time>2026-04-04T09:31:03.105Z</time></trkpt><trkpt lat="44.8287833" lon="9.0070333"><ele>375.20000000000005</ele><time>2026-04-04T09:31:04.103Z</time></trkpt><trkpt lat="44.8288983" lon="9.007065"><ele>374.40000000000003</ele><time>2026-04-04T09:31:06.101Z</time></trkpt><trkpt lat="44.8289983" lon="9.0070167"><ele>373.6</ele><time>2026-04-04T09:31:08.103Z</time></trkpt><trkpt lat="44.8290267" lon="9.0068333"><ele>372.8</ele><time>2026-04-04T09:31:10.104Z</time></trkpt><trkpt lat="44.8290167" lon="9.0067417"><ele>372.0</ele><time>2026-04-04T09:31:11.105Z</time></trkpt><trkpt lat="44.8289783" lon="9.0066667"><ele>372.1666666666667</ele><time>2026-04-04T09:31:12.105Z</time></trkpt><trkpt lat="44.8289267" lon="9.0066017"><ele>372.3333333333333</ele><time>2026-04-04T09:31:13.101Z</time></trkpt><trkpt lat="44.8288683" lon="9.0065483"><ele>372.5</ele><time>2026-04-04T09:31:14.101Z</time></trkpt><trkpt lat="44.828815" lon="9.0065"><ele>372.66666666666663</ele><time>2026-04-04T09:31:15.1Z</time></trkpt><trkpt lat="44.828735" lon="9.0063967"><ele>372.8333333333333</ele><time>2026-04-04T09:31:17.102Z</time></trkpt><trkpt lat="44.8286967" lon="9.0063"><ele>373.0</ele><time>2026-04-04T09:31:19.103Z</time></trkpt><trkpt lat="44.8287383" lon="9.006185"><ele>373.0</ele><time>2026-04-04T09:31:21.1Z</time></trkpt><trkpt lat="44.8287783" lon="9.006055"><ele>373.0</ele><time>2026-04-04T09:31:23.101Z</time></trkpt><trkpt lat="44.8288067" lon="9.00588"><ele>373.0</ele><time>2026-04-04T09:31:25.1Z</time></trkpt><trkpt lat="44.8288067" lon="9.00579"><ele>373.0</ele><time>2026-04-04T09:31:26.1Z</time></trkpt><trkpt lat="44.8287917" lon="9.005695"><ele>373.0</ele><time>2026-04-04T09:31:27.105Z</time></trkpt><trkpt lat="44.8287633" lon="9.0056067"><ele>373.0</ele><time>2026-04-04T09:31:28.102Z</time></trkpt><trkpt lat="44.8287217" lon="9.0055233"><ele>375.2</ele><time>2026-04-04T09:31:29.1Z</time></trkpt><trkpt lat="44.82868" lon="9.0054433"><ele>377.4</ele><time>2026-04-04T09:31:30.106Z</time></trkpt><trkpt lat="44.82863" lon="9.0053733"><ele>379.59999999999997</ele><time>2026-04-04T09:31:31.104Z</time></trkpt><trkpt lat="44.8285867" lon="9.0053033"><ele>381.79999999999995</ele><time>2026-04-04T09:31:32.103Z</time></trkpt><trkpt lat="44.8284917" lon="9.0051867"><ele>384.0</ele><time>2026-04-04T09:31:34.108Z</time></trkpt><trkpt lat="44.82838" lon="9.00511"><ele>383.99999999999994</ele><time>2026-04-04T09:31:36.098Z</time></trkpt><trkpt lat="44.8283217" lon="9.00507"><ele>384.0</ele><time>2026-04-04T09:31:37.102Z</time></trkpt><trkpt lat="44.82826" lon="9.005025"><ele>384.0</ele><time>2026-04-04T09:31:38.1Z</time></trkpt><trkpt lat="44.8282" lon="9.0049833"><ele>384.0</ele><time>2026-04-04T09:31:39.099Z</time></trkpt><trkpt lat="44.8281283" lon="9.0049683"><ele>384.0</ele><time>2026-04-04T09:31:40.105Z</time></trkpt><trkpt lat="44.82805" lon="9.0049633"><ele>383.99999999999994</ele><time>2026-04-04T09:31:41.102Z</time></trkpt><trkpt lat="44.8279733" lon="9.0049767"><ele>384.0</ele><time>2026-04-04T09:31:42.103Z</time></trkpt><trkpt lat="44.8278967" lon="9.0050117"><ele>384.0</ele><time>2026-04-04T09:31:43.104Z</time></trkpt><trkpt lat="44.8278217" lon="9.005055"><ele>384.0</ele><time>2026-04-04T09:31:44.107Z</time></trkpt><trkpt lat="44.827745" lon="9.0050967"><ele>384.0</ele><time>2026-04-04T09:31:45.107Z</time></trkpt><trkpt lat="44.82767" lon="9.0051333"><ele>384.0</ele><time>2026-04-04T09:31:46.102Z</time></trkpt><trkpt lat="44.8275967" lon="9.0051583"><ele>384.0</ele><time>2026-04-04T09:31:47.105Z</time></trkpt><trkpt lat="44.82752" lon="9.005165"><ele>384.0</ele><time>2026-04-04T09:31:48.102Z</time></trkpt><trkpt lat="44.8274417" lon="9.0051683"><ele>381.4</ele><time>2026-04-04T09:31:49.1Z</time></trkpt><trkpt lat="44.8273567" lon="9.00516"><ele>378.79999999999995</ele><time>2026-04-04T09:31:50.106Z</time></trkpt><trkpt lat="44.827265" lon="9.0051317"><ele>376.20000000000005</ele><time>2026-04-04T09:31:51.103Z</time></trkpt><trkpt lat="44.82717" lon="9.0051083"><ele>373.6</ele><time>2026-04-04T09:31:52.097Z</time></trkpt><trkpt lat="44.82708" lon="9.0050817"><ele>371.0</ele><time>2026-04-04T09:31:53.106Z</time></trkpt><trkpt lat="44.8269983" lon="9.0050683"><ele>371.0</ele><time>2026-04-04T09:31:54.099Z</time></trkpt><trkpt lat="44.826925" lon="9.0050683"><ele>371.0</ele><time>2026-04-04T09:31:55.104Z</time></trkpt><trkpt lat="44.8268533" lon="9.00507"><ele>371.0</ele><time>2026-04-04T09:31:56.098Z</time></trkpt><trkpt lat="44.8267767" lon="9.0050733"><ele>371.0</ele><time>2026-04-04T09:31:57.1Z</time></trkpt><trkpt lat="44.8267083" lon="9.0050933"><ele>371.0</ele><time>2026-04-04T09:31:58.1Z</time></trkpt><trkpt lat="44.826645" lon="9.005125"><ele>371.0</ele><time>2026-04-04T09:31:59.1Z</time></trkpt><trkpt lat="44.8265217" lon="9.0051383"><ele>369.0</ele><time>2026-04-04T09:32:01.101Z</time></trkpt><trkpt lat="44.8264717" lon="9.00508"><ele>367.0</ele><time>2026-04-04T09:32:02.101Z</time></trkpt><trkpt lat="44.826435" lon="9.0049417"><ele>365.0</ele><time>2026-04-04T09:32:04.097Z</time></trkpt><trkpt lat="44.8264333" lon="9.00477"><ele>363.0</ele><time>2026-04-04T09:32:06.101Z</time></trkpt><trkpt lat="44.826475" lon="9.00467"><ele>361.0</ele><time>2026-04-04T09:32:07.105Z</time></trkpt><trkpt lat="44.8265167" lon="9.0045733"><ele>360.75</ele><time>2026-04-04T09:32:08.101Z</time></trkpt><trkpt lat="44.8265717" lon="9.00448"><ele>360.5</ele><time>2026-04-04T09:32:09.1Z</time></trkpt><trkpt lat="44.8266867" lon="9.0043683"><ele>360.25</ele><time>2026-04-04T09:32:10.1Z</time></trkpt><trkpt lat="44.8268017" lon="9.0042567"><ele>360.0</ele><time>2026-04-04T09:32:11.105Z</time></trkpt><trkpt lat="44.8269067" lon="9.0041633"><ele>356.0</ele><time>2026-04-04T09:32:12.101Z</time></trkpt><trkpt lat="44.82702" lon="9.004055"><ele>352.0</ele><time>2026-04-04T09:32:13.108Z</time></trkpt><trkpt lat="44.8271233" lon="9.00394"><ele>348.0</ele><time>2026-04-04T09:32:14.098Z</time></trkpt><trkpt lat="44.8272383" lon="9.0038383"><ele>344.0</ele><time>2026-04-04T09:32:15.1Z</time></trkpt><trkpt lat="44.82734" lon="9.0037383"><ele>344.0</ele><time>2026-04-04T09:32:16.097Z</time></trkpt><trkpt lat="44.82745" lon="9.00363"><ele>344.0</ele><time>2026-04-04T09:32:17.099Z</time></trkpt><trkpt lat="44.8275433" lon="9.00352"><ele>344.0</ele><time>2026-04-04T09:32:18.1Z</time></trkpt><trkpt lat="44.82764" lon="9.003415"><ele>344.0</ele><time>2026-04-04T09:32:19.102Z</time></trkpt><trkpt lat="44.8277383" lon="9.00331"><ele>341.75</ele><time>2026-04-04T09:32:20.099Z</time></trkpt><trkpt lat="44.82784" lon="9.00321"><ele>339.5</ele><time>2026-04-04T09:32:21.1Z</time></trkpt><trkpt lat="44.8279417" lon="9.003105"><ele>337.25</ele><time>2026-04-04T09:32:22.103Z</time></trkpt><trkpt lat="44.8280467" lon="9.0030083"><ele>335.0</ele><time>2026-04-04T09:32:23.104Z</time></trkpt><trkpt lat="44.8281517" lon="9.0029033"><ele>335.0</ele><time>2026-04-04T09:32:24.101Z</time></trkpt><trkpt lat="44.8282517" lon="9.0027883"><ele>335.0</ele><time>2026-04-04T09:32:25.1Z</time></trkpt><trkpt lat="44.828355" lon="9.0026683"><ele>335.0</ele><time>2026-04-04T09:32:26.102Z</time></trkpt><trkpt lat="44.828455" lon="9.0025267"><ele>335.0</ele><time>2026-04-04T09:32:27.103Z</time></trkpt><trkpt lat="44.8285467" lon="9.0023683"><ele>336.75</ele><time>2026-04-04T09:32:28.102Z</time></trkpt><trkpt lat="44.8286333" lon="9.0022083"><ele>338.5</ele><time>2026-04-04T09:32:29.101Z</time></trkpt><trkpt lat="44.8287117" lon="9.002045"><ele>340.25</ele><time>2026-04-04T09:32:30.102Z</time></trkpt><trkpt lat="44.8287917" lon="9.0018917"><ele>342.0</ele><time>2026-04-04T09:32:31.102Z</time></trkpt><trkpt lat="44.82887" lon="9.001745"><ele>341.0</ele><time>2026-04-04T09:32:32.102Z</time></trkpt><trkpt lat="44.8289433" lon="9.0015967"><ele>340.0</ele><time>2026-04-04T09:32:33.102Z</time></trkpt><trkpt lat="44.8290133" lon="9.0014483"><ele>339.0</ele><time>2026-04-04T09:32:34.099Z</time></trkpt><trkpt lat="44.8290717" lon="9.0012883"><ele>338.0</ele><time>2026-04-04T09:32:35.101Z</time></trkpt><trkpt lat="44.8291167" lon="9.0011117"><ele>338.0</ele><time>2026-04-04T09:32:36.102Z</time></trkpt><trkpt lat="44.8291533" lon="9.0009367"><ele>338.0</ele><time>2026-04-04T09:32:37.104Z</time></trkpt><trkpt lat="44.8291867" lon="9.0007567"><ele>338.0</ele><time>2026-04-04T09:32:38.107Z</time></trkpt><trkpt lat="44.82921" lon="9.0005783"><ele>338.0</ele><time>2026-04-04T09:32:39.099Z</time></trkpt><trkpt lat="44.8292167" lon="9.0004033"><ele>337.75</ele><time>2026-04-04T09:32:40.099Z</time></trkpt><trkpt lat="44.8292167" lon="9.0002267"><ele>337.5</ele><time>2026-04-04T09:32:41.1Z</time></trkpt><trkpt lat="44.829215" lon="9.00004"><ele>337.25</ele><time>2026-04-04T09:32:42.1Z</time></trkpt><trkpt lat="44.8292117" lon="8.9998483"><ele>337.0</ele><time>2026-04-04T09:32:43.101Z</time></trkpt><trkpt lat="44.8292033" lon="8.9996467"><ele>337.0</ele><time>2026-04-04T09:32:44.099Z</time></trkpt><trkpt lat="44.829195" lon="8.9994383"><ele>337.0</ele><time>2026-04-04T09:32:45.099Z</time></trkpt><trkpt lat="44.829195" lon="8.9992317"><ele>337.0</ele><time>2026-04-04T09:32:46.1Z</time></trkpt><trkpt lat="44.8292" lon="8.9990317"><ele>337.0</ele><time>2026-04-04T09:32:47.104Z</time></trkpt><trkpt lat="44.8292033" lon="8.9988633"><ele>336.25</ele><time>2026-04-04T09:32:48.099Z</time></trkpt><trkpt lat="44.8291933" lon="8.9986867"><ele>335.5</ele><time>2026-04-04T09:32:49.101Z</time></trkpt><trkpt lat="44.829175" lon="8.9985067"><ele>334.75</ele><time>2026-04-04T09:32:50.1Z</time></trkpt><trkpt lat="44.8291467" lon="8.9983367"><ele>334.0</ele><time>2026-04-04T09:32:51.107Z</time></trkpt><trkpt lat="44.8291117" lon="8.9981967"><ele>331.5</ele><time>2026-04-04T09:32:52.103Z</time></trkpt><trkpt lat="44.82904" lon="8.9980867"><ele>329.0</ele><time>2026-04-04T09:32:53.104Z</time></trkpt><trkpt lat="44.8289467" lon="8.9979967"><ele>326.5</ele><time>2026-04-04T09:32:54.104Z</time></trkpt><trkpt lat="44.8288433" lon="8.99791"><ele>324.0</ele><time>2026-04-04T09:32:55.101Z</time></trkpt><trkpt lat="44.8287233" lon="8.9978333"><ele>324.0</ele><time>2026-04-04T09:32:56.105Z</time></trkpt><trkpt lat="44.8286017" lon="8.99776"><ele>324.0</ele><time>2026-04-04T09:32:57.103Z</time></trkpt><trkpt lat="44.8284833" lon="8.9976817"><ele>324.0</ele><time>2026-04-04T09:32:58.101Z</time></trkpt><trkpt lat="44.8283667" lon="8.9975983"><ele>324.0</ele><time>2026-04-04T09:32:59.106Z</time></trkpt><trkpt lat="44.8282483" lon="8.9975117"><ele>321.4</ele><time>2026-04-04T09:33:00.102Z</time></trkpt><trkpt lat="44.8281433" lon="8.9974217"><ele>318.79999999999995</ele><time>2026-04-04T09:33:01.1Z</time></trkpt><trkpt lat="44.828065" lon="8.9973283"><ele>316.20000000000005</ele><time>2026-04-04T09:33:02.105Z</time></trkpt><trkpt lat="44.8280117" lon="8.9972233"><ele>313.6</ele><time>2026-04-04T09:33:03.101Z</time></trkpt><trkpt lat="44.8279767" lon="8.9971033"><ele>311.0</ele><time>2026-04-04T09:33:04.103Z</time></trkpt><trkpt lat="44.8279567" lon="8.9969717"><ele>311.0</ele><time>2026-04-04T09:33:05.098Z</time></trkpt><trkpt lat="44.8279617" lon="8.9968433"><ele>311.0</ele><time>2026-04-04T09:33:06.101Z</time></trkpt><trkpt lat="44.8279817" lon="8.9967067"><ele>311.0</ele><time>2026-04-04T09:33:07.098Z</time></trkpt><trkpt lat="44.828015" lon="8.9965567"><ele>311.0</ele><time>2026-04-04T09:33:08.099Z</time></trkpt><trkpt lat="44.8280533" lon="8.9964017"><ele>311.0</ele><time>2026-04-04T09:33:09.1Z</time></trkpt><trkpt lat="44.828095" lon="8.9962417"><ele>309.75</ele><time>2026-04-04T09:33:10.102Z</time></trkpt><trkpt lat="44.82813" lon="8.99608"><ele>308.5</ele><time>2026-04-04T09:33:11.101Z</time></trkpt><trkpt lat="44.82817" lon="8.995925"><ele>307.25</ele><time>2026-04-04T09:33:12.101Z</time></trkpt><trkpt lat="44.8282083" lon="8.9957717"><ele>306.0</ele><time>2026-04-04T09:33:13.1Z</time></trkpt><trkpt lat="44.8282333" lon="8.99561"><ele>303.75</ele><time>2026-04-04T09:33:14.1Z</time></trkpt><trkpt lat="44.8282433" lon="8.9954483"><ele>301.5</ele><time>2026-04-04T09:33:15.104Z</time></trkpt><trkpt lat="44.8282367" lon="8.9952833"><ele>299.25</ele><time>2026-04-04T09:33:16.102Z</time></trkpt><trkpt lat="44.8282133" lon="8.9951183"><ele>297.0</ele><time>2026-04-04T09:33:17.101Z</time></trkpt><trkpt lat="44.8281883" lon="8.9949567"><ele>295.6</ele><time>2026-04-04T09:33:18.105Z</time></trkpt><trkpt lat="44.8281583" lon="8.9947933"><ele>294.2</ele><time>2026-04-04T09:33:19.102Z</time></trkpt><trkpt lat="44.8281233" lon="8.9946333"><ele>292.8</ele><time>2026-04-04T09:33:20.099Z</time></trkpt><trkpt lat="44.82809" lon="8.9944817"><ele>291.4</ele><time>2026-04-04T09:33:21.099Z</time></trkpt><trkpt lat="44.8280583" lon="8.9943633"><ele>290.0</ele><time>2026-04-04T09:33:22.099Z</time></trkpt><trkpt lat="44.8280133" lon="8.99427"><ele>290.0</ele><time>2026-04-04T09:33:23.106Z</time></trkpt><trkpt lat="44.8279517" lon="8.9942167"><ele>290.0</ele><time>2026-04-04T09:33:24.099Z</time></trkpt><trkpt lat="44.827885" lon="8.9941967"><ele>290.0</ele><time>2026-04-04T09:33:25.102Z</time></trkpt><trkpt lat="44.8278183" lon="8.9942117"><ele>290.0</ele><time>2026-04-04T09:33:26.1Z</time></trkpt><trkpt lat="44.8277483" lon="8.99423"><ele>290.0</ele><time>2026-04-04T09:33:27.1Z</time></trkpt><trkpt lat="44.8276817" lon="8.9942383"><ele>290.0</ele><time>2026-04-04T09:33:28.1Z</time></trkpt><trkpt lat="44.8276133" lon="8.99423"><ele>290.0</ele><time>2026-04-04T09:33:29.103Z</time></trkpt><trkpt lat="44.827545" lon="8.9941183"><ele>289.2</ele><time>2026-04-04T09:33:31.102Z</time></trkpt><trkpt lat="44.8275883" lon="8.9939433"><ele>288.4</ele><time>2026-04-04T09:33:33.1Z</time></trkpt><trkpt lat="44.8276433" lon="8.9938533"><ele>287.6</ele><time>2026-04-04T09:33:34.105Z</time></trkpt><trkpt lat="44.827715" lon="8.993775"><ele>286.8</ele><time>2026-04-04T09:33:35.101Z</time></trkpt><trkpt lat="44.8277867" lon="8.993695"><ele>286.0</ele><time>2026-04-04T09:33:36.1Z</time></trkpt><trkpt lat="44.827845" lon="8.9936117"><ele>285.4285714285714</ele><time>2026-04-04T09:33:37.103Z</time></trkpt><trkpt lat="44.8278883" lon="8.9935267"><ele>284.85714285714283</ele><time>2026-04-04T09:33:38.101Z</time></trkpt><trkpt lat="44.82792" lon="8.9934317"><ele>284.2857142857143</ele><time>2026-04-04T09:33:39.104Z</time></trkpt><trkpt lat="44.82794" lon="8.99333"><ele>283.71428571428567</ele><time>2026-04-04T09:33:40.102Z</time></trkpt><trkpt lat="44.8279383" lon="8.9932283"><ele>283.1428571428571</ele><time>2026-04-04T09:33:41.103Z</time></trkpt><trkpt lat="44.8279233" lon="8.9931317"><ele>282.57142857142856</ele><time>2026-04-04T09:33:42.103Z</time></trkpt><trkpt lat="44.8278617" lon="8.9930833"><ele>282.0</ele><time>2026-04-04T09:33:43.102Z</time></trkpt><trkpt lat="44.8277833" lon="8.9930667"><ele>281.3333333333333</ele><time>2026-04-04T09:33:44.1Z</time></trkpt><trkpt lat="44.8277017" lon="8.993065"><ele>280.6666666666667</ele><time>2026-04-04T09:33:45.101Z</time></trkpt><trkpt lat="44.82762" lon="8.99307"><ele>280.0</ele><time>2026-04-04T09:33:46.103Z</time></trkpt><trkpt lat="44.8275333" lon="8.993095"><ele>279.33333333333337</ele><time>2026-04-04T09:33:47.102Z</time></trkpt><trkpt lat="44.8274517" lon="8.99314"><ele>278.6666666666667</ele><time>2026-04-04T09:33:48.1Z</time></trkpt><trkpt lat="44.8273667" lon="8.9932217"><ele>278.0</ele><time>2026-04-04T09:33:49.106Z</time></trkpt><trkpt lat="44.8272983" lon="8.9933083"><ele>279.33333333333337</ele><time>2026-04-04T09:33:50.1Z</time></trkpt><trkpt lat="44.827235" lon="8.993395"><ele>280.6666666666667</ele><time>2026-04-04T09:33:51.102Z</time></trkpt><trkpt lat="44.827175" lon="8.993475"><ele>282.0</ele><time>2026-04-04T09:33:52.1Z</time></trkpt><trkpt lat="44.8271167" lon="8.993555"><ele>283.3333333333333</ele><time>2026-04-04T09:33:53.102Z</time></trkpt><trkpt lat="44.8270633" lon="8.99362"><ele>284.66666666666663</ele><time>2026-04-04T09:33:54.101Z</time></trkpt><trkpt lat="44.8269567" lon="8.9936933"><ele>286.0</ele><time>2026-04-04T09:33:56.102Z</time></trkpt><trkpt lat="44.8268417" lon="8.9936833"><ele>284.40000000000003</ele><time>2026-04-04T09:33:58.1Z</time></trkpt><trkpt lat="44.8267817" lon="8.9935333"><ele>282.8</ele><time>2026-04-04T09:34:00.101Z</time></trkpt><trkpt lat="44.8267933" lon="8.9933417"><ele>281.20000000000005</ele><time>2026-04-04T09:34:02.103Z</time></trkpt><trkpt lat="44.826825" lon="8.993225"><ele>279.6</ele><time>2026-04-04T09:34:03.103Z</time></trkpt><trkpt lat="44.8268617" lon="8.9931133"><ele>278.0</ele><time>2026-04-04T09:34:04.1Z</time></trkpt><trkpt lat="44.8269017" lon="8.993005"><ele>278.0</ele><time>2026-04-04T09:34:05.103Z</time></trkpt><trkpt lat="44.826955" lon="8.992905"><ele>278.0</ele><time>2026-04-04T09:34:06.103Z</time></trkpt><trkpt lat="44.8270067" lon="8.9928067"><ele>278.0</ele><time>2026-04-04T09:34:07.106Z</time></trkpt><trkpt lat="44.8270517" lon="8.9927133"><ele>278.0</ele><time>2026-04-04T09:34:08.101Z</time></trkpt><trkpt lat="44.8270767" lon="8.99262"><ele>278.0</ele><time>2026-04-04T09:34:09.102Z</time></trkpt><trkpt lat="44.8270867" lon="8.9925133"><ele>278.0</ele><time>2026-04-04T09:34:10.103Z</time></trkpt><trkpt lat="44.8270717" lon="8.9924"><ele>276.1666666666667</ele><time>2026-04-04T09:34:11.11Z</time></trkpt><trkpt lat="44.8270317" lon="8.992295"><ele>274.33333333333337</ele><time>2026-04-04T09:34:12.098Z</time></trkpt><trkpt lat="44.8269817" lon="8.9922083"><ele>272.5</ele><time>2026-04-04T09:34:13.102Z</time></trkpt><trkpt lat="44.826935" lon="8.9921167"><ele>270.6666666666667</ele><time>2026-04-04T09:34:14.103Z</time></trkpt><trkpt lat="44.82689" lon="8.9920217"><ele>268.8333333333333</ele><time>2026-04-04T09:34:15.101Z</time></trkpt><trkpt lat="44.8268383" lon="8.991935"><ele>267.0</ele><time>2026-04-04T09:34:16.102Z</time></trkpt><trkpt lat="44.826785" lon="8.9918633"><ele>265.6</ele><time>2026-04-04T09:34:17.097Z</time></trkpt><trkpt lat="44.82673" lon="8.9918117"><ele>264.2</ele><time>2026-04-04T09:34:18.103Z</time></trkpt><trkpt lat="44.8265983" lon="8.9918183"><ele>262.8</ele><time>2026-04-04T09:34:20.102Z</time></trkpt><trkpt lat="44.826535" lon="8.991875"><ele>261.4</ele><time>2026-04-04T09:34:21.103Z</time></trkpt><trkpt lat="44.82648" lon="8.9919717"><ele>260.0</ele><time>2026-04-04T09:34:22.1Z</time></trkpt><trkpt lat="44.82643" lon="8.9920817"><ele>260.0</ele><time>2026-04-04T09:34:23.104Z</time></trkpt><trkpt lat="44.8263833" lon="8.9922133"><ele>260.0</ele><time>2026-04-04T09:34:24.107Z</time></trkpt><trkpt lat="44.8263367" lon="8.9923367"><ele>260.0</ele><time>2026-04-04T09:34:25.107Z</time></trkpt><trkpt lat="44.8262917" lon="8.9924517"><ele>260.0</ele><time>2026-04-04T09:34:26.098Z</time></trkpt><trkpt lat="44.8262533" lon="8.99256"><ele>260.0</ele><time>2026-04-04T09:34:27.109Z</time></trkpt><trkpt lat="44.8262133" lon="8.9926517"><ele>261.0</ele><time>2026-04-04T09:34:28.102Z</time></trkpt><trkpt lat="44.8261733" lon="8.9927283"><ele>262.0</ele><time>2026-04-04T09:34:29.104Z</time></trkpt><trkpt lat="44.82608" lon="8.99279"><ele>263.0</ele><time>2026-04-04T09:34:31.106Z</time></trkpt><trkpt lat="44.8260117" lon="8.9927717"><ele>264.0</ele><time>2026-04-04T09:34:32.104Z</time></trkpt><trkpt lat="44.8259383" lon="8.992695"><ele>265.0</ele><time>2026-04-04T09:34:33.101Z</time></trkpt><trkpt lat="44.8259033" lon="8.99262"><ele>266.0</ele><time>2026-04-04T09:34:34.102Z</time></trkpt><trkpt lat="44.8258833" lon="8.9925133"><ele>260.5</ele><time>2026-04-04T09:34:35.109Z</time></trkpt><trkpt lat="44.825895" lon="8.992375"><ele>255.0</ele><time>2026-04-04T09:34:36.102Z</time></trkpt><trkpt lat="44.82591" lon="8.9922033"><ele>249.5</ele><time>2026-04-04T09:34:37.108Z</time></trkpt><trkpt lat="44.825925" lon="8.9920017"><ele>244.0</ele><time>2026-04-04T09:34:38.102Z</time></trkpt><trkpt lat="44.8259367" lon="8.991815"><ele>242.79999999999998</ele><time>2026-04-04T09:34:39.102Z</time></trkpt><trkpt lat="44.8259317" lon="8.99166"><ele>241.59999999999997</ele><time>2026-04-04T09:34:40.103Z</time></trkpt><trkpt lat="44.82592" lon="8.9915117"><ele>240.4</ele><time>2026-04-04T09:34:41.106Z</time></trkpt><trkpt lat="44.82591" lon="8.9913633"><ele>239.2</ele><time>2026-04-04T09:34:42.099Z</time></trkpt><trkpt lat="44.8259083" lon="8.991215"><ele>238.0</ele><time>2026-04-04T09:34:43.107Z</time></trkpt><trkpt lat="44.8259183" lon="8.9910683"><ele>238.0</ele><time>2026-04-04T09:34:44.101Z</time></trkpt><trkpt lat="44.825945" lon="8.9909217"><ele>238.0</ele><time>2026-04-04T09:34:45.102Z</time></trkpt><trkpt lat="44.8259767" lon="8.990775"><ele>238.0</ele><time>2026-04-04T09:34:46.102Z</time></trkpt><trkpt lat="44.8260083" lon="8.9906333"><ele>238.0</ele><time>2026-04-04T09:34:47.105Z</time></trkpt><trkpt lat="44.8260417" lon="8.990505"><ele>238.0</ele><time>2026-04-04T09:34:48.105Z</time></trkpt><trkpt lat="44.8260867" lon="8.9903883"><ele>238.8</ele><time>2026-04-04T09:34:49.105Z</time></trkpt><trkpt lat="44.82614" lon="8.9902833"><ele>239.60000000000002</ele><time>2026-04-04T09:34:50.1Z</time></trkpt><trkpt lat="44.8262117" lon="8.990185"><ele>240.39999999999998</ele><time>2026-04-04T09:34:51.101Z</time></trkpt><trkpt lat="44.8262917" lon="8.9901"><ele>241.2</ele><time>2026-04-04T09:34:52.103Z</time></trkpt><trkpt lat="44.826375" lon="8.99003"><ele>242.0</ele><time>2026-04-04T09:34:53.103Z</time></trkpt><trkpt lat="44.8264617" lon="8.98997"><ele>240.33333333333334</ele><time>2026-04-04T09:34:54.105Z</time></trkpt><trkpt lat="44.8265433" lon="8.9899183"><ele>238.66666666666669</ele><time>2026-04-04T09:34:55.105Z</time></trkpt><trkpt lat="44.826615" lon="8.9898633"><ele>237.0</ele><time>2026-04-04T09:34:56.101Z</time></trkpt><trkpt lat="44.826675" lon="8.9897967"><ele>235.33333333333331</ele><time>2026-04-04T09:34:57.101Z</time></trkpt><trkpt lat="44.8267217" lon="8.98971"><ele>233.66666666666666</ele><time>2026-04-04T09:34:58.099Z</time></trkpt><trkpt lat="44.82674" lon="8.989595"><ele>232.0</ele><time>2026-04-04T09:34:59.101Z</time></trkpt><trkpt lat="44.8267333" lon="8.989445"><ele>232.0</ele><time>2026-04-04T09:35:00.101Z</time></trkpt><trkpt lat="44.8267183" lon="8.989295"><ele>232.0</ele><time>2026-04-04T09:35:01.103Z</time></trkpt><trkpt lat="44.8266917" lon="8.9891083"><ele>232.0</ele><time>2026-04-04T09:35:02.102Z</time></trkpt><trkpt lat="44.8266733" lon="8.9889383"><ele>232.0</ele><time>2026-04-04T09:35:03.1Z</time></trkpt><trkpt lat="44.8266633" lon="8.9887717"><ele>230.0</ele><time>2026-04-04T09:35:04.101Z</time></trkpt><trkpt lat="44.826655" lon="8.9886017"><ele>228.0</ele><time>2026-04-04T09:35:05.102Z</time></trkpt><trkpt lat="44.8266433" lon="8.988435"><ele>226.0</ele><time>2026-04-04T09:35:06.1Z</time></trkpt><trkpt lat="44.8266283" lon="8.9882717"><ele>224.0</ele><time>2026-04-04T09:35:07.106Z</time></trkpt><trkpt lat="44.82662" lon="8.98811"><ele>222.83333333333334</ele><time>2026-04-04T09:35:08.102Z</time></trkpt><trkpt lat="44.8266117" lon="8.9879633"><ele>221.66666666666669</ele><time>2026-04-04T09:35:09.108Z</time></trkpt><trkpt lat="44.8266067" lon="8.9878483"><ele>220.5</ele><time>2026-04-04T09:35:10.104Z</time></trkpt><trkpt lat="44.8265883" lon="8.9876983"><ele>219.33333333333331</ele><time>2026-04-04T09:35:12.103Z</time></trkpt><trkpt lat="44.8265183" lon="8.987735"><ele>218.16666666666666</ele><time>2026-04-04T09:35:22.1Z</time></trkpt><trkpt lat="44.8265033" lon="8.987845"><ele>217.0</ele><time>2026-04-04T09:35:23.102Z</time></trkpt><trkpt lat="44.826495" lon="8.9879633"><ele>217.0</ele><time>2026-04-04T09:35:24.108Z</time></trkpt><trkpt lat="44.8264917" lon="8.9880933"><ele>217.0</ele><time>2026-04-04T09:35:25.101Z</time></trkpt><trkpt lat="44.826475" lon="8.9882433"><ele>217.0</ele><time>2026-04-04T09:35:26.1Z</time></trkpt><trkpt lat="44.82644" lon="8.9884083"><ele>217.0</ele><time>2026-04-04T09:35:27.1Z</time></trkpt><trkpt lat="44.826385" lon="8.9885767"><ele>218.75</ele><time>2026-04-04T09:35:28.101Z</time></trkpt><trkpt lat="44.8263133" lon="8.9887367"><ele>220.5</ele><time>2026-04-04T09:35:29.101Z</time></trkpt><trkpt lat="44.8262267" lon="8.988895"><ele>222.25</ele><time>2026-04-04T09:35:30.1Z</time></trkpt><trkpt lat="44.8261317" lon="8.9890483"><ele>224.0</ele><time>2026-04-04T09:35:31.102Z</time></trkpt><trkpt lat="44.826025" lon="8.98919"><ele>223.75</ele><time>2026-04-04T09:35:32.106Z</time></trkpt><trkpt lat="44.8259117" lon="8.98931"><ele>223.5</ele><time>2026-04-04T09:35:33.104Z</time></trkpt><trkpt lat="44.8257867" lon="8.9894183"><ele>223.25</ele><time>2026-04-04T09:35:34.105Z</time></trkpt><trkpt lat="44.8256483" lon="8.9895017"><ele>223.0</ele><time>2026-04-04T09:35:35.1Z</time></trkpt><trkpt lat="44.8255" lon="8.9895583"><ele>223.0</ele><time>2026-04-04T09:35:36.101Z</time></trkpt><trkpt lat="44.8253467" lon="8.9895967"><ele>223.0</ele><time>2026-04-04T09:35:37.106Z</time></trkpt><trkpt lat="44.82519" lon="8.9896283"><ele>223.0</ele><time>2026-04-04T09:35:38.1Z</time></trkpt><trkpt lat="44.82503" lon="8.9896583"><ele>221.33333333333331</ele><time>2026-04-04T09:35:39.104Z</time></trkpt><trkpt lat="44.8248633" lon="8.9896867"><ele>219.66666666666669</ele><time>2026-04-04T09:35:40.1Z</time></trkpt><trkpt lat="44.8246967" lon="8.9896967"><ele>218.0</ele><time>2026-04-04T09:35:41.105Z</time></trkpt><trkpt lat="44.824535" lon="8.9896867"><ele>218.0</ele><time>2026-04-04T09:35:42.099Z</time></trkpt><trkpt lat="44.8243767" lon="8.9896483"><ele>218.0</ele><time>2026-04-04T09:35:43.111Z</time></trkpt><trkpt lat="44.8242283" lon="8.98958"><ele>218.0</ele><time>2026-04-04T09:35:44.101Z</time></trkpt><trkpt lat="44.8240833" lon="8.98949"><ele>217.33333333333334</ele><time>2026-04-04T09:35:45.102Z</time></trkpt><trkpt lat="44.8239333" lon="8.9893817"><ele>216.66666666666669</ele><time>2026-04-04T09:35:46.102Z</time></trkpt><trkpt lat="44.82378" lon="8.98927"><ele>216.0</ele><time>2026-04-04T09:35:47.1Z</time></trkpt><trkpt lat="44.8236217" lon="8.9891583"><ele>217.33333333333331</ele><time>2026-04-04T09:35:48.103Z</time></trkpt><trkpt lat="44.82346" lon="8.9890383"><ele>218.66666666666666</ele><time>2026-04-04T09:35:49.101Z</time></trkpt><trkpt lat="44.8232933" lon="8.9889183"><ele>220.0</ele><time>2026-04-04T09:35:50.1Z</time></trkpt><trkpt lat="44.8231217" lon="8.9887983"><ele>220.0</ele><time>2026-04-04T09:35:51.099Z</time></trkpt><trkpt lat="44.82295" lon="8.9886783"><ele>220.0</ele><time>2026-04-04T09:35:52.099Z</time></trkpt><trkpt lat="44.82278" lon="8.9885583"><ele>220.0</ele><time>2026-04-04T09:35:53.099Z</time></trkpt><trkpt lat="44.8226083" lon="8.98843"><ele>220.33333333333331</ele><time>2026-04-04T09:35:54.101Z</time></trkpt><trkpt lat="44.82243" lon="8.9883067"><ele>220.66666666666669</ele><time>2026-04-04T09:35:55.104Z</time></trkpt><trkpt lat="44.8222517" lon="8.9881833"><ele>221.0</ele><time>2026-04-04T09:35:56.1Z</time></trkpt><trkpt lat="44.82207" lon="8.9880583"><ele>221.0</ele><time>2026-04-04T09:35:57.098Z</time></trkpt><trkpt lat="44.8218883" lon="8.9879317"><ele>221.0</ele><time>2026-04-04T09:35:58.102Z</time></trkpt><trkpt lat="44.821705" lon="8.987805"><ele>221.0</ele><time>2026-04-04T09:35:59.103Z</time></trkpt><trkpt lat="44.8215167" lon="8.987675"><ele>220.66666666666669</ele><time>2026-04-04T09:36:00.102Z</time></trkpt><trkpt lat="44.82133" lon="8.9875417"><ele>220.33333333333331</ele><time>2026-04-04T09:36:01.104Z</time></trkpt><trkpt lat="44.82114" lon="8.9874117"><ele>220.0</ele><time>2026-04-04T09:36:02.104Z</time></trkpt><trkpt lat="44.82095" lon="8.9872817"><ele>221.33333333333331</ele><time>2026-04-04T09:36:03.115Z</time></trkpt><trkpt lat="44.82076" lon="8.987155"><ele>222.66666666666669</ele><time>2026-04-04T09:36:04.107Z</time></trkpt><trkpt lat="44.82057" lon="8.987025"><ele>224.0</ele><time>2026-04-04T09:36:05.097Z</time></trkpt><trkpt lat="44.820385" lon="8.986895"><ele>224.0</ele><time>2026-04-04T09:36:06.101Z</time></trkpt><trkpt lat="44.8201967" lon="8.986765"><ele>224.0</ele><time>2026-04-04T09:36:07.101Z</time></trkpt><trkpt lat="44.820015" lon="8.9866433"><ele>224.0</ele><time>2026-04-04T09:36:08.106Z</time></trkpt><trkpt lat="44.81984" lon="8.9865267"><ele>223.0</ele><time>2026-04-04T09:36:09.099Z</time></trkpt><trkpt lat="44.8196733" lon="8.98641"><ele>222.0</ele><time>2026-04-04T09:36:10.1Z</time></trkpt><trkpt lat="44.8195033" lon="8.9863033"><ele>221.0</ele><time>2026-04-04T09:36:11.104Z</time></trkpt><trkpt lat="44.8193217" lon="8.9862133"><ele>222.66666666666669</ele><time>2026-04-04T09:36:12.103Z</time></trkpt><trkpt lat="44.81913" lon="8.9861483"><ele>224.33333333333331</ele><time>2026-04-04T09:36:13.104Z</time></trkpt><trkpt lat="44.8189333" lon="8.9860983"><ele>226.0</ele><time>2026-04-04T09:36:14.103Z</time></trkpt><trkpt lat="44.81874" lon="8.9860567"><ele>226.0</ele><time>2026-04-04T09:36:15.1Z</time></trkpt><trkpt lat="44.8185383" lon="8.9860233"><ele>226.0</ele><time>2026-04-04T09:36:16.099Z</time></trkpt><trkpt lat="44.8183417" lon="8.9859883"><ele>226.0</ele><time>2026-04-04T09:36:17.103Z</time></trkpt><trkpt lat="44.818155" lon="8.9859517"><ele>227.33333333333331</ele><time>2026-04-04T09:36:18.102Z</time></trkpt><trkpt lat="44.8179733" lon="8.9859183"><ele>228.66666666666669</ele><time>2026-04-04T09:36:19.103Z</time></trkpt><trkpt lat="44.8177883" lon="8.98588"><ele>230.0</ele><time>2026-04-04T09:36:20.101Z</time></trkpt><trkpt lat="44.8176033" lon="8.9858317"><ele>230.0</ele><time>2026-04-04T09:36:21.101Z</time></trkpt><trkpt lat="44.8174217" lon="8.9857683"><ele>230.0</ele><time>2026-04-04T09:36:22.104Z</time></trkpt><trkpt lat="44.8172417" lon="8.985695"><ele>230.0</ele><time>2026-04-04T09:36:23.106Z</time></trkpt><trkpt lat="44.817065" lon="8.985615"><ele>230.0</ele><time>2026-04-04T09:36:24.101Z</time></trkpt><trkpt lat="44.816895" lon="8.9855267"><ele>230.0</ele><time>2026-04-04T09:36:25.106Z</time></trkpt><trkpt lat="44.8167317" lon="8.98544"><ele>230.0</ele><time>2026-04-04T09:36:26.109Z</time></trkpt><trkpt lat="44.8165883" lon="8.9853583"><ele>228.75</ele><time>2026-04-04T09:36:27.105Z</time></trkpt><trkpt lat="44.8164617" lon="8.9852867"><ele>227.5</ele><time>2026-04-04T09:36:28.105Z</time></trkpt><trkpt lat="44.8163567" lon="8.9852067"><ele>226.25</ele><time>2026-04-04T09:36:29.105Z</time></trkpt><trkpt lat="44.8162717" lon="8.9851083"><ele>225.0</ele><time>2026-04-04T09:36:30.101Z</time></trkpt><trkpt lat="44.8162033" lon="8.9849883"><ele>225.0</ele><time>2026-04-04T09:36:31.107Z</time></trkpt><trkpt lat="44.8161533" lon="8.9848417"><ele>225.0</ele><time>2026-04-04T09:36:32.099Z</time></trkpt><trkpt lat="44.8161183" lon="8.9846717"><ele>225.0</ele><time>2026-04-04T09:36:33.101Z</time></trkpt><trkpt lat="44.8160783" lon="8.9845067"><ele>225.0</ele><time>2026-04-04T09:36:34.099Z</time></trkpt><trkpt lat="44.8160433" lon="8.9843383"><ele>224.75</ele><time>2026-04-04T09:36:35.1Z</time></trkpt><trkpt lat="44.8159983" lon="8.9841717"><ele>224.5</ele><time>2026-04-04T09:36:36.1Z</time></trkpt><trkpt lat="44.8159233" lon="8.9840217"><ele>224.25</ele><time>2026-04-04T09:36:37.1Z</time></trkpt><trkpt lat="44.8158217" lon="8.98389"><ele>224.0</ele><time>2026-04-04T09:36:38.104Z</time></trkpt><trkpt lat="44.815695" lon="8.9837917"><ele>223.66666666666669</ele><time>2026-04-04T09:36:39.104Z</time></trkpt><trkpt lat="44.8155467" lon="8.9837183"><ele>223.33333333333331</ele><time>2026-04-04T09:36:40.105Z</time></trkpt><trkpt lat="44.8153867" lon="8.9836567"><ele>223.0</ele><time>2026-04-04T09:36:41.103Z</time></trkpt><trkpt lat="44.81522" lon="8.9835917"><ele>223.66666666666666</ele><time>2026-04-04T09:36:42.101Z</time></trkpt><trkpt lat="44.8150517" lon="8.9835183"><ele>224.33333333333331</ele><time>2026-04-04T09:36:43.101Z</time></trkpt><trkpt lat="44.8148833" lon="8.9834467"><ele>225.0</ele><time>2026-04-04T09:36:44.106Z</time></trkpt><trkpt lat="44.81471" lon="8.9833767"><ele>227.33333333333331</ele><time>2026-04-04T09:36:45.104Z</time></trkpt><trkpt lat="44.8145433" lon="8.9833067"><ele>229.66666666666666</ele><time>2026-04-04T09:36:46.101Z</time></trkpt><trkpt lat="44.8143783" lon="8.98326"><ele>232.0</ele><time>2026-04-04T09:36:47.107Z</time></trkpt><trkpt lat="44.81422" lon="8.983235"><ele>232.0</ele><time>2026-04-04T09:36:48.122Z</time></trkpt><trkpt lat="44.8140767" lon="8.9832417"><ele>232.0</ele><time>2026-04-04T09:36:49.098Z</time></trkpt><trkpt lat="44.813935" lon="8.9832767"><ele>232.0</ele><time>2026-04-04T09:36:50.106Z</time></trkpt><trkpt lat="44.8137767" lon="8.9833633"><ele>230.66666666666666</ele><time>2026-04-04T09:36:51.106Z</time></trkpt><trkpt lat="44.81362" lon="8.9834783"><ele>229.33333333333331</ele><time>2026-04-04T09:36:52.102Z</time></trkpt><trkpt lat="44.8134717" lon="8.9836167"><ele>228.0</ele><time>2026-04-04T09:36:53.1Z</time></trkpt><trkpt lat="44.8133217" lon="8.98377"><ele>228.0</ele><time>2026-04-04T09:36:54.104Z</time></trkpt><trkpt lat="44.8131683" lon="8.98393"><ele>228.0</ele><time>2026-04-04T09:36:55.107Z</time></trkpt><trkpt lat="44.8130067" lon="8.9840933"><ele>228.0</ele><time>2026-04-04T09:36:56.104Z</time></trkpt><trkpt lat="44.8128433" lon="8.9842583"><ele>228.0</ele><time>2026-04-04T09:36:57.101Z</time></trkpt><trkpt lat="44.8126767" lon="8.984425"><ele>228.0</ele><time>2026-04-04T09:36:58.1Z</time></trkpt><trkpt lat="44.8125117" lon="8.984585"><ele>228.0</ele><time>2026-04-04T09:36:59.107Z</time></trkpt><trkpt lat="44.8123483" lon="8.9847517"><ele>227.66666666666669</ele><time>2026-04-04T09:37:00.107Z</time></trkpt><trkpt lat="44.8121817" lon="8.984915"><ele>227.33333333333334</ele><time>2026-04-04T09:37:01.103Z</time></trkpt><trkpt lat="44.812015" lon="8.9850817"><ele>227.0</ele><time>2026-04-04T09:37:02.102Z</time></trkpt><trkpt lat="44.811845" lon="8.9852483"><ele>227.33333333333334</ele><time>2026-04-04T09:37:03.102Z</time></trkpt><trkpt lat="44.811675" lon="8.9854133"><ele>227.66666666666669</ele><time>2026-04-04T09:37:04.102Z</time></trkpt><trkpt lat="44.8115083" lon="8.9855767"><ele>228.0</ele><time>2026-04-04T09:37:05.104Z</time></trkpt><trkpt lat="44.8113367" lon="8.985735"><ele>228.0</ele><time>2026-04-04T09:37:06.1Z</time></trkpt><trkpt lat="44.8111717" lon="8.9858883"><ele>228.0</ele><time>2026-04-04T09:37:07.104Z</time></trkpt><trkpt lat="44.8110133" lon="8.9860417"><ele>228.0</ele><time>2026-04-04T09:37:08.099Z</time></trkpt><trkpt lat="44.8108533" lon="8.98619"><ele>228.0</ele><time>2026-04-04T09:37:09.103Z</time></trkpt><trkpt lat="44.810695" lon="8.98634"><ele>228.0</ele><time>2026-04-04T09:37:10.103Z</time></trkpt><trkpt lat="44.810535" lon="8.986495"><ele>228.0</ele><time>2026-04-04T09:37:11.106Z</time></trkpt><trkpt lat="44.8103767" lon="8.98665"><ele>228.0</ele><time>2026-04-04T09:37:12.103Z</time></trkpt><trkpt lat="44.8102167" lon="8.986805"><ele>228.0</ele><time>2026-04-04T09:37:13.103Z</time></trkpt><trkpt lat="44.8100567" lon="8.9869633"><ele>228.0</ele><time>2026-04-04T09:37:14.101Z</time></trkpt><trkpt lat="44.809895" lon="8.9871233"><ele>228.0</ele><time>2026-04-04T09:37:15.106Z</time></trkpt><trkpt lat="44.8097333" lon="8.9872833"><ele>228.0</ele><time>2026-04-04T09:37:16.104Z</time></trkpt><trkpt lat="44.8095683" lon="8.98744"><ele>228.0</ele><time>2026-04-04T09:37:17.104Z</time></trkpt><trkpt lat="44.809405" lon="8.9876"><ele>230.0</ele><time>2026-04-04T09:37:18.102Z</time></trkpt><trkpt lat="44.809245" lon="8.987765"><ele>232.0</ele><time>2026-04-04T09:37:19.105Z</time></trkpt><trkpt lat="44.8090867" lon="8.98793"><ele>234.0</ele><time>2026-04-04T09:37:20.101Z</time></trkpt><trkpt lat="44.8089267" lon="8.98809"><ele>234.0</ele><time>2026-04-04T09:37:21.101Z</time></trkpt><trkpt lat="44.8087717" lon="8.98826"><ele>234.0</ele><time>2026-04-04T09:37:22.099Z</time></trkpt><trkpt lat="44.8086167" lon="8.988435"><ele>234.0</ele><time>2026-04-04T09:37:23.102Z</time></trkpt><trkpt lat="44.808465" lon="8.9886133"><ele>234.33333333333331</ele><time>2026-04-04T09:37:24.102Z</time></trkpt><trkpt lat="44.8083117" lon="8.98878"><ele>234.66666666666666</ele><time>2026-04-04T09:37:25.102Z</time></trkpt><trkpt lat="44.80815" lon="8.9889383"><ele>235.0</ele><time>2026-04-04T09:37:26.105Z</time></trkpt><trkpt lat="44.8079833" lon="8.9890933"><ele>234.33333333333331</ele><time>2026-04-04T09:37:27.099Z</time></trkpt><trkpt lat="44.8078167" lon="8.9892433"><ele>233.66666666666669</ele><time>2026-04-04T09:37:28.106Z</time></trkpt><trkpt lat="44.807655" lon="8.9893933"><ele>233.0</ele><time>2026-04-04T09:37:29.101Z</time></trkpt><trkpt lat="44.807495" lon="8.9895433"><ele>235.0</ele><time>2026-04-04T09:37:30.103Z</time></trkpt><trkpt lat="44.8073367" lon="8.989685"><ele>237.0</ele><time>2026-04-04T09:37:31.101Z</time></trkpt><trkpt lat="44.8071783" lon="8.9898267"><ele>239.0</ele><time>2026-04-04T09:37:32.111Z</time></trkpt><trkpt lat="44.8070183" lon="8.9899517"><ele>238.33333333333334</ele><time>2026-04-04T09:37:33.107Z</time></trkpt><trkpt lat="44.8068583" lon="8.990065"><ele>237.66666666666669</ele><time>2026-04-04T09:37:34.099Z</time></trkpt><trkpt lat="44.8067017" lon="8.99018"><ele>237.0</ele><time>2026-04-04T09:37:35.105Z</time></trkpt><trkpt lat="44.80654" lon="8.99029"><ele>237.0</ele><time>2026-04-04T09:37:36.1Z</time></trkpt><trkpt lat="44.806385" lon="8.9904033"><ele>237.0</ele><time>2026-04-04T09:37:37.101Z</time></trkpt><trkpt lat="44.8062267" lon="8.9905133"><ele>237.0</ele><time>2026-04-04T09:37:38.103Z</time></trkpt><trkpt lat="44.80607" lon="8.9906167"><ele>238.33333333333331</ele><time>2026-04-04T09:37:39.1Z</time></trkpt><trkpt lat="44.8059133" lon="8.9907233"><ele>239.66666666666666</ele><time>2026-04-04T09:37:40.103Z</time></trkpt><trkpt lat="44.8057633" lon="8.99083"><ele>241.0</ele><time>2026-04-04T09:37:41.1Z</time></trkpt><trkpt lat="44.8056133" lon="8.99094"><ele>241.0</ele><time>2026-04-04T09:37:42.101Z</time></trkpt><trkpt lat="44.8054667" lon="8.991055"><ele>241.0</ele><time>2026-04-04T09:37:43.103Z</time></trkpt><trkpt lat="44.8053167" lon="8.991175"><ele>241.0</ele><time>2026-04-04T09:37:44.105Z</time></trkpt><trkpt lat="44.805165" lon="8.9912933"><ele>240.66666666666666</ele><time>2026-04-04T09:37:45.104Z</time></trkpt><trkpt lat="44.805015" lon="8.9914133"><ele>240.33333333333331</ele><time>2026-04-04T09:37:46.1Z</time></trkpt><trkpt lat="44.8048667" lon="8.9915367"><ele>240.0</ele><time>2026-04-04T09:37:47.101Z</time></trkpt><trkpt lat="44.8047183" lon="8.9916533"><ele>240.0</ele><time>2026-04-04T09:37:48.099Z</time></trkpt><trkpt lat="44.8045667" lon="8.9917733"><ele>240.0</ele><time>2026-04-04T09:37:49.107Z</time></trkpt><trkpt lat="44.8044183" lon="8.99189"><ele>240.0</ele><time>2026-04-04T09:37:50.103Z</time></trkpt><trkpt lat="44.8042683" lon="8.9920067"><ele>240.0</ele><time>2026-04-04T09:37:51.107Z</time></trkpt><trkpt lat="44.80412" lon="8.9921217"><ele>240.0</ele><time>2026-04-04T09:37:52.102Z</time></trkpt><trkpt lat="44.80397" lon="8.9922367"><ele>240.0</ele><time>2026-04-04T09:37:53.101Z</time></trkpt><trkpt lat="44.8038217" lon="8.9923517"><ele>240.0</ele><time>2026-04-04T09:37:54.101Z</time></trkpt><trkpt lat="44.8036733" lon="8.9924667"><ele>240.0</ele><time>2026-04-04T09:37:55.102Z</time></trkpt><trkpt lat="44.8035317" lon="8.9925833"><ele>240.0</ele><time>2026-04-04T09:37:56.104Z</time></trkpt><trkpt lat="44.8033933" lon="8.9926933"><ele>240.5</ele><time>2026-04-04T09:37:57.107Z</time></trkpt><trkpt lat="44.8032617" lon="8.9927967"><ele>241.0</ele><time>2026-04-04T09:37:58.106Z</time></trkpt><trkpt lat="44.8031333" lon="8.9928967"><ele>241.5</ele><time>2026-04-04T09:37:59.103Z</time></trkpt><trkpt lat="44.8030133" lon="8.9929933"><ele>242.0</ele><time>2026-04-04T09:38:00.099Z</time></trkpt><trkpt lat="44.8028967" lon="8.99308"><ele>242.0</ele><time>2026-04-04T09:38:01.109Z</time></trkpt><trkpt lat="44.8027867" lon="8.9931617"><ele>242.0</ele><time>2026-04-04T09:38:02.106Z</time></trkpt><trkpt lat="44.8026833" lon="8.9932533"><ele>242.0</ele><time>2026-04-04T09:38:03.101Z</time></trkpt><trkpt lat="44.8025767" lon="8.99334"><ele>242.0</ele><time>2026-04-04T09:38:04.104Z</time></trkpt><trkpt lat="44.8024683" lon="8.9934283"><ele>243.25</ele><time>2026-04-04T09:38:05.101Z</time></trkpt><trkpt lat="44.802355" lon="8.99352"><ele>244.5</ele><time>2026-04-04T09:38:06.1Z</time></trkpt><trkpt lat="44.80224" lon="8.9936067"><ele>245.75</ele><time>2026-04-04T09:38:07.107Z</time></trkpt><trkpt lat="44.8021267" lon="8.993695"><ele>247.0</ele><time>2026-04-04T09:38:08.104Z</time></trkpt><trkpt lat="44.8020117" lon="8.9937933"><ele>247.0</ele><time>2026-04-04T09:38:09.104Z</time></trkpt><trkpt lat="44.801895" lon="8.9938867"><ele>247.0</ele><time>2026-04-04T09:38:10.102Z</time></trkpt><trkpt lat="44.8017783" lon="8.9939783"><ele>247.0</ele><time>2026-04-04T09:38:11.107Z</time></trkpt><trkpt lat="44.8016617" lon="8.9940783"><ele>247.0</ele><time>2026-04-04T09:38:12.102Z</time></trkpt><trkpt lat="44.8015417" lon="8.99418"><ele>247.25</ele><time>2026-04-04T09:38:13.101Z</time></trkpt><trkpt lat="44.8014167" lon="8.9942783"><ele>247.5</ele><time>2026-04-04T09:38:14.101Z</time></trkpt><trkpt lat="44.8012883" lon="8.9943767"><ele>247.75</ele><time>2026-04-04T09:38:15.104Z</time></trkpt><trkpt lat="44.80116" lon="8.9944783"><ele>248.0</ele><time>2026-04-04T09:38:16.101Z</time></trkpt><trkpt lat="44.8010267" lon="8.9945667"><ele>248.0</ele><time>2026-04-04T09:38:17.102Z</time></trkpt><trkpt lat="44.8008983" lon="8.9946633"><ele>248.0</ele><time>2026-04-04T09:38:18.103Z</time></trkpt><trkpt lat="44.8007683" lon="8.994765"><ele>248.0</ele><time>2026-04-04T09:38:19.099Z</time></trkpt><trkpt lat="44.8006367" lon="8.9948683"><ele>248.0</ele><time>2026-04-04T09:38:20.097Z</time></trkpt><trkpt lat="44.8005033" lon="8.994975"><ele>247.66666666666669</ele><time>2026-04-04T09:38:21.099Z</time></trkpt><trkpt lat="44.8003683" lon="8.9950817"><ele>247.33333333333331</ele><time>2026-04-04T09:38:22.102Z</time></trkpt><trkpt lat="44.80023" lon="8.9951933"><ele>247.0</ele><time>2026-04-04T09:38:23.105Z</time></trkpt><trkpt lat="44.8000883" lon="8.9953067"><ele>246.33333333333331</ele><time>2026-04-04T09:38:24.101Z</time></trkpt><trkpt lat="44.799945" lon="8.9954233"><ele>245.66666666666669</ele><time>2026-04-04T09:38:25.11Z</time></trkpt><trkpt lat="44.7997983" lon="8.9955483"><ele>245.0</ele><time>2026-04-04T09:38:26.103Z</time></trkpt><trkpt lat="44.7996483" lon="8.9956767"><ele>245.0</ele><time>2026-04-04T09:38:27.103Z</time></trkpt><trkpt lat="44.7994967" lon="8.9957983"><ele>245.0</ele><time>2026-04-04T09:38:28.101Z</time></trkpt><trkpt lat="44.7993483" lon="8.9959233"><ele>245.0</ele><time>2026-04-04T09:38:29.103Z</time></trkpt><trkpt lat="44.7992" lon="8.996045"><ele>246.33333333333334</ele><time>2026-04-04T09:38:30.102Z</time></trkpt><trkpt lat="44.79905" lon="8.9961617"><ele>247.66666666666669</ele><time>2026-04-04T09:38:31.104Z</time></trkpt><trkpt lat="44.7989033" lon="8.9962817"><ele>249.0</ele><time>2026-04-04T09:38:32.107Z</time></trkpt><trkpt lat="44.7987583" lon="8.9963983"><ele>249.0</ele><time>2026-04-04T09:38:33.1Z</time></trkpt><trkpt lat="44.7986167" lon="8.9965117"><ele>249.0</ele><time>2026-04-04T09:38:34.103Z</time></trkpt><trkpt lat="44.79847" lon="8.9966183"><ele>249.0</ele><time>2026-04-04T09:38:35.101Z</time></trkpt><trkpt lat="44.798325" lon="8.9967183"><ele>249.0</ele><time>2026-04-04T09:38:36.1Z</time></trkpt><trkpt lat="44.798175" lon="8.996815"><ele>249.0</ele><time>2026-04-04T09:38:37.1Z</time></trkpt><trkpt lat="44.7980283" lon="8.996915"><ele>249.0</ele><time>2026-04-04T09:38:38.1Z</time></trkpt><trkpt lat="44.7978783" lon="8.997015"><ele>249.0</ele><time>2026-04-04T09:38:39.102Z</time></trkpt><trkpt lat="44.7977267" lon="8.9971183"><ele>249.0</ele><time>2026-04-04T09:38:40.103Z</time></trkpt><trkpt lat="44.7975767" lon="8.9972217"><ele>249.0</ele><time>2026-04-04T09:38:41.105Z</time></trkpt><trkpt lat="44.7974233" lon="8.99732"><ele>249.66666666666669</ele><time>2026-04-04T09:38:42.103Z</time></trkpt><trkpt lat="44.79727" lon="8.997415"><ele>250.33333333333334</ele><time>2026-04-04T09:38:43.1Z</time></trkpt><trkpt lat="44.797115" lon="8.997505"><ele>251.0</ele><time>2026-04-04T09:38:44.101Z</time></trkpt><trkpt lat="44.79696" lon="8.9975917"><ele>251.66666666666669</ele><time>2026-04-04T09:38:45.1Z</time></trkpt><trkpt lat="44.7968067" lon="8.997685"><ele>252.33333333333331</ele><time>2026-04-04T09:38:46.101Z</time></trkpt><trkpt lat="44.7966583" lon="8.9977883"><ele>253.0</ele><time>2026-04-04T09:38:47.104Z</time></trkpt><trkpt lat="44.7965167" lon="8.997915"><ele>253.0</ele><time>2026-04-04T09:38:48.1Z</time></trkpt><trkpt lat="44.796375" lon="8.998055"><ele>253.0</ele><time>2026-04-04T09:38:49.11Z</time></trkpt><trkpt lat="44.796225" lon="8.9981983"><ele>253.0</ele><time>2026-04-04T09:38:50.103Z</time></trkpt><trkpt lat="44.79608" lon="8.9983517"><ele>252.66666666666666</ele><time>2026-04-04T09:38:51.106Z</time></trkpt><trkpt lat="44.79592" lon="8.9985017"><ele>252.33333333333331</ele><time>2026-04-04T09:38:52.1Z</time></trkpt><trkpt lat="44.795765" lon="8.9986717"><ele>252.0</ele><time>2026-04-04T09:38:53.106Z</time></trkpt><trkpt lat="44.7956083" lon="8.9988317"><ele>252.0</ele><time>2026-04-04T09:38:54.108Z</time></trkpt><trkpt lat="44.79546" lon="8.9989883"><ele>252.0</ele><time>2026-04-04T09:38:55.099Z</time></trkpt><trkpt lat="44.7953067" lon="8.99915"><ele>252.0</ele><time>2026-04-04T09:38:56.1Z</time></trkpt><trkpt lat="44.7951567" lon="8.9993083"><ele>253.66666666666669</ele><time>2026-04-04T09:38:57.102Z</time></trkpt><trkpt lat="44.7950033" lon="8.99945"><ele>255.33333333333334</ele><time>2026-04-04T09:38:58.105Z</time></trkpt><trkpt lat="44.7948517" lon="8.9995983"><ele>257.0</ele><time>2026-04-04T09:38:59.1Z</time></trkpt><trkpt lat="44.7946983" lon="8.9997383"><ele>257.0</ele><time>2026-04-04T09:39:00.101Z</time></trkpt><trkpt lat="44.7945517" lon="8.9998933"><ele>257.0</ele><time>2026-04-04T09:39:01.1Z</time></trkpt><trkpt lat="44.794395" lon="9.00003"><ele>257.0</ele><time>2026-04-04T09:39:02.101Z</time></trkpt><trkpt lat="44.7942417" lon="9.00016"><ele>257.33333333333337</ele><time>2026-04-04T09:39:03.099Z</time></trkpt><trkpt lat="44.7941" lon="9.0003"><ele>257.6666666666667</ele><time>2026-04-04T09:39:04.1Z</time></trkpt><trkpt lat="44.7939483" lon="9.0004267"><ele>258.0</ele><time>2026-04-04T09:39:05.109Z</time></trkpt><trkpt lat="44.7937883" lon="9.0005633"><ele>258.0</ele><time>2026-04-04T09:39:06.1Z</time></trkpt><trkpt lat="44.793635" lon="9.0006983"><ele>258.0</ele><time>2026-04-04T09:39:07.1Z</time></trkpt><trkpt lat="44.7934833" lon="9.000835"><ele>258.0</ele><time>2026-04-04T09:39:08.103Z</time></trkpt><trkpt lat="44.7933317" lon="9.0009617"><ele>257.3333333333333</ele><time>2026-04-04T09:39:09.104Z</time></trkpt><trkpt lat="44.7931783" lon="9.001085"><ele>256.66666666666663</ele><time>2026-04-04T09:39:10.108Z</time></trkpt><trkpt lat="44.7930283" lon="9.00121"><ele>256.0</ele><time>2026-04-04T09:39:11.102Z</time></trkpt><trkpt lat="44.792875" lon="9.00133"><ele>256.0</ele><time>2026-04-04T09:39:12.099Z</time></trkpt><trkpt lat="44.7927217" lon="9.001455"><ele>256.0</ele><time>2026-04-04T09:39:13.105Z</time></trkpt><trkpt lat="44.7925633" lon="9.001565"><ele>256.0</ele><time>2026-04-04T09:39:14.104Z</time></trkpt><trkpt lat="44.792405" lon="9.0016717"><ele>256.66666666666663</ele><time>2026-04-04T09:39:15.098Z</time></trkpt><trkpt lat="44.7922483" lon="9.001785"><ele>257.3333333333333</ele><time>2026-04-04T09:39:16.1Z</time></trkpt><trkpt lat="44.7920933" lon="9.001895"><ele>258.0</ele><time>2026-04-04T09:39:17.105Z</time></trkpt><trkpt lat="44.791935" lon="9.002005"><ele>261.0</ele><time>2026-04-04T09:39:18.107Z</time></trkpt><trkpt lat="44.7917767" lon="9.0021217"><ele>264.0</ele><time>2026-04-04T09:39:19.105Z</time></trkpt><trkpt lat="44.7916133" lon="9.00222"><ele>267.0</ele><time>2026-04-04T09:39:20.1Z</time></trkpt><trkpt lat="44.79144" lon="9.0022933"><ele>267.0</ele><time>2026-04-04T09:39:21.101Z</time></trkpt><trkpt lat="44.7912617" lon="9.0023433"><ele>267.0</ele><time>2026-04-04T09:39:22.104Z</time></trkpt><trkpt lat="44.791085" lon="9.0023933"><ele>267.0</ele><time>2026-04-04T09:39:23.101Z</time></trkpt><trkpt lat="44.7909017" lon="9.0024183"><ele>267.6666666666667</ele><time>2026-04-04T09:39:24.102Z</time></trkpt><trkpt lat="44.79072" lon="9.0024667"><ele>268.33333333333337</ele><time>2026-04-04T09:39:25.106Z</time></trkpt><trkpt lat="44.7905367" lon="9.0025233"><ele>269.0</ele><time>2026-04-04T09:39:26.098Z</time></trkpt><trkpt lat="44.7903567" lon="9.0025767"><ele>268.0</ele><time>2026-04-04T09:39:27.099Z</time></trkpt><trkpt lat="44.790175" lon="9.002625"><ele>267.0</ele><time>2026-04-04T09:39:28.101Z</time></trkpt><trkpt lat="44.7899933" lon="9.0026717"><ele>266.0</ele><time>2026-04-04T09:39:29.104Z</time></trkpt><trkpt lat="44.7898183" lon="9.0027117"><ele>266.0</ele><time>2026-04-04T09:39:30.109Z</time></trkpt><trkpt lat="44.789645" lon="9.002745"><ele>266.0</ele><time>2026-04-04T09:39:31.101Z</time></trkpt><trkpt lat="44.7894717" lon="9.00276"><ele>266.0</ele><time>2026-04-04T09:39:32.106Z</time></trkpt><trkpt lat="44.789295" lon="9.0027667"><ele>265.6666666666667</ele><time>2026-04-04T09:39:33.102Z</time></trkpt><trkpt lat="44.78912" lon="9.0027733"><ele>265.3333333333333</ele><time>2026-04-04T09:39:34.1Z</time></trkpt><trkpt lat="44.788945" lon="9.0027833"><ele>265.0</ele><time>2026-04-04T09:39:35.101Z</time></trkpt><trkpt lat="44.7887633" lon="9.00279"><ele>265.0</ele><time>2026-04-04T09:39:36.099Z</time></trkpt><trkpt lat="44.7885883" lon="9.0027917"><ele>265.0</ele><time>2026-04-04T09:39:37.1Z</time></trkpt><trkpt lat="44.7884167" lon="9.002795"><ele>265.0</ele><time>2026-04-04T09:39:38.1Z</time></trkpt><trkpt lat="44.7882433" lon="9.0028"><ele>266.0</ele><time>2026-04-04T09:39:39.109Z</time></trkpt><trkpt lat="44.7880717" lon="9.0028067"><ele>267.0</ele><time>2026-04-04T09:39:40.101Z</time></trkpt><trkpt lat="44.787905" lon="9.0028067"><ele>268.0</ele><time>2026-04-04T09:39:41.102Z</time></trkpt><trkpt lat="44.7877483" lon="9.00281"><ele>268.5</ele><time>2026-04-04T09:39:42.098Z</time></trkpt><trkpt lat="44.787605" lon="9.0028133"><ele>269.0</ele><time>2026-04-04T09:39:43.102Z</time></trkpt><trkpt lat="44.787465" lon="9.0028067"><ele>269.5</ele><time>2026-04-04T09:39:44.1Z</time></trkpt><trkpt lat="44.78733" lon="9.00277"><ele>270.0</ele><time>2026-04-04T09:39:45.1Z</time></trkpt><trkpt lat="44.7872033" lon="9.0027"><ele>270.0</ele><time>2026-04-04T09:39:46.099Z</time></trkpt><trkpt lat="44.7870883" lon="9.002615"><ele>270.0</ele><time>2026-04-04T09:39:47.101Z</time></trkpt><trkpt lat="44.78698" lon="9.002525"><ele>270.0</ele><time>2026-04-04T09:39:48.103Z</time></trkpt><trkpt lat="44.7868783" lon="9.0024383"><ele>270.0</ele><time>2026-04-04T09:39:49.102Z</time></trkpt><trkpt lat="44.7867717" lon="9.0023533"><ele>270.75</ele><time>2026-04-04T09:39:50.101Z</time></trkpt><trkpt lat="44.7866683" lon="9.00227"><ele>271.5</ele><time>2026-04-04T09:39:51.1Z</time></trkpt><trkpt lat="44.7865633" lon="9.0021833"><ele>272.25</ele><time>2026-04-04T09:39:52.101Z</time></trkpt><trkpt lat="44.7864567" lon="9.0021017"><ele>273.0</ele><time>2026-04-04T09:39:53.111Z</time></trkpt><trkpt lat="44.7863467" lon="9.0020183"><ele>273.0</ele><time>2026-04-04T09:39:54.1Z</time></trkpt><trkpt lat="44.7862417" lon="9.0019383"><ele>273.0</ele><time>2026-04-04T09:39:55.1Z</time></trkpt><trkpt lat="44.7861317" lon="9.0018583"><ele>273.0</ele><time>2026-04-04T09:39:56.1Z</time></trkpt><trkpt lat="44.78603" lon="9.0017733"><ele>273.0</ele><time>2026-04-04T09:39:57.102Z</time></trkpt><trkpt lat="44.785935" lon="9.00169"><ele>275.5</ele><time>2026-04-04T09:39:58.099Z</time></trkpt><trkpt lat="44.7858383" lon="9.0016117"><ele>278.0</ele><time>2026-04-04T09:39:59.106Z</time></trkpt><trkpt lat="44.7857383" lon="9.0015283"><ele>280.5</ele><time>2026-04-04T09:40:00.1Z</time></trkpt><trkpt lat="44.7856383" lon="9.0014467"><ele>283.0</ele><time>2026-04-04T09:40:01.104Z</time></trkpt><trkpt lat="44.785535" lon="9.0013683"><ele>283.0</ele><time>2026-04-04T09:40:02.1Z</time></trkpt><trkpt lat="44.78543" lon="9.0012867"><ele>283.0</ele><time>2026-04-04T09:40:03.103Z</time></trkpt><trkpt lat="44.7853283" lon="9.0012017"><ele>283.0</ele><time>2026-04-04T09:40:04.104Z</time></trkpt><trkpt lat="44.785225" lon="9.0011133"><ele>283.0</ele><time>2026-04-04T09:40:05.108Z</time></trkpt><trkpt lat="44.78512" lon="9.0010233"><ele>282.0</ele><time>2026-04-04T09:40:06.099Z</time></trkpt><trkpt lat="44.7850217" lon="9.0009333"><ele>281.0</ele><time>2026-04-04T09:40:07.101Z</time></trkpt><trkpt lat="44.78492" lon="9.0008433"><ele>280.0</ele><time>2026-04-04T09:40:08.1Z</time></trkpt><trkpt lat="44.784815" lon="9.0007583"><ele>279.0</ele><time>2026-04-04T09:40:09.099Z</time></trkpt><trkpt lat="44.7847117" lon="9.0006717"><ele>280.75</ele><time>2026-04-04T09:40:10.11Z</time></trkpt><trkpt lat="44.78461" lon="9.00058"><ele>282.5</ele><time>2026-04-04T09:40:11.1Z</time></trkpt><trkpt lat="44.78451" lon="9.0004883"><ele>284.25</ele><time>2026-04-04T09:40:12.098Z</time></trkpt><trkpt lat="44.784405" lon="9.0003983"><ele>286.0</ele><time>2026-04-04T09:40:13.098Z</time></trkpt><trkpt lat="44.7842983" lon="9.00031"><ele>286.0</ele><time>2026-04-04T09:40:14.101Z</time></trkpt><trkpt lat="44.7841933" lon="9.0002217"><ele>286.0</ele><time>2026-04-04T09:40:15.099Z</time></trkpt><trkpt lat="44.784085" lon="9.0001283"><ele>286.0</ele><time>2026-04-04T09:40:16.101Z</time></trkpt><trkpt lat="44.7839733" lon="9.0000383"><ele>286.0</ele><time>2026-04-04T09:40:17.109Z</time></trkpt><trkpt lat="44.783865" lon="8.9999467"><ele>286.0</ele><time>2026-04-04T09:40:18.105Z</time></trkpt><trkpt lat="44.7837533" lon="8.9998533"><ele>286.0</ele><time>2026-04-04T09:40:19.101Z</time></trkpt><trkpt lat="44.78364" lon="8.999755"><ele>286.0</ele><time>2026-04-04T09:40:20.099Z</time></trkpt><trkpt lat="44.783525" lon="8.9996533"><ele>286.0</ele><time>2026-04-04T09:40:21.1Z</time></trkpt><trkpt lat="44.78341" lon="8.9995467"><ele>285.25</ele><time>2026-04-04T09:40:22.099Z</time></trkpt><trkpt lat="44.7832933" lon="8.9994417"><ele>284.5</ele><time>2026-04-04T09:40:23.102Z</time></trkpt><trkpt lat="44.783175" lon="8.999335"><ele>283.75</ele><time>2026-04-04T09:40:24.108Z</time></trkpt><trkpt lat="44.7830583" lon="8.9992233"><ele>283.0</ele><time>2026-04-04T09:40:25.101Z</time></trkpt><trkpt lat="44.7829383" lon="8.999115"><ele>283.75</ele><time>2026-04-04T09:40:26.101Z</time></trkpt><trkpt lat="44.782825" lon="8.9990083"><ele>284.5</ele><time>2026-04-04T09:40:27.1Z</time></trkpt><trkpt lat="44.782715" lon="8.99891"><ele>285.25</ele><time>2026-04-04T09:40:28.101Z</time></trkpt><trkpt lat="44.7826067" lon="8.9988217"><ele>286.0</ele><time>2026-04-04T09:40:29.102Z</time></trkpt><trkpt lat="44.7825017" lon="8.998745"><ele>286.0</ele><time>2026-04-04T09:40:30.101Z</time></trkpt><trkpt lat="44.7824083" lon="8.9986633"><ele>286.0</ele><time>2026-04-04T09:40:31.097Z</time></trkpt><trkpt lat="44.78232" lon="8.9985567"><ele>286.0</ele><time>2026-04-04T09:40:32.102Z</time></trkpt><trkpt lat="44.7822467" lon="8.9984217"><ele>286.0</ele><time>2026-04-04T09:40:33.1Z</time></trkpt><trkpt lat="44.7821817" lon="8.9982817"><ele>286.75</ele><time>2026-04-04T09:40:34.099Z</time></trkpt><trkpt lat="44.7821183" lon="8.9981417"><ele>287.5</ele><time>2026-04-04T09:40:35.099Z</time></trkpt><trkpt lat="44.782055" lon="8.9980033"><ele>288.25</ele><time>2026-04-04T09:40:36.099Z</time></trkpt><trkpt lat="44.781985" lon="8.9978717"><ele>289.0</ele><time>2026-04-04T09:40:37.099Z</time></trkpt><trkpt lat="44.7819083" lon="8.9977517"><ele>288.75</ele><time>2026-04-04T09:40:38.099Z</time></trkpt><trkpt lat="44.7818267" lon="8.9976467"><ele>288.5</ele><time>2026-04-04T09:40:39.102Z</time></trkpt><trkpt lat="44.7817333" lon="8.9975517"><ele>288.25</ele><time>2026-04-04T09:40:40.103Z</time></trkpt><trkpt lat="44.7816333" lon="8.9974583"><ele>288.0</ele><time>2026-04-04T09:40:41.103Z</time></trkpt><trkpt lat="44.7815333" lon="8.997375"><ele>287.6</ele><time>2026-04-04T09:40:42.103Z</time></trkpt><trkpt lat="44.7814417" lon="8.9972983"><ele>287.20000000000005</ele><time>2026-04-04T09:40:43.103Z</time></trkpt><trkpt lat="44.7813483" lon="8.9972217"><ele>286.8</ele><time>2026-04-04T09:40:44.1Z</time></trkpt><trkpt lat="44.7812633" lon="8.9971533"><ele>286.40000000000003</ele><time>2026-04-04T09:40:45.106Z</time></trkpt><trkpt lat="44.78118" lon="8.9970883"><ele>286.0</ele><time>2026-04-04T09:40:46.103Z</time></trkpt><trkpt lat="44.7810967" lon="8.997025"><ele>287.0</ele><time>2026-04-04T09:40:47.099Z</time></trkpt><trkpt lat="44.7810117" lon="8.9969617"><ele>288.0</ele><time>2026-04-04T09:40:48.101Z</time></trkpt><trkpt lat="44.7809217" lon="8.9969"><ele>289.0</ele><time>2026-04-04T09:40:49.103Z</time></trkpt><trkpt lat="44.7808333" lon="8.9968367"><ele>290.0</ele><time>2026-04-04T09:40:50.103Z</time></trkpt><trkpt lat="44.7807433" lon="8.99677"><ele>291.0</ele><time>2026-04-04T09:40:51.101Z</time></trkpt><trkpt lat="44.78065" lon="8.9967"><ele>291.2</ele><time>2026-04-04T09:40:52.102Z</time></trkpt><trkpt lat="44.7805567" lon="8.9966267"><ele>291.40000000000003</ele><time>2026-04-04T09:40:53.098Z</time></trkpt><trkpt lat="44.780465" lon="8.996555"><ele>291.6</ele><time>2026-04-04T09:40:54.107Z</time></trkpt><trkpt lat="44.7803733" lon="8.9964833"><ele>291.8</ele><time>2026-04-04T09:40:55.101Z</time></trkpt><trkpt lat="44.7802883" lon="8.9964133"><ele>292.0</ele><time>2026-04-04T09:40:56.098Z</time></trkpt><trkpt lat="44.7802167" lon="8.9963517"><ele>292.16666666666663</ele><time>2026-04-04T09:40:57.098Z</time></trkpt><trkpt lat="44.78015" lon="8.9963017"><ele>292.3333333333333</ele><time>2026-04-04T09:40:58.101Z</time></trkpt><trkpt lat="44.780085" lon="8.99625"><ele>292.5</ele><time>2026-04-04T09:40:59.1Z</time></trkpt><trkpt lat="44.7800183" lon="8.9962017"><ele>292.6666666666667</ele><time>2026-04-04T09:41:00.099Z</time></trkpt><trkpt lat="44.7799383" lon="8.99615"><ele>292.83333333333337</ele><time>2026-04-04T09:41:01.103Z</time></trkpt><trkpt lat="44.7798433" lon="8.9960833"><ele>293.0</ele><time>2026-04-04T09:41:02.101Z</time></trkpt><trkpt lat="44.77974" lon="8.9960017"><ele>293.0</ele><time>2026-04-04T09:41:03.102Z</time></trkpt><trkpt lat="44.7796417" lon="8.9959267"><ele>293.0</ele><time>2026-04-04T09:41:04.102Z</time></trkpt><trkpt lat="44.7795483" lon="8.9958533"><ele>293.0</ele><time>2026-04-04T09:41:05.104Z</time></trkpt><trkpt lat="44.7794533" lon="8.9957783"><ele>293.0</ele><time>2026-04-04T09:41:06.102Z</time></trkpt><trkpt lat="44.779355" lon="8.995705"><ele>293.0</ele><time>2026-04-04T09:41:07.104Z</time></trkpt><trkpt lat="44.7792617" lon="8.995635"><ele>293.2</ele><time>2026-04-04T09:41:08.106Z</time></trkpt><trkpt lat="44.7791783" lon="8.99557"><ele>293.4</ele><time>2026-04-04T09:41:09.109Z</time></trkpt><trkpt lat="44.77911" lon="8.9955167"><ele>293.59999999999997</ele><time>2026-04-04T09:41:10.106Z</time></trkpt><trkpt lat="44.7790517" lon="8.99541"><ele>293.8</ele><time>2026-04-04T09:41:12.102Z</time></trkpt><trkpt lat="44.7790833" lon="8.9952583"><ele>294.0</ele><time>2026-04-04T09:41:14.1Z</time></trkpt><trkpt lat="44.7791117" lon="8.99515"><ele>294.0</ele><time>2026-04-04T09:41:15.101Z</time></trkpt><trkpt lat="44.7791483" lon="8.9950317"><ele>294.0</ele><time>2026-04-04T09:41:16.106Z</time></trkpt><trkpt lat="44.7791883" lon="8.9949183"><ele>294.0</ele><time>2026-04-04T09:41:17.101Z</time></trkpt><trkpt lat="44.779235" lon="8.9947883"><ele>294.0</ele><time>2026-04-04T09:41:18.102Z</time></trkpt><trkpt lat="44.7792867" lon="8.99465"><ele>294.0</ele><time>2026-04-04T09:41:19.104Z</time></trkpt><trkpt lat="44.779345" lon="8.9944917"><ele>294.0</ele><time>2026-04-04T09:41:20.1Z</time></trkpt><trkpt lat="44.7794067" lon="8.99433"><ele>294.0</ele><time>2026-04-04T09:41:21.103Z</time></trkpt><trkpt lat="44.7794667" lon="8.9941767"><ele>294.0</ele><time>2026-04-04T09:41:22.1Z</time></trkpt><trkpt lat="44.7795283" lon="8.994025"><ele>294.0</ele><time>2026-04-04T09:41:23.101Z</time></trkpt><trkpt lat="44.7795883" lon="8.99387"><ele>294.0</ele><time>2026-04-04T09:41:24.098Z</time></trkpt><trkpt lat="44.7796417" lon="8.9937117"><ele>294.0</ele><time>2026-04-04T09:41:25.101Z</time></trkpt><trkpt lat="44.7796867" lon="8.9935517"><ele>294.0</ele><time>2026-04-04T09:41:26.101Z</time></trkpt><trkpt lat="44.77972" lon="8.99339"><ele>294.0</ele><time>2026-04-04T09:41:27.102Z</time></trkpt><trkpt lat="44.7797467" lon="8.99323"><ele>294.2</ele><time>2026-04-04T09:41:28.103Z</time></trkpt><trkpt lat="44.7797667" lon="8.9930817"><ele>294.4</ele><time>2026-04-04T09:41:29.102Z</time></trkpt><trkpt lat="44.77977" lon="8.992935"><ele>294.6</ele><time>2026-04-04T09:41:30.101Z</time></trkpt><trkpt lat="44.7797583" lon="8.9927783"><ele>294.8</ele><time>2026-04-04T09:41:31.104Z</time></trkpt><trkpt lat="44.7797283" lon="8.992625"><ele>295.0</ele><time>2026-04-04T09:41:32.1Z</time></trkpt><trkpt lat="44.779685" lon="8.9924883"><ele>295.4</ele><time>2026-04-04T09:41:33.102Z</time></trkpt><trkpt lat="44.779635" lon="8.9923583"><ele>295.8</ele><time>2026-04-04T09:41:34.102Z</time></trkpt><trkpt lat="44.7795933" lon="8.992225"><ele>296.2</ele><time>2026-04-04T09:41:35.102Z</time></trkpt><trkpt lat="44.7795617" lon="8.9920917"><ele>296.6</ele><time>2026-04-04T09:41:36.101Z</time></trkpt><trkpt lat="44.77955" lon="8.99195"><ele>297.0</ele><time>2026-04-04T09:41:37.104Z</time></trkpt><trkpt lat="44.7795467" lon="8.9918067"><ele>297.8</ele><time>2026-04-04T09:41:38.106Z</time></trkpt><trkpt lat="44.7795483" lon="8.9916633"><ele>298.6</ele><time>2026-04-04T09:41:39.103Z</time></trkpt><trkpt lat="44.77956" lon="8.991525"><ele>299.40000000000003</ele><time>2026-04-04T09:41:40.106Z</time></trkpt><trkpt lat="44.779575" lon="8.9913833"><ele>300.2</ele><time>2026-04-04T09:41:41.103Z</time></trkpt><trkpt lat="44.779605" lon="8.9912433"><ele>301.0</ele><time>2026-04-04T09:41:42.103Z</time></trkpt><trkpt lat="44.7796567" lon="8.9911067"><ele>301.0</ele><time>2026-04-04T09:41:43.101Z</time></trkpt><trkpt lat="44.779725" lon="8.990965"><ele>301.0</ele><time>2026-04-04T09:41:44.104Z</time></trkpt><trkpt lat="44.779805" lon="8.990815"><ele>301.0</ele><time>2026-04-04T09:41:45.103Z</time></trkpt><trkpt lat="44.779885" lon="8.9906567"><ele>301.0</ele><time>2026-04-04T09:41:46.101Z</time></trkpt><trkpt lat="44.7799583" lon="8.990505"><ele>301.6</ele><time>2026-04-04T09:41:47.106Z</time></trkpt><trkpt lat="44.78002" lon="8.99035"><ele>302.20000000000005</ele><time>2026-04-04T09:41:48.101Z</time></trkpt><trkpt lat="44.7800717" lon="8.9902"><ele>302.79999999999995</ele><time>2026-04-04T09:41:49.103Z</time></trkpt><trkpt lat="44.7801033" lon="8.9900617"><ele>303.4</ele><time>2026-04-04T09:41:50.1Z</time></trkpt><trkpt lat="44.7801083" lon="8.9899483"><ele>304.0</ele><time>2026-04-04T09:41:51.103Z</time></trkpt><trkpt lat="44.7800917" lon="8.9898533"><ele>307.0</ele><time>2026-04-04T09:41:52.103Z</time></trkpt><trkpt lat="44.7799933" lon="8.9897633"><ele>310.0</ele><time>2026-04-04T09:41:54.099Z</time></trkpt><trkpt lat="44.7799133" lon="8.9897917"><ele>313.0</ele><time>2026-04-04T09:41:55.105Z</time></trkpt><trkpt lat="44.77983" lon="8.9898167"><ele>316.0</ele><time>2026-04-04T09:41:56.1Z</time></trkpt><trkpt lat="44.779725" lon="8.98985"><ele>319.0</ele><time>2026-04-04T09:41:57.099Z</time></trkpt><trkpt lat="44.7796" lon="8.9898833"><ele>319.0</ele><time>2026-04-04T09:41:58.103Z</time></trkpt><trkpt lat="44.7794783" lon="8.9899083"><ele>319.0</ele><time>2026-04-04T09:41:59.102Z</time></trkpt><trkpt lat="44.779355" lon="8.989935"><ele>319.0</ele><time>2026-04-04T09:42:00.107Z</time></trkpt><trkpt lat="44.7792333" lon="8.9899533"><ele>319.0</ele><time>2026-04-04T09:42:01.101Z</time></trkpt><trkpt lat="44.7791083" lon="8.9899767"><ele>320.79999999999995</ele><time>2026-04-04T09:42:02.099Z</time></trkpt><trkpt lat="44.7789867" lon="8.9900033"><ele>322.59999999999997</ele><time>2026-04-04T09:42:03.103Z</time></trkpt><trkpt lat="44.77888" lon="8.9900333"><ele>324.4</ele><time>2026-04-04T09:42:04.103Z</time></trkpt><trkpt lat="44.7787867" lon="8.9900467"><ele>326.2</ele><time>2026-04-04T09:42:05.102Z</time></trkpt><trkpt lat="44.7787133" lon="8.9900233"><ele>328.0</ele><time>2026-04-04T09:42:06.099Z</time></trkpt><trkpt lat="44.7786633" lon="8.9899533"><ele>328.0</ele><time>2026-04-04T09:42:07.101Z</time></trkpt><trkpt lat="44.778615" lon="8.9898583"><ele>328.0</ele><time>2026-04-04T09:42:08.099Z</time></trkpt><trkpt lat="44.778575" lon="8.989745"><ele>328.0</ele><time>2026-04-04T09:42:09.102Z</time></trkpt><trkpt lat="44.77854" lon="8.9896067"><ele>328.0</ele><time>2026-04-04T09:42:10.104Z</time></trkpt><trkpt lat="44.7785233" lon="8.9894417"><ele>328.0</ele><time>2026-04-04T09:42:11.107Z</time></trkpt><trkpt lat="44.7784833" lon="8.9893017"><ele>326.66666666666663</ele><time>2026-04-04T09:42:12.108Z</time></trkpt><trkpt lat="44.7784367" lon="8.9891767"><ele>325.3333333333333</ele><time>2026-04-04T09:42:13.104Z</time></trkpt><trkpt lat="44.7784017" lon="8.98906"><ele>324.0</ele><time>2026-04-04T09:42:14.1Z</time></trkpt><trkpt lat="44.7783767" lon="8.988955"><ele>322.6666666666667</ele><time>2026-04-04T09:42:15.102Z</time></trkpt><trkpt lat="44.778375" lon="8.9888417"><ele>321.33333333333337</ele><time>2026-04-04T09:42:16.103Z</time></trkpt><trkpt lat="44.7783733" lon="8.9887433"><ele>320.0</ele><time>2026-04-04T09:42:17.103Z</time></trkpt><trkpt lat="44.7784467" lon="8.988745"><ele>325.8</ele><time>2026-04-04T09:42:18.105Z</time></trkpt><trkpt lat="44.7785583" lon="8.9887917"><ele>331.6</ele><time>2026-04-04T09:42:20.104Z</time></trkpt><trkpt lat="44.7786167" lon="8.9888683"><ele>337.4</ele><time>2026-04-04T09:42:21.106Z</time></trkpt><trkpt lat="44.77868" lon="8.988945"><ele>343.2</ele><time>2026-04-04T09:42:22.101Z</time></trkpt><trkpt lat="44.7787533" lon="8.98901"><ele>349.0</ele><time>2026-04-04T09:42:23.103Z</time></trkpt><trkpt lat="44.7788317" lon="8.9890667"><ele>349.0</ele><time>2026-04-04T09:42:24.1Z</time></trkpt><trkpt lat="44.7789217" lon="8.989105"><ele>349.0</ele><time>2026-04-04T09:42:25.111Z</time></trkpt><trkpt lat="44.7790317" lon="8.9890867"><ele>349.0</ele><time>2026-04-04T09:42:26.109Z</time></trkpt><trkpt lat="44.7791417" lon="8.98905"><ele>349.0</ele><time>2026-04-04T09:42:27.102Z</time></trkpt><trkpt lat="44.7792483" lon="8.9890117"><ele>349.0</ele><time>2026-04-04T09:42:28.099Z</time></trkpt><trkpt lat="44.7793433" lon="8.9889767"><ele>347.16666666666663</ele><time>2026-04-04T09:42:29.107Z</time></trkpt><trkpt lat="44.779435" lon="8.9889417"><ele>345.3333333333333</ele><time>2026-04-04T09:42:30.1Z</time></trkpt><trkpt lat="44.7795167" lon="8.9889033"><ele>343.5</ele><time>2026-04-04T09:42:31.101Z</time></trkpt><trkpt lat="44.77958" lon="8.988845"><ele>341.6666666666667</ele><time>2026-04-04T09:42:32.101Z</time></trkpt><trkpt lat="44.7796167" lon="8.9887583"><ele>339.83333333333337</ele><time>2026-04-04T09:42:33.102Z</time></trkpt><trkpt lat="44.7796" lon="8.9886217"><ele>338.0</ele><time>2026-04-04T09:42:34.098Z</time></trkpt><trkpt lat="44.779585" lon="8.988495"><ele>338.0</ele><time>2026-04-04T09:42:35.1Z</time></trkpt><trkpt lat="44.779555" lon="8.9883533"><ele>338.0</ele><time>2026-04-04T09:42:36.106Z</time></trkpt><trkpt lat="44.7795217" lon="8.9881933"><ele>338.0</ele><time>2026-04-04T09:42:37.101Z</time></trkpt><trkpt lat="44.7794967" lon="8.9880383"><ele>338.0</ele><time>2026-04-04T09:42:38.103Z</time></trkpt><trkpt lat="44.77949" lon="8.9878767"><ele>341.75</ele><time>2026-04-04T09:42:39.101Z</time></trkpt><trkpt lat="44.7795083" lon="8.9877067"><ele>345.5</ele><time>2026-04-04T09:42:40.101Z</time></trkpt><trkpt lat="44.7795317" lon="8.9875367"><ele>349.25</ele><time>2026-04-04T09:42:41.1Z</time></trkpt><trkpt lat="44.77956" lon="8.9873683"><ele>353.0</ele><time>2026-04-04T09:42:42.101Z</time></trkpt><trkpt lat="44.7796017" lon="8.9872067"><ele>355.0</ele><time>2026-04-04T09:42:43.104Z</time></trkpt><trkpt lat="44.7796517" lon="8.9870483"><ele>357.0</ele><time>2026-04-04T09:42:44.105Z</time></trkpt><trkpt lat="44.77971" lon="8.9868983"><ele>359.0</ele><time>2026-04-04T09:42:45.099Z</time></trkpt><trkpt lat="44.779775" lon="8.9867517"><ele>361.0</ele><time>2026-04-04T09:42:46.102Z</time></trkpt><trkpt lat="44.7798317" lon="8.986605"><ele>363.5</ele><time>2026-04-04T09:42:47.106Z</time></trkpt><trkpt lat="44.7798817" lon="8.9864533"><ele>366.0</ele><time>2026-04-04T09:42:48.107Z</time></trkpt><trkpt lat="44.7799217" lon="8.9862967"><ele>368.5</ele><time>2026-04-04T09:42:49.101Z</time></trkpt><trkpt lat="44.7799467" lon="8.9861383"><ele>371.0</ele><time>2026-04-04T09:42:50.101Z</time></trkpt><trkpt lat="44.7799633" lon="8.9859867"><ele>372.5</ele><time>2026-04-04T09:42:51.098Z</time></trkpt><trkpt lat="44.7799617" lon="8.9858317"><ele>374.0</ele><time>2026-04-04T09:42:52.1Z</time></trkpt><trkpt lat="44.77995" lon="8.9856733"><ele>375.5</ele><time>2026-04-04T09:42:53.1Z</time></trkpt><trkpt lat="44.7799283" lon="8.98551"><ele>377.0</ele><time>2026-04-04T09:42:54.099Z</time></trkpt><trkpt lat="44.7798967" lon="8.9853433"><ele>377.0</ele><time>2026-04-04T09:42:55.099Z</time></trkpt><trkpt lat="44.7798633" lon="8.98517"><ele>377.0</ele><time>2026-04-04T09:42:56.1Z</time></trkpt><trkpt lat="44.7798367" lon="8.98499"><ele>377.0</ele><time>2026-04-04T09:42:57.1Z</time></trkpt><trkpt lat="44.77982" lon="8.98481"><ele>377.0</ele><time>2026-04-04T09:42:58.098Z</time></trkpt><trkpt lat="44.7798133" lon="8.9846233"><ele>376.75</ele><time>2026-04-04T09:42:59.101Z</time></trkpt><trkpt lat="44.7798067" lon="8.9844317"><ele>376.5</ele><time>2026-04-04T09:43:00.103Z</time></trkpt><trkpt lat="44.7798017" lon="8.98425"><ele>376.25</ele><time>2026-04-04T09:43:01.101Z</time></trkpt><trkpt lat="44.7798" lon="8.9840633"><ele>376.0</ele><time>2026-04-04T09:43:02.101Z</time></trkpt><trkpt lat="44.7797867" lon="8.9838767"><ele>376.0</ele><time>2026-04-04T09:43:03.108Z</time></trkpt><trkpt lat="44.7797583" lon="8.98369"><ele>376.0</ele><time>2026-04-04T09:43:04.103Z</time></trkpt><trkpt lat="44.779725" lon="8.9835117"><ele>376.0</ele><time>2026-04-04T09:43:05.102Z</time></trkpt><trkpt lat="44.7796833" lon="8.983335"><ele>376.0</ele><time>2026-04-04T09:43:06.104Z</time></trkpt><trkpt lat="44.779635" lon="8.9831683"><ele>377.0</ele><time>2026-04-04T09:43:07.107Z</time></trkpt><trkpt lat="44.7795817" lon="8.983015"><ele>378.0</ele><time>2026-04-04T09:43:08.107Z</time></trkpt><trkpt lat="44.7795217" lon="8.98288"><ele>379.0</ele><time>2026-04-04T09:43:09.1Z</time></trkpt><trkpt lat="44.7794317" lon="8.9827667"><ele>380.0</ele><time>2026-04-04T09:43:10.101Z</time></trkpt><trkpt lat="44.7793267" lon="8.98267"><ele>383.5</ele><time>2026-04-04T09:43:11.106Z</time></trkpt><trkpt lat="44.7792167" lon="8.9825817"><ele>387.0</ele><time>2026-04-04T09:43:12.103Z</time></trkpt><trkpt lat="44.779115" lon="8.9825"><ele>390.5</ele><time>2026-04-04T09:43:13.104Z</time></trkpt><trkpt lat="44.7790133" lon="8.982415"><ele>394.0</ele><time>2026-04-04T09:43:14.098Z</time></trkpt><trkpt lat="44.7789183" lon="8.98232"><ele>395.25</ele><time>2026-04-04T09:43:15.101Z</time></trkpt><trkpt lat="44.7788333" lon="8.98221"><ele>396.5</ele><time>2026-04-04T09:43:16.101Z</time></trkpt><trkpt lat="44.7787567" lon="8.9820917"><ele>397.75</ele><time>2026-04-04T09:43:17.102Z</time></trkpt><trkpt lat="44.7786867" lon="8.981965"><ele>399.0</ele><time>2026-04-04T09:43:18.099Z</time></trkpt><trkpt lat="44.77862" lon="8.9818267"><ele>399.0</ele><time>2026-04-04T09:43:19.099Z</time></trkpt><trkpt lat="44.7785517" lon="8.9816817"><ele>399.0</ele><time>2026-04-04T09:43:20.099Z</time></trkpt><trkpt lat="44.7784783" lon="8.9815367"><ele>399.0</ele><time>2026-04-04T09:43:21.102Z</time></trkpt><trkpt lat="44.7784033" lon="8.9813867"><ele>399.0</ele><time>2026-04-04T09:43:22.103Z</time></trkpt><trkpt lat="44.7783167" lon="8.9812417"><ele>401.75</ele><time>2026-04-04T09:43:23.103Z</time></trkpt><trkpt lat="44.7782333" lon="8.981095"><ele>404.5</ele><time>2026-04-04T09:43:24.1Z</time></trkpt><trkpt lat="44.778155" lon="8.980935"><ele>407.25</ele><time>2026-04-04T09:43:25.105Z</time></trkpt><trkpt lat="44.7780917" lon="8.9807617"><ele>410.0</ele><time>2026-04-04T09:43:26.109Z</time></trkpt><trkpt lat="44.77804" lon="8.9805783"><ele>411.0</ele><time>2026-04-04T09:43:27.102Z</time></trkpt><trkpt lat="44.7780017" lon="8.9803967"><ele>412.0</ele><time>2026-04-04T09:43:28.101Z</time></trkpt><trkpt lat="44.7779667" lon="8.9802283"><ele>413.0</ele><time>2026-04-04T09:43:29.103Z</time></trkpt><trkpt lat="44.77794" lon="8.9800917"><ele>414.0</ele><time>2026-04-04T09:43:30.101Z</time></trkpt><trkpt lat="44.7779033" lon="8.9799917"><ele>415.0</ele><time>2026-04-04T09:43:31.108Z</time></trkpt><trkpt lat="44.7778633" lon="8.9799083"><ele>415.33333333333337</ele><time>2026-04-04T09:43:32.101Z</time></trkpt><trkpt lat="44.7778133" lon="8.97985"><ele>415.6666666666667</ele><time>2026-04-04T09:43:33.101Z</time></trkpt><trkpt lat="44.7777483" lon="8.979815"><ele>416.0</ele><time>2026-04-04T09:43:34.104Z</time></trkpt><trkpt lat="44.7776767" lon="8.979825"><ele>416.33333333333337</ele><time>2026-04-04T09:43:35.105Z</time></trkpt><trkpt lat="44.77757" lon="8.9798917"><ele>416.6666666666667</ele><time>2026-04-04T09:43:36.102Z</time></trkpt><trkpt lat="44.7774583" lon="8.9799633"><ele>417.0</ele><time>2026-04-04T09:43:37.103Z</time></trkpt><trkpt lat="44.77734" lon="8.9800283"><ele>418.75</ele><time>2026-04-04T09:43:38.104Z</time></trkpt><trkpt lat="44.7772167" lon="8.980095"><ele>420.5</ele><time>2026-04-04T09:43:39.107Z</time></trkpt><trkpt lat="44.7770933" lon="8.9801583"><ele>422.25</ele><time>2026-04-04T09:43:40.102Z</time></trkpt><trkpt lat="44.776965" lon="8.98022"><ele>424.0</ele><time>2026-04-04T09:43:41.104Z</time></trkpt><trkpt lat="44.77683" lon="8.980275"><ele>424.5</ele><time>2026-04-04T09:43:42.102Z</time></trkpt><trkpt lat="44.7767017" lon="8.9803267"><ele>425.0</ele><time>2026-04-04T09:43:43.103Z</time></trkpt><trkpt lat="44.7765783" lon="8.9803783"><ele>425.5</ele><time>2026-04-04T09:43:44.102Z</time></trkpt><trkpt lat="44.776465" lon="8.980425"><ele>426.0</ele><time>2026-04-04T09:43:45.1Z</time></trkpt><trkpt lat="44.7763733" lon="8.9804617"><ele>426.0</ele><time>2026-04-04T09:43:46.101Z</time></trkpt><trkpt lat="44.7762967" lon="8.9804867"><ele>426.0</ele><time>2026-04-04T09:43:47.102Z</time></trkpt><trkpt lat="44.77623" lon="8.980495"><ele>426.0</ele><time>2026-04-04T09:43:48.104Z</time></trkpt><trkpt lat="44.7762167" lon="8.9803733"><ele>426.0</ele><time>2026-04-04T09:43:50.101Z</time></trkpt><trkpt lat="44.77631" lon="8.9802467"><ele>426.0</ele><time>2026-04-04T09:43:52.108Z</time></trkpt><trkpt lat="44.776385" lon="8.9801783"><ele>426.0</ele><time>2026-04-04T09:43:53.104Z</time></trkpt><trkpt lat="44.7764733" lon="8.9800983"><ele>426.0</ele><time>2026-04-04T09:43:54.103Z</time></trkpt><trkpt lat="44.776575" lon="8.9799983"><ele>426.0</ele><time>2026-04-04T09:43:55.103Z</time></trkpt><trkpt lat="44.7766717" lon="8.9799017"><ele>426.0</ele><time>2026-04-04T09:43:56.105Z</time></trkpt><trkpt lat="44.77676" lon="8.9798083"><ele>427.6</ele><time>2026-04-04T09:43:57.101Z</time></trkpt><trkpt lat="44.776845" lon="8.979715"><ele>429.20000000000005</ele><time>2026-04-04T09:43:58.1Z</time></trkpt><trkpt lat="44.7769017" lon="8.979625"><ele>430.79999999999995</ele><time>2026-04-04T09:43:59.103Z</time></trkpt><trkpt lat="44.7769483" lon="8.9795267"><ele>432.4</ele><time>2026-04-04T09:44:00.101Z</time></trkpt><trkpt lat="44.7769117" lon="8.9793817"><ele>434.0</ele><time>2026-04-04T09:44:02.099Z</time></trkpt><trkpt lat="44.776775" lon="8.9793833"><ele>436.4</ele><time>2026-04-04T09:44:04.102Z</time></trkpt><trkpt lat="44.7767017" lon="8.9794317"><ele>438.79999999999995</ele><time>2026-04-04T09:44:05.101Z</time></trkpt><trkpt lat="44.7766167" lon="8.9795"><ele>441.20000000000005</ele><time>2026-04-04T09:44:06.101Z</time></trkpt><trkpt lat="44.7765217" lon="8.97958"><ele>443.6</ele><time>2026-04-04T09:44:07.103Z</time></trkpt><trkpt lat="44.7764217" lon="8.9796533"><ele>446.0</ele><time>2026-04-04T09:44:08.106Z</time></trkpt><trkpt lat="44.7763083" lon="8.9797183"><ele>446.0</ele><time>2026-04-04T09:44:09.1Z</time></trkpt><trkpt lat="44.77619" lon="8.9797767"><ele>446.0</ele><time>2026-04-04T09:44:10.105Z</time></trkpt><trkpt lat="44.7760733" lon="8.9798217"><ele>446.0</ele><time>2026-04-04T09:44:11.104Z</time></trkpt><trkpt lat="44.775955" lon="8.9798633"><ele>446.0</ele><time>2026-04-04T09:44:12.102Z</time></trkpt><trkpt lat="44.7758417" lon="8.9799067"><ele>448.4</ele><time>2026-04-04T09:44:13.101Z</time></trkpt><trkpt lat="44.775735" lon="8.97994"><ele>450.8</ele><time>2026-04-04T09:44:14.103Z</time></trkpt><trkpt lat="44.7756317" lon="8.979945"><ele>453.19999999999993</ele><time>2026-04-04T09:44:15.103Z</time></trkpt><trkpt lat="44.775535" lon="8.9799117"><ele>455.59999999999997</ele><time>2026-04-04T09:44:16.102Z</time></trkpt><trkpt lat="44.7754383" lon="8.97986"><ele>458.0</ele><time>2026-04-04T09:44:17.11Z</time></trkpt><trkpt lat="44.7753483" lon="8.9798"><ele>457.99999999999994</ele><time>2026-04-04T09:44:18.105Z</time></trkpt><trkpt lat="44.775275" lon="8.97975"><ele>458.0</ele><time>2026-04-04T09:44:19.101Z</time></trkpt><trkpt lat="44.77521" lon="8.979705"><ele>458.0</ele><time>2026-04-04T09:44:20.102Z</time></trkpt><trkpt lat="44.775165" lon="8.9795917"><ele>458.0</ele><time>2026-04-04T09:44:22.105Z</time></trkpt><trkpt lat="44.7752267" lon="8.9794867"><ele>457.99999999999994</ele><time>2026-04-04T09:44:24.1Z</time></trkpt><trkpt lat="44.7752983" lon="8.979465"><ele>458.0</ele><time>2026-04-04T09:44:25.104Z</time></trkpt><trkpt lat="44.7753917" lon="8.9794583"><ele>458.0</ele><time>2026-04-04T09:44:26.101Z</time></trkpt><trkpt lat="44.7754733" lon="8.9794433"><ele>457.99999999999994</ele><time>2026-04-04T09:44:27.104Z</time></trkpt><trkpt lat="44.7755617" lon="8.9794067"><ele>457.99999999999994</ele><time>2026-04-04T09:44:28.099Z</time></trkpt><trkpt lat="44.775655" lon="8.9793517"><ele>458.0</ele><time>2026-04-04T09:44:29.102Z</time></trkpt><trkpt lat="44.7757517" lon="8.97928"><ele>458.0</ele><time>2026-04-04T09:44:30.118Z</time></trkpt><trkpt lat="44.7758517" lon="8.9791967"><ele>458.59999999999997</ele><time>2026-04-04T09:44:31.102Z</time></trkpt><trkpt lat="44.7759483" lon="8.9791083"><ele>459.19999999999993</ele><time>2026-04-04T09:44:32.107Z</time></trkpt><trkpt lat="44.7760383" lon="8.9790233"><ele>459.8</ele><time>2026-04-04T09:44:33.098Z</time></trkpt><trkpt lat="44.7761183" lon="8.9789367"><ele>460.4</ele><time>2026-04-04T09:44:34.101Z</time></trkpt><trkpt lat="44.7761817" lon="8.9788417"><ele>461.0</ele><time>2026-04-04T09:44:35.101Z</time></trkpt><trkpt lat="44.77623" lon="8.978735"><ele>460.99999999999994</ele><time>2026-04-04T09:44:36.103Z</time></trkpt><trkpt lat="44.7762583" lon="8.9786167"><ele>461.0</ele><time>2026-04-04T09:44:37.105Z</time></trkpt><trkpt lat="44.7762683" lon="8.9785"><ele>461.0</ele><time>2026-04-04T09:44:38.1Z</time></trkpt><trkpt lat="44.77626" lon="8.9783817"><ele>461.0</ele><time>2026-04-04T09:44:39.1Z</time></trkpt><trkpt lat="44.7762183" lon="8.97827"><ele>460.99999999999994</ele><time>2026-04-04T09:44:40.105Z</time></trkpt><trkpt lat="44.77616" lon="8.9781567"><ele>461.0</ele><time>2026-04-04T09:44:41.107Z</time></trkpt><trkpt lat="44.776095" lon="8.978045"><ele>463.0</ele><time>2026-04-04T09:44:42.103Z</time></trkpt><trkpt lat="44.7760283" lon="8.9779317"><ele>465.0</ele><time>2026-04-04T09:44:43.1Z</time></trkpt><trkpt lat="44.7759883" lon="8.97781"><ele>467.0</ele><time>2026-04-04T09:44:44.106Z</time></trkpt><trkpt lat="44.7759667" lon="8.9776933"><ele>469.0</ele><time>2026-04-04T09:44:45.1Z</time></trkpt><trkpt lat="44.7759733" lon="8.9775667"><ele>471.0</ele><time>2026-04-04T09:44:46.097Z</time></trkpt><trkpt lat="44.776" lon="8.9774433"><ele>472.4</ele><time>2026-04-04T09:44:47.1Z</time></trkpt><trkpt lat="44.7760183" lon="8.9773217"><ele>473.8</ele><time>2026-04-04T09:44:48.103Z</time></trkpt><trkpt lat="44.7760383" lon="8.977205"><ele>475.19999999999993</ele><time>2026-04-04T09:44:49.104Z</time></trkpt><trkpt lat="44.7760517" lon="8.977085"><ele>476.59999999999997</ele><time>2026-04-04T09:44:50.102Z</time></trkpt><trkpt lat="44.7759933" lon="8.9770283"><ele>478.0</ele><time>2026-04-04T09:44:51.101Z</time></trkpt><trkpt lat="44.7758667" lon="8.9769817"><ele>482.0</ele><time>2026-04-04T09:44:53.1Z</time></trkpt><trkpt lat="44.7757867" lon="8.977025"><ele>485.99999999999994</ele><time>2026-04-04T09:44:54.103Z</time></trkpt><trkpt lat="44.7756967" lon="8.977095"><ele>489.99999999999994</ele><time>2026-04-04T09:44:55.102Z</time></trkpt><trkpt lat="44.7756" lon="8.97718"><ele>494.0</ele><time>2026-04-04T09:44:56.105Z</time></trkpt><trkpt lat="44.7755067" lon="8.9772633"><ele>498.0</ele><time>2026-04-04T09:44:57.102Z</time></trkpt><trkpt lat="44.77542" lon="8.977345"><ele>498.0</ele><time>2026-04-04T09:44:58.103Z</time></trkpt><trkpt lat="44.775335" lon="8.9774217"><ele>497.99999999999994</ele><time>2026-04-04T09:44:59.099Z</time></trkpt><trkpt lat="44.7752517" lon="8.9774917"><ele>497.99999999999994</ele><time>2026-04-04T09:45:00.105Z</time></trkpt><trkpt lat="44.7751683" lon="8.9775583"><ele>498.0</ele><time>2026-04-04T09:45:01.106Z</time></trkpt><trkpt lat="44.775095" lon="8.977625"><ele>498.0</ele><time>2026-04-04T09:45:02.1Z</time></trkpt><trkpt lat="44.775025" lon="8.9776917"><ele>498.0</ele><time>2026-04-04T09:45:03.099Z</time></trkpt><trkpt lat="44.77496" lon="8.9777517"><ele>498.0</ele><time>2026-04-04T09:45:04.102Z</time></trkpt><trkpt lat="44.774895" lon="8.9778"><ele>498.0</ele><time>2026-04-04T09:45:05.111Z</time></trkpt><trkpt lat="44.7748267" lon="8.9778267"><ele>498.0</ele><time>2026-04-04T09:45:06.101Z</time></trkpt><trkpt lat="44.7747567" lon="8.9778167"><ele>498.0</ele><time>2026-04-04T09:45:07.103Z</time></trkpt><trkpt lat="44.7746733" lon="8.977735"><ele>498.0</ele><time>2026-04-04T09:45:08.1Z</time></trkpt><trkpt lat="44.7745667" lon="8.97766"><ele>498.0</ele><time>2026-04-04T09:45:09.102Z</time></trkpt><trkpt lat="44.77446" lon="8.9775717"><ele>498.0</ele><time>2026-04-04T09:45:10.101Z</time></trkpt><trkpt lat="44.774355" lon="8.9774783"><ele>498.0</ele><time>2026-04-04T09:45:11.101Z</time></trkpt><trkpt lat="44.77425" lon="8.9773833"><ele>498.0</ele><time>2026-04-04T09:45:12.103Z</time></trkpt><trkpt lat="44.7741567" lon="8.9772883"><ele>500.4</ele><time>2026-04-04T09:45:13.101Z</time></trkpt><trkpt lat="44.774065" lon="8.9771933"><ele>502.79999999999995</ele><time>2026-04-04T09:45:14.104Z</time></trkpt><trkpt lat="44.77399" lon="8.9770983"><ele>505.2</ele><time>2026-04-04T09:45:15.103Z</time></trkpt><trkpt lat="44.773935" lon="8.9770017"><ele>507.6</ele><time>2026-04-04T09:45:16.105Z</time></trkpt><trkpt lat="44.773895" lon="8.9769033"><ele>510.0</ele><time>2026-04-04T09:45:17.103Z</time></trkpt><trkpt lat="44.7738833" lon="8.9767917"><ele>513.4</ele><time>2026-04-04T09:45:18.102Z</time></trkpt><trkpt lat="44.7738983" lon="8.9766717"><ele>516.8</ele><time>2026-04-04T09:45:19.106Z</time></trkpt><trkpt lat="44.77393" lon="8.9765517"><ele>520.2</ele><time>2026-04-04T09:45:20.105Z</time></trkpt><trkpt lat="44.7739983" lon="8.9764567"><ele>523.6</ele><time>2026-04-04T09:45:21.103Z</time></trkpt><trkpt lat="44.774085" lon="8.9763367"><ele>527.0</ele><time>2026-04-04T09:45:22.103Z</time></trkpt><trkpt lat="44.77417" lon="8.9762167"><ele>527.0</ele><time>2026-04-04T09:45:23.107Z</time></trkpt><trkpt lat="44.7742533" lon="8.9760883"><ele>527.0</ele><time>2026-04-04T09:45:24.103Z</time></trkpt><trkpt lat="44.7743333" lon="8.9759517"><ele>527.0</ele><time>2026-04-04T09:45:25.102Z</time></trkpt><trkpt lat="44.7744117" lon="8.9758083"><ele>527.0</ele><time>2026-04-04T09:45:26.099Z</time></trkpt><trkpt lat="44.7744967" lon="8.9756617"><ele>525.5</ele><time>2026-04-04T09:45:27.101Z</time></trkpt><trkpt lat="44.7745767" lon="8.975515"><ele>524.0</ele><time>2026-04-04T09:45:28.103Z</time></trkpt><trkpt lat="44.7746567" lon="8.9753717"><ele>522.5</ele><time>2026-04-04T09:45:29.106Z</time></trkpt><trkpt lat="44.7747317" lon="8.97524"><ele>521.0</ele><time>2026-04-04T09:45:30.099Z</time></trkpt><trkpt lat="44.7747933" lon="8.9751217"><ele>523.6</ele><time>2026-04-04T09:45:31.101Z</time></trkpt><trkpt lat="44.774835" lon="8.9750183"><ele>526.2</ele><time>2026-04-04T09:45:32.101Z</time></trkpt><trkpt lat="44.7748583" lon="8.9749183"><ele>528.8</ele><time>2026-04-04T09:45:33.101Z</time></trkpt><trkpt lat="44.774865" lon="8.9748267"><ele>531.4</ele><time>2026-04-04T09:45:34.101Z</time></trkpt><trkpt lat="44.774805" lon="8.97471"><ele>534.0</ele><time>2026-04-04T09:45:36.101Z</time></trkpt><trkpt lat="44.7746717" lon="8.9747933"><ele>534.0</ele><time>2026-04-04T09:45:38.101Z</time></trkpt><trkpt lat="44.7746083" lon="8.9748583"><ele>534.0</ele><time>2026-04-04T09:45:39.104Z</time></trkpt><trkpt lat="44.7745433" lon="8.9749417"><ele>534.0</ele><time>2026-04-04T09:45:40.103Z</time></trkpt><trkpt lat="44.7744633" lon="8.9750317"><ele>534.0</ele><time>2026-04-04T09:45:41.101Z</time></trkpt><trkpt lat="44.7743783" lon="8.9751367"><ele>534.0</ele><time>2026-04-04T09:45:42.102Z</time></trkpt><trkpt lat="44.77428" lon="8.97524"><ele>535.5</ele><time>2026-04-04T09:45:43.1Z</time></trkpt><trkpt lat="44.7741783" lon="8.9753283"><ele>537.0</ele><time>2026-04-04T09:45:44.104Z</time></trkpt><trkpt lat="44.7740817" lon="8.9754167"><ele>538.5</ele><time>2026-04-04T09:45:45.103Z</time></trkpt><trkpt lat="44.773985" lon="8.9755033"><ele>540.0</ele><time>2026-04-04T09:45:46.105Z</time></trkpt><trkpt lat="44.7738933" lon="8.97559"><ele>540.0</ele><time>2026-04-04T09:45:47.104Z</time></trkpt><trkpt lat="44.7738067" lon="8.975675"><ele>540.0</ele><time>2026-04-04T09:45:48.099Z</time></trkpt><trkpt lat="44.7737267" lon="8.9757567"><ele>540.0</ele><time>2026-04-04T09:45:49.103Z</time></trkpt><trkpt lat="44.7736567" lon="8.9758283"><ele>540.0</ele><time>2026-04-04T09:45:50.1Z</time></trkpt><trkpt lat="44.7735883" lon="8.97588"><ele>540.0</ele><time>2026-04-04T09:45:51.098Z</time></trkpt><trkpt lat="44.7735267" lon="8.9759133"><ele>540.0</ele><time>2026-04-04T09:45:52.101Z</time></trkpt><trkpt lat="44.77346" lon="8.9759217"><ele>542.0</ele><time>2026-04-04T09:45:53.103Z</time></trkpt><trkpt lat="44.7733933" lon="8.975905"><ele>544.0</ele><time>2026-04-04T09:45:54.099Z</time></trkpt><trkpt lat="44.7733167" lon="8.9758717"><ele>546.0</ele><time>2026-04-04T09:45:55.098Z</time></trkpt><trkpt lat="44.77322" lon="8.97583"><ele>548.0</ele><time>2026-04-04T09:45:56.105Z</time></trkpt><trkpt lat="44.7731233" lon="8.9757967"><ele>550.0</ele><time>2026-04-04T09:45:57.104Z</time></trkpt><trkpt lat="44.7730033" lon="8.9757833"><ele>550.0</ele><time>2026-04-04T09:45:58.099Z</time></trkpt><trkpt lat="44.7728867" lon="8.9757867"><ele>550.0</ele><time>2026-04-04T09:45:59.105Z</time></trkpt><trkpt lat="44.7727783" lon="8.97582"><ele>550.0</ele><time>2026-04-04T09:46:00.101Z</time></trkpt><trkpt lat="44.7726817" lon="8.97587"><ele>550.0</ele><time>2026-04-04T09:46:01.099Z</time></trkpt><trkpt lat="44.7726" lon="8.9759417"><ele>550.0</ele><time>2026-04-04T09:46:02.106Z</time></trkpt><trkpt lat="44.7725283" lon="8.976025"><ele>548.0</ele><time>2026-04-04T09:46:03.101Z</time></trkpt><trkpt lat="44.77247" lon="8.9761117"><ele>546.0</ele><time>2026-04-04T09:46:04.103Z</time></trkpt><trkpt lat="44.7724167" lon="8.9761983"><ele>544.0</ele><time>2026-04-04T09:46:05.104Z</time></trkpt><trkpt lat="44.7723683" lon="8.9762817"><ele>542.0</ele><time>2026-04-04T09:46:06.099Z</time></trkpt><trkpt lat="44.7723233" lon="8.97636"><ele>540.0</ele><time>2026-04-04T09:46:07.108Z</time></trkpt><trkpt lat="44.77228" lon="8.976435"><ele>538.0</ele><time>2026-04-04T09:46:08.105Z</time></trkpt><trkpt lat="44.7722317" lon="8.9765067"><ele>538.0</ele><time>2026-04-04T09:46:09.103Z</time></trkpt><trkpt lat="44.7721717" lon="8.97658"><ele>538.0</ele><time>2026-04-04T09:46:10.099Z</time></trkpt><trkpt lat="44.7721083" lon="8.97665"><ele>538.0</ele><time>2026-04-04T09:46:11.105Z</time></trkpt><trkpt lat="44.77204" lon="8.9767117"><ele>538.0</ele><time>2026-04-04T09:46:12.101Z</time></trkpt><trkpt lat="44.7719617" lon="8.9767667"><ele>538.0</ele><time>2026-04-04T09:46:13.107Z</time></trkpt><trkpt lat="44.7718633" lon="8.976805"><ele>538.0</ele><time>2026-04-04T09:46:14.106Z</time></trkpt><trkpt lat="44.7717433" lon="8.9768067"><ele>536.6</ele><time>2026-04-04T09:46:15.101Z</time></trkpt><trkpt lat="44.771635" lon="8.97685"><ele>535.1999999999999</ele><time>2026-04-04T09:46:16.099Z</time></trkpt><trkpt lat="44.7715283" lon="8.9768433"><ele>533.8</ele><time>2026-04-04T09:46:17.102Z</time></trkpt><trkpt lat="44.77143" lon="8.976875"><ele>532.4</ele><time>2026-04-04T09:46:18.108Z</time></trkpt><trkpt lat="44.7713333" lon="8.9769"><ele>531.0</ele><time>2026-04-04T09:46:19.1Z</time></trkpt><trkpt lat="44.7712383" lon="8.9769317"><ele>531.0</ele><time>2026-04-04T09:46:20.101Z</time></trkpt><trkpt lat="44.7711433" lon="8.9769667"><ele>531.0</ele><time>2026-04-04T09:46:21.102Z</time></trkpt><trkpt lat="44.7710533" lon="8.9770267"><ele>531.0</ele><time>2026-04-04T09:46:22.103Z</time></trkpt><trkpt lat="44.770965" lon="8.97711"><ele>531.0</ele><time>2026-04-04T09:46:23.101Z</time></trkpt><trkpt lat="44.7708817" lon="8.97722"><ele>531.0</ele><time>2026-04-04T09:46:24.104Z</time></trkpt><trkpt lat="44.7708017" lon="8.9773317"><ele>531.25</ele><time>2026-04-04T09:46:25.106Z</time></trkpt><trkpt lat="44.7707067" lon="8.9774583"><ele>531.5</ele><time>2026-04-04T09:46:26.101Z</time></trkpt><trkpt lat="44.7706067" lon="8.9775883"><ele>531.75</ele><time>2026-04-04T09:46:27.103Z</time></trkpt><trkpt lat="44.7705167" lon="8.9777383"><ele>532.0</ele><time>2026-04-04T09:46:28.103Z</time></trkpt><trkpt lat="44.7704317" lon="8.97788"><ele>532.0</ele><time>2026-04-04T09:46:29.107Z</time></trkpt><trkpt lat="44.7703417" lon="8.97802"><ele>532.0</ele><time>2026-04-04T09:46:30.102Z</time></trkpt><trkpt lat="44.7702583" lon="8.9781567"><ele>532.0</ele><time>2026-04-04T09:46:31.106Z</time></trkpt><trkpt lat="44.7701817" lon="8.9782867"><ele>532.0</ele><time>2026-04-04T09:46:32.109Z</time></trkpt><trkpt lat="44.7701117" lon="8.9784233"><ele>535.75</ele><time>2026-04-04T09:46:33.103Z</time></trkpt><trkpt lat="44.7700683" lon="8.9785767"><ele>539.5</ele><time>2026-04-04T09:46:34.106Z</time></trkpt><trkpt lat="44.7700417" lon="8.9787417"><ele>543.25</ele><time>2026-04-04T09:46:35.105Z</time></trkpt><trkpt lat="44.77003" lon="8.9789133"><ele>547.0</ele><time>2026-04-04T09:46:36.1Z</time></trkpt><trkpt lat="44.7700117" lon="8.9790583"><ele>545.75</ele><time>2026-04-04T09:46:37.101Z</time></trkpt><trkpt lat="44.769995" lon="8.9792167"><ele>544.5</ele><time>2026-04-04T09:46:38.099Z</time></trkpt><trkpt lat="44.7699633" lon="8.9793783"><ele>543.25</ele><time>2026-04-04T09:46:39.102Z</time></trkpt><trkpt lat="44.7699317" lon="8.9795567"><ele>542.0</ele><time>2026-04-04T09:46:40.1Z</time></trkpt><trkpt lat="44.76989" lon="8.9797483"><ele>542.0</ele><time>2026-04-04T09:46:41.1Z</time></trkpt><trkpt lat="44.7698467" lon="8.9799267"><ele>542.0</ele><time>2026-04-04T09:46:42.101Z</time></trkpt><trkpt lat="44.7697983" lon="8.9801033"><ele>542.0</ele><time>2026-04-04T09:46:43.102Z</time></trkpt><trkpt lat="44.76975" lon="8.980285"><ele>542.0</ele><time>2026-04-04T09:46:44.101Z</time></trkpt><trkpt lat="44.7697133" lon="8.98048"><ele>541.0</ele><time>2026-04-04T09:46:45.102Z</time></trkpt><trkpt lat="44.76969" lon="8.98067"><ele>540.0</ele><time>2026-04-04T09:46:46.101Z</time></trkpt><trkpt lat="44.769675" lon="8.9808633"><ele>539.0</ele><time>2026-04-04T09:46:47.104Z</time></trkpt><trkpt lat="44.76967" lon="8.9810333"><ele>538.0</ele><time>2026-04-04T09:46:48.101Z</time></trkpt><trkpt lat="44.769665" lon="8.9811783"><ele>536.8</ele><time>2026-04-04T09:46:49.102Z</time></trkpt><trkpt lat="44.769645" lon="8.9812933"><ele>535.5999999999999</ele><time>2026-04-04T09:46:50.101Z</time></trkpt><trkpt lat="44.7696133" lon="8.981405"><ele>534.4000000000001</ele><time>2026-04-04T09:46:51.101Z</time></trkpt><trkpt lat="44.7695467" lon="8.9814783"><ele>533.2</ele><time>2026-04-04T09:46:52.101Z</time></trkpt><trkpt lat="44.769475" lon="8.9815333"><ele>532.0</ele><time>2026-04-04T09:46:53.107Z</time></trkpt><trkpt lat="44.7693633" lon="8.981495"><ele>535.8000000000001</ele><time>2026-04-04T09:46:54.101Z</time></trkpt><trkpt lat="44.769255" lon="8.9814717"><ele>539.6</ele><time>2026-04-04T09:46:55.105Z</time></trkpt><trkpt lat="44.7691417" lon="8.98145"><ele>543.4000000000001</ele><time>2026-04-04T09:46:56.107Z</time></trkpt><trkpt lat="44.76903" lon="8.9814417"><ele>547.2</ele><time>2026-04-04T09:46:57.099Z</time></trkpt><trkpt lat="44.7689333" lon="8.981455"><ele>551.0</ele><time>2026-04-04T09:46:58.104Z</time></trkpt><trkpt lat="44.7688533" lon="8.981505"><ele>551.0</ele><time>2026-04-04T09:46:59.101Z</time></trkpt><trkpt lat="44.7687767" lon="8.981575"><ele>551.0</ele><time>2026-04-04T09:47:00.1Z</time></trkpt><trkpt lat="44.7687183" lon="8.9816783"><ele>551.0</ele><time>2026-04-04T09:47:01.102Z</time></trkpt><trkpt lat="44.76867" lon="8.981805"><ele>551.0</ele><time>2026-04-04T09:47:02.102Z</time></trkpt><trkpt lat="44.7686167" lon="8.9819333"><ele>551.0</ele><time>2026-04-04T09:47:03.101Z</time></trkpt><trkpt lat="44.7685567" lon="8.9820517"><ele>552.4</ele><time>2026-04-04T09:47:04.101Z</time></trkpt><trkpt lat="44.768495" lon="8.982165"><ele>553.8</ele><time>2026-04-04T09:47:05.1Z</time></trkpt><trkpt lat="44.768425" lon="8.9822883"><ele>555.1999999999999</ele><time>2026-04-04T09:47:06.101Z</time></trkpt><trkpt lat="44.7683517" lon="8.9823867"><ele>556.6</ele><time>2026-04-04T09:47:07.103Z</time></trkpt><trkpt lat="44.7682733" lon="8.9824733"><ele>558.0</ele><time>2026-04-04T09:47:08.112Z</time></trkpt><trkpt lat="44.7681817" lon="8.98255"><ele>552.25</ele><time>2026-04-04T09:47:09.1Z</time></trkpt><trkpt lat="44.768095" lon="8.98264"><ele>546.5</ele><time>2026-04-04T09:47:10.101Z</time></trkpt><trkpt lat="44.7680017" lon="8.9827383"><ele>540.75</ele><time>2026-04-04T09:47:11.105Z</time></trkpt><trkpt lat="44.7679017" lon="8.9828267"><ele>535.0</ele><time>2026-04-04T09:47:12.105Z</time></trkpt><trkpt lat="44.7677933" lon="8.9829083"><ele>542.5</ele><time>2026-04-04T09:47:13.103Z</time></trkpt><trkpt lat="44.7676767" lon="8.9829717"><ele>550.0</ele><time>2026-04-04T09:47:14.104Z</time></trkpt><trkpt lat="44.7675567" lon="8.9830333"><ele>557.5</ele><time>2026-04-04T09:47:15.105Z</time></trkpt><trkpt lat="44.7674283" lon="8.9830967"><ele>565.0</ele><time>2026-04-04T09:47:16.096Z</time></trkpt><trkpt lat="44.76732" lon="8.9831967"><ele>565.0</ele><time>2026-04-04T09:47:17.102Z</time></trkpt><trkpt lat="44.767215" lon="8.9833167"><ele>565.0</ele><time>2026-04-04T09:47:18.097Z</time></trkpt><trkpt lat="44.7671067" lon="8.9834383"><ele>565.0</ele><time>2026-04-04T09:47:19.109Z</time></trkpt><trkpt lat="44.7669883" lon="8.9835367"><ele>565.0</ele><time>2026-04-04T09:47:20.102Z</time></trkpt><trkpt lat="44.7668533" lon="8.98361"><ele>563.0</ele><time>2026-04-04T09:47:21.105Z</time></trkpt><trkpt lat="44.766725" lon="8.9836667"><ele>561.0</ele><time>2026-04-04T09:47:22.104Z</time></trkpt><trkpt lat="44.766595" lon="8.9837167"><ele>559.0</ele><time>2026-04-04T09:47:23.104Z</time></trkpt><trkpt lat="44.766495" lon="8.98375"><ele>557.0</ele><time>2026-04-04T09:47:24.101Z</time></trkpt><trkpt lat="44.7664067" lon="8.983775"><ele>557.0</ele><time>2026-04-04T09:47:25.101Z</time></trkpt><trkpt lat="44.7663283" lon="8.9837933"><ele>557.0</ele><time>2026-04-04T09:47:26.1Z</time></trkpt><trkpt lat="44.76626" lon="8.9837983"><ele>557.0</ele><time>2026-04-04T09:47:27.103Z</time></trkpt><trkpt lat="44.7661433" lon="8.98376"><ele>557.0</ele><time>2026-04-04T09:47:29.105Z</time></trkpt><trkpt lat="44.7661333" lon="8.983535"><ele>557.0</ele><time>2026-04-04T09:47:31.096Z</time></trkpt><trkpt lat="44.76615" lon="8.9833517"><ele>562.75</ele><time>2026-04-04T09:47:32.103Z</time></trkpt><trkpt lat="44.766155" lon="8.98317"><ele>568.5</ele><time>2026-04-04T09:47:33.099Z</time></trkpt><trkpt lat="44.7661683" lon="8.9829833"><ele>574.25</ele><time>2026-04-04T09:47:34.101Z</time></trkpt><trkpt lat="44.76617" lon="8.98281"><ele>580.0</ele><time>2026-04-04T09:47:35.103Z</time></trkpt><trkpt lat="44.766165" lon="8.9826283"><ele>583.25</ele><time>2026-04-04T09:47:36.1Z</time></trkpt><trkpt lat="44.7661467" lon="8.98245"><ele>586.5</ele><time>2026-04-04T09:47:37.1Z</time></trkpt><trkpt lat="44.7661233" lon="8.9822733"><ele>589.75</ele><time>2026-04-04T09:47:38.101Z</time></trkpt><trkpt lat="44.7661" lon="8.982095"><ele>593.0</ele><time>2026-04-04T09:47:39.101Z</time></trkpt><trkpt lat="44.766065" lon="8.9819317"><ele>589.1999999999999</ele><time>2026-04-04T09:47:40.103Z</time></trkpt><trkpt lat="44.766015" lon="8.9817867"><ele>585.4</ele><time>2026-04-04T09:47:41.106Z</time></trkpt><trkpt lat="44.7659533" lon="8.9816617"><ele>581.5999999999999</ele><time>2026-04-04T09:47:42.108Z</time></trkpt><trkpt lat="44.76589" lon="8.9815433"><ele>577.8</ele><time>2026-04-04T09:47:43.098Z</time></trkpt><trkpt lat="44.7658183" lon="8.981425"><ele>574.0</ele><time>2026-04-04T09:47:44.099Z</time></trkpt><trkpt lat="44.7657517" lon="8.9813067"><ele>574.0</ele><time>2026-04-04T09:47:45.099Z</time></trkpt><trkpt lat="44.7656883" lon="8.9811867"><ele>574.0</ele><time>2026-04-04T09:47:46.101Z</time></trkpt><trkpt lat="44.7656333" lon="8.9810583"><ele>574.0</ele><time>2026-04-04T09:47:47.102Z</time></trkpt><trkpt lat="44.7655933" lon="8.9809233"><ele>574.0</ele><time>2026-04-04T09:47:48.101Z</time></trkpt><trkpt lat="44.765565" lon="8.9807917"><ele>574.0</ele><time>2026-04-04T09:47:49.101Z</time></trkpt><trkpt lat="44.7655417" lon="8.980665"><ele>576.3333333333334</ele><time>2026-04-04T09:47:50.101Z</time></trkpt><trkpt lat="44.765515" lon="8.9805433"><ele>578.6666666666667</ele><time>2026-04-04T09:47:51.104Z</time></trkpt><trkpt lat="44.76549" lon="8.9804333"><ele>581.0</ele><time>2026-04-04T09:47:52.102Z</time></trkpt><trkpt lat="44.7654617" lon="8.98035"><ele>583.3333333333334</ele><time>2026-04-04T09:47:53.102Z</time></trkpt><trkpt lat="44.765425" lon="8.9802517"><ele>585.6666666666666</ele><time>2026-04-04T09:47:55.106Z</time></trkpt><trkpt lat="44.76538" lon="8.9801517"><ele>588.0</ele><time>2026-04-04T09:48:33.099Z</time></trkpt><trkpt lat="44.7653333" lon="8.980085"><ele>586.3333333333334</ele><time>2026-04-04T09:48:34.102Z</time></trkpt><trkpt lat="44.7652783" lon="8.980005"><ele>584.6666666666666</ele><time>2026-04-04T09:48:35.098Z</time></trkpt><trkpt lat="44.7652183" lon="8.9799183"><ele>583.0</ele><time>2026-04-04T09:48:36.105Z</time></trkpt><trkpt lat="44.7651617" lon="8.9798317"><ele>581.3333333333333</ele><time>2026-04-04T09:48:37.101Z</time></trkpt><trkpt lat="44.7651067" lon="8.9797367"><ele>579.6666666666666</ele><time>2026-04-04T09:48:38.104Z</time></trkpt><trkpt lat="44.76505" lon="8.9796433"><ele>578.0</ele><time>2026-04-04T09:48:39.101Z</time></trkpt><trkpt lat="44.7649833" lon="8.9795533"><ele>578.0</ele><time>2026-04-04T09:48:40.101Z</time></trkpt><trkpt lat="44.7649167" lon="8.9794683"><ele>578.0</ele><time>2026-04-04T09:48:41.102Z</time></trkpt><trkpt lat="44.7648467" lon="8.9794"><ele>578.0</ele><time>2026-04-04T09:48:42.104Z</time></trkpt><trkpt lat="44.764775" lon="8.9793333"><ele>578.0</ele><time>2026-04-04T09:48:43.106Z</time></trkpt><trkpt lat="44.76471" lon="8.9792617"><ele>578.0</ele><time>2026-04-04T09:48:44.105Z</time></trkpt><trkpt lat="44.7646433" lon="8.9791833"><ele>578.0</ele><time>2026-04-04T09:48:45.104Z</time></trkpt><trkpt lat="44.7645967" lon="8.97909"><ele>580.1666666666666</ele><time>2026-04-04T09:48:46.104Z</time></trkpt><trkpt lat="44.7645733" lon="8.978975"><ele>582.3333333333333</ele><time>2026-04-04T09:48:47.101Z</time></trkpt><trkpt lat="44.7645517" lon="8.9788533"><ele>584.5</ele><time>2026-04-04T09:48:48.106Z</time></trkpt><trkpt lat="44.7645317" lon="8.9787283"><ele>586.6666666666666</ele><time>2026-04-04T09:48:49.105Z</time></trkpt><trkpt lat="44.7645117" lon="8.9786083"><ele>588.8333333333334</ele><time>2026-04-04T09:48:50.101Z</time></trkpt><trkpt lat="44.764495" lon="8.978495"><ele>591.0</ele><time>2026-04-04T09:48:51.105Z</time></trkpt><trkpt lat="44.764485" lon="8.9783833"><ele>593.0</ele><time>2026-04-04T09:48:52.106Z</time></trkpt><trkpt lat="44.7644733" lon="8.9782683"><ele>595.0</ele><time>2026-04-04T09:48:53.101Z</time></trkpt><trkpt lat="44.7644617" lon="8.9781433"><ele>597.0</ele><time>2026-04-04T09:48:54.1Z</time></trkpt><trkpt lat="44.764445" lon="8.9780083"><ele>599.0</ele><time>2026-04-04T09:48:55.111Z</time></trkpt><trkpt lat="44.764415" lon="8.97787"><ele>601.0</ele><time>2026-04-04T09:48:56.099Z</time></trkpt><trkpt lat="44.7643733" lon="8.9777417"><ele>597.3333333333334</ele><time>2026-04-04T09:48:57.1Z</time></trkpt><trkpt lat="44.764315" lon="8.9776317"><ele>593.6666666666667</ele><time>2026-04-04T09:48:58.101Z</time></trkpt><trkpt lat="44.7642567" lon="8.977535"><ele>590.0</ele><time>2026-04-04T09:48:59.102Z</time></trkpt><trkpt lat="44.764195" lon="8.9774483"><ele>586.3333333333334</ele><time>2026-04-04T09:49:00.1Z</time></trkpt><trkpt lat="44.7641467" lon="8.9773533"><ele>582.6666666666666</ele><time>2026-04-04T09:49:01.103Z</time></trkpt><trkpt lat="44.7640983" lon="8.977255"><ele>579.0</ele><time>2026-04-04T09:49:02.102Z</time></trkpt><trkpt lat="44.764055" lon="8.97715"><ele>579.0</ele><time>2026-04-04T09:49:03.105Z</time></trkpt><trkpt lat="44.7640167" lon="8.9770417"><ele>579.0</ele><time>2026-04-04T09:49:04.103Z</time></trkpt><trkpt lat="44.7639767" lon="8.9769433"><ele>579.0</ele><time>2026-04-04T09:49:05.101Z</time></trkpt><trkpt lat="44.7639467" lon="8.9768583"><ele>579.0</ele><time>2026-04-04T09:49:06.107Z</time></trkpt><trkpt lat="44.76393" lon="8.9767683"><ele>579.0</ele><time>2026-04-04T09:49:07.108Z</time></trkpt><trkpt lat="44.7639183" lon="8.9766667"><ele>579.0</ele><time>2026-04-04T09:49:08.107Z</time></trkpt><trkpt lat="44.76393" lon="8.9765467"><ele>579.6666666666666</ele><time>2026-04-04T09:49:09.102Z</time></trkpt><trkpt lat="44.7639317" lon="8.9764567"><ele>580.3333333333334</ele><time>2026-04-04T09:49:10.104Z</time></trkpt><trkpt lat="44.763935" lon="8.9763467"><ele>581.0</ele><time>2026-04-04T09:49:11.116Z</time></trkpt><trkpt lat="44.7639317" lon="8.9762317"><ele>581.6666666666667</ele><time>2026-04-04T09:49:12.1Z</time></trkpt><trkpt lat="44.7639067" lon="8.9761183"><ele>582.3333333333334</ele><time>2026-04-04T09:49:13.105Z</time></trkpt><trkpt lat="44.7639" lon="8.975995"><ele>583.0</ele><time>2026-04-04T09:49:14.101Z</time></trkpt><trkpt lat="44.76389" lon="8.9758717"><ele>582.8</ele><time>2026-04-04T09:49:15.101Z</time></trkpt><trkpt lat="44.763875" lon="8.9757517"><ele>582.5999999999999</ele><time>2026-04-04T09:49:16.1Z</time></trkpt><trkpt lat="44.7638583" lon="8.9756283"><ele>582.4000000000001</ele><time>2026-04-04T09:49:17.101Z</time></trkpt><trkpt lat="44.763845" lon="8.9754983"><ele>582.2</ele><time>2026-04-04T09:49:18.101Z</time></trkpt><trkpt lat="44.7638267" lon="8.97537"><ele>582.0</ele><time>2026-04-04T09:49:19.1Z</time></trkpt><trkpt lat="44.7638067" lon="8.975245"><ele>582.0</ele><time>2026-04-04T09:49:20.102Z</time></trkpt><trkpt lat="44.7637967" lon="8.9751233"><ele>582.0</ele><time>2026-04-04T09:49:21.101Z</time></trkpt><trkpt lat="44.7638" lon="8.9750067"><ele>582.0</ele><time>2026-04-04T09:49:22.101Z</time></trkpt><trkpt lat="44.7638067" lon="8.974885"><ele>582.0</ele><time>2026-04-04T09:49:23.102Z</time></trkpt><trkpt lat="44.7638217" lon="8.97475"><ele>582.0</ele><time>2026-04-04T09:49:24.101Z</time></trkpt><trkpt lat="44.76383" lon="8.9746167"><ele>582.0</ele><time>2026-04-04T09:49:25.103Z</time></trkpt><trkpt lat="44.763845" lon="8.9744933"><ele>582.0</ele><time>2026-04-04T09:49:26.102Z</time></trkpt><trkpt lat="44.763885" lon="8.9743783"><ele>582.0</ele><time>2026-04-04T09:49:27.104Z</time></trkpt><trkpt lat="44.763935" lon="8.974275"><ele>582.0</ele><time>2026-04-04T09:49:28.104Z</time></trkpt><trkpt lat="44.7639867" lon="8.9741683"><ele>582.0</ele><time>2026-04-04T09:49:29.105Z</time></trkpt><trkpt lat="44.7640233" lon="8.97406"><ele>582.0</ele><time>2026-04-04T09:49:30.103Z</time></trkpt><trkpt lat="44.76405" lon="8.9739433"><ele>582.0</ele><time>2026-04-04T09:49:31.101Z</time></trkpt><trkpt lat="44.764055" lon="8.973835"><ele>581.8333333333334</ele><time>2026-04-04T09:49:32.102Z</time></trkpt><trkpt lat="44.7640633" lon="8.973735"><ele>581.6666666666666</ele><time>2026-04-04T09:49:33.106Z</time></trkpt><trkpt lat="44.76404" lon="8.9735867"><ele>581.5</ele><time>2026-04-04T09:49:35.102Z</time></trkpt><trkpt lat="44.7640167" lon="8.973425"><ele>581.3333333333333</ele><time>2026-04-04T09:49:37.11Z</time></trkpt><trkpt lat="44.7639967" lon="8.9733267"><ele>581.1666666666666</ele><time>2026-04-04T09:49:38.102Z</time></trkpt><trkpt lat="44.76398" lon="8.9732233"><ele>581.0</ele><time>2026-04-04T09:49:39.099Z</time></trkpt><trkpt lat="44.7639533" lon="8.9731217"><ele>581.0</ele><time>2026-04-04T09:49:40.103Z</time></trkpt><trkpt lat="44.76392" lon="8.9730183"><ele>581.0</ele><time>2026-04-04T09:49:41.104Z</time></trkpt><trkpt lat="44.7638933" lon="8.97291"><ele>581.0</ele><time>2026-04-04T09:49:42.101Z</time></trkpt><trkpt lat="44.7638633" lon="8.9728"><ele>581.0</ele><time>2026-04-04T09:49:43.102Z</time></trkpt><trkpt lat="44.7638233" lon="8.972685"><ele>581.0</ele><time>2026-04-04T09:49:44.103Z</time></trkpt><trkpt lat="44.7637817" lon="8.972565"><ele>581.0</ele><time>2026-04-04T09:49:45.103Z</time></trkpt><trkpt lat="44.7637433" lon="8.97245"><ele>581.8333333333333</ele><time>2026-04-04T09:49:46.103Z</time></trkpt><trkpt lat="44.76371" lon="8.9723433"><ele>582.6666666666666</ele><time>2026-04-04T09:49:47.107Z</time></trkpt><trkpt lat="44.7636833" lon="8.9722383"><ele>583.5</ele><time>2026-04-04T09:49:48.103Z</time></trkpt><trkpt lat="44.763665" lon="8.9721317"><ele>584.3333333333334</ele><time>2026-04-04T09:49:49.11Z</time></trkpt><trkpt lat="44.7636617" lon="8.9720317"><ele>585.1666666666667</ele><time>2026-04-04T09:49:50.105Z</time></trkpt><trkpt lat="44.7636783" lon="8.9719217"><ele>586.0</ele><time>2026-04-04T09:49:51.101Z</time></trkpt><trkpt lat="44.763695" lon="8.9718033"><ele>587.4</ele><time>2026-04-04T09:49:52.101Z</time></trkpt><trkpt lat="44.7637117" lon="8.9716667"><ele>588.8</ele><time>2026-04-04T09:49:53.105Z</time></trkpt><trkpt lat="44.76371" lon="8.9715267"><ele>590.1999999999999</ele><time>2026-04-04T09:49:54.101Z</time></trkpt><trkpt lat="44.7636983" lon="8.9713833"><ele>591.6</ele><time>2026-04-04T09:49:55.101Z</time></trkpt><trkpt lat="44.7636817" lon="8.9712367"><ele>593.0</ele><time>2026-04-04T09:49:56.1Z</time></trkpt><trkpt lat="44.7636617" lon="8.9710933"><ele>593.0</ele><time>2026-04-04T09:49:57.108Z</time></trkpt><trkpt lat="44.7636383" lon="8.9709467"><ele>593.0</ele><time>2026-04-04T09:49:58.102Z</time></trkpt><trkpt lat="44.7636133" lon="8.9707917"><ele>593.0</ele><time>2026-04-04T09:49:59.099Z</time></trkpt><trkpt lat="44.7635883" lon="8.9706333"><ele>593.0</ele><time>2026-04-04T09:50:00.099Z</time></trkpt><trkpt lat="44.7635667" lon="8.97047"><ele>594.75</ele><time>2026-04-04T09:50:01.103Z</time></trkpt><trkpt lat="44.7635483" lon="8.9703067"><ele>596.5</ele><time>2026-04-04T09:50:02.101Z</time></trkpt><trkpt lat="44.763525" lon="8.970145"><ele>598.25</ele><time>2026-04-04T09:50:03.099Z</time></trkpt><trkpt lat="44.7634817" lon="8.9699783"><ele>600.0</ele><time>2026-04-04T09:50:04.1Z</time></trkpt><trkpt lat="44.7634283" lon="8.9698167"><ele>593.4</ele><time>2026-04-04T09:50:05.104Z</time></trkpt><trkpt lat="44.7633767" lon="8.96967"><ele>586.8</ele><time>2026-04-04T09:50:06.101Z</time></trkpt><trkpt lat="44.7633283" lon="8.96953"><ele>580.2</ele><time>2026-04-04T09:50:07.102Z</time></trkpt><trkpt lat="44.7632867" lon="8.9693883"><ele>573.6</ele><time>2026-04-04T09:50:08.102Z</time></trkpt><trkpt lat="44.7632483" lon="8.9692433"><ele>567.0</ele><time>2026-04-04T09:50:09.108Z</time></trkpt><trkpt lat="44.76323" lon="8.9690817"><ele>567.0</ele><time>2026-04-04T09:50:10.1Z</time></trkpt><trkpt lat="44.7632083" lon="8.9689267"><ele>567.0</ele><time>2026-04-04T09:50:11.104Z</time></trkpt><trkpt lat="44.7631967" lon="8.9687617"><ele>567.0</ele><time>2026-04-04T09:50:12.102Z</time></trkpt><trkpt lat="44.7631667" lon="8.9685933"><ele>567.0</ele><time>2026-04-04T09:50:13.109Z</time></trkpt><trkpt lat="44.76312" lon="8.9684283"><ele>570.25</ele><time>2026-04-04T09:50:14.102Z</time></trkpt><trkpt lat="44.76307" lon="8.9682717"><ele>573.5</ele><time>2026-04-04T09:50:15.101Z</time></trkpt><trkpt lat="44.7630167" lon="8.9681233"><ele>576.75</ele><time>2026-04-04T09:50:16.111Z</time></trkpt><trkpt lat="44.7629683" lon="8.9679733"><ele>580.0</ele><time>2026-04-04T09:50:17.1Z</time></trkpt><trkpt lat="44.7629217" lon="8.9678283"><ele>580.0</ele><time>2026-04-04T09:50:18.109Z</time></trkpt><trkpt lat="44.7628767" lon="8.9676817"><ele>580.0</ele><time>2026-04-04T09:50:19.101Z</time></trkpt><trkpt lat="44.762825" lon="8.967545"><ele>580.0</ele><time>2026-04-04T09:50:20.1Z</time></trkpt><trkpt lat="44.762775" lon="8.9674083"><ele>580.0</ele><time>2026-04-04T09:50:21.107Z</time></trkpt><trkpt lat="44.7627267" lon="8.9672667"><ele>580.0</ele><time>2026-04-04T09:50:22.103Z</time></trkpt><trkpt lat="44.762665" lon="8.9671333"><ele>576.0</ele><time>2026-04-04T09:50:23.1Z</time></trkpt><trkpt lat="44.762585" lon="8.9670133"><ele>572.0</ele><time>2026-04-04T09:50:24.104Z</time></trkpt><trkpt lat="44.7625" lon="8.9669067"><ele>568.0</ele><time>2026-04-04T09:50:25.107Z</time></trkpt><trkpt lat="44.762415" lon="8.9668083"><ele>564.0</ele><time>2026-04-04T09:50:26.099Z</time></trkpt><trkpt lat="44.7623217" lon="8.96673"><ele>560.0</ele><time>2026-04-04T09:50:27.111Z</time></trkpt><trkpt lat="44.762245" lon="8.9666567"><ele>560.0</ele><time>2026-04-04T09:50:28.102Z</time></trkpt><trkpt lat="44.7621733" lon="8.966595"><ele>560.0</ele><time>2026-04-04T09:50:29.103Z</time></trkpt><trkpt lat="44.7621167" lon="8.9665217"><ele>560.0</ele><time>2026-04-04T09:50:30.1Z</time></trkpt><trkpt lat="44.7620717" lon="8.96642"><ele>560.0</ele><time>2026-04-04T09:50:31.103Z</time></trkpt><trkpt lat="44.7620233" lon="8.9662967"><ele>560.0</ele><time>2026-04-04T09:50:32.102Z</time></trkpt><trkpt lat="44.7619717" lon="8.9661683"><ele>560.0</ele><time>2026-04-04T09:50:33.102Z</time></trkpt><trkpt lat="44.7619233" lon="8.966025"><ele>560.0</ele><time>2026-04-04T09:50:34.106Z</time></trkpt><trkpt lat="44.7618667" lon="8.9658817"><ele>560.0</ele><time>2026-04-04T09:50:35.103Z</time></trkpt><trkpt lat="44.7618083" lon="8.9657367"><ele>560.0</ele><time>2026-04-04T09:50:36.102Z</time></trkpt><trkpt lat="44.7617533" lon="8.9655917"><ele>561.75</ele><time>2026-04-04T09:50:37.1Z</time></trkpt><trkpt lat="44.7616967" lon="8.9654417"><ele>563.5</ele><time>2026-04-04T09:50:38.101Z</time></trkpt><trkpt lat="44.7616417" lon="8.965295"><ele>565.25</ele><time>2026-04-04T09:50:39.102Z</time></trkpt><trkpt lat="44.7615867" lon="8.9651517"><ele>567.0</ele><time>2026-04-04T09:50:40.105Z</time></trkpt><trkpt lat="44.7615267" lon="8.9650133"><ele>567.0</ele><time>2026-04-04T09:50:41.1Z</time></trkpt><trkpt lat="44.7614767" lon="8.964885"><ele>567.0</ele><time>2026-04-04T09:50:42.103Z</time></trkpt><trkpt lat="44.76143" lon="8.9647667"><ele>567.0</ele><time>2026-04-04T09:50:43.105Z</time></trkpt><trkpt lat="44.76139" lon="8.96465"><ele>567.0</ele><time>2026-04-04T09:50:44.1Z</time></trkpt><trkpt lat="44.761355" lon="8.964535"><ele>567.0</ele><time>2026-04-04T09:50:45.098Z</time></trkpt><trkpt lat="44.7613167" lon="8.9644283"><ele>567.0</ele><time>2026-04-04T09:50:46.098Z</time></trkpt><trkpt lat="44.761295" lon="8.9643133"><ele>567.0</ele><time>2026-04-04T09:50:47.1Z</time></trkpt><trkpt lat="44.7612767" lon="8.9642017"><ele>567.0</ele><time>2026-04-04T09:50:48.1Z</time></trkpt><trkpt lat="44.7612667" lon="8.9640833"><ele>567.0</ele><time>2026-04-04T09:50:49.103Z</time></trkpt><trkpt lat="44.76125" lon="8.9639667"><ele>567.0</ele><time>2026-04-04T09:50:50.099Z</time></trkpt><trkpt lat="44.7612383" lon="8.96383"><ele>567.0</ele><time>2026-04-04T09:50:51.102Z</time></trkpt><trkpt lat="44.7612167" lon="8.9636883"><ele>570.25</ele><time>2026-04-04T09:50:52.102Z</time></trkpt><trkpt lat="44.7612017" lon="8.9635417"><ele>573.5</ele><time>2026-04-04T09:50:53.101Z</time></trkpt><trkpt lat="44.7611683" lon="8.9633817"><ele>576.75</ele><time>2026-04-04T09:50:54.105Z</time></trkpt><trkpt lat="44.761125" lon="8.963225"><ele>580.0</ele><time>2026-04-04T09:50:55.107Z</time></trkpt><trkpt lat="44.7610917" lon="8.963055"><ele>580.0</ele><time>2026-04-04T09:50:56.104Z</time></trkpt><trkpt lat="44.761045" lon="8.9628883"><ele>580.0</ele><time>2026-04-04T09:50:57.103Z</time></trkpt><trkpt lat="44.760985" lon="8.9627217"><ele>580.0</ele><time>2026-04-04T09:50:58.104Z</time></trkpt><trkpt lat="44.7609233" lon="8.962555"><ele>580.0</ele><time>2026-04-04T09:50:59.107Z</time></trkpt><trkpt lat="44.7608517" lon="8.96239"><ele>573.25</ele><time>2026-04-04T09:51:00.103Z</time></trkpt><trkpt lat="44.760775" lon="8.9622283"><ele>566.5</ele><time>2026-04-04T09:51:01.106Z</time></trkpt><trkpt lat="44.7606883" lon="8.9620717"><ele>559.75</ele><time>2026-04-04T09:51:02.102Z</time></trkpt><trkpt lat="44.7606" lon="8.9619267"><ele>553.0</ele><time>2026-04-04T09:51:03.107Z</time></trkpt><trkpt lat="44.7605133" lon="8.9618117"><ele>553.0</ele><time>2026-04-04T09:51:04.1Z</time></trkpt><trkpt lat="44.7604417" lon="8.9617067"><ele>553.0</ele><time>2026-04-04T09:51:05.106Z</time></trkpt><trkpt lat="44.7603817" lon="8.961585"><ele>553.0</ele><time>2026-04-04T09:51:06.101Z</time></trkpt><trkpt lat="44.76033" lon="8.9614617"><ele>553.0</ele><time>2026-04-04T09:51:07.102Z</time></trkpt><trkpt lat="44.7602867" lon="8.9613417"><ele>553.0</ele><time>2026-04-04T09:51:08.101Z</time></trkpt><trkpt lat="44.7602567" lon="8.9612367"><ele>555.6</ele><time>2026-04-04T09:51:09.101Z</time></trkpt><trkpt lat="44.760235" lon="8.961145"><ele>558.1999999999999</ele><time>2026-04-04T09:51:10.1Z</time></trkpt><trkpt lat="44.760225" lon="8.9610033"><ele>560.8</ele><time>2026-04-04T09:51:11.103Z</time></trkpt><trkpt lat="44.7602033" lon="8.9608517"><ele>563.4</ele><time>2026-04-04T09:51:12.107Z</time></trkpt><trkpt lat="44.760165" lon="8.9606883"><ele>566.0</ele><time>2026-04-04T09:51:13.113Z</time></trkpt><trkpt lat="44.7601033" lon="8.96054"><ele>558.75</ele><time>2026-04-04T09:51:14.102Z</time></trkpt><trkpt lat="44.7600333" lon="8.9604017"><ele>551.5</ele><time>2026-04-04T09:51:15.101Z</time></trkpt><trkpt lat="44.7599567" lon="8.9602733"><ele>544.25</ele><time>2026-04-04T09:51:16.099Z</time></trkpt><trkpt lat="44.759885" lon="8.96015"><ele>537.0</ele><time>2026-04-04T09:51:17.107Z</time></trkpt><trkpt lat="44.7598167" lon="8.9600383"><ele>535.2</ele><time>2026-04-04T09:51:18.103Z</time></trkpt><trkpt lat="44.7597417" lon="8.959935"><ele>533.4000000000001</ele><time>2026-04-04T09:51:19.1Z</time></trkpt><trkpt lat="44.7596617" lon="8.9598467"><ele>531.5999999999999</ele><time>2026-04-04T09:51:20.104Z</time></trkpt><trkpt lat="44.7595517" lon="8.9597917"><ele>529.8</ele><time>2026-04-04T09:51:21.105Z</time></trkpt><trkpt lat="44.75945" lon="8.95974"><ele>528.0</ele><time>2026-04-04T09:51:22.105Z</time></trkpt><trkpt lat="44.7593417" lon="8.9597083"><ele>528.0</ele><time>2026-04-04T09:51:23.105Z</time></trkpt><trkpt lat="44.75924" lon="8.959675"><ele>528.0</ele><time>2026-04-04T09:51:24.103Z</time></trkpt><trkpt lat="44.7591367" lon="8.9596433"><ele>528.0</ele><time>2026-04-04T09:51:25.102Z</time></trkpt><trkpt lat="44.759045" lon="8.9596283"><ele>528.0</ele><time>2026-04-04T09:51:26.105Z</time></trkpt><trkpt lat="44.7589433" lon="8.959635"><ele>528.0</ele><time>2026-04-04T09:51:27.098Z</time></trkpt><trkpt lat="44.75885" lon="8.959655"><ele>528.0</ele><time>2026-04-04T09:51:28.105Z</time></trkpt><trkpt lat="44.7587683" lon="8.9596783"><ele>528.0</ele><time>2026-04-04T09:51:29.104Z</time></trkpt><trkpt lat="44.7587017" lon="8.959705"><ele>528.0</ele><time>2026-04-04T09:51:30.108Z</time></trkpt><trkpt lat="44.7586233" lon="8.9597267"><ele>528.0</ele><time>2026-04-04T09:51:31.105Z</time></trkpt><trkpt lat="44.758555" lon="8.9597133"><ele>528.0</ele><time>2026-04-04T09:51:32.1Z</time></trkpt><trkpt lat="44.7585267" lon="8.9596267"><ele>528.0</ele><time>2026-04-04T09:51:33.098Z</time></trkpt><trkpt lat="44.75849" lon="8.959545"><ele>528.0</ele><time>2026-04-04T09:51:34.1Z</time></trkpt><trkpt lat="44.7585083" lon="8.9593483"><ele>528.0</ele><time>2026-04-04T09:51:36.101Z</time></trkpt><trkpt lat="44.7585483" lon="8.959235"><ele>528.0</ele><time>2026-04-04T09:51:37.11Z</time></trkpt><trkpt lat="44.7585933" lon="8.9591067"><ele>528.0</ele><time>2026-04-04T09:51:38.102Z</time></trkpt><trkpt lat="44.7586767" lon="8.9589533"><ele>528.0</ele><time>2026-04-04T09:51:39.105Z</time></trkpt><trkpt lat="44.758745" lon="8.9588033"><ele>528.5</ele><time>2026-04-04T09:51:40.107Z</time></trkpt><trkpt lat="44.7588" lon="8.958645"><ele>529.0</ele><time>2026-04-04T09:51:41.105Z</time></trkpt><trkpt lat="44.7588617" lon="8.9584817"><ele>529.5</ele><time>2026-04-04T09:51:42.105Z</time></trkpt><trkpt lat="44.7589283" lon="8.95833"><ele>530.0</ele><time>2026-04-04T09:51:43.11Z</time></trkpt><trkpt lat="44.7589917" lon="8.9581867"><ele>530.0</ele><time>2026-04-04T09:51:44.105Z</time></trkpt><trkpt lat="44.7590533" lon="8.9580433"><ele>530.0</ele><time>2026-04-04T09:51:45.101Z</time></trkpt><trkpt lat="44.7591083" lon="8.9579083"><ele>530.0</ele><time>2026-04-04T09:51:46.1Z</time></trkpt><trkpt lat="44.759155" lon="8.957795"><ele>530.0</ele><time>2026-04-04T09:51:47.101Z</time></trkpt><trkpt lat="44.7591983" lon="8.957695"><ele>530.0</ele><time>2026-04-04T09:51:48.101Z</time></trkpt><trkpt lat="44.7592317" lon="8.9576117"><ele>529.9999999999999</ele><time>2026-04-04T09:51:49.105Z</time></trkpt><trkpt lat="44.7592417" lon="8.9575217"><ele>530.0</ele><time>2026-04-04T09:51:50.104Z</time></trkpt><trkpt lat="44.75919" lon="8.9574217"><ele>530.0</ele><time>2026-04-04T09:51:52.113Z</time></trkpt><trkpt lat="44.7591033" lon="8.9574433"><ele>530.0</ele><time>2026-04-04T09:51:53.106Z</time></trkpt><trkpt lat="44.75904" lon="8.9574717"><ele>530.0</ele><time>2026-04-04T09:51:54.098Z</time></trkpt><trkpt lat="44.75898" lon="8.9575033"><ele>529.9999999999999</ele><time>2026-04-04T09:51:55.102Z</time></trkpt><trkpt lat="44.75892" lon="8.957565"><ele>530.0</ele><time>2026-04-04T09:51:56.104Z</time></trkpt><trkpt lat="44.758875" lon="8.9576483"><ele>530.0</ele><time>2026-04-04T09:51:57.1Z</time></trkpt><trkpt lat="44.7588433" lon="8.9577617"><ele>530.0</ele><time>2026-04-04T09:51:58.099Z</time></trkpt><trkpt lat="44.7587983" lon="8.9578683"><ele>530.0</ele><time>2026-04-04T09:51:59.101Z</time></trkpt><trkpt lat="44.7587517" lon="8.9579867"><ele>530.0</ele><time>2026-04-04T09:52:00.103Z</time></trkpt><trkpt lat="44.7587033" lon="8.958115"><ele>530.0</ele><time>2026-04-04T09:52:01.102Z</time></trkpt><trkpt lat="44.7586533" lon="8.9582367"><ele>530.0</ele><time>2026-04-04T09:52:02.105Z</time></trkpt><trkpt lat="44.7585983" lon="8.958355"><ele>530.0</ele><time>2026-04-04T09:52:03.1Z</time></trkpt><trkpt lat="44.7585333" lon="8.9584667"><ele>530.0</ele><time>2026-04-04T09:52:04.108Z</time></trkpt><trkpt lat="44.7584617" lon="8.95859"><ele>530.0</ele><time>2026-04-04T09:52:05.103Z</time></trkpt><trkpt lat="44.7583767" lon="8.9586867"><ele>530.0</ele><time>2026-04-04T09:52:06.105Z</time></trkpt><trkpt lat="44.758285" lon="8.9587717"><ele>526.5</ele><time>2026-04-04T09:52:07.106Z</time></trkpt><trkpt lat="44.7581867" lon="8.958845"><ele>523.0</ele><time>2026-04-04T09:52:08.102Z</time></trkpt><trkpt lat="44.7580767" lon="8.9589017"><ele>519.5</ele><time>2026-04-04T09:52:09.1Z</time></trkpt><trkpt lat="44.7579683" lon="8.9589383"><ele>516.0</ele><time>2026-04-04T09:52:10.098Z</time></trkpt><trkpt lat="44.7578533" lon="8.958965"><ele>516.0</ele><time>2026-04-04T09:52:11.105Z</time></trkpt><trkpt lat="44.7577333" lon="8.95898"><ele>516.0</ele><time>2026-04-04T09:52:12.098Z</time></trkpt><trkpt lat="44.7576283" lon="8.9589783"><ele>516.0</ele><time>2026-04-04T09:52:13.099Z</time></trkpt><trkpt lat="44.7575317" lon="8.9589783"><ele>516.0</ele><time>2026-04-04T09:52:14.106Z</time></trkpt><trkpt lat="44.7574433" lon="8.9589917"><ele>516.0</ele><time>2026-04-04T09:52:15.098Z</time></trkpt><trkpt lat="44.7573517" lon="8.9590183"><ele>512.3333333333334</ele><time>2026-04-04T09:52:16.099Z</time></trkpt><trkpt lat="44.7572683" lon="8.9590517"><ele>508.66666666666663</ele><time>2026-04-04T09:52:17.101Z</time></trkpt><trkpt lat="44.7571867" lon="8.9590733"><ele>505.0</ele><time>2026-04-04T09:52:18.105Z</time></trkpt><trkpt lat="44.7571117" lon="8.95908"><ele>501.3333333333333</ele><time>2026-04-04T09:52:19.101Z</time></trkpt><trkpt lat="44.7570317" lon="8.95907"><ele>497.66666666666663</ele><time>2026-04-04T09:52:20.104Z</time></trkpt><trkpt lat="44.7569467" lon="8.9590433"><ele>494.0</ele><time>2026-04-04T09:52:21.101Z</time></trkpt><trkpt lat="44.7568633" lon="8.95902"><ele>493.49999999999994</ele><time>2026-04-04T09:52:22.105Z</time></trkpt><trkpt lat="44.756775" lon="8.9590083"><ele>493.0</ele><time>2026-04-04T09:52:23.105Z</time></trkpt><trkpt lat="44.7566867" lon="8.959"><ele>492.5</ele><time>2026-04-04T09:52:24.101Z</time></trkpt><trkpt lat="44.756615" lon="8.959"><ele>492.0</ele><time>2026-04-04T09:52:25.103Z</time></trkpt><trkpt lat="44.7565083" lon="8.9590083"><ele>491.49999999999994</ele><time>2026-04-04T09:52:27.102Z</time></trkpt><trkpt lat="44.7565917" lon="8.959015"><ele>491.0</ele><time>2026-04-04T09:52:39.099Z</time></trkpt><trkpt lat="44.7567217" lon="8.9589817"><ele>490.99999999999994</ele><time>2026-04-04T09:52:41.101Z</time></trkpt><trkpt lat="44.7568" lon="8.9589733"><ele>491.0</ele><time>2026-04-04T09:52:42.103Z</time></trkpt><trkpt lat="44.756875" lon="8.9589783"><ele>491.0</ele><time>2026-04-04T09:52:43.102Z</time></trkpt><trkpt lat="44.75695" lon="8.9589917"><ele>491.0</ele><time>2026-04-04T09:52:44.102Z</time></trkpt><trkpt lat="44.7570167" lon="8.95901"><ele>490.99999999999994</ele><time>2026-04-04T09:52:45.102Z</time></trkpt><trkpt lat="44.7571233" lon="8.95906"><ele>491.0</ele><time>2026-04-04T09:52:47.103Z</time></trkpt><trkpt lat="44.75723" lon="8.9591533"><ele>490.3333333333333</ele><time>2026-04-04T09:52:49.101Z</time></trkpt><trkpt lat="44.7572833" lon="8.959225"><ele>489.66666666666663</ele><time>2026-04-04T09:52:50.103Z</time></trkpt><trkpt lat="44.757345" lon="8.9592983"><ele>489.0</ele><time>2026-04-04T09:52:51.106Z</time></trkpt><trkpt lat="44.757415" lon="8.9593633"><ele>488.33333333333337</ele><time>2026-04-04T09:52:52.109Z</time></trkpt><trkpt lat="44.7574917" lon="8.9594317"><ele>487.6666666666667</ele><time>2026-04-04T09:52:53.106Z</time></trkpt><trkpt lat="44.7575717" lon="8.9595133"><ele>487.0</ele><time>2026-04-04T09:52:54.099Z</time></trkpt><trkpt lat="44.7576483" lon="8.959595"><ele>485.6</ele><time>2026-04-04T09:52:55.103Z</time></trkpt><trkpt lat="44.75772" lon="8.95969"><ele>484.20000000000005</ele><time>2026-04-04T09:52:56.104Z</time></trkpt><trkpt lat="44.7577883" lon="8.9597967"><ele>482.8</ele><time>2026-04-04T09:52:57.107Z</time></trkpt><trkpt lat="44.7578633" lon="8.9599067"><ele>481.4</ele><time>2026-04-04T09:52:58.108Z</time></trkpt><trkpt lat="44.7579267" lon="8.9600217"><ele>480.0</ele><time>2026-04-04T09:52:59.103Z</time></trkpt><trkpt lat="44.758" lon="8.9601317"><ele>480.0</ele><time>2026-04-04T09:53:00.101Z</time></trkpt><trkpt lat="44.75809" lon="8.9602083"><ele>480.0</ele><time>2026-04-04T09:53:01.1Z</time></trkpt><trkpt lat="44.758175" lon="8.96028"><ele>480.0</ele><time>2026-04-04T09:53:02.116Z</time></trkpt><trkpt lat="44.758265" lon="8.9603467"><ele>480.0</ele><time>2026-04-04T09:53:03.1Z</time></trkpt><trkpt lat="44.7583717" lon="8.9604033"><ele>480.0</ele><time>2026-04-04T09:53:04.102Z</time></trkpt><trkpt lat="44.7584683" lon="8.9604717"><ele>481.4</ele><time>2026-04-04T09:53:05.102Z</time></trkpt><trkpt lat="44.7585683" lon="8.9605433"><ele>482.8</ele><time>2026-04-04T09:53:06.101Z</time></trkpt><trkpt lat="44.7586683" lon="8.9606217"><ele>484.20000000000005</ele><time>2026-04-04T09:53:07.103Z</time></trkpt><trkpt lat="44.7587617" lon="8.9606983"><ele>485.6</ele><time>2026-04-04T09:53:08.102Z</time></trkpt><trkpt lat="44.7588467" lon="8.960785"><ele>487.0</ele><time>2026-04-04T09:53:09.101Z</time></trkpt><trkpt lat="44.7589233" lon="8.9609"><ele>487.0</ele><time>2026-04-04T09:53:10.101Z</time></trkpt><trkpt lat="44.758995" lon="8.9610217"><ele>487.00000000000006</ele><time>2026-04-04T09:53:11.101Z</time></trkpt><trkpt lat="44.759065" lon="8.961135"><ele>487.00000000000006</ele><time>2026-04-04T09:53:12.109Z</time></trkpt><trkpt lat="44.75913" lon="8.9612567"><ele>487.0</ele><time>2026-04-04T09:53:13.109Z</time></trkpt><trkpt lat="44.7591917" lon="8.9613783"><ele>487.0</ele><time>2026-04-04T09:53:14.101Z</time></trkpt><trkpt lat="44.7592483" lon="8.961485"><ele>487.00000000000006</ele><time>2026-04-04T09:53:15.102Z</time></trkpt><trkpt lat="44.7592917" lon="8.961585"><ele>487.0</ele><time>2026-04-04T09:53:16.101Z</time></trkpt><trkpt lat="44.7593233" lon="8.96168"><ele>487.0</ele><time>2026-04-04T09:53:17.101Z</time></trkpt><trkpt lat="44.7593283" lon="8.96178"><ele>487.0</ele><time>2026-04-04T09:53:18.109Z</time></trkpt><trkpt lat="44.759305" lon="8.9618767"><ele>487.00000000000006</ele><time>2026-04-04T09:53:19.102Z</time></trkpt><trkpt lat="44.7592467" lon="8.961965"><ele>487.0</ele><time>2026-04-04T09:53:20.107Z</time></trkpt><trkpt lat="44.7591667" lon="8.9619767"><ele>487.00000000000006</ele><time>2026-04-04T09:53:21.11Z</time></trkpt><trkpt lat="44.759095" lon="8.9619417"><ele>487.0</ele><time>2026-04-04T09:53:22.099Z</time></trkpt><trkpt lat="44.7590217" lon="8.9619017"><ele>487.0</ele><time>2026-04-04T09:53:23.105Z</time></trkpt><trkpt lat="44.758955" lon="8.96183"><ele>487.0</ele><time>2026-04-04T09:53:24.105Z</time></trkpt><trkpt lat="44.758895" lon="8.961725"><ele>487.00000000000006</ele><time>2026-04-04T09:53:25.104Z</time></trkpt><trkpt lat="44.7588283" lon="8.96161"><ele>487.0</ele><time>2026-04-04T09:53:26.1Z</time></trkpt><trkpt lat="44.7587717" lon="8.961475"><ele>487.0</ele><time>2026-04-04T09:53:27.104Z</time></trkpt><trkpt lat="44.758715" lon="8.9613383"><ele>487.00000000000006</ele><time>2026-04-04T09:53:28.102Z</time></trkpt><trkpt lat="44.7586467" lon="8.9612217"><ele>487.00000000000006</ele><time>2026-04-04T09:53:29.102Z</time></trkpt><trkpt lat="44.7585667" lon="8.9611317"><ele>487.0</ele><time>2026-04-04T09:53:30.1Z</time></trkpt><trkpt lat="44.7584867" lon="8.96106"><ele>487.0</ele><time>2026-04-04T09:53:31.102Z</time></trkpt><trkpt lat="44.7584017" lon="8.9610167"><ele>481.8</ele><time>2026-04-04T09:53:32.103Z</time></trkpt><trkpt lat="44.7583117" lon="8.9609933"><ele>476.6</ele><time>2026-04-04T09:53:33.103Z</time></trkpt><trkpt lat="44.7582083" lon="8.9609983"><ele>471.40000000000003</ele><time>2026-04-04T09:53:34.103Z</time></trkpt><trkpt lat="44.7581067" lon="8.961"><ele>466.20000000000005</ele><time>2026-04-04T09:53:35.105Z</time></trkpt><trkpt lat="44.757985" lon="8.9610333"><ele>461.0</ele><time>2026-04-04T09:53:36.101Z</time></trkpt><trkpt lat="44.757865" lon="8.9610533"><ele>461.0</ele><time>2026-04-04T09:53:37.104Z</time></trkpt><trkpt lat="44.7577367" lon="8.9610717"><ele>461.0</ele><time>2026-04-04T09:53:38.103Z</time></trkpt><trkpt lat="44.7576167" lon="8.9610867"><ele>461.0</ele><time>2026-04-04T09:53:39.104Z</time></trkpt><trkpt lat="44.7575033" lon="8.9610983"><ele>461.0</ele><time>2026-04-04T09:53:40.101Z</time></trkpt><trkpt lat="44.7573983" lon="8.9610917"><ele>458.5</ele><time>2026-04-04T09:53:41.104Z</time></trkpt><trkpt lat="44.757295" lon="8.9610783"><ele>456.0</ele><time>2026-04-04T09:53:42.101Z</time></trkpt><trkpt lat="44.7571933" lon="8.9610383"><ele>453.5</ele><time>2026-04-04T09:53:43.101Z</time></trkpt><trkpt lat="44.7570783" lon="8.9609867"><ele>451.0</ele><time>2026-04-04T09:53:44.107Z</time></trkpt><trkpt lat="44.756955" lon="8.9609267"><ele>452.75</ele><time>2026-04-04T09:53:45.097Z</time></trkpt><trkpt lat="44.756845" lon="8.9608417"><ele>454.5</ele><time>2026-04-04T09:53:46.102Z</time></trkpt><trkpt lat="44.7567433" lon="8.9607283"><ele>456.25</ele><time>2026-04-04T09:53:47.099Z</time></trkpt><trkpt lat="44.7566417" lon="8.960615"><ele>458.0</ele><time>2026-04-04T09:53:48.102Z</time></trkpt><trkpt lat="44.756535" lon="8.9604967"><ele>458.0</ele><time>2026-04-04T09:53:49.099Z</time></trkpt><trkpt lat="44.75643" lon="8.96038"><ele>458.0</ele><time>2026-04-04T09:53:50.102Z</time></trkpt><trkpt lat="44.756325" lon="8.960265"><ele>458.0</ele><time>2026-04-04T09:53:51.1Z</time></trkpt><trkpt lat="44.75622" lon="8.9601533"><ele>458.0</ele><time>2026-04-04T09:53:52.1Z</time></trkpt><trkpt lat="44.7561333" lon="8.9600633"><ele>459.16666666666663</ele><time>2026-04-04T09:53:53.102Z</time></trkpt><trkpt lat="44.7560483" lon="8.9599917"><ele>460.3333333333333</ele><time>2026-04-04T09:53:54.1Z</time></trkpt><trkpt lat="44.755975" lon="8.95996"><ele>461.5</ele><time>2026-04-04T09:53:55.102Z</time></trkpt><trkpt lat="44.7559033" lon="8.95995"><ele>462.66666666666663</ele><time>2026-04-04T09:53:56.101Z</time></trkpt><trkpt lat="44.755845" lon="8.9600083"><ele>463.8333333333333</ele><time>2026-04-04T09:53:57.1Z</time></trkpt><trkpt lat="44.7558" lon="8.960085"><ele>465.0</ele><time>2026-04-04T09:53:58.108Z</time></trkpt><trkpt lat="44.7557883" lon="8.9602033"><ele>463.8333333333333</ele><time>2026-04-04T09:53:59.108Z</time></trkpt><trkpt lat="44.7557783" lon="8.96031"><ele>462.66666666666663</ele><time>2026-04-04T09:54:00.104Z</time></trkpt><trkpt lat="44.755795" lon="8.9603983"><ele>461.5</ele><time>2026-04-04T09:54:01.103Z</time></trkpt><trkpt lat="44.755905" lon="8.9604417"><ele>460.3333333333333</ele><time>2026-04-04T09:54:02.102Z</time></trkpt><trkpt lat="44.7559667" lon="8.960525"><ele>459.16666666666663</ele><time>2026-04-04T09:54:03.103Z</time></trkpt><trkpt lat="44.7560333" lon="8.96062"><ele>458.0</ele><time>2026-04-04T09:54:04.102Z</time></trkpt><trkpt lat="44.75609" lon="8.96075"><ele>455.0</ele><time>2026-04-04T09:54:05.106Z</time></trkpt><trkpt lat="44.756135" lon="8.9608917"><ele>451.99999999999994</ele><time>2026-04-04T09:54:06.104Z</time></trkpt><trkpt lat="44.7561717" lon="8.96103"><ele>448.99999999999994</ele><time>2026-04-04T09:54:07.104Z</time></trkpt><trkpt lat="44.7562017" lon="8.9611617"><ele>446.0</ele><time>2026-04-04T09:54:08.098Z</time></trkpt><trkpt lat="44.7562483" lon="8.9612867"><ele>443.0</ele><time>2026-04-04T09:54:09.099Z</time></trkpt><trkpt lat="44.7563117" lon="8.9614083"><ele>443.0</ele><time>2026-04-04T09:54:10.099Z</time></trkpt><trkpt lat="44.7563933" lon="8.9615133"><ele>442.99999999999994</ele><time>2026-04-04T09:54:11.097Z</time></trkpt><trkpt lat="44.7564833" lon="8.9616067"><ele>442.99999999999994</ele><time>2026-04-04T09:54:12.1Z</time></trkpt><trkpt lat="44.756575" lon="8.96169"><ele>443.0</ele><time>2026-04-04T09:54:13.101Z</time></trkpt><trkpt lat="44.7566733" lon="8.961765"><ele>443.0</ele><time>2026-04-04T09:54:14.102Z</time></trkpt><trkpt lat="44.7567817" lon="8.961815"><ele>441.0</ele><time>2026-04-04T09:54:15.102Z</time></trkpt><trkpt lat="44.7568967" lon="8.9618533"><ele>439.0</ele><time>2026-04-04T09:54:16.1Z</time></trkpt><trkpt lat="44.757015" lon="8.9618867"><ele>437.0</ele><time>2026-04-04T09:54:17.101Z</time></trkpt><trkpt lat="44.75714" lon="8.9619033"><ele>435.0</ele><time>2026-04-04T09:54:18.109Z</time></trkpt><trkpt lat="44.757265" lon="8.9619267"><ele>435.0</ele><time>2026-04-04T09:54:19.103Z</time></trkpt><trkpt lat="44.7573867" lon="8.9619667"><ele>435.0</ele><time>2026-04-04T09:54:20.107Z</time></trkpt><trkpt lat="44.7575" lon="8.96202"><ele>435.0</ele><time>2026-04-04T09:54:21.1Z</time></trkpt><trkpt lat="44.7576083" lon="8.96209"><ele>435.0</ele><time>2026-04-04T09:54:22.107Z</time></trkpt><trkpt lat="44.757705" lon="8.9621833"><ele>436.2</ele><time>2026-04-04T09:54:23.102Z</time></trkpt><trkpt lat="44.7577917" lon="8.962285"><ele>437.4</ele><time>2026-04-04T09:54:24.104Z</time></trkpt><trkpt lat="44.7578617" lon="8.9623967"><ele>438.6</ele><time>2026-04-04T09:54:25.107Z</time></trkpt><trkpt lat="44.7579183" lon="8.962505"><ele>439.8</ele><time>2026-04-04T09:54:26.101Z</time></trkpt><trkpt lat="44.75795" lon="8.96263"><ele>441.0</ele><time>2026-04-04T09:54:27.101Z</time></trkpt><trkpt lat="44.7579783" lon="8.962745"><ele>441.0</ele><time>2026-04-04T09:54:28.099Z</time></trkpt><trkpt lat="44.7579433" lon="8.96286"><ele>441.0</ele><time>2026-04-04T09:54:29.113Z</time></trkpt><trkpt lat="44.7579033" lon="8.9629667"><ele>441.0</ele><time>2026-04-04T09:54:30.1Z</time></trkpt><trkpt lat="44.757845" lon="8.9630483"><ele>441.0</ele><time>2026-04-04T09:54:31.104Z</time></trkpt><trkpt lat="44.7577233" lon="8.96304"><ele>441.0</ele><time>2026-04-04T09:54:32.1Z</time></trkpt><trkpt lat="44.7576" lon="8.9629833"><ele>436.5</ele><time>2026-04-04T09:54:33.105Z</time></trkpt><trkpt lat="44.7574917" lon="8.962905"><ele>432.0</ele><time>2026-04-04T09:54:34.098Z</time></trkpt><trkpt lat="44.757395" lon="8.9627933"><ele>427.5</ele><time>2026-04-04T09:54:35.102Z</time></trkpt><trkpt lat="44.757305" lon="8.962675"><ele>423.0</ele><time>2026-04-04T09:54:36.101Z</time></trkpt><trkpt lat="44.757215" lon="8.962555"><ele>423.79999999999995</ele><time>2026-04-04T09:54:37.106Z</time></trkpt><trkpt lat="44.7571217" lon="8.9624483"><ele>424.6</ele><time>2026-04-04T09:54:38.101Z</time></trkpt><trkpt lat="44.75702" lon="8.9623667"><ele>425.40000000000003</ele><time>2026-04-04T09:54:39.103Z</time></trkpt><trkpt lat="44.7569233" lon="8.9623167"><ele>426.20000000000005</ele><time>2026-04-04T09:54:40.101Z</time></trkpt><trkpt lat="44.7568217" lon="8.9623117"><ele>427.0</ele><time>2026-04-04T09:54:41.104Z</time></trkpt><trkpt lat="44.7567283" lon="8.9623567"><ele>427.0</ele><time>2026-04-04T09:54:42.104Z</time></trkpt><trkpt lat="44.756655" lon="8.96247"><ele>427.0</ele><time>2026-04-04T09:54:43.103Z</time></trkpt><trkpt lat="44.7565867" lon="8.9626083"><ele>427.0</ele><time>2026-04-04T09:54:44.106Z</time></trkpt><trkpt lat="44.756525" lon="8.9627733"><ele>427.0</ele><time>2026-04-04T09:54:45.103Z</time></trkpt><trkpt lat="44.756465" lon="8.96294"><ele>424.0</ele><time>2026-04-04T09:54:46.101Z</time></trkpt><trkpt lat="44.7564067" lon="8.9631033"><ele>421.0</ele><time>2026-04-04T09:54:47.102Z</time></trkpt><trkpt lat="44.75635" lon="8.9632583"><ele>418.0</ele><time>2026-04-04T09:54:48.101Z</time></trkpt><trkpt lat="44.7563067" lon="8.9634083"><ele>415.0</ele><time>2026-04-04T09:54:49.103Z</time></trkpt><trkpt lat="44.75627" lon="8.9635367"><ele>413.00000000000006</ele><time>2026-04-04T09:54:50.103Z</time></trkpt><trkpt lat="44.7562067" lon="8.9636283"><ele>411.0</ele><time>2026-04-04T09:54:51.108Z</time></trkpt><trkpt lat="44.756145" lon="8.963705"><ele>409.0</ele><time>2026-04-04T09:54:52.105Z</time></trkpt><trkpt lat="44.7560733" lon="8.9637533"><ele>407.0</ele><time>2026-04-04T09:54:53.103Z</time></trkpt><trkpt lat="44.7559783" lon="8.9637067"><ele>405.00000000000006</ele><time>2026-04-04T09:54:54.103Z</time></trkpt><trkpt lat="44.7558917" lon="8.9636633"><ele>403.0</ele><time>2026-04-04T09:54:55.106Z</time></trkpt><trkpt lat="44.7558033" lon="8.9636117"><ele>402.25</ele><time>2026-04-04T09:54:56.099Z</time></trkpt><trkpt lat="44.7557167" lon="8.96351"><ele>401.5</ele><time>2026-04-04T09:54:57.11Z</time></trkpt><trkpt lat="44.755675" lon="8.9633167"><ele>400.75</ele><time>2026-04-04T09:54:58.101Z</time></trkpt><trkpt lat="44.7556333" lon="8.9631567"><ele>400.0</ele><time>2026-04-04T09:54:59.105Z</time></trkpt><trkpt lat="44.7555817" lon="8.9630017"><ele>401.8</ele><time>2026-04-04T09:55:00.101Z</time></trkpt><trkpt lat="44.75555" lon="8.962835"><ele>403.6</ele><time>2026-04-04T09:55:01.101Z</time></trkpt><trkpt lat="44.755515" lon="8.962685"><ele>405.4</ele><time>2026-04-04T09:55:02.102Z</time></trkpt><trkpt lat="44.75547" lon="8.9625717"><ele>407.2</ele><time>2026-04-04T09:55:03.102Z</time></trkpt><trkpt lat="44.75542" lon="8.9624533"><ele>409.0</ele><time>2026-04-04T09:55:04.108Z</time></trkpt><trkpt lat="44.7553483" lon="8.96238"><ele>410.00000000000006</ele><time>2026-04-04T09:55:05.104Z</time></trkpt><trkpt lat="44.7552683" lon="8.9623383"><ele>411.0</ele><time>2026-04-04T09:55:06.103Z</time></trkpt><trkpt lat="44.7551883" lon="8.9623717"><ele>412.0</ele><time>2026-04-04T09:55:07.103Z</time></trkpt><trkpt lat="44.7551167" lon="8.96241"><ele>413.0</ele><time>2026-04-04T09:55:08.103Z</time></trkpt><trkpt lat="44.7550533" lon="8.962515"><ele>414.00000000000006</ele><time>2026-04-04T09:55:09.106Z</time></trkpt><trkpt lat="44.755" lon="8.962635"><ele>415.0</ele><time>2026-04-04T09:55:10.108Z</time></trkpt><trkpt lat="44.754985" lon="8.9627983"><ele>409.0</ele><time>2026-04-04T09:55:11.104Z</time></trkpt><trkpt lat="44.75499" lon="8.9629733"><ele>403.0</ele><time>2026-04-04T09:55:12.113Z</time></trkpt><trkpt lat="44.755" lon="8.9631317"><ele>397.0</ele><time>2026-04-04T09:55:13.111Z</time></trkpt><trkpt lat="44.7550117" lon="8.963295"><ele>391.0</ele><time>2026-04-04T09:55:14.107Z</time></trkpt><trkpt lat="44.7550217" lon="8.9634633"><ele>390.5</ele><time>2026-04-04T09:55:15.104Z</time></trkpt><trkpt lat="44.75503" lon="8.9636333"><ele>390.0</ele><time>2026-04-04T09:55:16.102Z</time></trkpt><trkpt lat="44.755035" lon="8.9638083"><ele>389.5</ele><time>2026-04-04T09:55:17.104Z</time></trkpt><trkpt lat="44.7550467" lon="8.9639833"><ele>389.0</ele><time>2026-04-04T09:55:18.1Z</time></trkpt><trkpt lat="44.7550683" lon="8.964155"><ele>388.0</ele><time>2026-04-04T09:55:19.102Z</time></trkpt><trkpt lat="44.7551033" lon="8.9643133"><ele>387.0</ele><time>2026-04-04T09:55:20.099Z</time></trkpt><trkpt lat="44.755145" lon="8.964465"><ele>386.0</ele><time>2026-04-04T09:55:21.103Z</time></trkpt><trkpt lat="44.7551783" lon="8.9646"><ele>385.0</ele><time>2026-04-04T09:55:22.102Z</time></trkpt><trkpt lat="44.7551983" lon="8.96473"><ele>384.0</ele><time>2026-04-04T09:55:23.103Z</time></trkpt><trkpt lat="44.7551933" lon="8.9648633"><ele>384.0</ele><time>2026-04-04T09:55:24.105Z</time></trkpt><trkpt lat="44.7551567" lon="8.9649833"><ele>384.0</ele><time>2026-04-04T09:55:25.111Z</time></trkpt><trkpt lat="44.7550983" lon="8.965085"><ele>384.0</ele><time>2026-04-04T09:55:26.103Z</time></trkpt><trkpt lat="44.7550283" lon="8.9651733"><ele>384.0</ele><time>2026-04-04T09:55:27.108Z</time></trkpt><trkpt lat="44.75493" lon="8.9652033"><ele>384.0</ele><time>2026-04-04T09:55:28.103Z</time></trkpt><trkpt lat="44.7548267" lon="8.9652117"><ele>384.0</ele><time>2026-04-04T09:55:29.104Z</time></trkpt><trkpt lat="44.75471" lon="8.96518"><ele>384.0</ele><time>2026-04-04T09:55:30.104Z</time></trkpt><trkpt lat="44.7545883" lon="8.9650233"><ele>384.0</ele><time>2026-04-04T09:55:31.105Z</time></trkpt><trkpt lat="44.7544883" lon="8.9649"><ele>384.0</ele><time>2026-04-04T09:55:32.112Z</time></trkpt><trkpt lat="44.7543983" lon="8.9647733"><ele>382.0</ele><time>2026-04-04T09:55:33.111Z</time></trkpt><trkpt lat="44.7543117" lon="8.96463"><ele>380.0</ele><time>2026-04-04T09:55:34.103Z</time></trkpt><trkpt lat="44.754235" lon="8.9644817"><ele>378.0</ele><time>2026-04-04T09:55:35.107Z</time></trkpt><trkpt lat="44.7541833" lon="8.9643083"><ele>376.0</ele><time>2026-04-04T09:55:36.104Z</time></trkpt><trkpt lat="44.7541317" lon="8.9641367"><ele>376.0</ele><time>2026-04-04T09:55:37.104Z</time></trkpt><trkpt lat="44.75408" lon="8.963955"><ele>376.0</ele><time>2026-04-04T09:55:38.106Z</time></trkpt><trkpt lat="44.75403" lon="8.9637733"><ele>376.0</ele><time>2026-04-04T09:55:39.1Z</time></trkpt><trkpt lat="44.75398" lon="8.9636117"><ele>376.0</ele><time>2026-04-04T09:55:40.104Z</time></trkpt><trkpt lat="44.75393" lon="8.9634767"><ele>376.0</ele><time>2026-04-04T09:55:41.1Z</time></trkpt><trkpt lat="44.75386" lon="8.9633867"><ele>376.0</ele><time>2026-04-04T09:55:42.101Z</time></trkpt><trkpt lat="44.7537817" lon="8.9633433"><ele>376.0</ele><time>2026-04-04T09:55:43.101Z</time></trkpt><trkpt lat="44.753705" lon="8.9633467"><ele>376.0</ele><time>2026-04-04T09:55:44.1Z</time></trkpt><trkpt lat="44.753635" lon="8.96341"><ele>376.0</ele><time>2026-04-04T09:55:45.1Z</time></trkpt><trkpt lat="44.753565" lon="8.9635133"><ele>376.0</ele><time>2026-04-04T09:55:46.102Z</time></trkpt><trkpt lat="44.7535267" lon="8.9636617"><ele>372.75</ele><time>2026-04-04T09:55:47.105Z</time></trkpt><trkpt lat="44.7535133" lon="8.9638283"><ele>369.5</ele><time>2026-04-04T09:55:48.108Z</time></trkpt><trkpt lat="44.7535067" lon="8.9640067"><ele>366.25</ele><time>2026-04-04T09:55:49.102Z</time></trkpt><trkpt lat="44.7535067" lon="8.9641983"><ele>363.0</ele><time>2026-04-04T09:55:50.103Z</time></trkpt><trkpt lat="44.7535133" lon="8.9643933"><ele>362.0</ele><time>2026-04-04T09:55:51.106Z</time></trkpt><trkpt lat="44.7535217" lon="8.9645867"><ele>361.0</ele><time>2026-04-04T09:55:52.102Z</time></trkpt><trkpt lat="44.7535283" lon="8.9647817"><ele>360.0</ele><time>2026-04-04T09:55:53.107Z</time></trkpt><trkpt lat="44.7535367" lon="8.9649633"><ele>359.0</ele><time>2026-04-04T09:55:54.102Z</time></trkpt><trkpt lat="44.753545" lon="8.9651167"><ele>359.6</ele><time>2026-04-04T09:55:55.103Z</time></trkpt><trkpt lat="44.7535383" lon="8.96525"><ele>360.2</ele><time>2026-04-04T09:55:56.102Z</time></trkpt><trkpt lat="44.7535133" lon="8.9653717"><ele>360.8</ele><time>2026-04-04T09:55:57.103Z</time></trkpt><trkpt lat="44.7534783" lon="8.9654883"><ele>361.40000000000003</ele><time>2026-04-04T09:55:58.102Z</time></trkpt><trkpt lat="44.7534283" lon="8.9655917"><ele>362.0</ele><time>2026-04-04T09:55:59.106Z</time></trkpt><trkpt lat="44.7533567" lon="8.9656817"><ele>362.0</ele><time>2026-04-04T09:56:00.105Z</time></trkpt><trkpt lat="44.7532333" lon="8.9657333"><ele>362.0</ele><time>2026-04-04T09:56:01.099Z</time></trkpt><trkpt lat="44.753115" lon="8.9658017"><ele>362.0</ele><time>2026-04-04T09:56:02.101Z</time></trkpt><trkpt lat="44.7529933" lon="8.9658767"><ele>362.0</ele><time>2026-04-04T09:56:03.106Z</time></trkpt><trkpt lat="44.7528717" lon="8.9659617"><ele>363.25</ele><time>2026-04-04T09:56:04.1Z</time></trkpt><trkpt lat="44.7527533" lon="8.9660517"><ele>364.5</ele><time>2026-04-04T09:56:05.101Z</time></trkpt><trkpt lat="44.7526333" lon="8.9661467"><ele>365.75</ele><time>2026-04-04T09:56:06.1Z</time></trkpt><trkpt lat="44.752515" lon="8.9662483"><ele>367.0</ele><time>2026-04-04T09:56:07.104Z</time></trkpt><trkpt lat="44.7523933" lon="8.9663467"><ele>367.0</ele><time>2026-04-04T09:56:08.103Z</time></trkpt><trkpt lat="44.7522767" lon="8.9664567"><ele>367.0</ele><time>2026-04-04T09:56:09.099Z</time></trkpt><trkpt lat="44.75216" lon="8.966565"><ele>367.0</ele><time>2026-04-04T09:56:10.102Z</time></trkpt><trkpt lat="44.7520433" lon="8.9666717"><ele>367.0</ele><time>2026-04-04T09:56:11.103Z</time></trkpt><trkpt lat="44.7519283" lon="8.9667833"><ele>366.5</ele><time>2026-04-04T09:56:12.103Z</time></trkpt><trkpt lat="44.75182" lon="8.9668933"><ele>366.0</ele><time>2026-04-04T09:56:13.107Z</time></trkpt><trkpt lat="44.7517167" lon="8.9670033"><ele>365.5</ele><time>2026-04-04T09:56:14.104Z</time></trkpt><trkpt lat="44.7516183" lon="8.9671233"><ele>365.0</ele><time>2026-04-04T09:56:15.107Z</time></trkpt><trkpt lat="44.7515233" lon="8.96725"><ele>365.0</ele><time>2026-04-04T09:56:16.107Z</time></trkpt><trkpt lat="44.7514283" lon="8.9673833"><ele>365.0</ele><time>2026-04-04T09:56:17.104Z</time></trkpt><trkpt lat="44.7513367" lon="8.96753"><ele>365.0</ele><time>2026-04-04T09:56:18.102Z</time></trkpt><trkpt lat="44.75124" lon="8.96768"><ele>365.0</ele><time>2026-04-04T09:56:19.103Z</time></trkpt><trkpt lat="44.7511433" lon="8.9678367"><ele>364.75</ele><time>2026-04-04T09:56:20.104Z</time></trkpt><trkpt lat="44.7510483" lon="8.968"><ele>364.5</ele><time>2026-04-04T09:56:21.106Z</time></trkpt><trkpt lat="44.75096" lon="8.9681667"><ele>364.25</ele><time>2026-04-04T09:56:22.105Z</time></trkpt><trkpt lat="44.7508683" lon="8.9683283"><ele>364.0</ele><time>2026-04-04T09:56:23.103Z</time></trkpt><trkpt lat="44.750775" lon="8.968495"><ele>364.0</ele><time>2026-04-04T09:56:24.104Z</time></trkpt><trkpt lat="44.7506883" lon="8.96868"><ele>364.0</ele><time>2026-04-04T09:56:25.1Z</time></trkpt><trkpt lat="44.7506033" lon="8.9688433"><ele>364.0</ele><time>2026-04-04T09:56:26.101Z</time></trkpt><trkpt lat="44.750515" lon="8.9690033"><ele>364.0</ele><time>2026-04-04T09:56:27.101Z</time></trkpt><trkpt lat="44.7504233" lon="8.96914"><ele>363.5</ele><time>2026-04-04T09:56:28.102Z</time></trkpt><trkpt lat="44.7503233" lon="8.9692667"><ele>363.0</ele><time>2026-04-04T09:56:29.111Z</time></trkpt><trkpt lat="44.75022" lon="8.969385"><ele>362.5</ele><time>2026-04-04T09:56:30.103Z</time></trkpt><trkpt lat="44.750115" lon="8.9694767"><ele>362.0</ele><time>2026-04-04T09:56:31.103Z</time></trkpt><trkpt lat="44.7499967" lon="8.9695317"><ele>356.5</ele><time>2026-04-04T09:56:32.103Z</time></trkpt><trkpt lat="44.7498767" lon="8.9695633"><ele>351.0</ele><time>2026-04-04T09:56:33.101Z</time></trkpt><trkpt lat="44.7497417" lon="8.9695483"><ele>345.5</ele><time>2026-04-04T09:56:34.101Z</time></trkpt><trkpt lat="44.7496033" lon="8.9695"><ele>340.0</ele><time>2026-04-04T09:56:35.104Z</time></trkpt><trkpt lat="44.7494633" lon="8.9694367"><ele>340.0</ele><time>2026-04-04T09:56:36.106Z</time></trkpt><trkpt lat="44.7493067" lon="8.9693583"><ele>340.0</ele><time>2026-04-04T09:56:37.102Z</time></trkpt><trkpt lat="44.7491517" lon="8.9692783"><ele>340.0</ele><time>2026-04-04T09:56:38.105Z</time></trkpt><trkpt lat="44.7489933" lon="8.9692033"><ele>338.66666666666663</ele><time>2026-04-04T09:56:39.104Z</time></trkpt><trkpt lat="44.748835" lon="8.9691283"><ele>337.3333333333333</ele><time>2026-04-04T09:56:40.104Z</time></trkpt><trkpt lat="44.748675" lon="8.96905"><ele>336.0</ele><time>2026-04-04T09:56:41.101Z</time></trkpt><trkpt lat="44.7485233" lon="8.968975"><ele>335.3333333333333</ele><time>2026-04-04T09:56:42.102Z</time></trkpt><trkpt lat="44.7483667" lon="8.9689033"><ele>334.66666666666663</ele><time>2026-04-04T09:56:43.103Z</time></trkpt><trkpt lat="44.7482133" lon="8.968825"><ele>334.0</ele><time>2026-04-04T09:56:44.103Z</time></trkpt><trkpt lat="44.7480683" lon="8.9687533"><ele>334.0</ele><time>2026-04-04T09:56:45.106Z</time></trkpt><trkpt lat="44.7479217" lon="8.9686733"><ele>334.0</ele><time>2026-04-04T09:56:46.101Z</time></trkpt><trkpt lat="44.7477767" lon="8.96859"><ele>334.0</ele><time>2026-04-04T09:56:47.107Z</time></trkpt><trkpt lat="44.74763" lon="8.96851"><ele>335.66666666666663</ele><time>2026-04-04T09:56:48.102Z</time></trkpt><trkpt lat="44.74748" lon="8.96844"><ele>337.3333333333333</ele><time>2026-04-04T09:56:49.1Z</time></trkpt><trkpt lat="44.7473267" lon="8.968365"><ele>339.0</ele><time>2026-04-04T09:56:50.109Z</time></trkpt><trkpt lat="44.7471717" lon="8.96829"><ele>339.0</ele><time>2026-04-04T09:56:51.103Z</time></trkpt><trkpt lat="44.7470183" lon="8.9682183"><ele>339.0</ele><time>2026-04-04T09:56:52.103Z</time></trkpt><trkpt lat="44.7468683" lon="8.968155"><ele>339.0</ele><time>2026-04-04T09:56:53.103Z</time></trkpt><trkpt lat="44.7467267" lon="8.9680933"><ele>339.0</ele><time>2026-04-04T09:56:54.105Z</time></trkpt><trkpt lat="44.7465883" lon="8.9680333"><ele>339.0</ele><time>2026-04-04T09:56:55.104Z</time></trkpt><trkpt lat="44.746445" lon="8.9679733"><ele>339.0</ele><time>2026-04-04T09:56:56.107Z</time></trkpt><trkpt lat="44.746295" lon="8.9679233"><ele>339.0</ele><time>2026-04-04T09:56:57.104Z</time></trkpt><trkpt lat="44.7461467" lon="8.9678767"><ele>339.3333333333333</ele><time>2026-04-04T09:56:58.103Z</time></trkpt><trkpt lat="44.7459917" lon="8.9678467"><ele>339.66666666666663</ele><time>2026-04-04T09:56:59.104Z</time></trkpt><trkpt lat="44.7458417" lon="8.967835"><ele>340.0</ele><time>2026-04-04T09:57:00.099Z</time></trkpt><trkpt lat="44.7456917" lon="8.9678333"><ele>340.0</ele><time>2026-04-04T09:57:01.104Z</time></trkpt><trkpt lat="44.7455467" lon="8.967845"><ele>340.0</ele><time>2026-04-04T09:57:02.1Z</time></trkpt><trkpt lat="44.7453883" lon="8.9678867"><ele>340.0</ele><time>2026-04-04T09:57:03.1Z</time></trkpt><trkpt lat="44.7452317" lon="8.9679433"><ele>339.3333333333333</ele><time>2026-04-04T09:57:04.101Z</time></trkpt><trkpt lat="44.7450733" lon="8.9680183"><ele>338.6666666666667</ele><time>2026-04-04T09:57:05.1Z</time></trkpt><trkpt lat="44.74491" lon="8.9680933"><ele>338.0</ele><time>2026-04-04T09:57:06.101Z</time></trkpt><trkpt lat="44.7447467" lon="8.968145"><ele>338.0</ele><time>2026-04-04T09:57:07.107Z</time></trkpt><trkpt lat="44.7445783" lon="8.9681883"><ele>338.0</ele><time>2026-04-04T09:57:08.104Z</time></trkpt><trkpt lat="44.7444133" lon="8.96823"><ele>338.0</ele><time>2026-04-04T09:57:09.106Z</time></trkpt><trkpt lat="44.7442467" lon="8.9682817"><ele>336.0</ele><time>2026-04-04T09:57:10.101Z</time></trkpt><trkpt lat="44.74408" lon="8.9683167"><ele>334.0</ele><time>2026-04-04T09:57:11.107Z</time></trkpt><trkpt lat="44.7439117" lon="8.968355"><ele>332.0</ele><time>2026-04-04T09:57:12.103Z</time></trkpt><trkpt lat="44.7437433" lon="8.9683983"><ele>334.33333333333337</ele><time>2026-04-04T09:57:13.102Z</time></trkpt><trkpt lat="44.7435733" lon="8.96844"><ele>336.6666666666667</ele><time>2026-04-04T09:57:14.101Z</time></trkpt><trkpt lat="44.7434017" lon="8.9684817"><ele>339.0</ele><time>2026-04-04T09:57:15.101Z</time></trkpt><trkpt lat="44.74323" lon="8.9685367"><ele>339.0</ele><time>2026-04-04T09:57:16.1Z</time></trkpt><trkpt lat="44.74306" lon="8.96859"><ele>339.0</ele><time>2026-04-04T09:57:17.106Z</time></trkpt><trkpt lat="44.742895" lon="8.968645"><ele>339.0</ele><time>2026-04-04T09:57:18.102Z</time></trkpt><trkpt lat="44.7427283" lon="8.968715"><ele>334.6666666666667</ele><time>2026-04-04T09:57:19.104Z</time></trkpt><trkpt lat="44.7425583" lon="8.9688017"><ele>330.33333333333337</ele><time>2026-04-04T09:57:20.102Z</time></trkpt><trkpt lat="44.742395" lon="8.9688983"><ele>326.0</ele><time>2026-04-04T09:57:21.104Z</time></trkpt><trkpt lat="44.7422317" lon="8.9690133"><ele>326.0</ele><time>2026-04-04T09:57:22.102Z</time></trkpt><trkpt lat="44.7420633" lon="8.9691133"><ele>326.0</ele><time>2026-04-04T09:57:23.108Z</time></trkpt><trkpt lat="44.7418933" lon="8.969205"><ele>326.0</ele><time>2026-04-04T09:57:24.102Z</time></trkpt><trkpt lat="44.7417067" lon="8.969295"><ele>323.6666666666667</ele><time>2026-04-04T09:57:25.104Z</time></trkpt><trkpt lat="44.7415383" lon="8.9693867"><ele>321.3333333333333</ele><time>2026-04-04T09:57:26.1Z</time></trkpt><trkpt lat="44.7413717" lon="8.9694783"><ele>319.0</ele><time>2026-04-04T09:57:27.107Z</time></trkpt><trkpt lat="44.7412217" lon="8.96956"><ele>319.0</ele><time>2026-04-04T09:57:28.103Z</time></trkpt><trkpt lat="44.74109" lon="8.9696317"><ele>319.0</ele><time>2026-04-04T09:57:29.102Z</time></trkpt><trkpt lat="44.74098" lon="8.9696883"><ele>319.0</ele><time>2026-04-04T09:57:30.104Z</time></trkpt><trkpt lat="44.7408917" lon="8.9697283"><ele>319.0</ele><time>2026-04-04T09:57:31.099Z</time></trkpt><trkpt lat="44.7408183" lon="8.9697417"><ele>319.0</ele><time>2026-04-04T09:57:32.1Z</time></trkpt><trkpt lat="44.740755" lon="8.9697333"><ele>316.75</ele><time>2026-04-04T09:57:33.1Z</time></trkpt><trkpt lat="44.7406567" lon="8.969595"><ele>314.5</ele><time>2026-04-04T09:57:35.1Z</time></trkpt><trkpt lat="44.74061" lon="8.9694883"><ele>312.25</ele><time>2026-04-04T09:57:36.103Z</time></trkpt><trkpt lat="44.7405533" lon="8.96935"><ele>310.0</ele><time>2026-04-04T09:57:37.102Z</time></trkpt><trkpt lat="44.7404917" lon="8.969215"><ele>311.0</ele><time>2026-04-04T09:57:38.105Z</time></trkpt><trkpt lat="44.74043" lon="8.9690733"><ele>312.0</ele><time>2026-04-04T09:57:39.098Z</time></trkpt><trkpt lat="44.7403633" lon="8.9689317"><ele>313.0</ele><time>2026-04-04T09:57:40.103Z</time></trkpt><trkpt lat="44.740295" lon="8.9687817"><ele>314.0</ele><time>2026-04-04T09:57:41.101Z</time></trkpt><trkpt lat="44.7402183" lon="8.968635"><ele>313.5</ele><time>2026-04-04T09:57:42.102Z</time></trkpt><trkpt lat="44.7401433" lon="8.96848"><ele>313.0</ele><time>2026-04-04T09:57:43.119Z</time></trkpt><trkpt lat="44.74007" lon="8.9683267"><ele>312.5</ele><time>2026-04-04T09:57:44.103Z</time></trkpt><trkpt lat="44.7400017" lon="8.9681733"><ele>312.0</ele><time>2026-04-04T09:57:45.104Z</time></trkpt><trkpt lat="44.7399383" lon="8.9680233"><ele>312.0</ele><time>2026-04-04T09:57:46.103Z</time></trkpt><trkpt lat="44.739885" lon="8.9678733"><ele>312.0</ele><time>2026-04-04T09:57:47.102Z</time></trkpt><trkpt lat="44.7398517" lon="8.9677067"><ele>312.0</ele><time>2026-04-04T09:57:48.105Z</time></trkpt><trkpt lat="44.7398317" lon="8.9675217"><ele>312.0</ele><time>2026-04-04T09:57:49.102Z</time></trkpt><trkpt lat="44.739815" lon="8.9673283"><ele>314.75</ele><time>2026-04-04T09:57:50.102Z</time></trkpt><trkpt lat="44.7397817" lon="8.9671367"><ele>317.5</ele><time>2026-04-04T09:57:51.097Z</time></trkpt><trkpt lat="44.7397283" lon="8.9669483"><ele>320.25</ele><time>2026-04-04T09:57:52.101Z</time></trkpt><trkpt lat="44.7396533" lon="8.9667633"><ele>323.0</ele><time>2026-04-04T09:57:53.099Z</time></trkpt><trkpt lat="44.739575" lon="8.966575"><ele>320.33333333333337</ele><time>2026-04-04T09:57:54.108Z</time></trkpt><trkpt lat="44.7394917" lon="8.9663917"><ele>317.6666666666667</ele><time>2026-04-04T09:57:55.1Z</time></trkpt><trkpt lat="44.73941" lon="8.9662133"><ele>315.0</ele><time>2026-04-04T09:57:56.1Z</time></trkpt><trkpt lat="44.7393233" lon="8.9660433"><ele>315.0</ele><time>2026-04-04T09:57:57.1Z</time></trkpt><trkpt lat="44.7392317" lon="8.96588"><ele>315.0</ele><time>2026-04-04T09:57:58.103Z</time></trkpt><trkpt lat="44.739125" lon="8.9657217"><ele>315.0</ele><time>2026-04-04T09:57:59.099Z</time></trkpt><trkpt lat="44.7390033" lon="8.9655767"><ele>314.3333333333333</ele><time>2026-04-04T09:58:00.104Z</time></trkpt><trkpt lat="44.73888" lon="8.9654367"><ele>313.66666666666663</ele><time>2026-04-04T09:58:01.103Z</time></trkpt><trkpt lat="44.7387567" lon="8.965305"><ele>313.0</ele><time>2026-04-04T09:58:02.099Z</time></trkpt><trkpt lat="44.7386417" lon="8.96518"><ele>313.25</ele><time>2026-04-04T09:58:03.102Z</time></trkpt><trkpt lat="44.738525" lon="8.9650633"><ele>313.5</ele><time>2026-04-04T09:58:04.099Z</time></trkpt><trkpt lat="44.7384067" lon="8.9649517"><ele>313.75</ele><time>2026-04-04T09:58:05.103Z</time></trkpt><trkpt lat="44.7382967" lon="8.964835"><ele>314.0</ele><time>2026-04-04T09:58:06.107Z</time></trkpt><trkpt lat="44.7381917" lon="8.9647083"><ele>314.0</ele><time>2026-04-04T09:58:07.1Z</time></trkpt><trkpt lat="44.7380817" lon="8.9645867"><ele>314.0</ele><time>2026-04-04T09:58:08.103Z</time></trkpt><trkpt lat="44.737975" lon="8.964455"><ele>314.0</ele><time>2026-04-04T09:58:09.101Z</time></trkpt><trkpt lat="44.73787" lon="8.9643217"><ele>314.0</ele><time>2026-04-04T09:58:10.102Z</time></trkpt><trkpt lat="44.7377667" lon="8.9641867"><ele>313.25</ele><time>2026-04-04T09:58:11.098Z</time></trkpt><trkpt lat="44.737665" lon="8.96405"><ele>312.5</ele><time>2026-04-04T09:58:12.102Z</time></trkpt><trkpt lat="44.7375617" lon="8.9639167"><ele>311.75</ele><time>2026-04-04T09:58:13.1Z</time></trkpt><trkpt lat="44.7374583" lon="8.963785"><ele>311.0</ele><time>2026-04-04T09:58:14.102Z</time></trkpt><trkpt lat="44.73736" lon="8.9636517"><ele>311.0</ele><time>2026-04-04T09:58:15.1Z</time></trkpt><trkpt lat="44.73726" lon="8.9635233"><ele>311.0</ele><time>2026-04-04T09:58:16.099Z</time></trkpt><trkpt lat="44.7371633" lon="8.9633917"><ele>311.0</ele><time>2026-04-04T09:58:17.105Z</time></trkpt><trkpt lat="44.7370617" lon="8.9632617"><ele>311.0</ele><time>2026-04-04T09:58:18.108Z</time></trkpt><trkpt lat="44.7369633" lon="8.9631317"><ele>309.5</ele><time>2026-04-04T09:58:19.1Z</time></trkpt><trkpt lat="44.7368683" lon="8.9630033"><ele>308.0</ele><time>2026-04-04T09:58:20.098Z</time></trkpt><trkpt lat="44.7367733" lon="8.9628833"><ele>306.5</ele><time>2026-04-04T09:58:21.098Z</time></trkpt><trkpt lat="44.736675" lon="8.9627717"><ele>305.0</ele><time>2026-04-04T09:58:22.099Z</time></trkpt><trkpt lat="44.7365683" lon="8.962675"><ele>305.0</ele><time>2026-04-04T09:58:23.098Z</time></trkpt><trkpt lat="44.7364383" lon="8.9626133"><ele>305.0</ele><time>2026-04-04T09:58:24.101Z</time></trkpt><trkpt lat="44.7362917" lon="8.9625867"><ele>305.0</ele><time>2026-04-04T09:58:25.104Z</time></trkpt><trkpt lat="44.736145" lon="8.962585"><ele>305.0</ele><time>2026-04-04T09:58:26.104Z</time></trkpt><trkpt lat="44.73599" lon="8.9626017"><ele>304.5</ele><time>2026-04-04T09:58:27.099Z</time></trkpt><trkpt lat="44.7358417" lon="8.9626217"><ele>304.0</ele><time>2026-04-04T09:58:28.102Z</time></trkpt><trkpt lat="44.735695" lon="8.9626367"><ele>303.5</ele><time>2026-04-04T09:58:29.108Z</time></trkpt><trkpt lat="44.7355533" lon="8.9626467"><ele>303.0</ele><time>2026-04-04T09:58:30.102Z</time></trkpt><trkpt lat="44.7354067" lon="8.9626483"><ele>303.0</ele><time>2026-04-04T09:58:31.102Z</time></trkpt><trkpt lat="44.7352583" lon="8.9626317"><ele>303.0</ele><time>2026-04-04T09:58:32.1Z</time></trkpt><trkpt lat="44.7351067" lon="8.9625783"><ele>303.0</ele><time>2026-04-04T09:58:33.105Z</time></trkpt><trkpt lat="44.7349617" lon="8.962495"><ele>302.5</ele><time>2026-04-04T09:58:34.101Z</time></trkpt><trkpt lat="44.7348267" lon="8.962395"><ele>302.0</ele><time>2026-04-04T09:58:35.101Z</time></trkpt><trkpt lat="44.7346933" lon="8.9622933"><ele>301.5</ele><time>2026-04-04T09:58:36.103Z</time></trkpt><trkpt lat="44.7345683" lon="8.9621933"><ele>301.0</ele><time>2026-04-04T09:58:37.102Z</time></trkpt><trkpt lat="44.7344467" lon="8.9620967"><ele>303.25</ele><time>2026-04-04T09:58:38.102Z</time></trkpt><trkpt lat="44.73433" lon="8.962"><ele>305.5</ele><time>2026-04-04T09:58:39.098Z</time></trkpt><trkpt lat="44.7342117" lon="8.9619033"><ele>307.75</ele><time>2026-04-04T09:58:40.109Z</time></trkpt><trkpt lat="44.7340933" lon="8.9618083"><ele>310.0</ele><time>2026-04-04T09:58:41.099Z</time></trkpt><trkpt lat="44.733975" lon="8.9617217"><ele>309.75</ele><time>2026-04-04T09:58:42.1Z</time></trkpt><trkpt lat="44.73386" lon="8.9616483"><ele>309.5</ele><time>2026-04-04T09:58:43.099Z</time></trkpt><trkpt lat="44.73373" lon="8.9615917"><ele>309.25</ele><time>2026-04-04T09:58:44.107Z</time></trkpt><trkpt lat="44.7336233" lon="8.961565"><ele>309.0</ele><time>2026-04-04T09:58:45.1Z</time></trkpt><trkpt lat="44.7335317" lon="8.9615617"><ele>309.00000000000006</ele><time>2026-04-04T09:58:46.102Z</time></trkpt><trkpt lat="44.7334583" lon="8.961565"><ele>309.0</ele><time>2026-04-04T09:58:47.103Z</time></trkpt><trkpt lat="44.7333917" lon="8.9615717"><ele>309.0</ele><time>2026-04-04T09:58:48.102Z</time></trkpt><trkpt lat="44.7333283" lon="8.9615767"><ele>309.0</ele><time>2026-04-04T09:58:49.106Z</time></trkpt><trkpt lat="44.7332417" lon="8.961595"><ele>309.0</ele><time>2026-04-04T09:58:51.101Z</time></trkpt><trkpt lat="44.7331667" lon="8.9615533"><ele>309.00000000000006</ele><time>2026-04-04T09:58:54.101Z</time></trkpt><trkpt lat="44.7331383" lon="8.96146"><ele>309.0</ele><time>2026-04-04T09:58:56.103Z</time></trkpt><trkpt lat="44.7331283" lon="8.9612717"><ele>309.0</ele><time>2026-04-04T09:58:58.107Z</time></trkpt><trkpt lat="44.7331483" lon="8.9611083"><ele>309.0</ele><time>2026-04-04T09:58:59.106Z</time></trkpt><trkpt lat="44.7331767" lon="8.9609117"><ele>309.0</ele><time>2026-04-04T09:59:00.103Z</time></trkpt><trkpt lat="44.7331967" lon="8.960715"><ele>309.0</ele><time>2026-04-04T09:59:01.107Z</time></trkpt><trkpt lat="44.7332117" lon="8.96052"><ele>308.6666666666667</ele><time>2026-04-04T09:59:02.106Z</time></trkpt><trkpt lat="44.7332283" lon="8.9603217"><ele>308.33333333333337</ele><time>2026-04-04T09:59:03.102Z</time></trkpt><trkpt lat="44.7332417" lon="8.9601117"><ele>308.0</ele><time>2026-04-04T09:59:04.101Z</time></trkpt><trkpt lat="44.7332567" lon="8.95989"><ele>308.0</ele><time>2026-04-04T09:59:05.102Z</time></trkpt><trkpt lat="44.7332733" lon="8.9596617"><ele>308.0</ele><time>2026-04-04T09:59:06.101Z</time></trkpt><trkpt lat="44.73329" lon="8.959435"><ele>308.0</ele><time>2026-04-04T09:59:07.101Z</time></trkpt><trkpt lat="44.7333067" lon="8.95921"><ele>307.6666666666667</ele><time>2026-04-04T09:59:08.102Z</time></trkpt><trkpt lat="44.733315" lon="8.9589833"><ele>307.3333333333333</ele><time>2026-04-04T09:59:09.102Z</time></trkpt><trkpt lat="44.7333233" lon="8.958755"><ele>307.0</ele><time>2026-04-04T09:59:10.105Z</time></trkpt><trkpt lat="44.73333" lon="8.95853"><ele>306.66666666666663</ele><time>2026-04-04T09:59:11.101Z</time></trkpt><trkpt lat="44.7333333" lon="8.9583067"><ele>306.3333333333333</ele><time>2026-04-04T09:59:12.105Z</time></trkpt><trkpt lat="44.733335" lon="8.9580883"><ele>306.0</ele><time>2026-04-04T09:59:13.102Z</time></trkpt><trkpt lat="44.7333333" lon="8.9578633"><ele>306.0</ele><time>2026-04-04T09:59:14.105Z</time></trkpt><trkpt lat="44.7333367" lon="8.95764"><ele>306.0</ele><time>2026-04-04T09:59:15.107Z</time></trkpt><trkpt lat="44.7333383" lon="8.9574183"><ele>306.0</ele><time>2026-04-04T09:59:16.102Z</time></trkpt><trkpt lat="44.7333367" lon="8.9571967"><ele>305.6666666666667</ele><time>2026-04-04T09:59:17.109Z</time></trkpt><trkpt lat="44.73333" lon="8.9569867"><ele>305.33333333333337</ele><time>2026-04-04T09:59:18.1Z</time></trkpt><trkpt lat="44.7333233" lon="8.9567717"><ele>305.0</ele><time>2026-04-04T09:59:19.101Z</time></trkpt><trkpt lat="44.7333183" lon="8.95655"><ele>305.0</ele><time>2026-04-04T09:59:20.099Z</time></trkpt><trkpt lat="44.733315" lon="8.9563317"><ele>305.0</ele><time>2026-04-04T09:59:21.103Z</time></trkpt><trkpt lat="44.7333133" lon="8.9561083"><ele>305.0</ele><time>2026-04-04T09:59:22.097Z</time></trkpt><trkpt lat="44.7333067" lon="8.9558867"><ele>304.6666666666667</ele><time>2026-04-04T09:59:23.107Z</time></trkpt><trkpt lat="44.733305" lon="8.95566"><ele>304.3333333333333</ele><time>2026-04-04T09:59:24.106Z</time></trkpt><trkpt lat="44.7333033" lon="8.9554267"><ele>304.0</ele><time>2026-04-04T09:59:25.099Z</time></trkpt><trkpt lat="44.7332983" lon="8.9551933"><ele>304.3333333333333</ele><time>2026-04-04T09:59:26.103Z</time></trkpt><trkpt lat="44.7332917" lon="8.954955"><ele>304.6666666666667</ele><time>2026-04-04T09:59:27.103Z</time></trkpt><trkpt lat="44.7332883" lon="8.9547117"><ele>305.0</ele><time>2026-04-04T09:59:28.1Z</time></trkpt><trkpt lat="44.7332867" lon="8.9544717"><ele>305.0</ele><time>2026-04-04T09:59:29.105Z</time></trkpt><trkpt lat="44.7332817" lon="8.9542283"><ele>305.0</ele><time>2026-04-04T09:59:30.102Z</time></trkpt><trkpt lat="44.7332733" lon="8.953985"><ele>305.0</ele><time>2026-04-04T09:59:31.103Z</time></trkpt><trkpt lat="44.7332733" lon="8.9537433"><ele>304.6666666666667</ele><time>2026-04-04T09:59:32.103Z</time></trkpt><trkpt lat="44.7332633" lon="8.9535017"><ele>304.3333333333333</ele><time>2026-04-04T09:59:33.103Z</time></trkpt><trkpt lat="44.7332633" lon="8.95327"><ele>304.0</ele><time>2026-04-04T09:59:34.11Z</time></trkpt><trkpt lat="44.7332583" lon="8.9530483"><ele>303.3333333333333</ele><time>2026-04-04T09:59:35.107Z</time></trkpt><trkpt lat="44.7332467" lon="8.9528267"><ele>302.6666666666667</ele><time>2026-04-04T09:59:36.101Z</time></trkpt><trkpt lat="44.73324" lon="8.9525983"><ele>302.0</ele><time>2026-04-04T09:59:37.101Z</time></trkpt><trkpt lat="44.7332367" lon="8.9523667"><ele>302.0</ele><time>2026-04-04T09:59:38.105Z</time></trkpt><trkpt lat="44.733235" lon="8.9521317"><ele>302.0</ele><time>2026-04-04T09:59:39.108Z</time></trkpt><trkpt lat="44.7332383" lon="8.9518933"><ele>302.0</ele><time>2026-04-04T09:59:40.104Z</time></trkpt><trkpt lat="44.7332267" lon="8.95166"><ele>302.0</ele><time>2026-04-04T09:59:41.109Z</time></trkpt><trkpt lat="44.7332233" lon="8.951425"><ele>302.0</ele><time>2026-04-04T09:59:42.106Z</time></trkpt><trkpt lat="44.733225" lon="8.9511933"><ele>302.0</ele><time>2026-04-04T09:59:43.104Z</time></trkpt><trkpt lat="44.7332217" lon="8.9509667"><ele>301.6666666666667</ele><time>2026-04-04T09:59:44.102Z</time></trkpt><trkpt lat="44.733215" lon="8.9507467"><ele>301.3333333333333</ele><time>2026-04-04T09:59:45.103Z</time></trkpt><trkpt lat="44.7332033" lon="8.9505183"><ele>301.0</ele><time>2026-04-04T09:59:46.105Z</time></trkpt><trkpt lat="44.7331967" lon="8.9502883"><ele>301.0</ele><time>2026-04-04T09:59:47.101Z</time></trkpt><trkpt lat="44.7332" lon="8.950055"><ele>301.0</ele><time>2026-04-04T09:59:48.1Z</time></trkpt><trkpt lat="44.7332" lon="8.9498267"><ele>301.0</ele><time>2026-04-04T09:59:49.1Z</time></trkpt><trkpt lat="44.733195" lon="8.9496017"><ele>300.66666666666663</ele><time>2026-04-04T09:59:50.1Z</time></trkpt><trkpt lat="44.7331917" lon="8.9493783"><ele>300.3333333333333</ele><time>2026-04-04T09:59:51.101Z</time></trkpt><trkpt lat="44.733185" lon="8.94916"><ele>300.0</ele><time>2026-04-04T09:59:52.1Z</time></trkpt><trkpt lat="44.73318" lon="8.9489417"><ele>300.0</ele><time>2026-04-04T09:59:53.102Z</time></trkpt><trkpt lat="44.7331783" lon="8.9487233"><ele>300.0</ele><time>2026-04-04T09:59:54.105Z</time></trkpt><trkpt lat="44.733175" lon="8.9485083"><ele>300.0</ele><time>2026-04-04T09:59:55.102Z</time></trkpt><trkpt lat="44.7331717" lon="8.9482917"><ele>299.75</ele><time>2026-04-04T09:59:56.105Z</time></trkpt><trkpt lat="44.73315" lon="8.948085"><ele>299.5</ele><time>2026-04-04T09:59:57.101Z</time></trkpt><trkpt lat="44.73314" lon="8.947875"><ele>299.25</ele><time>2026-04-04T09:59:58.1Z</time></trkpt><trkpt lat="44.7331367" lon="8.9476667"><ele>299.0</ele><time>2026-04-04T09:59:59.105Z</time></trkpt><trkpt lat="44.7331383" lon="8.947465"><ele>298.5</ele><time>2026-04-04T10:00:00.103Z</time></trkpt><trkpt lat="44.733135" lon="8.947275"><ele>298.0</ele><time>2026-04-04T10:00:01.106Z</time></trkpt><trkpt lat="44.7331383" lon="8.9470917"><ele>297.5</ele><time>2026-04-04T10:00:02.103Z</time></trkpt><trkpt lat="44.7331467" lon="8.94691"><ele>297.0</ele><time>2026-04-04T10:00:03.11Z</time></trkpt><trkpt lat="44.73316" lon="8.9467267"><ele>297.0</ele><time>2026-04-04T10:00:04.104Z</time></trkpt><trkpt lat="44.7331633" lon="8.94655"><ele>297.0</ele><time>2026-04-04T10:00:05.104Z</time></trkpt><trkpt lat="44.7331583" lon="8.9463733"><ele>297.0</ele><time>2026-04-04T10:00:06.099Z</time></trkpt><trkpt lat="44.7331517" lon="8.946195"><ele>297.0</ele><time>2026-04-04T10:00:07.101Z</time></trkpt><trkpt lat="44.73314" lon="8.9460183"><ele>297.0</ele><time>2026-04-04T10:00:08.099Z</time></trkpt><trkpt lat="44.7331233" lon="8.9458383"><ele>297.0</ele><time>2026-04-04T10:00:09.101Z</time></trkpt><trkpt lat="44.7331067" lon="8.9456617"><ele>297.0</ele><time>2026-04-04T10:00:10.102Z</time></trkpt><trkpt lat="44.7330883" lon="8.9454817"><ele>297.0</ele><time>2026-04-04T10:00:11.105Z</time></trkpt><trkpt lat="44.7330667" lon="8.9452967"><ele>297.0</ele><time>2026-04-04T10:00:12.106Z</time></trkpt><trkpt lat="44.7330433" lon="8.9451067"><ele>297.0</ele><time>2026-04-04T10:00:13.099Z</time></trkpt><trkpt lat="44.7330167" lon="8.9449233"><ele>297.0</ele><time>2026-04-04T10:00:14.101Z</time></trkpt><trkpt lat="44.7329767" lon="8.944745"><ele>297.0</ele><time>2026-04-04T10:00:15.099Z</time></trkpt><trkpt lat="44.7329317" lon="8.9445683"><ele>296.25</ele><time>2026-04-04T10:00:16.099Z</time></trkpt><trkpt lat="44.7328867" lon="8.9443817"><ele>295.5</ele><time>2026-04-04T10:00:17.106Z</time></trkpt><trkpt lat="44.7328367" lon="8.9441967"><ele>294.75</ele><time>2026-04-04T10:00:18.1Z</time></trkpt><trkpt lat="44.7327883" lon="8.944005"><ele>294.0</ele><time>2026-04-04T10:00:19.105Z</time></trkpt><trkpt lat="44.73273" lon="8.9438233"><ele>293.75</ele><time>2026-04-04T10:00:20.103Z</time></trkpt><trkpt lat="44.7326683" lon="8.9436467"><ele>293.5</ele><time>2026-04-04T10:00:21.102Z</time></trkpt><trkpt lat="44.7326" lon="8.9434767"><ele>293.25</ele><time>2026-04-04T10:00:22.101Z</time></trkpt><trkpt lat="44.732535" lon="8.94331"><ele>293.0</ele><time>2026-04-04T10:00:23.107Z</time></trkpt><trkpt lat="44.7324683" lon="8.9431383"><ele>293.5</ele><time>2026-04-04T10:00:24.104Z</time></trkpt><trkpt lat="44.7324" lon="8.9429667"><ele>294.0</ele><time>2026-04-04T10:00:25.1Z</time></trkpt><trkpt lat="44.7323283" lon="8.942795"><ele>294.5</ele><time>2026-04-04T10:00:26.104Z</time></trkpt><trkpt lat="44.7322517" lon="8.9426217"><ele>295.0</ele><time>2026-04-04T10:00:27.101Z</time></trkpt><trkpt lat="44.732175" lon="8.942445"><ele>294.5</ele><time>2026-04-04T10:00:28.11Z</time></trkpt><trkpt lat="44.7320917" lon="8.942275"><ele>294.0</ele><time>2026-04-04T10:00:29.105Z</time></trkpt><trkpt lat="44.7320017" lon="8.942105"><ele>293.5</ele><time>2026-04-04T10:00:30.105Z</time></trkpt><trkpt lat="44.73192" lon="8.94193"><ele>293.0</ele><time>2026-04-04T10:00:31.1Z</time></trkpt><trkpt lat="44.73184" lon="8.9417533"><ele>292.33333333333337</ele><time>2026-04-04T10:00:32.099Z</time></trkpt><trkpt lat="44.73176" lon="8.941575"><ele>291.6666666666667</ele><time>2026-04-04T10:00:33.099Z</time></trkpt><trkpt lat="44.7316767" lon="8.9413933"><ele>291.0</ele><time>2026-04-04T10:00:34.11Z</time></trkpt><trkpt lat="44.7315933" lon="8.9412167"><ele>291.0</ele><time>2026-04-04T10:00:35.1Z</time></trkpt><trkpt lat="44.7315067" lon="8.9410417"><ele>291.0</ele><time>2026-04-04T10:00:36.107Z</time></trkpt><trkpt lat="44.7314233" lon="8.9408633"><ele>291.0</ele><time>2026-04-04T10:00:37.102Z</time></trkpt><trkpt lat="44.731345" lon="8.94069"><ele>291.0</ele><time>2026-04-04T10:00:38.104Z</time></trkpt><trkpt lat="44.7312667" lon="8.9405183"><ele>290.5</ele><time>2026-04-04T10:00:39.103Z</time></trkpt><trkpt lat="44.73119" lon="8.94035"><ele>290.0</ele><time>2026-04-04T10:00:40.102Z</time></trkpt><trkpt lat="44.73111" lon="8.94018"><ele>289.5</ele><time>2026-04-04T10:00:41.104Z</time></trkpt><trkpt lat="44.73102" lon="8.9400183"><ele>289.0</ele><time>2026-04-04T10:00:42.1Z</time></trkpt><trkpt lat="44.730935" lon="8.93986"><ele>289.0</ele><time>2026-04-04T10:00:43.102Z</time></trkpt><trkpt lat="44.73086" lon="8.9396983"><ele>289.0</ele><time>2026-04-04T10:00:44.099Z</time></trkpt><trkpt lat="44.7307883" lon="8.9395383"><ele>289.0</ele><time>2026-04-04T10:00:45.098Z</time></trkpt><trkpt lat="44.73071" lon="8.9393783"><ele>289.0</ele><time>2026-04-04T10:00:46.1Z</time></trkpt><trkpt lat="44.730625" lon="8.9392217"><ele>287.25</ele><time>2026-04-04T10:00:47.1Z</time></trkpt><trkpt lat="44.7305433" lon="8.9390667"><ele>285.5</ele><time>2026-04-04T10:00:48.104Z</time></trkpt><trkpt lat="44.730465" lon="8.938915"><ele>283.75</ele><time>2026-04-04T10:00:49.103Z</time></trkpt><trkpt lat="44.7303883" lon="8.93877"><ele>282.0</ele><time>2026-04-04T10:00:50.102Z</time></trkpt><trkpt lat="44.7303167" lon="8.93863"><ele>282.0</ele><time>2026-04-04T10:00:51.099Z</time></trkpt><trkpt lat="44.7302533" lon="8.9384983"><ele>282.0</ele><time>2026-04-04T10:00:52.099Z</time></trkpt><trkpt lat="44.7301967" lon="8.9383833"><ele>282.0</ele><time>2026-04-04T10:00:53.11Z</time></trkpt><trkpt lat="44.7301467" lon="8.9382733"><ele>282.0</ele><time>2026-04-04T10:00:54.102Z</time></trkpt><trkpt lat="44.73009" lon="8.9381633"><ele>282.0</ele><time>2026-04-04T10:00:55.099Z</time></trkpt><trkpt lat="44.73003" lon="8.938045"><ele>282.75</ele><time>2026-04-04T10:00:56.1Z</time></trkpt><trkpt lat="44.72996" lon="8.937915"><ele>283.5</ele><time>2026-04-04T10:00:57.1Z</time></trkpt><trkpt lat="44.7298783" lon="8.93778"><ele>284.25</ele><time>2026-04-04T10:00:58.098Z</time></trkpt><trkpt lat="44.7297967" lon="8.93764"><ele>285.0</ele><time>2026-04-04T10:00:59.098Z</time></trkpt><trkpt lat="44.7297167" lon="8.93749"><ele>285.0</ele><time>2026-04-04T10:01:00.108Z</time></trkpt><trkpt lat="44.7296333" lon="8.9373333"><ele>285.0</ele><time>2026-04-04T10:01:01.104Z</time></trkpt><trkpt lat="44.7295583" lon="8.93717"><ele>285.0</ele><time>2026-04-04T10:01:02.1Z</time></trkpt><trkpt lat="44.7294767" lon="8.9370033"><ele>285.0</ele><time>2026-04-04T10:01:03.104Z</time></trkpt><trkpt lat="44.7293917" lon="8.9368317"><ele>285.3333333333333</ele><time>2026-04-04T10:01:04.101Z</time></trkpt><trkpt lat="44.7293017" lon="8.936655"><ele>285.66666666666663</ele><time>2026-04-04T10:01:05.102Z</time></trkpt><trkpt lat="44.7292067" lon="8.9364683"><ele>286.0</ele><time>2026-04-04T10:01:06.1Z</time></trkpt><trkpt lat="44.72911" lon="8.93628"><ele>286.0</ele><time>2026-04-04T10:01:07.101Z</time></trkpt><trkpt lat="44.7290083" lon="8.9360883"><ele>286.0</ele><time>2026-04-04T10:01:08.104Z</time></trkpt><trkpt lat="44.7288933" lon="8.9358917"><ele>286.0</ele><time>2026-04-04T10:01:09.1Z</time></trkpt><trkpt lat="44.728765" lon="8.935675"><ele>285.66666666666663</ele><time>2026-04-04T10:01:10.105Z</time></trkpt><trkpt lat="44.7286267" lon="8.935435"><ele>285.3333333333333</ele><time>2026-04-04T10:01:11.103Z</time></trkpt><trkpt lat="44.7284933" lon="8.935185"><ele>285.0</ele><time>2026-04-04T10:01:12.102Z</time></trkpt><trkpt lat="44.7283633" lon="8.9349317"><ele>285.0</ele><time>2026-04-04T10:01:13.107Z</time></trkpt><trkpt lat="44.7282383" lon="8.93468"><ele>285.0</ele><time>2026-04-04T10:01:14.102Z</time></trkpt><trkpt lat="44.728115" lon="8.9344267"><ele>285.0</ele><time>2026-04-04T10:01:15.11Z</time></trkpt><trkpt lat="44.7279933" lon="8.9341733"><ele>284.6666666666667</ele><time>2026-04-04T10:01:16.105Z</time></trkpt><trkpt lat="44.7278717" lon="8.9339233"><ele>284.33333333333337</ele><time>2026-04-04T10:01:17.108Z</time></trkpt><trkpt lat="44.72775" lon="8.93368"><ele>284.0</ele><time>2026-04-04T10:01:18.104Z</time></trkpt><trkpt lat="44.7276383" lon="8.9334433"><ele>282.6666666666667</ele><time>2026-04-04T10:01:19.102Z</time></trkpt><trkpt lat="44.7275367" lon="8.9332117"><ele>281.3333333333333</ele><time>2026-04-04T10:01:20.112Z</time></trkpt><trkpt lat="44.727445" lon="8.9329867"><ele>280.0</ele><time>2026-04-04T10:01:21.107Z</time></trkpt><trkpt lat="44.7273667" lon="8.93276"><ele>279.66666666666663</ele><time>2026-04-04T10:01:22.102Z</time></trkpt><trkpt lat="44.7273017" lon="8.93253"><ele>279.3333333333333</ele><time>2026-04-04T10:01:23.1Z</time></trkpt><trkpt lat="44.7272467" lon="8.932305"><ele>279.0</ele><time>2026-04-04T10:01:24.104Z</time></trkpt><trkpt lat="44.7272067" lon="8.9320717"><ele>279.0</ele><time>2026-04-04T10:01:25.105Z</time></trkpt><trkpt lat="44.7271717" lon="8.9318417"><ele>279.0</ele><time>2026-04-04T10:01:26.102Z</time></trkpt><trkpt lat="44.7271417" lon="8.93161"><ele>279.0</ele><time>2026-04-04T10:01:27.102Z</time></trkpt><trkpt lat="44.7270917" lon="8.9313967"><ele>279.0</ele><time>2026-04-04T10:01:28.1Z</time></trkpt><trkpt lat="44.7270383" lon="8.93119"><ele>279.0</ele><time>2026-04-04T10:01:29.101Z</time></trkpt><trkpt lat="44.7269817" lon="8.9309833"><ele>279.0</ele><time>2026-04-04T10:01:30.101Z</time></trkpt><trkpt lat="44.726915" lon="8.930785"><ele>276.6666666666667</ele><time>2026-04-04T10:01:31.106Z</time></trkpt><trkpt lat="44.7268433" lon="8.9305867"><ele>274.33333333333337</ele><time>2026-04-04T10:01:32.105Z</time></trkpt><trkpt lat="44.7267667" lon="8.9303933"><ele>272.0</ele><time>2026-04-04T10:01:33.106Z</time></trkpt><trkpt lat="44.7266917" lon="8.9302067"><ele>272.0</ele><time>2026-04-04T10:01:34.1Z</time></trkpt><trkpt lat="44.72661" lon="8.9300267"><ele>272.0</ele><time>2026-04-04T10:01:35.107Z</time></trkpt><trkpt lat="44.72653" lon="8.9298517"><ele>272.0</ele><time>2026-04-04T10:01:36.101Z</time></trkpt><trkpt lat="44.7264417" lon="8.9296983"><ele>272.0</ele><time>2026-04-04T10:01:37.104Z</time></trkpt><trkpt lat="44.7263383" lon="8.92957"><ele>272.0</ele><time>2026-04-04T10:01:38.097Z</time></trkpt><trkpt lat="44.7262217" lon="8.9294617"><ele>272.0</ele><time>2026-04-04T10:01:39.098Z</time></trkpt><trkpt lat="44.7260933" lon="8.929385"><ele>272.0</ele><time>2026-04-04T10:01:40.099Z</time></trkpt><trkpt lat="44.725975" lon="8.9293033"><ele>272.0</ele><time>2026-04-04T10:01:41.099Z</time></trkpt><trkpt lat="44.7258583" lon="8.92924"><ele>270.0</ele><time>2026-04-04T10:01:42.101Z</time></trkpt><trkpt lat="44.7257467" lon="8.9291833"><ele>268.0</ele><time>2026-04-04T10:01:43.101Z</time></trkpt><trkpt lat="44.725635" lon="8.9291283"><ele>266.0</ele><time>2026-04-04T10:01:44.1Z</time></trkpt><trkpt lat="44.725525" lon="8.9290783"><ele>264.0</ele><time>2026-04-04T10:01:45.099Z</time></trkpt><trkpt lat="44.725415" lon="8.9290333"><ele>264.0</ele><time>2026-04-04T10:01:46.101Z</time></trkpt><trkpt lat="44.7253017" lon="8.9289983"><ele>264.0</ele><time>2026-04-04T10:01:47.103Z</time></trkpt><trkpt lat="44.7251917" lon="8.9289867"><ele>264.0</ele><time>2026-04-04T10:01:48.106Z</time></trkpt><trkpt lat="44.7250733" lon="8.9289983"><ele>264.0</ele><time>2026-04-04T10:01:49.104Z</time></trkpt><trkpt lat="44.724955" lon="8.9290367"><ele>263.8</ele><time>2026-04-04T10:01:50.102Z</time></trkpt><trkpt lat="44.72484" lon="8.9290833"><ele>263.59999999999997</ele><time>2026-04-04T10:01:51.101Z</time></trkpt><trkpt lat="44.72474" lon="8.92914"><ele>263.4</ele><time>2026-04-04T10:01:52.1Z</time></trkpt><trkpt lat="44.724645" lon="8.9292017"><ele>263.2</ele><time>2026-04-04T10:01:53.106Z</time></trkpt><trkpt lat="44.7245433" lon="8.9292533"><ele>263.0</ele><time>2026-04-04T10:01:54.101Z</time></trkpt><trkpt lat="44.7244333" lon="8.9292917"><ele>263.25</ele><time>2026-04-04T10:01:55.103Z</time></trkpt><trkpt lat="44.7243133" lon="8.9292983"><ele>263.5</ele><time>2026-04-04T10:01:56.102Z</time></trkpt><trkpt lat="44.7241867" lon="8.9292933"><ele>263.75</ele><time>2026-04-04T10:01:57.103Z</time></trkpt><trkpt lat="44.7240633" lon="8.9292817"><ele>264.0</ele><time>2026-04-04T10:01:58.102Z</time></trkpt><trkpt lat="44.723945" lon="8.9292683"><ele>264.0</ele><time>2026-04-04T10:01:59.104Z</time></trkpt><trkpt lat="44.7238333" lon="8.9292333"><ele>264.0</ele><time>2026-04-04T10:02:00.102Z</time></trkpt><trkpt lat="44.7237333" lon="8.9291767"><ele>264.0</ele><time>2026-04-04T10:02:01.101Z</time></trkpt><trkpt lat="44.723645" lon="8.9290967"><ele>264.0</ele><time>2026-04-04T10:02:02.1Z</time></trkpt><trkpt lat="44.723575" lon="8.928995"><ele>264.0</ele><time>2026-04-04T10:02:03.098Z</time></trkpt><trkpt lat="44.723525" lon="8.9288567"><ele>262.25</ele><time>2026-04-04T10:02:04.1Z</time></trkpt><trkpt lat="44.7234833" lon="8.9286967"><ele>260.5</ele><time>2026-04-04T10:02:05.098Z</time></trkpt><trkpt lat="44.7234567" lon="8.92851"><ele>258.75</ele><time>2026-04-04T10:02:06.1Z</time></trkpt><trkpt lat="44.7234233" lon="8.9283233"><ele>257.0</ele><time>2026-04-04T10:02:07.099Z</time></trkpt><trkpt lat="44.723395" lon="8.9281283"><ele>255.75</ele><time>2026-04-04T10:02:08.101Z</time></trkpt><trkpt lat="44.7233617" lon="8.9279317"><ele>254.5</ele><time>2026-04-04T10:02:09.101Z</time></trkpt><trkpt lat="44.723335" lon="8.9277333"><ele>253.25</ele><time>2026-04-04T10:02:10.103Z</time></trkpt><trkpt lat="44.7233033" lon="8.92754"><ele>252.0</ele><time>2026-04-04T10:02:11.101Z</time></trkpt><trkpt lat="44.7232733" lon="8.9273467"><ele>251.5</ele><time>2026-04-04T10:02:12.101Z</time></trkpt><trkpt lat="44.7232433" lon="8.92716"><ele>251.0</ele><time>2026-04-04T10:02:13.104Z</time></trkpt><trkpt lat="44.723215" lon="8.9269717"><ele>250.5</ele><time>2026-04-04T10:02:14.099Z</time></trkpt><trkpt lat="44.7231817" lon="8.92678"><ele>250.0</ele><time>2026-04-04T10:02:15.102Z</time></trkpt><trkpt lat="44.7231517" lon="8.9265733"><ele>249.75</ele><time>2026-04-04T10:02:16.102Z</time></trkpt><trkpt lat="44.7231217" lon="8.926365"><ele>249.5</ele><time>2026-04-04T10:02:17.104Z</time></trkpt><trkpt lat="44.7230567" lon="8.9261867"><ele>249.25</ele><time>2026-04-04T10:02:18.103Z</time></trkpt><trkpt lat="44.722975" lon="8.926025"><ele>249.0</ele><time>2026-04-04T10:02:19.106Z</time></trkpt><trkpt lat="44.7228867" lon="8.9258783"><ele>249.0</ele><time>2026-04-04T10:02:20.111Z</time></trkpt><trkpt lat="44.7228033" lon="8.9257383"><ele>249.0</ele><time>2026-04-04T10:02:21.104Z</time></trkpt><trkpt lat="44.7227183" lon="8.9255967"><ele>249.0</ele><time>2026-04-04T10:02:22.105Z</time></trkpt><trkpt lat="44.7226333" lon="8.9254483"><ele>249.0</ele><time>2026-04-04T10:02:23.106Z</time></trkpt><trkpt lat="44.722545" lon="8.925305"><ele>249.25</ele><time>2026-04-04T10:02:24.101Z</time></trkpt><trkpt lat="44.7224633" lon="8.9251633"><ele>249.5</ele><time>2026-04-04T10:02:25.103Z</time></trkpt><trkpt lat="44.7223867" lon="8.92503"><ele>249.75</ele><time>2026-04-04T10:02:26.1Z</time></trkpt><trkpt lat="44.722315" lon="8.9249117"><ele>250.0</ele><time>2026-04-04T10:02:27.104Z</time></trkpt><trkpt lat="44.722255" lon="8.9247983"><ele>250.2</ele><time>2026-04-04T10:02:28.101Z</time></trkpt><trkpt lat="44.7222183" lon="8.924675"><ele>250.4</ele><time>2026-04-04T10:02:29.101Z</time></trkpt><trkpt lat="44.7222033" lon="8.9245417"><ele>250.60000000000002</ele><time>2026-04-04T10:02:30.103Z</time></trkpt><trkpt lat="44.7221983" lon="8.924405"><ele>250.8</ele><time>2026-04-04T10:02:31.104Z</time></trkpt><trkpt lat="44.722185" lon="8.9242633"><ele>251.0</ele><time>2026-04-04T10:02:32.103Z</time></trkpt><trkpt lat="44.7221533" lon="8.92412"><ele>251.0</ele><time>2026-04-04T10:02:33.102Z</time></trkpt><trkpt lat="44.7221217" lon="8.92397"><ele>251.0</ele><time>2026-04-04T10:02:34.103Z</time></trkpt><trkpt lat="44.7220733" lon="8.92382"><ele>251.0</ele><time>2026-04-04T10:02:35.104Z</time></trkpt><trkpt lat="44.7220183" lon="8.923665"><ele>251.0</ele><time>2026-04-04T10:02:36.104Z</time></trkpt><trkpt lat="44.72196" lon="8.923505"><ele>255.0</ele><time>2026-04-04T10:02:37.106Z</time></trkpt><trkpt lat="44.7218967" lon="8.9233383"><ele>259.0</ele><time>2026-04-04T10:02:38.104Z</time></trkpt><trkpt lat="44.721835" lon="8.923165"><ele>263.0</ele><time>2026-04-04T10:02:39.1Z</time></trkpt><trkpt lat="44.72177" lon="8.92299"><ele>267.0</ele><time>2026-04-04T10:02:40.106Z</time></trkpt><trkpt lat="44.7216967" lon="8.9228117"><ele>267.0</ele><time>2026-04-04T10:02:41.103Z</time></trkpt><trkpt lat="44.7216133" lon="8.92264"><ele>267.0</ele><time>2026-04-04T10:02:42.102Z</time></trkpt><trkpt lat="44.72152" lon="8.9224767"><ele>267.0</ele><time>2026-04-04T10:02:43.105Z</time></trkpt><trkpt lat="44.7214167" lon="8.92232"><ele>267.0</ele><time>2026-04-04T10:02:44.104Z</time></trkpt><trkpt lat="44.721305" lon="8.922175"><ele>265.5</ele><time>2026-04-04T10:02:45.1Z</time></trkpt><trkpt lat="44.7211917" lon="8.92205"><ele>264.0</ele><time>2026-04-04T10:02:46.105Z</time></trkpt><trkpt lat="44.721085" lon="8.921945"><ele>262.5</ele><time>2026-04-04T10:02:47.11Z</time></trkpt><trkpt lat="44.720985" lon="8.9218567"><ele>261.0</ele><time>2026-04-04T10:02:48.103Z</time></trkpt><trkpt lat="44.7208983" lon="8.9217767"><ele>262.1666666666667</ele><time>2026-04-04T10:02:49.1Z</time></trkpt><trkpt lat="44.720825" lon="8.921715"><ele>263.3333333333333</ele><time>2026-04-04T10:02:50.1Z</time></trkpt><trkpt lat="44.7207617" lon="8.9216667"><ele>264.5</ele><time>2026-04-04T10:02:51.1Z</time></trkpt><trkpt lat="44.7207017" lon="8.9216233"><ele>265.66666666666663</ele><time>2026-04-04T10:02:52.1Z</time></trkpt><trkpt lat="44.7206417" lon="8.9215733"><ele>266.8333333333333</ele><time>2026-04-04T10:02:53.102Z</time></trkpt><trkpt lat="44.7205733" lon="8.921515"><ele>268.0</ele><time>2026-04-04T10:02:54.112Z</time></trkpt><trkpt lat="44.7204983" lon="8.9214483"><ele>268.0</ele><time>2026-04-04T10:02:55.104Z</time></trkpt><trkpt lat="44.7204217" lon="8.9213717"><ele>268.0</ele><time>2026-04-04T10:02:56.104Z</time></trkpt><trkpt lat="44.7203467" lon="8.9212783"><ele>268.0</ele><time>2026-04-04T10:02:57.102Z</time></trkpt><trkpt lat="44.7202733" lon="8.9211667"><ele>268.0</ele><time>2026-04-04T10:02:58.104Z</time></trkpt><trkpt lat="44.72021" lon="8.9210267"><ele>268.0</ele><time>2026-04-04T10:02:59.102Z</time></trkpt><trkpt lat="44.7201417" lon="8.92088"><ele>269.5</ele><time>2026-04-04T10:03:00.106Z</time></trkpt><trkpt lat="44.7200983" lon="8.9207217"><ele>271.0</ele><time>2026-04-04T10:03:01.103Z</time></trkpt><trkpt lat="44.7200567" lon="8.9205617"><ele>272.5</ele><time>2026-04-04T10:03:02.106Z</time></trkpt><trkpt lat="44.7200133" lon="8.9203983"><ele>274.0</ele><time>2026-04-04T10:03:03.099Z</time></trkpt><trkpt lat="44.7199633" lon="8.9202267"><ele>274.0</ele><time>2026-04-04T10:03:04.108Z</time></trkpt><trkpt lat="44.71992" lon="8.92004"><ele>274.0</ele><time>2026-04-04T10:03:05.1Z</time></trkpt><trkpt lat="44.71987" lon="8.9198567"><ele>274.0</ele><time>2026-04-04T10:03:06.1Z</time></trkpt><trkpt lat="44.719815" lon="8.9196817"><ele>274.0</ele><time>2026-04-04T10:03:07.102Z</time></trkpt><trkpt lat="44.71978" lon="8.9194867"><ele>274.0</ele><time>2026-04-04T10:03:08.103Z</time></trkpt><trkpt lat="44.71972" lon="8.9193033"><ele>274.0</ele><time>2026-04-04T10:03:09.097Z</time></trkpt><trkpt lat="44.7196583" lon="8.9191217"><ele>274.0</ele><time>2026-04-04T10:03:10.097Z</time></trkpt><trkpt lat="44.7195933" lon="8.9189367"><ele>274.0</ele><time>2026-04-04T10:03:11.099Z</time></trkpt><trkpt lat="44.71952" lon="8.9187533"><ele>274.3333333333333</ele><time>2026-04-04T10:03:12.101Z</time></trkpt><trkpt lat="44.7194317" lon="8.91858"><ele>274.6666666666667</ele><time>2026-04-04T10:03:13.1Z</time></trkpt><trkpt lat="44.71935" lon="8.9184033"><ele>275.0</ele><time>2026-04-04T10:03:14.103Z</time></trkpt><trkpt lat="44.71926" lon="8.918235"><ele>274.33333333333337</ele><time>2026-04-04T10:03:15.098Z</time></trkpt><trkpt lat="44.7191733" lon="8.9180633"><ele>273.6666666666667</ele><time>2026-04-04T10:03:16.102Z</time></trkpt><trkpt lat="44.7190817" lon="8.91789"><ele>273.0</ele><time>2026-04-04T10:03:17.102Z</time></trkpt><trkpt lat="44.7189817" lon="8.9177233"><ele>272.0</ele><time>2026-04-04T10:03:18.101Z</time></trkpt><trkpt lat="44.7188833" lon="8.9175617"><ele>271.0</ele><time>2026-04-04T10:03:19.101Z</time></trkpt><trkpt lat="44.7187833" lon="8.9174"><ele>270.0</ele><time>2026-04-04T10:03:20.104Z</time></trkpt><trkpt lat="44.7186833" lon="8.91724"><ele>270.0</ele><time>2026-04-04T10:03:21.103Z</time></trkpt><trkpt lat="44.7185833" lon="8.9170767"><ele>270.0</ele><time>2026-04-04T10:03:22.101Z</time></trkpt><trkpt lat="44.7184833" lon="8.9169133"><ele>270.0</ele><time>2026-04-04T10:03:23.111Z</time></trkpt><trkpt lat="44.7183867" lon="8.9167533"><ele>269.0</ele><time>2026-04-04T10:03:24.102Z</time></trkpt><trkpt lat="44.7182867" lon="8.9165917"><ele>268.0</ele><time>2026-04-04T10:03:25.103Z</time></trkpt><trkpt lat="44.71819" lon="8.9164283"><ele>267.0</ele><time>2026-04-04T10:03:26.106Z</time></trkpt><trkpt lat="44.71809" lon="8.9162617"><ele>267.0</ele><time>2026-04-04T10:03:27.1Z</time></trkpt><trkpt lat="44.7179933" lon="8.9160933"><ele>267.0</ele><time>2026-04-04T10:03:28.105Z</time></trkpt><trkpt lat="44.7179017" lon="8.915925"><ele>267.0</ele><time>2026-04-04T10:03:29.104Z</time></trkpt><trkpt lat="44.71781" lon="8.9157517"><ele>267.3333333333333</ele><time>2026-04-04T10:03:30.106Z</time></trkpt><trkpt lat="44.71772" lon="8.9155783"><ele>267.66666666666663</ele><time>2026-04-04T10:03:31.101Z</time></trkpt><trkpt lat="44.7176283" lon="8.9154033"><ele>268.0</ele><time>2026-04-04T10:03:32.105Z</time></trkpt><trkpt lat="44.7175367" lon="8.91523"><ele>267.3333333333333</ele><time>2026-04-04T10:03:33.1Z</time></trkpt><trkpt lat="44.71744" lon="8.9150617"><ele>266.6666666666667</ele><time>2026-04-04T10:03:34.1Z</time></trkpt><trkpt lat="44.7173367" lon="8.9149017"><ele>266.0</ele><time>2026-04-04T10:03:35.105Z</time></trkpt><trkpt lat="44.71723" lon="8.9147517"><ele>266.0</ele><time>2026-04-04T10:03:36.101Z</time></trkpt><trkpt lat="44.7171233" lon="8.9146067"><ele>266.0</ele><time>2026-04-04T10:03:37.107Z</time></trkpt><trkpt lat="44.7170167" lon="8.9144667"><ele>266.0</ele><time>2026-04-04T10:03:38.104Z</time></trkpt><trkpt lat="44.7169067" lon="8.9143217"><ele>266.0</ele><time>2026-04-04T10:03:39.102Z</time></trkpt><trkpt lat="44.71679" lon="8.9141733"><ele>266.33333333333337</ele><time>2026-04-04T10:03:40.108Z</time></trkpt><trkpt lat="44.7166633" lon="8.9140317"><ele>266.6666666666667</ele><time>2026-04-04T10:03:41.103Z</time></trkpt><trkpt lat="44.7165417" lon="8.9138917"><ele>267.0</ele><time>2026-04-04T10:03:42.102Z</time></trkpt><trkpt lat="44.7164133" lon="8.9137567"><ele>267.0</ele><time>2026-04-04T10:03:43.105Z</time></trkpt><trkpt lat="44.716285" lon="8.91363"><ele>267.0</ele><time>2026-04-04T10:03:44.102Z</time></trkpt><trkpt lat="44.7161533" lon="8.9135133"><ele>267.0</ele><time>2026-04-04T10:03:45.106Z</time></trkpt><trkpt lat="44.71602" lon="8.9134"><ele>266.3333333333333</ele><time>2026-04-04T10:03:46.107Z</time></trkpt><trkpt lat="44.7158883" lon="8.9132883"><ele>265.66666666666663</ele><time>2026-04-04T10:03:47.105Z</time></trkpt><trkpt lat="44.7157567" lon="8.9131817"><ele>265.0</ele><time>2026-04-04T10:03:48.102Z</time></trkpt><trkpt lat="44.7156217" lon="8.9130783"><ele>265.0</ele><time>2026-04-04T10:03:49.104Z</time></trkpt><trkpt lat="44.7154917" lon="8.9129667"><ele>265.0</ele><time>2026-04-04T10:03:50.101Z</time></trkpt><trkpt lat="44.715365" lon="8.9128483"><ele>265.0</ele><time>2026-04-04T10:03:51.098Z</time></trkpt><trkpt lat="44.7152467" lon="8.9127183"><ele>264.75</ele><time>2026-04-04T10:03:52.101Z</time></trkpt><trkpt lat="44.7151433" lon="8.912575"><ele>264.5</ele><time>2026-04-04T10:03:53.101Z</time></trkpt><trkpt lat="44.7150483" lon="8.9124317"><ele>264.25</ele><time>2026-04-04T10:03:54.108Z</time></trkpt><trkpt lat="44.714955" lon="8.9122733"><ele>264.0</ele><time>2026-04-04T10:03:55.106Z</time></trkpt><trkpt lat="44.7148633" lon="8.9121067"><ele>263.3333333333333</ele><time>2026-04-04T10:03:56.106Z</time></trkpt><trkpt lat="44.7147767" lon="8.91193"><ele>262.66666666666663</ele><time>2026-04-04T10:03:57.1Z</time></trkpt><trkpt lat="44.7146867" lon="8.91175"><ele>262.0</ele><time>2026-04-04T10:03:58.098Z</time></trkpt><trkpt lat="44.71459" lon="8.9115717"><ele>262.0</ele><time>2026-04-04T10:03:59.103Z</time></trkpt><trkpt lat="44.7144933" lon="8.9113967"><ele>262.0</ele><time>2026-04-04T10:04:00.099Z</time></trkpt><trkpt lat="44.7144067" lon="8.9112217"><ele>262.0</ele><time>2026-04-04T10:04:01.107Z</time></trkpt><trkpt lat="44.714325" lon="8.91104"><ele>262.0</ele><time>2026-04-04T10:04:02.104Z</time></trkpt><trkpt lat="44.71423" lon="8.9108667"><ele>262.0</ele><time>2026-04-04T10:04:03.1Z</time></trkpt><trkpt lat="44.714135" lon="8.9106967"><ele>262.0</ele><time>2026-04-04T10:04:04.102Z</time></trkpt><trkpt lat="44.71405" lon="8.9105267"><ele>262.0</ele><time>2026-04-04T10:04:05.106Z</time></trkpt><trkpt lat="44.71398" lon="8.9103467"><ele>262.0</ele><time>2026-04-04T10:04:06.098Z</time></trkpt><trkpt lat="44.713915" lon="8.9101617"><ele>262.0</ele><time>2026-04-04T10:04:07.103Z</time></trkpt><trkpt lat="44.713875" lon="8.9099517"><ele>262.0</ele><time>2026-04-04T10:04:08.101Z</time></trkpt><trkpt lat="44.7138333" lon="8.9097417"><ele>261.3333333333333</ele><time>2026-04-04T10:04:09.101Z</time></trkpt><trkpt lat="44.7137917" lon="8.9095233"><ele>260.6666666666667</ele><time>2026-04-04T10:04:10.103Z</time></trkpt><trkpt lat="44.7137533" lon="8.9092967"><ele>260.0</ele><time>2026-04-04T10:04:11.101Z</time></trkpt><trkpt lat="44.71372" lon="8.909065"><ele>258.6666666666667</ele><time>2026-04-04T10:04:12.099Z</time></trkpt><trkpt lat="44.71368" lon="8.908845"><ele>257.3333333333333</ele><time>2026-04-04T10:04:13.102Z</time></trkpt><trkpt lat="44.7136383" lon="8.908625"><ele>256.0</ele><time>2026-04-04T10:04:14.104Z</time></trkpt><trkpt lat="44.7136033" lon="8.9084133"><ele>256.3333333333333</ele><time>2026-04-04T10:04:15.1Z</time></trkpt><trkpt lat="44.71357" lon="8.9082083"><ele>256.6666666666667</ele><time>2026-04-04T10:04:16.108Z</time></trkpt><trkpt lat="44.713535" lon="8.9080033"><ele>257.0</ele><time>2026-04-04T10:04:17.102Z</time></trkpt><trkpt lat="44.7134967" lon="8.9077933"><ele>257.0</ele><time>2026-04-04T10:04:18.1Z</time></trkpt><trkpt lat="44.7134483" lon="8.9075883"><ele>257.0</ele><time>2026-04-04T10:04:19.108Z</time></trkpt><trkpt lat="44.7133917" lon="8.9073867"><ele>257.0</ele><time>2026-04-04T10:04:20.1Z</time></trkpt><trkpt lat="44.7133267" lon="8.9071933"><ele>256.6666666666667</ele><time>2026-04-04T10:04:21.1Z</time></trkpt><trkpt lat="44.713255" lon="8.90701"><ele>256.3333333333333</ele><time>2026-04-04T10:04:22.103Z</time></trkpt><trkpt lat="44.713175" lon="8.90683"><ele>256.0</ele><time>2026-04-04T10:04:23.101Z</time></trkpt><trkpt lat="44.7130917" lon="8.9066517"><ele>255.66666666666666</ele><time>2026-04-04T10:04:24.101Z</time></trkpt><trkpt lat="44.7130017" lon="8.9064783"><ele>255.33333333333331</ele><time>2026-04-04T10:04:25.101Z</time></trkpt><trkpt lat="44.7129067" lon="8.90631"><ele>255.0</ele><time>2026-04-04T10:04:26.101Z</time></trkpt><trkpt lat="44.7128117" lon="8.90613"><ele>255.0</ele><time>2026-04-04T10:04:27.099Z</time></trkpt><trkpt lat="44.71272" lon="8.9059467"><ele>255.0</ele><time>2026-04-04T10:04:28.102Z</time></trkpt><trkpt lat="44.7126283" lon="8.90576"><ele>255.0</ele><time>2026-04-04T10:04:29.105Z</time></trkpt><trkpt lat="44.7125383" lon="8.9055683"><ele>255.0</ele><time>2026-04-04T10:04:30.098Z</time></trkpt><trkpt lat="44.712445" lon="8.905385"><ele>255.0</ele><time>2026-04-04T10:04:31.1Z</time></trkpt><trkpt lat="44.7123583" lon="8.9052033"><ele>255.0</ele><time>2026-04-04T10:04:32.099Z</time></trkpt><trkpt lat="44.7122733" lon="8.9050233"><ele>254.66666666666669</ele><time>2026-04-04T10:04:33.1Z</time></trkpt><trkpt lat="44.7121883" lon="8.9048417"><ele>254.33333333333334</ele><time>2026-04-04T10:04:34.101Z</time></trkpt><trkpt lat="44.7121017" lon="8.9046567"><ele>254.0</ele><time>2026-04-04T10:04:35.107Z</time></trkpt><trkpt lat="44.7120117" lon="8.90447"><ele>254.0</ele><time>2026-04-04T10:04:36.105Z</time></trkpt><trkpt lat="44.7119167" lon="8.90428"><ele>254.0</ele><time>2026-04-04T10:04:37.102Z</time></trkpt><trkpt lat="44.7118183" lon="8.9040883"><ele>254.0</ele><time>2026-04-04T10:04:38.104Z</time></trkpt><trkpt lat="44.7117367" lon="8.9038817"><ele>254.0</ele><time>2026-04-04T10:04:39.1Z</time></trkpt><trkpt lat="44.71164" lon="8.9036917"><ele>254.0</ele><time>2026-04-04T10:04:40.099Z</time></trkpt><trkpt lat="44.7115517" lon="8.9035067"><ele>254.0</ele><time>2026-04-04T10:04:41.103Z</time></trkpt><trkpt lat="44.7114717" lon="8.9033283"><ele>254.0</ele><time>2026-04-04T10:04:42.101Z</time></trkpt><trkpt lat="44.7113867" lon="8.90315"><ele>254.0</ele><time>2026-04-04T10:04:43.109Z</time></trkpt><trkpt lat="44.711305" lon="8.9029683"><ele>254.0</ele><time>2026-04-04T10:04:44.105Z</time></trkpt><trkpt lat="44.71122" lon="8.902785"><ele>254.0</ele><time>2026-04-04T10:04:45.101Z</time></trkpt><trkpt lat="44.7111383" lon="8.9025967"><ele>254.0</ele><time>2026-04-04T10:04:46.109Z</time></trkpt><trkpt lat="44.7110483" lon="8.9023983"><ele>254.0</ele><time>2026-04-04T10:04:47.1Z</time></trkpt><trkpt lat="44.7109567" lon="8.9022017"><ele>253.66666666666669</ele><time>2026-04-04T10:04:48.104Z</time></trkpt><trkpt lat="44.7108617" lon="8.902"><ele>253.33333333333331</ele><time>2026-04-04T10:04:49.101Z</time></trkpt><trkpt lat="44.71076" lon="8.9018033"><ele>253.0</ele><time>2026-04-04T10:04:50.105Z</time></trkpt><trkpt lat="44.710665" lon="8.901605"><ele>252.33333333333331</ele><time>2026-04-04T10:04:51.097Z</time></trkpt><trkpt lat="44.7105683" lon="8.901415"><ele>251.66666666666669</ele><time>2026-04-04T10:04:52.1Z</time></trkpt><trkpt lat="44.7104883" lon="8.90122"><ele>251.0</ele><time>2026-04-04T10:04:53.101Z</time></trkpt><trkpt lat="44.7104033" lon="8.9010383"><ele>250.66666666666669</ele><time>2026-04-04T10:04:54.107Z</time></trkpt><trkpt lat="44.7103167" lon="8.90086"><ele>250.33333333333331</ele><time>2026-04-04T10:04:55.106Z</time></trkpt><trkpt lat="44.7102367" lon="8.9006767"><ele>250.0</ele><time>2026-04-04T10:04:56.101Z</time></trkpt><trkpt lat="44.71015" lon="8.9005"><ele>250.0</ele><time>2026-04-04T10:04:57.104Z</time></trkpt><trkpt lat="44.710065" lon="8.9003217"><ele>250.0</ele><time>2026-04-04T10:04:58.102Z</time></trkpt><trkpt lat="44.7099767" lon="8.90014"><ele>250.0</ele><time>2026-04-04T10:04:59.101Z</time></trkpt><trkpt lat="44.7098883" lon="8.8999517"><ele>250.33333333333331</ele><time>2026-04-04T10:05:00.102Z</time></trkpt><trkpt lat="44.7097967" lon="8.8997617"><ele>250.66666666666669</ele><time>2026-04-04T10:05:01.103Z</time></trkpt><trkpt lat="44.709705" lon="8.8995733"><ele>251.0</ele><time>2026-04-04T10:05:02.103Z</time></trkpt><trkpt lat="44.7096117" lon="8.8993867"><ele>250.66666666666669</ele><time>2026-04-04T10:05:03.101Z</time></trkpt><trkpt lat="44.7095183" lon="8.8992017"><ele>250.33333333333331</ele><time>2026-04-04T10:05:04.099Z</time></trkpt><trkpt lat="44.7094283" lon="8.8990133"><ele>250.0</ele><time>2026-04-04T10:05:05.106Z</time></trkpt><trkpt lat="44.7093433" lon="8.8988317"><ele>249.33333333333331</ele><time>2026-04-04T10:05:06.106Z</time></trkpt><trkpt lat="44.7092567" lon="8.89865"><ele>248.66666666666669</ele><time>2026-04-04T10:05:07.098Z</time></trkpt><trkpt lat="44.7091733" lon="8.8984633"><ele>248.0</ele><time>2026-04-04T10:05:08.101Z</time></trkpt><trkpt lat="44.70909" lon="8.8982733"><ele>248.0</ele><time>2026-04-04T10:05:09.099Z</time></trkpt><trkpt lat="44.7090067" lon="8.89808"><ele>248.0</ele><time>2026-04-04T10:05:10.105Z</time></trkpt><trkpt lat="44.70892" lon="8.89789"><ele>248.0</ele><time>2026-04-04T10:05:11.099Z</time></trkpt><trkpt lat="44.708835" lon="8.8977"><ele>248.33333333333334</ele><time>2026-04-04T10:05:12.097Z</time></trkpt><trkpt lat="44.7087517" lon="8.89751"><ele>248.66666666666669</ele><time>2026-04-04T10:05:13.102Z</time></trkpt><trkpt lat="44.7086667" lon="8.8973217"><ele>249.0</ele><time>2026-04-04T10:05:14.102Z</time></trkpt><trkpt lat="44.7085767" lon="8.8971383"><ele>248.33333333333331</ele><time>2026-04-04T10:05:15.102Z</time></trkpt><trkpt lat="44.7084833" lon="8.8969483"><ele>247.66666666666666</ele><time>2026-04-04T10:05:16.101Z</time></trkpt><trkpt lat="44.7083967" lon="8.8967633"><ele>247.0</ele><time>2026-04-04T10:05:17.105Z</time></trkpt><trkpt lat="44.708305" lon="8.89658"><ele>246.66666666666666</ele><time>2026-04-04T10:05:18.104Z</time></trkpt><trkpt lat="44.7082167" lon="8.8963983"><ele>246.33333333333331</ele><time>2026-04-04T10:05:19.1Z</time></trkpt><trkpt lat="44.7081317" lon="8.8962133"><ele>246.0</ele><time>2026-04-04T10:05:20.103Z</time></trkpt><trkpt lat="44.7080467" lon="8.8960217"><ele>246.0</ele><time>2026-04-04T10:05:21.104Z</time></trkpt><trkpt lat="44.7079533" lon="8.8958367"><ele>246.0</ele><time>2026-04-04T10:05:22.099Z</time></trkpt><trkpt lat="44.7078617" lon="8.8956517"><ele>246.0</ele><time>2026-04-04T10:05:23.104Z</time></trkpt><trkpt lat="44.707785" lon="8.8954633"><ele>245.75</ele><time>2026-04-04T10:05:24.099Z</time></trkpt><trkpt lat="44.7077083" lon="8.8952917"><ele>245.5</ele><time>2026-04-04T10:05:25.102Z</time></trkpt><trkpt lat="44.7076383" lon="8.8951317"><ele>245.25</ele><time>2026-04-04T10:05:26.103Z</time></trkpt><trkpt lat="44.7075683" lon="8.8949783"><ele>245.0</ele><time>2026-04-04T10:05:27.104Z</time></trkpt><trkpt lat="44.7075033" lon="8.8948333"><ele>245.0</ele><time>2026-04-04T10:05:28.097Z</time></trkpt><trkpt lat="44.7074433" lon="8.8946967"><ele>245.0</ele><time>2026-04-04T10:05:29.102Z</time></trkpt><trkpt lat="44.7073867" lon="8.89456"><ele>245.0</ele><time>2026-04-04T10:05:30.107Z</time></trkpt><trkpt lat="44.7073283" lon="8.8944317"><ele>245.0</ele><time>2026-04-04T10:05:31.099Z</time></trkpt><trkpt lat="44.7072683" lon="8.8943033"><ele>245.0</ele><time>2026-04-04T10:05:32.103Z</time></trkpt><trkpt lat="44.707205" lon="8.8941733"><ele>245.25</ele><time>2026-04-04T10:05:33.1Z</time></trkpt><trkpt lat="44.7071383" lon="8.8940383"><ele>245.5</ele><time>2026-04-04T10:05:34.098Z</time></trkpt><trkpt lat="44.7070733" lon="8.8938967"><ele>245.75</ele><time>2026-04-04T10:05:35.109Z</time></trkpt><trkpt lat="44.707" lon="8.89375"><ele>246.0</ele><time>2026-04-04T10:05:36.107Z</time></trkpt><trkpt lat="44.70692" lon="8.8936067"><ele>245.8</ele><time>2026-04-04T10:05:37.105Z</time></trkpt><trkpt lat="44.7068483" lon="8.8934583"><ele>245.60000000000002</ele><time>2026-04-04T10:05:38.102Z</time></trkpt><trkpt lat="44.706785" lon="8.8933217"><ele>245.4</ele><time>2026-04-04T10:05:39.101Z</time></trkpt><trkpt lat="44.70673" lon="8.8932033"><ele>245.2</ele><time>2026-04-04T10:05:40.108Z</time></trkpt><trkpt lat="44.70668" lon="8.8930967"><ele>245.0</ele><time>2026-04-04T10:05:41.103Z</time></trkpt><trkpt lat="44.70664" lon="8.893005"><ele>245.00000000000003</ele><time>2026-04-04T10:05:42.099Z</time></trkpt><trkpt lat="44.7066067" lon="8.8929267"><ele>245.0</ele><time>2026-04-04T10:05:43.099Z</time></trkpt><trkpt lat="44.70656" lon="8.89281"><ele>245.0</ele><time>2026-04-04T10:05:45.1Z</time></trkpt><trkpt lat="44.7065183" lon="8.89274"><ele>245.0</ele><time>2026-04-04T10:05:47.103Z</time></trkpt><trkpt lat="44.706465" lon="8.89265"><ele>245.00000000000003</ele><time>2026-04-04T10:05:50.099Z</time></trkpt><trkpt lat="44.7064117" lon="8.89256"><ele>245.0</ele><time>2026-04-04T10:05:53.098Z</time></trkpt><trkpt lat="44.7063467" lon="8.8924483"><ele>245.00000000000003</ele><time>2026-04-04T10:05:55.101Z</time></trkpt><trkpt lat="44.7063117" lon="8.8923633"><ele>245.0</ele><time>2026-04-04T10:05:56.103Z</time></trkpt><trkpt lat="44.706265" lon="8.8922783"><ele>245.0</ele><time>2026-04-04T10:05:57.103Z</time></trkpt><trkpt lat="44.7062183" lon="8.8921867"><ele>245.0</ele><time>2026-04-04T10:05:58.103Z</time></trkpt><trkpt lat="44.706165" lon="8.8920933"><ele>245.00000000000003</ele><time>2026-04-04T10:05:59.1Z</time></trkpt><trkpt lat="44.7061117" lon="8.8919917"><ele>245.0</ele><time>2026-04-04T10:06:00.101Z</time></trkpt><trkpt lat="44.7060583" lon="8.8918783"><ele>245.0</ele><time>2026-04-04T10:06:01.104Z</time></trkpt><trkpt lat="44.7060033" lon="8.89176"><ele>245.0</ele><time>2026-04-04T10:06:02.103Z</time></trkpt><trkpt lat="44.70595" lon="8.8916517"><ele>245.0</ele><time>2026-04-04T10:06:03.103Z</time></trkpt><trkpt lat="44.7059033" lon="8.8915417"><ele>245.0</ele><time>2026-04-04T10:06:04.107Z</time></trkpt><trkpt lat="44.7058517" lon="8.8914367"><ele>245.0</ele><time>2026-04-04T10:06:05.107Z</time></trkpt><trkpt lat="44.7058017" lon="8.891335"><ele>245.00000000000003</ele><time>2026-04-04T10:06:06.099Z</time></trkpt><trkpt lat="44.705755" lon="8.8912433"><ele>245.0</ele><time>2026-04-04T10:06:07.102Z</time></trkpt><trkpt lat="44.70571" lon="8.8911517"><ele>245.0</ele><time>2026-04-04T10:06:08.097Z</time></trkpt><trkpt lat="44.7056733" lon="8.8910517"><ele>245.0</ele><time>2026-04-04T10:06:09.101Z</time></trkpt><trkpt lat="44.7056217" lon="8.8909467"><ele>245.00000000000003</ele><time>2026-04-04T10:06:10.102Z</time></trkpt><trkpt lat="44.7055633" lon="8.8908333"><ele>245.0</ele><time>2026-04-04T10:06:11.1Z</time></trkpt><trkpt lat="44.705515" lon="8.8907017"><ele>245.0</ele><time>2026-04-04T10:06:12.099Z</time></trkpt><trkpt lat="44.7054567" lon="8.8905767"><ele>245.0</ele><time>2026-04-04T10:06:13.108Z</time></trkpt><trkpt lat="44.7053967" lon="8.8904517"><ele>245.0</ele><time>2026-04-04T10:06:14.1Z</time></trkpt><trkpt lat="44.7053367" lon="8.8903283"><ele>245.0</ele><time>2026-04-04T10:06:15.1Z</time></trkpt><trkpt lat="44.7052733" lon="8.8902017"><ele>245.0</ele><time>2026-04-04T10:06:16.1Z</time></trkpt><trkpt lat="44.705215" lon="8.8900717"><ele>244.4</ele><time>2026-04-04T10:06:17.099Z</time></trkpt><trkpt lat="44.7051517" lon="8.8899467"><ele>243.8</ele><time>2026-04-04T10:06:18.103Z</time></trkpt><trkpt lat="44.7050883" lon="8.8898183"><ele>243.2</ele><time>2026-04-04T10:06:19.109Z</time></trkpt><trkpt lat="44.705025" lon="8.8896867"><ele>242.6</ele><time>2026-04-04T10:06:20.104Z</time></trkpt><trkpt lat="44.7049633" lon="8.8895517"><ele>242.0</ele><time>2026-04-04T10:06:21.104Z</time></trkpt><trkpt lat="44.7049083" lon="8.88941"><ele>242.0</ele><time>2026-04-04T10:06:22.104Z</time></trkpt><trkpt lat="44.7048467" lon="8.8892617"><ele>242.0</ele><time>2026-04-04T10:06:23.102Z</time></trkpt><trkpt lat="44.7047817" lon="8.889115"><ele>242.0</ele><time>2026-04-04T10:06:24.103Z</time></trkpt><trkpt lat="44.704715" lon="8.88899"><ele>242.0</ele><time>2026-04-04T10:06:25.101Z</time></trkpt><trkpt lat="44.7046517" lon="8.88888"><ele>242.0</ele><time>2026-04-04T10:06:26.102Z</time></trkpt><trkpt lat="44.7045817" lon="8.8887717"><ele>242.0</ele><time>2026-04-04T10:06:27.102Z</time></trkpt><trkpt lat="44.7045083" lon="8.8886617"><ele>242.0</ele><time>2026-04-04T10:06:28.101Z</time></trkpt><trkpt lat="44.7044267" lon="8.88855"><ele>242.0</ele><time>2026-04-04T10:06:29.101Z</time></trkpt><trkpt lat="44.704355" lon="8.8884433"><ele>242.0</ele><time>2026-04-04T10:06:30.099Z</time></trkpt><trkpt lat="44.704285" lon="8.8883483"><ele>241.50000000000003</ele><time>2026-04-04T10:06:31.102Z</time></trkpt><trkpt lat="44.7042117" lon="8.88826"><ele>241.0</ele><time>2026-04-04T10:06:32.108Z</time></trkpt><trkpt lat="44.70414" lon="8.8881767"><ele>240.5</ele><time>2026-04-04T10:06:33.109Z</time></trkpt><trkpt lat="44.70407" lon="8.8880983"><ele>240.0</ele><time>2026-04-04T10:06:34.105Z</time></trkpt><trkpt lat="44.7040117" lon="8.8880333"><ele>239.50000000000003</ele><time>2026-04-04T10:06:35.108Z</time></trkpt><trkpt lat="44.70396" lon="8.8879667"><ele>239.0</ele><time>2026-04-04T10:06:36.101Z</time></trkpt><trkpt lat="44.703895" lon="8.8878883"><ele>239.0</ele><time>2026-04-04T10:06:37.105Z</time></trkpt><trkpt lat="44.7038133" lon="8.8877917"><ele>239.0</ele><time>2026-04-04T10:06:38.103Z</time></trkpt><trkpt lat="44.703715" lon="8.8876833"><ele>239.0</ele><time>2026-04-04T10:06:39.106Z</time></trkpt><trkpt lat="44.70361" lon="8.8875683"><ele>239.0</ele><time>2026-04-04T10:06:40.103Z</time></trkpt><trkpt lat="44.7034917" lon="8.8874583"><ele>237.66666666666669</ele><time>2026-04-04T10:06:41.105Z</time></trkpt><trkpt lat="44.70336" lon="8.88736"><ele>236.33333333333331</ele><time>2026-04-04T10:06:42.104Z</time></trkpt><trkpt lat="44.7032217" lon="8.8872667"><ele>235.0</ele><time>2026-04-04T10:06:43.101Z</time></trkpt><trkpt lat="44.7030767" lon="8.8871833"><ele>235.0</ele><time>2026-04-04T10:06:44.103Z</time></trkpt><trkpt lat="44.7029283" lon="8.8871017"><ele>235.0</ele><time>2026-04-04T10:06:45.1Z</time></trkpt><trkpt lat="44.702785" lon="8.8870233"><ele>235.0</ele><time>2026-04-04T10:06:46.104Z</time></trkpt><trkpt lat="44.7026433" lon="8.8869467"><ele>231.33333333333331</ele><time>2026-04-04T10:06:47.103Z</time></trkpt><trkpt lat="44.7025033" lon="8.8868583"><ele>227.66666666666669</ele><time>2026-04-04T10:06:48.105Z</time></trkpt><trkpt lat="44.7023517" lon="8.8867717"><ele>224.0</ele><time>2026-04-04T10:06:49.104Z</time></trkpt><trkpt lat="44.702195" lon="8.8866783"><ele>222.66666666666669</ele><time>2026-04-04T10:06:50.104Z</time></trkpt><trkpt lat="44.7020433" lon="8.8865883"><ele>221.33333333333331</ele><time>2026-04-04T10:06:51.104Z</time></trkpt><trkpt lat="44.7018783" lon="8.886495"><ele>220.0</ele><time>2026-04-04T10:06:52.103Z</time></trkpt><trkpt lat="44.7017233" lon="8.8864"><ele>216.66666666666666</ele><time>2026-04-04T10:06:53.103Z</time></trkpt><trkpt lat="44.701565" lon="8.8863083"><ele>213.33333333333331</ele><time>2026-04-04T10:06:54.101Z</time></trkpt><trkpt lat="44.7014033" lon="8.886225"><ele>210.0</ele><time>2026-04-04T10:06:55.108Z</time></trkpt><trkpt lat="44.7012517" lon="8.8861417"><ele>210.0</ele><time>2026-04-04T10:06:56.106Z</time></trkpt><trkpt lat="44.701105" lon="8.88606"><ele>210.0</ele><time>2026-04-04T10:06:57.099Z</time></trkpt><trkpt lat="44.7009467" lon="8.88597"><ele>210.0</ele><time>2026-04-04T10:06:58.101Z</time></trkpt><trkpt lat="44.7007967" lon="8.8858867"><ele>211.33333333333331</ele><time>2026-04-04T10:06:59.105Z</time></trkpt><trkpt lat="44.70065" lon="8.8858017"><ele>212.66666666666666</ele><time>2026-04-04T10:07:00.103Z</time></trkpt><trkpt lat="44.7005017" lon="8.8857117"><ele>214.0</ele><time>2026-04-04T10:07:01.107Z</time></trkpt><trkpt lat="44.70035" lon="8.8856233"><ele>214.0</ele><time>2026-04-04T10:07:02.109Z</time></trkpt><trkpt lat="44.7001983" lon="8.8855333"><ele>214.0</ele><time>2026-04-04T10:07:03.104Z</time></trkpt><trkpt lat="44.700045" lon="8.8854483"><ele>214.0</ele><time>2026-04-04T10:07:04.106Z</time></trkpt><trkpt lat="44.6998917" lon="8.8853617"><ele>214.0</ele><time>2026-04-04T10:07:05.105Z</time></trkpt><trkpt lat="44.69974" lon="8.88527"><ele>214.0</ele><time>2026-04-04T10:07:06.103Z</time></trkpt><trkpt lat="44.69959" lon="8.8851817"><ele>214.0</ele><time>2026-04-04T10:07:07.1Z</time></trkpt><trkpt lat="44.6994333" lon="8.885095"><ele>213.66666666666666</ele><time>2026-04-04T10:07:08.109Z</time></trkpt><trkpt lat="44.6992767" lon="8.885005"><ele>213.33333333333331</ele><time>2026-04-04T10:07:09.102Z</time></trkpt><trkpt lat="44.69912" lon="8.88491"><ele>213.0</ele><time>2026-04-04T10:07:10.104Z</time></trkpt><trkpt lat="44.6989617" lon="8.884815"><ele>213.0</ele><time>2026-04-04T10:07:11.104Z</time></trkpt><trkpt lat="44.6988033" lon="8.8847233"><ele>213.0</ele><time>2026-04-04T10:07:12.099Z</time></trkpt><trkpt lat="44.698645" lon="8.88463"><ele>213.0</ele><time>2026-04-04T10:07:13.1Z</time></trkpt><trkpt lat="44.698485" lon="8.88454"><ele>214.0</ele><time>2026-04-04T10:07:14.106Z</time></trkpt><trkpt lat="44.698325" lon="8.884445"><ele>215.0</ele><time>2026-04-04T10:07:15.099Z</time></trkpt><trkpt lat="44.69817" lon="8.8843517"><ele>216.0</ele><time>2026-04-04T10:07:16.103Z</time></trkpt><trkpt lat="44.6980017" lon="8.8842517"><ele>216.0</ele><time>2026-04-04T10:07:17.106Z</time></trkpt><trkpt lat="44.69783" lon="8.8841533"><ele>216.0</ele><time>2026-04-04T10:07:18.102Z</time></trkpt><trkpt lat="44.6976717" lon="8.8840633"><ele>216.0</ele><time>2026-04-04T10:07:19.104Z</time></trkpt><trkpt lat="44.6975183" lon="8.8839717"><ele>215.66666666666669</ele><time>2026-04-04T10:07:20.1Z</time></trkpt><trkpt lat="44.6973583" lon="8.8838767"><ele>215.33333333333334</ele><time>2026-04-04T10:07:21.103Z</time></trkpt><trkpt lat="44.6972017" lon="8.88378"><ele>215.0</ele><time>2026-04-04T10:07:22.098Z</time></trkpt><trkpt lat="44.6970433" lon="8.8836883"><ele>216.0</ele><time>2026-04-04T10:07:23.102Z</time></trkpt><trkpt lat="44.6968833" lon="8.883595"><ele>217.0</ele><time>2026-04-04T10:07:24.103Z</time></trkpt><trkpt lat="44.6967183" lon="8.8835033"><ele>218.0</ele><time>2026-04-04T10:07:25.101Z</time></trkpt><trkpt lat="44.6965567" lon="8.8834117"><ele>218.66666666666669</ele><time>2026-04-04T10:07:26.101Z</time></trkpt><trkpt lat="44.6963917" lon="8.8833217"><ele>219.33333333333331</ele><time>2026-04-04T10:07:27.101Z</time></trkpt><trkpt lat="44.69622" lon="8.8832233"><ele>220.0</ele><time>2026-04-04T10:07:28.103Z</time></trkpt><trkpt lat="44.69605" lon="8.8831267"><ele>221.0</ele><time>2026-04-04T10:07:29.107Z</time></trkpt><trkpt lat="44.6958783" lon="8.8830233"><ele>222.0</ele><time>2026-04-04T10:07:30.102Z</time></trkpt><trkpt lat="44.6957033" lon="8.8829233"><ele>223.0</ele><time>2026-04-04T10:07:31.103Z</time></trkpt><trkpt lat="44.6955283" lon="8.88282"><ele>223.0</ele><time>2026-04-04T10:07:32.108Z</time></trkpt><trkpt lat="44.6953617" lon="8.8827083"><ele>223.0</ele><time>2026-04-04T10:07:33.103Z</time></trkpt><trkpt lat="44.6952067" lon="8.8826033"><ele>223.0</ele><time>2026-04-04T10:07:34.101Z</time></trkpt><trkpt lat="44.6950617" lon="8.8825"><ele>224.2</ele><time>2026-04-04T10:07:35.111Z</time></trkpt><trkpt lat="44.69493" lon="8.882405"><ele>225.4</ele><time>2026-04-04T10:07:36.1Z</time></trkpt><trkpt lat="44.69483" lon="8.8823317"><ele>226.59999999999997</ele><time>2026-04-04T10:07:37.104Z</time></trkpt><trkpt lat="44.694755" lon="8.8822717"><ele>227.79999999999998</ele><time>2026-04-04T10:07:38.103Z</time></trkpt><trkpt lat="44.6947" lon="8.8822233"><ele>229.0</ele><time>2026-04-04T10:07:39.102Z</time></trkpt><trkpt lat="44.6946283" lon="8.8821583"><ele>228.99999999999997</ele><time>2026-04-04T10:07:41.107Z</time></trkpt><trkpt lat="44.694575" lon="8.8821033"><ele>229.0</ele><time>2026-04-04T10:07:43.099Z</time></trkpt><trkpt lat="44.6945067" lon="8.88203"><ele>229.0</ele><time>2026-04-04T10:07:45.103Z</time></trkpt><trkpt lat="44.6944583" lon="8.8819617"><ele>229.0</ele><time>2026-04-04T10:07:47.102Z</time></trkpt><trkpt lat="44.6944033" lon="8.8818933"><ele>228.99999999999997</ele><time>2026-04-04T10:07:49.103Z</time></trkpt><trkpt lat="44.6943217" lon="8.8818517"><ele>229.0</ele><time>2026-04-04T10:07:50.103Z</time></trkpt><trkpt lat="44.6942167" lon="8.8817483"><ele>230.33333333333331</ele><time>2026-04-04T10:07:52.101Z</time></trkpt><trkpt lat="44.6941517" lon="8.8816733"><ele>231.66666666666666</ele><time>2026-04-04T10:07:53.102Z</time></trkpt><trkpt lat="44.6940833" lon="8.88161"><ele>233.0</ele><time>2026-04-04T10:07:54.104Z</time></trkpt><trkpt lat="44.6940017" lon="8.8815267"><ele>234.33333333333331</ele><time>2026-04-04T10:07:55.106Z</time></trkpt><trkpt lat="44.693925" lon="8.8814467"><ele>235.66666666666666</ele><time>2026-04-04T10:07:56.104Z</time></trkpt><trkpt lat="44.6938617" lon="8.8813933"><ele>237.0</ele><time>2026-04-04T10:07:57.105Z</time></trkpt><trkpt lat="44.6937933" lon="8.8813383"><ele>237.0</ele><time>2026-04-04T10:07:58.1Z</time></trkpt><trkpt lat="44.6937233" lon="8.8812633"><ele>237.0</ele><time>2026-04-04T10:07:59.105Z</time></trkpt><trkpt lat="44.693655" lon="8.88118"><ele>237.0</ele><time>2026-04-04T10:08:00.096Z</time></trkpt><trkpt lat="44.6935767" lon="8.8811083"><ele>237.0</ele><time>2026-04-04T10:08:01.102Z</time></trkpt><trkpt lat="44.6935033" lon="8.8810383"><ele>237.0</ele><time>2026-04-04T10:08:02.098Z</time></trkpt><trkpt lat="44.693435" lon="8.8809767"><ele>237.0</ele><time>2026-04-04T10:08:03.103Z</time></trkpt><trkpt lat="44.6933733" lon="8.88093"><ele>237.2</ele><time>2026-04-04T10:08:04.104Z</time></trkpt><trkpt lat="44.6932817" lon="8.880865"><ele>237.39999999999998</ele><time>2026-04-04T10:08:06.103Z</time></trkpt><trkpt lat="44.69321" lon="8.8808167"><ele>237.60000000000002</ele><time>2026-04-04T10:08:10.102Z</time></trkpt><trkpt lat="44.6931417" lon="8.8807433"><ele>237.8</ele><time>2026-04-04T10:08:12.104Z</time></trkpt><trkpt lat="44.69305" lon="8.8806467"><ele>238.0</ele><time>2026-04-04T10:08:14.105Z</time></trkpt><trkpt lat="44.6929417" lon="8.8806533"><ele>237.99999999999997</ele><time>2026-04-04T10:08:16.102Z</time></trkpt><trkpt lat="44.6928633" lon="8.880785"><ele>238.0</ele><time>2026-04-04T10:08:18.104Z</time></trkpt><trkpt lat="44.6928333" lon="8.88087"><ele>238.0</ele><time>2026-04-04T10:08:19.105Z</time></trkpt><trkpt lat="44.6927767" lon="8.8809567"><ele>238.0</ele><time>2026-04-04T10:08:20.107Z</time></trkpt><trkpt lat="44.69272" lon="8.8810367"><ele>237.99999999999997</ele><time>2026-04-04T10:08:21.1Z</time></trkpt><trkpt lat="44.692665" lon="8.8811183"><ele>238.0</ele><time>2026-04-04T10:08:22.101Z</time></trkpt><trkpt lat="44.692605" lon="8.88121"><ele>238.60000000000002</ele><time>2026-04-04T10:08:23.103Z</time></trkpt><trkpt lat="44.6925417" lon="8.8813017"><ele>239.20000000000002</ele><time>2026-04-04T10:08:24.101Z</time></trkpt><trkpt lat="44.69247" lon="8.8813983"><ele>239.8</ele><time>2026-04-04T10:08:25.107Z</time></trkpt><trkpt lat="44.6923967" lon="8.8815"><ele>240.4</ele><time>2026-04-04T10:08:26.1Z</time></trkpt><trkpt lat="44.6923267" lon="8.8816117"><ele>241.0</ele><time>2026-04-04T10:08:27.1Z</time></trkpt><trkpt lat="44.6922517" lon="8.8817233"><ele>241.0</ele><time>2026-04-04T10:08:28.112Z</time></trkpt><trkpt lat="44.6921717" lon="8.881835"><ele>241.0</ele><time>2026-04-04T10:08:29.104Z</time></trkpt><trkpt lat="44.6920833" lon="8.8819467"><ele>241.0</ele><time>2026-04-04T10:08:30.101Z</time></trkpt><trkpt lat="44.691995" lon="8.88206"><ele>241.0</ele><time>2026-04-04T10:08:31.1Z</time></trkpt><trkpt lat="44.6919133" lon="8.8821767"><ele>240.75</ele><time>2026-04-04T10:08:32.104Z</time></trkpt><trkpt lat="44.691835" lon="8.8822933"><ele>240.5</ele><time>2026-04-04T10:08:33.098Z</time></trkpt><trkpt lat="44.6917567" lon="8.8824117"><ele>240.25</ele><time>2026-04-04T10:08:34.101Z</time></trkpt><trkpt lat="44.6916767" lon="8.8825333"><ele>240.0</ele><time>2026-04-04T10:08:35.102Z</time></trkpt><trkpt lat="44.6915983" lon="8.8826517"><ele>240.0</ele><time>2026-04-04T10:08:36.103Z</time></trkpt><trkpt lat="44.6915233" lon="8.882765"><ele>240.0</ele><time>2026-04-04T10:08:37.105Z</time></trkpt><trkpt lat="44.6914483" lon="8.8828767"><ele>240.0</ele><time>2026-04-04T10:08:38.106Z</time></trkpt><trkpt lat="44.6913717" lon="8.8829833"><ele>240.0</ele><time>2026-04-04T10:08:39.103Z</time></trkpt><trkpt lat="44.6913017" lon="8.883085"><ele>240.0</ele><time>2026-04-04T10:08:40.102Z</time></trkpt><trkpt lat="44.69124" lon="8.8831783"><ele>240.0</ele><time>2026-04-04T10:08:41.106Z</time></trkpt><trkpt lat="44.6911833" lon="8.8832583"><ele>240.0</ele><time>2026-04-04T10:08:42.106Z</time></trkpt><trkpt lat="44.6911317" lon="8.8833167"><ele>240.0</ele><time>2026-04-04T10:08:43.104Z</time></trkpt><trkpt lat="44.691075" lon="8.8833683"><ele>240.0</ele><time>2026-04-04T10:08:44.105Z</time></trkpt><trkpt lat="44.6910133" lon="8.883415"><ele>240.0</ele><time>2026-04-04T10:08:45.101Z</time></trkpt><trkpt lat="44.69095" lon="8.883475"><ele>240.0</ele><time>2026-04-04T10:08:46.106Z</time></trkpt><trkpt lat="44.69089" lon="8.8835517"><ele>240.0</ele><time>2026-04-04T10:08:47.11Z</time></trkpt><trkpt lat="44.69083" lon="8.8836383"><ele>241.0</ele><time>2026-04-04T10:08:48.106Z</time></trkpt><trkpt lat="44.6907633" lon="8.883735"><ele>242.0</ele><time>2026-04-04T10:08:49.106Z</time></trkpt><trkpt lat="44.6906917" lon="8.8838367"><ele>243.0</ele><time>2026-04-04T10:08:50.097Z</time></trkpt><trkpt lat="44.6906183" lon="8.883935"><ele>244.0</ele><time>2026-04-04T10:08:51.099Z</time></trkpt><trkpt lat="44.6905533" lon="8.884055"><ele>245.0</ele><time>2026-04-04T10:08:52.102Z</time></trkpt><trkpt lat="44.6904917" lon="8.884165"><ele>245.0</ele><time>2026-04-04T10:08:53.102Z</time></trkpt><trkpt lat="44.69042" lon="8.8842683"><ele>245.0</ele><time>2026-04-04T10:08:54.102Z</time></trkpt><trkpt lat="44.690355" lon="8.884375"><ele>245.0</ele><time>2026-04-04T10:08:55.103Z</time></trkpt><trkpt lat="44.6902883" lon="8.8844817"><ele>245.0</ele><time>2026-04-04T10:08:56.101Z</time></trkpt><trkpt lat="44.6902317" lon="8.88459"><ele>245.0</ele><time>2026-04-04T10:08:57.099Z</time></trkpt><trkpt lat="44.6901733" lon="8.884695"><ele>245.0</ele><time>2026-04-04T10:08:58.101Z</time></trkpt><trkpt lat="44.6901067" lon="8.884795"><ele>245.0</ele><time>2026-04-04T10:08:59.1Z</time></trkpt><trkpt lat="44.690035" lon="8.8849017"><ele>245.0</ele><time>2026-04-04T10:09:00.101Z</time></trkpt><trkpt lat="44.689965" lon="8.8849917"><ele>245.0</ele><time>2026-04-04T10:09:01.101Z</time></trkpt><trkpt lat="44.6898967" lon="8.885095"><ele>245.0</ele><time>2026-04-04T10:09:02.101Z</time></trkpt><trkpt lat="44.6898183" lon="8.8851983"><ele>245.0</ele><time>2026-04-04T10:09:03.103Z</time></trkpt><trkpt lat="44.6897417" lon="8.8853167"><ele>245.0</ele><time>2026-04-04T10:09:04.101Z</time></trkpt><trkpt lat="44.6896567" lon="8.8854417"><ele>245.0</ele><time>2026-04-04T10:09:05.103Z</time></trkpt><trkpt lat="44.689575" lon="8.8855717"><ele>245.0</ele><time>2026-04-04T10:09:06.102Z</time></trkpt><trkpt lat="44.6894683" lon="8.88578"><ele>245.0</ele><time>2026-04-04T10:09:07.1Z</time></trkpt><trkpt lat="44.6893767" lon="8.8859033"><ele>245.0</ele><time>2026-04-04T10:09:08.105Z</time></trkpt><trkpt lat="44.6892933" lon="8.8860233"><ele>245.0</ele><time>2026-04-04T10:09:09.097Z</time></trkpt><trkpt lat="44.6891983" lon="8.8861233"><ele>245.0</ele><time>2026-04-04T10:09:10.097Z</time></trkpt><trkpt lat="44.68911" lon="8.886235"><ele>244.8</ele><time>2026-04-04T10:09:11.098Z</time></trkpt><trkpt lat="44.6890283" lon="8.8863433"><ele>244.6</ele><time>2026-04-04T10:09:12.097Z</time></trkpt><trkpt lat="44.6889567" lon="8.88644"><ele>244.39999999999998</ele><time>2026-04-04T10:09:13.098Z</time></trkpt><trkpt lat="44.6888933" lon="8.8865317"><ele>244.2</ele><time>2026-04-04T10:09:14.103Z</time></trkpt><trkpt lat="44.68883" lon="8.8866083"><ele>244.0</ele><time>2026-04-04T10:09:15.102Z</time></trkpt><trkpt lat="44.688775" lon="8.8866717"><ele>243.99999999999997</ele><time>2026-04-04T10:09:16.097Z</time></trkpt><trkpt lat="44.6887267" lon="8.8867333"><ele>244.0</ele><time>2026-04-04T10:09:17.099Z</time></trkpt><trkpt lat="44.6886567" lon="8.886815"><ele>244.0</ele><time>2026-04-04T10:09:20.103Z</time></trkpt><trkpt lat="44.6885717" lon="8.8868733"><ele>244.0</ele><time>2026-04-04T10:09:22.102Z</time></trkpt><trkpt lat="44.6885033" lon="8.88695"><ele>243.99999999999997</ele><time>2026-04-04T10:09:24.106Z</time></trkpt><trkpt lat="44.688425" lon="8.8870467"><ele>244.0</ele><time>2026-04-04T10:09:26.106Z</time></trkpt><trkpt lat="44.6883233" lon="8.88717"><ele>244.33333333333331</ele><time>2026-04-04T10:09:28.1Z</time></trkpt><trkpt lat="44.6882533" lon="8.8872133"><ele>244.66666666666666</ele><time>2026-04-04T10:09:29.1Z</time></trkpt><trkpt lat="44.688185" lon="8.88728"><ele>245.0</ele><time>2026-04-04T10:09:30.099Z</time></trkpt><trkpt lat="44.6881133" lon="8.8873517"><ele>245.33333333333331</ele><time>2026-04-04T10:09:31.102Z</time></trkpt><trkpt lat="44.6880433" lon="8.887435"><ele>245.66666666666666</ele><time>2026-04-04T10:09:32.105Z</time></trkpt><trkpt lat="44.6879783" lon="8.8875017"><ele>246.0</ele><time>2026-04-04T10:09:33.106Z</time></trkpt><trkpt lat="44.6879067" lon="8.8875783"><ele>246.20000000000002</ele><time>2026-04-04T10:09:34.099Z</time></trkpt><trkpt lat="44.6878283" lon="8.8876567"><ele>246.40000000000003</ele><time>2026-04-04T10:09:35.107Z</time></trkpt><trkpt lat="44.6877433" lon="8.8877467"><ele>246.6</ele><time>2026-04-04T10:09:36.099Z</time></trkpt><trkpt lat="44.68766" lon="8.8878417"><ele>246.8</ele><time>2026-04-04T10:09:37.11Z</time></trkpt><trkpt lat="44.6875733" lon="8.887935"><ele>247.0</ele><time>2026-04-04T10:09:38.099Z</time></trkpt><trkpt lat="44.68748" lon="8.888035"><ele>247.0</ele><time>2026-04-04T10:09:39.098Z</time></trkpt><trkpt lat="44.687385" lon="8.888135"><ele>247.0</ele><time>2026-04-04T10:09:40.099Z</time></trkpt><trkpt lat="44.6872933" lon="8.88823"><ele>247.0</ele><time>2026-04-04T10:09:41.101Z</time></trkpt><trkpt lat="44.687215" lon="8.8883267"><ele>247.0</ele><time>2026-04-04T10:09:42.098Z</time></trkpt><trkpt lat="44.6871367" lon="8.8883917"><ele>247.0</ele><time>2026-04-04T10:09:43.111Z</time></trkpt><trkpt lat="44.6870517" lon="8.8884683"><ele>247.0</ele><time>2026-04-04T10:09:44.103Z</time></trkpt><trkpt lat="44.6869667" lon="8.888545"><ele>247.0</ele><time>2026-04-04T10:09:45.105Z</time></trkpt><trkpt lat="44.68688" lon="8.8886217"><ele>247.0</ele><time>2026-04-04T10:09:46.105Z</time></trkpt><trkpt lat="44.686795" lon="8.8886967"><ele>247.0</ele><time>2026-04-04T10:09:47.103Z</time></trkpt><trkpt lat="44.6867083" lon="8.8887783"><ele>247.0</ele><time>2026-04-04T10:09:48.101Z</time></trkpt><trkpt lat="44.6866283" lon="8.8888583"><ele>247.6</ele><time>2026-04-04T10:09:49.102Z</time></trkpt><trkpt lat="44.686565" lon="8.88892"><ele>248.2</ele><time>2026-04-04T10:09:50.107Z</time></trkpt><trkpt lat="44.6864767" lon="8.889"><ele>248.8</ele><time>2026-04-04T10:09:52.104Z</time></trkpt><trkpt lat="44.6864083" lon="8.88906"><ele>249.4</ele><time>2026-04-04T10:09:55.103Z</time></trkpt><trkpt lat="44.6863283" lon="8.8891267"><ele>250.0</ele><time>2026-04-04T10:09:58.105Z</time></trkpt><trkpt lat="44.6862433" lon="8.8892067"><ele>249.83333333333331</ele><time>2026-04-04T10:10:00.105Z</time></trkpt><trkpt lat="44.6861867" lon="8.88926"><ele>249.66666666666666</ele><time>2026-04-04T10:10:01.1Z</time></trkpt><trkpt lat="44.6861333" lon="8.8893183"><ele>249.5</ele><time>2026-04-04T10:10:02.1Z</time></trkpt><trkpt lat="44.6860767" lon="8.88937"><ele>249.33333333333331</ele><time>2026-04-04T10:10:03.099Z</time></trkpt><trkpt lat="44.686015" lon="8.8894333"><ele>249.16666666666666</ele><time>2026-04-04T10:10:04.103Z</time></trkpt><trkpt lat="44.68595" lon="8.8895"><ele>249.0</ele><time>2026-04-04T10:10:05.106Z</time></trkpt><trkpt lat="44.6858767" lon="8.889575"><ele>249.0</ele><time>2026-04-04T10:10:06.103Z</time></trkpt><trkpt lat="44.685805" lon="8.88965"><ele>248.99999999999997</ele><time>2026-04-04T10:10:07.101Z</time></trkpt><trkpt lat="44.68573" lon="8.8897233"><ele>248.99999999999997</ele><time>2026-04-04T10:10:08.104Z</time></trkpt><trkpt lat="44.6856567" lon="8.8897983"><ele>249.0</ele><time>2026-04-04T10:10:09.106Z</time></trkpt><trkpt lat="44.6855783" lon="8.8898717"><ele>249.0</ele><time>2026-04-04T10:10:10.108Z</time></trkpt><trkpt lat="44.6854983" lon="8.8899433"><ele>249.0</ele><time>2026-04-04T10:10:11.103Z</time></trkpt><trkpt lat="44.6854167" lon="8.8900083"><ele>249.0</ele><time>2026-04-04T10:10:12.099Z</time></trkpt><trkpt lat="44.6853433" lon="8.8900717"><ele>249.0</ele><time>2026-04-04T10:10:13.102Z</time></trkpt><trkpt lat="44.6852733" lon="8.8901467"><ele>249.0</ele><time>2026-04-04T10:10:14.106Z</time></trkpt><trkpt lat="44.6852067" lon="8.890205"><ele>249.0</ele><time>2026-04-04T10:10:15.098Z</time></trkpt><trkpt lat="44.6851483" lon="8.89026"><ele>249.0</ele><time>2026-04-04T10:10:16.099Z</time></trkpt><trkpt lat="44.6850833" lon="8.89032"><ele>249.39999999999998</ele><time>2026-04-04T10:10:17.104Z</time></trkpt><trkpt lat="44.6850133" lon="8.8903767"><ele>249.79999999999998</ele><time>2026-04-04T10:10:18.103Z</time></trkpt><trkpt lat="44.684945" lon="8.89045"><ele>250.20000000000002</ele><time>2026-04-04T10:10:19.101Z</time></trkpt><trkpt lat="44.6848733" lon="8.890535"><ele>250.60000000000002</ele><time>2026-04-04T10:10:20.101Z</time></trkpt><trkpt lat="44.6847967" lon="8.89062"><ele>251.0</ele><time>2026-04-04T10:10:21.105Z</time></trkpt><trkpt lat="44.684715" lon="8.8907"><ele>251.0</ele><time>2026-04-04T10:10:22.1Z</time></trkpt><trkpt lat="44.6846267" lon="8.8907783"><ele>251.0</ele><time>2026-04-04T10:10:23.103Z</time></trkpt><trkpt lat="44.6845233" lon="8.8908433"><ele>251.0</ele><time>2026-04-04T10:10:24.1Z</time></trkpt><trkpt lat="44.684425" lon="8.8909317"><ele>251.0</ele><time>2026-04-04T10:10:25.099Z</time></trkpt><trkpt lat="44.684325" lon="8.8910133"><ele>250.8</ele><time>2026-04-04T10:10:26.1Z</time></trkpt><trkpt lat="44.6842333" lon="8.8910933"><ele>250.60000000000002</ele><time>2026-04-04T10:10:27.103Z</time></trkpt><trkpt lat="44.6841467" lon="8.891185"><ele>250.4</ele><time>2026-04-04T10:10:28.102Z</time></trkpt><trkpt lat="44.6840467" lon="8.891265"><ele>250.2</ele><time>2026-04-04T10:10:29.101Z</time></trkpt><trkpt lat="44.6839617" lon="8.8913483"><ele>250.0</ele><time>2026-04-04T10:10:30.101Z</time></trkpt><trkpt lat="44.68388" lon="8.89142"><ele>250.0</ele><time>2026-04-04T10:10:31.101Z</time></trkpt><trkpt lat="44.6837933" lon="8.8915117"><ele>250.0</ele><time>2026-04-04T10:10:32.104Z</time></trkpt><trkpt lat="44.6837167" lon="8.8915967"><ele>250.0</ele><time>2026-04-04T10:10:33.099Z</time></trkpt><trkpt lat="44.683635" lon="8.8916833"><ele>250.0</ele><time>2026-04-04T10:10:34.102Z</time></trkpt><trkpt lat="44.6835517" lon="8.891765"><ele>250.0</ele><time>2026-04-04T10:10:35.099Z</time></trkpt><trkpt lat="44.6834667" lon="8.8918483"><ele>249.8</ele><time>2026-04-04T10:10:36.107Z</time></trkpt><trkpt lat="44.68339" lon="8.8919317"><ele>249.6</ele><time>2026-04-04T10:10:37.101Z</time></trkpt><trkpt lat="44.68331" lon="8.892"><ele>249.39999999999998</ele><time>2026-04-04T10:10:38.103Z</time></trkpt><trkpt lat="44.6832383" lon="8.8920883"><ele>249.2</ele><time>2026-04-04T10:10:39.102Z</time></trkpt><trkpt lat="44.68316" lon="8.8921733"><ele>249.0</ele><time>2026-04-04T10:10:40.101Z</time></trkpt><trkpt lat="44.68308" lon="8.8922667"><ele>249.0</ele><time>2026-04-04T10:10:41.104Z</time></trkpt><trkpt lat="44.68299" lon="8.8923483"><ele>248.99999999999997</ele><time>2026-04-04T10:10:42.103Z</time></trkpt><trkpt lat="44.6829083" lon="8.8924433"><ele>248.99999999999997</ele><time>2026-04-04T10:10:43.105Z</time></trkpt><trkpt lat="44.6828133" lon="8.892535"><ele>249.0</ele><time>2026-04-04T10:10:44.099Z</time></trkpt><trkpt lat="44.682715" lon="8.8926283"><ele>249.0</ele><time>2026-04-04T10:10:45.101Z</time></trkpt><trkpt lat="44.68261" lon="8.892725"><ele>249.0</ele><time>2026-04-04T10:10:46.101Z</time></trkpt><trkpt lat="44.6825067" lon="8.89282"><ele>249.0</ele><time>2026-04-04T10:10:47.1Z</time></trkpt><trkpt lat="44.6824117" lon="8.89293"><ele>249.0</ele><time>2026-04-04T10:10:48.1Z</time></trkpt><trkpt lat="44.6823117" lon="8.8930267"><ele>249.0</ele><time>2026-04-04T10:10:49.101Z</time></trkpt><trkpt lat="44.6822083" lon="8.8931217"><ele>249.0</ele><time>2026-04-04T10:10:50.102Z</time></trkpt><trkpt lat="44.682105" lon="8.8931967"><ele>249.0</ele><time>2026-04-04T10:10:51.102Z</time></trkpt><trkpt lat="44.6820067" lon="8.8932933"><ele>249.0</ele><time>2026-04-04T10:10:52.103Z</time></trkpt><trkpt lat="44.6819033" lon="8.8933867"><ele>249.0</ele><time>2026-04-04T10:10:53.1Z</time></trkpt><trkpt lat="44.6817967" lon="8.8934733"><ele>248.75</ele><time>2026-04-04T10:10:54.101Z</time></trkpt><trkpt lat="44.6816933" lon="8.8935633"><ele>248.5</ele><time>2026-04-04T10:10:55.1Z</time></trkpt><trkpt lat="44.6815933" lon="8.8936533"><ele>248.25</ele><time>2026-04-04T10:10:56.1Z</time></trkpt><trkpt lat="44.6814867" lon="8.89374"><ele>248.0</ele><time>2026-04-04T10:10:57.102Z</time></trkpt><trkpt lat="44.6813783" lon="8.8938217"><ele>248.0</ele><time>2026-04-04T10:10:58.109Z</time></trkpt><trkpt lat="44.6812733" lon="8.8939083"><ele>248.0</ele><time>2026-04-04T10:10:59.106Z</time></trkpt><trkpt lat="44.6811633" lon="8.8939967"><ele>248.0</ele><time>2026-04-04T10:11:00.104Z</time></trkpt><trkpt lat="44.681055" lon="8.89408"><ele>248.0</ele><time>2026-04-04T10:11:01.104Z</time></trkpt><trkpt lat="44.680945" lon="8.8941583"><ele>248.5</ele><time>2026-04-04T10:11:02.1Z</time></trkpt><trkpt lat="44.6808383" lon="8.8942383"><ele>249.0</ele><time>2026-04-04T10:11:03.098Z</time></trkpt><trkpt lat="44.6807333" lon="8.8943133"><ele>249.5</ele><time>2026-04-04T10:11:04.101Z</time></trkpt><trkpt lat="44.680625" lon="8.8943833"><ele>250.0</ele><time>2026-04-04T10:11:05.106Z</time></trkpt><trkpt lat="44.6805083" lon="8.89445"><ele>249.5</ele><time>2026-04-04T10:11:06.098Z</time></trkpt><trkpt lat="44.68039" lon="8.89452"><ele>249.0</ele><time>2026-04-04T10:11:07.1Z</time></trkpt><trkpt lat="44.680275" lon="8.8945833"><ele>248.5</ele><time>2026-04-04T10:11:08.101Z</time></trkpt><trkpt lat="44.6801583" lon="8.8946433"><ele>248.0</ele><time>2026-04-04T10:11:09.099Z</time></trkpt><trkpt lat="44.6800383" lon="8.8947017"><ele>248.0</ele><time>2026-04-04T10:11:10.098Z</time></trkpt><trkpt lat="44.6799217" lon="8.894755"><ele>248.0</ele><time>2026-04-04T10:11:11.104Z</time></trkpt><trkpt lat="44.67981" lon="8.8947967"><ele>248.0</ele><time>2026-04-04T10:11:12.105Z</time></trkpt><trkpt lat="44.67971" lon="8.8948317"><ele>248.0</ele><time>2026-04-04T10:11:13.102Z</time></trkpt><trkpt lat="44.6796117" lon="8.8948533"><ele>248.0</ele><time>2026-04-04T10:11:14.102Z</time></trkpt><trkpt lat="44.67951" lon="8.8948717"><ele>248.60000000000002</ele><time>2026-04-04T10:11:15.098Z</time></trkpt><trkpt lat="44.6794117" lon="8.8948967"><ele>249.20000000000002</ele><time>2026-04-04T10:11:16.105Z</time></trkpt><trkpt lat="44.6793133" lon="8.8949133"><ele>249.8</ele><time>2026-04-04T10:11:17.1Z</time></trkpt><trkpt lat="44.6792083" lon="8.89493"><ele>250.4</ele><time>2026-04-04T10:11:18.105Z</time></trkpt><trkpt lat="44.6790967" lon="8.8949467"><ele>251.0</ele><time>2026-04-04T10:11:19.103Z</time></trkpt><trkpt lat="44.6789783" lon="8.8949683"><ele>251.0</ele><time>2026-04-04T10:11:20.103Z</time></trkpt><trkpt lat="44.6788633" lon="8.89499"><ele>251.0</ele><time>2026-04-04T10:11:21.1Z</time></trkpt><trkpt lat="44.6787367" lon="8.89501"><ele>251.0</ele><time>2026-04-04T10:11:22.103Z</time></trkpt><trkpt lat="44.6786" lon="8.8950267"><ele>251.0</ele><time>2026-04-04T10:11:23.105Z</time></trkpt><trkpt lat="44.678455" lon="8.8950517"><ele>249.66666666666669</ele><time>2026-04-04T10:11:24.098Z</time></trkpt><trkpt lat="44.6783033" lon="8.8951017"><ele>248.33333333333331</ele><time>2026-04-04T10:11:25.099Z</time></trkpt><trkpt lat="44.6781167" lon="8.8951517"><ele>247.0</ele><time>2026-04-04T10:11:26.102Z</time></trkpt><trkpt lat="44.677895" lon="8.8951933"><ele>247.33333333333331</ele><time>2026-04-04T10:11:27.098Z</time></trkpt><trkpt lat="44.677665" lon="8.8952183"><ele>247.66666666666669</ele><time>2026-04-04T10:11:28.097Z</time></trkpt><trkpt lat="44.6774483" lon="8.89524"><ele>248.0</ele><time>2026-04-04T10:11:29.1Z</time></trkpt><trkpt lat="44.6772417" lon="8.8952633"><ele>248.0</ele><time>2026-04-04T10:11:30.1Z</time></trkpt><trkpt lat="44.6770483" lon="8.89529"><ele>248.0</ele><time>2026-04-04T10:11:31.101Z</time></trkpt><trkpt lat="44.6768633" lon="8.8953233"><ele>248.0</ele><time>2026-04-04T10:11:32.1Z</time></trkpt><trkpt lat="44.6766733" lon="8.8953567"><ele>248.66666666666669</ele><time>2026-04-04T10:11:33.097Z</time></trkpt><trkpt lat="44.6764983" lon="8.8953933"><ele>249.33333333333331</ele><time>2026-04-04T10:11:34.1Z</time></trkpt><trkpt lat="44.6763267" lon="8.8954483"><ele>250.0</ele><time>2026-04-04T10:11:35.11Z</time></trkpt><trkpt lat="44.676155" lon="8.8955017"><ele>251.66666666666666</ele><time>2026-04-04T10:11:36.1Z</time></trkpt><trkpt lat="44.67599" lon="8.8955467"><ele>253.33333333333331</ele><time>2026-04-04T10:11:37.1Z</time></trkpt><trkpt lat="44.6758283" lon="8.89559"><ele>255.0</ele><time>2026-04-04T10:11:38.099Z</time></trkpt><trkpt lat="44.6756733" lon="8.8956283"><ele>255.0</ele><time>2026-04-04T10:11:39.106Z</time></trkpt><trkpt lat="44.675515" lon="8.895665"><ele>255.0</ele><time>2026-04-04T10:11:40.099Z</time></trkpt><trkpt lat="44.675355" lon="8.8957"><ele>255.0</ele><time>2026-04-04T10:11:41.1Z</time></trkpt><trkpt lat="44.6751933" lon="8.895735"><ele>256.0</ele><time>2026-04-04T10:11:42.105Z</time></trkpt><trkpt lat="44.6750317" lon="8.8957667"><ele>257.0</ele><time>2026-04-04T10:11:43.106Z</time></trkpt><trkpt lat="44.6748733" lon="8.8958083"><ele>258.0</ele><time>2026-04-04T10:11:44.105Z</time></trkpt><trkpt lat="44.6747233" lon="8.89585"><ele>258.0</ele><time>2026-04-04T10:11:45.111Z</time></trkpt><trkpt lat="44.6745817" lon="8.8958767"><ele>258.0</ele><time>2026-04-04T10:11:46.102Z</time></trkpt><trkpt lat="44.6744433" lon="8.8958967"><ele>258.0</ele><time>2026-04-04T10:11:47.107Z</time></trkpt><trkpt lat="44.6743083" lon="8.89591"><ele>258.0</ele><time>2026-04-04T10:11:48.104Z</time></trkpt><trkpt lat="44.6741783" lon="8.8959233"><ele>253.5</ele><time>2026-04-04T10:11:49.103Z</time></trkpt><trkpt lat="44.674045" lon="8.8959317"><ele>249.0</ele><time>2026-04-04T10:11:50.101Z</time></trkpt><trkpt lat="44.67391" lon="8.8959317"><ele>244.5</ele><time>2026-04-04T10:11:51.105Z</time></trkpt><trkpt lat="44.673765" lon="8.8959417"><ele>240.0</ele><time>2026-04-04T10:11:52.101Z</time></trkpt><trkpt lat="44.6736233" lon="8.8959367"><ele>239.0</ele><time>2026-04-04T10:11:53.103Z</time></trkpt><trkpt lat="44.6734867" lon="8.8959267"><ele>238.0</ele><time>2026-04-04T10:11:54.101Z</time></trkpt><trkpt lat="44.6733483" lon="8.89591"><ele>237.0</ele><time>2026-04-04T10:11:55.102Z</time></trkpt><trkpt lat="44.673205" lon="8.89589"><ele>236.0</ele><time>2026-04-04T10:11:56.101Z</time></trkpt><trkpt lat="44.6730683" lon="8.89586"><ele>242.0</ele><time>2026-04-04T10:11:57.102Z</time></trkpt><trkpt lat="44.6729283" lon="8.8958317"><ele>248.0</ele><time>2026-04-04T10:11:58.105Z</time></trkpt><trkpt lat="44.672785" lon="8.895795"><ele>254.0</ele><time>2026-04-04T10:11:59.106Z</time></trkpt><trkpt lat="44.672645" lon="8.8957617"><ele>260.0</ele><time>2026-04-04T10:12:00.102Z</time></trkpt><trkpt lat="44.6725067" lon="8.89572"><ele>260.0</ele><time>2026-04-04T10:12:01.105Z</time></trkpt><trkpt lat="44.6723717" lon="8.8956883"><ele>260.0</ele><time>2026-04-04T10:12:02.112Z</time></trkpt><trkpt lat="44.6722383" lon="8.8956517"><ele>260.0</ele><time>2026-04-04T10:12:03.108Z</time></trkpt><trkpt lat="44.6721033" lon="8.8956167"><ele>260.0</ele><time>2026-04-04T10:12:04.103Z</time></trkpt><trkpt lat="44.6719683" lon="8.8955867"><ele>260.0</ele><time>2026-04-04T10:12:05.101Z</time></trkpt><trkpt lat="44.67184" lon="8.89556"><ele>260.0</ele><time>2026-04-04T10:12:06.1Z</time></trkpt><trkpt lat="44.671715" lon="8.895525"><ele>260.0</ele><time>2026-04-04T10:12:07.099Z</time></trkpt><trkpt lat="44.6715917" lon="8.8954867"><ele>260.0</ele><time>2026-04-04T10:12:08.107Z</time></trkpt><trkpt lat="44.671475" lon="8.8954567"><ele>260.0</ele><time>2026-04-04T10:12:09.099Z</time></trkpt><trkpt lat="44.671355" lon="8.89545"><ele>260.0</ele><time>2026-04-04T10:12:10.101Z</time></trkpt><trkpt lat="44.6712467" lon="8.895485"><ele>260.0</ele><time>2026-04-04T10:12:11.097Z</time></trkpt><trkpt lat="44.67113" lon="8.8955533"><ele>260.0</ele><time>2026-04-04T10:12:12.098Z</time></trkpt><trkpt lat="44.671015" lon="8.8956517"><ele>260.0</ele><time>2026-04-04T10:12:13.101Z</time></trkpt><trkpt lat="44.6709083" lon="8.8957517"><ele>260.0</ele><time>2026-04-04T10:12:14.099Z</time></trkpt><trkpt lat="44.6708017" lon="8.895855"><ele>260.0</ele><time>2026-04-04T10:12:15.1Z</time></trkpt><trkpt lat="44.6706933" lon="8.8959633"><ele>260.0</ele><time>2026-04-04T10:12:16.099Z</time></trkpt><trkpt lat="44.6705767" lon="8.89606"><ele>259.5</ele><time>2026-04-04T10:12:17.1Z</time></trkpt><trkpt lat="44.67046" lon="8.8961433"><ele>259.0</ele><time>2026-04-04T10:12:18.098Z</time></trkpt><trkpt lat="44.6703417" lon="8.8962117"><ele>258.5</ele><time>2026-04-04T10:12:19.104Z</time></trkpt><trkpt lat="44.670225" lon="8.89627"><ele>258.0</ele><time>2026-04-04T10:12:20.098Z</time></trkpt><trkpt lat="44.6701133" lon="8.8963183"><ele>258.0</ele><time>2026-04-04T10:12:21.1Z</time></trkpt><trkpt lat="44.6700033" lon="8.8963667"><ele>258.0</ele><time>2026-04-04T10:12:22.098Z</time></trkpt><trkpt lat="44.669895" lon="8.896415"><ele>258.0</ele><time>2026-04-04T10:12:23.104Z</time></trkpt><trkpt lat="44.6697833" lon="8.8964617"><ele>258.0</ele><time>2026-04-04T10:12:24.098Z</time></trkpt><trkpt lat="44.6696683" lon="8.89651"><ele>258.0</ele><time>2026-04-04T10:12:25.102Z</time></trkpt><trkpt lat="44.6695533" lon="8.8965633"><ele>258.0</ele><time>2026-04-04T10:12:26.1Z</time></trkpt><trkpt lat="44.6694383" lon="8.8966133"><ele>258.0</ele><time>2026-04-04T10:12:27.101Z</time></trkpt><trkpt lat="44.6693233" lon="8.8966617"><ele>258.0</ele><time>2026-04-04T10:12:28.103Z</time></trkpt><trkpt lat="44.6692033" lon="8.896715"><ele>257.25</ele><time>2026-04-04T10:12:29.103Z</time></trkpt><trkpt lat="44.6690817" lon="8.8967667"><ele>256.5</ele><time>2026-04-04T10:12:30.104Z</time></trkpt><trkpt lat="44.66896" lon="8.8968217"><ele>255.75</ele><time>2026-04-04T10:12:31.106Z</time></trkpt><trkpt lat="44.66884" lon="8.8968733"><ele>255.0</ele><time>2026-04-04T10:12:32.101Z</time></trkpt><trkpt lat="44.6687167" lon="8.89693"><ele>256.25</ele><time>2026-04-04T10:12:33.103Z</time></trkpt><trkpt lat="44.6685983" lon="8.896985"><ele>257.5</ele><time>2026-04-04T10:12:34.101Z</time></trkpt><trkpt lat="44.6684817" lon="8.897025"><ele>258.75</ele><time>2026-04-04T10:12:35.1Z</time></trkpt><trkpt lat="44.66837" lon="8.89707"><ele>260.0</ele><time>2026-04-04T10:12:36.1Z</time></trkpt><trkpt lat="44.668265" lon="8.8971183"><ele>260.0</ele><time>2026-04-04T10:12:37.099Z</time></trkpt><trkpt lat="44.6681683" lon="8.897165"><ele>260.0</ele><time>2026-04-04T10:12:38.099Z</time></trkpt><trkpt lat="44.6680733" lon="8.8972"><ele>260.0</ele><time>2026-04-04T10:12:39.102Z</time></trkpt><trkpt lat="44.6679917" lon="8.897255"><ele>260.0</ele><time>2026-04-04T10:12:40.109Z</time></trkpt><trkpt lat="44.6679267" lon="8.8973417"><ele>260.0</ele><time>2026-04-04T10:12:41.102Z</time></trkpt><trkpt lat="44.667865" lon="8.8974517"><ele>259.6</ele><time>2026-04-04T10:12:42.097Z</time></trkpt><trkpt lat="44.66782" lon="8.8975867"><ele>259.2</ele><time>2026-04-04T10:12:43.101Z</time></trkpt><trkpt lat="44.6677783" lon="8.8977233"><ele>258.8</ele><time>2026-04-04T10:12:44.105Z</time></trkpt><trkpt lat="44.6677467" lon="8.8978583"><ele>258.4</ele><time>2026-04-04T10:12:45.102Z</time></trkpt><trkpt lat="44.6677133" lon="8.8979867"><ele>258.0</ele><time>2026-04-04T10:12:46.1Z</time></trkpt><trkpt lat="44.667675" lon="8.8981167"><ele>258.0</ele><time>2026-04-04T10:12:47.102Z</time></trkpt><trkpt lat="44.6676233" lon="8.89823"><ele>258.0</ele><time>2026-04-04T10:12:48.108Z</time></trkpt><trkpt lat="44.66757" lon="8.8983433"><ele>258.0</ele><time>2026-04-04T10:12:49.106Z</time></trkpt><trkpt lat="44.667515" lon="8.898465"><ele>258.0</ele><time>2026-04-04T10:12:50.098Z</time></trkpt><trkpt lat="44.6674417" lon="8.8985833"><ele>258.0</ele><time>2026-04-04T10:12:51.1Z</time></trkpt><trkpt lat="44.6673733" lon="8.8987133"><ele>256.25</ele><time>2026-04-04T10:12:52.101Z</time></trkpt><trkpt lat="44.6673" lon="8.898845"><ele>254.5</ele><time>2026-04-04T10:12:53.1Z</time></trkpt><trkpt lat="44.6672283" lon="8.89898"><ele>252.75</ele><time>2026-04-04T10:12:54.101Z</time></trkpt><trkpt lat="44.6671583" lon="8.8991017"><ele>251.0</ele><time>2026-04-04T10:12:55.106Z</time></trkpt><trkpt lat="44.6670933" lon="8.8992117"><ele>252.20000000000002</ele><time>2026-04-04T10:12:56.097Z</time></trkpt><trkpt lat="44.66703" lon="8.89932"><ele>253.40000000000003</ele><time>2026-04-04T10:12:57.097Z</time></trkpt><trkpt lat="44.6669733" lon="8.8994233"><ele>254.6</ele><time>2026-04-04T10:12:58.103Z</time></trkpt><trkpt lat="44.6669167" lon="8.8995267"><ele>255.8</ele><time>2026-04-04T10:12:59.098Z</time></trkpt><trkpt lat="44.6668617" lon="8.899625"><ele>257.0</ele><time>2026-04-04T10:13:00.101Z</time></trkpt><trkpt lat="44.6668117" lon="8.8997267"><ele>257.0</ele><time>2026-04-04T10:13:01.098Z</time></trkpt><trkpt lat="44.6667583" lon="8.899835"><ele>257.0</ele><time>2026-04-04T10:13:02.101Z</time></trkpt><trkpt lat="44.6666817" lon="8.89998"><ele>257.0</ele><time>2026-04-04T10:13:03.099Z</time></trkpt><trkpt lat="44.6665983" lon="8.9001567"><ele>257.0</ele><time>2026-04-04T10:13:04.1Z</time></trkpt><trkpt lat="44.6665117" lon="8.90034"><ele>256.6666666666667</ele><time>2026-04-04T10:13:05.102Z</time></trkpt><trkpt lat="44.666425" lon="8.9005383"><ele>256.3333333333333</ele><time>2026-04-04T10:13:06.101Z</time></trkpt><trkpt lat="44.6663467" lon="8.9007383"><ele>256.0</ele><time>2026-04-04T10:13:07.101Z</time></trkpt><trkpt lat="44.6662683" lon="8.900935"><ele>258.0</ele><time>2026-04-04T10:13:08.102Z</time></trkpt><trkpt lat="44.6661917" lon="8.9011233"><ele>260.0</ele><time>2026-04-04T10:13:09.1Z</time></trkpt><trkpt lat="44.6661033" lon="8.9013083"><ele>262.0</ele><time>2026-04-04T10:13:10.1Z</time></trkpt><trkpt lat="44.6660067" lon="8.90148"><ele>262.0</ele><time>2026-04-04T10:13:11.1Z</time></trkpt><trkpt lat="44.66589" lon="8.90163"><ele>262.0</ele><time>2026-04-04T10:13:12.1Z</time></trkpt><trkpt lat="44.6657617" lon="8.901765"><ele>262.0</ele><time>2026-04-04T10:13:13.104Z</time></trkpt><trkpt lat="44.665615" lon="8.9018883"><ele>262.66666666666663</ele><time>2026-04-04T10:13:14.103Z</time></trkpt><trkpt lat="44.6654683" lon="8.9020167"><ele>263.3333333333333</ele><time>2026-04-04T10:13:15.104Z</time></trkpt><trkpt lat="44.66531" lon="8.9021367"><ele>264.0</ele><time>2026-04-04T10:13:16.106Z</time></trkpt><trkpt lat="44.6651517" lon="8.9022583"><ele>264.0</ele><time>2026-04-04T10:13:17.102Z</time></trkpt><trkpt lat="44.6649983" lon="8.9023817"><ele>264.0</ele><time>2026-04-04T10:13:18.096Z</time></trkpt><trkpt lat="44.6648517" lon="8.9025033"><ele>264.0</ele><time>2026-04-04T10:13:19.1Z</time></trkpt><trkpt lat="44.664715" lon="8.9026217"><ele>264.0</ele><time>2026-04-04T10:13:20.104Z</time></trkpt><trkpt lat="44.6645817" lon="8.902735"><ele>264.0</ele><time>2026-04-04T10:13:21.098Z</time></trkpt><trkpt lat="44.6644567" lon="8.9028633"><ele>264.0</ele><time>2026-04-04T10:13:22.099Z</time></trkpt><trkpt lat="44.664335" lon="8.9029967"><ele>264.0</ele><time>2026-04-04T10:13:23.1Z</time></trkpt><trkpt lat="44.6642183" lon="8.90313"><ele>264.0</ele><time>2026-04-04T10:13:24.098Z</time></trkpt><trkpt lat="44.66411" lon="8.9032733"><ele>264.0</ele><time>2026-04-04T10:13:25.099Z</time></trkpt><trkpt lat="44.6640033" lon="8.9034133"><ele>264.0</ele><time>2026-04-04T10:13:26.102Z</time></trkpt><trkpt lat="44.6639067" lon="8.90355"><ele>263.8</ele><time>2026-04-04T10:13:27.101Z</time></trkpt><trkpt lat="44.66382" lon="8.9036767"><ele>263.59999999999997</ele><time>2026-04-04T10:13:28.105Z</time></trkpt><trkpt lat="44.6637483" lon="8.9037433"><ele>263.4</ele><time>2026-04-04T10:13:29.104Z</time></trkpt><trkpt lat="44.6636867" lon="8.9038083"><ele>263.2</ele><time>2026-04-04T10:13:30.101Z</time></trkpt><trkpt lat="44.6636" lon="8.9037983"><ele>263.0</ele><time>2026-04-04T10:13:32.1Z</time></trkpt><trkpt lat="44.6635167" lon="8.9037283"><ele>263.4</ele><time>2026-04-04T10:13:34.102Z</time></trkpt><trkpt lat="44.6634117" lon="8.903625"><ele>263.8</ele><time>2026-04-04T10:13:36.104Z</time></trkpt><trkpt lat="44.6633467" lon="8.9035733"><ele>264.2</ele><time>2026-04-04T10:13:37.102Z</time></trkpt><trkpt lat="44.66327" lon="8.9035133"><ele>264.6</ele><time>2026-04-04T10:13:38.107Z</time></trkpt><trkpt lat="44.66318" lon="8.9034533"><ele>265.0</ele><time>2026-04-04T10:13:39.102Z</time></trkpt><trkpt lat="44.663105" lon="8.903385"><ele>265.16666666666663</ele><time>2026-04-04T10:13:40.098Z</time></trkpt><trkpt lat="44.663015" lon="8.9033217"><ele>265.3333333333333</ele><time>2026-04-04T10:13:41.104Z</time></trkpt><trkpt lat="44.6629317" lon="8.9032567"><ele>265.5</ele><time>2026-04-04T10:13:42.102Z</time></trkpt><trkpt lat="44.662855" lon="8.9032017"><ele>265.6666666666667</ele><time>2026-04-04T10:13:43.1Z</time></trkpt><trkpt lat="44.6627867" lon="8.9031483"><ele>265.83333333333337</ele><time>2026-04-04T10:13:44.099Z</time></trkpt><trkpt lat="44.6627267" lon="8.9031017"><ele>266.0</ele><time>2026-04-04T10:13:45.106Z</time></trkpt><trkpt lat="44.66267" lon="8.903055"><ele>267.40000000000003</ele><time>2026-04-04T10:13:46.101Z</time></trkpt><trkpt lat="44.66258" lon="8.9029633"><ele>268.8</ele><time>2026-04-04T10:13:48.101Z</time></trkpt><trkpt lat="44.66253" lon="8.9028367"><ele>270.20000000000005</ele><time>2026-04-04T10:13:50.103Z</time></trkpt><trkpt lat="44.6624967" lon="8.9027117"><ele>271.6</ele><time>2026-04-04T10:13:52.101Z</time></trkpt><trkpt lat="44.6624967" lon="8.9025267"><ele>273.0</ele><time>2026-04-04T10:13:54.108Z</time></trkpt><trkpt lat="44.6624767" lon="8.90241"><ele>273.8</ele><time>2026-04-04T10:13:55.1Z</time></trkpt><trkpt lat="44.6624433" lon="8.90229"><ele>274.6</ele><time>2026-04-04T10:13:56.103Z</time></trkpt><trkpt lat="44.662405" lon="8.90216"><ele>275.4</ele><time>2026-04-04T10:13:57.1Z</time></trkpt><trkpt lat="44.6623683" lon="8.9020183"><ele>276.2</ele><time>2026-04-04T10:13:58.099Z</time></trkpt><trkpt lat="44.66234" lon="8.90187"><ele>277.0</ele><time>2026-04-04T10:13:59.101Z</time></trkpt><trkpt lat="44.6623083" lon="8.9017267"><ele>277.0</ele><time>2026-04-04T10:14:00.103Z</time></trkpt><trkpt lat="44.6622783" lon="8.9015933"><ele>277.0</ele><time>2026-04-04T10:14:01.102Z</time></trkpt><trkpt lat="44.66225" lon="8.9014667"><ele>277.0</ele><time>2026-04-04T10:14:02.099Z</time></trkpt><trkpt lat="44.662205" lon="8.9013533"><ele>277.0</ele><time>2026-04-04T10:14:03.1Z</time></trkpt><trkpt lat="44.6621683" lon="8.9012583"><ele>277.0</ele><time>2026-04-04T10:14:04.104Z</time></trkpt><trkpt lat="44.66212" lon="8.9011917"><ele>277.0</ele><time>2026-04-04T10:14:05.099Z</time></trkpt><trkpt lat="44.6620517" lon="8.9011633"><ele>277.0</ele><time>2026-04-04T10:14:06.105Z</time></trkpt><trkpt lat="44.6619583" lon="8.9011667"><ele>277.0</ele><time>2026-04-04T10:14:07.1Z</time></trkpt><trkpt lat="44.6618567" lon="8.9011833"><ele>277.0</ele><time>2026-04-04T10:14:08.1Z</time></trkpt><trkpt lat="44.6617733" lon="8.9011933"><ele>277.0</ele><time>2026-04-04T10:14:09.099Z</time></trkpt><trkpt lat="44.6616983" lon="8.9012217"><ele>277.0</ele><time>2026-04-04T10:14:10.098Z</time></trkpt><trkpt lat="44.661645" lon="8.9012717"><ele>277.0</ele><time>2026-04-04T10:14:11.102Z</time></trkpt><trkpt lat="44.6615967" lon="8.9013433"><ele>279.16666666666663</ele><time>2026-04-04T10:14:12.101Z</time></trkpt><trkpt lat="44.6615633" lon="8.90145"><ele>281.3333333333333</ele><time>2026-04-04T10:14:13.104Z</time></trkpt><trkpt lat="44.6615383" lon="8.9015667"><ele>283.5</ele><time>2026-04-04T10:14:14.1Z</time></trkpt><trkpt lat="44.66153" lon="8.90169"><ele>285.6666666666667</ele><time>2026-04-04T10:14:15.101Z</time></trkpt><trkpt lat="44.661535" lon="8.9018117"><ele>287.83333333333337</ele><time>2026-04-04T10:14:16.098Z</time></trkpt><trkpt lat="44.66154" lon="8.9019267"><ele>290.0</ele><time>2026-04-04T10:14:17.102Z</time></trkpt><trkpt lat="44.6615333" lon="8.902025"><ele>290.1666666666667</ele><time>2026-04-04T10:14:18.105Z</time></trkpt><trkpt lat="44.6615167" lon="8.9021183"><ele>290.33333333333337</ele><time>2026-04-04T10:14:19.103Z</time></trkpt><trkpt lat="44.661425" lon="8.9021417"><ele>290.5</ele><time>2026-04-04T10:14:21.104Z</time></trkpt><trkpt lat="44.6613283" lon="8.9020583"><ele>290.6666666666667</ele><time>2026-04-04T10:14:23.1Z</time></trkpt><trkpt lat="44.66128" lon="8.9019683"><ele>290.8333333333333</ele><time>2026-04-04T10:14:24.102Z</time></trkpt><trkpt lat="44.6612267" lon="8.9018683"><ele>291.0</ele><time>2026-04-04T10:14:25.099Z</time></trkpt><trkpt lat="44.6611633" lon="8.9017567"><ele>296.5</ele><time>2026-04-04T10:14:26.107Z</time></trkpt><trkpt lat="44.66109" lon="8.9016333"><ele>302.0</ele><time>2026-04-04T10:14:27.098Z</time></trkpt><trkpt lat="44.6609983" lon="8.9015267"><ele>307.5</ele><time>2026-04-04T10:14:28.097Z</time></trkpt><trkpt lat="44.66091" lon="8.9014217"><ele>313.0</ele><time>2026-04-04T10:14:29.109Z</time></trkpt><trkpt lat="44.6608117" lon="8.9013217"><ele>313.0</ele><time>2026-04-04T10:14:30.098Z</time></trkpt><trkpt lat="44.6607067" lon="8.90122"><ele>313.0</ele><time>2026-04-04T10:14:31.1Z</time></trkpt><trkpt lat="44.6605983" lon="8.9011233"><ele>313.0</ele><time>2026-04-04T10:14:32.099Z</time></trkpt><trkpt lat="44.660485" lon="8.9010433"><ele>313.0</ele><time>2026-04-04T10:14:33.102Z</time></trkpt><trkpt lat="44.6603767" lon="8.90096"><ele>312.0</ele><time>2026-04-04T10:14:34.1Z</time></trkpt><trkpt lat="44.660285" lon="8.9008667"><ele>311.0</ele><time>2026-04-04T10:14:35.101Z</time></trkpt><trkpt lat="44.6601933" lon="8.900765"><ele>310.0</ele><time>2026-04-04T10:14:36.098Z</time></trkpt><trkpt lat="44.6601" lon="8.9006683"><ele>309.0</ele><time>2026-04-04T10:14:37.103Z</time></trkpt><trkpt lat="44.6600033" lon="8.9005717"><ele>313.75</ele><time>2026-04-04T10:14:38.103Z</time></trkpt><trkpt lat="44.6599" lon="8.9004817"><ele>318.5</ele><time>2026-04-04T10:14:39.101Z</time></trkpt><trkpt lat="44.65979" lon="8.9004"><ele>323.25</ele><time>2026-04-04T10:14:40.102Z</time></trkpt><trkpt lat="44.6596833" lon="8.900315"><ele>328.0</ele><time>2026-04-04T10:14:41.101Z</time></trkpt><trkpt lat="44.6595733" lon="8.9002267"><ele>328.0</ele><time>2026-04-04T10:14:42.104Z</time></trkpt><trkpt lat="44.659465" lon="8.900145"><ele>328.0</ele><time>2026-04-04T10:14:43.108Z</time></trkpt><trkpt lat="44.6593467" lon="8.9000783"><ele>328.0</ele><time>2026-04-04T10:14:44.101Z</time></trkpt><trkpt lat="44.659225" lon="8.9000167"><ele>328.0</ele><time>2026-04-04T10:14:45.098Z</time></trkpt><trkpt lat="44.6590917" lon="8.8999617"><ele>330.5</ele><time>2026-04-04T10:14:46.1Z</time></trkpt><trkpt lat="44.658945" lon="8.8999133"><ele>333.0</ele><time>2026-04-04T10:14:47.103Z</time></trkpt><trkpt lat="44.6588117" lon="8.8998633"><ele>335.5</ele><time>2026-04-04T10:14:48.108Z</time></trkpt><trkpt lat="44.65867" lon="8.89982"><ele>338.0</ele><time>2026-04-04T10:14:49.1Z</time></trkpt><trkpt lat="44.6585317" lon="8.89979"><ele>341.5</ele><time>2026-04-04T10:14:50.098Z</time></trkpt><trkpt lat="44.6583933" lon="8.8997783"><ele>345.0</ele><time>2026-04-04T10:14:51.1Z</time></trkpt><trkpt lat="44.6582433" lon="8.8997717"><ele>348.5</ele><time>2026-04-04T10:14:52.097Z</time></trkpt><trkpt lat="44.658105" lon="8.89976"><ele>352.0</ele><time>2026-04-04T10:14:53.1Z</time></trkpt><trkpt lat="44.6579667" lon="8.89977"><ele>352.0</ele><time>2026-04-04T10:14:54.099Z</time></trkpt><trkpt lat="44.6578333" lon="8.89978"><ele>352.0</ele><time>2026-04-04T10:14:55.106Z</time></trkpt><trkpt lat="44.6577067" lon="8.8997917"><ele>352.0</ele><time>2026-04-04T10:14:56.102Z</time></trkpt><trkpt lat="44.6575883" lon="8.8997783"><ele>352.0</ele><time>2026-04-04T10:14:57.109Z</time></trkpt><trkpt lat="44.65747" lon="8.8997417"><ele>353.5</ele><time>2026-04-04T10:14:58.102Z</time></trkpt><trkpt lat="44.65735" lon="8.8997217"><ele>355.0</ele><time>2026-04-04T10:14:59.099Z</time></trkpt><trkpt lat="44.6572317" lon="8.8997217"><ele>356.5</ele><time>2026-04-04T10:15:00.099Z</time></trkpt><trkpt lat="44.65712" lon="8.89973"><ele>358.0</ele><time>2026-04-04T10:15:01.104Z</time></trkpt><trkpt lat="44.6570133" lon="8.8997133"><ele>358.75</ele><time>2026-04-04T10:15:02.1Z</time></trkpt><trkpt lat="44.6569083" lon="8.89966"><ele>359.5</ele><time>2026-04-04T10:15:03.098Z</time></trkpt><trkpt lat="44.656805" lon="8.899585"><ele>360.25</ele><time>2026-04-04T10:15:04.102Z</time></trkpt><trkpt lat="44.6567083" lon="8.8994933"><ele>361.0</ele><time>2026-04-04T10:15:05.1Z</time></trkpt><trkpt lat="44.65662" lon="8.8994067"><ele>361.0</ele><time>2026-04-04T10:15:06.1Z</time></trkpt><trkpt lat="44.656545" lon="8.89933"><ele>361.0</ele><time>2026-04-04T10:15:07.102Z</time></trkpt><trkpt lat="44.6564833" lon="8.8992567"><ele>361.0</ele><time>2026-04-04T10:15:08.1Z</time></trkpt><trkpt lat="44.6564233" lon="8.8991783"><ele>361.0</ele><time>2026-04-04T10:15:09.099Z</time></trkpt><trkpt lat="44.6563667" lon="8.8990717"><ele>361.0</ele><time>2026-04-04T10:15:10.102Z</time></trkpt><trkpt lat="44.65632" lon="8.8989317"><ele>360.75</ele><time>2026-04-04T10:15:11.1Z</time></trkpt><trkpt lat="44.6562683" lon="8.8987717"><ele>360.5</ele><time>2026-04-04T10:15:12.103Z</time></trkpt><trkpt lat="44.656205" lon="8.8985867"><ele>360.25</ele><time>2026-04-04T10:15:13.099Z</time></trkpt><trkpt lat="44.6561283" lon="8.8983933"><ele>360.0</ele><time>2026-04-04T10:15:14.099Z</time></trkpt><trkpt lat="44.6560517" lon="8.8981883"><ele>364.6666666666667</ele><time>2026-04-04T10:15:15.1Z</time></trkpt><trkpt lat="44.6559717" lon="8.89798"><ele>369.33333333333337</ele><time>2026-04-04T10:15:16.098Z</time></trkpt><trkpt lat="44.6558933" lon="8.89778"><ele>374.0</ele><time>2026-04-04T10:15:17.1Z</time></trkpt><trkpt lat="44.6558333" lon="8.8975783"><ele>374.25</ele><time>2026-04-04T10:15:18.1Z</time></trkpt><trkpt lat="44.655785" lon="8.897385"><ele>374.5</ele><time>2026-04-04T10:15:19.113Z</time></trkpt><trkpt lat="44.6557483" lon="8.8972"><ele>374.75</ele><time>2026-04-04T10:15:20.1Z</time></trkpt><trkpt lat="44.655715" lon="8.897015"><ele>375.0</ele><time>2026-04-04T10:15:21.099Z</time></trkpt><trkpt lat="44.6557" lon="8.8968233"><ele>375.5</ele><time>2026-04-04T10:15:22.099Z</time></trkpt><trkpt lat="44.6557067" lon="8.8966217"><ele>376.0</ele><time>2026-04-04T10:15:23.099Z</time></trkpt><trkpt lat="44.6557367" lon="8.8964117"><ele>376.5</ele><time>2026-04-04T10:15:24.103Z</time></trkpt><trkpt lat="44.6557817" lon="8.8962117"><ele>377.0</ele><time>2026-04-04T10:15:25.104Z</time></trkpt><trkpt lat="44.65585" lon="8.8960067"><ele>380.0</ele><time>2026-04-04T10:15:26.101Z</time></trkpt><trkpt lat="44.65591" lon="8.8957983"><ele>383.0</ele><time>2026-04-04T10:15:27.107Z</time></trkpt><trkpt lat="44.6559683" lon="8.8955867"><ele>386.0</ele><time>2026-04-04T10:15:28.101Z</time></trkpt><trkpt lat="44.6560017" lon="8.8953917"><ele>386.0</ele><time>2026-04-04T10:15:29.115Z</time></trkpt><trkpt lat="44.6560167" lon="8.8951983"><ele>386.0</ele><time>2026-04-04T10:15:30.108Z</time></trkpt><trkpt lat="44.656005" lon="8.8950017"><ele>386.0</ele><time>2026-04-04T10:15:31.103Z</time></trkpt><trkpt lat="44.6559517" lon="8.8948133"><ele>386.0</ele><time>2026-04-04T10:15:32.103Z</time></trkpt><trkpt lat="44.655905" lon="8.8946033"><ele>386.3333333333333</ele><time>2026-04-04T10:15:33.099Z</time></trkpt><trkpt lat="44.655845" lon="8.89439"><ele>386.66666666666663</ele><time>2026-04-04T10:15:34.1Z</time></trkpt><trkpt lat="44.65577" lon="8.8942033"><ele>387.0</ele><time>2026-04-04T10:15:35.1Z</time></trkpt><trkpt lat="44.6557" lon="8.8940267"><ele>387.75</ele><time>2026-04-04T10:15:36.103Z</time></trkpt><trkpt lat="44.6556183" lon="8.8938667"><ele>388.5</ele><time>2026-04-04T10:15:37.106Z</time></trkpt><trkpt lat="44.655505" lon="8.8937333"><ele>389.25</ele><time>2026-04-04T10:15:38.098Z</time></trkpt><trkpt lat="44.65541" lon="8.8935817"><ele>390.0</ele><time>2026-04-04T10:15:39.103Z</time></trkpt><trkpt lat="44.655305" lon="8.8934317"><ele>391.0</ele><time>2026-04-04T10:15:40.102Z</time></trkpt><trkpt lat="44.6552033" lon="8.8932767"><ele>392.0</ele><time>2026-04-04T10:15:41.1Z</time></trkpt><trkpt lat="44.65511" lon="8.893135"><ele>393.0</ele><time>2026-04-04T10:15:42.102Z</time></trkpt><trkpt lat="44.6550433" lon="8.89298"><ele>394.0</ele><time>2026-04-04T10:15:43.101Z</time></trkpt><trkpt lat="44.654995" lon="8.8928317"><ele>394.0</ele><time>2026-04-04T10:15:44.103Z</time></trkpt><trkpt lat="44.6549733" lon="8.8926717"><ele>394.0</ele><time>2026-04-04T10:15:45.098Z</time></trkpt><trkpt lat="44.654965" lon="8.8924983"><ele>394.0</ele><time>2026-04-04T10:15:46.101Z</time></trkpt><trkpt lat="44.6549567" lon="8.8923117"><ele>394.0</ele><time>2026-04-04T10:15:47.102Z</time></trkpt><trkpt lat="44.6549383" lon="8.8921083"><ele>394.0</ele><time>2026-04-04T10:15:48.104Z</time></trkpt><trkpt lat="44.6549167" lon="8.8919133"><ele>394.0</ele><time>2026-04-04T10:15:49.105Z</time></trkpt><trkpt lat="44.6548883" lon="8.8917333"><ele>394.0</ele><time>2026-04-04T10:15:50.102Z</time></trkpt><trkpt lat="44.6548667" lon="8.891575"><ele>394.0</ele><time>2026-04-04T10:15:51.101Z</time></trkpt><trkpt lat="44.654825" lon="8.8914467"><ele>394.0</ele><time>2026-04-04T10:15:52.101Z</time></trkpt><trkpt lat="44.65477" lon="8.8913383"><ele>394.0</ele><time>2026-04-04T10:15:53.101Z</time></trkpt><trkpt lat="44.6546933" lon="8.89125"><ele>394.0</ele><time>2026-04-04T10:15:54.1Z</time></trkpt><trkpt lat="44.6546083" lon="8.8911767"><ele>394.0</ele><time>2026-04-04T10:15:55.1Z</time></trkpt><trkpt lat="44.6545367" lon="8.8911183"><ele>394.0</ele><time>2026-04-04T10:15:56.099Z</time></trkpt><trkpt lat="44.6544733" lon="8.8910567"><ele>394.6</ele><time>2026-04-04T10:15:57.101Z</time></trkpt><trkpt lat="44.6544333" lon="8.890985"><ele>395.2</ele><time>2026-04-04T10:15:58.109Z</time></trkpt><trkpt lat="44.6544817" lon="8.8907767"><ele>395.8</ele><time>2026-04-04T10:16:00.099Z</time></trkpt><trkpt lat="44.6545367" lon="8.8906567"><ele>396.40000000000003</ele><time>2026-04-04T10:16:01.098Z</time></trkpt><trkpt lat="44.654565" lon="8.8905133"><ele>397.0</ele><time>2026-04-04T10:16:02.099Z</time></trkpt><trkpt lat="44.6545683" lon="8.8903467"><ele>397.0</ele><time>2026-04-04T10:16:03.1Z</time></trkpt><trkpt lat="44.6545567" lon="8.8901683"><ele>397.0</ele><time>2026-04-04T10:16:04.1Z</time></trkpt><trkpt lat="44.654545" lon="8.8899883"><ele>397.0</ele><time>2026-04-04T10:16:05.104Z</time></trkpt><trkpt lat="44.6545267" lon="8.8898067"><ele>397.0</ele><time>2026-04-04T10:16:06.101Z</time></trkpt><trkpt lat="44.6545067" lon="8.8896183"><ele>398.5</ele><time>2026-04-04T10:16:07.103Z</time></trkpt><trkpt lat="44.6544667" lon="8.889435"><ele>400.0</ele><time>2026-04-04T10:16:08.099Z</time></trkpt><trkpt lat="44.6544183" lon="8.8892517"><ele>401.5</ele><time>2026-04-04T10:16:09.1Z</time></trkpt><trkpt lat="44.65436" lon="8.88907"><ele>403.0</ele><time>2026-04-04T10:16:10.101Z</time></trkpt><trkpt lat="44.6542917" lon="8.88889"><ele>409.25</ele><time>2026-04-04T10:16:11.104Z</time></trkpt><trkpt lat="44.654215" lon="8.8887117"><ele>415.5</ele><time>2026-04-04T10:16:12.109Z</time></trkpt><trkpt lat="44.6541667" lon="8.8885267"><ele>421.75</ele><time>2026-04-04T10:16:13.107Z</time></trkpt><trkpt lat="44.65409" lon="8.888375"><ele>428.0</ele><time>2026-04-04T10:16:14.106Z</time></trkpt><trkpt lat="44.6540267" lon="8.8882233"><ele>428.0</ele><time>2026-04-04T10:16:15.1Z</time></trkpt><trkpt lat="44.6539883" lon="8.888055"><ele>428.0</ele><time>2026-04-04T10:16:16.1Z</time></trkpt><trkpt lat="44.653965" lon="8.887875"><ele>428.0</ele><time>2026-04-04T10:16:17.101Z</time></trkpt><trkpt lat="44.6539367" lon="8.8877067"><ele>428.0</ele><time>2026-04-04T10:16:18.106Z</time></trkpt><trkpt lat="44.6538933" lon="8.8875433"><ele>428.0</ele><time>2026-04-04T10:16:19.108Z</time></trkpt><trkpt lat="44.6538233" lon="8.8873983"><ele>428.0</ele><time>2026-04-04T10:16:20.107Z</time></trkpt><trkpt lat="44.6537417" lon="8.8872567"><ele>428.0</ele><time>2026-04-04T10:16:21.103Z</time></trkpt><trkpt lat="44.653685" lon="8.8871033"><ele>428.0</ele><time>2026-04-04T10:16:22.101Z</time></trkpt><trkpt lat="44.653615" lon="8.8869433"><ele>434.75</ele><time>2026-04-04T10:16:23.102Z</time></trkpt><trkpt lat="44.6535617" lon="8.8867817"><ele>441.5</ele><time>2026-04-04T10:16:24.099Z</time></trkpt><trkpt lat="44.6535283" lon="8.88661"><ele>448.25</ele><time>2026-04-04T10:16:25.1Z</time></trkpt><trkpt lat="44.6535067" lon="8.886425"><ele>455.0</ele><time>2026-04-04T10:16:26.103Z</time></trkpt><trkpt lat="44.6534967" lon="8.8862267"><ele>455.0</ele><time>2026-04-04T10:16:27.1Z</time></trkpt><trkpt lat="44.6534583" lon="8.886035"><ele>455.0</ele><time>2026-04-04T10:16:28.1Z</time></trkpt><trkpt lat="44.6534217" lon="8.885855"><ele>455.0</ele><time>2026-04-04T10:16:29.102Z</time></trkpt><trkpt lat="44.6533883" lon="8.8856867"><ele>455.0</ele><time>2026-04-04T10:16:30.102Z</time></trkpt><trkpt lat="44.6533833" lon="8.8855133"><ele>455.2</ele><time>2026-04-04T10:16:31.1Z</time></trkpt><trkpt lat="44.6533833" lon="8.8853467"><ele>455.4</ele><time>2026-04-04T10:16:32.101Z</time></trkpt><trkpt lat="44.6533533" lon="8.8852067"><ele>455.6</ele><time>2026-04-04T10:16:33.101Z</time></trkpt><trkpt lat="44.6533017" lon="8.8850817"><ele>455.8</ele><time>2026-04-04T10:16:34.1Z</time></trkpt><trkpt lat="44.6532433" lon="8.8849667"><ele>456.0</ele><time>2026-04-04T10:16:35.102Z</time></trkpt><trkpt lat="44.6531983" lon="8.8848417"><ele>455.6</ele><time>2026-04-04T10:16:36.097Z</time></trkpt><trkpt lat="44.65318" lon="8.8847133"><ele>455.20000000000005</ele><time>2026-04-04T10:16:37.105Z</time></trkpt><trkpt lat="44.6531867" lon="8.8845717"><ele>454.79999999999995</ele><time>2026-04-04T10:16:38.101Z</time></trkpt><trkpt lat="44.6531867" lon="8.8844267"><ele>454.4</ele><time>2026-04-04T10:16:39.101Z</time></trkpt><trkpt lat="44.65316" lon="8.8842933"><ele>454.0</ele><time>2026-04-04T10:16:40.107Z</time></trkpt><trkpt lat="44.653125" lon="8.884155"><ele>454.0</ele><time>2026-04-04T10:16:41.102Z</time></trkpt><trkpt lat="44.6530867" lon="8.8840117"><ele>454.0</ele><time>2026-04-04T10:16:42.104Z</time></trkpt><trkpt lat="44.6530633" lon="8.8838633"><ele>454.0</ele><time>2026-04-04T10:16:43.105Z</time></trkpt><trkpt lat="44.6530567" lon="8.8837017"><ele>454.0</ele><time>2026-04-04T10:16:44.101Z</time></trkpt><trkpt lat="44.6530467" lon="8.8835317"><ele>453.5</ele><time>2026-04-04T10:16:45.1Z</time></trkpt><trkpt lat="44.6530133" lon="8.88336"><ele>453.0</ele><time>2026-04-04T10:16:46.098Z</time></trkpt><trkpt lat="44.6529667" lon="8.8831883"><ele>452.5</ele><time>2026-04-04T10:16:47.1Z</time></trkpt><trkpt lat="44.652915" lon="8.883015"><ele>452.0</ele><time>2026-04-04T10:16:48.1Z</time></trkpt><trkpt lat="44.6528667" lon="8.8828367"><ele>452.0</ele><time>2026-04-04T10:16:49.101Z</time></trkpt><trkpt lat="44.652815" lon="8.882665"><ele>452.0</ele><time>2026-04-04T10:16:50.101Z</time></trkpt><trkpt lat="44.65276" lon="8.8824983"><ele>452.0</ele><time>2026-04-04T10:16:51.1Z</time></trkpt><trkpt lat="44.6526917" lon="8.88234"><ele>452.0</ele><time>2026-04-04T10:16:52.1Z</time></trkpt><trkpt lat="44.652615" lon="8.8821883"><ele>456.75</ele><time>2026-04-04T10:16:53.1Z</time></trkpt><trkpt lat="44.65254" lon="8.8820433"><ele>461.5</ele><time>2026-04-04T10:16:54.1Z</time></trkpt><trkpt lat="44.6524667" lon="8.8819017"><ele>466.25</ele><time>2026-04-04T10:16:55.102Z</time></trkpt><trkpt lat="44.6524017" lon="8.88175"><ele>471.0</ele><time>2026-04-04T10:16:56.102Z</time></trkpt><trkpt lat="44.65234" lon="8.8816"><ele>471.0</ele><time>2026-04-04T10:16:57.102Z</time></trkpt><trkpt lat="44.6522867" lon="8.8814483"><ele>471.0</ele><time>2026-04-04T10:16:58.099Z</time></trkpt><trkpt lat="44.6522467" lon="8.8812917"><ele>471.0</ele><time>2026-04-04T10:16:59.105Z</time></trkpt><trkpt lat="44.6522233" lon="8.8811383"><ele>471.0</ele><time>2026-04-04T10:17:00.102Z</time></trkpt><trkpt lat="44.6522183" lon="8.880985"><ele>470.5</ele><time>2026-04-04T10:17:01.097Z</time></trkpt><trkpt lat="44.6522467" lon="8.8808133"><ele>470.0</ele><time>2026-04-04T10:17:02.101Z</time></trkpt><trkpt lat="44.6522817" lon="8.8806333"><ele>469.5</ele><time>2026-04-04T10:17:03.103Z</time></trkpt><trkpt lat="44.6523333" lon="8.8804483"><ele>469.0</ele><time>2026-04-04T10:17:04.103Z</time></trkpt><trkpt lat="44.6524133" lon="8.8802717"><ele>473.0</ele><time>2026-04-04T10:17:05.107Z</time></trkpt><trkpt lat="44.652475" lon="8.8800967"><ele>477.0</ele><time>2026-04-04T10:17:06.099Z</time></trkpt><trkpt lat="44.6525333" lon="8.87992"><ele>481.0</ele><time>2026-04-04T10:17:07.099Z</time></trkpt><trkpt lat="44.652565" lon="8.8797583"><ele>485.0</ele><time>2026-04-04T10:17:08.102Z</time></trkpt><trkpt lat="44.6525833" lon="8.8796183"><ele>484.99999999999994</ele><time>2026-04-04T10:17:09.098Z</time></trkpt><trkpt lat="44.652605" lon="8.879505"><ele>485.0</ele><time>2026-04-04T10:17:10.099Z</time></trkpt><trkpt lat="44.65264" lon="8.879405"><ele>485.0</ele><time>2026-04-04T10:17:11.098Z</time></trkpt><trkpt lat="44.6526933" lon="8.8793167"><ele>485.0</ele><time>2026-04-04T10:17:12.099Z</time></trkpt><trkpt lat="44.6527617" lon="8.8792367"><ele>484.99999999999994</ele><time>2026-04-04T10:17:13.103Z</time></trkpt><trkpt lat="44.65284" lon="8.879145"><ele>485.0</ele><time>2026-04-04T10:17:14.101Z</time></trkpt><trkpt lat="44.6529083" lon="8.8790117"><ele>481.0</ele><time>2026-04-04T10:17:15.101Z</time></trkpt><trkpt lat="44.6529633" lon="8.878865"><ele>477.0</ele><time>2026-04-04T10:17:16.104Z</time></trkpt><trkpt lat="44.6530167" lon="8.8787083"><ele>473.0</ele><time>2026-04-04T10:17:17.1Z</time></trkpt><trkpt lat="44.6530867" lon="8.8785617"><ele>469.0</ele><time>2026-04-04T10:17:18.101Z</time></trkpt><trkpt lat="44.653165" lon="8.878425"><ele>469.0</ele><time>2026-04-04T10:17:19.102Z</time></trkpt><trkpt lat="44.653225" lon="8.878285"><ele>469.0</ele><time>2026-04-04T10:17:20.102Z</time></trkpt><trkpt lat="44.6532717" lon="8.878125"><ele>469.0</ele><time>2026-04-04T10:17:21.104Z</time></trkpt><trkpt lat="44.6532933" lon="8.8779533"><ele>469.0</ele><time>2026-04-04T10:17:22.103Z</time></trkpt><trkpt lat="44.6533217" lon="8.87778"><ele>469.5</ele><time>2026-04-04T10:17:23.101Z</time></trkpt><trkpt lat="44.6533483" lon="8.8776017"><ele>470.0</ele><time>2026-04-04T10:17:24.105Z</time></trkpt><trkpt lat="44.6533717" lon="8.87743"><ele>470.5</ele><time>2026-04-04T10:17:25.103Z</time></trkpt><trkpt lat="44.6533983" lon="8.8772683"><ele>471.0</ele><time>2026-04-04T10:17:26.108Z</time></trkpt><trkpt lat="44.6534383" lon="8.87711"><ele>471.0</ele><time>2026-04-04T10:17:27.102Z</time></trkpt><trkpt lat="44.65348" lon="8.87697"><ele>471.0</ele><time>2026-04-04T10:17:28.096Z</time></trkpt><trkpt lat="44.6535183" lon="8.8768517"><ele>471.0</ele><time>2026-04-04T10:17:29.098Z</time></trkpt><trkpt lat="44.6535467" lon="8.876735"><ele>471.0</ele><time>2026-04-04T10:17:30.098Z</time></trkpt><trkpt lat="44.6535633" lon="8.87662"><ele>471.0</ele><time>2026-04-04T10:17:31.1Z</time></trkpt><trkpt lat="44.653565" lon="8.87651"><ele>470.6666666666667</ele><time>2026-04-04T10:17:32.099Z</time></trkpt><trkpt lat="44.6535467" lon="8.8764067"><ele>470.33333333333337</ele><time>2026-04-04T10:17:33.098Z</time></trkpt><trkpt lat="44.653505" lon="8.876315"><ele>470.0</ele><time>2026-04-04T10:17:34.099Z</time></trkpt><trkpt lat="44.653435" lon="8.8762517"><ele>469.6666666666667</ele><time>2026-04-04T10:17:35.109Z</time></trkpt><trkpt lat="44.6533567" lon="8.8762067"><ele>469.33333333333337</ele><time>2026-04-04T10:17:36.098Z</time></trkpt><trkpt lat="44.653295" lon="8.8761333"><ele>469.0</ele><time>2026-04-04T10:17:37.1Z</time></trkpt><trkpt lat="44.6532383" lon="8.8760467"><ele>469.00000000000006</ele><time>2026-04-04T10:17:38.097Z</time></trkpt><trkpt lat="44.6531917" lon="8.8759633"><ele>469.0</ele><time>2026-04-04T10:17:39.1Z</time></trkpt><trkpt lat="44.6531817" lon="8.8758567"><ele>469.0</ele><time>2026-04-04T10:17:40.1Z</time></trkpt><trkpt lat="44.6532" lon="8.8757333"><ele>469.0</ele><time>2026-04-04T10:17:41.102Z</time></trkpt><trkpt lat="44.65321" lon="8.8756083"><ele>469.00000000000006</ele><time>2026-04-04T10:17:42.1Z</time></trkpt><trkpt lat="44.6532033" lon="8.875485"><ele>469.0</ele><time>2026-04-04T10:17:43.105Z</time></trkpt><trkpt lat="44.6531817" lon="8.875365"><ele>467.79999999999995</ele><time>2026-04-04T10:17:44.102Z</time></trkpt><trkpt lat="44.65314" lon="8.8752417"><ele>466.59999999999997</ele><time>2026-04-04T10:17:45.101Z</time></trkpt><trkpt lat="44.6530667" lon="8.87516"><ele>465.4</ele><time>2026-04-04T10:17:46.099Z</time></trkpt><trkpt lat="44.653" lon="8.8750717"><ele>464.2</ele><time>2026-04-04T10:17:47.106Z</time></trkpt><trkpt lat="44.65292" lon="8.8749917"><ele>463.0</ele><time>2026-04-04T10:17:48.097Z</time></trkpt><trkpt lat="44.6528417" lon="8.87491"><ele>464.83333333333337</ele><time>2026-04-04T10:17:49.102Z</time></trkpt><trkpt lat="44.6527633" lon="8.8748367"><ele>466.6666666666667</ele><time>2026-04-04T10:17:50.099Z</time></trkpt><trkpt lat="44.6526883" lon="8.8747683"><ele>468.5</ele><time>2026-04-04T10:17:51.104Z</time></trkpt><trkpt lat="44.6526367" lon="8.8746917"><ele>470.33333333333337</ele><time>2026-04-04T10:17:52.109Z</time></trkpt><trkpt lat="44.6525867" lon="8.8746167"><ele>472.1666666666667</ele><time>2026-04-04T10:17:53.11Z</time></trkpt><trkpt lat="44.65259" lon="8.87452"><ele>474.0</ele><time>2026-04-04T10:17:54.098Z</time></trkpt><trkpt lat="44.6526167" lon="8.8744333"><ele>474.0</ele><time>2026-04-04T10:17:55.099Z</time></trkpt><trkpt lat="44.6526233" lon="8.874335"><ele>474.0</ele><time>2026-04-04T10:17:56.098Z</time></trkpt><trkpt lat="44.6526167" lon="8.8742333"><ele>474.0</ele><time>2026-04-04T10:17:57.101Z</time></trkpt><trkpt lat="44.65262" lon="8.8741383"><ele>474.0</ele><time>2026-04-04T10:17:58.102Z</time></trkpt><trkpt lat="44.65261" lon="8.8739667"><ele>474.0</ele><time>2026-04-04T10:18:00.099Z</time></trkpt><trkpt lat="44.6526117" lon="8.873875"><ele>474.0</ele><time>2026-04-04T10:18:01.103Z</time></trkpt><trkpt lat="44.6526183" lon="8.8737867"><ele>473.5</ele><time>2026-04-04T10:18:02.101Z</time></trkpt><trkpt lat="44.6526167" lon="8.873685"><ele>473.0</ele><time>2026-04-04T10:18:03.104Z</time></trkpt><trkpt lat="44.6526233" lon="8.87359"><ele>472.5</ele><time>2026-04-04T10:18:04.101Z</time></trkpt><trkpt lat="44.6526333" lon="8.8734967"><ele>472.0</ele><time>2026-04-04T10:18:05.101Z</time></trkpt><trkpt lat="44.6526517" lon="8.8733417"><ele>471.5</ele><time>2026-04-04T10:18:07.102Z</time></trkpt><trkpt lat="44.652655" lon="8.8732033"><ele>471.0</ele><time>2026-04-04T10:18:09.104Z</time></trkpt><trkpt lat="44.65263" lon="8.8730717"><ele>470.4</ele><time>2026-04-04T10:18:11.102Z</time></trkpt><trkpt lat="44.6526317" lon="8.8729367"><ele>469.8</ele><time>2026-04-04T10:18:13.097Z</time></trkpt><trkpt lat="44.6526667" lon="8.8728167"><ele>469.19999999999993</ele><time>2026-04-04T10:18:15.096Z</time></trkpt><trkpt lat="44.65273" lon="8.87273"><ele>468.59999999999997</ele><time>2026-04-04T10:18:17.098Z</time></trkpt><trkpt lat="44.6528167" lon="8.8726517"><ele>468.0</ele><time>2026-04-04T10:18:19.101Z</time></trkpt><trkpt lat="44.652915" lon="8.872565"><ele>465.0</ele><time>2026-04-04T10:18:21.102Z</time></trkpt><trkpt lat="44.65299" lon="8.8725217"><ele>461.99999999999994</ele><time>2026-04-04T10:18:23.102Z</time></trkpt><trkpt lat="44.6530733" lon="8.87254"><ele>458.99999999999994</ele><time>2026-04-04T10:18:26.1Z</time></trkpt><trkpt lat="44.65317" lon="8.8725883"><ele>456.0</ele><time>2026-04-04T10:18:28.1Z</time></trkpt><trkpt lat="44.6532983" lon="8.8726217"><ele>453.0</ele><time>2026-04-04T10:18:30.102Z</time></trkpt><trkpt lat="44.65337" lon="8.8725933"><ele>452.0</ele><time>2026-04-04T10:18:31.101Z</time></trkpt><trkpt lat="44.6534333" lon="8.872565"><ele>451.0</ele><time>2026-04-04T10:18:32.098Z</time></trkpt><trkpt lat="44.6535133" lon="8.8725283"><ele>450.0</ele><time>2026-04-04T10:18:33.1Z</time></trkpt><trkpt lat="44.6536033" lon="8.8724883"><ele>449.0</ele><time>2026-04-04T10:18:34.101Z</time></trkpt><trkpt lat="44.65369" lon="8.8724567"><ele>448.0</ele><time>2026-04-04T10:18:35.1Z</time></trkpt><trkpt lat="44.653785" lon="8.872425"><ele>447.0</ele><time>2026-04-04T10:18:36.104Z</time></trkpt><trkpt lat="44.6538817" lon="8.8724"><ele>444.40000000000003</ele><time>2026-04-04T10:18:37.105Z</time></trkpt><trkpt lat="44.65399" lon="8.87237"><ele>441.80000000000007</ele><time>2026-04-04T10:18:38.113Z</time></trkpt><trkpt lat="44.6541017" lon="8.87234"><ele>439.2</ele><time>2026-04-04T10:18:39.099Z</time></trkpt><trkpt lat="44.6542033" lon="8.8723167"><ele>436.6</ele><time>2026-04-04T10:18:40.101Z</time></trkpt><trkpt lat="44.6542933" lon="8.87231"><ele>434.0</ele><time>2026-04-04T10:18:41.102Z</time></trkpt><trkpt lat="44.6543883" lon="8.8723117"><ele>431.4</ele><time>2026-04-04T10:18:42.097Z</time></trkpt><trkpt lat="44.6544833" lon="8.8722983"><ele>428.79999999999995</ele><time>2026-04-04T10:18:43.108Z</time></trkpt><trkpt lat="44.65458" lon="8.8722517"><ele>426.20000000000005</ele><time>2026-04-04T10:18:44.099Z</time></trkpt><trkpt lat="44.6546783" lon="8.87219"><ele>423.6</ele><time>2026-04-04T10:18:45.099Z</time></trkpt><trkpt lat="44.6547733" lon="8.8721183"><ele>421.0</ele><time>2026-04-04T10:18:46.1Z</time></trkpt><trkpt lat="44.65487" lon="8.8720417"><ele>421.0</ele><time>2026-04-04T10:18:47.1Z</time></trkpt><trkpt lat="44.6549667" lon="8.8719567"><ele>421.0</ele><time>2026-04-04T10:18:48.103Z</time></trkpt><trkpt lat="44.6550633" lon="8.8718733"><ele>421.0</ele><time>2026-04-04T10:18:49.101Z</time></trkpt><trkpt lat="44.6551533" lon="8.871795"><ele>421.0</ele><time>2026-04-04T10:18:50.105Z</time></trkpt><trkpt lat="44.6552417" lon="8.87173"><ele>421.0</ele><time>2026-04-04T10:18:51.1Z</time></trkpt><trkpt lat="44.6553267" lon="8.871665"><ele>418.0</ele><time>2026-04-04T10:18:52.105Z</time></trkpt><trkpt lat="44.6554133" lon="8.8716"><ele>415.0</ele><time>2026-04-04T10:18:53.106Z</time></trkpt><trkpt lat="44.6554983" lon="8.8715317"><ele>412.0</ele><time>2026-04-04T10:18:54.101Z</time></trkpt><trkpt lat="44.6555833" lon="8.871455"><ele>409.0</ele><time>2026-04-04T10:18:55.106Z</time></trkpt><trkpt lat="44.65567" lon="8.871385"><ele>406.0</ele><time>2026-04-04T10:18:56.098Z</time></trkpt><trkpt lat="44.6557567" lon="8.8713183"><ele>406.00000000000006</ele><time>2026-04-04T10:18:57.104Z</time></trkpt><trkpt lat="44.6558367" lon="8.8712683"><ele>406.0</ele><time>2026-04-04T10:18:58.098Z</time></trkpt><trkpt lat="44.6559133" lon="8.8712317"><ele>406.0</ele><time>2026-04-04T10:18:59.1Z</time></trkpt><trkpt lat="44.65599" lon="8.8712167"><ele>406.0</ele><time>2026-04-04T10:19:00.099Z</time></trkpt><trkpt lat="44.6560717" lon="8.8712183"><ele>406.00000000000006</ele><time>2026-04-04T10:19:01.098Z</time></trkpt><trkpt lat="44.6561583" lon="8.8712183"><ele>406.0</ele><time>2026-04-04T10:19:02.098Z</time></trkpt><trkpt lat="44.6562383" lon="8.8712133"><ele>405.50000000000006</ele><time>2026-04-04T10:19:03.099Z</time></trkpt><trkpt lat="44.656315" lon="8.8711917"><ele>405.0</ele><time>2026-04-04T10:19:04.098Z</time></trkpt><trkpt lat="44.6563833" lon="8.871155"><ele>404.5</ele><time>2026-04-04T10:19:05.103Z</time></trkpt><trkpt lat="44.656385" lon="8.87105"><ele>404.0</ele><time>2026-04-04T10:19:06.099Z</time></trkpt><trkpt lat="44.6564083" lon="8.87095"><ele>403.50000000000006</ele><time>2026-04-04T10:19:07.101Z</time></trkpt><trkpt lat="44.6564233" lon="8.8708167"><ele>403.0</ele><time>2026-04-04T10:19:08.098Z</time></trkpt><trkpt lat="44.65643" lon="8.8706683"><ele>402.2</ele><time>2026-04-04T10:19:09.105Z</time></trkpt><trkpt lat="44.656425" lon="8.8705333"><ele>401.4</ele><time>2026-04-04T10:19:10.103Z</time></trkpt><trkpt lat="44.6564183" lon="8.87041"><ele>400.59999999999997</ele><time>2026-04-04T10:19:11.102Z</time></trkpt><trkpt lat="44.65641" lon="8.870285"><ele>399.79999999999995</ele><time>2026-04-04T10:19:12.104Z</time></trkpt><trkpt lat="44.6563983" lon="8.8701583"><ele>399.0</ele><time>2026-04-04T10:19:13.105Z</time></trkpt><trkpt lat="44.6563917" lon="8.8700183"><ele>398.5</ele><time>2026-04-04T10:19:14.099Z</time></trkpt><trkpt lat="44.65638" lon="8.869895"><ele>398.0</ele><time>2026-04-04T10:19:15.106Z</time></trkpt><trkpt lat="44.656365" lon="8.8697783"><ele>397.5</ele><time>2026-04-04T10:19:16.1Z</time></trkpt><trkpt lat="44.65635" lon="8.869665"><ele>397.0</ele><time>2026-04-04T10:19:17.103Z</time></trkpt><trkpt lat="44.6563417" lon="8.86956"><ele>396.5</ele><time>2026-04-04T10:19:18.102Z</time></trkpt><trkpt lat="44.656325" lon="8.869465"><ele>396.0</ele><time>2026-04-04T10:19:19.1Z</time></trkpt><trkpt lat="44.6562917" lon="8.86931"><ele>396.4</ele><time>2026-04-04T10:19:21.098Z</time></trkpt><trkpt lat="44.6562933" lon="8.869155"><ele>396.8</ele><time>2026-04-04T10:19:23.1Z</time></trkpt><trkpt lat="44.65633" lon="8.8689867"><ele>397.2</ele><time>2026-04-04T10:19:25.099Z</time></trkpt><trkpt lat="44.6563367" lon="8.8688833"><ele>397.59999999999997</ele><time>2026-04-04T10:19:26.1Z</time></trkpt><trkpt lat="44.6563317" lon="8.8687733"><ele>398.0</ele><time>2026-04-04T10:19:27.102Z</time></trkpt><trkpt lat="44.6563283" lon="8.8686533"><ele>398.0</ele><time>2026-04-04T10:19:28.099Z</time></trkpt><trkpt lat="44.6563167" lon="8.8685283"><ele>398.0</ele><time>2026-04-04T10:19:29.1Z</time></trkpt><trkpt lat="44.6563" lon="8.8683967"><ele>398.0</ele><time>2026-04-04T10:19:30.101Z</time></trkpt><trkpt lat="44.6562833" lon="8.8682633"><ele>398.0</ele><time>2026-04-04T10:19:31.099Z</time></trkpt><trkpt lat="44.6562667" lon="8.8681333"><ele>398.0</ele><time>2026-04-04T10:19:32.102Z</time></trkpt><trkpt lat="44.6562617" lon="8.868"><ele>398.4</ele><time>2026-04-04T10:19:33.104Z</time></trkpt><trkpt lat="44.6562533" lon="8.8678633"><ele>398.79999999999995</ele><time>2026-04-04T10:19:34.106Z</time></trkpt><trkpt lat="44.65625" lon="8.867715"><ele>399.2</ele><time>2026-04-04T10:19:35.108Z</time></trkpt><trkpt lat="44.656255" lon="8.86756"><ele>399.6</ele><time>2026-04-04T10:19:36.102Z</time></trkpt><trkpt lat="44.6562633" lon="8.867405"><ele>400.0</ele><time>2026-04-04T10:19:37.104Z</time></trkpt><trkpt lat="44.65628" lon="8.8672483"><ele>400.0</ele><time>2026-04-04T10:19:38.099Z</time></trkpt><trkpt lat="44.6562933" lon="8.867085"><ele>400.0</ele><time>2026-04-04T10:19:39.1Z</time></trkpt><trkpt lat="44.6562933" lon="8.8669167"><ele>400.0</ele><time>2026-04-04T10:19:40.101Z</time></trkpt><trkpt lat="44.6562883" lon="8.866755"><ele>400.0</ele><time>2026-04-04T10:19:41.102Z</time></trkpt><trkpt lat="44.6562867" lon="8.8665917"><ele>399.25</ele><time>2026-04-04T10:19:42.101Z</time></trkpt><trkpt lat="44.6562917" lon="8.8664233"><ele>398.5</ele><time>2026-04-04T10:19:43.1Z</time></trkpt><trkpt lat="44.6563017" lon="8.8662567"><ele>397.75</ele><time>2026-04-04T10:19:44.099Z</time></trkpt><trkpt lat="44.6563083" lon="8.8661"><ele>397.0</ele><time>2026-04-04T10:19:45.102Z</time></trkpt><trkpt lat="44.6563183" lon="8.8659467"><ele>396.83333333333337</ele><time>2026-04-04T10:19:46.1Z</time></trkpt><trkpt lat="44.6563283" lon="8.865805"><ele>396.6666666666667</ele><time>2026-04-04T10:19:47.103Z</time></trkpt><trkpt lat="44.6563417" lon="8.8656833"><ele>396.5</ele><time>2026-04-04T10:19:48.1Z</time></trkpt><trkpt lat="44.6563683" lon="8.86557"><ele>396.33333333333337</ele><time>2026-04-04T10:19:49.099Z</time></trkpt><trkpt lat="44.6563917" lon="8.86546"><ele>396.1666666666667</ele><time>2026-04-04T10:19:50.099Z</time></trkpt><trkpt lat="44.656405" lon="8.8653517"><ele>396.0</ele><time>2026-04-04T10:19:51.101Z</time></trkpt><trkpt lat="44.6564" lon="8.8652567"><ele>396.0</ele><time>2026-04-04T10:19:52.1Z</time></trkpt><trkpt lat="44.6563817" lon="8.8651717"><ele>396.0</ele><time>2026-04-04T10:19:53.104Z</time></trkpt><trkpt lat="44.65634" lon="8.8650983"><ele>396.0</ele><time>2026-04-04T10:19:54.1Z</time></trkpt><trkpt lat="44.656295" lon="8.8650083"><ele>396.0</ele><time>2026-04-04T10:19:55.102Z</time></trkpt><trkpt lat="44.6562633" lon="8.8649033"><ele>396.0</ele><time>2026-04-04T10:19:56.1Z</time></trkpt><trkpt lat="44.6562433" lon="8.8647833"><ele>396.0</ele><time>2026-04-04T10:19:57.101Z</time></trkpt><trkpt lat="44.6562333" lon="8.8646583"><ele>396.1666666666667</ele><time>2026-04-04T10:19:58.101Z</time></trkpt><trkpt lat="44.6562283" lon="8.86454"><ele>396.33333333333337</ele><time>2026-04-04T10:19:59.102Z</time></trkpt><trkpt lat="44.6562433" lon="8.8644283"><ele>396.5</ele><time>2026-04-04T10:20:00.101Z</time></trkpt><trkpt lat="44.6562733" lon="8.8643217"><ele>396.6666666666667</ele><time>2026-04-04T10:20:01.11Z</time></trkpt><trkpt lat="44.656345" lon="8.864245"><ele>396.83333333333337</ele><time>2026-04-04T10:20:02.102Z</time></trkpt><trkpt lat="44.6564217" lon="8.8641617"><ele>397.0</ele><time>2026-04-04T10:20:03.099Z</time></trkpt><trkpt lat="44.6565133" lon="8.8640883"><ele>396.00000000000006</ele><time>2026-04-04T10:20:04.099Z</time></trkpt><trkpt lat="44.6565983" lon="8.8640217"><ele>395.0</ele><time>2026-04-04T10:20:05.104Z</time></trkpt><trkpt lat="44.65667" lon="8.8639667"><ele>394.0</ele><time>2026-04-04T10:20:06.098Z</time></trkpt><trkpt lat="44.6567283" lon="8.8639083"><ele>393.0</ele><time>2026-04-04T10:20:07.098Z</time></trkpt><trkpt lat="44.6567817" lon="8.8637483"><ele>392.00000000000006</ele><time>2026-04-04T10:20:09.104Z</time></trkpt><trkpt lat="44.6567917" lon="8.8636533"><ele>391.0</ele><time>2026-04-04T10:20:10.104Z</time></trkpt><trkpt lat="44.65675" lon="8.8635183"><ele>390.6</ele><time>2026-04-04T10:20:11.101Z</time></trkpt><trkpt lat="44.6567133" lon="8.8633933"><ele>390.20000000000005</ele><time>2026-04-04T10:20:12.1Z</time></trkpt><trkpt lat="44.6566683" lon="8.86327"><ele>389.79999999999995</ele><time>2026-04-04T10:20:13.101Z</time></trkpt><trkpt lat="44.656615" lon="8.8631483"><ele>389.4</ele><time>2026-04-04T10:20:14.102Z</time></trkpt><trkpt lat="44.6565583" lon="8.86302"><ele>389.0</ele><time>2026-04-04T10:20:15.099Z</time></trkpt><trkpt lat="44.6565117" lon="8.86288"><ele>389.0</ele><time>2026-04-04T10:20:16.104Z</time></trkpt><trkpt lat="44.656465" lon="8.8627383"><ele>389.0</ele><time>2026-04-04T10:20:17.099Z</time></trkpt><trkpt lat="44.6564067" lon="8.862615"><ele>389.0</ele><time>2026-04-04T10:20:18.1Z</time></trkpt><trkpt lat="44.6563383" lon="8.8625083"><ele>389.0</ele><time>2026-04-04T10:20:19.1Z</time></trkpt><trkpt lat="44.65627" lon="8.8624117"><ele>389.0</ele><time>2026-04-04T10:20:20.1Z</time></trkpt><trkpt lat="44.656195" lon="8.862325"><ele>390.4</ele><time>2026-04-04T10:20:21.1Z</time></trkpt><trkpt lat="44.6561217" lon="8.8622417"><ele>391.79999999999995</ele><time>2026-04-04T10:20:22.104Z</time></trkpt><trkpt lat="44.6560517" lon="8.8621583"><ele>393.20000000000005</ele><time>2026-04-04T10:20:23.099Z</time></trkpt><trkpt lat="44.6559817" lon="8.862075"><ele>394.6</ele><time>2026-04-04T10:20:24.1Z</time></trkpt><trkpt lat="44.6559083" lon="8.8619817"><ele>396.0</ele><time>2026-04-04T10:20:25.105Z</time></trkpt><trkpt lat="44.655855" lon="8.8618667"><ele>391.75</ele><time>2026-04-04T10:20:26.099Z</time></trkpt><trkpt lat="44.6557933" lon="8.8617417"><ele>387.5</ele><time>2026-04-04T10:20:27.107Z</time></trkpt><trkpt lat="44.6557267" lon="8.8616083"><ele>383.25</ele><time>2026-04-04T10:20:28.098Z</time></trkpt><trkpt lat="44.6556617" lon="8.86147"><ele>379.0</ele><time>2026-04-04T10:20:29.102Z</time></trkpt><trkpt lat="44.6556033" lon="8.8613333"><ele>379.0</ele><time>2026-04-04T10:20:30.104Z</time></trkpt><trkpt lat="44.655555" lon="8.8611967"><ele>379.0</ele><time>2026-04-04T10:20:31.097Z</time></trkpt><trkpt lat="44.6555183" lon="8.8610617"><ele>379.0</ele><time>2026-04-04T10:20:32.1Z</time></trkpt><trkpt lat="44.655495" lon="8.8609233"><ele>379.0</ele><time>2026-04-04T10:20:33.1Z</time></trkpt><trkpt lat="44.6554767" lon="8.8607867"><ele>379.0</ele><time>2026-04-04T10:20:34.1Z</time></trkpt><trkpt lat="44.655445" lon="8.8606567"><ele>377.2</ele><time>2026-04-04T10:20:35.101Z</time></trkpt><trkpt lat="44.65539" lon="8.8605433"><ele>375.4</ele><time>2026-04-04T10:20:36.098Z</time></trkpt><trkpt lat="44.6553333" lon="8.86043"><ele>373.6</ele><time>2026-04-04T10:20:37.101Z</time></trkpt><trkpt lat="44.6552767" lon="8.8603117"><ele>371.8</ele><time>2026-04-04T10:20:38.101Z</time></trkpt><trkpt lat="44.65522" lon="8.8601767"><ele>370.0</ele><time>2026-04-04T10:20:39.101Z</time></trkpt><trkpt lat="44.6551633" lon="8.86002"><ele>369.0</ele><time>2026-04-04T10:20:40.101Z</time></trkpt><trkpt lat="44.6551067" lon="8.8598567"><ele>368.0</ele><time>2026-04-04T10:20:41.103Z</time></trkpt><trkpt lat="44.6550433" lon="8.8596967"><ele>367.0</ele><time>2026-04-04T10:20:42.105Z</time></trkpt><trkpt lat="44.6549617" lon="8.8595433"><ele>366.0</ele><time>2026-04-04T10:20:43.099Z</time></trkpt><trkpt lat="44.654875" lon="8.8593917"><ele>364.75</ele><time>2026-04-04T10:20:44.106Z</time></trkpt><trkpt lat="44.6547867" lon="8.85924"><ele>363.5</ele><time>2026-04-04T10:20:45.103Z</time></trkpt><trkpt lat="44.6546967" lon="8.8590833"><ele>362.25</ele><time>2026-04-04T10:20:46.101Z</time></trkpt><trkpt lat="44.6546133" lon="8.85895"><ele>361.0</ele><time>2026-04-04T10:20:47.103Z</time></trkpt><trkpt lat="44.654535" lon="8.8588467"><ele>361.6</ele><time>2026-04-04T10:20:48.1Z</time></trkpt><trkpt lat="44.65445" lon="8.8587883"><ele>362.20000000000005</ele><time>2026-04-04T10:20:49.102Z</time></trkpt><trkpt lat="44.6543517" lon="8.8587417"><ele>362.79999999999995</ele><time>2026-04-04T10:20:50.105Z</time></trkpt><trkpt lat="44.6542633" lon="8.8586667"><ele>363.4</ele><time>2026-04-04T10:20:51.104Z</time></trkpt><trkpt lat="44.65419" lon="8.85857"><ele>364.0</ele><time>2026-04-04T10:20:52.105Z</time></trkpt><trkpt lat="44.6541283" lon="8.8584767"><ele>363.0</ele><time>2026-04-04T10:20:53.1Z</time></trkpt><trkpt lat="44.65406" lon="8.8584017"><ele>362.0</ele><time>2026-04-04T10:20:54.098Z</time></trkpt><trkpt lat="44.653985" lon="8.8583683"><ele>361.0</ele><time>2026-04-04T10:20:55.099Z</time></trkpt><trkpt lat="44.653895" lon="8.858365"><ele>360.0</ele><time>2026-04-04T10:20:56.104Z</time></trkpt><trkpt lat="44.6538083" lon="8.8583767"><ele>359.0</ele><time>2026-04-04T10:20:57.099Z</time></trkpt><trkpt lat="44.6537267" lon="8.8583817"><ele>358.0</ele><time>2026-04-04T10:20:58.104Z</time></trkpt><trkpt lat="44.6536483" lon="8.8583667"><ele>359.16666666666663</ele><time>2026-04-04T10:20:59.1Z</time></trkpt><trkpt lat="44.6535817" lon="8.8583233"><ele>360.3333333333333</ele><time>2026-04-04T10:21:00.102Z</time></trkpt><trkpt lat="44.6535167" lon="8.8582583"><ele>361.5</ele><time>2026-04-04T10:21:01.103Z</time></trkpt><trkpt lat="44.6534583" lon="8.8581717"><ele>362.6666666666667</ele><time>2026-04-04T10:21:02.101Z</time></trkpt><trkpt lat="44.65341" lon="8.85807"><ele>363.83333333333337</ele><time>2026-04-04T10:21:03.105Z</time></trkpt><trkpt lat="44.653375" lon="8.857955"><ele>365.0</ele><time>2026-04-04T10:21:04.102Z</time></trkpt><trkpt lat="44.6533533" lon="8.8578167"><ele>365.0</ele><time>2026-04-04T10:21:05.106Z</time></trkpt><trkpt lat="44.6533467" lon="8.857675"><ele>365.0</ele><time>2026-04-04T10:21:06.103Z</time></trkpt><trkpt lat="44.6533483" lon="8.8575217"><ele>365.0</ele><time>2026-04-04T10:21:07.102Z</time></trkpt><trkpt lat="44.6533617" lon="8.85737"><ele>365.0</ele><time>2026-04-04T10:21:08.105Z</time></trkpt><trkpt lat="44.653385" lon="8.8572083"><ele>365.0</ele><time>2026-04-04T10:21:09.105Z</time></trkpt><trkpt lat="44.6534133" lon="8.85704"><ele>365.0</ele><time>2026-04-04T10:21:10.104Z</time></trkpt><trkpt lat="44.6534417" lon="8.8568833"><ele>365.0</ele><time>2026-04-04T10:21:11.102Z</time></trkpt><trkpt lat="44.6534533" lon="8.8567483"><ele>365.0</ele><time>2026-04-04T10:21:12.103Z</time></trkpt><trkpt lat="44.65346" lon="8.8566267"><ele>365.0</ele><time>2026-04-04T10:21:13.104Z</time></trkpt><trkpt lat="44.6534483" lon="8.8565133"><ele>365.0</ele><time>2026-04-04T10:21:14.098Z</time></trkpt><trkpt lat="44.6534183" lon="8.8564067"><ele>363.8</ele><time>2026-04-04T10:21:15.098Z</time></trkpt><trkpt lat="44.6533683" lon="8.8563033"><ele>362.6</ele><time>2026-04-04T10:21:16.097Z</time></trkpt><trkpt lat="44.6532633" lon="8.8562433"><ele>361.4</ele><time>2026-04-04T10:21:17.1Z</time></trkpt><trkpt lat="44.6531633" lon="8.8561767"><ele>360.2</ele><time>2026-04-04T10:21:18.098Z</time></trkpt><trkpt lat="44.653075" lon="8.85611"><ele>359.0</ele><time>2026-04-04T10:21:19.101Z</time></trkpt><trkpt lat="44.6530033" lon="8.856035"><ele>359.0</ele><time>2026-04-04T10:21:20.106Z</time></trkpt><trkpt lat="44.652945" lon="8.85596"><ele>359.0</ele><time>2026-04-04T10:21:21.1Z</time></trkpt><trkpt lat="44.652905" lon="8.85587"><ele>359.0</ele><time>2026-04-04T10:21:22.102Z</time></trkpt><trkpt lat="44.65289" lon="8.8557483"><ele>359.0</ele><time>2026-04-04T10:21:23.101Z</time></trkpt><trkpt lat="44.652895" lon="8.855615"><ele>359.0</ele><time>2026-04-04T10:21:24.099Z</time></trkpt><trkpt lat="44.6529183" lon="8.85547"><ele>359.0</ele><time>2026-04-04T10:21:25.103Z</time></trkpt><trkpt lat="44.6529583" lon="8.8553183"><ele>356.75</ele><time>2026-04-04T10:21:26.102Z</time></trkpt><trkpt lat="44.653005" lon="8.855165"><ele>354.5</ele><time>2026-04-04T10:21:27.099Z</time></trkpt><trkpt lat="44.6530517" lon="8.85502"><ele>352.25</ele><time>2026-04-04T10:21:28.101Z</time></trkpt><trkpt lat="44.6530983" lon="8.8548833"><ele>350.0</ele><time>2026-04-04T10:21:29.103Z</time></trkpt><trkpt lat="44.653165" lon="8.85476"><ele>349.5</ele><time>2026-04-04T10:21:30.107Z</time></trkpt><trkpt lat="44.6532367" lon="8.8546567"><ele>349.0</ele><time>2026-04-04T10:21:31.106Z</time></trkpt><trkpt lat="44.6532983" lon="8.8545733"><ele>348.5</ele><time>2026-04-04T10:21:32.106Z</time></trkpt><trkpt lat="44.65335" lon="8.8544867"><ele>348.0</ele><time>2026-04-04T10:21:33.097Z</time></trkpt><trkpt lat="44.6533967" lon="8.8543933"><ele>347.5</ele><time>2026-04-04T10:21:34.1Z</time></trkpt><trkpt lat="44.6534217" lon="8.85429"><ele>347.0</ele><time>2026-04-04T10:21:35.105Z</time></trkpt><trkpt lat="44.6534283" lon="8.85418"><ele>346.0</ele><time>2026-04-04T10:21:36.097Z</time></trkpt><trkpt lat="44.6534167" lon="8.854065"><ele>345.0</ele><time>2026-04-04T10:21:37.098Z</time></trkpt><trkpt lat="44.6534017" lon="8.8539383"><ele>344.0</ele><time>2026-04-04T10:21:38.1Z</time></trkpt><trkpt lat="44.6533833" lon="8.8538117"><ele>343.0</ele><time>2026-04-04T10:21:39.102Z</time></trkpt><trkpt lat="44.6533383" lon="8.8536883"><ele>342.0</ele><time>2026-04-04T10:21:40.097Z</time></trkpt><trkpt lat="44.653285" lon="8.853565"><ele>342.0</ele><time>2026-04-04T10:21:41.102Z</time></trkpt><trkpt lat="44.6531933" lon="8.8534633"><ele>342.0</ele><time>2026-04-04T10:21:42.1Z</time></trkpt><trkpt lat="44.6531133" lon="8.8533517"><ele>342.0</ele><time>2026-04-04T10:21:43.102Z</time></trkpt><trkpt lat="44.6530433" lon="8.8532517"><ele>342.0</ele><time>2026-04-04T10:21:44.098Z</time></trkpt><trkpt lat="44.652985" lon="8.8531633"><ele>342.0</ele><time>2026-04-04T10:21:45.1Z</time></trkpt><trkpt lat="44.652955" lon="8.8530767"><ele>340.5</ele><time>2026-04-04T10:21:46.102Z</time></trkpt><trkpt lat="44.6529333" lon="8.852935"><ele>339.0</ele><time>2026-04-04T10:21:48.102Z</time></trkpt><trkpt lat="44.6530367" lon="8.852895"><ele>337.5</ele><time>2026-04-04T10:21:50.101Z</time></trkpt><trkpt lat="44.6531" lon="8.852935"><ele>336.0</ele><time>2026-04-04T10:21:51.105Z</time></trkpt><trkpt lat="44.6531767" lon="8.852975"><ele>334.5</ele><time>2026-04-04T10:21:52.108Z</time></trkpt><trkpt lat="44.6532567" lon="8.853015"><ele>333.0</ele><time>2026-04-04T10:21:53.105Z</time></trkpt><trkpt lat="44.6533367" lon="8.8530367"><ele>333.0</ele><time>2026-04-04T10:21:54.1Z</time></trkpt><trkpt lat="44.653415" lon="8.8530533"><ele>333.0</ele><time>2026-04-04T10:21:55.102Z</time></trkpt><trkpt lat="44.6534983" lon="8.8530617"><ele>333.0</ele><time>2026-04-04T10:21:56.101Z</time></trkpt><trkpt lat="44.6535717" lon="8.8530733"><ele>333.0</ele><time>2026-04-04T10:21:57.102Z</time></trkpt><trkpt lat="44.65365" lon="8.8530683"><ele>333.0</ele><time>2026-04-04T10:21:58.104Z</time></trkpt><trkpt lat="44.6537183" lon="8.853055"><ele>333.0</ele><time>2026-04-04T10:21:59.103Z</time></trkpt><trkpt lat="44.6538267" lon="8.85296"><ele>333.0</ele><time>2026-04-04T10:22:01.1Z</time></trkpt><trkpt lat="44.653795" lon="8.85288"><ele>333.0</ele><time>2026-04-04T10:22:02.098Z</time></trkpt><trkpt lat="44.6537317" lon="8.85273"><ele>333.0</ele><time>2026-04-04T10:22:04.099Z</time></trkpt><trkpt lat="44.653675" lon="8.8526883"><ele>333.0</ele><time>2026-04-04T10:22:05.1Z</time></trkpt><trkpt lat="44.6536083" lon="8.8526733"><ele>333.0</ele><time>2026-04-04T10:22:06.101Z</time></trkpt><trkpt lat="44.6535283" lon="8.8526817"><ele>333.0</ele><time>2026-04-04T10:22:07.101Z</time></trkpt><trkpt lat="44.65346" lon="8.8526867"><ele>333.0</ele><time>2026-04-04T10:22:08.102Z</time></trkpt><trkpt lat="44.653335" lon="8.8526517"><ele>333.0</ele><time>2026-04-04T10:22:10.102Z</time></trkpt><trkpt lat="44.653275" lon="8.8526133"><ele>333.0</ele><time>2026-04-04T10:22:11.102Z</time></trkpt><trkpt lat="44.6532183" lon="8.8525567"><ele>333.0</ele><time>2026-04-04T10:22:12.101Z</time></trkpt><trkpt lat="44.6531617" lon="8.8524833"><ele>333.0</ele><time>2026-04-04T10:22:13.101Z</time></trkpt><trkpt lat="44.6531033" lon="8.8524033"><ele>333.0</ele><time>2026-04-04T10:22:14.099Z</time></trkpt><trkpt lat="44.653055" lon="8.8523067"><ele>333.8333333333333</ele><time>2026-04-04T10:22:15.103Z</time></trkpt><trkpt lat="44.65301" lon="8.852195"><ele>334.6666666666667</ele><time>2026-04-04T10:22:16.105Z</time></trkpt><trkpt lat="44.652955" lon="8.8521"><ele>335.5</ele><time>2026-04-04T10:22:17.106Z</time></trkpt><trkpt lat="44.6529067" lon="8.8520183"><ele>336.33333333333337</ele><time>2026-04-04T10:22:18.104Z</time></trkpt><trkpt lat="44.6528667" lon="8.8519467"><ele>337.1666666666667</ele><time>2026-04-04T10:22:19.102Z</time></trkpt><trkpt lat="44.6527667" lon="8.85185"><ele>338.0</ele><time>2026-04-04T10:22:21.101Z</time></trkpt><trkpt lat="44.652645" lon="8.8518133"><ele>335.33333333333337</ele><time>2026-04-04T10:22:23.104Z</time></trkpt><trkpt lat="44.65258" lon="8.85179"><ele>332.6666666666667</ele><time>2026-04-04T10:22:24.098Z</time></trkpt><trkpt lat="44.652505" lon="8.8517633"><ele>330.0</ele><time>2026-04-04T10:22:25.1Z</time></trkpt><trkpt lat="44.6524167" lon="8.8517267"><ele>327.3333333333333</ele><time>2026-04-04T10:22:26.101Z</time></trkpt><trkpt lat="44.65233" lon="8.8516817"><ele>324.66666666666663</ele><time>2026-04-04T10:22:27.099Z</time></trkpt><trkpt lat="44.6522483" lon="8.8516333"><ele>322.0</ele><time>2026-04-04T10:22:28.102Z</time></trkpt><trkpt lat="44.652165" lon="8.85157"><ele>322.0</ele><time>2026-04-04T10:22:29.098Z</time></trkpt><trkpt lat="44.6520817" lon="8.8515117"><ele>322.0</ele><time>2026-04-04T10:22:30.101Z</time></trkpt><trkpt lat="44.6520117" lon="8.8514683"><ele>322.0</ele><time>2026-04-04T10:22:31.103Z</time></trkpt><trkpt lat="44.6519467" lon="8.8514067"><ele>322.0</ele><time>2026-04-04T10:22:32.103Z</time></trkpt><trkpt lat="44.6518833" lon="8.8513383"><ele>322.0</ele><time>2026-04-04T10:22:33.099Z</time></trkpt><trkpt lat="44.6518183" lon="8.85125"><ele>322.0</ele><time>2026-04-04T10:22:34.101Z</time></trkpt><trkpt lat="44.651755" lon="8.85114"><ele>321.75</ele><time>2026-04-04T10:22:35.101Z</time></trkpt><trkpt lat="44.6516717" lon="8.8510483"><ele>321.5</ele><time>2026-04-04T10:22:36.102Z</time></trkpt><trkpt lat="44.6515683" lon="8.8509433"><ele>321.25</ele><time>2026-04-04T10:22:37.104Z</time></trkpt><trkpt lat="44.6514567" lon="8.85084"><ele>321.0</ele><time>2026-04-04T10:22:38.102Z</time></trkpt><trkpt lat="44.651345" lon="8.850745"><ele>320.25</ele><time>2026-04-04T10:22:39.105Z</time></trkpt><trkpt lat="44.6512383" lon="8.8506433"><ele>319.5</ele><time>2026-04-04T10:22:40.099Z</time></trkpt><trkpt lat="44.6511517" lon="8.8505117"><ele>318.75</ele><time>2026-04-04T10:22:41.104Z</time></trkpt><trkpt lat="44.651075" lon="8.8503733"><ele>318.0</ele><time>2026-04-04T10:22:42.102Z</time></trkpt><trkpt lat="44.651025" lon="8.850205"><ele>313.25</ele><time>2026-04-04T10:22:43.099Z</time></trkpt><trkpt lat="44.6509783" lon="8.850035"><ele>308.5</ele><time>2026-04-04T10:22:44.097Z</time></trkpt><trkpt lat="44.6509383" lon="8.8498683"><ele>303.75</ele><time>2026-04-04T10:22:45.099Z</time></trkpt><trkpt lat="44.6508933" lon="8.8497167"><ele>299.0</ele><time>2026-04-04T10:22:46.103Z</time></trkpt><trkpt lat="44.6508633" lon="8.8495767"><ele>299.0</ele><time>2026-04-04T10:22:47.104Z</time></trkpt><trkpt lat="44.6508467" lon="8.8494433"><ele>299.0</ele><time>2026-04-04T10:22:48.098Z</time></trkpt><trkpt lat="44.6508483" lon="8.8493067"><ele>299.0</ele><time>2026-04-04T10:22:49.1Z</time></trkpt><trkpt lat="44.6508733" lon="8.8491533"><ele>299.0</ele><time>2026-04-04T10:22:50.099Z</time></trkpt><trkpt lat="44.6508983" lon="8.8489967"><ele>299.0</ele><time>2026-04-04T10:22:51.096Z</time></trkpt><trkpt lat="44.6509233" lon="8.8488217"><ele>299.0</ele><time>2026-04-04T10:22:52.105Z</time></trkpt><trkpt lat="44.650945" lon="8.84864"><ele>299.0</ele><time>2026-04-04T10:22:53.1Z</time></trkpt><trkpt lat="44.650975" lon="8.8484433"><ele>299.0</ele><time>2026-04-04T10:22:54.099Z</time></trkpt><trkpt lat="44.651005" lon="8.848245"><ele>299.0</ele><time>2026-04-04T10:22:55.104Z</time></trkpt><trkpt lat="44.6510117" lon="8.8480583"><ele>299.25</ele><time>2026-04-04T10:22:56.101Z</time></trkpt><trkpt lat="44.6510017" lon="8.847875"><ele>299.5</ele><time>2026-04-04T10:22:57.106Z</time></trkpt><trkpt lat="44.6509867" lon="8.847695"><ele>299.75</ele><time>2026-04-04T10:22:58.104Z</time></trkpt><trkpt lat="44.6509633" lon="8.84752"><ele>300.0</ele><time>2026-04-04T10:22:59.1Z</time></trkpt><trkpt lat="44.6509433" lon="8.8473467"><ele>299.0</ele><time>2026-04-04T10:23:00.1Z</time></trkpt><trkpt lat="44.65093" lon="8.84718"><ele>298.0</ele><time>2026-04-04T10:23:01.102Z</time></trkpt><trkpt lat="44.6509333" lon="8.8470267"><ele>297.0</ele><time>2026-04-04T10:23:02.103Z</time></trkpt><trkpt lat="44.6509517" lon="8.84689"><ele>296.0</ele><time>2026-04-04T10:23:03.099Z</time></trkpt><trkpt lat="44.6509867" lon="8.846765"><ele>295.0</ele><time>2026-04-04T10:23:04.098Z</time></trkpt><trkpt lat="44.6510283" lon="8.8466483"><ele>293.25</ele><time>2026-04-04T10:23:05.102Z</time></trkpt><trkpt lat="44.65109" lon="8.8465217"><ele>291.5</ele><time>2026-04-04T10:23:06.103Z</time></trkpt><trkpt lat="44.651155" lon="8.8463833"><ele>289.75</ele><time>2026-04-04T10:23:07.099Z</time></trkpt><trkpt lat="44.6512333" lon="8.8462267"><ele>288.0</ele><time>2026-04-04T10:23:08.099Z</time></trkpt><trkpt lat="44.651315" lon="8.8460633"><ele>288.8</ele><time>2026-04-04T10:23:09.101Z</time></trkpt><trkpt lat="44.65138" lon="8.8459233"><ele>289.6</ele><time>2026-04-04T10:23:10.099Z</time></trkpt><trkpt lat="44.6514367" lon="8.8458183"><ele>290.4</ele><time>2026-04-04T10:23:11.099Z</time></trkpt><trkpt lat="44.6514867" lon="8.8457383"><ele>291.2</ele><time>2026-04-04T10:23:12.099Z</time></trkpt><trkpt lat="44.6515617" lon="8.8456317"><ele>292.0</ele><time>2026-04-04T10:23:14.098Z</time></trkpt><trkpt lat="44.6516133" lon="8.84558"><ele>292.0</ele><time>2026-04-04T10:23:17.102Z</time></trkpt><trkpt lat="44.651565" lon="8.8455167"><ele>292.0</ele><time>2026-04-04T10:26:51.106Z</time></trkpt><trkpt lat="44.651525" lon="8.8453667"><ele>292.0</ele><time>2026-04-04T10:26:54.104Z</time></trkpt><trkpt lat="44.6514683" lon="8.8452317"><ele>292.0</ele><time>2026-04-04T10:26:56.098Z</time></trkpt><trkpt lat="44.65145" lon="8.8451417"><ele>292.0</ele><time>2026-04-04T10:26:57.101Z</time></trkpt><trkpt lat="44.6514367" lon="8.8450483"><ele>292.0</ele><time>2026-04-04T10:26:58.098Z</time></trkpt><trkpt lat="44.65143" lon="8.8449417"><ele>290.8333333333333</ele><time>2026-04-04T10:26:59.102Z</time></trkpt><trkpt lat="44.6514283" lon="8.84483"><ele>289.66666666666663</ele><time>2026-04-04T10:27:00.105Z</time></trkpt><trkpt lat="44.6514217" lon="8.8447133"><ele>288.5</ele><time>2026-04-04T10:27:01.104Z</time></trkpt><trkpt lat="44.65141" lon="8.844595"><ele>287.3333333333333</ele><time>2026-04-04T10:27:02.106Z</time></trkpt><trkpt lat="44.6514033" lon="8.8444783"><ele>286.1666666666667</ele><time>2026-04-04T10:27:03.109Z</time></trkpt><trkpt lat="44.6514083" lon="8.8443617"><ele>285.0</ele><time>2026-04-04T10:27:04.106Z</time></trkpt><trkpt lat="44.6514333" lon="8.8442467"><ele>284.6</ele><time>2026-04-04T10:27:05.106Z</time></trkpt><trkpt lat="44.65148" lon="8.8441233"><ele>284.2</ele><time>2026-04-04T10:27:06.1Z</time></trkpt><trkpt lat="44.6515317" lon="8.843995"><ele>283.8</ele><time>2026-04-04T10:27:07.103Z</time></trkpt><trkpt lat="44.6515967" lon="8.843865"><ele>283.4</ele><time>2026-04-04T10:27:08.101Z</time></trkpt><trkpt lat="44.6516567" lon="8.8437483"><ele>283.0</ele><time>2026-04-04T10:27:09.103Z</time></trkpt><trkpt lat="44.6517283" lon="8.8436333"><ele>283.0</ele><time>2026-04-04T10:27:10.102Z</time></trkpt><trkpt lat="44.6517933" lon="8.8435117"><ele>283.0</ele><time>2026-04-04T10:27:11.104Z</time></trkpt><trkpt lat="44.6518367" lon="8.84337"><ele>283.0</ele><time>2026-04-04T10:27:12.106Z</time></trkpt><trkpt lat="44.6518817" lon="8.8432167"><ele>283.0</ele><time>2026-04-04T10:27:13.101Z</time></trkpt><trkpt lat="44.6519267" lon="8.8430483"><ele>283.25</ele><time>2026-04-04T10:27:14.101Z</time></trkpt><trkpt lat="44.6519683" lon="8.8428817"><ele>283.5</ele><time>2026-04-04T10:27:15.101Z</time></trkpt><trkpt lat="44.6520167" lon="8.8427133"><ele>283.75</ele><time>2026-04-04T10:27:16.1Z</time></trkpt><trkpt lat="44.652065" lon="8.8425417"><ele>284.0</ele><time>2026-04-04T10:27:17.097Z</time></trkpt><trkpt lat="44.652115" lon="8.8423733"><ele>284.0</ele><time>2026-04-04T10:27:18.1Z</time></trkpt><trkpt lat="44.65216" lon="8.84221"><ele>284.0</ele><time>2026-04-04T10:27:19.102Z</time></trkpt><trkpt lat="44.6521933" lon="8.8420533"><ele>284.0</ele><time>2026-04-04T10:27:20.099Z</time></trkpt><trkpt lat="44.65221" lon="8.8418933"><ele>284.0</ele><time>2026-04-04T10:27:21.097Z</time></trkpt><trkpt lat="44.6522133" lon="8.8417283"><ele>282.75</ele><time>2026-04-04T10:27:22.101Z</time></trkpt><trkpt lat="44.65221" lon="8.8415583"><ele>281.5</ele><time>2026-04-04T10:27:23.102Z</time></trkpt><trkpt lat="44.6522017" lon="8.8413783"><ele>280.25</ele><time>2026-04-04T10:27:24.102Z</time></trkpt><trkpt lat="44.6521967" lon="8.8412033"><ele>279.0</ele><time>2026-04-04T10:27:25.103Z</time></trkpt><trkpt lat="44.6522133" lon="8.8410217"><ele>277.5</ele><time>2026-04-04T10:27:26.104Z</time></trkpt><trkpt lat="44.6522383" lon="8.84084"><ele>276.0</ele><time>2026-04-04T10:27:27.099Z</time></trkpt><trkpt lat="44.65227" lon="8.8406517"><ele>274.5</ele><time>2026-04-04T10:27:28.103Z</time></trkpt><trkpt lat="44.6523067" lon="8.8404633"><ele>273.0</ele><time>2026-04-04T10:27:29.099Z</time></trkpt><trkpt lat="44.6523433" lon="8.8402867"><ele>273.0</ele><time>2026-04-04T10:27:30.11Z</time></trkpt><trkpt lat="44.6523883" lon="8.8401333"><ele>273.0</ele><time>2026-04-04T10:27:31.103Z</time></trkpt><trkpt lat="44.652435" lon="8.8400083"><ele>273.0</ele><time>2026-04-04T10:27:32.102Z</time></trkpt><trkpt lat="44.65249" lon="8.8399133"><ele>273.0</ele><time>2026-04-04T10:27:33.108Z</time></trkpt><trkpt lat="44.65255" lon="8.8398283"><ele>273.0</ele><time>2026-04-04T10:27:34.103Z</time></trkpt><trkpt lat="44.6526167" lon="8.8397717"><ele>273.5</ele><time>2026-04-04T10:27:35.103Z</time></trkpt><trkpt lat="44.65269" lon="8.839725"><ele>274.0</ele><time>2026-04-04T10:27:36.104Z</time></trkpt><trkpt lat="44.6527567" lon="8.8396617"><ele>274.5</ele><time>2026-04-04T10:27:37.108Z</time></trkpt><trkpt lat="44.6528217" lon="8.8395833"><ele>275.0</ele><time>2026-04-04T10:27:38.1Z</time></trkpt><trkpt lat="44.652845" lon="8.8394483"><ele>275.5</ele><time>2026-04-04T10:27:39.102Z</time></trkpt><trkpt lat="44.65286" lon="8.8393083"><ele>276.0</ele><time>2026-04-04T10:27:40.098Z</time></trkpt><trkpt lat="44.6528867" lon="8.8391633"><ele>273.8</ele><time>2026-04-04T10:27:41.108Z</time></trkpt><trkpt lat="44.65292" lon="8.8390167"><ele>271.6</ele><time>2026-04-04T10:27:42.105Z</time></trkpt><trkpt lat="44.6529633" lon="8.83888"><ele>269.4</ele><time>2026-04-04T10:27:43.102Z</time></trkpt><trkpt lat="44.65302" lon="8.8387567"><ele>267.2</ele><time>2026-04-04T10:27:44.107Z</time></trkpt><trkpt lat="44.6530583" lon="8.838645"><ele>265.0</ele><time>2026-04-04T10:27:45.101Z</time></trkpt><trkpt lat="44.6530917" lon="8.83854"><ele>265.66666666666663</ele><time>2026-04-04T10:27:46.1Z</time></trkpt><trkpt lat="44.653115" lon="8.8384367"><ele>266.3333333333333</ele><time>2026-04-04T10:27:47.104Z</time></trkpt><trkpt lat="44.6531167" lon="8.8383367"><ele>267.0</ele><time>2026-04-04T10:27:48.103Z</time></trkpt><trkpt lat="44.653045" lon="8.8382767"><ele>267.6666666666667</ele><time>2026-04-04T10:27:49.101Z</time></trkpt><trkpt lat="44.6530067" lon="8.83819"><ele>268.33333333333337</ele><time>2026-04-04T10:27:50.103Z</time></trkpt><trkpt lat="44.652965" lon="8.8380867"><ele>269.0</ele><time>2026-04-04T10:27:51.102Z</time></trkpt><trkpt lat="44.6529283" lon="8.8379783"><ele>269.0</ele><time>2026-04-04T10:27:52.1Z</time></trkpt><trkpt lat="44.6529" lon="8.8378567"><ele>269.0</ele><time>2026-04-04T10:27:53.106Z</time></trkpt><trkpt lat="44.6528717" lon="8.837715"><ele>269.0</ele><time>2026-04-04T10:27:54.101Z</time></trkpt><trkpt lat="44.6528433" lon="8.8375767"><ele>269.0</ele><time>2026-04-04T10:27:55.101Z</time></trkpt><trkpt lat="44.6528117" lon="8.8374383"><ele>269.0</ele><time>2026-04-04T10:27:56.104Z</time></trkpt><trkpt lat="44.6527733" lon="8.83729"><ele>270.8</ele><time>2026-04-04T10:27:57.102Z</time></trkpt><trkpt lat="44.65274" lon="8.8371433"><ele>272.59999999999997</ele><time>2026-04-04T10:27:58.101Z</time></trkpt><trkpt lat="44.6527183" lon="8.8369917"><ele>274.4</ele><time>2026-04-04T10:27:59.11Z</time></trkpt><trkpt lat="44.6526933" lon="8.8368483"><ele>276.2</ele><time>2026-04-04T10:28:00.106Z</time></trkpt><trkpt lat="44.65268" lon="8.8367"><ele>278.0</ele><time>2026-04-04T10:28:01.107Z</time></trkpt><trkpt lat="44.652675" lon="8.8365567"><ele>278.0</ele><time>2026-04-04T10:28:02.099Z</time></trkpt><trkpt lat="44.652655" lon="8.8364233"><ele>278.0</ele><time>2026-04-04T10:28:03.101Z</time></trkpt><trkpt lat="44.6526183" lon="8.8363133"><ele>278.0</ele><time>2026-04-04T10:28:04.101Z</time></trkpt><trkpt lat="44.6525767" lon="8.8362017"><ele>278.0</ele><time>2026-04-04T10:28:05.101Z</time></trkpt><trkpt lat="44.6525233" lon="8.8361067"><ele>278.0</ele><time>2026-04-04T10:28:06.101Z</time></trkpt><trkpt lat="44.6524967" lon="8.836005"><ele>278.0</ele><time>2026-04-04T10:28:07.099Z</time></trkpt><trkpt lat="44.6525033" lon="8.8359017"><ele>275.2</ele><time>2026-04-04T10:28:08.102Z</time></trkpt><trkpt lat="44.6524967" lon="8.8358017"><ele>272.4</ele><time>2026-04-04T10:28:09.101Z</time></trkpt><trkpt lat="44.6525083" lon="8.8357133"><ele>269.59999999999997</ele><time>2026-04-04T10:28:10.102Z</time></trkpt><trkpt lat="44.65268" lon="8.8356733"><ele>266.8</ele><time>2026-04-04T10:28:12.119Z</time></trkpt><trkpt lat="44.6527767" lon="8.8356733"><ele>264.0</ele><time>2026-04-04T10:28:13.104Z</time></trkpt><trkpt lat="44.6528817" lon="8.8356633"><ele>261.75</ele><time>2026-04-04T10:28:14.101Z</time></trkpt><trkpt lat="44.6529967" lon="8.8356517"><ele>259.5</ele><time>2026-04-04T10:28:15.103Z</time></trkpt><trkpt lat="44.6531167" lon="8.8356467"><ele>257.25</ele><time>2026-04-04T10:28:16.103Z</time></trkpt><trkpt lat="44.6532317" lon="8.835635"><ele>255.0</ele><time>2026-04-04T10:28:17.109Z</time></trkpt><trkpt lat="44.6533433" lon="8.835625"><ele>255.0</ele><time>2026-04-04T10:28:18.098Z</time></trkpt><trkpt lat="44.6534533" lon="8.8356083"><ele>255.0</ele><time>2026-04-04T10:28:19.108Z</time></trkpt><trkpt lat="44.653565" lon="8.8355917"><ele>255.0</ele><time>2026-04-04T10:28:20.101Z</time></trkpt><trkpt lat="44.6536683" lon="8.8355833"><ele>255.0</ele><time>2026-04-04T10:28:21.103Z</time></trkpt><trkpt lat="44.65376" lon="8.83558"><ele>255.0</ele><time>2026-04-04T10:28:22.097Z</time></trkpt><trkpt lat="44.6538433" lon="8.8355683"><ele>255.4</ele><time>2026-04-04T10:28:23.102Z</time></trkpt><trkpt lat="44.653925" lon="8.8355383"><ele>255.8</ele><time>2026-04-04T10:28:24.104Z</time></trkpt><trkpt lat="44.654005" lon="8.835485"><ele>256.2</ele><time>2026-04-04T10:28:25.099Z</time></trkpt><trkpt lat="44.65409" lon="8.8354033"><ele>256.6</ele><time>2026-04-04T10:28:26.099Z</time></trkpt><trkpt lat="44.6541883" lon="8.8352567"><ele>257.0</ele><time>2026-04-04T10:28:27.1Z</time></trkpt><trkpt lat="44.65428" lon="8.83511"><ele>257.25</ele><time>2026-04-04T10:28:28.1Z</time></trkpt><trkpt lat="44.654355" lon="8.8349717"><ele>257.5</ele><time>2026-04-04T10:28:29.101Z</time></trkpt><trkpt lat="44.6544167" lon="8.8348267"><ele>257.75</ele><time>2026-04-04T10:28:30.102Z</time></trkpt><trkpt lat="44.6544817" lon="8.8346817"><ele>258.0</ele><time>2026-04-04T10:28:31.102Z</time></trkpt><trkpt lat="44.6545483" lon="8.8345417"><ele>258.0</ele><time>2026-04-04T10:28:32.101Z</time></trkpt><trkpt lat="44.6546267" lon="8.83442"><ele>258.0</ele><time>2026-04-04T10:28:33.1Z</time></trkpt><trkpt lat="44.6547067" lon="8.834285"><ele>258.0</ele><time>2026-04-04T10:28:34.111Z</time></trkpt><trkpt lat="44.6547783" lon="8.834145"><ele>258.0</ele><time>2026-04-04T10:28:35.101Z</time></trkpt><trkpt lat="44.6548467" lon="8.834005"><ele>259.8</ele><time>2026-04-04T10:28:36.095Z</time></trkpt><trkpt lat="44.6549217" lon="8.8338783"><ele>261.6</ele><time>2026-04-04T10:28:37.101Z</time></trkpt><trkpt lat="44.6549983" lon="8.8337683"><ele>263.4</ele><time>2026-04-04T10:28:38.101Z</time></trkpt><trkpt lat="44.6550717" lon="8.8336733"><ele>265.2</ele><time>2026-04-04T10:28:39.105Z</time></trkpt><trkpt lat="44.6551383" lon="8.83358"><ele>267.0</ele><time>2026-04-04T10:28:40.099Z</time></trkpt><trkpt lat="44.655185" lon="8.8334767"><ele>268.2</ele><time>2026-04-04T10:28:41.1Z</time></trkpt><trkpt lat="44.655215" lon="8.8333583"><ele>269.4</ele><time>2026-04-04T10:28:42.102Z</time></trkpt><trkpt lat="44.6552433" lon="8.8332333"><ele>270.6</ele><time>2026-04-04T10:28:43.101Z</time></trkpt><trkpt lat="44.6552567" lon="8.8331"><ele>271.8</ele><time>2026-04-04T10:28:44.1Z</time></trkpt><trkpt lat="44.6552617" lon="8.83295"><ele>273.0</ele><time>2026-04-04T10:28:45.097Z</time></trkpt><trkpt lat="44.6552567" lon="8.8327967"><ele>273.0</ele><time>2026-04-04T10:28:46.104Z</time></trkpt><trkpt lat="44.6552517" lon="8.8326467"><ele>273.0</ele><time>2026-04-04T10:28:47.102Z</time></trkpt><trkpt lat="44.6552467" lon="8.8325017"><ele>273.0</ele><time>2026-04-04T10:28:48.104Z</time></trkpt><trkpt lat="44.6552483" lon="8.8323667"><ele>273.0</ele><time>2026-04-04T10:28:49.101Z</time></trkpt><trkpt lat="44.65523" lon="8.8322417"><ele>273.0</ele><time>2026-04-04T10:28:50.101Z</time></trkpt><trkpt lat="44.6551917" lon="8.832135"><ele>273.6</ele><time>2026-04-04T10:28:51.105Z</time></trkpt><trkpt lat="44.6551433" lon="8.83203"><ele>274.20000000000005</ele><time>2026-04-04T10:28:52.098Z</time></trkpt><trkpt lat="44.6550717" lon="8.8319383"><ele>274.8</ele><time>2026-04-04T10:28:53.101Z</time></trkpt><trkpt lat="44.65498" lon="8.83186"><ele>275.40000000000003</ele><time>2026-04-04T10:28:54.101Z</time></trkpt><trkpt lat="44.6549" lon="8.8317733"><ele>276.0</ele><time>2026-04-04T10:28:55.102Z</time></trkpt><trkpt lat="44.6548267" lon="8.8316783"><ele>276.2</ele><time>2026-04-04T10:28:56.102Z</time></trkpt><trkpt lat="44.65477" lon="8.8315717"><ele>276.40000000000003</ele><time>2026-04-04T10:28:57.104Z</time></trkpt><trkpt lat="44.654735" lon="8.8314533"><ele>276.6</ele><time>2026-04-04T10:28:58.104Z</time></trkpt><trkpt lat="44.6547183" lon="8.8313183"><ele>276.8</ele><time>2026-04-04T10:28:59.107Z</time></trkpt><trkpt lat="44.6547117" lon="8.83118"><ele>277.0</ele><time>2026-04-04T10:29:00.102Z</time></trkpt><trkpt lat="44.6547117" lon="8.8310467"><ele>277.0</ele><time>2026-04-04T10:29:01.102Z</time></trkpt><trkpt lat="44.6547167" lon="8.83093"><ele>277.0</ele><time>2026-04-04T10:29:02.104Z</time></trkpt><trkpt lat="44.6547183" lon="8.83083"><ele>277.0</ele><time>2026-04-04T10:29:03.103Z</time></trkpt><trkpt lat="44.6547233" lon="8.8307"><ele>277.0</ele><time>2026-04-04T10:29:05.109Z</time></trkpt><trkpt lat="44.6547617" lon="8.8306117"><ele>277.0</ele><time>2026-04-04T10:32:29.105Z</time></trkpt><trkpt lat="44.6548317" lon="8.8305817"><ele>277.0</ele><time>2026-04-04T10:32:30.103Z</time></trkpt><trkpt lat="44.654925" lon="8.8305533"><ele>277.0</ele><time>2026-04-04T10:32:31.098Z</time></trkpt><trkpt lat="44.6550283" lon="8.830535"><ele>277.0</ele><time>2026-04-04T10:32:32.1Z</time></trkpt><trkpt lat="44.655135" lon="8.8305233"><ele>277.0</ele><time>2026-04-04T10:32:33.097Z</time></trkpt><trkpt lat="44.65523" lon="8.8305133"><ele>277.0</ele><time>2026-04-04T10:32:34.098Z</time></trkpt><trkpt lat="44.655315" lon="8.8305"><ele>277.0</ele><time>2026-04-04T10:32:35.1Z</time></trkpt><trkpt lat="44.6553917" lon="8.83049"><ele>277.0</ele><time>2026-04-04T10:32:36.102Z</time></trkpt><trkpt lat="44.6554633" lon="8.83041"><ele>277.0</ele><time>2026-04-04T10:32:38.102Z</time></trkpt><trkpt lat="44.6553133" lon="8.830395"><ele>277.0</ele><time>2026-04-04T10:32:43.102Z</time></trkpt><trkpt lat="44.655195" lon="8.8304183"><ele>277.0</ele><time>2026-04-04T10:32:44.1Z</time></trkpt><trkpt lat="44.6550683" lon="8.8304283"><ele>277.0</ele><time>2026-04-04T10:32:45.102Z</time></trkpt><trkpt lat="44.6549333" lon="8.8304283"><ele>277.0</ele><time>2026-04-04T10:32:46.102Z</time></trkpt><trkpt lat="44.6547967" lon="8.8304367"><ele>277.0</ele><time>2026-04-04T10:32:47.103Z</time></trkpt><trkpt lat="44.654665" lon="8.8304467"><ele>277.0</ele><time>2026-04-04T10:32:48.108Z</time></trkpt><trkpt lat="44.654535" lon="8.8304533"><ele>278.0</ele><time>2026-04-04T10:32:49.101Z</time></trkpt><trkpt lat="44.6544" lon="8.830455"><ele>279.0</ele><time>2026-04-04T10:32:50.105Z</time></trkpt><trkpt lat="44.6542633" lon="8.8304567"><ele>280.0</ele><time>2026-04-04T10:32:51.102Z</time></trkpt><trkpt lat="44.6541267" lon="8.8304583"><ele>281.0</ele><time>2026-04-04T10:32:52.104Z</time></trkpt><trkpt lat="44.6539917" lon="8.8304683"><ele>281.0</ele><time>2026-04-04T10:32:53.097Z</time></trkpt><trkpt lat="44.65386" lon="8.8304767"><ele>281.0</ele><time>2026-04-04T10:32:54.104Z</time></trkpt><trkpt lat="44.65373" lon="8.83048"><ele>281.0</ele><time>2026-04-04T10:32:55.103Z</time></trkpt><trkpt lat="44.6536017" lon="8.8304817"><ele>281.0</ele><time>2026-04-04T10:32:56.097Z</time></trkpt><trkpt lat="44.6534817" lon="8.830485"><ele>280.25</ele><time>2026-04-04T10:32:57.098Z</time></trkpt><trkpt lat="44.6533583" lon="8.8304867"><ele>279.5</ele><time>2026-04-04T10:32:58.101Z</time></trkpt><trkpt lat="44.6532317" lon="8.83048"><ele>278.75</ele><time>2026-04-04T10:32:59.107Z</time></trkpt><trkpt lat="44.6530883" lon="8.83045"><ele>278.0</ele><time>2026-04-04T10:33:00.1Z</time></trkpt><trkpt lat="44.652955" lon="8.8304017"><ele>278.0</ele><time>2026-04-04T10:33:01.101Z</time></trkpt><trkpt lat="44.6528283" lon="8.8303433"><ele>278.0</ele><time>2026-04-04T10:33:02.103Z</time></trkpt><trkpt lat="44.652695" lon="8.8303067"><ele>278.0</ele><time>2026-04-04T10:33:03.101Z</time></trkpt><trkpt lat="44.6525633" lon="8.8303067"><ele>278.0</ele><time>2026-04-04T10:33:04.1Z</time></trkpt><trkpt lat="44.6524283" lon="8.8303283"><ele>277.75</ele><time>2026-04-04T10:33:05.101Z</time></trkpt><trkpt lat="44.6522933" lon="8.8303533"><ele>277.5</ele><time>2026-04-04T10:33:06.103Z</time></trkpt><trkpt lat="44.652155" lon="8.8303817"><ele>277.25</ele><time>2026-04-04T10:33:07.103Z</time></trkpt><trkpt lat="44.6520067" lon="8.8304283"><ele>277.0</ele><time>2026-04-04T10:33:08.103Z</time></trkpt><trkpt lat="44.6518717" lon="8.8304967"><ele>277.0</ele><time>2026-04-04T10:33:09.101Z</time></trkpt><trkpt lat="44.6517383" lon="8.8305733"><ele>277.0</ele><time>2026-04-04T10:33:10.104Z</time></trkpt><trkpt lat="44.6516067" lon="8.8306733"><ele>277.0</ele><time>2026-04-04T10:33:11.106Z</time></trkpt><trkpt lat="44.6514767" lon="8.8307767"><ele>277.0</ele><time>2026-04-04T10:33:12.101Z</time></trkpt><trkpt lat="44.6513517" lon="8.830875"><ele>275.5</ele><time>2026-04-04T10:33:13.101Z</time></trkpt><trkpt lat="44.6512283" lon="8.8309783"><ele>274.0</ele><time>2026-04-04T10:33:14.107Z</time></trkpt><trkpt lat="44.6511083" lon="8.831085"><ele>272.5</ele><time>2026-04-04T10:33:15.104Z</time></trkpt><trkpt lat="44.6509817" lon="8.8311833"><ele>271.0</ele><time>2026-04-04T10:33:16.104Z</time></trkpt><trkpt lat="44.6508483" lon="8.8312767"><ele>271.0</ele><time>2026-04-04T10:33:17.104Z</time></trkpt><trkpt lat="44.6507067" lon="8.8313667"><ele>271.0</ele><time>2026-04-04T10:33:18.108Z</time></trkpt><trkpt lat="44.650565" lon="8.8314533"><ele>271.0</ele><time>2026-04-04T10:33:19.1Z</time></trkpt><trkpt lat="44.6504217" lon="8.8315467"><ele>270.0</ele><time>2026-04-04T10:33:20.102Z</time></trkpt><trkpt lat="44.6502733" lon="8.83164"><ele>269.0</ele><time>2026-04-04T10:33:21.1Z</time></trkpt><trkpt lat="44.6501267" lon="8.8317317"><ele>268.0</ele><time>2026-04-04T10:33:22.099Z</time></trkpt><trkpt lat="44.649985" lon="8.8318233"><ele>268.0</ele><time>2026-04-04T10:33:23.1Z</time></trkpt><trkpt lat="44.649835" lon="8.8319183"><ele>268.0</ele><time>2026-04-04T10:33:24.101Z</time></trkpt><trkpt lat="44.6496917" lon="8.8320183"><ele>268.0</ele><time>2026-04-04T10:33:25.1Z</time></trkpt><trkpt lat="44.6495617" lon="8.8321167"><ele>270.5</ele><time>2026-04-04T10:33:26.1Z</time></trkpt><trkpt lat="44.6494383" lon="8.8322183"><ele>273.0</ele><time>2026-04-04T10:33:27.104Z</time></trkpt><trkpt lat="44.6493367" lon="8.8323167"><ele>275.5</ele><time>2026-04-04T10:33:28.102Z</time></trkpt><trkpt lat="44.64927" lon="8.8323683"><ele>278.0</ele><time>2026-04-04T10:33:29.103Z</time></trkpt><trkpt lat="44.6491583" lon="8.8323517"><ele>278.0</ele><time>2026-04-04T10:33:30.103Z</time></trkpt><trkpt lat="44.6490533" lon="8.8322983"><ele>278.0</ele><time>2026-04-04T10:33:31.107Z</time></trkpt><trkpt lat="44.6489533" lon="8.8321867"><ele>278.0</ele><time>2026-04-04T10:33:32.101Z</time></trkpt><trkpt lat="44.6488717" lon="8.83203"><ele>278.0</ele><time>2026-04-04T10:33:33.107Z</time></trkpt><trkpt lat="44.648785" lon="8.83188"><ele>279.0</ele><time>2026-04-04T10:33:34.1Z</time></trkpt><trkpt lat="44.6486867" lon="8.83175"><ele>280.0</ele><time>2026-04-04T10:33:35.107Z</time></trkpt><trkpt lat="44.64858" lon="8.8316517"><ele>281.0</ele><time>2026-04-04T10:33:36.101Z</time></trkpt><trkpt lat="44.64843" lon="8.8315867"><ele>282.0</ele><time>2026-04-04T10:33:37.099Z</time></trkpt><trkpt lat="44.6482883" lon="8.8315533"><ele>282.0</ele><time>2026-04-04T10:33:38.098Z</time></trkpt><trkpt lat="44.648105" lon="8.8315333"><ele>282.0</ele><time>2026-04-04T10:33:39.101Z</time></trkpt><trkpt lat="44.6479217" lon="8.83152"><ele>282.0</ele><time>2026-04-04T10:33:40.097Z</time></trkpt><trkpt lat="44.6477283" lon="8.831515"><ele>278.6666666666667</ele><time>2026-04-04T10:33:41.098Z</time></trkpt><trkpt lat="44.64755" lon="8.83153"><ele>275.33333333333337</ele><time>2026-04-04T10:33:42.102Z</time></trkpt><trkpt lat="44.6473667" lon="8.83156"><ele>272.0</ele><time>2026-04-04T10:33:43.098Z</time></trkpt><trkpt lat="44.647185" lon="8.8316133"><ele>272.0</ele><time>2026-04-04T10:33:44.101Z</time></trkpt><trkpt lat="44.6470083" lon="8.83168"><ele>272.0</ele><time>2026-04-04T10:33:45.1Z</time></trkpt><trkpt lat="44.64685" lon="8.8317517"><ele>272.0</ele><time>2026-04-04T10:33:46.104Z</time></trkpt><trkpt lat="44.646705" lon="8.831805"><ele>271.5</ele><time>2026-04-04T10:33:47.103Z</time></trkpt><trkpt lat="44.64656" lon="8.8318533"><ele>271.0</ele><time>2026-04-04T10:33:48.104Z</time></trkpt><trkpt lat="44.6464167" lon="8.8318967"><ele>270.5</ele><time>2026-04-04T10:33:49.104Z</time></trkpt><trkpt lat="44.64628" lon="8.83193"><ele>270.0</ele><time>2026-04-04T10:33:50.103Z</time></trkpt><trkpt lat="44.64613" lon="8.8319683"><ele>272.6666666666667</ele><time>2026-04-04T10:33:51.103Z</time></trkpt><trkpt lat="44.6459583" lon="8.83203"><ele>275.33333333333337</ele><time>2026-04-04T10:33:52.101Z</time></trkpt><trkpt lat="44.6457583" lon="8.832105"><ele>278.0</ele><time>2026-04-04T10:33:53.102Z</time></trkpt><trkpt lat="44.64554" lon="8.8322"><ele>278.0</ele><time>2026-04-04T10:33:54.103Z</time></trkpt><trkpt lat="44.6453267" lon="8.8322967"><ele>278.0</ele><time>2026-04-04T10:33:55.106Z</time></trkpt><trkpt lat="44.6451267" lon="8.83241"><ele>278.0</ele><time>2026-04-04T10:33:56.107Z</time></trkpt><trkpt lat="44.6449417" lon="8.8325267"><ele>279.33333333333337</ele><time>2026-04-04T10:33:57.1Z</time></trkpt><trkpt lat="44.6447683" lon="8.832645"><ele>280.6666666666667</ele><time>2026-04-04T10:33:58.105Z</time></trkpt><trkpt lat="44.6446083" lon="8.8327533"><ele>282.0</ele><time>2026-04-04T10:33:59.108Z</time></trkpt><trkpt lat="44.6444533" lon="8.8328417"><ele>284.0</ele><time>2026-04-04T10:34:00.099Z</time></trkpt><trkpt lat="44.6443017" lon="8.8329083"><ele>286.0</ele><time>2026-04-04T10:34:01.101Z</time></trkpt><trkpt lat="44.6441533" lon="8.8329617"><ele>288.0</ele><time>2026-04-04T10:34:02.104Z</time></trkpt><trkpt lat="44.6440033" lon="8.8330083"><ele>288.0</ele><time>2026-04-04T10:34:03.107Z</time></trkpt><trkpt lat="44.6438483" lon="8.833055"><ele>288.0</ele><time>2026-04-04T10:34:04.102Z</time></trkpt><trkpt lat="44.6436983" lon="8.833105"><ele>288.0</ele><time>2026-04-04T10:34:05.103Z</time></trkpt><trkpt lat="44.643545" lon="8.833155"><ele>290.6666666666667</ele><time>2026-04-04T10:34:06.102Z</time></trkpt><trkpt lat="44.6433917" lon="8.8332067"><ele>293.33333333333337</ele><time>2026-04-04T10:34:07.103Z</time></trkpt><trkpt lat="44.6432383" lon="8.83326"><ele>296.0</ele><time>2026-04-04T10:34:08.1Z</time></trkpt><trkpt lat="44.6430917" lon="8.83332"><ele>296.0</ele><time>2026-04-04T10:34:09.101Z</time></trkpt><trkpt lat="44.64294" lon="8.8333783"><ele>296.0</ele><time>2026-04-04T10:34:10.101Z</time></trkpt><trkpt lat="44.6427867" lon="8.833435"><ele>296.0</ele><time>2026-04-04T10:34:11.103Z</time></trkpt><trkpt lat="44.642635" lon="8.8334967"><ele>296.33333333333337</ele><time>2026-04-04T10:34:12.102Z</time></trkpt><trkpt lat="44.6424817" lon="8.83357"><ele>296.6666666666667</ele><time>2026-04-04T10:34:13.103Z</time></trkpt><trkpt lat="44.6423333" lon="8.8336517"><ele>297.0</ele><time>2026-04-04T10:34:14.1Z</time></trkpt><trkpt lat="44.6421833" lon="8.833735"><ele>297.0</ele><time>2026-04-04T10:34:15.102Z</time></trkpt><trkpt lat="44.64204" lon="8.8338233"><ele>297.0</ele><time>2026-04-04T10:34:16.102Z</time></trkpt><trkpt lat="44.6418933" lon="8.83392"><ele>297.0</ele><time>2026-04-04T10:34:17.101Z</time></trkpt><trkpt lat="44.6417433" lon="8.83401"><ele>300.0</ele><time>2026-04-04T10:34:18.1Z</time></trkpt><trkpt lat="44.6415967" lon="8.8341017"><ele>303.0</ele><time>2026-04-04T10:34:19.102Z</time></trkpt><trkpt lat="44.6414483" lon="8.8341833"><ele>306.0</ele><time>2026-04-04T10:34:20.1Z</time></trkpt><trkpt lat="44.6412983" lon="8.8342533"><ele>302.75</ele><time>2026-04-04T10:34:21.101Z</time></trkpt><trkpt lat="44.64115" lon="8.8343233"><ele>299.5</ele><time>2026-04-04T10:34:22.102Z</time></trkpt><trkpt lat="44.641005" lon="8.834395"><ele>296.25</ele><time>2026-04-04T10:34:23.099Z</time></trkpt><trkpt lat="44.6408717" lon="8.83445"><ele>293.0</ele><time>2026-04-04T10:34:24.098Z</time></trkpt><trkpt lat="44.6407333" lon="8.8344733"><ele>293.0</ele><time>2026-04-04T10:34:25.1Z</time></trkpt><trkpt lat="44.6406083" lon="8.8344583"><ele>293.0</ele><time>2026-04-04T10:34:26.1Z</time></trkpt><trkpt lat="44.6404983" lon="8.8344267"><ele>293.0</ele><time>2026-04-04T10:34:27.101Z</time></trkpt><trkpt lat="44.6403933" lon="8.8343817"><ele>293.0</ele><time>2026-04-04T10:34:28.102Z</time></trkpt><trkpt lat="44.64029" lon="8.834335"><ele>294.4</ele><time>2026-04-04T10:34:29.107Z</time></trkpt><trkpt lat="44.6401883" lon="8.8343117"><ele>295.8</ele><time>2026-04-04T10:34:30.101Z</time></trkpt><trkpt lat="44.6400883" lon="8.8343133"><ele>297.2</ele><time>2026-04-04T10:34:31.102Z</time></trkpt><trkpt lat="44.6399917" lon="8.8343367"><ele>298.6</ele><time>2026-04-04T10:34:32.101Z</time></trkpt><trkpt lat="44.6399" lon="8.8343633"><ele>300.0</ele><time>2026-04-04T10:34:33.101Z</time></trkpt><trkpt lat="44.639815" lon="8.8344"><ele>300.0</ele><time>2026-04-04T10:34:34.103Z</time></trkpt><trkpt lat="44.63973" lon="8.8344517"><ele>300.0</ele><time>2026-04-04T10:34:35.101Z</time></trkpt><trkpt lat="44.6396417" lon="8.8345217"><ele>300.0</ele><time>2026-04-04T10:34:36.1Z</time></trkpt><trkpt lat="44.63956" lon="8.8346133"><ele>300.0</ele><time>2026-04-04T10:34:37.099Z</time></trkpt><trkpt lat="44.639485" lon="8.83472"><ele>300.0</ele><time>2026-04-04T10:34:38.104Z</time></trkpt><trkpt lat="44.6394117" lon="8.8348433"><ele>303.75</ele><time>2026-04-04T10:34:39.103Z</time></trkpt><trkpt lat="44.6393217" lon="8.8349633"><ele>307.5</ele><time>2026-04-04T10:34:40.104Z</time></trkpt><trkpt lat="44.63922" lon="8.83507"><ele>311.25</ele><time>2026-04-04T10:34:41.1Z</time></trkpt><trkpt lat="44.6391067" lon="8.8351517"><ele>315.0</ele><time>2026-04-04T10:34:42.105Z</time></trkpt><trkpt lat="44.638985" lon="8.83523"><ele>315.0</ele><time>2026-04-04T10:34:43.106Z</time></trkpt><trkpt lat="44.6388617" lon="8.8352983"><ele>315.0</ele><time>2026-04-04T10:34:44.1Z</time></trkpt><trkpt lat="44.6387433" lon="8.835355"><ele>315.0</ele><time>2026-04-04T10:34:45.101Z</time></trkpt><trkpt lat="44.6386383" lon="8.8354117"><ele>315.0</ele><time>2026-04-04T10:34:46.103Z</time></trkpt><trkpt lat="44.6385517" lon="8.835495"><ele>316.5</ele><time>2026-04-04T10:34:47.104Z</time></trkpt><trkpt lat="44.638485" lon="8.8356033"><ele>318.0</ele><time>2026-04-04T10:34:48.101Z</time></trkpt><trkpt lat="44.6384467" lon="8.8357483"><ele>319.5</ele><time>2026-04-04T10:34:49.106Z</time></trkpt><trkpt lat="44.6384167" lon="8.8359183"><ele>321.0</ele><time>2026-04-04T10:34:50.099Z</time></trkpt><trkpt lat="44.6383817" lon="8.8360967"><ele>321.0</ele><time>2026-04-04T10:34:51.102Z</time></trkpt><trkpt lat="44.6383433" lon="8.8362967"><ele>321.0</ele><time>2026-04-04T10:34:52.107Z</time></trkpt><trkpt lat="44.638285" lon="8.836495"><ele>321.0</ele><time>2026-04-04T10:34:53.102Z</time></trkpt><trkpt lat="44.63822" lon="8.8366833"><ele>321.0</ele><time>2026-04-04T10:34:54.102Z</time></trkpt><trkpt lat="44.6381517" lon="8.8368767"><ele>318.75</ele><time>2026-04-04T10:34:55.1Z</time></trkpt><trkpt lat="44.6380833" lon="8.8370667"><ele>316.5</ele><time>2026-04-04T10:34:56.101Z</time></trkpt><trkpt lat="44.6380167" lon="8.8372533"><ele>314.25</ele><time>2026-04-04T10:34:57.106Z</time></trkpt><trkpt lat="44.63795" lon="8.8374383"><ele>312.0</ele><time>2026-04-04T10:34:58.101Z</time></trkpt><trkpt lat="44.6378783" lon="8.8376217"><ele>315.5</ele><time>2026-04-04T10:34:59.107Z</time></trkpt><trkpt lat="44.6378017" lon="8.837805"><ele>319.0</ele><time>2026-04-04T10:35:00.1Z</time></trkpt><trkpt lat="44.6377333" lon="8.8379917"><ele>322.5</ele><time>2026-04-04T10:35:01.105Z</time></trkpt><trkpt lat="44.6376617" lon="8.8381733"><ele>326.0</ele><time>2026-04-04T10:35:02.102Z</time></trkpt><trkpt lat="44.637605" lon="8.8383583"><ele>323.0</ele><time>2026-04-04T10:35:03.101Z</time></trkpt><trkpt lat="44.6375283" lon="8.838545"><ele>320.0</ele><time>2026-04-04T10:35:04.105Z</time></trkpt><trkpt lat="44.6374683" lon="8.8387467"><ele>317.0</ele><time>2026-04-04T10:35:05.098Z</time></trkpt><trkpt lat="44.63741" lon="8.8389417"><ele>317.0</ele><time>2026-04-04T10:35:06.102Z</time></trkpt><trkpt lat="44.6373333" lon="8.83912"><ele>317.0</ele><time>2026-04-04T10:35:07.098Z</time></trkpt><trkpt lat="44.6372433" lon="8.8392967"><ele>317.0</ele><time>2026-04-04T10:35:08.096Z</time></trkpt><trkpt lat="44.6371283" lon="8.8394317"><ele>315.75</ele><time>2026-04-04T10:35:09.099Z</time></trkpt><trkpt lat="44.6370183" lon="8.839575"><ele>314.5</ele><time>2026-04-04T10:35:10.103Z</time></trkpt><trkpt lat="44.6369117" lon="8.8397233"><ele>313.25</ele><time>2026-04-04T10:35:11.099Z</time></trkpt><trkpt lat="44.63681" lon="8.8398667"><ele>312.0</ele><time>2026-04-04T10:35:12.097Z</time></trkpt><trkpt lat="44.6367083" lon="8.8399933"><ele>312.5</ele><time>2026-04-04T10:35:13.099Z</time></trkpt><trkpt lat="44.6366" lon="8.8401117"><ele>313.0</ele><time>2026-04-04T10:35:14.101Z</time></trkpt><trkpt lat="44.6365017" lon="8.8402333"><ele>313.5</ele><time>2026-04-04T10:35:15.102Z</time></trkpt><trkpt lat="44.636405" lon="8.8403583"><ele>314.0</ele><time>2026-04-04T10:35:16.103Z</time></trkpt><trkpt lat="44.6363133" lon="8.8404867"><ele>314.0</ele><time>2026-04-04T10:35:17.104Z</time></trkpt><trkpt lat="44.6362133" lon="8.8406183"><ele>314.0</ele><time>2026-04-04T10:35:18.101Z</time></trkpt><trkpt lat="44.6361183" lon="8.840755"><ele>314.0</ele><time>2026-04-04T10:35:19.102Z</time></trkpt><trkpt lat="44.6360267" lon="8.8408983"><ele>314.0</ele><time>2026-04-04T10:35:20.104Z</time></trkpt><trkpt lat="44.6359367" lon="8.8410433"><ele>315.75</ele><time>2026-04-04T10:35:21.103Z</time></trkpt><trkpt lat="44.6358517" lon="8.8411917"><ele>317.5</ele><time>2026-04-04T10:35:22.102Z</time></trkpt><trkpt lat="44.63577" lon="8.841345"><ele>319.25</ele><time>2026-04-04T10:35:23.106Z</time></trkpt><trkpt lat="44.635695" lon="8.8415083"><ele>321.0</ele><time>2026-04-04T10:35:24.106Z</time></trkpt><trkpt lat="44.6356267" lon="8.84168"><ele>317.0</ele><time>2026-04-04T10:35:25.102Z</time></trkpt><trkpt lat="44.6355533" lon="8.8418433"><ele>313.0</ele><time>2026-04-04T10:35:26.102Z</time></trkpt><trkpt lat="44.6354817" lon="8.8419817"><ele>309.0</ele><time>2026-04-04T10:35:27.104Z</time></trkpt><trkpt lat="44.6354183" lon="8.8420967"><ele>305.0</ele><time>2026-04-04T10:35:28.105Z</time></trkpt><trkpt lat="44.6353583" lon="8.842195"><ele>308.4</ele><time>2026-04-04T10:35:29.107Z</time></trkpt><trkpt lat="44.6352883" lon="8.8422717"><ele>311.8</ele><time>2026-04-04T10:35:30.103Z</time></trkpt><trkpt lat="44.6352033" lon="8.8423333"><ele>315.20000000000005</ele><time>2026-04-04T10:35:31.105Z</time></trkpt><trkpt lat="44.6351017" lon="8.8423833"><ele>318.6</ele><time>2026-04-04T10:35:32.102Z</time></trkpt><trkpt lat="44.634995" lon="8.8424267"><ele>322.0</ele><time>2026-04-04T10:35:33.101Z</time></trkpt><trkpt lat="44.6348783" lon="8.8424683"><ele>322.0</ele><time>2026-04-04T10:35:34.099Z</time></trkpt><trkpt lat="44.6347517" lon="8.842515"><ele>322.0</ele><time>2026-04-04T10:35:35.103Z</time></trkpt><trkpt lat="44.63463" lon="8.8425683"><ele>322.0</ele><time>2026-04-04T10:35:36.1Z</time></trkpt><trkpt lat="44.6345067" lon="8.8426167"><ele>322.0</ele><time>2026-04-04T10:35:37.103Z</time></trkpt><trkpt lat="44.6343817" lon="8.8426633"><ele>318.0</ele><time>2026-04-04T10:35:38.101Z</time></trkpt><trkpt lat="44.63426" lon="8.8427167"><ele>314.0</ele><time>2026-04-04T10:35:39.101Z</time></trkpt><trkpt lat="44.63413" lon="8.8427683"><ele>310.0</ele><time>2026-04-04T10:35:40.099Z</time></trkpt><trkpt lat="44.6340033" lon="8.8428133"><ele>306.0</ele><time>2026-04-04T10:35:41.109Z</time></trkpt><trkpt lat="44.633875" lon="8.842845"><ele>306.0</ele><time>2026-04-04T10:35:42.106Z</time></trkpt><trkpt lat="44.633745" lon="8.8428617"><ele>306.0</ele><time>2026-04-04T10:35:43.101Z</time></trkpt><trkpt lat="44.6336167" lon="8.84287"><ele>306.0</ele><time>2026-04-04T10:35:44.103Z</time></trkpt><trkpt lat="44.6334933" lon="8.8428683"><ele>306.0</ele><time>2026-04-04T10:35:45.102Z</time></trkpt><trkpt lat="44.6333717" lon="8.84288"><ele>307.8</ele><time>2026-04-04T10:35:46.104Z</time></trkpt><trkpt lat="44.6332533" lon="8.84292"><ele>309.6</ele><time>2026-04-04T10:35:47.102Z</time></trkpt><trkpt lat="44.6331367" lon="8.8429767"><ele>311.4</ele><time>2026-04-04T10:35:48.106Z</time></trkpt><trkpt lat="44.6330417" lon="8.8430317"><ele>313.2</ele><time>2026-04-04T10:35:49.104Z</time></trkpt><trkpt lat="44.632955" lon="8.8430767"><ele>315.0</ele><time>2026-04-04T10:35:50.1Z</time></trkpt><trkpt lat="44.6328767" lon="8.8431067"><ele>315.1666666666667</ele><time>2026-04-04T10:35:51.099Z</time></trkpt><trkpt lat="44.6327883" lon="8.8431017"><ele>315.3333333333333</ele><time>2026-04-04T10:35:52.102Z</time></trkpt><trkpt lat="44.6326917" lon="8.8430717"><ele>315.5</ele><time>2026-04-04T10:35:53.104Z</time></trkpt><trkpt lat="44.6326067" lon="8.843015"><ele>315.66666666666663</ele><time>2026-04-04T10:35:54.101Z</time></trkpt><trkpt lat="44.6325433" lon="8.84294"><ele>315.8333333333333</ele><time>2026-04-04T10:35:55.099Z</time></trkpt><trkpt lat="44.63252" lon="8.8428367"><ele>316.0</ele><time>2026-04-04T10:35:56.098Z</time></trkpt><trkpt lat="44.6325017" lon="8.8426"><ele>318.0</ele><time>2026-04-04T10:35:58.098Z</time></trkpt><trkpt lat="44.632485" lon="8.8424317"><ele>320.0</ele><time>2026-04-04T10:35:59.101Z</time></trkpt><trkpt lat="44.6324383" lon="8.842285"><ele>322.0</ele><time>2026-04-04T10:36:00.099Z</time></trkpt><trkpt lat="44.632385" lon="8.84216"><ele>324.0</ele><time>2026-04-04T10:36:01.101Z</time></trkpt><trkpt lat="44.632315" lon="8.842055"><ele>326.0</ele><time>2026-04-04T10:36:02.101Z</time></trkpt><trkpt lat="44.6322317" lon="8.84197"><ele>326.0</ele><time>2026-04-04T10:36:03.1Z</time></trkpt><trkpt lat="44.63215" lon="8.8419"><ele>326.0</ele><time>2026-04-04T10:36:04.101Z</time></trkpt><trkpt lat="44.6320767" lon="8.84184"><ele>326.0</ele><time>2026-04-04T10:36:05.101Z</time></trkpt><trkpt lat="44.632005" lon="8.84178"><ele>326.0</ele><time>2026-04-04T10:36:06.101Z</time></trkpt><trkpt lat="44.6319333" lon="8.84176"><ele>326.0</ele><time>2026-04-04T10:36:07.105Z</time></trkpt><trkpt lat="44.6318433" lon="8.84176"><ele>326.0</ele><time>2026-04-04T10:36:08.102Z</time></trkpt><trkpt lat="44.631725" lon="8.8418017"><ele>322.25</ele><time>2026-04-04T10:36:09.101Z</time></trkpt><trkpt lat="44.631595" lon="8.8418733"><ele>318.5</ele><time>2026-04-04T10:36:10.103Z</time></trkpt><trkpt lat="44.6314617" lon="8.8419317"><ele>314.75</ele><time>2026-04-04T10:36:11.105Z</time></trkpt><trkpt lat="44.6313217" lon="8.841985"><ele>311.0</ele><time>2026-04-04T10:36:12.096Z</time></trkpt><trkpt lat="44.631185" lon="8.84204"><ele>310.75</ele><time>2026-04-04T10:36:13.101Z</time></trkpt><trkpt lat="44.6310533" lon="8.84209"><ele>310.5</ele><time>2026-04-04T10:36:14.099Z</time></trkpt><trkpt lat="44.6309283" lon="8.8421317"><ele>310.25</ele><time>2026-04-04T10:36:15.096Z</time></trkpt><trkpt lat="44.6308083" lon="8.8421467"><ele>310.0</ele><time>2026-04-04T10:36:16.106Z</time></trkpt><trkpt lat="44.6306883" lon="8.84215"><ele>310.0</ele><time>2026-04-04T10:36:17.102Z</time></trkpt><trkpt lat="44.63057" lon="8.84213"><ele>310.0</ele><time>2026-04-04T10:36:18.103Z</time></trkpt><trkpt lat="44.630455" lon="8.842095"><ele>310.0</ele><time>2026-04-04T10:36:19.1Z</time></trkpt><trkpt lat="44.6303467" lon="8.842045"><ele>310.0</ele><time>2026-04-04T10:36:20.102Z</time></trkpt><trkpt lat="44.6302433" lon="8.8420067"><ele>311.25</ele><time>2026-04-04T10:36:21.099Z</time></trkpt><trkpt lat="44.6301383" lon="8.8420117"><ele>312.5</ele><time>2026-04-04T10:36:22.098Z</time></trkpt><trkpt lat="44.6300217" lon="8.842055"><ele>313.75</ele><time>2026-04-04T10:36:23.102Z</time></trkpt><trkpt lat="44.6299017" lon="8.8421217"><ele>315.0</ele><time>2026-04-04T10:36:24.099Z</time></trkpt><trkpt lat="44.6297833" lon="8.8421933"><ele>315.0</ele><time>2026-04-04T10:36:25.104Z</time></trkpt><trkpt lat="44.629665" lon="8.84227"><ele>315.0</ele><time>2026-04-04T10:36:26.105Z</time></trkpt><trkpt lat="44.6295483" lon="8.8423467"><ele>315.0</ele><time>2026-04-04T10:36:27.104Z</time></trkpt><trkpt lat="44.62944" lon="8.8424233"><ele>315.0</ele><time>2026-04-04T10:36:28.104Z</time></trkpt><trkpt lat="44.6293317" lon="8.8424933"><ele>315.0</ele><time>2026-04-04T10:36:29.102Z</time></trkpt><trkpt lat="44.6292183" lon="8.8425683"><ele>315.0</ele><time>2026-04-04T10:36:30.105Z</time></trkpt><trkpt lat="44.6291" lon="8.8426283"><ele>315.0</ele><time>2026-04-04T10:36:31.104Z</time></trkpt><trkpt lat="44.6289733" lon="8.8426733"><ele>315.0</ele><time>2026-04-04T10:36:32.103Z</time></trkpt><trkpt lat="44.6288383" lon="8.8426983"><ele>315.0</ele><time>2026-04-04T10:36:33.102Z</time></trkpt><trkpt lat="44.6287" lon="8.84271"><ele>315.0</ele><time>2026-04-04T10:36:34.106Z</time></trkpt><trkpt lat="44.628555" lon="8.8427133"><ele>315.0</ele><time>2026-04-04T10:36:35.11Z</time></trkpt><trkpt lat="44.6284067" lon="8.8427133"><ele>315.0</ele><time>2026-04-04T10:36:36.104Z</time></trkpt><trkpt lat="44.6282617" lon="8.8427183"><ele>316.0</ele><time>2026-04-04T10:36:37.102Z</time></trkpt><trkpt lat="44.628115" lon="8.8427317"><ele>317.0</ele><time>2026-04-04T10:36:38.108Z</time></trkpt><trkpt lat="44.627975" lon="8.8427533"><ele>318.0</ele><time>2026-04-04T10:36:39.102Z</time></trkpt><trkpt lat="44.6278367" lon="8.8427717"><ele>319.0</ele><time>2026-04-04T10:36:40.101Z</time></trkpt><trkpt lat="44.6276983" lon="8.8427933"><ele>320.75</ele><time>2026-04-04T10:36:41.106Z</time></trkpt><trkpt lat="44.62756" lon="8.8428183"><ele>322.5</ele><time>2026-04-04T10:36:42.103Z</time></trkpt><trkpt lat="44.6274283" lon="8.8428483"><ele>324.25</ele><time>2026-04-04T10:36:43.1Z</time></trkpt><trkpt lat="44.6272967" lon="8.84288"><ele>326.0</ele><time>2026-04-04T10:36:44.099Z</time></trkpt><trkpt lat="44.6271617" lon="8.84292"><ele>326.0</ele><time>2026-04-04T10:36:45.104Z</time></trkpt><trkpt lat="44.6270317" lon="8.8429617"><ele>326.0</ele><time>2026-04-04T10:36:46.1Z</time></trkpt><trkpt lat="44.6269" lon="8.84301"><ele>326.0</ele><time>2026-04-04T10:36:47.104Z</time></trkpt><trkpt lat="44.6267767" lon="8.8430617"><ele>326.0</ele><time>2026-04-04T10:36:48.1Z</time></trkpt><trkpt lat="44.6266633" lon="8.8431217"><ele>326.20000000000005</ele><time>2026-04-04T10:36:49.103Z</time></trkpt><trkpt lat="44.6265683" lon="8.84318"><ele>326.40000000000003</ele><time>2026-04-04T10:36:50.1Z</time></trkpt><trkpt lat="44.6264833" lon="8.8432183"><ele>326.6</ele><time>2026-04-04T10:36:51.102Z</time></trkpt><trkpt lat="44.6263917" lon="8.8432217"><ele>326.8</ele><time>2026-04-04T10:36:52.104Z</time></trkpt><trkpt lat="44.6263" lon="8.843185"><ele>327.0</ele><time>2026-04-04T10:36:53.1Z</time></trkpt><trkpt lat="44.6261983" lon="8.8431633"><ele>327.5</ele><time>2026-04-04T10:36:54.101Z</time></trkpt><trkpt lat="44.6260817" lon="8.8431633"><ele>328.0</ele><time>2026-04-04T10:36:55.099Z</time></trkpt><trkpt lat="44.6259567" lon="8.84317"><ele>328.5</ele><time>2026-04-04T10:36:56.105Z</time></trkpt><trkpt lat="44.6258333" lon="8.8431767"><ele>329.0</ele><time>2026-04-04T10:36:57.103Z</time></trkpt><trkpt lat="44.6257033" lon="8.8432033"><ele>329.0</ele><time>2026-04-04T10:36:58.101Z</time></trkpt><trkpt lat="44.6256" lon="8.843225"><ele>329.0</ele><time>2026-04-04T10:36:59.101Z</time></trkpt><trkpt lat="44.6255033" lon="8.8432367"><ele>329.0</ele><time>2026-04-04T10:37:00.1Z</time></trkpt><trkpt lat="44.62541" lon="8.8432433"><ele>329.0</ele><time>2026-04-04T10:37:01.102Z</time></trkpt><trkpt lat="44.62526" lon="8.8432417"><ele>329.0</ele><time>2026-04-04T10:37:03.099Z</time></trkpt><trkpt lat="44.6251633" lon="8.8432633"><ele>330.25</ele><time>2026-04-04T10:37:04.101Z</time></trkpt><trkpt lat="44.625055" lon="8.8432967"><ele>331.5</ele><time>2026-04-04T10:37:05.108Z</time></trkpt><trkpt lat="44.6249433" lon="8.8433133"><ele>332.75</ele><time>2026-04-04T10:37:06.099Z</time></trkpt><trkpt lat="44.6248283" lon="8.8433283"><ele>334.0</ele><time>2026-04-04T10:37:07.101Z</time></trkpt><trkpt lat="44.6247067" lon="8.8433417"><ele>334.0</ele><time>2026-04-04T10:37:08.1Z</time></trkpt><trkpt lat="44.62458" lon="8.843345"><ele>334.0</ele><time>2026-04-04T10:37:09.101Z</time></trkpt><trkpt lat="44.6244483" lon="8.843355"><ele>334.0</ele><time>2026-04-04T10:37:10.1Z</time></trkpt><trkpt lat="44.6243117" lon="8.84337"><ele>334.0</ele><time>2026-04-04T10:37:11.102Z</time></trkpt><trkpt lat="44.6241733" lon="8.843385"><ele>333.75</ele><time>2026-04-04T10:37:12.104Z</time></trkpt><trkpt lat="44.6240317" lon="8.8433967"><ele>333.5</ele><time>2026-04-04T10:37:13.106Z</time></trkpt><trkpt lat="44.6238933" lon="8.8434033"><ele>333.25</ele><time>2026-04-04T10:37:14.107Z</time></trkpt><trkpt lat="44.62375" lon="8.8434167"><ele>333.0</ele><time>2026-04-04T10:37:15.104Z</time></trkpt><trkpt lat="44.6236083" lon="8.8434333"><ele>332.75</ele><time>2026-04-04T10:37:16.106Z</time></trkpt><trkpt lat="44.62348" lon="8.8434467"><ele>332.5</ele><time>2026-04-04T10:37:17.103Z</time></trkpt><trkpt lat="44.6233567" lon="8.8434533"><ele>332.25</ele><time>2026-04-04T10:37:18.101Z</time></trkpt><trkpt lat="44.6232417" lon="8.8434583"><ele>332.0</ele><time>2026-04-04T10:37:19.102Z</time></trkpt><trkpt lat="44.62313" lon="8.8434633"><ele>331.5</ele><time>2026-04-04T10:37:20.1Z</time></trkpt><trkpt lat="44.623015" lon="8.8434717"><ele>331.0</ele><time>2026-04-04T10:37:21.106Z</time></trkpt><trkpt lat="44.6228967" lon="8.84349"><ele>330.5</ele><time>2026-04-04T10:37:22.104Z</time></trkpt><trkpt lat="44.6227833" lon="8.84353"><ele>330.0</ele><time>2026-04-04T10:37:23.101Z</time></trkpt><trkpt lat="44.622685" lon="8.8435717"><ele>330.00000000000006</ele><time>2026-04-04T10:37:24.098Z</time></trkpt><trkpt lat="44.6225983" lon="8.84362"><ele>330.0</ele><time>2026-04-04T10:37:25.106Z</time></trkpt><trkpt lat="44.6225233" lon="8.8436633"><ele>330.0</ele><time>2026-04-04T10:37:26.098Z</time></trkpt><trkpt lat="44.6224617" lon="8.8437117"><ele>330.0</ele><time>2026-04-04T10:37:27.098Z</time></trkpt><trkpt lat="44.622405" lon="8.8437617"><ele>330.0</ele><time>2026-04-04T10:37:28.098Z</time></trkpt><trkpt lat="44.6223467" lon="8.8438067"><ele>330.00000000000006</ele><time>2026-04-04T10:37:29.104Z</time></trkpt><trkpt lat="44.6222967" lon="8.8438633"><ele>330.0</ele><time>2026-04-04T10:37:30.101Z</time></trkpt><trkpt lat="44.622245" lon="8.8439167"><ele>330.0</ele><time>2026-04-04T10:37:31.104Z</time></trkpt><trkpt lat="44.6221967" lon="8.8439817"><ele>330.0</ele><time>2026-04-04T10:37:32.097Z</time></trkpt><trkpt lat="44.622105" lon="8.8439867"><ele>330.0</ele><time>2026-04-04T10:37:34.1Z</time></trkpt><trkpt lat="44.62202" lon="8.8439517"><ele>330.0</ele><time>2026-04-04T10:37:36.101Z</time></trkpt><trkpt lat="44.6219283" lon="8.8438467"><ele>330.0</ele><time>2026-04-04T10:37:38.102Z</time></trkpt><trkpt lat="44.6218917" lon="8.84374"><ele>328.5</ele><time>2026-04-04T10:37:39.101Z</time></trkpt><trkpt lat="44.6218783" lon="8.8435883"><ele>327.0</ele><time>2026-04-04T10:37:40.105Z</time></trkpt><trkpt lat="44.62185" lon="8.843485"><ele>325.5</ele><time>2026-04-04T10:37:41.098Z</time></trkpt><trkpt lat="44.62183" lon="8.8433733"><ele>324.0</ele><time>2026-04-04T10:37:42.11Z</time></trkpt><trkpt lat="44.6217917" lon="8.8432933"><ele>322.5</ele><time>2026-04-04T10:37:43.101Z</time></trkpt><trkpt lat="44.6217683" lon="8.84319"><ele>321.0</ele><time>2026-04-04T10:37:44.106Z</time></trkpt><trkpt lat="44.6217383" lon="8.8431033"><ele>321.0</ele><time>2026-04-04T10:37:45.096Z</time></trkpt><trkpt lat="44.6217667" lon="8.8429433"><ele>321.0</ele><time>2026-04-04T10:37:46.098Z</time></trkpt><trkpt lat="44.6217917" lon="8.8428017"><ele>321.0</ele><time>2026-04-04T10:37:47.098Z</time></trkpt><trkpt lat="44.6218017" lon="8.842675"><ele>321.0</ele><time>2026-04-04T10:37:48.1Z</time></trkpt><trkpt lat="44.62182" lon="8.842555"><ele>321.0</ele><time>2026-04-04T10:37:49.1Z</time></trkpt><trkpt lat="44.6218667" lon="8.8423833"><ele>321.1666666666667</ele><time>2026-04-04T10:37:50.098Z</time></trkpt><trkpt lat="44.62189" lon="8.8422433"><ele>321.3333333333333</ele><time>2026-04-04T10:37:51.098Z</time></trkpt><trkpt lat="44.6219183" lon="8.8421067"><ele>321.5</ele><time>2026-04-04T10:37:52.1Z</time></trkpt><trkpt lat="44.6219317" lon="8.841985"><ele>321.66666666666663</ele><time>2026-04-04T10:37:53.101Z</time></trkpt><trkpt lat="44.62196" lon="8.8418783"><ele>321.8333333333333</ele><time>2026-04-04T10:37:54.103Z</time></trkpt><trkpt lat="44.621975" lon="8.8417767"><ele>322.0</ele><time>2026-04-04T10:37:55.103Z</time></trkpt><trkpt lat="44.622015" lon="8.8416867"><ele>322.0</ele><time>2026-04-04T10:37:56.101Z</time></trkpt><trkpt lat="44.6220667" lon="8.8416033"><ele>322.0</ele><time>2026-04-04T10:37:57.098Z</time></trkpt><trkpt lat="44.62211" lon="8.8415367"><ele>322.0</ele><time>2026-04-04T10:37:58.099Z</time></trkpt><trkpt lat="44.6221883" lon="8.8414617"><ele>322.0</ele><time>2026-04-04T10:38:00.098Z</time></trkpt><trkpt lat="44.622225" lon="8.841385"><ele>322.0</ele><time>2026-04-04T10:38:02.102Z</time></trkpt><trkpt lat="44.6222033" lon="8.841275"><ele>322.0</ele><time>2026-04-04T10:38:04.099Z</time></trkpt><trkpt lat="44.6221433" lon="8.841125"><ele>322.0</ele><time>2026-04-04T10:38:06.102Z</time></trkpt><trkpt lat="44.6221067" lon="8.8410283"><ele>322.0</ele><time>2026-04-04T10:38:07.098Z</time></trkpt><trkpt lat="44.6220483" lon="8.8409417"><ele>322.0</ele><time>2026-04-04T10:38:08.1Z</time></trkpt><trkpt lat="44.6219717" lon="8.8408733"><ele>322.0</ele><time>2026-04-04T10:38:09.101Z</time></trkpt><trkpt lat="44.6219117" lon="8.84079"><ele>322.0</ele><time>2026-04-04T10:38:10.101Z</time></trkpt><trkpt lat="44.62186" lon="8.8407083"><ele>322.0</ele><time>2026-04-04T10:38:11.1Z</time></trkpt><trkpt lat="44.6218467" lon="8.84054"><ele>323.5</ele><time>2026-04-04T10:38:13.1Z</time></trkpt><trkpt lat="44.621855" lon="8.8404417"><ele>325.0</ele><time>2026-04-04T10:38:14.099Z</time></trkpt><trkpt lat="44.62186" lon="8.8403367"><ele>326.5</ele><time>2026-04-04T10:38:15.1Z</time></trkpt><trkpt lat="44.62187" lon="8.8402117"><ele>328.0</ele><time>2026-04-04T10:38:16.103Z</time></trkpt><trkpt lat="44.621855" lon="8.8400833"><ele>329.5</ele><time>2026-04-04T10:38:17.101Z</time></trkpt><trkpt lat="44.6218083" lon="8.8399683"><ele>331.0</ele><time>2026-04-04T10:38:18.101Z</time></trkpt><trkpt lat="44.621755" lon="8.8398583"><ele>331.6</ele><time>2026-04-04T10:38:19.104Z</time></trkpt><trkpt lat="44.621715" lon="8.8397383"><ele>332.20000000000005</ele><time>2026-04-04T10:38:20.103Z</time></trkpt><trkpt lat="44.6216817" lon="8.8396167"><ele>332.79999999999995</ele><time>2026-04-04T10:38:21.102Z</time></trkpt><trkpt lat="44.6216583" lon="8.8394733"><ele>333.4</ele><time>2026-04-04T10:38:22.106Z</time></trkpt><trkpt lat="44.62161" lon="8.8393467"><ele>334.0</ele><time>2026-04-04T10:38:23.102Z</time></trkpt><trkpt lat="44.6215533" lon="8.8392167"><ele>336.5</ele><time>2026-04-04T10:38:24.103Z</time></trkpt><trkpt lat="44.6214967" lon="8.8390883"><ele>339.0</ele><time>2026-04-04T10:38:25.101Z</time></trkpt><trkpt lat="44.6214267" lon="8.8389617"><ele>341.5</ele><time>2026-04-04T10:38:26.11Z</time></trkpt><trkpt lat="44.6213517" lon="8.8388317"><ele>344.0</ele><time>2026-04-04T10:38:27.101Z</time></trkpt><trkpt lat="44.6212667" lon="8.8387117"><ele>344.0</ele><time>2026-04-04T10:38:28.104Z</time></trkpt><trkpt lat="44.6211783" lon="8.8386033"><ele>344.0</ele><time>2026-04-04T10:38:29.1Z</time></trkpt><trkpt lat="44.62109" lon="8.8385"><ele>344.0</ele><time>2026-04-04T10:38:30.097Z</time></trkpt><trkpt lat="44.6209967" lon="8.8384017"><ele>344.0</ele><time>2026-04-04T10:38:31.098Z</time></trkpt><trkpt lat="44.6208983" lon="8.838305"><ele>344.5</ele><time>2026-04-04T10:38:32.098Z</time></trkpt><trkpt lat="44.620805" lon="8.8382067"><ele>345.0</ele><time>2026-04-04T10:38:33.102Z</time></trkpt><trkpt lat="44.6207017" lon="8.8381217"><ele>345.5</ele><time>2026-04-04T10:38:34.099Z</time></trkpt><trkpt lat="44.6206083" lon="8.8380217"><ele>346.0</ele><time>2026-04-04T10:38:35.1Z</time></trkpt><trkpt lat="44.6205117" lon="8.8379283"><ele>346.0</ele><time>2026-04-04T10:38:36.099Z</time></trkpt><trkpt lat="44.62042" lon="8.8378367"><ele>346.0</ele><time>2026-04-04T10:38:37.099Z</time></trkpt><trkpt lat="44.6203317" lon="8.8377533"><ele>346.0</ele><time>2026-04-04T10:38:38.109Z</time></trkpt><trkpt lat="44.6202483" lon="8.83766"><ele>346.0</ele><time>2026-04-04T10:38:39.099Z</time></trkpt><trkpt lat="44.6201667" lon="8.8375567"><ele>346.0</ele><time>2026-04-04T10:38:40.101Z</time></trkpt><trkpt lat="44.6200867" lon="8.8374467"><ele>346.0</ele><time>2026-04-04T10:38:41.1Z</time></trkpt><trkpt lat="44.6200117" lon="8.8373317"><ele>346.0</ele><time>2026-04-04T10:38:42.101Z</time></trkpt><trkpt lat="44.6199433" lon="8.8372217"><ele>346.0</ele><time>2026-04-04T10:38:43.102Z</time></trkpt><trkpt lat="44.61987" lon="8.8371283"><ele>346.0</ele><time>2026-04-04T10:38:44.102Z</time></trkpt><trkpt lat="44.6197917" lon="8.8370533"><ele>346.0</ele><time>2026-04-04T10:38:45.102Z</time></trkpt><trkpt lat="44.619725" lon="8.8369883"><ele>346.0</ele><time>2026-04-04T10:38:46.105Z</time></trkpt><trkpt lat="44.6196667" lon="8.83692"><ele>346.0</ele><time>2026-04-04T10:38:47.107Z</time></trkpt><trkpt lat="44.619615" lon="8.83685"><ele>346.0</ele><time>2026-04-04T10:38:48.099Z</time></trkpt><trkpt lat="44.61957" lon="8.8367683"><ele>346.0</ele><time>2026-04-04T10:38:49.102Z</time></trkpt><trkpt lat="44.61957" lon="8.8366367"><ele>346.0</ele><time>2026-04-04T10:38:50.101Z</time></trkpt><trkpt lat="44.6195633" lon="8.8365083"><ele>346.0</ele><time>2026-04-04T10:38:51.098Z</time></trkpt><trkpt lat="44.6195433" lon="8.8363833"><ele>345.8</ele><time>2026-04-04T10:38:52.098Z</time></trkpt><trkpt lat="44.61951" lon="8.8362683"><ele>345.6</ele><time>2026-04-04T10:38:53.097Z</time></trkpt><trkpt lat="44.6194667" lon="8.8361583"><ele>345.4</ele><time>2026-04-04T10:38:54.102Z</time></trkpt><trkpt lat="44.6194017" lon="8.8360617"><ele>345.2</ele><time>2026-04-04T10:38:55.099Z</time></trkpt><trkpt lat="44.6193183" lon="8.83599"><ele>345.0</ele><time>2026-04-04T10:38:56.099Z</time></trkpt><trkpt lat="44.6192067" lon="8.8359417"><ele>345.0</ele><time>2026-04-04T10:38:57.099Z</time></trkpt><trkpt lat="44.6190867" lon="8.8359317"><ele>345.0</ele><time>2026-04-04T10:38:58.1Z</time></trkpt><trkpt lat="44.6189633" lon="8.835935"><ele>345.0</ele><time>2026-04-04T10:38:59.099Z</time></trkpt><trkpt lat="44.6188483" lon="8.835955"><ele>345.0</ele><time>2026-04-04T10:39:00.098Z</time></trkpt><trkpt lat="44.618735" lon="8.8359767"><ele>344.8333333333333</ele><time>2026-04-04T10:39:01.099Z</time></trkpt><trkpt lat="44.6186467" lon="8.835995"><ele>344.6666666666667</ele><time>2026-04-04T10:39:02.101Z</time></trkpt><trkpt lat="44.6185717" lon="8.8359917"><ele>344.5</ele><time>2026-04-04T10:39:03.104Z</time></trkpt><trkpt lat="44.6185033" lon="8.8359683"><ele>344.33333333333337</ele><time>2026-04-04T10:39:04.102Z</time></trkpt><trkpt lat="44.6184433" lon="8.83593"><ele>344.1666666666667</ele><time>2026-04-04T10:39:05.105Z</time></trkpt><trkpt lat="44.618385" lon="8.8357683"><ele>344.0</ele><time>2026-04-04T10:39:07.106Z</time></trkpt><trkpt lat="44.6184417" lon="8.835575"><ele>343.25</ele><time>2026-04-04T10:39:08.1Z</time></trkpt><trkpt lat="44.6184683" lon="8.8354133"><ele>342.5</ele><time>2026-04-04T10:39:09.105Z</time></trkpt><trkpt lat="44.6184983" lon="8.83524"><ele>341.75</ele><time>2026-04-04T10:39:10.102Z</time></trkpt><trkpt lat="44.6185267" lon="8.83506"><ele>341.0</ele><time>2026-04-04T10:39:11.101Z</time></trkpt><trkpt lat="44.6185633" lon="8.83487"><ele>341.0</ele><time>2026-04-04T10:39:12.1Z</time></trkpt><trkpt lat="44.6186017" lon="8.834695"><ele>341.0</ele><time>2026-04-04T10:39:13.101Z</time></trkpt><trkpt lat="44.6186483" lon="8.8345183"><ele>341.0</ele><time>2026-04-04T10:39:14.104Z</time></trkpt><trkpt lat="44.618695" lon="8.8343467"><ele>341.0</ele><time>2026-04-04T10:39:15.096Z</time></trkpt><trkpt lat="44.6187533" lon="8.83417"><ele>344.75</ele><time>2026-04-04T10:39:16.106Z</time></trkpt><trkpt lat="44.6188167" lon="8.8339967"><ele>348.5</ele><time>2026-04-04T10:39:17.099Z</time></trkpt><trkpt lat="44.6188633" lon="8.8338217"><ele>352.25</ele><time>2026-04-04T10:39:18.103Z</time></trkpt><trkpt lat="44.6189133" lon="8.833655"><ele>356.0</ele><time>2026-04-04T10:39:19.104Z</time></trkpt><trkpt lat="44.6189533" lon="8.833505"><ele>356.8</ele><time>2026-04-04T10:39:20.099Z</time></trkpt><trkpt lat="44.618985" lon="8.833365"><ele>357.6</ele><time>2026-04-04T10:39:21.1Z</time></trkpt><trkpt lat="44.6189967" lon="8.8332333"><ele>358.4</ele><time>2026-04-04T10:39:22.098Z</time></trkpt><trkpt lat="44.6189817" lon="8.8331017"><ele>359.2</ele><time>2026-04-04T10:39:23.101Z</time></trkpt><trkpt lat="44.61894" lon="8.8329717"><ele>360.0</ele><time>2026-04-04T10:39:24.099Z</time></trkpt><trkpt lat="44.6188917" lon="8.8328367"><ele>360.0</ele><time>2026-04-04T10:39:25.1Z</time></trkpt><trkpt lat="44.618835" lon="8.8327033"><ele>360.0</ele><time>2026-04-04T10:39:26.101Z</time></trkpt><trkpt lat="44.6187417" lon="8.8326017"><ele>360.0</ele><time>2026-04-04T10:39:27.103Z</time></trkpt><trkpt lat="44.6186433" lon="8.832515"><ele>360.0</ele><time>2026-04-04T10:39:28.101Z</time></trkpt><trkpt lat="44.6185017" lon="8.8324717"><ele>358.0</ele><time>2026-04-04T10:39:29.105Z</time></trkpt><trkpt lat="44.6183767" lon="8.832415"><ele>356.0</ele><time>2026-04-04T10:39:30.101Z</time></trkpt><trkpt lat="44.6182467" lon="8.8323583"><ele>354.0</ele><time>2026-04-04T10:39:31.105Z</time></trkpt><trkpt lat="44.6181117" lon="8.83231"><ele>352.0</ele><time>2026-04-04T10:39:32.099Z</time></trkpt><trkpt lat="44.6179683" lon="8.8322683"><ele>352.0</ele><time>2026-04-04T10:39:33.101Z</time></trkpt><trkpt lat="44.6178283" lon="8.8322267"><ele>352.0</ele><time>2026-04-04T10:39:34.099Z</time></trkpt><trkpt lat="44.6176983" lon="8.8321733"><ele>352.0</ele><time>2026-04-04T10:39:35.1Z</time></trkpt><trkpt lat="44.6175633" lon="8.83212"><ele>352.0</ele><time>2026-04-04T10:39:36.11Z</time></trkpt><trkpt lat="44.617435" lon="8.83206"><ele>352.5</ele><time>2026-04-04T10:39:37.1Z</time></trkpt><trkpt lat="44.6173133" lon="8.83199"><ele>353.0</ele><time>2026-04-04T10:39:38.102Z</time></trkpt><trkpt lat="44.617185" lon="8.8319133"><ele>353.5</ele><time>2026-04-04T10:39:39.107Z</time></trkpt><trkpt lat="44.61707" lon="8.8318167"><ele>354.0</ele><time>2026-04-04T10:39:40.098Z</time></trkpt><trkpt lat="44.6169567" lon="8.8317167"><ele>354.0</ele><time>2026-04-04T10:39:41.101Z</time></trkpt><trkpt lat="44.6168533" lon="8.8316083"><ele>354.0</ele><time>2026-04-04T10:39:42.098Z</time></trkpt><trkpt lat="44.6167733" lon="8.8315117"><ele>354.0</ele><time>2026-04-04T10:39:43.101Z</time></trkpt><trkpt lat="44.61672" lon="8.8314233"><ele>354.0</ele><time>2026-04-04T10:39:44.102Z</time></trkpt><trkpt lat="44.616675" lon="8.83134"><ele>354.0</ele><time>2026-04-04T10:39:45.101Z</time></trkpt><trkpt lat="44.6166483" lon="8.8312517"><ele>354.0</ele><time>2026-04-04T10:39:46.101Z</time></trkpt><trkpt lat="44.6166467" lon="8.8311433"><ele>354.0</ele><time>2026-04-04T10:39:47.102Z</time></trkpt><trkpt lat="44.6166767" lon="8.831005"><ele>354.0</ele><time>2026-04-04T10:39:48.101Z</time></trkpt><trkpt lat="44.6167517" lon="8.8308383"><ele>354.0</ele><time>2026-04-04T10:39:49.101Z</time></trkpt><trkpt lat="44.616845" lon="8.83064"><ele>356.0</ele><time>2026-04-04T10:39:50.1Z</time></trkpt><trkpt lat="44.616925" lon="8.8304483"><ele>358.0</ele><time>2026-04-04T10:39:51.105Z</time></trkpt><trkpt lat="44.61699" lon="8.8302817"><ele>360.0</ele><time>2026-04-04T10:39:52.102Z</time></trkpt><trkpt lat="44.6170333" lon="8.830125"><ele>362.0</ele><time>2026-04-04T10:39:53.104Z</time></trkpt><trkpt lat="44.6170667" lon="8.8299817"><ele>365.5</ele><time>2026-04-04T10:39:54.105Z</time></trkpt><trkpt lat="44.6170983" lon="8.8298417"><ele>369.0</ele><time>2026-04-04T10:39:55.107Z</time></trkpt><trkpt lat="44.6171267" lon="8.8297133"><ele>372.5</ele><time>2026-04-04T10:39:56.105Z</time></trkpt><trkpt lat="44.6171417" lon="8.8295883"><ele>376.0</ele><time>2026-04-04T10:39:57.106Z</time></trkpt><trkpt lat="44.6171583" lon="8.8294767"><ele>379.5</ele><time>2026-04-04T10:39:58.104Z</time></trkpt><trkpt lat="44.6171533" lon="8.8293733"><ele>383.0</ele><time>2026-04-04T10:39:59.103Z</time></trkpt><trkpt lat="44.617115" lon="8.8293017"><ele>383.0</ele><time>2026-04-04T10:40:00.1Z</time></trkpt><trkpt lat="44.6169933" lon="8.8292867"><ele>383.0</ele><time>2026-04-04T10:40:02.107Z</time></trkpt><trkpt lat="44.6168833" lon="8.829245"><ele>383.0</ele><time>2026-04-04T10:40:04.1Z</time></trkpt><trkpt lat="44.61683" lon="8.8290867"><ele>383.0</ele><time>2026-04-04T10:40:06.1Z</time></trkpt><trkpt lat="44.6168" lon="8.828975"><ele>383.0</ele><time>2026-04-04T10:40:07.1Z</time></trkpt><trkpt lat="44.61676" lon="8.8288567"><ele>378.75</ele><time>2026-04-04T10:40:08.1Z</time></trkpt><trkpt lat="44.6167" lon="8.8287167"><ele>374.5</ele><time>2026-04-04T10:40:09.1Z</time></trkpt><trkpt lat="44.6166133" lon="8.8286067"><ele>370.25</ele><time>2026-04-04T10:40:10.099Z</time></trkpt><trkpt lat="44.61652" lon="8.8284867"><ele>366.0</ele><time>2026-04-04T10:40:11.103Z</time></trkpt><trkpt lat="44.616425" lon="8.8283617"><ele>365.75</ele><time>2026-04-04T10:40:12.1Z</time></trkpt><trkpt lat="44.6163233" lon="8.8282417"><ele>365.5</ele><time>2026-04-04T10:40:13.099Z</time></trkpt><trkpt lat="44.6162167" lon="8.8281217"><ele>365.25</ele><time>2026-04-04T10:40:14.101Z</time></trkpt><trkpt lat="44.6161133" lon="8.8280033"><ele>365.0</ele><time>2026-04-04T10:40:15.099Z</time></trkpt><trkpt lat="44.61601" lon="8.827885"><ele>366.25</ele><time>2026-04-04T10:40:16.099Z</time></trkpt><trkpt lat="44.61591" lon="8.8277717"><ele>367.5</ele><time>2026-04-04T10:40:17.101Z</time></trkpt><trkpt lat="44.6158067" lon="8.8276817"><ele>368.75</ele><time>2026-04-04T10:40:18.103Z</time></trkpt><trkpt lat="44.61569" lon="8.827615"><ele>370.0</ele><time>2026-04-04T10:40:19.104Z</time></trkpt><trkpt lat="44.6155733" lon="8.8275633"><ele>370.0</ele><time>2026-04-04T10:40:20.101Z</time></trkpt><trkpt lat="44.615465" lon="8.8275167"><ele>370.0</ele><time>2026-04-04T10:40:21.101Z</time></trkpt><trkpt lat="44.615365" lon="8.8274683"><ele>370.0</ele><time>2026-04-04T10:40:22.104Z</time></trkpt><trkpt lat="44.6152733" lon="8.8273967"><ele>370.0</ele><time>2026-04-04T10:40:23.099Z</time></trkpt><trkpt lat="44.615195" lon="8.8273017"><ele>370.0</ele><time>2026-04-04T10:40:24.098Z</time></trkpt><trkpt lat="44.6151267" lon="8.8271983"><ele>372.16666666666663</ele><time>2026-04-04T10:40:25.103Z</time></trkpt><trkpt lat="44.61506" lon="8.8271167"><ele>374.3333333333333</ele><time>2026-04-04T10:40:26.102Z</time></trkpt><trkpt lat="44.6149933" lon="8.8270483"><ele>376.5</ele><time>2026-04-04T10:40:27.097Z</time></trkpt><trkpt lat="44.6149167" lon="8.8270133"><ele>378.6666666666667</ele><time>2026-04-04T10:40:28.1Z</time></trkpt><trkpt lat="44.6148483" lon="8.8270083"><ele>380.83333333333337</ele><time>2026-04-04T10:40:29.1Z</time></trkpt><trkpt lat="44.6147767" lon="8.8270133"><ele>383.0</ele><time>2026-04-04T10:40:30.1Z</time></trkpt><trkpt lat="44.6146817" lon="8.8270383"><ele>383.0</ele><time>2026-04-04T10:40:31.105Z</time></trkpt><trkpt lat="44.6145983" lon="8.8270433"><ele>383.0</ele><time>2026-04-04T10:40:32.101Z</time></trkpt><trkpt lat="44.6145167" lon="8.8270567"><ele>383.0</ele><time>2026-04-04T10:40:33.099Z</time></trkpt><trkpt lat="44.61443" lon="8.82705"><ele>383.0</ele><time>2026-04-04T10:40:34.101Z</time></trkpt><trkpt lat="44.6143417" lon="8.8270633"><ele>383.0</ele><time>2026-04-04T10:40:35.103Z</time></trkpt><trkpt lat="44.6142617" lon="8.8270217"><ele>383.0</ele><time>2026-04-04T10:40:36.1Z</time></trkpt><trkpt lat="44.6141883" lon="8.8269717"><ele>383.2</ele><time>2026-04-04T10:40:37.102Z</time></trkpt><trkpt lat="44.6141267" lon="8.82687"><ele>383.4</ele><time>2026-04-04T10:40:38.102Z</time></trkpt><trkpt lat="44.6140617" lon="8.826755"><ele>383.59999999999997</ele><time>2026-04-04T10:40:39.099Z</time></trkpt><trkpt lat="44.614015" lon="8.82664"><ele>383.79999999999995</ele><time>2026-04-04T10:40:40.099Z</time></trkpt><trkpt lat="44.6139733" lon="8.8265033"><ele>384.0</ele><time>2026-04-04T10:40:41.101Z</time></trkpt><trkpt lat="44.61395" lon="8.8263683"><ele>384.0</ele><time>2026-04-04T10:40:42.105Z</time></trkpt><trkpt lat="44.61395" lon="8.8262083"><ele>384.0</ele><time>2026-04-04T10:40:43.105Z</time></trkpt><trkpt lat="44.6139733" lon="8.826045"><ele>384.0</ele><time>2026-04-04T10:40:44.101Z</time></trkpt><trkpt lat="44.6139867" lon="8.8259017"><ele>384.0</ele><time>2026-04-04T10:40:45.099Z</time></trkpt><trkpt lat="44.6140133" lon="8.8257633"><ele>384.0</ele><time>2026-04-04T10:40:46.104Z</time></trkpt><trkpt lat="44.6140567" lon="8.825635"><ele>384.6</ele><time>2026-04-04T10:40:47.097Z</time></trkpt><trkpt lat="44.6141117" lon="8.8255067"><ele>385.2</ele><time>2026-04-04T10:40:48.099Z</time></trkpt><trkpt lat="44.6141683" lon="8.8253783"><ele>385.8</ele><time>2026-04-04T10:40:49.107Z</time></trkpt><trkpt lat="44.61422" lon="8.8252517"><ele>386.40000000000003</ele><time>2026-04-04T10:40:50.105Z</time></trkpt><trkpt lat="44.6142683" lon="8.8251167"><ele>387.0</ele><time>2026-04-04T10:40:51.099Z</time></trkpt><trkpt lat="44.6143167" lon="8.8249783"><ele>388.0</ele><time>2026-04-04T10:40:52.099Z</time></trkpt><trkpt lat="44.6143467" lon="8.8248433"><ele>389.0</ele><time>2026-04-04T10:40:53.104Z</time></trkpt><trkpt lat="44.6143467" lon="8.8247167"><ele>390.0</ele><time>2026-04-04T10:40:54.1Z</time></trkpt><trkpt lat="44.6143367" lon="8.8245917"><ele>391.0</ele><time>2026-04-04T10:40:55.1Z</time></trkpt><trkpt lat="44.61429" lon="8.8244833"><ele>392.0</ele><time>2026-04-04T10:40:56.103Z</time></trkpt><trkpt lat="44.6142233" lon="8.8243967"><ele>392.0</ele><time>2026-04-04T10:40:57.099Z</time></trkpt><trkpt lat="44.614155" lon="8.824315"><ele>392.0</ele><time>2026-04-04T10:40:58.098Z</time></trkpt><trkpt lat="44.614045" lon="8.824255"><ele>392.0</ele><time>2026-04-04T10:40:59.102Z</time></trkpt><trkpt lat="44.61393" lon="8.8241917"><ele>392.0</ele><time>2026-04-04T10:41:00.103Z</time></trkpt><trkpt lat="44.6138167" lon="8.8241217"><ele>391.25</ele><time>2026-04-04T10:41:01.105Z</time></trkpt><trkpt lat="44.6136933" lon="8.8240667"><ele>390.5</ele><time>2026-04-04T10:41:02.101Z</time></trkpt><trkpt lat="44.6135767" lon="8.8240233"><ele>389.75</ele><time>2026-04-04T10:41:03.104Z</time></trkpt><trkpt lat="44.6134517" lon="8.824005"><ele>389.0</ele><time>2026-04-04T10:41:04.104Z</time></trkpt><trkpt lat="44.613325" lon="8.8240117"><ele>392.2</ele><time>2026-04-04T10:41:05.1Z</time></trkpt><trkpt lat="44.6132133" lon="8.8240267"><ele>395.4</ele><time>2026-04-04T10:41:06.106Z</time></trkpt><trkpt lat="44.61311" lon="8.8240417"><ele>398.6</ele><time>2026-04-04T10:41:07.1Z</time></trkpt><trkpt lat="44.613015" lon="8.8240183"><ele>401.8</ele><time>2026-04-04T10:41:08.106Z</time></trkpt><trkpt lat="44.6129283" lon="8.8239733"><ele>405.0</ele><time>2026-04-04T10:41:09.102Z</time></trkpt><trkpt lat="44.6128467" lon="8.8238917"><ele>405.0</ele><time>2026-04-04T10:41:10.103Z</time></trkpt><trkpt lat="44.612785" lon="8.82379"><ele>405.0</ele><time>2026-04-04T10:41:11.103Z</time></trkpt><trkpt lat="44.6127367" lon="8.82366"><ele>405.0</ele><time>2026-04-04T10:41:12.099Z</time></trkpt><trkpt lat="44.612705" lon="8.82349"><ele>405.0</ele><time>2026-04-04T10:41:13.106Z</time></trkpt><trkpt lat="44.6126867" lon="8.82329"><ele>405.0</ele><time>2026-04-04T10:41:14.099Z</time></trkpt><trkpt lat="44.612645" lon="8.8231017"><ele>405.0</ele><time>2026-04-04T10:41:15.1Z</time></trkpt><trkpt lat="44.6126033" lon="8.822895"><ele>405.0</ele><time>2026-04-04T10:41:16.099Z</time></trkpt><trkpt lat="44.6125567" lon="8.8226967"><ele>405.0</ele><time>2026-04-04T10:41:17.104Z</time></trkpt><trkpt lat="44.6125167" lon="8.822525"><ele>403.0</ele><time>2026-04-04T10:41:18.102Z</time></trkpt><trkpt lat="44.61248" lon="8.8223717"><ele>401.0</ele><time>2026-04-04T10:41:19.102Z</time></trkpt><trkpt lat="44.6124417" lon="8.8222233"><ele>399.0</ele><time>2026-04-04T10:41:20.1Z</time></trkpt><trkpt lat="44.6123783" lon="8.8220933"><ele>397.0</ele><time>2026-04-04T10:41:21.103Z</time></trkpt><trkpt lat="44.6123083" lon="8.8219767"><ele>395.0</ele><time>2026-04-04T10:41:22.102Z</time></trkpt><trkpt lat="44.6122433" lon="8.82187"><ele>395.85714285714283</ele><time>2026-04-04T10:41:23.106Z</time></trkpt><trkpt lat="44.612185" lon="8.8217767"><ele>396.7142857142857</ele><time>2026-04-04T10:41:24.102Z</time></trkpt><trkpt lat="44.6121467" lon="8.8216867"><ele>397.57142857142856</ele><time>2026-04-04T10:41:25.108Z</time></trkpt><trkpt lat="44.612155" lon="8.8215917"><ele>398.42857142857144</ele><time>2026-04-04T10:41:26.104Z</time></trkpt><trkpt lat="44.612185" lon="8.8215033"><ele>399.28571428571433</ele><time>2026-04-04T10:41:27.105Z</time></trkpt><trkpt lat="44.6122217" lon="8.82142"><ele>400.14285714285717</ele><time>2026-04-04T10:41:28.099Z</time></trkpt><trkpt lat="44.6122533" lon="8.821325"><ele>401.0</ele><time>2026-04-04T10:41:29.105Z</time></trkpt><trkpt lat="44.6122483" lon="8.8212267"><ele>401.0</ele><time>2026-04-04T10:41:30.101Z</time></trkpt><trkpt lat="44.6122333" lon="8.8211183"><ele>401.0</ele><time>2026-04-04T10:41:31.1Z</time></trkpt><trkpt lat="44.61218" lon="8.8210117"><ele>401.0</ele><time>2026-04-04T10:41:32.107Z</time></trkpt><trkpt lat="44.6121" lon="8.82089"><ele>401.0</ele><time>2026-04-04T10:41:33.1Z</time></trkpt><trkpt lat="44.6120183" lon="8.820755"><ele>401.0</ele><time>2026-04-04T10:41:34.103Z</time></trkpt><trkpt lat="44.6119367" lon="8.8206167"><ele>401.5</ele><time>2026-04-04T10:41:35.099Z</time></trkpt><trkpt lat="44.6118433" lon="8.8204867"><ele>402.0</ele><time>2026-04-04T10:41:36.101Z</time></trkpt><trkpt lat="44.6117567" lon="8.820355"><ele>402.5</ele><time>2026-04-04T10:41:37.098Z</time></trkpt><trkpt lat="44.6116733" lon="8.8202267"><ele>403.0</ele><time>2026-04-04T10:41:38.101Z</time></trkpt><trkpt lat="44.611605" lon="8.8200983"><ele>403.0</ele><time>2026-04-04T10:41:39.099Z</time></trkpt><trkpt lat="44.6115083" lon="8.82"><ele>403.0</ele><time>2026-04-04T10:41:40.101Z</time></trkpt><trkpt lat="44.6114267" lon="8.81989"><ele>403.0</ele><time>2026-04-04T10:41:41.1Z</time></trkpt><trkpt lat="44.6113517" lon="8.81978"><ele>403.0</ele><time>2026-04-04T10:41:42.102Z</time></trkpt><trkpt lat="44.611295" lon="8.8196583"><ele>403.0</ele><time>2026-04-04T10:41:43.104Z</time></trkpt><trkpt lat="44.611255" lon="8.81953"><ele>403.0</ele><time>2026-04-04T10:41:44.101Z</time></trkpt><trkpt lat="44.611225" lon="8.8193883"><ele>403.0</ele><time>2026-04-04T10:41:45.1Z</time></trkpt><trkpt lat="44.6112033" lon="8.8192283"><ele>403.0</ele><time>2026-04-04T10:41:46.1Z</time></trkpt><trkpt lat="44.61117" lon="8.8190767"><ele>403.0</ele><time>2026-04-04T10:41:47.103Z</time></trkpt><trkpt lat="44.61113" lon="8.8189283"><ele>403.0</ele><time>2026-04-04T10:41:48.102Z</time></trkpt><trkpt lat="44.611085" lon="8.8187817"><ele>403.0</ele><time>2026-04-04T10:41:49.102Z</time></trkpt><trkpt lat="44.6110417" lon="8.8186267"><ele>403.0</ele><time>2026-04-04T10:41:50.106Z</time></trkpt><trkpt lat="44.61099" lon="8.8184683"><ele>403.0</ele><time>2026-04-04T10:41:51.099Z</time></trkpt><trkpt lat="44.61093" lon="8.8183083"><ele>403.0</ele><time>2026-04-04T10:41:52.099Z</time></trkpt><trkpt lat="44.61085" lon="8.8181533"><ele>403.0</ele><time>2026-04-04T10:41:53.101Z</time></trkpt><trkpt lat="44.6107633" lon="8.8179983"><ele>403.0</ele><time>2026-04-04T10:41:54.105Z</time></trkpt><trkpt lat="44.610675" lon="8.817845"><ele>403.0</ele><time>2026-04-04T10:41:55.104Z</time></trkpt><trkpt lat="44.6105883" lon="8.8176917"><ele>403.0</ele><time>2026-04-04T10:41:56.101Z</time></trkpt><trkpt lat="44.61051" lon="8.81754"><ele>404.25</ele><time>2026-04-04T10:41:57.103Z</time></trkpt><trkpt lat="44.6104367" lon="8.8173933"><ele>405.5</ele><time>2026-04-04T10:41:58.101Z</time></trkpt><trkpt lat="44.6103583" lon="8.8172567"><ele>406.75</ele><time>2026-04-04T10:41:59.099Z</time></trkpt><trkpt lat="44.6102867" lon="8.817125"><ele>408.0</ele><time>2026-04-04T10:42:00.102Z</time></trkpt><trkpt lat="44.6102133" lon="8.8170083"><ele>408.59999999999997</ele><time>2026-04-04T10:42:01.1Z</time></trkpt><trkpt lat="44.6101317" lon="8.8169167"><ele>409.2</ele><time>2026-04-04T10:42:02.1Z</time></trkpt><trkpt lat="44.61005" lon="8.816835"><ele>409.8</ele><time>2026-04-04T10:42:03.101Z</time></trkpt><trkpt lat="44.6099683" lon="8.8167533"><ele>410.4</ele><time>2026-04-04T10:42:04.101Z</time></trkpt><trkpt lat="44.6098817" lon="8.8166783"><ele>411.0</ele><time>2026-04-04T10:42:05.103Z</time></trkpt><trkpt lat="44.6097933" lon="8.8166083"><ele>411.4</ele><time>2026-04-04T10:42:06.104Z</time></trkpt><trkpt lat="44.6096967" lon="8.8165667"><ele>411.8</ele><time>2026-04-04T10:42:07.1Z</time></trkpt><trkpt lat="44.6096233" lon="8.81648"><ele>412.2</ele><time>2026-04-04T10:42:08.102Z</time></trkpt><trkpt lat="44.6095183" lon="8.8164683"><ele>412.59999999999997</ele><time>2026-04-04T10:42:09.1Z</time></trkpt><trkpt lat="44.6093883" lon="8.8164917"><ele>413.0</ele><time>2026-04-04T10:42:10.105Z</time></trkpt><trkpt lat="44.6092517" lon="8.8165283"><ele>414.5</ele><time>2026-04-04T10:42:11.101Z</time></trkpt><trkpt lat="44.60912" lon="8.8165683"><ele>416.0</ele><time>2026-04-04T10:42:12.108Z</time></trkpt><trkpt lat="44.60899" lon="8.8166133"><ele>417.5</ele><time>2026-04-04T10:42:13.1Z</time></trkpt><trkpt lat="44.60887" lon="8.8166583"><ele>419.0</ele><time>2026-04-04T10:42:14.099Z</time></trkpt><trkpt lat="44.6087467" lon="8.8166833"><ele>420.25</ele><time>2026-04-04T10:42:15.1Z</time></trkpt><trkpt lat="44.6086167" lon="8.8166917"><ele>421.5</ele><time>2026-04-04T10:42:16.098Z</time></trkpt><trkpt lat="44.6084933" lon="8.816705"><ele>422.75</ele><time>2026-04-04T10:42:17.103Z</time></trkpt><trkpt lat="44.608385" lon="8.8166983"><ele>424.0</ele><time>2026-04-04T10:42:18.099Z</time></trkpt><trkpt lat="44.608285" lon="8.81667"><ele>424.0</ele><time>2026-04-04T10:42:19.099Z</time></trkpt><trkpt lat="44.6081983" lon="8.816605"><ele>424.0</ele><time>2026-04-04T10:42:20.099Z</time></trkpt><trkpt lat="44.6081067" lon="8.8165167"><ele>424.0</ele><time>2026-04-04T10:42:21.098Z</time></trkpt><trkpt lat="44.60801" lon="8.816425"><ele>424.0</ele><time>2026-04-04T10:42:22.101Z</time></trkpt><trkpt lat="44.607915" lon="8.8163533"><ele>424.0</ele><time>2026-04-04T10:42:23.1Z</time></trkpt><trkpt lat="44.6078067" lon="8.8163083"><ele>424.25</ele><time>2026-04-04T10:42:24.099Z</time></trkpt><trkpt lat="44.6076817" lon="8.8162983"><ele>424.5</ele><time>2026-04-04T10:42:25.101Z</time></trkpt><trkpt lat="44.6075467" lon="8.81631"><ele>424.75</ele><time>2026-04-04T10:42:26.105Z</time></trkpt><trkpt lat="44.607415" lon="8.8163333"><ele>425.0</ele><time>2026-04-04T10:42:27.101Z</time></trkpt><trkpt lat="44.60728" lon="8.8163667"><ele>425.0</ele><time>2026-04-04T10:42:28.105Z</time></trkpt><trkpt lat="44.60714" lon="8.8163933"><ele>425.0</ele><time>2026-04-04T10:42:29.101Z</time></trkpt><trkpt lat="44.6069883" lon="8.8164067"><ele>425.0</ele><time>2026-04-04T10:42:30.1Z</time></trkpt><trkpt lat="44.6068383" lon="8.8164117"><ele>425.0</ele><time>2026-04-04T10:42:31.103Z</time></trkpt><trkpt lat="44.606705" lon="8.8164033"><ele>425.4</ele><time>2026-04-04T10:42:32.105Z</time></trkpt><trkpt lat="44.6065917" lon="8.816385"><ele>425.8</ele><time>2026-04-04T10:42:33.1Z</time></trkpt><trkpt lat="44.6064983" lon="8.8163383"><ele>426.20000000000005</ele><time>2026-04-04T10:42:34.111Z</time></trkpt><trkpt lat="44.6064017" lon="8.816275"><ele>426.6</ele><time>2026-04-04T10:42:35.1Z</time></trkpt><trkpt lat="44.606305" lon="8.8161833"><ele>427.0</ele><time>2026-04-04T10:42:36.097Z</time></trkpt><trkpt lat="44.606215" lon="8.816075"><ele>429.0</ele><time>2026-04-04T10:42:37.102Z</time></trkpt><trkpt lat="44.606125" lon="8.815955"><ele>431.0</ele><time>2026-04-04T10:42:38.099Z</time></trkpt><trkpt lat="44.6060317" lon="8.8158367"><ele>433.0</ele><time>2026-04-04T10:42:39.099Z</time></trkpt><trkpt lat="44.60595" lon="8.8157067"><ele>435.0</ele><time>2026-04-04T10:42:40.102Z</time></trkpt><trkpt lat="44.6058817" lon="8.8155717"><ele>435.0</ele><time>2026-04-04T10:42:41.098Z</time></trkpt><trkpt lat="44.6058267" lon="8.8154317"><ele>435.0</ele><time>2026-04-04T10:42:42.106Z</time></trkpt><trkpt lat="44.605775" lon="8.8153017"><ele>435.0</ele><time>2026-04-04T10:42:43.105Z</time></trkpt><trkpt lat="44.60573" lon="8.8151833"><ele>435.0</ele><time>2026-04-04T10:42:44.102Z</time></trkpt><trkpt lat="44.6057" lon="8.8150683"><ele>435.0</ele><time>2026-04-04T10:42:45.1Z</time></trkpt><trkpt lat="44.6057217" lon="8.81492"><ele>438.5</ele><time>2026-04-04T10:42:46.1Z</time></trkpt><trkpt lat="44.6057467" lon="8.81478"><ele>442.0</ele><time>2026-04-04T10:42:47.099Z</time></trkpt><trkpt lat="44.6057883" lon="8.81462"><ele>445.5</ele><time>2026-04-04T10:42:48.1Z</time></trkpt><trkpt lat="44.6058117" lon="8.81446"><ele>449.0</ele><time>2026-04-04T10:42:49.104Z</time></trkpt><trkpt lat="44.6058083" lon="8.8142817"><ele>450.5</ele><time>2026-04-04T10:42:50.101Z</time></trkpt><trkpt lat="44.6057783" lon="8.8141117"><ele>452.0</ele><time>2026-04-04T10:42:51.101Z</time></trkpt><trkpt lat="44.6057217" lon="8.8139483"><ele>453.5</ele><time>2026-04-04T10:42:52.102Z</time></trkpt><trkpt lat="44.6056417" lon="8.8137933"><ele>455.0</ele><time>2026-04-04T10:42:53.104Z</time></trkpt><trkpt lat="44.6055433" lon="8.81365"><ele>455.0</ele><time>2026-04-04T10:42:54.102Z</time></trkpt><trkpt lat="44.6054283" lon="8.8135467"><ele>455.0</ele><time>2026-04-04T10:42:55.105Z</time></trkpt><trkpt lat="44.605305" lon="8.8134733"><ele>455.0</ele><time>2026-04-04T10:42:56.098Z</time></trkpt><trkpt lat="44.605175" lon="8.813435"><ele>455.0</ele><time>2026-04-04T10:42:57.104Z</time></trkpt><trkpt lat="44.6050333" lon="8.8134183"><ele>456.0</ele><time>2026-04-04T10:42:58.103Z</time></trkpt><trkpt lat="44.6048883" lon="8.8134133"><ele>457.0</ele><time>2026-04-04T10:42:59.107Z</time></trkpt><trkpt lat="44.6047483" lon="8.813395"><ele>458.0</ele><time>2026-04-04T10:43:00.101Z</time></trkpt><trkpt lat="44.6046167" lon="8.813365"><ele>459.0</ele><time>2026-04-04T10:43:01.106Z</time></trkpt><trkpt lat="44.6044833" lon="8.8132817"><ele>464.33333333333337</ele><time>2026-04-04T10:43:02.105Z</time></trkpt><trkpt lat="44.604345" lon="8.8131817"><ele>469.6666666666667</ele><time>2026-04-04T10:43:03.098Z</time></trkpt><trkpt lat="44.6041967" lon="8.81307"><ele>475.0</ele><time>2026-04-04T10:43:04.106Z</time></trkpt><trkpt lat="44.6040483" lon="8.812965"><ele>475.0</ele><time>2026-04-04T10:43:05.102Z</time></trkpt><trkpt lat="44.603905" lon="8.8128817"><ele>475.0</ele><time>2026-04-04T10:43:06.098Z</time></trkpt><trkpt lat="44.6037767" lon="8.8128117"><ele>475.0</ele><time>2026-04-04T10:43:07.098Z</time></trkpt><trkpt lat="44.60367" lon="8.8127567"><ele>475.0</ele><time>2026-04-04T10:43:08.1Z</time></trkpt><trkpt lat="44.603565" lon="8.81272"><ele>477.6</ele><time>2026-04-04T10:43:09.1Z</time></trkpt><trkpt lat="44.6034617" lon="8.8127117"><ele>480.2</ele><time>2026-04-04T10:43:10.1Z</time></trkpt><trkpt lat="44.60336" lon="8.812725"><ele>482.79999999999995</ele><time>2026-04-04T10:43:11.098Z</time></trkpt><trkpt lat="44.6032567" lon="8.8127467"><ele>485.4</ele><time>2026-04-04T10:43:12.1Z</time></trkpt><trkpt lat="44.6031567" lon="8.8127583"><ele>488.0</ele><time>2026-04-04T10:43:13.101Z</time></trkpt><trkpt lat="44.6030583" lon="8.812775"><ele>488.0</ele><time>2026-04-04T10:43:14.102Z</time></trkpt><trkpt lat="44.60296" lon="8.81282"><ele>488.0</ele><time>2026-04-04T10:43:15.109Z</time></trkpt><trkpt lat="44.6028717" lon="8.8128933"><ele>488.0</ele><time>2026-04-04T10:43:16.106Z</time></trkpt><trkpt lat="44.6027817" lon="8.8130017"><ele>488.0</ele><time>2026-04-04T10:43:17.103Z</time></trkpt><trkpt lat="44.60268" lon="8.813115"><ele>489.25</ele><time>2026-04-04T10:43:18.105Z</time></trkpt><trkpt lat="44.6025783" lon="8.8132333"><ele>490.5</ele><time>2026-04-04T10:43:19.1Z</time></trkpt><trkpt lat="44.60248" lon="8.8133483"><ele>491.75</ele><time>2026-04-04T10:43:20.1Z</time></trkpt><trkpt lat="44.602385" lon="8.8134533"><ele>493.0</ele><time>2026-04-04T10:43:21.104Z</time></trkpt><trkpt lat="44.6022933" lon="8.8135383"><ele>494.1666666666667</ele><time>2026-04-04T10:43:22.099Z</time></trkpt><trkpt lat="44.6022083" lon="8.8135917"><ele>495.33333333333337</ele><time>2026-04-04T10:43:23.103Z</time></trkpt><trkpt lat="44.6021083" lon="8.8135967"><ele>496.5</ele><time>2026-04-04T10:43:24.101Z</time></trkpt><trkpt lat="44.6020267" lon="8.8135533"><ele>497.66666666666663</ele><time>2026-04-04T10:43:25.106Z</time></trkpt><trkpt lat="44.601945" lon="8.81351"><ele>498.8333333333333</ele><time>2026-04-04T10:43:26.099Z</time></trkpt><trkpt lat="44.6018733" lon="8.8134717"><ele>500.0</ele><time>2026-04-04T10:43:27.097Z</time></trkpt><trkpt lat="44.6018017" lon="8.8134333"><ele>501.3333333333333</ele><time>2026-04-04T10:43:28.099Z</time></trkpt><trkpt lat="44.6017317" lon="8.81339"><ele>502.66666666666663</ele><time>2026-04-04T10:43:29.101Z</time></trkpt><trkpt lat="44.601675" lon="8.8133117"><ele>504.0</ele><time>2026-04-04T10:43:30.101Z</time></trkpt><trkpt lat="44.6016267" lon="8.8132517"><ele>505.33333333333337</ele><time>2026-04-04T10:43:31.102Z</time></trkpt><trkpt lat="44.6016333" lon="8.8131233"><ele>506.6666666666667</ele><time>2026-04-04T10:43:33.101Z</time></trkpt><trkpt lat="44.6017183" lon="8.812995"><ele>508.0</ele><time>2026-04-04T10:43:34.103Z</time></trkpt><trkpt lat="44.6018083" lon="8.812865"><ele>508.0</ele><time>2026-04-04T10:43:35.1Z</time></trkpt><trkpt lat="44.601965" lon="8.8126817"><ele>508.0</ele><time>2026-04-04T10:43:36.105Z</time></trkpt><trkpt lat="44.60206" lon="8.8125367"><ele>508.0</ele><time>2026-04-04T10:43:37.101Z</time></trkpt><trkpt lat="44.602095" lon="8.8124067"><ele>508.0</ele><time>2026-04-04T10:43:38.101Z</time></trkpt><trkpt lat="44.6021167" lon="8.812255"><ele>504.75</ele><time>2026-04-04T10:43:39.1Z</time></trkpt><trkpt lat="44.6021017" lon="8.8120967"><ele>501.5</ele><time>2026-04-04T10:43:40.103Z</time></trkpt><trkpt lat="44.602105" lon="8.8119283"><ele>498.25</ele><time>2026-04-04T10:43:41.102Z</time></trkpt><trkpt lat="44.6020967" lon="8.8117617"><ele>495.0</ele><time>2026-04-04T10:43:42.099Z</time></trkpt><trkpt lat="44.6020833" lon="8.8115933"><ele>495.0</ele><time>2026-04-04T10:43:43.101Z</time></trkpt><trkpt lat="44.6020633" lon="8.8114067"><ele>495.0</ele><time>2026-04-04T10:43:44.106Z</time></trkpt><trkpt lat="44.6020383" lon="8.8112267"><ele>495.0</ele><time>2026-04-04T10:43:45.103Z</time></trkpt><trkpt lat="44.6020217" lon="8.8110567"><ele>495.0</ele><time>2026-04-04T10:43:46.103Z</time></trkpt><trkpt lat="44.6020067" lon="8.8109"><ele>502.0</ele><time>2026-04-04T10:43:47.097Z</time></trkpt><trkpt lat="44.6019783" lon="8.8107533"><ele>509.0</ele><time>2026-04-04T10:43:48.099Z</time></trkpt><trkpt lat="44.6019283" lon="8.8106133"><ele>516.0</ele><time>2026-04-04T10:43:49.098Z</time></trkpt><trkpt lat="44.6018583" lon="8.8104717"><ele>523.0</ele><time>2026-04-04T10:43:50.101Z</time></trkpt><trkpt lat="44.6017833" lon="8.8103367"><ele>523.0</ele><time>2026-04-04T10:43:51.097Z</time></trkpt><trkpt lat="44.6017117" lon="8.8101933"><ele>523.0</ele><time>2026-04-04T10:43:52.1Z</time></trkpt><trkpt lat="44.6016367" lon="8.8100583"><ele>523.0</ele><time>2026-04-04T10:43:53.098Z</time></trkpt><trkpt lat="44.6015483" lon="8.8099267"><ele>523.0</ele><time>2026-04-04T10:43:54.1Z</time></trkpt><trkpt lat="44.60145" lon="8.8098167"><ele>521.0</ele><time>2026-04-04T10:43:55.103Z</time></trkpt><trkpt lat="44.6013417" lon="8.8097317"><ele>519.0</ele><time>2026-04-04T10:43:56.102Z</time></trkpt><trkpt lat="44.6012317" lon="8.80966"><ele>517.0</ele><time>2026-04-04T10:43:57.099Z</time></trkpt><trkpt lat="44.6011133" lon="8.80961"><ele>515.0</ele><time>2026-04-04T10:43:58.105Z</time></trkpt><trkpt lat="44.6009917" lon="8.809585"><ele>517.0</ele><time>2026-04-04T10:43:59.1Z</time></trkpt><trkpt lat="44.6008783" lon="8.8095617"><ele>519.0</ele><time>2026-04-04T10:44:00.1Z</time></trkpt><trkpt lat="44.6007867" lon="8.8095333"><ele>521.0</ele><time>2026-04-04T10:44:01.105Z</time></trkpt><trkpt lat="44.6007183" lon="8.8095033"><ele>523.0</ele><time>2026-04-04T10:44:02.102Z</time></trkpt><trkpt lat="44.60065" lon="8.8094717"><ele>525.0</ele><time>2026-04-04T10:44:03.1Z</time></trkpt><trkpt lat="44.6005983" lon="8.8094117"><ele>527.0</ele><time>2026-04-04T10:44:04.099Z</time></trkpt><trkpt lat="44.6005317" lon="8.8092533"><ele>527.0</ele><time>2026-04-04T10:44:06.101Z</time></trkpt><trkpt lat="44.6005067" lon="8.8091233"><ele>527.0</ele><time>2026-04-04T10:44:07.1Z</time></trkpt><trkpt lat="44.600485" lon="8.809005"><ele>527.0</ele><time>2026-04-04T10:44:08.1Z</time></trkpt><trkpt lat="44.6004717" lon="8.8089017"><ele>527.0</ele><time>2026-04-04T10:44:09.104Z</time></trkpt><trkpt lat="44.6005" lon="8.808805"><ele>527.0</ele><time>2026-04-04T10:44:10.102Z</time></trkpt><trkpt lat="44.6005383" lon="8.8087267"><ele>527.0</ele><time>2026-04-04T10:44:11.103Z</time></trkpt><trkpt lat="44.6005967" lon="8.8086617"><ele>527.0</ele><time>2026-04-04T10:44:12.104Z</time></trkpt><trkpt lat="44.6007033" lon="8.80863"><ele>527.0</ele><time>2026-04-04T10:44:13.106Z</time></trkpt><trkpt lat="44.6007967" lon="8.808595"><ele>527.0</ele><time>2026-04-04T10:44:14.098Z</time></trkpt><trkpt lat="44.600905" lon="8.8085333"><ele>527.0</ele><time>2026-04-04T10:44:15.1Z</time></trkpt><trkpt lat="44.60101" lon="8.8084533"><ele>527.0</ele><time>2026-04-04T10:44:16.099Z</time></trkpt><trkpt lat="44.6011067" lon="8.8083783"><ele>529.3333333333333</ele><time>2026-04-04T10:44:17.098Z</time></trkpt><trkpt lat="44.6012" lon="8.8083183"><ele>531.6666666666666</ele><time>2026-04-04T10:44:18.103Z</time></trkpt><trkpt lat="44.6012733" lon="8.8082733"><ele>534.0</ele><time>2026-04-04T10:44:19.1Z</time></trkpt><trkpt lat="44.6013283" lon="8.8082267"><ele>536.3333333333334</ele><time>2026-04-04T10:44:20.102Z</time></trkpt><trkpt lat="44.6013367" lon="8.8081183"><ele>538.6666666666667</ele><time>2026-04-04T10:44:22.102Z</time></trkpt><trkpt lat="44.6012333" lon="8.8080583"><ele>541.0</ele><time>2026-04-04T10:44:24.106Z</time></trkpt><trkpt lat="44.60115" lon="8.8080583"><ele>541.0</ele><time>2026-04-04T10:44:25.101Z</time></trkpt><trkpt lat="44.6010567" lon="8.8080783"><ele>541.0</ele><time>2026-04-04T10:44:26.101Z</time></trkpt><trkpt lat="44.600975" lon="8.808105"><ele>541.0</ele><time>2026-04-04T10:44:27.105Z</time></trkpt><trkpt lat="44.6008983" lon="8.808115"><ele>541.0</ele><time>2026-04-04T10:44:28.101Z</time></trkpt><trkpt lat="44.600815" lon="8.8081167"><ele>541.0</ele><time>2026-04-04T10:44:29.107Z</time></trkpt><trkpt lat="44.6007317" lon="8.8081033"><ele>541.0</ele><time>2026-04-04T10:44:30.104Z</time></trkpt><trkpt lat="44.6006617" lon="8.80805"><ele>541.0</ele><time>2026-04-04T10:44:31.11Z</time></trkpt><trkpt lat="44.600605" lon="8.8079567"><ele>541.0</ele><time>2026-04-04T10:44:32.097Z</time></trkpt><trkpt lat="44.60055" lon="8.8078567"><ele>541.0</ele><time>2026-04-04T10:44:33.099Z</time></trkpt><trkpt lat="44.6004883" lon="8.8077617"><ele>541.0</ele><time>2026-04-04T10:44:34.099Z</time></trkpt><trkpt lat="44.600425" lon="8.8076767"><ele>541.0</ele><time>2026-04-04T10:44:35.1Z</time></trkpt><trkpt lat="44.6003617" lon="8.807605"><ele>541.0</ele><time>2026-04-04T10:44:36.1Z</time></trkpt><trkpt lat="44.6003033" lon="8.8075417"><ele>544.4285714285714</ele><time>2026-04-04T10:44:37.099Z</time></trkpt><trkpt lat="44.6002383" lon="8.807505"><ele>547.8571428571429</ele><time>2026-04-04T10:44:38.099Z</time></trkpt><trkpt lat="44.6001683" lon="8.8074983"><ele>551.2857142857142</ele><time>2026-04-04T10:44:39.101Z</time></trkpt><trkpt lat="44.6001" lon="8.8075117"><ele>554.7142857142858</ele><time>2026-04-04T10:44:40.1Z</time></trkpt><trkpt lat="44.6000217" lon="8.807525"><ele>558.1428571428571</ele><time>2026-04-04T10:44:41.1Z</time></trkpt><trkpt lat="44.5999517" lon="8.8075183"><ele>561.5714285714286</ele><time>2026-04-04T10:44:42.099Z</time></trkpt><trkpt lat="44.599885" lon="8.8074883"><ele>565.0</ele><time>2026-04-04T10:44:43.099Z</time></trkpt><trkpt lat="44.5998" lon="8.8073967"><ele>565.0</ele><time>2026-04-04T10:44:45.104Z</time></trkpt><trkpt lat="44.5997517" lon="8.8072967"><ele>565.0</ele><time>2026-04-04T10:44:47.103Z</time></trkpt><trkpt lat="44.5997533" lon="8.807185"><ele>565.0</ele><time>2026-04-04T10:44:50.103Z</time></trkpt><trkpt lat="44.5997433" lon="8.807095"><ele>565.0</ele><time>2026-04-04T10:44:52.104Z</time></trkpt><trkpt lat="44.5997033" lon="8.806945"><ele>565.0</ele><time>2026-04-04T10:44:54.097Z</time></trkpt><trkpt lat="44.5996817" lon="8.80685"><ele>565.0</ele><time>2026-04-04T10:44:55.103Z</time></trkpt><trkpt lat="44.5996583" lon="8.8067467"><ele>565.5</ele><time>2026-04-04T10:44:56.105Z</time></trkpt><trkpt lat="44.5996317" lon="8.8066367"><ele>566.0</ele><time>2026-04-04T10:44:57.098Z</time></trkpt><trkpt lat="44.5996083" lon="8.8065217"><ele>566.5</ele><time>2026-04-04T10:44:58.099Z</time></trkpt><trkpt lat="44.59959" lon="8.8064167"><ele>567.0</ele><time>2026-04-04T10:44:59.1Z</time></trkpt><trkpt lat="44.5995683" lon="8.806325"><ele>567.5</ele><time>2026-04-04T10:45:00.101Z</time></trkpt><trkpt lat="44.59955" lon="8.80623"><ele>568.0</ele><time>2026-04-04T10:45:01.102Z</time></trkpt><trkpt lat="44.5995417" lon="8.80612"><ele>566.4</ele><time>2026-04-04T10:45:02.102Z</time></trkpt><trkpt lat="44.5995383" lon="8.805995"><ele>564.8</ele><time>2026-04-04T10:45:03.103Z</time></trkpt><trkpt lat="44.59954" lon="8.8058567"><ele>563.2</ele><time>2026-04-04T10:45:04.1Z</time></trkpt><trkpt lat="44.5995317" lon="8.80571"><ele>561.6</ele><time>2026-04-04T10:45:05.104Z</time></trkpt><trkpt lat="44.5995217" lon="8.8055533"><ele>560.0</ele><time>2026-04-04T10:45:06.103Z</time></trkpt><trkpt lat="44.599505" lon="8.805395"><ele>563.0</ele><time>2026-04-04T10:45:07.1Z</time></trkpt><trkpt lat="44.5994783" lon="8.805235"><ele>566.0</ele><time>2026-04-04T10:45:08.101Z</time></trkpt><trkpt lat="44.5994483" lon="8.8050733"><ele>569.0</ele><time>2026-04-04T10:45:09.103Z</time></trkpt><trkpt lat="44.59942" lon="8.804915"><ele>572.0</ele><time>2026-04-04T10:45:10.104Z</time></trkpt><trkpt lat="44.5993883" lon="8.8047583"><ele>572.0</ele><time>2026-04-04T10:45:11.101Z</time></trkpt><trkpt lat="44.5993533" lon="8.8046067"><ele>572.0</ele><time>2026-04-04T10:45:12.103Z</time></trkpt><trkpt lat="44.5993167" lon="8.8044517"><ele>572.0</ele><time>2026-04-04T10:45:13.101Z</time></trkpt><trkpt lat="44.5992783" lon="8.8042983"><ele>572.0</ele><time>2026-04-04T10:45:14.1Z</time></trkpt><trkpt lat="44.599245" lon="8.80414"><ele>569.75</ele><time>2026-04-04T10:45:15.098Z</time></trkpt><trkpt lat="44.5992067" lon="8.8039833"><ele>567.5</ele><time>2026-04-04T10:45:16.099Z</time></trkpt><trkpt lat="44.5991717" lon="8.80382"><ele>565.25</ele><time>2026-04-04T10:45:17.098Z</time></trkpt><trkpt lat="44.5991417" lon="8.8036567"><ele>563.0</ele><time>2026-04-04T10:45:18.101Z</time></trkpt><trkpt lat="44.5991133" lon="8.8035067"><ele>561.1999999999999</ele><time>2026-04-04T10:45:19.098Z</time></trkpt><trkpt lat="44.5990883" lon="8.80336"><ele>559.4</ele><time>2026-04-04T10:45:20.098Z</time></trkpt><trkpt lat="44.59906" lon="8.80322"><ele>557.5999999999999</ele><time>2026-04-04T10:45:21.096Z</time></trkpt><trkpt lat="44.5990333" lon="8.80308"><ele>555.8</ele><time>2026-04-04T10:45:22.099Z</time></trkpt><trkpt lat="44.5989983" lon="8.80294"><ele>554.0</ele><time>2026-04-04T10:45:23.101Z</time></trkpt><trkpt lat="44.598945" lon="8.8028067"><ele>554.0</ele><time>2026-04-04T10:45:24.103Z</time></trkpt><trkpt lat="44.598885" lon="8.80268"><ele>554.0</ele><time>2026-04-04T10:45:25.098Z</time></trkpt><trkpt lat="44.598825" lon="8.8025533"><ele>554.0</ele><time>2026-04-04T10:45:26.101Z</time></trkpt><trkpt lat="44.5987667" lon="8.802415"><ele>554.0</ele><time>2026-04-04T10:45:27.101Z</time></trkpt><trkpt lat="44.5987133" lon="8.80226"><ele>553.75</ele><time>2026-04-04T10:45:28.101Z</time></trkpt><trkpt lat="44.59866" lon="8.8021033"><ele>553.5</ele><time>2026-04-04T10:45:29.102Z</time></trkpt><trkpt lat="44.5986067" lon="8.80195"><ele>553.25</ele><time>2026-04-04T10:45:30.1Z</time></trkpt><trkpt lat="44.5985583" lon="8.8018033"><ele>553.0</ele><time>2026-04-04T10:45:31.101Z</time></trkpt><trkpt lat="44.5985183" lon="8.80166"><ele>553.0</ele><time>2026-04-04T10:45:32.101Z</time></trkpt><trkpt lat="44.59849" lon="8.8015017"><ele>553.0</ele><time>2026-04-04T10:45:33.1Z</time></trkpt><trkpt lat="44.5984533" lon="8.8013433"><ele>553.0</ele><time>2026-04-04T10:45:34.1Z</time></trkpt><trkpt lat="44.598425" lon="8.801185"><ele>553.0</ele><time>2026-04-04T10:45:35.098Z</time></trkpt><trkpt lat="44.5983933" lon="8.8010317"><ele>553.0</ele><time>2026-04-04T10:45:36.101Z</time></trkpt><trkpt lat="44.598355" lon="8.8008867"><ele>553.0</ele><time>2026-04-04T10:45:37.107Z</time></trkpt><trkpt lat="44.598305" lon="8.800745"><ele>553.0</ele><time>2026-04-04T10:45:38.1Z</time></trkpt><trkpt lat="44.5982533" lon="8.8006083"><ele>553.0</ele><time>2026-04-04T10:45:39.104Z</time></trkpt><trkpt lat="44.598195" lon="8.8004767"><ele>553.0</ele><time>2026-04-04T10:45:40.104Z</time></trkpt><trkpt lat="44.5981367" lon="8.800345"><ele>553.0</ele><time>2026-04-04T10:45:41.102Z</time></trkpt><trkpt lat="44.5980933" lon="8.8002"><ele>553.0</ele><time>2026-04-04T10:45:42.098Z</time></trkpt><trkpt lat="44.5980467" lon="8.8000567"><ele>553.0</ele><time>2026-04-04T10:45:43.099Z</time></trkpt><trkpt lat="44.5980017" lon="8.7999083"><ele>553.0</ele><time>2026-04-04T10:45:44.098Z</time></trkpt><trkpt lat="44.5979583" lon="8.79976"><ele>552.0</ele><time>2026-04-04T10:45:45.098Z</time></trkpt><trkpt lat="44.59792" lon="8.7996117"><ele>551.0</ele><time>2026-04-04T10:45:46.1Z</time></trkpt><trkpt lat="44.5978867" lon="8.7994667"><ele>550.0</ele><time>2026-04-04T10:45:47.101Z</time></trkpt><trkpt lat="44.5978567" lon="8.7993333"><ele>549.0</ele><time>2026-04-04T10:45:48.102Z</time></trkpt><trkpt lat="44.597845" lon="8.7992033"><ele>548.0</ele><time>2026-04-04T10:45:49.1Z</time></trkpt><trkpt lat="44.5978383" lon="8.7990967"><ele>547.4285714285714</ele><time>2026-04-04T10:45:50.099Z</time></trkpt><trkpt lat="44.5978517" lon="8.799"><ele>546.8571428571429</ele><time>2026-04-04T10:45:51.099Z</time></trkpt><trkpt lat="44.5978733" lon="8.798915"><ele>546.2857142857142</ele><time>2026-04-04T10:45:52.103Z</time></trkpt><trkpt lat="44.597905" lon="8.7988333"><ele>545.7142857142858</ele><time>2026-04-04T10:45:53.098Z</time></trkpt><trkpt lat="44.59794" lon="8.7987467"><ele>545.1428571428571</ele><time>2026-04-04T10:45:54.108Z</time></trkpt><trkpt lat="44.5979617" lon="8.7986517"><ele>544.5714285714286</ele><time>2026-04-04T10:45:55.101Z</time></trkpt><trkpt lat="44.5979717" lon="8.798535"><ele>544.0</ele><time>2026-04-04T10:45:56.103Z</time></trkpt><trkpt lat="44.59796" lon="8.79841"><ele>543.75</ele><time>2026-04-04T10:45:57.101Z</time></trkpt><trkpt lat="44.5978917" lon="8.7982767"><ele>543.5</ele><time>2026-04-04T10:45:58.104Z</time></trkpt><trkpt lat="44.5978367" lon="8.7981183"><ele>543.25</ele><time>2026-04-04T10:45:59.104Z</time></trkpt><trkpt lat="44.5977733" lon="8.797955"><ele>543.0</ele><time>2026-04-04T10:46:00.104Z</time></trkpt><trkpt lat="44.5977133" lon="8.7977833"><ele>547.4</ele><time>2026-04-04T10:46:01.101Z</time></trkpt><trkpt lat="44.597655" lon="8.79762"><ele>551.8</ele><time>2026-04-04T10:46:02.105Z</time></trkpt><trkpt lat="44.5975933" lon="8.7974783"><ele>556.2</ele><time>2026-04-04T10:46:03.099Z</time></trkpt><trkpt lat="44.5975317" lon="8.7973617"><ele>560.6</ele><time>2026-04-04T10:46:04.1Z</time></trkpt><trkpt lat="44.5974783" lon="8.7972583"><ele>565.0</ele><time>2026-04-04T10:46:05.098Z</time></trkpt><trkpt lat="44.5974383" lon="8.7971467"><ele>565.0</ele><time>2026-04-04T10:46:06.106Z</time></trkpt><trkpt lat="44.5974233" lon="8.7970367"><ele>565.0</ele><time>2026-04-04T10:46:07.098Z</time></trkpt><trkpt lat="44.5974233" lon="8.7969217"><ele>565.0</ele><time>2026-04-04T10:46:08.098Z</time></trkpt><trkpt lat="44.5974133" lon="8.7968117"><ele>565.0</ele><time>2026-04-04T10:46:09.098Z</time></trkpt><trkpt lat="44.5973883" lon="8.7967083"><ele>565.0</ele><time>2026-04-04T10:46:10.101Z</time></trkpt><trkpt lat="44.5973117" lon="8.79668"><ele>565.0</ele><time>2026-04-04T10:46:11.103Z</time></trkpt><trkpt lat="44.59724" lon="8.796655"><ele>563.1666666666667</ele><time>2026-04-04T10:46:12.102Z</time></trkpt><trkpt lat="44.5971667" lon="8.7966167"><ele>561.3333333333334</ele><time>2026-04-04T10:46:13.104Z</time></trkpt><trkpt lat="44.5971017" lon="8.7965633"><ele>559.5</ele><time>2026-04-04T10:46:14.099Z</time></trkpt><trkpt lat="44.5970633" lon="8.7964683"><ele>557.6666666666666</ele><time>2026-04-04T10:46:15.109Z</time></trkpt><trkpt lat="44.5970283" lon="8.79636"><ele>555.8333333333333</ele><time>2026-04-04T10:46:16.101Z</time></trkpt><trkpt lat="44.5969867" lon="8.79624"><ele>554.0</ele><time>2026-04-04T10:46:17.102Z</time></trkpt><trkpt lat="44.5969267" lon="8.7960917"><ele>559.5</ele><time>2026-04-04T10:46:18.106Z</time></trkpt><trkpt lat="44.5968533" lon="8.795955"><ele>565.0</ele><time>2026-04-04T10:46:19.104Z</time></trkpt><trkpt lat="44.5967967" lon="8.7958033"><ele>570.5</ele><time>2026-04-04T10:46:20.102Z</time></trkpt><trkpt lat="44.5967533" lon="8.7956433"><ele>576.0</ele><time>2026-04-04T10:46:21.102Z</time></trkpt><trkpt lat="44.59671" lon="8.795485"><ele>576.0</ele><time>2026-04-04T10:46:22.1Z</time></trkpt><trkpt lat="44.5966533" lon="8.7953467"><ele>576.0</ele><time>2026-04-04T10:46:23.099Z</time></trkpt><trkpt lat="44.5965817" lon="8.7952217"><ele>576.0</ele><time>2026-04-04T10:46:24.099Z</time></trkpt><trkpt lat="44.5965017" lon="8.795095"><ele>576.0</ele><time>2026-04-04T10:46:25.099Z</time></trkpt><trkpt lat="44.5964283" lon="8.794965"><ele>572.0</ele><time>2026-04-04T10:46:26.097Z</time></trkpt><trkpt lat="44.596365" lon="8.7948267"><ele>568.0</ele><time>2026-04-04T10:46:27.099Z</time></trkpt><trkpt lat="44.5962967" lon="8.7946983"><ele>564.0</ele><time>2026-04-04T10:46:28.098Z</time></trkpt><trkpt lat="44.5962267" lon="8.7945783"><ele>560.0</ele><time>2026-04-04T10:46:29.101Z</time></trkpt><trkpt lat="44.596145" lon="8.79447"><ele>560.0</ele><time>2026-04-04T10:46:30.107Z</time></trkpt><trkpt lat="44.5960517" lon="8.7943883"><ele>560.0</ele><time>2026-04-04T10:46:31.101Z</time></trkpt><trkpt lat="44.5959517" lon="8.794335"><ele>560.0</ele><time>2026-04-04T10:46:32.101Z</time></trkpt><trkpt lat="44.5958483" lon="8.794305"><ele>560.0</ele><time>2026-04-04T10:46:33.101Z</time></trkpt><trkpt lat="44.5957517" lon="8.7942717"><ele>560.0</ele><time>2026-04-04T10:46:34.101Z</time></trkpt><trkpt lat="44.5956717" lon="8.7942133"><ele>560.0</ele><time>2026-04-04T10:46:35.103Z</time></trkpt><trkpt lat="44.59561" lon="8.7941267"><ele>560.0</ele><time>2026-04-04T10:46:36.099Z</time></trkpt><trkpt lat="44.59555" lon="8.7940267"><ele>560.0</ele><time>2026-04-04T10:46:37.105Z</time></trkpt><trkpt lat="44.59548" lon="8.79394"><ele>560.0</ele><time>2026-04-04T10:46:38.102Z</time></trkpt><trkpt lat="44.5953933" lon="8.7938633"><ele>560.0</ele><time>2026-04-04T10:46:39.103Z</time></trkpt><trkpt lat="44.5953117" lon="8.7937767"><ele>559.8333333333333</ele><time>2026-04-04T10:46:40.102Z</time></trkpt><trkpt lat="44.59524" lon="8.793675"><ele>559.6666666666666</ele><time>2026-04-04T10:46:41.102Z</time></trkpt><trkpt lat="44.595185" lon="8.7935733"><ele>559.5</ele><time>2026-04-04T10:46:42.104Z</time></trkpt><trkpt lat="44.5951433" lon="8.7934817"><ele>559.3333333333334</ele><time>2026-04-04T10:46:43.102Z</time></trkpt><trkpt lat="44.5951067" lon="8.7934033"><ele>559.1666666666667</ele><time>2026-04-04T10:46:44.1Z</time></trkpt><trkpt lat="44.5950467" lon="8.79329"><ele>559.0</ele><time>2026-04-04T10:46:46.102Z</time></trkpt><trkpt lat="44.5949883" lon="8.79324"><ele>559.0</ele><time>2026-04-04T10:46:48.098Z</time></trkpt><trkpt lat="44.594825" lon="8.7933317"><ele>559.0</ele><time>2026-04-04T10:48:26.1Z</time></trkpt><trkpt lat="44.5947583" lon="8.7934133"><ele>559.0</ele><time>2026-04-04T10:48:28.1Z</time></trkpt><trkpt lat="44.59469" lon="8.7935433"><ele>559.0</ele><time>2026-04-04T10:48:30.099Z</time></trkpt><trkpt lat="44.594655" lon="8.7936283"><ele>559.0</ele><time>2026-04-04T10:48:31.105Z</time></trkpt><trkpt lat="44.5946233" lon="8.7937183"><ele>560.6666666666667</ele><time>2026-04-04T10:48:32.102Z</time></trkpt><trkpt lat="44.59459" lon="8.7938"><ele>562.3333333333334</ele><time>2026-04-04T10:48:33.102Z</time></trkpt><trkpt lat="44.5945467" lon="8.79388"><ele>564.0</ele><time>2026-04-04T10:48:34.105Z</time></trkpt><trkpt lat="44.5944917" lon="8.79395"><ele>565.6666666666666</ele><time>2026-04-04T10:48:35.104Z</time></trkpt><trkpt lat="44.5944283" lon="8.7940017"><ele>567.3333333333333</ele><time>2026-04-04T10:48:36.102Z</time></trkpt><trkpt lat="44.5943517" lon="8.79404"><ele>569.0</ele><time>2026-04-04T10:48:37.104Z</time></trkpt><trkpt lat="44.5942683" lon="8.794085"><ele>569.0</ele><time>2026-04-04T10:48:38.1Z</time></trkpt><trkpt lat="44.5941883" lon="8.79413"><ele>569.0</ele><time>2026-04-04T10:48:39.101Z</time></trkpt><trkpt lat="44.5941083" lon="8.7941833"><ele>569.0</ele><time>2026-04-04T10:48:40.102Z</time></trkpt><trkpt lat="44.59403" lon="8.7942267"><ele>569.0</ele><time>2026-04-04T10:48:41.108Z</time></trkpt><trkpt lat="44.5939517" lon="8.794265"><ele>569.0</ele><time>2026-04-04T10:48:42.105Z</time></trkpt><trkpt lat="44.5938767" lon="8.7943117"><ele>569.0</ele><time>2026-04-04T10:48:43.098Z</time></trkpt><trkpt lat="44.5938" lon="8.7943417"><ele>571.6666666666666</ele><time>2026-04-04T10:48:44.101Z</time></trkpt><trkpt lat="44.5937233" lon="8.7943683"><ele>574.3333333333333</ele><time>2026-04-04T10:48:45.099Z</time></trkpt><trkpt lat="44.5936367" lon="8.7943917"><ele>577.0</ele><time>2026-04-04T10:48:46.101Z</time></trkpt><trkpt lat="44.5935467" lon="8.7944033"><ele>579.6666666666666</ele><time>2026-04-04T10:48:47.098Z</time></trkpt><trkpt lat="44.5934533" lon="8.7944167"><ele>582.3333333333334</ele><time>2026-04-04T10:48:48.101Z</time></trkpt><trkpt lat="44.5933567" lon="8.7944333"><ele>585.0</ele><time>2026-04-04T10:48:49.103Z</time></trkpt><trkpt lat="44.593255" lon="8.7944517"><ele>585.0</ele><time>2026-04-04T10:48:50.102Z</time></trkpt><trkpt lat="44.5931567" lon="8.7944783"><ele>585.0</ele><time>2026-04-04T10:48:51.101Z</time></trkpt><trkpt lat="44.5930517" lon="8.7945083"><ele>585.0</ele><time>2026-04-04T10:48:52.104Z</time></trkpt><trkpt lat="44.5929467" lon="8.7945483"><ele>585.0</ele><time>2026-04-04T10:48:53.101Z</time></trkpt><trkpt lat="44.5928517" lon="8.7945917"><ele>585.0</ele><time>2026-04-04T10:48:54.105Z</time></trkpt><trkpt lat="44.5927633" lon="8.79464"><ele>581.8333333333334</ele><time>2026-04-04T10:48:55.107Z</time></trkpt><trkpt lat="44.5926867" lon="8.7946967"><ele>578.6666666666666</ele><time>2026-04-04T10:48:56.102Z</time></trkpt><trkpt lat="44.5926167" lon="8.7947533"><ele>575.5</ele><time>2026-04-04T10:48:57.1Z</time></trkpt><trkpt lat="44.59256" lon="8.794825"><ele>572.3333333333333</ele><time>2026-04-04T10:48:58.103Z</time></trkpt><trkpt lat="44.5924983" lon="8.7948833"><ele>569.1666666666666</ele><time>2026-04-04T10:48:59.103Z</time></trkpt><trkpt lat="44.592385" lon="8.79494"><ele>566.0</ele><time>2026-04-04T10:49:01.105Z</time></trkpt><trkpt lat="44.59231" lon="8.79494"><ele>566.0</ele><time>2026-04-04T10:49:02.106Z</time></trkpt><trkpt lat="44.5922217" lon="8.7949383"><ele>566.0</ele><time>2026-04-04T10:49:03.105Z</time></trkpt><trkpt lat="44.5921383" lon="8.7949517"><ele>566.0</ele><time>2026-04-04T10:49:04.099Z</time></trkpt><trkpt lat="44.5920583" lon="8.7949433"><ele>566.0</ele><time>2026-04-04T10:49:05.106Z</time></trkpt><trkpt lat="44.59198" lon="8.7949283"><ele>566.0</ele><time>2026-04-04T10:49:06.097Z</time></trkpt><trkpt lat="44.59191" lon="8.794875"><ele>566.0</ele><time>2026-04-04T10:49:07.103Z</time></trkpt><trkpt lat="44.5918567" lon="8.7947733"><ele>563.6</ele><time>2026-04-04T10:49:08.099Z</time></trkpt><trkpt lat="44.5918267" lon="8.7946367"><ele>561.2</ele><time>2026-04-04T10:49:09.1Z</time></trkpt><trkpt lat="44.5918133" lon="8.79449"><ele>558.8</ele><time>2026-04-04T10:49:10.099Z</time></trkpt><trkpt lat="44.5917933" lon="8.7943517"><ele>556.4</ele><time>2026-04-04T10:49:11.102Z</time></trkpt><trkpt lat="44.59176" lon="8.7942267"><ele>554.0</ele><time>2026-04-04T10:49:12.101Z</time></trkpt><trkpt lat="44.591705" lon="8.7941233"><ele>554.0</ele><time>2026-04-04T10:49:13.1Z</time></trkpt><trkpt lat="44.591645" lon="8.7940367"><ele>554.0</ele><time>2026-04-04T10:49:14.103Z</time></trkpt><trkpt lat="44.59157" lon="8.7939783"><ele>554.0</ele><time>2026-04-04T10:49:15.099Z</time></trkpt><trkpt lat="44.5914967" lon="8.7939283"><ele>554.0</ele><time>2026-04-04T10:49:16.101Z</time></trkpt><trkpt lat="44.591405" lon="8.793875"><ele>554.0</ele><time>2026-04-04T10:49:17.106Z</time></trkpt><trkpt lat="44.5913283" lon="8.7938"><ele>554.0</ele><time>2026-04-04T10:49:18.099Z</time></trkpt><trkpt lat="44.5912417" lon="8.7937233"><ele>552.8333333333333</ele><time>2026-04-04T10:49:19.101Z</time></trkpt><trkpt lat="44.5911533" lon="8.7936483"><ele>551.6666666666666</ele><time>2026-04-04T10:49:20.1Z</time></trkpt><trkpt lat="44.5910717" lon="8.793575"><ele>550.5</ele><time>2026-04-04T10:49:21.103Z</time></trkpt><trkpt lat="44.591005" lon="8.793495"><ele>549.3333333333334</ele><time>2026-04-04T10:49:22.101Z</time></trkpt><trkpt lat="44.5909467" lon="8.7934133"><ele>548.1666666666667</ele><time>2026-04-04T10:49:23.1Z</time></trkpt><trkpt lat="44.5909033" lon="8.7933233"><ele>547.0</ele><time>2026-04-04T10:49:24.101Z</time></trkpt><trkpt lat="44.5908783" lon="8.79321"><ele>547.0</ele><time>2026-04-04T10:49:25.101Z</time></trkpt><trkpt lat="44.5908433" lon="8.7931033"><ele>547.0</ele><time>2026-04-04T10:49:26.098Z</time></trkpt><trkpt lat="44.5907983" lon="8.7930033"><ele>547.0</ele><time>2026-04-04T10:49:27.1Z</time></trkpt><trkpt lat="44.5907583" lon="8.7929033"><ele>547.0</ele><time>2026-04-04T10:49:28.097Z</time></trkpt><trkpt lat="44.5907183" lon="8.7928033"><ele>547.0</ele><time>2026-04-04T10:49:29.101Z</time></trkpt><trkpt lat="44.5906817" lon="8.792715"><ele>547.0</ele><time>2026-04-04T10:49:30.098Z</time></trkpt><trkpt lat="44.5906483" lon="8.7926233"><ele>544.4285714285714</ele><time>2026-04-04T10:49:31.101Z</time></trkpt><trkpt lat="44.590615" lon="8.7925317"><ele>541.8571428571428</ele><time>2026-04-04T10:49:32.105Z</time></trkpt><trkpt lat="44.590595" lon="8.7924383"><ele>539.2857142857142</ele><time>2026-04-04T10:49:33.101Z</time></trkpt><trkpt lat="44.5905783" lon="8.792335"><ele>536.7142857142857</ele><time>2026-04-04T10:49:34.1Z</time></trkpt><trkpt lat="44.590555" lon="8.792245"><ele>534.1428571428571</ele><time>2026-04-04T10:49:35.101Z</time></trkpt><trkpt lat="44.5905267" lon="8.79216"><ele>531.5714285714286</ele><time>2026-04-04T10:49:36.1Z</time></trkpt><trkpt lat="44.5904967" lon="8.7920717"><ele>529.0</ele><time>2026-04-04T10:49:37.105Z</time></trkpt><trkpt lat="44.5904667" lon="8.7919833"><ele>529.0</ele><time>2026-04-04T10:49:38.1Z</time></trkpt><trkpt lat="44.5904133" lon="8.791915"><ele>529.0</ele><time>2026-04-04T10:49:39.1Z</time></trkpt><trkpt lat="44.5903567" lon="8.7918467"><ele>529.0</ele><time>2026-04-04T10:49:40.1Z</time></trkpt><trkpt lat="44.5902917" lon="8.7917967"><ele>529.0</ele><time>2026-04-04T10:49:41.1Z</time></trkpt><trkpt lat="44.5902317" lon="8.7917617"><ele>529.0</ele><time>2026-04-04T10:49:42.099Z</time></trkpt><trkpt lat="44.5901617" lon="8.7917733"><ele>529.0</ele><time>2026-04-04T10:49:43.101Z</time></trkpt><trkpt lat="44.5900967" lon="8.7918217"><ele>529.0</ele><time>2026-04-04T10:49:44.1Z</time></trkpt><trkpt lat="44.5900417" lon="8.7918933"><ele>530.8</ele><time>2026-04-04T10:49:45.099Z</time></trkpt><trkpt lat="44.5899883" lon="8.7919817"><ele>532.5999999999999</ele><time>2026-04-04T10:49:46.1Z</time></trkpt><trkpt lat="44.5899283" lon="8.7920767"><ele>534.4</ele><time>2026-04-04T10:49:47.098Z</time></trkpt><trkpt lat="44.5898667" lon="8.792175"><ele>536.1999999999999</ele><time>2026-04-04T10:49:48.107Z</time></trkpt><trkpt lat="44.5897983" lon="8.7922533"><ele>538.0</ele><time>2026-04-04T10:49:49.103Z</time></trkpt><trkpt lat="44.5897167" lon="8.7923383"><ele>538.0</ele><time>2026-04-04T10:49:50.1Z</time></trkpt><trkpt lat="44.5896333" lon="8.7924267"><ele>538.0</ele><time>2026-04-04T10:49:51.1Z</time></trkpt><trkpt lat="44.58954" lon="8.7925167"><ele>538.0</ele><time>2026-04-04T10:49:52.099Z</time></trkpt><trkpt lat="44.58945" lon="8.7926"><ele>538.0</ele><time>2026-04-04T10:49:53.1Z</time></trkpt><trkpt lat="44.5893633" lon="8.7926933"><ele>538.0</ele><time>2026-04-04T10:49:54.102Z</time></trkpt><trkpt lat="44.5892817" lon="8.7927983"><ele>539.0</ele><time>2026-04-04T10:49:55.103Z</time></trkpt><trkpt lat="44.58921" lon="8.79292"><ele>540.0</ele><time>2026-04-04T10:49:56.102Z</time></trkpt><trkpt lat="44.5891417" lon="8.79304"><ele>541.0</ele><time>2026-04-04T10:49:57.1Z</time></trkpt><trkpt lat="44.5890767" lon="8.7931533"><ele>542.0</ele><time>2026-04-04T10:49:58.102Z</time></trkpt><trkpt lat="44.58901" lon="8.793245"><ele>543.0</ele><time>2026-04-04T10:49:59.103Z</time></trkpt><trkpt lat="44.5889417" lon="8.79334"><ele>543.0</ele><time>2026-04-04T10:50:00.105Z</time></trkpt><trkpt lat="44.58887" lon="8.79341"><ele>543.0</ele><time>2026-04-04T10:50:01.1Z</time></trkpt><trkpt lat="44.588795" lon="8.79346"><ele>543.0</ele><time>2026-04-04T10:50:02.103Z</time></trkpt><trkpt lat="44.5887217" lon="8.793495"><ele>543.0</ele><time>2026-04-04T10:50:03.098Z</time></trkpt><trkpt lat="44.5886483" lon="8.793495"><ele>543.0</ele><time>2026-04-04T10:50:04.101Z</time></trkpt><trkpt lat="44.58858" lon="8.7934583"><ele>543.0</ele><time>2026-04-04T10:50:05.103Z</time></trkpt><trkpt lat="44.5885083" lon="8.7934067"><ele>545.25</ele><time>2026-04-04T10:50:06.105Z</time></trkpt><trkpt lat="44.5884467" lon="8.79328"><ele>547.5</ele><time>2026-04-04T10:50:07.099Z</time></trkpt><trkpt lat="44.588405" lon="8.7931333"><ele>549.75</ele><time>2026-04-04T10:50:08.103Z</time></trkpt><trkpt lat="44.5883433" lon="8.7929717"><ele>552.0</ele><time>2026-04-04T10:50:09.104Z</time></trkpt><trkpt lat="44.5883317" lon="8.7926933"><ele>546.6</ele><time>2026-04-04T10:50:10.1Z</time></trkpt><trkpt lat="44.5883167" lon="8.7925017"><ele>541.2</ele><time>2026-04-04T10:50:11.097Z</time></trkpt><trkpt lat="44.5882767" lon="8.7923683"><ele>535.8</ele><time>2026-04-04T10:50:12.097Z</time></trkpt><trkpt lat="44.58823" lon="8.79227"><ele>530.4</ele><time>2026-04-04T10:50:13.098Z</time></trkpt><trkpt lat="44.5881767" lon="8.79222"><ele>525.0</ele><time>2026-04-04T10:50:14.101Z</time></trkpt><trkpt lat="44.58805" lon="8.7921917"><ele>525.0</ele><time>2026-04-04T10:50:16.099Z</time></trkpt><trkpt lat="44.5879683" lon="8.7922017"><ele>525.0</ele><time>2026-04-04T10:50:17.099Z</time></trkpt><trkpt lat="44.5878883" lon="8.79222"><ele>525.0</ele><time>2026-04-04T10:50:18.101Z</time></trkpt><trkpt lat="44.587805" lon="8.7922333"><ele>525.0</ele><time>2026-04-04T10:50:19.103Z</time></trkpt><trkpt lat="44.5877217" lon="8.7922383"><ele>525.0</ele><time>2026-04-04T10:50:20.1Z</time></trkpt><trkpt lat="44.587635" lon="8.7922317"><ele>525.0</ele><time>2026-04-04T10:50:21.102Z</time></trkpt><trkpt lat="44.587555" lon="8.7922267"><ele>528.6666666666666</ele><time>2026-04-04T10:50:22.097Z</time></trkpt><trkpt lat="44.5874733" lon="8.79223"><ele>532.3333333333334</ele><time>2026-04-04T10:50:23.101Z</time></trkpt><trkpt lat="44.587395" lon="8.7922233"><ele>536.0</ele><time>2026-04-04T10:50:24.098Z</time></trkpt><trkpt lat="44.58732" lon="8.7922033"><ele>539.6666666666667</ele><time>2026-04-04T10:50:25.105Z</time></trkpt><trkpt lat="44.5872433" lon="8.7921667"><ele>543.3333333333334</ele><time>2026-04-04T10:50:26.103Z</time></trkpt><trkpt lat="44.5871617" lon="8.7921367"><ele>547.0</ele><time>2026-04-04T10:50:27.105Z</time></trkpt><trkpt lat="44.58708" lon="8.7921017"><ele>549.6666666666667</ele><time>2026-04-04T10:50:28.1Z</time></trkpt><trkpt lat="44.5869967" lon="8.792085"><ele>552.3333333333334</ele><time>2026-04-04T10:50:29.11Z</time></trkpt><trkpt lat="44.5869183" lon="8.7920617"><ele>555.0</ele><time>2026-04-04T10:50:30.11Z</time></trkpt><trkpt lat="44.58684" lon="8.792035"><ele>557.6666666666666</ele><time>2026-04-04T10:50:31.11Z</time></trkpt><trkpt lat="44.58676" lon="8.7919933"><ele>560.3333333333333</ele><time>2026-04-04T10:50:32.101Z</time></trkpt><trkpt lat="44.5866883" lon="8.791945"><ele>563.0</ele><time>2026-04-04T10:50:33.1Z</time></trkpt><trkpt lat="44.5866533" lon="8.7918467"><ele>558.8571428571429</ele><time>2026-04-04T10:50:34.097Z</time></trkpt><trkpt lat="44.58662" lon="8.7917583"><ele>554.7142857142858</ele><time>2026-04-04T10:50:35.102Z</time></trkpt><trkpt lat="44.5866117" lon="8.7916567"><ele>550.5714285714287</ele><time>2026-04-04T10:50:36.099Z</time></trkpt><trkpt lat="44.5865667" lon="8.7915833"><ele>546.4285714285714</ele><time>2026-04-04T10:50:37.103Z</time></trkpt><trkpt lat="44.58652" lon="8.79152"><ele>542.2857142857143</ele><time>2026-04-04T10:50:38.1Z</time></trkpt><trkpt lat="44.586465" lon="8.7914683"><ele>538.1428571428572</ele><time>2026-04-04T10:50:39.101Z</time></trkpt><trkpt lat="44.586405" lon="8.7914133"><ele>534.0</ele><time>2026-04-04T10:50:40.099Z</time></trkpt><trkpt lat="44.586345" lon="8.7913583"><ele>534.0</ele><time>2026-04-04T10:50:41.103Z</time></trkpt><trkpt lat="44.58627" lon="8.791315"><ele>534.0</ele><time>2026-04-04T10:50:42.099Z</time></trkpt><trkpt lat="44.5861917" lon="8.791285"><ele>534.0</ele><time>2026-04-04T10:50:43.101Z</time></trkpt><trkpt lat="44.58611" lon="8.791275"><ele>534.0</ele><time>2026-04-04T10:50:44.105Z</time></trkpt><trkpt lat="44.5860283" lon="8.7912833"><ele>534.0</ele><time>2026-04-04T10:50:45.102Z</time></trkpt><trkpt lat="44.5859733" lon="8.7913967"><ele>534.0</ele><time>2026-04-04T10:50:46.102Z</time></trkpt><trkpt lat="44.58592" lon="8.7914967"><ele>534.1666666666666</ele><time>2026-04-04T10:50:47.103Z</time></trkpt><trkpt lat="44.585865" lon="8.7915983"><ele>534.3333333333334</ele><time>2026-04-04T10:50:48.103Z</time></trkpt><trkpt lat="44.5858133" lon="8.7916917"><ele>534.5</ele><time>2026-04-04T10:50:49.101Z</time></trkpt><trkpt lat="44.5857567" lon="8.791775"><ele>534.6666666666667</ele><time>2026-04-04T10:50:50.109Z</time></trkpt><trkpt lat="44.5856967" lon="8.7918317"><ele>534.8333333333334</ele><time>2026-04-04T10:50:51.102Z</time></trkpt><trkpt lat="44.5856317" lon="8.7918417"><ele>535.0</ele><time>2026-04-04T10:50:52.105Z</time></trkpt><trkpt lat="44.5855083" lon="8.7918017"><ele>535.0</ele><time>2026-04-04T10:50:54.098Z</time></trkpt><trkpt lat="44.5854667" lon="8.7917033"><ele>535.0</ele><time>2026-04-04T10:50:55.1Z</time></trkpt><trkpt lat="44.5854433" lon="8.7916033"><ele>535.0</ele><time>2026-04-04T10:50:56.103Z</time></trkpt><trkpt lat="44.5854217" lon="8.791495"><ele>535.0</ele><time>2026-04-04T10:50:57.104Z</time></trkpt><trkpt lat="44.5853883" lon="8.7913917"><ele>535.0</ele><time>2026-04-04T10:50:58.098Z</time></trkpt><trkpt lat="44.585355" lon="8.7912683"><ele>535.0</ele><time>2026-04-04T10:50:59.1Z</time></trkpt><trkpt lat="44.5853167" lon="8.791145"><ele>533.4</ele><time>2026-04-04T10:51:00.099Z</time></trkpt><trkpt lat="44.5852733" lon="8.7910317"><ele>531.8</ele><time>2026-04-04T10:51:01.104Z</time></trkpt><trkpt lat="44.5852467" lon="8.7908967"><ele>530.2</ele><time>2026-04-04T10:51:02.101Z</time></trkpt><trkpt lat="44.5852217" lon="8.7907667"><ele>528.6</ele><time>2026-04-04T10:51:03.099Z</time></trkpt><trkpt lat="44.5851967" lon="8.7906367"><ele>527.0</ele><time>2026-04-04T10:51:04.103Z</time></trkpt><trkpt lat="44.5851667" lon="8.7905333"><ele>527.0</ele><time>2026-04-04T10:51:05.101Z</time></trkpt><trkpt lat="44.5851367" lon="8.7904433"><ele>527.0</ele><time>2026-04-04T10:51:06.103Z</time></trkpt><trkpt lat="44.5851017" lon="8.7903683"><ele>527.0</ele><time>2026-04-04T10:51:07.106Z</time></trkpt><trkpt lat="44.584995" lon="8.7902933"><ele>527.0</ele><time>2026-04-04T10:51:09.1Z</time></trkpt><trkpt lat="44.58493" lon="8.7903017"><ele>527.0</ele><time>2026-04-04T10:51:10.102Z</time></trkpt><trkpt lat="44.5848567" lon="8.7903383"><ele>527.0</ele><time>2026-04-04T10:51:11.102Z</time></trkpt><trkpt lat="44.5847617" lon="8.79041"><ele>527.0</ele><time>2026-04-04T10:51:12.102Z</time></trkpt><trkpt lat="44.58469" lon="8.7904717"><ele>527.0</ele><time>2026-04-04T10:51:13.102Z</time></trkpt><trkpt lat="44.584615" lon="8.7905367"><ele>527.0</ele><time>2026-04-04T10:51:14.104Z</time></trkpt><trkpt lat="44.5845483" lon="8.7905917"><ele>527.0</ele><time>2026-04-04T10:51:15.105Z</time></trkpt><trkpt lat="44.5844817" lon="8.7906333"><ele>527.0</ele><time>2026-04-04T10:51:16.106Z</time></trkpt><trkpt lat="44.5844117" lon="8.7906433"><ele>527.0</ele><time>2026-04-04T10:51:17.103Z</time></trkpt><trkpt lat="44.5843283" lon="8.79065"><ele>526.5</ele><time>2026-04-04T10:51:18.101Z</time></trkpt><trkpt lat="44.584245" lon="8.790675"><ele>526.0</ele><time>2026-04-04T10:51:19.102Z</time></trkpt><trkpt lat="44.5841733" lon="8.790715"><ele>525.5</ele><time>2026-04-04T10:51:20.107Z</time></trkpt><trkpt lat="44.5841017" lon="8.7907667"><ele>525.0</ele><time>2026-04-04T10:51:21.107Z</time></trkpt><trkpt lat="44.5840217" lon="8.7908117"><ele>524.5</ele><time>2026-04-04T10:51:22.098Z</time></trkpt><trkpt lat="44.5839433" lon="8.79086"><ele>524.0</ele><time>2026-04-04T10:51:23.107Z</time></trkpt><trkpt lat="44.58386" lon="8.7909117"><ele>524.0</ele><time>2026-04-04T10:51:24.099Z</time></trkpt><trkpt lat="44.58378" lon="8.7909817"><ele>524.0</ele><time>2026-04-04T10:51:25.102Z</time></trkpt><trkpt lat="44.5837017" lon="8.7910483"><ele>524.0</ele><time>2026-04-04T10:51:26.098Z</time></trkpt><trkpt lat="44.58363" lon="8.7911083"><ele>524.0</ele><time>2026-04-04T10:51:27.1Z</time></trkpt><trkpt lat="44.5835517" lon="8.7911533"><ele>524.0</ele><time>2026-04-04T10:51:28.101Z</time></trkpt><trkpt lat="44.5834667" lon="8.7911867"><ele>524.0</ele><time>2026-04-04T10:51:29.103Z</time></trkpt><trkpt lat="44.5833717" lon="8.7912033"><ele>530.0</ele><time>2026-04-04T10:51:30.1Z</time></trkpt><trkpt lat="44.583265" lon="8.7912117"><ele>536.0</ele><time>2026-04-04T10:51:31.103Z</time></trkpt><trkpt lat="44.58316" lon="8.7911933"><ele>542.0</ele><time>2026-04-04T10:51:32.102Z</time></trkpt><trkpt lat="44.5830633" lon="8.79118"><ele>548.0</ele><time>2026-04-04T10:51:33.103Z</time></trkpt><trkpt lat="44.5829683" lon="8.7911483"><ele>554.0</ele><time>2026-04-04T10:51:34.1Z</time></trkpt><trkpt lat="44.58287" lon="8.7911083"><ele>553.5</ele><time>2026-04-04T10:51:35.101Z</time></trkpt><trkpt lat="44.5827783" lon="8.79107"><ele>553.0</ele><time>2026-04-04T10:51:36.107Z</time></trkpt><trkpt lat="44.5826917" lon="8.7910383"><ele>552.5</ele><time>2026-04-04T10:51:37.104Z</time></trkpt><trkpt lat="44.5826083" lon="8.791035"><ele>552.0</ele><time>2026-04-04T10:51:38.101Z</time></trkpt><trkpt lat="44.5825217" lon="8.79105"><ele>551.5</ele><time>2026-04-04T10:51:39.101Z</time></trkpt><trkpt lat="44.58244" lon="8.7910683"><ele>551.0</ele><time>2026-04-04T10:51:40.101Z</time></trkpt><trkpt lat="44.5823567" lon="8.791095"><ele>551.0</ele><time>2026-04-04T10:51:41.105Z</time></trkpt><trkpt lat="44.5822767" lon="8.7911167"><ele>551.0</ele><time>2026-04-04T10:51:42.1Z</time></trkpt><trkpt lat="44.5822017" lon="8.791125"><ele>551.0</ele><time>2026-04-04T10:51:43.108Z</time></trkpt><trkpt lat="44.58213" lon="8.7910983"><ele>551.0</ele><time>2026-04-04T10:51:44.098Z</time></trkpt><trkpt lat="44.582065" lon="8.791055"><ele>551.0</ele><time>2026-04-04T10:51:45.098Z</time></trkpt><trkpt lat="44.58197" lon="8.790945"><ele>551.0</ele><time>2026-04-04T10:51:47.1Z</time></trkpt><trkpt lat="44.5819083" lon="8.7908967"><ele>546.0</ele><time>2026-04-04T10:51:48.101Z</time></trkpt><trkpt lat="44.5818433" lon="8.7908483"><ele>541.0</ele><time>2026-04-04T10:51:49.1Z</time></trkpt><trkpt lat="44.5817683" lon="8.790805"><ele>536.0</ele><time>2026-04-04T10:51:50.103Z</time></trkpt><trkpt lat="44.5816817" lon="8.79078"><ele>531.0</ele><time>2026-04-04T10:51:51.101Z</time></trkpt><trkpt lat="44.5815917" lon="8.7907683"><ele>526.0</ele><time>2026-04-04T10:51:52.105Z</time></trkpt><trkpt lat="44.581485" lon="8.7907833"><ele>521.0</ele><time>2026-04-04T10:51:53.104Z</time></trkpt><trkpt lat="44.5813833" lon="8.7907933"><ele>521.0</ele><time>2026-04-04T10:51:54.108Z</time></trkpt><trkpt lat="44.5813" lon="8.7907633"><ele>521.0</ele><time>2026-04-04T10:51:55.103Z</time></trkpt><trkpt lat="44.5812167" lon="8.7907417"><ele>521.0</ele><time>2026-04-04T10:51:56.101Z</time></trkpt><trkpt lat="44.5811417" lon="8.7906817"><ele>521.0</ele><time>2026-04-04T10:51:57.102Z</time></trkpt><trkpt lat="44.5810833" lon="8.7905917"><ele>521.0</ele><time>2026-04-04T10:51:58.099Z</time></trkpt><trkpt lat="44.581025" lon="8.7904967"><ele>521.0</ele><time>2026-04-04T10:51:59.107Z</time></trkpt><trkpt lat="44.58097" lon="8.7903833"><ele>521.5</ele><time>2026-04-04T10:52:00.101Z</time></trkpt><trkpt lat="44.5809183" lon="8.7902783"><ele>522.0</ele><time>2026-04-04T10:52:01.105Z</time></trkpt><trkpt lat="44.5808783" lon="8.7901733"><ele>522.5</ele><time>2026-04-04T10:52:02.101Z</time></trkpt><trkpt lat="44.5808667" lon="8.79006"><ele>523.0</ele><time>2026-04-04T10:52:03.099Z</time></trkpt><trkpt lat="44.5808383" lon="8.7899517"><ele>523.5</ele><time>2026-04-04T10:52:04.099Z</time></trkpt><trkpt lat="44.5808117" lon="8.789845"><ele>524.0</ele><time>2026-04-04T10:52:05.099Z</time></trkpt><trkpt lat="44.5808033" lon="8.7897317"><ele>524.0</ele><time>2026-04-04T10:52:06.098Z</time></trkpt><trkpt lat="44.5807933" lon="8.7896217"><ele>524.0</ele><time>2026-04-04T10:52:07.1Z</time></trkpt><trkpt lat="44.58078" lon="8.7895033"><ele>524.0</ele><time>2026-04-04T10:52:08.1Z</time></trkpt><trkpt lat="44.5807483" lon="8.7893883"><ele>524.0</ele><time>2026-04-04T10:52:09.104Z</time></trkpt><trkpt lat="44.5807183" lon="8.7892767"><ele>524.0</ele><time>2026-04-04T10:52:10.099Z</time></trkpt><trkpt lat="44.5806867" lon="8.78917"><ele>524.0</ele><time>2026-04-04T10:52:11.1Z</time></trkpt><trkpt lat="44.5806433" lon="8.78907"><ele>521.0</ele><time>2026-04-04T10:52:12.102Z</time></trkpt><trkpt lat="44.5805967" lon="8.7889767"><ele>518.0</ele><time>2026-04-04T10:52:13.1Z</time></trkpt><trkpt lat="44.58054" lon="8.7888967"><ele>515.0</ele><time>2026-04-04T10:52:14.101Z</time></trkpt><trkpt lat="44.5804717" lon="8.7888317"><ele>512.0</ele><time>2026-04-04T10:52:15.106Z</time></trkpt><trkpt lat="44.58041" lon="8.78877"><ele>508.99999999999994</ele><time>2026-04-04T10:52:16.099Z</time></trkpt><trkpt lat="44.5803567" lon="8.7887"><ele>506.0</ele><time>2026-04-04T10:52:17.1Z</time></trkpt><trkpt lat="44.5803167" lon="8.7886183"><ele>511.66666666666663</ele><time>2026-04-04T10:52:18.099Z</time></trkpt><trkpt lat="44.5802867" lon="8.7885183"><ele>517.3333333333333</ele><time>2026-04-04T10:52:19.098Z</time></trkpt><trkpt lat="44.5802533" lon="8.788415"><ele>523.0</ele><time>2026-04-04T10:52:20.099Z</time></trkpt><trkpt lat="44.5802183" lon="8.7883017"><ele>528.6666666666666</ele><time>2026-04-04T10:52:21.102Z</time></trkpt><trkpt lat="44.580175" lon="8.7881867"><ele>534.3333333333334</ele><time>2026-04-04T10:52:22.107Z</time></trkpt><trkpt lat="44.580125" lon="8.78807"><ele>540.0</ele><time>2026-04-04T10:52:23.101Z</time></trkpt><trkpt lat="44.5800617" lon="8.7879633"><ele>540.0</ele><time>2026-04-04T10:52:24.1Z</time></trkpt><trkpt lat="44.5800033" lon="8.787855"><ele>540.0</ele><time>2026-04-04T10:52:25.105Z</time></trkpt><trkpt lat="44.57995" lon="8.7877417"><ele>540.0</ele><time>2026-04-04T10:52:26.099Z</time></trkpt><trkpt lat="44.579895" lon="8.787625"><ele>540.0</ele><time>2026-04-04T10:52:27.102Z</time></trkpt><trkpt lat="44.5798317" lon="8.7875133"><ele>540.0</ele><time>2026-04-04T10:52:28.098Z</time></trkpt><trkpt lat="44.5797717" lon="8.78741"><ele>536.3333333333334</ele><time>2026-04-04T10:52:29.1Z</time></trkpt><trkpt lat="44.57972" lon="8.7873083"><ele>532.6666666666666</ele><time>2026-04-04T10:52:30.1Z</time></trkpt><trkpt lat="44.579675" lon="8.7872167"><ele>529.0</ele><time>2026-04-04T10:52:31.099Z</time></trkpt><trkpt lat="44.5796383" lon="8.7871217"><ele>525.3333333333333</ele><time>2026-04-04T10:52:32.107Z</time></trkpt><trkpt lat="44.5796183" lon="8.7870317"><ele>521.6666666666666</ele><time>2026-04-04T10:52:33.098Z</time></trkpt><trkpt lat="44.57962" lon="8.7869417"><ele>518.0</ele><time>2026-04-04T10:52:34.099Z</time></trkpt><trkpt lat="44.57966" lon="8.7868517"><ele>515.1666666666666</ele><time>2026-04-04T10:52:35.103Z</time></trkpt><trkpt lat="44.5797083" lon="8.7867533"><ele>512.3333333333333</ele><time>2026-04-04T10:52:36.105Z</time></trkpt><trkpt lat="44.5797317" lon="8.78665"><ele>509.5</ele><time>2026-04-04T10:52:37.1Z</time></trkpt><trkpt lat="44.5797267" lon="8.7865417"><ele>506.66666666666663</ele><time>2026-04-04T10:52:38.1Z</time></trkpt><trkpt lat="44.5797083" lon="8.7864283"><ele>503.8333333333333</ele><time>2026-04-04T10:52:39.106Z</time></trkpt><trkpt lat="44.579675" lon="8.7863133"><ele>501.0</ele><time>2026-04-04T10:52:40.107Z</time></trkpt><trkpt lat="44.5796383" lon="8.7861883"><ele>501.0</ele><time>2026-04-04T10:52:41.103Z</time></trkpt><trkpt lat="44.5796183" lon="8.786055"><ele>501.0</ele><time>2026-04-04T10:52:42.102Z</time></trkpt><trkpt lat="44.579615" lon="8.78593"><ele>501.0</ele><time>2026-04-04T10:52:43.101Z</time></trkpt><trkpt lat="44.5796067" lon="8.7858067"><ele>501.0</ele><time>2026-04-04T10:52:44.106Z</time></trkpt><trkpt lat="44.5795783" lon="8.78568"><ele>501.0</ele><time>2026-04-04T10:52:45.1Z</time></trkpt><trkpt lat="44.5795433" lon="8.7855483"><ele>506.0</ele><time>2026-04-04T10:52:46.106Z</time></trkpt><trkpt lat="44.57951" lon="8.7854117"><ele>511.0</ele><time>2026-04-04T10:52:47.101Z</time></trkpt><trkpt lat="44.5794833" lon="8.7852733"><ele>516.0</ele><time>2026-04-04T10:52:48.106Z</time></trkpt><trkpt lat="44.5794617" lon="8.7851317"><ele>521.0</ele><time>2026-04-04T10:52:49.102Z</time></trkpt><trkpt lat="44.5794367" lon="8.7849933"><ele>526.0</ele><time>2026-04-04T10:52:50.098Z</time></trkpt><trkpt lat="44.5794" lon="8.7848617"><ele>526.0</ele><time>2026-04-04T10:52:51.097Z</time></trkpt><trkpt lat="44.5793717" lon="8.7847267"><ele>526.0</ele><time>2026-04-04T10:52:52.1Z</time></trkpt><trkpt lat="44.5793417" lon="8.784595"><ele>526.0</ele><time>2026-04-04T10:52:53.099Z</time></trkpt><trkpt lat="44.579315" lon="8.784465"><ele>526.0</ele><time>2026-04-04T10:52:54.103Z</time></trkpt><trkpt lat="44.57928" lon="8.7843417"><ele>526.0</ele><time>2026-04-04T10:52:55.099Z</time></trkpt><trkpt lat="44.579235" lon="8.7842367"><ele>526.0</ele><time>2026-04-04T10:52:56.102Z</time></trkpt><trkpt lat="44.5791783" lon="8.784155"><ele>526.0</ele><time>2026-04-04T10:52:57.103Z</time></trkpt><trkpt lat="44.5791067" lon="8.7841167"><ele>526.0</ele><time>2026-04-04T10:52:58.102Z</time></trkpt><trkpt lat="44.5790167" lon="8.7841783"><ele>526.0</ele><time>2026-04-04T10:52:59.103Z</time></trkpt><trkpt lat="44.5789433" lon="8.784225"><ele>526.0</ele><time>2026-04-04T10:53:00.102Z</time></trkpt><trkpt lat="44.5788733" lon="8.784305"><ele>526.0</ele><time>2026-04-04T10:53:01.104Z</time></trkpt><trkpt lat="44.5788117" lon="8.784405"><ele>526.0</ele><time>2026-04-04T10:53:02.1Z</time></trkpt><trkpt lat="44.5787567" lon="8.7845433"><ele>526.0</ele><time>2026-04-04T10:53:03.101Z</time></trkpt><trkpt lat="44.5787017" lon="8.7847033"><ele>526.0</ele><time>2026-04-04T10:53:04.1Z</time></trkpt><trkpt lat="44.5786433" lon="8.7848583"><ele>526.0</ele><time>2026-04-04T10:53:05.106Z</time></trkpt><trkpt lat="44.5785833" lon="8.785015"><ele>526.5</ele><time>2026-04-04T10:53:06.106Z</time></trkpt><trkpt lat="44.57853" lon="8.7851717"><ele>527.0</ele><time>2026-04-04T10:53:07.103Z</time></trkpt><trkpt lat="44.57848" lon="8.785325"><ele>527.5</ele><time>2026-04-04T10:53:08.103Z</time></trkpt><trkpt lat="44.5784217" lon="8.7854667"><ele>528.0</ele><time>2026-04-04T10:53:09.103Z</time></trkpt><trkpt lat="44.5783533" lon="8.7856033"><ele>528.0</ele><time>2026-04-04T10:53:10.099Z</time></trkpt><trkpt lat="44.578275" lon="8.78574"><ele>528.0</ele><time>2026-04-04T10:53:11.106Z</time></trkpt><trkpt lat="44.5781917" lon="8.7858733"><ele>528.0</ele><time>2026-04-04T10:53:12.097Z</time></trkpt><trkpt lat="44.5781083" lon="8.78601"><ele>528.0</ele><time>2026-04-04T10:53:13.102Z</time></trkpt><trkpt lat="44.5780217" lon="8.7861467"><ele>524.5</ele><time>2026-04-04T10:53:14.098Z</time></trkpt><trkpt lat="44.5779233" lon="8.7862733"><ele>521.0</ele><time>2026-04-04T10:53:15.097Z</time></trkpt><trkpt lat="44.57782" lon="8.7863983"><ele>517.5</ele><time>2026-04-04T10:53:16.099Z</time></trkpt><trkpt lat="44.5777217" lon="8.7865383"><ele>514.0</ele><time>2026-04-04T10:53:17.1Z</time></trkpt><trkpt lat="44.57763" lon="8.7866767"><ele>514.0</ele><time>2026-04-04T10:53:18.101Z</time></trkpt><trkpt lat="44.5775433" lon="8.7868083"><ele>514.0</ele><time>2026-04-04T10:53:19.104Z</time></trkpt><trkpt lat="44.5774533" lon="8.786935"><ele>514.0</ele><time>2026-04-04T10:53:20.103Z</time></trkpt><trkpt lat="44.5773583" lon="8.7870567"><ele>514.0</ele><time>2026-04-04T10:53:21.102Z</time></trkpt><trkpt lat="44.5772567" lon="8.7871767"><ele>512.25</ele><time>2026-04-04T10:53:22.102Z</time></trkpt><trkpt lat="44.57716" lon="8.7873033"><ele>510.5</ele><time>2026-04-04T10:53:23.102Z</time></trkpt><trkpt lat="44.5770583" lon="8.7874333"><ele>508.75</ele><time>2026-04-04T10:53:24.1Z</time></trkpt><trkpt lat="44.57696" lon="8.7875583"><ele>507.0</ele><time>2026-04-04T10:53:25.102Z</time></trkpt><trkpt lat="44.5768633" lon="8.7876717"><ele>513.4</ele><time>2026-04-04T10:53:26.1Z</time></trkpt><trkpt lat="44.5767733" lon="8.7877667"><ele>519.8000000000001</ele><time>2026-04-04T10:53:27.104Z</time></trkpt><trkpt lat="44.5766917" lon="8.7878467"><ele>526.2</ele><time>2026-04-04T10:53:28.102Z</time></trkpt><trkpt lat="44.5766133" lon="8.7879317"><ele>532.6</ele><time>2026-04-04T10:53:29.1Z</time></trkpt><trkpt lat="44.5765417" lon="8.788035"><ele>539.0</ele><time>2026-04-04T10:53:30.105Z</time></trkpt><trkpt lat="44.576475" lon="8.7881433"><ele>539.0</ele><time>2026-04-04T10:53:31.101Z</time></trkpt><trkpt lat="44.576405" lon="8.7882383"><ele>539.0</ele><time>2026-04-04T10:53:32.101Z</time></trkpt><trkpt lat="44.5763367" lon="8.78832"><ele>539.0</ele><time>2026-04-04T10:53:33.099Z</time></trkpt><trkpt lat="44.57627" lon="8.78838"><ele>539.0</ele><time>2026-04-04T10:53:34.104Z</time></trkpt><trkpt lat="44.5761983" lon="8.78842"><ele>539.0</ele><time>2026-04-04T10:53:35.103Z</time></trkpt><trkpt lat="44.5761333" lon="8.7884033"><ele>539.0</ele><time>2026-04-04T10:53:36.104Z</time></trkpt><trkpt lat="44.5760733" lon="8.788375"><ele>537.6</ele><time>2026-04-04T10:53:37.101Z</time></trkpt><trkpt lat="44.575955" lon="8.788395"><ele>536.2</ele><time>2026-04-04T10:53:39.103Z</time></trkpt><trkpt lat="44.5758767" lon="8.7885267"><ele>534.8000000000001</ele><time>2026-04-04T10:53:41.099Z</time></trkpt><trkpt lat="44.5758433" lon="8.788615"><ele>533.4</ele><time>2026-04-04T10:53:42.098Z</time></trkpt><trkpt lat="44.5757983" lon="8.7887117"><ele>532.0</ele><time>2026-04-04T10:53:43.105Z</time></trkpt><trkpt lat="44.575755" lon="8.7888133"><ele>532.0</ele><time>2026-04-04T10:53:44.1Z</time></trkpt><trkpt lat="44.57572" lon="8.7889267"><ele>532.0</ele><time>2026-04-04T10:53:45.103Z</time></trkpt><trkpt lat="44.5756967" lon="8.7890483"><ele>532.0</ele><time>2026-04-04T10:53:46.099Z</time></trkpt><trkpt lat="44.5756667" lon="8.7891533"><ele>532.0</ele><time>2026-04-04T10:53:47.106Z</time></trkpt><trkpt lat="44.575625" lon="8.789245"><ele>532.0</ele><time>2026-04-04T10:53:48.102Z</time></trkpt><trkpt lat="44.5755683" lon="8.789305"><ele>532.0</ele><time>2026-04-04T10:53:49.103Z</time></trkpt><trkpt lat="44.5754983" lon="8.7893517"><ele>533.3333333333334</ele><time>2026-04-04T10:53:50.099Z</time></trkpt><trkpt lat="44.5754133" lon="8.7893917"><ele>534.6666666666667</ele><time>2026-04-04T10:53:51.104Z</time></trkpt><trkpt lat="44.5753283" lon="8.7894383"><ele>536.0</ele><time>2026-04-04T10:53:52.102Z</time></trkpt><trkpt lat="44.57525" lon="8.78948"><ele>537.3333333333334</ele><time>2026-04-04T10:53:53.11Z</time></trkpt><trkpt lat="44.5751683" lon="8.78951"><ele>538.6666666666666</ele><time>2026-04-04T10:53:54.104Z</time></trkpt><trkpt lat="44.5750883" lon="8.78954"><ele>540.0</ele><time>2026-04-04T10:53:55.099Z</time></trkpt><trkpt lat="44.5750017" lon="8.7895667"><ele>540.0</ele><time>2026-04-04T10:53:56.097Z</time></trkpt><trkpt lat="44.5749117" lon="8.78959"><ele>540.0</ele><time>2026-04-04T10:53:57.098Z</time></trkpt><trkpt lat="44.574825" lon="8.7895967"><ele>540.0</ele><time>2026-04-04T10:53:58.098Z</time></trkpt><trkpt lat="44.5747333" lon="8.7895883"><ele>540.0</ele><time>2026-04-04T10:53:59.099Z</time></trkpt><trkpt lat="44.5746167" lon="8.7895317"><ele>540.0</ele><time>2026-04-04T10:54:00.099Z</time></trkpt><trkpt lat="44.574515" lon="8.7894817"><ele>538.25</ele><time>2026-04-04T10:54:01.098Z</time></trkpt><trkpt lat="44.57441" lon="8.7894317"><ele>536.5</ele><time>2026-04-04T10:54:02.1Z</time></trkpt><trkpt lat="44.5743033" lon="8.7893817"><ele>534.75</ele><time>2026-04-04T10:54:03.1Z</time></trkpt><trkpt lat="44.5741933" lon="8.78934"><ele>533.0</ele><time>2026-04-04T10:54:04.098Z</time></trkpt><trkpt lat="44.5740817" lon="8.7893083"><ele>526.4</ele><time>2026-04-04T10:54:05.101Z</time></trkpt><trkpt lat="44.57397" lon="8.7892817"><ele>519.8</ele><time>2026-04-04T10:54:06.098Z</time></trkpt><trkpt lat="44.57385" lon="8.7892667"><ele>513.2</ele><time>2026-04-04T10:54:07.1Z</time></trkpt><trkpt lat="44.5737517" lon="8.78924"><ele>506.6</ele><time>2026-04-04T10:54:08.1Z</time></trkpt><trkpt lat="44.573655" lon="8.7891933"><ele>500.0</ele><time>2026-04-04T10:54:09.101Z</time></trkpt><trkpt lat="44.573565" lon="8.78914"><ele>498.8333333333333</ele><time>2026-04-04T10:54:10.101Z</time></trkpt><trkpt lat="44.573475" lon="8.7890867"><ele>497.66666666666663</ele><time>2026-04-04T10:54:11.102Z</time></trkpt><trkpt lat="44.573385" lon="8.78904"><ele>496.5</ele><time>2026-04-04T10:54:12.1Z</time></trkpt><trkpt lat="44.5733033" lon="8.789015"><ele>495.33333333333337</ele><time>2026-04-04T10:54:13.106Z</time></trkpt><trkpt lat="44.5732217" lon="8.78899"><ele>494.1666666666667</ele><time>2026-04-04T10:54:14.103Z</time></trkpt><trkpt lat="44.573135" lon="8.78897"><ele>493.0</ele><time>2026-04-04T10:54:15.1Z</time></trkpt><trkpt lat="44.57305" lon="8.78895"><ele>493.00000000000006</ele><time>2026-04-04T10:54:16.104Z</time></trkpt><trkpt lat="44.57297" lon="8.788925"><ele>493.0</ele><time>2026-04-04T10:54:17.101Z</time></trkpt><trkpt lat="44.5728917" lon="8.7889067"><ele>493.0</ele><time>2026-04-04T10:54:18.104Z</time></trkpt><trkpt lat="44.5728167" lon="8.7889017"><ele>493.0</ele><time>2026-04-04T10:54:19.108Z</time></trkpt><trkpt lat="44.5727467" lon="8.7889117"><ele>493.00000000000006</ele><time>2026-04-04T10:54:20.099Z</time></trkpt><trkpt lat="44.5726833" lon="8.7889317"><ele>493.0</ele><time>2026-04-04T10:54:21.099Z</time></trkpt><trkpt lat="44.5725867" lon="8.7890367"><ele>493.6666666666667</ele><time>2026-04-04T10:54:23.106Z</time></trkpt><trkpt lat="44.572555" lon="8.7891217"><ele>494.33333333333337</ele><time>2026-04-04T10:54:24.1Z</time></trkpt><trkpt lat="44.5725367" lon="8.7892267"><ele>495.0</ele><time>2026-04-04T10:54:25.1Z</time></trkpt><trkpt lat="44.5725283" lon="8.789355"><ele>495.66666666666663</ele><time>2026-04-04T10:54:26.1Z</time></trkpt><trkpt lat="44.5725217" lon="8.7894883"><ele>496.3333333333333</ele><time>2026-04-04T10:54:27.1Z</time></trkpt><trkpt lat="44.5724967" lon="8.789625"><ele>497.0</ele><time>2026-04-04T10:54:28.106Z</time></trkpt><trkpt lat="44.572475" lon="8.7897683"><ele>497.0</ele><time>2026-04-04T10:54:29.103Z</time></trkpt><trkpt lat="44.5724583" lon="8.7899183"><ele>497.0</ele><time>2026-04-04T10:54:30.101Z</time></trkpt><trkpt lat="44.5724517" lon="8.7900733"><ele>497.0</ele><time>2026-04-04T10:54:31.102Z</time></trkpt><trkpt lat="44.5724483" lon="8.7902433"><ele>497.0</ele><time>2026-04-04T10:54:32.102Z</time></trkpt><trkpt lat="44.572445" lon="8.7904217"><ele>498.0</ele><time>2026-04-04T10:54:33.105Z</time></trkpt><trkpt lat="44.57244" lon="8.7905933"><ele>499.0</ele><time>2026-04-04T10:54:34.103Z</time></trkpt><trkpt lat="44.5724383" lon="8.7907583"><ele>500.0</ele><time>2026-04-04T10:54:35.102Z</time></trkpt><trkpt lat="44.57243" lon="8.79092"><ele>501.0</ele><time>2026-04-04T10:54:36.1Z</time></trkpt><trkpt lat="44.57241" lon="8.7910617"><ele>502.0</ele><time>2026-04-04T10:54:37.1Z</time></trkpt><trkpt lat="44.5723933" lon="8.7911983"><ele>503.0</ele><time>2026-04-04T10:54:38.104Z</time></trkpt><trkpt lat="44.5723617" lon="8.79133"><ele>504.0</ele><time>2026-04-04T10:54:39.103Z</time></trkpt><trkpt lat="44.5723433" lon="8.7914633"><ele>505.0</ele><time>2026-04-04T10:54:40.104Z</time></trkpt><trkpt lat="44.5723283" lon="8.79158"><ele>506.0</ele><time>2026-04-04T10:54:41.107Z</time></trkpt><trkpt lat="44.5723233" lon="8.7916917"><ele>506.0</ele><time>2026-04-04T10:54:42.099Z</time></trkpt><trkpt lat="44.5723233" lon="8.7918083"><ele>506.0</ele><time>2026-04-04T10:54:43.103Z</time></trkpt><trkpt lat="44.5723067" lon="8.7919233"><ele>506.0</ele><time>2026-04-04T10:54:44.099Z</time></trkpt><trkpt lat="44.57231" lon="8.79205"><ele>506.0</ele><time>2026-04-04T10:54:45.099Z</time></trkpt><trkpt lat="44.57231" lon="8.79219"><ele>506.0</ele><time>2026-04-04T10:54:46.098Z</time></trkpt><trkpt lat="44.5723117" lon="8.7923217"><ele>505.8333333333333</ele><time>2026-04-04T10:54:47.101Z</time></trkpt><trkpt lat="44.5723083" lon="8.7924433"><ele>505.66666666666663</ele><time>2026-04-04T10:54:48.102Z</time></trkpt><trkpt lat="44.5722933" lon="8.7925367"><ele>505.5</ele><time>2026-04-04T10:54:49.1Z</time></trkpt><trkpt lat="44.57228" lon="8.792635"><ele>505.33333333333337</ele><time>2026-04-04T10:54:50.098Z</time></trkpt><trkpt lat="44.5722483" lon="8.792725"><ele>505.1666666666667</ele><time>2026-04-04T10:54:51.102Z</time></trkpt><trkpt lat="44.57216" lon="8.7926267"><ele>505.0</ele><time>2026-04-04T10:54:52.101Z</time></trkpt><trkpt lat="44.5720583" lon="8.7925517"><ele>505.00000000000006</ele><time>2026-04-04T10:54:54.097Z</time></trkpt><trkpt lat="44.5720283" lon="8.7924717"><ele>505.0</ele><time>2026-04-04T10:54:55.101Z</time></trkpt><trkpt lat="44.5720133" lon="8.7923767"><ele>505.0</ele><time>2026-04-04T10:54:56.105Z</time></trkpt><trkpt lat="44.572" lon="8.7922583"><ele>505.0</ele><time>2026-04-04T10:54:57.104Z</time></trkpt><trkpt lat="44.5719767" lon="8.792125"><ele>505.00000000000006</ele><time>2026-04-04T10:54:58.103Z</time></trkpt><trkpt lat="44.571945" lon="8.7919783"><ele>505.0</ele><time>2026-04-04T10:54:59.102Z</time></trkpt><trkpt lat="44.5719033" lon="8.7918417"><ele>511.2</ele><time>2026-04-04T10:55:00.101Z</time></trkpt><trkpt lat="44.5718633" lon="8.7917133"><ele>517.4</ele><time>2026-04-04T10:55:01.101Z</time></trkpt><trkpt lat="44.5718333" lon="8.7915733"><ele>523.6</ele><time>2026-04-04T10:55:02.107Z</time></trkpt><trkpt lat="44.5718233" lon="8.7914233"><ele>529.8</ele><time>2026-04-04T10:55:03.101Z</time></trkpt><trkpt lat="44.5718183" lon="8.79128"><ele>536.0</ele><time>2026-04-04T10:55:04.102Z</time></trkpt><trkpt lat="44.5718083" lon="8.7911733"><ele>536.0</ele><time>2026-04-04T10:55:05.103Z</time></trkpt><trkpt lat="44.571795" lon="8.7910867"><ele>536.0</ele><time>2026-04-04T10:55:06.098Z</time></trkpt><trkpt lat="44.5717533" lon="8.7909483"><ele>536.0</ele><time>2026-04-04T10:55:08.1Z</time></trkpt><trkpt lat="44.57169" lon="8.7909083"><ele>536.0</ele><time>2026-04-04T10:55:10.101Z</time></trkpt><trkpt lat="44.571645" lon="8.7910283"><ele>536.0</ele><time>2026-04-04T10:55:12.099Z</time></trkpt><trkpt lat="44.5716183" lon="8.7911817"><ele>536.0</ele><time>2026-04-04T10:55:14.101Z</time></trkpt><trkpt lat="44.5716267" lon="8.791345"><ele>536.0</ele><time>2026-04-04T10:55:15.101Z</time></trkpt><trkpt lat="44.571625" lon="8.7915017"><ele>536.0</ele><time>2026-04-04T10:55:16.105Z</time></trkpt><trkpt lat="44.571625" lon="8.791675"><ele>536.0</ele><time>2026-04-04T10:55:17.105Z</time></trkpt><trkpt lat="44.5715883" lon="8.79199"><ele>536.0</ele><time>2026-04-04T10:55:18.105Z</time></trkpt><trkpt lat="44.571575" lon="8.79215"><ele>536.0</ele><time>2026-04-04T10:55:19.102Z</time></trkpt><trkpt lat="44.5715667" lon="8.792335"><ele>536.0</ele><time>2026-04-04T10:55:20.103Z</time></trkpt><trkpt lat="44.5715583" lon="8.792485"><ele>536.0</ele><time>2026-04-04T10:55:21.102Z</time></trkpt><trkpt lat="44.5715533" lon="8.7926383"><ele>534.2</ele><time>2026-04-04T10:55:22.101Z</time></trkpt><trkpt lat="44.5715467" lon="8.7928067"><ele>532.4000000000001</ele><time>2026-04-04T10:55:23.102Z</time></trkpt><trkpt lat="44.5715467" lon="8.7929567"><ele>530.6</ele><time>2026-04-04T10:55:24.104Z</time></trkpt><trkpt lat="44.5715417" lon="8.7930933"><ele>528.8000000000001</ele><time>2026-04-04T10:55:25.105Z</time></trkpt><trkpt lat="44.57153" lon="8.7932183"><ele>527.0</ele><time>2026-04-04T10:55:26.101Z</time></trkpt><trkpt lat="44.5715133" lon="8.7933233"><ele>527.0</ele><time>2026-04-04T10:55:27.101Z</time></trkpt><trkpt lat="44.5714267" lon="8.7934267"><ele>527.0</ele><time>2026-04-04T10:55:29.105Z</time></trkpt><trkpt lat="44.5713467" lon="8.79341"><ele>527.0</ele><time>2026-04-04T10:55:30.099Z</time></trkpt><trkpt lat="44.5712667" lon="8.7933567"><ele>527.0</ele><time>2026-04-04T10:55:31.099Z</time></trkpt><trkpt lat="44.5711717" lon="8.7932883"><ele>527.0</ele><time>2026-04-04T10:55:32.098Z</time></trkpt><trkpt lat="44.5710733" lon="8.79324"><ele>532.0</ele><time>2026-04-04T10:55:33.101Z</time></trkpt><trkpt lat="44.57098" lon="8.79321"><ele>537.0</ele><time>2026-04-04T10:55:34.101Z</time></trkpt><trkpt lat="44.57088" lon="8.793205"><ele>542.0</ele><time>2026-04-04T10:55:35.103Z</time></trkpt><trkpt lat="44.5707767" lon="8.7932317"><ele>547.0</ele><time>2026-04-04T10:55:36.101Z</time></trkpt><trkpt lat="44.5706833" lon="8.7932783"><ele>552.0</ele><time>2026-04-04T10:55:37.102Z</time></trkpt><trkpt lat="44.5705917" lon="8.7933167"><ele>552.0</ele><time>2026-04-04T10:55:38.102Z</time></trkpt><trkpt lat="44.5705067" lon="8.7933233"><ele>552.0</ele><time>2026-04-04T10:55:39.099Z</time></trkpt><trkpt lat="44.57042" lon="8.7933267"><ele>552.0</ele><time>2026-04-04T10:55:40.104Z</time></trkpt><trkpt lat="44.570345" lon="8.7933417"><ele>552.0</ele><time>2026-04-04T10:55:41.101Z</time></trkpt><trkpt lat="44.5702567" lon="8.79342"><ele>552.0</ele><time>2026-04-04T10:55:43.106Z</time></trkpt><trkpt lat="44.5702483" lon="8.7935667"><ele>554.0</ele><time>2026-04-04T10:55:45.1Z</time></trkpt><trkpt lat="44.5702683" lon="8.793655"><ele>556.0</ele><time>2026-04-04T10:55:46.101Z</time></trkpt><trkpt lat="44.57028" lon="8.7937517"><ele>558.0</ele><time>2026-04-04T10:55:47.104Z</time></trkpt><trkpt lat="44.5702867" lon="8.7938533"><ele>560.0</ele><time>2026-04-04T10:55:48.104Z</time></trkpt><trkpt lat="44.5702883" lon="8.7939567"><ele>562.0</ele><time>2026-04-04T10:55:49.107Z</time></trkpt><trkpt lat="44.5702733" lon="8.7940583"><ele>564.0</ele><time>2026-04-04T10:55:50.102Z</time></trkpt><trkpt lat="44.5702433" lon="8.7941567"><ele>566.0</ele><time>2026-04-04T10:55:51.097Z</time></trkpt><trkpt lat="44.5702" lon="8.79425"><ele>566.0</ele><time>2026-04-04T10:55:52.104Z</time></trkpt><trkpt lat="44.57006" lon="8.7943017"><ele>566.0</ele><time>2026-04-04T10:55:53.1Z</time></trkpt><trkpt lat="44.5699517" lon="8.7943667"><ele>566.0</ele><time>2026-04-04T10:55:54.1Z</time></trkpt><trkpt lat="44.5698617" lon="8.7944317"><ele>566.0</ele><time>2026-04-04T10:55:55.1Z</time></trkpt><trkpt lat="44.5697767" lon="8.7944933"><ele>566.6</ele><time>2026-04-04T10:55:56.099Z</time></trkpt><trkpt lat="44.5696933" lon="8.794545"><ele>567.2</ele><time>2026-04-04T10:55:57.1Z</time></trkpt><trkpt lat="44.5696033" lon="8.7945833"><ele>567.8</ele><time>2026-04-04T10:55:58.101Z</time></trkpt><trkpt lat="44.569505" lon="8.79461"><ele>568.4</ele><time>2026-04-04T10:55:59.103Z</time></trkpt><trkpt lat="44.56939" lon="8.7945733"><ele>569.0</ele><time>2026-04-04T10:56:00.102Z</time></trkpt><trkpt lat="44.5692833" lon="8.7945633"><ele>569.0</ele><time>2026-04-04T10:56:01.105Z</time></trkpt><trkpt lat="44.5691783" lon="8.7945667"><ele>569.0</ele><time>2026-04-04T10:56:02.102Z</time></trkpt><trkpt lat="44.56906" lon="8.7945933"><ele>569.0</ele><time>2026-04-04T10:56:03.102Z</time></trkpt><trkpt lat="44.5689483" lon="8.7946483"><ele>569.0</ele><time>2026-04-04T10:56:04.1Z</time></trkpt><trkpt lat="44.5688283" lon="8.794715"><ele>569.0</ele><time>2026-04-04T10:56:05.103Z</time></trkpt><trkpt lat="44.56872" lon="8.7947917"><ele>569.0</ele><time>2026-04-04T10:56:06.105Z</time></trkpt><trkpt lat="44.5686017" lon="8.7948367"><ele>569.0</ele><time>2026-04-04T10:56:07.108Z</time></trkpt><trkpt lat="44.5684717" lon="8.7948683"><ele>569.0</ele><time>2026-04-04T10:56:08.107Z</time></trkpt><trkpt lat="44.5683517" lon="8.79491"><ele>568.75</ele><time>2026-04-04T10:56:09.099Z</time></trkpt><trkpt lat="44.568225" lon="8.79496"><ele>568.5</ele><time>2026-04-04T10:56:10.103Z</time></trkpt><trkpt lat="44.5681217" lon="8.7950433"><ele>568.25</ele><time>2026-04-04T10:56:11.108Z</time></trkpt><trkpt lat="44.56803" lon="8.7951383"><ele>568.0</ele><time>2026-04-04T10:56:12.113Z</time></trkpt><trkpt lat="44.5679433" lon="8.7952283"><ele>568.0</ele><time>2026-04-04T10:56:13.101Z</time></trkpt><trkpt lat="44.5678633" lon="8.795295"><ele>568.0</ele><time>2026-04-04T10:56:14.1Z</time></trkpt><trkpt lat="44.5677617" lon="8.7953067"><ele>568.0</ele><time>2026-04-04T10:56:15.099Z</time></trkpt><trkpt lat="44.5676683" lon="8.7952767"><ele>568.0</ele><time>2026-04-04T10:56:16.101Z</time></trkpt><trkpt lat="44.5675833" lon="8.7952133"><ele>568.0</ele><time>2026-04-04T10:56:17.099Z</time></trkpt><trkpt lat="44.5675117" lon="8.7951233"><ele>574.5</ele><time>2026-04-04T10:56:18.1Z</time></trkpt><trkpt lat="44.5674667" lon="8.7950117"><ele>581.0</ele><time>2026-04-04T10:56:19.099Z</time></trkpt><trkpt lat="44.5674733" lon="8.7948517"><ele>587.5</ele><time>2026-04-04T10:56:20.099Z</time></trkpt><trkpt lat="44.5674883" lon="8.7946717"><ele>594.0</ele><time>2026-04-04T10:56:21.102Z</time></trkpt><trkpt lat="44.56752" lon="8.79448"><ele>597.75</ele><time>2026-04-04T10:56:22.101Z</time></trkpt><trkpt lat="44.56756" lon="8.7943033"><ele>601.5</ele><time>2026-04-04T10:56:23.1Z</time></trkpt><trkpt lat="44.567615" lon="8.79416"><ele>605.25</ele><time>2026-04-04T10:56:24.101Z</time></trkpt><trkpt lat="44.5676817" lon="8.7940483"><ele>609.0</ele><time>2026-04-04T10:56:25.103Z</time></trkpt><trkpt lat="44.5677717" lon="8.7939633"><ele>607.75</ele><time>2026-04-04T10:56:26.101Z</time></trkpt><trkpt lat="44.5678917" lon="8.7939033"><ele>606.5</ele><time>2026-04-04T10:56:27.104Z</time></trkpt><trkpt lat="44.5680067" lon="8.793815"><ele>605.25</ele><time>2026-04-04T10:56:28.109Z</time></trkpt><trkpt lat="44.5681083" lon="8.7936983"><ele>604.0</ele><time>2026-04-04T10:56:29.104Z</time></trkpt><trkpt lat="44.56822" lon="8.7935717"><ele>608.0</ele><time>2026-04-04T10:56:30.103Z</time></trkpt><trkpt lat="44.56834" lon="8.793455"><ele>612.0</ele><time>2026-04-04T10:56:31.105Z</time></trkpt><trkpt lat="44.5684567" lon="8.793345"><ele>616.0</ele><time>2026-04-04T10:56:32.098Z</time></trkpt><trkpt lat="44.5685667" lon="8.7932617"><ele>620.0</ele><time>2026-04-04T10:56:33.099Z</time></trkpt><trkpt lat="44.5686633" lon="8.7932033"><ele>620.0</ele><time>2026-04-04T10:56:34.1Z</time></trkpt><trkpt lat="44.568735" lon="8.7931583"><ele>620.0</ele><time>2026-04-04T10:56:35.102Z</time></trkpt><trkpt lat="44.568795" lon="8.793115"><ele>620.0</ele><time>2026-04-04T10:56:36.104Z</time></trkpt><trkpt lat="44.5687967" lon="8.7929983"><ele>620.0</ele><time>2026-04-04T10:56:38.099Z</time></trkpt><trkpt lat="44.568685" lon="8.792995"><ele>620.0</ele><time>2026-04-04T10:56:40.099Z</time></trkpt><trkpt lat="44.568615" lon="8.7930017"><ele>620.0</ele><time>2026-04-04T10:56:41.101Z</time></trkpt><trkpt lat="44.568535" lon="8.7930133"><ele>620.0</ele><time>2026-04-04T10:56:42.101Z</time></trkpt><trkpt lat="44.5684433" lon="8.7930317"><ele>620.0</ele><time>2026-04-04T10:56:43.101Z</time></trkpt><trkpt lat="44.568345" lon="8.793035"><ele>620.0</ele><time>2026-04-04T10:56:44.099Z</time></trkpt><trkpt lat="44.5682467" lon="8.7930267"><ele>620.0</ele><time>2026-04-04T10:56:45.1Z</time></trkpt><trkpt lat="44.5681333" lon="8.79299"><ele>620.0</ele><time>2026-04-04T10:56:46.104Z</time></trkpt><trkpt lat="44.5680217" lon="8.7929467"><ele>620.0</ele><time>2026-04-04T10:56:47.101Z</time></trkpt><trkpt lat="44.5679067" lon="8.792895"><ele>620.0</ele><time>2026-04-04T10:56:48.101Z</time></trkpt><trkpt lat="44.5677817" lon="8.79285"><ele>620.0</ele><time>2026-04-04T10:56:49.101Z</time></trkpt><trkpt lat="44.567655" lon="8.79281"><ele>620.0</ele><time>2026-04-04T10:56:50.106Z</time></trkpt><trkpt lat="44.5675267" lon="8.7927817"><ele>621.5</ele><time>2026-04-04T10:56:51.103Z</time></trkpt><trkpt lat="44.5674" lon="8.7927767"><ele>623.0</ele><time>2026-04-04T10:56:52.104Z</time></trkpt><trkpt lat="44.5672633" lon="8.792795"><ele>624.5</ele><time>2026-04-04T10:56:53.105Z</time></trkpt><trkpt lat="44.56713" lon="8.7928117"><ele>626.0</ele><time>2026-04-04T10:56:54.105Z</time></trkpt><trkpt lat="44.5670067" lon="8.7928133"><ele>626.0</ele><time>2026-04-04T10:56:55.108Z</time></trkpt><trkpt lat="44.566885" lon="8.79281"><ele>626.0</ele><time>2026-04-04T10:56:56.103Z</time></trkpt><trkpt lat="44.5667683" lon="8.7927917"><ele>626.0</ele><time>2026-04-04T10:56:57.106Z</time></trkpt><trkpt lat="44.5666517" lon="8.792765"><ele>626.0</ele><time>2026-04-04T10:56:58.108Z</time></trkpt><trkpt lat="44.5665383" lon="8.7927183"><ele>630.75</ele><time>2026-04-04T10:56:59.106Z</time></trkpt><trkpt lat="44.5664267" lon="8.79266"><ele>635.5</ele><time>2026-04-04T10:57:00.099Z</time></trkpt><trkpt lat="44.5663117" lon="8.7926067"><ele>640.25</ele><time>2026-04-04T10:57:01.099Z</time></trkpt><trkpt lat="44.566205" lon="8.79256"><ele>645.0</ele><time>2026-04-04T10:57:02.101Z</time></trkpt><trkpt lat="44.566095" lon="8.7925167"><ele>645.0</ele><time>2026-04-04T10:57:03.1Z</time></trkpt><trkpt lat="44.565985" lon="8.79245"><ele>645.0</ele><time>2026-04-04T10:57:04.1Z</time></trkpt><trkpt lat="44.56589" lon="8.792365"><ele>645.0</ele><time>2026-04-04T10:57:05.101Z</time></trkpt><trkpt lat="44.5658067" lon="8.7922617"><ele>645.0</ele><time>2026-04-04T10:57:06.099Z</time></trkpt><trkpt lat="44.5657433" lon="8.7921567"><ele>645.0</ele><time>2026-04-04T10:57:07.101Z</time></trkpt><trkpt lat="44.5657033" lon="8.792035"><ele>645.0</ele><time>2026-04-04T10:57:08.103Z</time></trkpt><trkpt lat="44.5656783" lon="8.791905"><ele>645.0</ele><time>2026-04-04T10:57:09.102Z</time></trkpt><trkpt lat="44.5656767" lon="8.7917467"><ele>645.0</ele><time>2026-04-04T10:57:10.103Z</time></trkpt><trkpt lat="44.5657217" lon="8.7915467"><ele>645.0</ele><time>2026-04-04T10:57:11.104Z</time></trkpt><trkpt lat="44.565735" lon="8.7913683"><ele>646.8</ele><time>2026-04-04T10:57:12.108Z</time></trkpt><trkpt lat="44.565725" lon="8.7911983"><ele>648.6</ele><time>2026-04-04T10:57:13.107Z</time></trkpt><trkpt lat="44.565695" lon="8.7910333"><ele>650.4000000000001</ele><time>2026-04-04T10:57:14.105Z</time></trkpt><trkpt lat="44.5656667" lon="8.7908933"><ele>652.2</ele><time>2026-04-04T10:57:15.103Z</time></trkpt><trkpt lat="44.5656517" lon="8.79078"><ele>654.0</ele><time>2026-04-04T10:57:16.109Z</time></trkpt><trkpt lat="44.5656617" lon="8.7906683"><ele>654.6</ele><time>2026-04-04T10:57:17.107Z</time></trkpt><trkpt lat="44.5656717" lon="8.79056"><ele>655.2</ele><time>2026-04-04T10:57:18.105Z</time></trkpt><trkpt lat="44.5657283" lon="8.790465"><ele>655.8000000000001</ele><time>2026-04-04T10:57:19.112Z</time></trkpt><trkpt lat="44.5657967" lon="8.79038"><ele>656.4000000000001</ele><time>2026-04-04T10:57:20.107Z</time></trkpt><trkpt lat="44.5658717" lon="8.7902717"><ele>657.0</ele><time>2026-04-04T10:57:21.098Z</time></trkpt><trkpt lat="44.5659767" lon="8.790135"><ele>657.0</ele><time>2026-04-04T10:57:22.102Z</time></trkpt><trkpt lat="44.56606" lon="8.7899983"><ele>657.0</ele><time>2026-04-04T10:57:23.103Z</time></trkpt><trkpt lat="44.566145" lon="8.7898617"><ele>657.0</ele><time>2026-04-04T10:57:24.105Z</time></trkpt><trkpt lat="44.5662183" lon="8.789725"><ele>657.0</ele><time>2026-04-04T10:57:25.104Z</time></trkpt><trkpt lat="44.566295" lon="8.7895933"><ele>659.2</ele><time>2026-04-04T10:57:26.101Z</time></trkpt><trkpt lat="44.5663683" lon="8.7894733"><ele>661.4000000000001</ele><time>2026-04-04T10:57:27.101Z</time></trkpt><trkpt lat="44.5664333" lon="8.7893533"><ele>663.5999999999999</ele><time>2026-04-04T10:57:28.101Z</time></trkpt><trkpt lat="44.56649" lon="8.7892367"><ele>665.8</ele><time>2026-04-04T10:57:29.102Z</time></trkpt><trkpt lat="44.56654" lon="8.78912"><ele>668.0</ele><time>2026-04-04T10:57:30.102Z</time></trkpt><trkpt lat="44.5665733" lon="8.789005"><ele>668.0</ele><time>2026-04-04T10:57:31.104Z</time></trkpt><trkpt lat="44.566595" lon="8.788885"><ele>668.0</ele><time>2026-04-04T10:57:32.103Z</time></trkpt><trkpt lat="44.5666033" lon="8.788765"><ele>668.0</ele><time>2026-04-04T10:57:33.104Z</time></trkpt><trkpt lat="44.566605" lon="8.7886433"><ele>668.0</ele><time>2026-04-04T10:57:34.101Z</time></trkpt><trkpt lat="44.56661" lon="8.7885167"><ele>668.0</ele><time>2026-04-04T10:57:35.108Z</time></trkpt><trkpt lat="44.5666133" lon="8.7883883"><ele>668.0</ele><time>2026-04-04T10:57:36.101Z</time></trkpt><trkpt lat="44.56662" lon="8.7882683"><ele>667.5</ele><time>2026-04-04T10:57:37.107Z</time></trkpt><trkpt lat="44.5666167" lon="8.7881567"><ele>667.0</ele><time>2026-04-04T10:57:38.11Z</time></trkpt><trkpt lat="44.5666033" lon="8.78805"><ele>666.5</ele><time>2026-04-04T10:57:39.108Z</time></trkpt><trkpt lat="44.5665683" lon="8.78796"><ele>666.0</ele><time>2026-04-04T10:57:40.108Z</time></trkpt><trkpt lat="44.5665233" lon="8.787875"><ele>665.5</ele><time>2026-04-04T10:57:41.105Z</time></trkpt><trkpt lat="44.5664567" lon="8.7877883"><ele>665.0</ele><time>2026-04-04T10:57:42.104Z</time></trkpt><trkpt lat="44.5663933" lon="8.7876867"><ele>664.4</ele><time>2026-04-04T10:57:43.11Z</time></trkpt><trkpt lat="44.566335" lon="8.787575"><ele>663.8</ele><time>2026-04-04T10:57:44.106Z</time></trkpt><trkpt lat="44.5662817" lon="8.7874467"><ele>663.2</ele><time>2026-04-04T10:57:45.102Z</time></trkpt><trkpt lat="44.566235" lon="8.7873267"><ele>662.6</ele><time>2026-04-04T10:57:46.101Z</time></trkpt><trkpt lat="44.56619" lon="8.7872217"><ele>662.0</ele><time>2026-04-04T10:57:47.103Z</time></trkpt><trkpt lat="44.5661583" lon="8.787125"><ele>662.0</ele><time>2026-04-04T10:57:48.105Z</time></trkpt><trkpt lat="44.56614" lon="8.7870267"><ele>662.0</ele><time>2026-04-04T10:57:49.108Z</time></trkpt><trkpt lat="44.56617" lon="8.7868417"><ele>662.0</ele><time>2026-04-04T10:57:51.103Z</time></trkpt><trkpt lat="44.56618" lon="8.7867433"><ele>662.0</ele><time>2026-04-04T10:57:52.1Z</time></trkpt><trkpt lat="44.56618" lon="8.7866367"><ele>662.0</ele><time>2026-04-04T10:57:53.104Z</time></trkpt><trkpt lat="44.5661633" lon="8.786535"><ele>662.0</ele><time>2026-04-04T10:57:54.1Z</time></trkpt><trkpt lat="44.5661183" lon="8.78644"><ele>660.8</ele><time>2026-04-04T10:57:55.104Z</time></trkpt><trkpt lat="44.56608" lon="8.7863217"><ele>659.6</ele><time>2026-04-04T10:57:56.103Z</time></trkpt><trkpt lat="44.56605" lon="8.7862033"><ele>658.4</ele><time>2026-04-04T10:57:57.102Z</time></trkpt><trkpt lat="44.566005" lon="8.7860783"><ele>657.1999999999999</ele><time>2026-04-04T10:57:58.103Z</time></trkpt><trkpt lat="44.5659583" lon="8.7859617"><ele>656.0</ele><time>2026-04-04T10:57:59.108Z</time></trkpt><trkpt lat="44.5658983" lon="8.78586"><ele>654.8</ele><time>2026-04-04T10:58:00.105Z</time></trkpt><trkpt lat="44.5658233" lon="8.785755"><ele>653.5999999999999</ele><time>2026-04-04T10:58:01.105Z</time></trkpt><trkpt lat="44.56576" lon="8.785645"><ele>652.4</ele><time>2026-04-04T10:58:02.102Z</time></trkpt><trkpt lat="44.5657" lon="8.7855383"><ele>651.2</ele><time>2026-04-04T10:58:03.101Z</time></trkpt><trkpt lat="44.5656467" lon="8.7854233"><ele>650.0</ele><time>2026-04-04T10:58:04.101Z</time></trkpt><trkpt lat="44.5656167" lon="8.7852983"><ele>649.75</ele><time>2026-04-04T10:58:05.103Z</time></trkpt><trkpt lat="44.5656017" lon="8.785165"><ele>649.5</ele><time>2026-04-04T10:58:06.104Z</time></trkpt><trkpt lat="44.5656083" lon="8.7850067"><ele>649.25</ele><time>2026-04-04T10:58:07.105Z</time></trkpt><trkpt lat="44.5656133" lon="8.7848317"><ele>649.0</ele><time>2026-04-04T10:58:08.101Z</time></trkpt><trkpt lat="44.5656" lon="8.7846283"><ele>649.0</ele><time>2026-04-04T10:58:09.1Z</time></trkpt><trkpt lat="44.56557" lon="8.7844217"><ele>649.0</ele><time>2026-04-04T10:58:10.103Z</time></trkpt><trkpt lat="44.56554" lon="8.7842133"><ele>649.0</ele><time>2026-04-04T10:58:11.103Z</time></trkpt><trkpt lat="44.56551" lon="8.7840167"><ele>649.0</ele><time>2026-04-04T10:58:12.1Z</time></trkpt><trkpt lat="44.56549" lon="8.7838383"><ele>650.1666666666667</ele><time>2026-04-04T10:58:13.101Z</time></trkpt><trkpt lat="44.5654833" lon="8.7836933"><ele>651.3333333333334</ele><time>2026-04-04T10:58:14.102Z</time></trkpt><trkpt lat="44.565485" lon="8.78358"><ele>652.5</ele><time>2026-04-04T10:58:15.101Z</time></trkpt><trkpt lat="44.56549" lon="8.78347"><ele>653.6666666666666</ele><time>2026-04-04T10:58:16.102Z</time></trkpt><trkpt lat="44.565505" lon="8.783365"><ele>654.8333333333333</ele><time>2026-04-04T10:58:17.102Z</time></trkpt><trkpt lat="44.565535" lon="8.7832617"><ele>656.0</ele><time>2026-04-04T10:58:18.103Z</time></trkpt><trkpt lat="44.56559" lon="8.7831667"><ele>657.3333333333333</ele><time>2026-04-04T10:58:19.103Z</time></trkpt><trkpt lat="44.5656533" lon="8.78307"><ele>658.6666666666666</ele><time>2026-04-04T10:58:20.104Z</time></trkpt><trkpt lat="44.5657033" lon="8.7829717"><ele>660.0</ele><time>2026-04-04T10:58:21.102Z</time></trkpt><trkpt lat="44.5657417" lon="8.7828533"><ele>661.3333333333334</ele><time>2026-04-04T10:58:22.104Z</time></trkpt><trkpt lat="44.5657367" lon="8.7827567"><ele>662.6666666666667</ele><time>2026-04-04T10:58:23.107Z</time></trkpt><trkpt lat="44.5657167" lon="8.782665"><ele>664.0</ele><time>2026-04-04T10:58:24.101Z</time></trkpt><trkpt lat="44.5656817" lon="8.782575"><ele>665.4000000000001</ele><time>2026-04-04T10:58:25.099Z</time></trkpt><trkpt lat="44.56562" lon="8.7824967"><ele>666.8</ele><time>2026-04-04T10:58:26.101Z</time></trkpt><trkpt lat="44.56555" lon="8.7823983"><ele>668.2</ele><time>2026-04-04T10:58:27.1Z</time></trkpt><trkpt lat="44.5654933" lon="8.782285"><ele>669.5999999999999</ele><time>2026-04-04T10:58:28.105Z</time></trkpt><trkpt lat="44.5654333" lon="8.782165"><ele>671.0</ele><time>2026-04-04T10:58:29.098Z</time></trkpt><trkpt lat="44.56538" lon="8.7820383"><ele>671.1999999999999</ele><time>2026-04-04T10:58:30.102Z</time></trkpt><trkpt lat="44.565335" lon="8.7819"><ele>671.4</ele><time>2026-04-04T10:58:31.104Z</time></trkpt><trkpt lat="44.56529" lon="8.78177"><ele>671.6</ele><time>2026-04-04T10:58:32.098Z</time></trkpt><trkpt lat="44.5652583" lon="8.781635"><ele>671.8</ele><time>2026-04-04T10:58:33.101Z</time></trkpt><trkpt lat="44.5652317" lon="8.7815067"><ele>672.0</ele><time>2026-04-04T10:58:34.099Z</time></trkpt><trkpt lat="44.5652133" lon="8.7813833"><ele>672.0</ele><time>2026-04-04T10:58:35.1Z</time></trkpt><trkpt lat="44.5652067" lon="8.7812633"><ele>672.0</ele><time>2026-04-04T10:58:36.097Z</time></trkpt><trkpt lat="44.5652167" lon="8.7811367"><ele>672.0</ele><time>2026-04-04T10:58:37.102Z</time></trkpt><trkpt lat="44.5652417" lon="8.7810133"><ele>672.0</ele><time>2026-04-04T10:58:38.11Z</time></trkpt><trkpt lat="44.5652917" lon="8.7808833"><ele>672.0</ele><time>2026-04-04T10:58:39.104Z</time></trkpt><trkpt lat="44.565365" lon="8.7807233"><ele>675.25</ele><time>2026-04-04T10:58:40.105Z</time></trkpt><trkpt lat="44.5654233" lon="8.78056"><ele>678.5</ele><time>2026-04-04T10:58:41.106Z</time></trkpt><trkpt lat="44.5654833" lon="8.7803883"><ele>681.75</ele><time>2026-04-04T10:58:42.106Z</time></trkpt><trkpt lat="44.5655417" lon="8.78021"><ele>685.0</ele><time>2026-04-04T10:58:43.102Z</time></trkpt><trkpt lat="44.5656017" lon="8.780035"><ele>686.25</ele><time>2026-04-04T10:58:44.103Z</time></trkpt><trkpt lat="44.56566" lon="8.779865"><ele>687.5</ele><time>2026-04-04T10:58:45.105Z</time></trkpt><trkpt lat="44.5657167" lon="8.7796983"><ele>688.75</ele><time>2026-04-04T10:58:46.1Z</time></trkpt><trkpt lat="44.565765" lon="8.7795433"><ele>690.0</ele><time>2026-04-04T10:58:47.107Z</time></trkpt><trkpt lat="44.56583" lon="8.7794"><ele>689.75</ele><time>2026-04-04T10:58:48.106Z</time></trkpt><trkpt lat="44.5658933" lon="8.779275"><ele>689.5</ele><time>2026-04-04T10:58:49.1Z</time></trkpt><trkpt lat="44.565955" lon="8.7791467"><ele>689.25</ele><time>2026-04-04T10:58:50.103Z</time></trkpt><trkpt lat="44.566025" lon="8.77901"><ele>689.0</ele><time>2026-04-04T10:58:51.107Z</time></trkpt><trkpt lat="44.5660833" lon="8.778865"><ele>689.0</ele><time>2026-04-04T10:58:52.101Z</time></trkpt><trkpt lat="44.56613" lon="8.7787"><ele>689.0</ele><time>2026-04-04T10:58:53.102Z</time></trkpt><trkpt lat="44.5661617" lon="8.77852"><ele>689.0</ele><time>2026-04-04T10:58:54.1Z</time></trkpt><trkpt lat="44.566185" lon="8.7783383"><ele>689.0</ele><time>2026-04-04T10:58:55.101Z</time></trkpt><trkpt lat="44.5661967" lon="8.7781683"><ele>689.0</ele><time>2026-04-04T10:58:56.099Z</time></trkpt><trkpt lat="44.5661983" lon="8.7780183"><ele>689.0</ele><time>2026-04-04T10:58:57.099Z</time></trkpt><trkpt lat="44.56619" lon="8.77789"><ele>689.0</ele><time>2026-04-04T10:58:58.101Z</time></trkpt><trkpt lat="44.5661767" lon="8.777785"><ele>689.0</ele><time>2026-04-04T10:58:59.098Z</time></trkpt><trkpt lat="44.5661583" lon="8.7776983"><ele>689.0</ele><time>2026-04-04T10:59:00.102Z</time></trkpt><trkpt lat="44.5660717" lon="8.7776617"><ele>689.0</ele><time>2026-04-04T10:59:02.102Z</time></trkpt><trkpt lat="44.5659767" lon="8.7777417"><ele>689.0</ele><time>2026-04-04T10:59:04.102Z</time></trkpt><trkpt lat="44.5659317" lon="8.777805"><ele>689.0</ele><time>2026-04-04T10:59:05.101Z</time></trkpt><trkpt lat="44.5658817" lon="8.7778783"><ele>689.0</ele><time>2026-04-04T10:59:06.104Z</time></trkpt><trkpt lat="44.5658283" lon="8.7779533"><ele>689.0</ele><time>2026-04-04T10:59:07.103Z</time></trkpt><trkpt lat="44.565775" lon="8.778035"><ele>689.0</ele><time>2026-04-04T10:59:08.101Z</time></trkpt><trkpt lat="44.5657117" lon="8.7781233"><ele>689.0</ele><time>2026-04-04T10:59:09.1Z</time></trkpt><trkpt lat="44.565645" lon="8.7782033"><ele>689.0</ele><time>2026-04-04T10:59:10.108Z</time></trkpt><trkpt lat="44.5655833" lon="8.778285"><ele>689.0</ele><time>2026-04-04T10:59:11.101Z</time></trkpt><trkpt lat="44.5655167" lon="8.7783583"><ele>689.0</ele><time>2026-04-04T10:59:12.101Z</time></trkpt><trkpt lat="44.56545" lon="8.7784117"><ele>689.0</ele><time>2026-04-04T10:59:13.109Z</time></trkpt><trkpt lat="44.5653633" lon="8.77844"><ele>689.0</ele><time>2026-04-04T10:59:14.097Z</time></trkpt><trkpt lat="44.5652667" lon="8.778445"><ele>689.0</ele><time>2026-04-04T10:59:15.101Z</time></trkpt><trkpt lat="44.565175" lon="8.7784617"><ele>688.8333333333333</ele><time>2026-04-04T10:59:16.097Z</time></trkpt><trkpt lat="44.565085" lon="8.7784783"><ele>688.6666666666666</ele><time>2026-04-04T10:59:17.1Z</time></trkpt><trkpt lat="44.5649883" lon="8.77845"><ele>688.5</ele><time>2026-04-04T10:59:18.099Z</time></trkpt><trkpt lat="44.5649133" lon="8.7784417"><ele>688.3333333333334</ele><time>2026-04-04T10:59:19.098Z</time></trkpt><trkpt lat="44.5648383" lon="8.7784067"><ele>688.1666666666667</ele><time>2026-04-04T10:59:20.1Z</time></trkpt><trkpt lat="44.564775" lon="8.7783583"><ele>688.0</ele><time>2026-04-04T10:59:21.103Z</time></trkpt><trkpt lat="44.5646917" lon="8.7782333"><ele>688.0000000000001</ele><time>2026-04-04T10:59:23.102Z</time></trkpt><trkpt lat="44.5646633" lon="8.7781517"><ele>688.0</ele><time>2026-04-04T10:59:24.101Z</time></trkpt><trkpt lat="44.5646383" lon="8.7780567"><ele>688.0</ele><time>2026-04-04T10:59:25.102Z</time></trkpt><trkpt lat="44.5646183" lon="8.777955"><ele>688.0</ele><time>2026-04-04T10:59:26.107Z</time></trkpt><trkpt lat="44.56461" lon="8.77785"><ele>688.0</ele><time>2026-04-04T10:59:27.103Z</time></trkpt><trkpt lat="44.5646183" lon="8.777745"><ele>688.0000000000001</ele><time>2026-04-04T10:59:28.101Z</time></trkpt><trkpt lat="44.5646467" lon="8.777645"><ele>688.0</ele><time>2026-04-04T10:59:29.106Z</time></trkpt><trkpt lat="44.5646767" lon="8.777545"><ele>689.8333333333334</ele><time>2026-04-04T10:59:30.101Z</time></trkpt><trkpt lat="44.5646983" lon="8.7774433"><ele>691.6666666666667</ele><time>2026-04-04T10:59:31.101Z</time></trkpt><trkpt lat="44.56471" lon="8.7773383"><ele>693.5</ele><time>2026-04-04T10:59:32.099Z</time></trkpt><trkpt lat="44.564705" lon="8.777215"><ele>695.3333333333334</ele><time>2026-04-04T10:59:33.099Z</time></trkpt><trkpt lat="44.5646933" lon="8.777085"><ele>697.1666666666666</ele><time>2026-04-04T10:59:34.101Z</time></trkpt><trkpt lat="44.5646817" lon="8.77695"><ele>699.0</ele><time>2026-04-04T10:59:35.101Z</time></trkpt><trkpt lat="44.5646633" lon="8.7768167"><ele>699.0</ele><time>2026-04-04T10:59:36.097Z</time></trkpt><trkpt lat="44.5646317" lon="8.7766917"><ele>699.0</ele><time>2026-04-04T10:59:37.098Z</time></trkpt><trkpt lat="44.5645983" lon="8.7765633"><ele>699.0</ele><time>2026-04-04T10:59:38.099Z</time></trkpt><trkpt lat="44.5645667" lon="8.7764333"><ele>699.0</ele><time>2026-04-04T10:59:39.1Z</time></trkpt><trkpt lat="44.5645417" lon="8.7763083"><ele>699.0</ele><time>2026-04-04T10:59:40.101Z</time></trkpt><trkpt lat="44.5645233" lon="8.77619"><ele>699.0</ele><time>2026-04-04T10:59:41.099Z</time></trkpt><trkpt lat="44.5645083" lon="8.7760667"><ele>699.0</ele><time>2026-04-04T10:59:42.106Z</time></trkpt><trkpt lat="44.5644933" lon="8.77595"><ele>699.0</ele><time>2026-04-04T10:59:43.1Z</time></trkpt><trkpt lat="44.56447" lon="8.7758417"><ele>699.0</ele><time>2026-04-04T10:59:44.101Z</time></trkpt><trkpt lat="44.5644317" lon="8.7757333"><ele>699.0</ele><time>2026-04-04T10:59:45.099Z</time></trkpt><trkpt lat="44.564385" lon="8.775635"><ele>699.0</ele><time>2026-04-04T10:59:46.102Z</time></trkpt><trkpt lat="44.56433" lon="8.7755433"><ele>701.4000000000001</ele><time>2026-04-04T10:59:47.1Z</time></trkpt><trkpt lat="44.5642567" lon="8.7754667"><ele>703.8</ele><time>2026-04-04T10:59:48.102Z</time></trkpt><trkpt lat="44.5641767" lon="8.7753883"><ele>706.2</ele><time>2026-04-04T10:59:49.1Z</time></trkpt><trkpt lat="44.5640983" lon="8.7753017"><ele>708.5999999999999</ele><time>2026-04-04T10:59:50.102Z</time></trkpt><trkpt lat="44.564035" lon="8.7752017"><ele>711.0</ele><time>2026-04-04T10:59:51.098Z</time></trkpt><trkpt lat="44.563995" lon="8.775085"><ele>713.0</ele><time>2026-04-04T10:59:52.103Z</time></trkpt><trkpt lat="44.5639883" lon="8.774955"><ele>715.0</ele><time>2026-04-04T10:59:53.1Z</time></trkpt><trkpt lat="44.5639983" lon="8.7748167"><ele>717.0</ele><time>2026-04-04T10:59:54.102Z</time></trkpt><trkpt lat="44.5640133" lon="8.7746717"><ele>719.0</ele><time>2026-04-04T10:59:55.102Z</time></trkpt><trkpt lat="44.5640283" lon="8.7745283"><ele>721.0</ele><time>2026-04-04T10:59:56.101Z</time></trkpt><trkpt lat="44.5640383" lon="8.7744083"><ele>722.1666666666667</ele><time>2026-04-04T10:59:57.101Z</time></trkpt><trkpt lat="44.5640383" lon="8.7743133"><ele>723.3333333333334</ele><time>2026-04-04T10:59:58.107Z</time></trkpt><trkpt lat="44.5639683" lon="8.7742217"><ele>724.5</ele><time>2026-04-04T11:00:00.099Z</time></trkpt><trkpt lat="44.56386" lon="8.7742317"><ele>725.6666666666666</ele><time>2026-04-04T11:00:02.1Z</time></trkpt><trkpt lat="44.5637983" lon="8.7742517"><ele>726.8333333333333</ele><time>2026-04-04T11:00:03.099Z</time></trkpt><trkpt lat="44.5637317" lon="8.7742733"><ele>728.0</ele><time>2026-04-04T11:00:04.098Z</time></trkpt><trkpt lat="44.56365" lon="8.7742967"><ele>728.0</ele><time>2026-04-04T11:00:05.102Z</time></trkpt><trkpt lat="44.5635667" lon="8.7743083"><ele>728.0</ele><time>2026-04-04T11:00:06.1Z</time></trkpt><trkpt lat="44.5634833" lon="8.7743033"><ele>728.0</ele><time>2026-04-04T11:00:07.1Z</time></trkpt><trkpt lat="44.5633683" lon="8.7743033"><ele>728.0</ele><time>2026-04-04T11:00:08.099Z</time></trkpt><trkpt lat="44.5632733" lon="8.7742483"><ele>728.0</ele><time>2026-04-04T11:00:09.1Z</time></trkpt><trkpt lat="44.563195" lon="8.77416"><ele>728.0</ele><time>2026-04-04T11:00:10.101Z</time></trkpt><trkpt lat="44.563145" lon="8.7740233"><ele>728.0</ele><time>2026-04-04T11:00:11.102Z</time></trkpt><trkpt lat="44.5630967" lon="8.7738933"><ele>728.0</ele><time>2026-04-04T11:00:12.103Z</time></trkpt><trkpt lat="44.563045" lon="8.773765"><ele>728.0</ele><time>2026-04-04T11:00:13.104Z</time></trkpt><trkpt lat="44.5629917" lon="8.773635"><ele>728.0</ele><time>2026-04-04T11:00:14.098Z</time></trkpt><trkpt lat="44.5629317" lon="8.7735033"><ele>729.75</ele><time>2026-04-04T11:00:15.098Z</time></trkpt><trkpt lat="44.5628717" lon="8.7733467"><ele>731.5</ele><time>2026-04-04T11:00:16.099Z</time></trkpt><trkpt lat="44.5627967" lon="8.7731983"><ele>733.25</ele><time>2026-04-04T11:00:17.101Z</time></trkpt><trkpt lat="44.5627117" lon="8.77305"><ele>735.0</ele><time>2026-04-04T11:00:18.101Z</time></trkpt><trkpt lat="44.5626183" lon="8.7729167"><ele>735.0</ele><time>2026-04-04T11:00:19.099Z</time></trkpt><trkpt lat="44.5625317" lon="8.7727883"><ele>735.0</ele><time>2026-04-04T11:00:20.098Z</time></trkpt><trkpt lat="44.5624533" lon="8.772675"><ele>735.0</ele><time>2026-04-04T11:00:21.098Z</time></trkpt><trkpt lat="44.56239" lon="8.772565"><ele>735.0</ele><time>2026-04-04T11:00:22.1Z</time></trkpt><trkpt lat="44.5623417" lon="8.772455"><ele>735.0</ele><time>2026-04-04T11:00:23.096Z</time></trkpt><trkpt lat="44.562305" lon="8.77234"><ele>736.3333333333334</ele><time>2026-04-04T11:00:24.102Z</time></trkpt><trkpt lat="44.56227" lon="8.7722233"><ele>737.6666666666666</ele><time>2026-04-04T11:00:25.1Z</time></trkpt><trkpt lat="44.5622317" lon="8.7721117"><ele>739.0</ele><time>2026-04-04T11:00:26.098Z</time></trkpt><trkpt lat="44.5621933" lon="8.7720017"><ele>740.3333333333333</ele><time>2026-04-04T11:00:27.099Z</time></trkpt><trkpt lat="44.5621483" lon="8.7719083"><ele>741.6666666666666</ele><time>2026-04-04T11:00:28.099Z</time></trkpt><trkpt lat="44.5620867" lon="8.7718433"><ele>743.0</ele><time>2026-04-04T11:00:29.101Z</time></trkpt><trkpt lat="44.5620133" lon="8.771855"><ele>744.4</ele><time>2026-04-04T11:00:30.102Z</time></trkpt><trkpt lat="44.5619333" lon="8.7719033"><ele>745.8</ele><time>2026-04-04T11:00:31.101Z</time></trkpt><trkpt lat="44.56185" lon="8.771965"><ele>747.2</ele><time>2026-04-04T11:00:32.097Z</time></trkpt><trkpt lat="44.56176" lon="8.7720317"><ele>748.6</ele><time>2026-04-04T11:00:33.098Z</time></trkpt><trkpt lat="44.5616583" lon="8.7721117"><ele>750.0</ele><time>2026-04-04T11:00:34.101Z</time></trkpt><trkpt lat="44.561555" lon="8.7721867"><ele>750.0</ele><time>2026-04-04T11:00:35.1Z</time></trkpt><trkpt lat="44.5614483" lon="8.7722633"><ele>750.0</ele><time>2026-04-04T11:00:36.1Z</time></trkpt><trkpt lat="44.5613467" lon="8.7723367"><ele>750.0</ele><time>2026-04-04T11:00:37.1Z</time></trkpt><trkpt lat="44.5612467" lon="8.7723967"><ele>750.0</ele><time>2026-04-04T11:00:38.099Z</time></trkpt><trkpt lat="44.561155" lon="8.77243"><ele>750.0</ele><time>2026-04-04T11:00:39.106Z</time></trkpt><trkpt lat="44.5610717" lon="8.7724533"><ele>751.0</ele><time>2026-04-04T11:00:40.101Z</time></trkpt><trkpt lat="44.5609983" lon="8.7724733"><ele>752.0</ele><time>2026-04-04T11:00:41.1Z</time></trkpt><trkpt lat="44.5609233" lon="8.7725117"><ele>753.0</ele><time>2026-04-04T11:00:42.1Z</time></trkpt><trkpt lat="44.5608617" lon="8.7725617"><ele>754.0</ele><time>2026-04-04T11:00:43.104Z</time></trkpt><trkpt lat="44.5608283" lon="8.7726683"><ele>755.0</ele><time>2026-04-04T11:00:44.098Z</time></trkpt><trkpt lat="44.560785" lon="8.7727833"><ele>756.0</ele><time>2026-04-04T11:00:45.097Z</time></trkpt><trkpt lat="44.56072" lon="8.7729067"><ele>756.0</ele><time>2026-04-04T11:00:46.105Z</time></trkpt><trkpt lat="44.5606617" lon="8.7730133"><ele>756.0</ele><time>2026-04-04T11:00:47.096Z</time></trkpt><trkpt lat="44.5606" lon="8.773105"><ele>756.0</ele><time>2026-04-04T11:00:48.1Z</time></trkpt><trkpt lat="44.56052" lon="8.773185"><ele>756.0</ele><time>2026-04-04T11:00:49.099Z</time></trkpt><trkpt lat="44.5604367" lon="8.773255"><ele>756.0</ele><time>2026-04-04T11:00:50.103Z</time></trkpt><trkpt lat="44.5603467" lon="8.77332"><ele>759.5999999999999</ele><time>2026-04-04T11:00:51.098Z</time></trkpt><trkpt lat="44.5602583" lon="8.7733783"><ele>763.2</ele><time>2026-04-04T11:00:52.101Z</time></trkpt><trkpt lat="44.5601583" lon="8.773395"><ele>766.8</ele><time>2026-04-04T11:00:53.101Z</time></trkpt><trkpt lat="44.5600533" lon="8.7733983"><ele>770.4000000000001</ele><time>2026-04-04T11:00:54.099Z</time></trkpt><trkpt lat="44.55994" lon="8.7734017"><ele>774.0</ele><time>2026-04-04T11:00:55.099Z</time></trkpt><trkpt lat="44.55982" lon="8.7734017"><ele>774.0</ele><time>2026-04-04T11:00:56.103Z</time></trkpt><trkpt lat="44.5597067" lon="8.7734033"><ele>774.0</ele><time>2026-04-04T11:00:57.104Z</time></trkpt><trkpt lat="44.559595" lon="8.7734133"><ele>774.0</ele><time>2026-04-04T11:00:58.099Z</time></trkpt><trkpt lat="44.559485" lon="8.7734267"><ele>774.0</ele><time>2026-04-04T11:00:59.103Z</time></trkpt><trkpt lat="44.5593733" lon="8.7734517"><ele>774.0</ele><time>2026-04-04T11:01:00.1Z</time></trkpt><trkpt lat="44.5592633" lon="8.7734867"><ele>776.2</ele><time>2026-04-04T11:01:01.1Z</time></trkpt><trkpt lat="44.5591567" lon="8.77354"><ele>778.4000000000001</ele><time>2026-04-04T11:01:02.102Z</time></trkpt><trkpt lat="44.559055" lon="8.7736083"><ele>780.6</ele><time>2026-04-04T11:01:03.1Z</time></trkpt><trkpt lat="44.558955" lon="8.77368"><ele>782.8</ele><time>2026-04-04T11:01:04.107Z</time></trkpt><trkpt lat="44.5588567" lon="8.7737417"><ele>785.0</ele><time>2026-04-04T11:01:05.102Z</time></trkpt><trkpt lat="44.5587683" lon="8.7738083"><ele>784.8333333333334</ele><time>2026-04-04T11:01:06.099Z</time></trkpt><trkpt lat="44.558685" lon="8.7738717"><ele>784.6666666666667</ele><time>2026-04-04T11:01:07.1Z</time></trkpt><trkpt lat="44.5585983" lon="8.7739317"><ele>784.5</ele><time>2026-04-04T11:01:08.099Z</time></trkpt><trkpt lat="44.55852" lon="8.7739683"><ele>784.3333333333333</ele><time>2026-04-04T11:01:09.099Z</time></trkpt><trkpt lat="44.5584417" lon="8.773995"><ele>784.1666666666666</ele><time>2026-04-04T11:01:10.1Z</time></trkpt><trkpt lat="44.558355" lon="8.7739983"><ele>784.0</ele><time>2026-04-04T11:01:11.099Z</time></trkpt><trkpt lat="44.5582633" lon="8.773985"><ele>784.0</ele><time>2026-04-04T11:01:12.098Z</time></trkpt><trkpt lat="44.5581583" lon="8.773975"><ele>784.0</ele><time>2026-04-04T11:01:13.102Z</time></trkpt><trkpt lat="44.5580517" lon="8.7739783"><ele>784.0</ele><time>2026-04-04T11:01:14.104Z</time></trkpt><trkpt lat="44.55795" lon="8.7739867"><ele>784.0</ele><time>2026-04-04T11:01:15.099Z</time></trkpt><trkpt lat="44.5578383" lon="8.7740017"><ele>784.0</ele><time>2026-04-04T11:01:16.103Z</time></trkpt><trkpt lat="44.5577267" lon="8.774005"><ele>783.8000000000001</ele><time>2026-04-04T11:01:17.101Z</time></trkpt><trkpt lat="44.55762" lon="8.7740067"><ele>783.6</ele><time>2026-04-04T11:01:18.104Z</time></trkpt><trkpt lat="44.5575117" lon="8.7739767"><ele>783.4</ele><time>2026-04-04T11:01:19.105Z</time></trkpt><trkpt lat="44.557405" lon="8.773935"><ele>783.2</ele><time>2026-04-04T11:01:20.103Z</time></trkpt><trkpt lat="44.5573017" lon="8.7738833"><ele>783.0</ele><time>2026-04-04T11:01:21.1Z</time></trkpt><trkpt lat="44.5571983" lon="8.7738467"><ele>783.0</ele><time>2026-04-04T11:01:22.099Z</time></trkpt><trkpt lat="44.557085" lon="8.77383"><ele>783.0</ele><time>2026-04-04T11:01:23.099Z</time></trkpt><trkpt lat="44.556975" lon="8.773805"><ele>783.0</ele><time>2026-04-04T11:01:24.101Z</time></trkpt><trkpt lat="44.5568567" lon="8.773785"><ele>783.0</ele><time>2026-04-04T11:01:25.107Z</time></trkpt><trkpt lat="44.5567433" lon="8.7737517"><ele>782.75</ele><time>2026-04-04T11:01:26.1Z</time></trkpt><trkpt lat="44.5566317" lon="8.7736983"><ele>782.5</ele><time>2026-04-04T11:01:27.1Z</time></trkpt><trkpt lat="44.5565233" lon="8.7736217"><ele>782.25</ele><time>2026-04-04T11:01:28.098Z</time></trkpt><trkpt lat="44.5564317" lon="8.7735117"><ele>782.0</ele><time>2026-04-04T11:01:29.1Z</time></trkpt><trkpt lat="44.5563417" lon="8.773385"><ele>782.0</ele><time>2026-04-04T11:01:30.105Z</time></trkpt><trkpt lat="44.5562583" lon="8.7732317"><ele>782.0</ele><time>2026-04-04T11:01:31.098Z</time></trkpt><trkpt lat="44.55617" lon="8.7730783"><ele>782.0</ele><time>2026-04-04T11:01:32.101Z</time></trkpt><trkpt lat="44.556085" lon="8.7729233"><ele>782.0</ele><time>2026-04-04T11:01:33.098Z</time></trkpt><trkpt lat="44.5560133" lon="8.7727583"><ele>781.75</ele><time>2026-04-04T11:01:34.101Z</time></trkpt><trkpt lat="44.5559433" lon="8.772585"><ele>781.5</ele><time>2026-04-04T11:01:35.1Z</time></trkpt><trkpt lat="44.5558583" lon="8.7724267"><ele>781.25</ele><time>2026-04-04T11:01:36.1Z</time></trkpt><trkpt lat="44.55577" lon="8.7722733"><ele>781.0</ele><time>2026-04-04T11:01:37.102Z</time></trkpt><trkpt lat="44.5556967" lon="8.7721"><ele>781.0</ele><time>2026-04-04T11:01:38.099Z</time></trkpt><trkpt lat="44.5556317" lon="8.77193"><ele>781.0</ele><time>2026-04-04T11:01:39.106Z</time></trkpt><trkpt lat="44.5555767" lon="8.7717683"><ele>781.0</ele><time>2026-04-04T11:01:40.103Z</time></trkpt><trkpt lat="44.5555433" lon="8.77159"><ele>781.0</ele><time>2026-04-04T11:01:41.1Z</time></trkpt><trkpt lat="44.5555083" lon="8.77143"><ele>780.5999999999999</ele><time>2026-04-04T11:01:42.103Z</time></trkpt><trkpt lat="44.5554567" lon="8.7713083"><ele>780.2</ele><time>2026-04-04T11:01:43.101Z</time></trkpt><trkpt lat="44.5553883" lon="8.7712117"><ele>779.8</ele><time>2026-04-04T11:01:44.102Z</time></trkpt><trkpt lat="44.55531" lon="8.771135"><ele>779.4000000000001</ele><time>2026-04-04T11:01:45.107Z</time></trkpt><trkpt lat="44.5552217" lon="8.7710767"><ele>779.0</ele><time>2026-04-04T11:01:46.106Z</time></trkpt><trkpt lat="44.5551233" lon="8.771035"><ele>779.0</ele><time>2026-04-04T11:01:47.106Z</time></trkpt><trkpt lat="44.555015" lon="8.7710067"><ele>779.0</ele><time>2026-04-04T11:01:48.1Z</time></trkpt><trkpt lat="44.5549067" lon="8.7709933"><ele>779.0</ele><time>2026-04-04T11:01:49.104Z</time></trkpt><trkpt lat="44.5548017" lon="8.7709967"><ele>779.0</ele><time>2026-04-04T11:01:50.098Z</time></trkpt><trkpt lat="44.5547017" lon="8.77102"><ele>779.0</ele><time>2026-04-04T11:01:51.102Z</time></trkpt><trkpt lat="44.5546133" lon="8.77107"><ele>774.8000000000001</ele><time>2026-04-04T11:01:52.101Z</time></trkpt><trkpt lat="44.554525" lon="8.7711567"><ele>770.6</ele><time>2026-04-04T11:01:53.101Z</time></trkpt><trkpt lat="44.5544467" lon="8.77124"><ele>766.4</ele><time>2026-04-04T11:01:54.097Z</time></trkpt><trkpt lat="44.5543683" lon="8.7713183"><ele>762.2</ele><time>2026-04-04T11:01:55.101Z</time></trkpt><trkpt lat="44.5542733" lon="8.7714017"><ele>758.0</ele><time>2026-04-04T11:01:56.1Z</time></trkpt><trkpt lat="44.554185" lon="8.7714867"><ele>758.0</ele><time>2026-04-04T11:01:57.098Z</time></trkpt><trkpt lat="44.554115" lon="8.7715817"><ele>758.0</ele><time>2026-04-04T11:01:58.099Z</time></trkpt><trkpt lat="44.5540633" lon="8.77169"><ele>758.0</ele><time>2026-04-04T11:01:59.1Z</time></trkpt><trkpt lat="44.5540283" lon="8.7718233"><ele>758.0</ele><time>2026-04-04T11:02:00.098Z</time></trkpt><trkpt lat="44.5539917" lon="8.77196"><ele>758.0</ele><time>2026-04-04T11:02:01.1Z</time></trkpt><trkpt lat="44.55395" lon="8.7720967"><ele>759.8</ele><time>2026-04-04T11:02:02.103Z</time></trkpt><trkpt lat="44.5539" lon="8.7722283"><ele>761.5999999999999</ele><time>2026-04-04T11:02:03.101Z</time></trkpt><trkpt lat="44.5538383" lon="8.77235"><ele>763.4000000000001</ele><time>2026-04-04T11:02:04.103Z</time></trkpt><trkpt lat="44.5537617" lon="8.7724567"><ele>765.2</ele><time>2026-04-04T11:02:05.097Z</time></trkpt><trkpt lat="44.55368" lon="8.772555"><ele>767.0</ele><time>2026-04-04T11:02:06.099Z</time></trkpt><trkpt lat="44.553595" lon="8.772655"><ele>765.2</ele><time>2026-04-04T11:02:07.106Z</time></trkpt><trkpt lat="44.553515" lon="8.7727683"><ele>763.4000000000001</ele><time>2026-04-04T11:02:08.105Z</time></trkpt><trkpt lat="44.5534467" lon="8.7728917"><ele>761.5999999999999</ele><time>2026-04-04T11:02:09.104Z</time></trkpt><trkpt lat="44.5533833" lon="8.7730017"><ele>759.8</ele><time>2026-04-04T11:02:10.098Z</time></trkpt><trkpt lat="44.5533267" lon="8.7730983"><ele>758.0</ele><time>2026-04-04T11:02:11.103Z</time></trkpt><trkpt lat="44.5532583" lon="8.7731733"><ele>758.0</ele><time>2026-04-04T11:02:12.103Z</time></trkpt><trkpt lat="44.553185" lon="8.773235"><ele>758.0</ele><time>2026-04-04T11:02:13.102Z</time></trkpt><trkpt lat="44.5530917" lon="8.7732817"><ele>758.0</ele><time>2026-04-04T11:02:14.102Z</time></trkpt><trkpt lat="44.552995" lon="8.77331"><ele>758.0</ele><time>2026-04-04T11:02:15.1Z</time></trkpt><trkpt lat="44.55289" lon="8.7733367"><ele>758.0</ele><time>2026-04-04T11:02:16.098Z</time></trkpt><trkpt lat="44.5527717" lon="8.7733417"><ele>757.25</ele><time>2026-04-04T11:02:17.102Z</time></trkpt><trkpt lat="44.5526567" lon="8.77334"><ele>756.5</ele><time>2026-04-04T11:02:18.101Z</time></trkpt><trkpt lat="44.5525517" lon="8.773355"><ele>755.75</ele><time>2026-04-04T11:02:19.101Z</time></trkpt><trkpt lat="44.5524333" lon="8.7733867"><ele>755.0</ele><time>2026-04-04T11:02:20.098Z</time></trkpt><trkpt lat="44.55232" lon="8.773435"><ele>755.0</ele><time>2026-04-04T11:02:21.101Z</time></trkpt><trkpt lat="44.5522083" lon="8.773485"><ele>755.0</ele><time>2026-04-04T11:02:22.101Z</time></trkpt><trkpt lat="44.5521033" lon="8.7735367"><ele>755.0</ele><time>2026-04-04T11:02:23.102Z</time></trkpt><trkpt lat="44.551995" lon="8.7736"><ele>755.0</ele><time>2026-04-04T11:02:24.101Z</time></trkpt><trkpt lat="44.5518883" lon="8.773665"><ele>757.0</ele><time>2026-04-04T11:02:25.1Z</time></trkpt><trkpt lat="44.55178" lon="8.7737217"><ele>759.0</ele><time>2026-04-04T11:02:26.103Z</time></trkpt><trkpt lat="44.551675" lon="8.7737967"><ele>761.0</ele><time>2026-04-04T11:02:27.106Z</time></trkpt><trkpt lat="44.5515767" lon="8.7738717"><ele>763.0</ele><time>2026-04-04T11:02:28.104Z</time></trkpt><trkpt lat="44.551485" lon="8.7739383"><ele>765.0</ele><time>2026-04-04T11:02:29.102Z</time></trkpt><trkpt lat="44.5514033" lon="8.7739717"><ele>765.0</ele><time>2026-04-04T11:02:30.099Z</time></trkpt><trkpt lat="44.551315" lon="8.7740067"><ele>765.0</ele><time>2026-04-04T11:02:31.099Z</time></trkpt><trkpt lat="44.5512183" lon="8.7740317"><ele>765.0</ele><time>2026-04-04T11:02:32.098Z</time></trkpt><trkpt lat="44.5511217" lon="8.77402"><ele>765.0</ele><time>2026-04-04T11:02:33.097Z</time></trkpt><trkpt lat="44.5510283" lon="8.7739533"><ele>765.0</ele><time>2026-04-04T11:02:34.101Z</time></trkpt><trkpt lat="44.550945" lon="8.7739017"><ele>764.0</ele><time>2026-04-04T11:02:35.101Z</time></trkpt><trkpt lat="44.550875" lon="8.7738217"><ele>763.0</ele><time>2026-04-04T11:02:36.099Z</time></trkpt><trkpt lat="44.5508133" lon="8.77373"><ele>762.0</ele><time>2026-04-04T11:02:37.098Z</time></trkpt><trkpt lat="44.5507633" lon="8.77362"><ele>761.0</ele><time>2026-04-04T11:02:38.099Z</time></trkpt><trkpt lat="44.5507167" lon="8.7735117"><ele>760.0</ele><time>2026-04-04T11:02:39.099Z</time></trkpt><trkpt lat="44.55067" lon="8.773395"><ele>760.0</ele><time>2026-04-04T11:02:40.099Z</time></trkpt><trkpt lat="44.5506117" lon="8.7732983"><ele>760.0</ele><time>2026-04-04T11:02:41.102Z</time></trkpt><trkpt lat="44.5505367" lon="8.77321"><ele>760.0</ele><time>2026-04-04T11:02:42.097Z</time></trkpt><trkpt lat="44.5504433" lon="8.7731433"><ele>760.0</ele><time>2026-04-04T11:02:43.102Z</time></trkpt><trkpt lat="44.5503483" lon="8.7731067"><ele>760.0</ele><time>2026-04-04T11:02:44.104Z</time></trkpt><trkpt lat="44.5502467" lon="8.7731033"><ele>762.8</ele><time>2026-04-04T11:02:45.102Z</time></trkpt><trkpt lat="44.5501383" lon="8.7731133"><ele>765.6</ele><time>2026-04-04T11:02:46.104Z</time></trkpt><trkpt lat="44.5500317" lon="8.77312"><ele>768.4000000000001</ele><time>2026-04-04T11:02:47.101Z</time></trkpt><trkpt lat="44.549935" lon="8.7731233"><ele>771.2</ele><time>2026-04-04T11:02:48.103Z</time></trkpt><trkpt lat="44.549845" lon="8.773105"><ele>774.0</ele><time>2026-04-04T11:02:49.106Z</time></trkpt><trkpt lat="44.5497667" lon="8.7730633"><ele>774.0</ele><time>2026-04-04T11:02:50.1Z</time></trkpt><trkpt lat="44.549705" lon="8.77299"><ele>774.0</ele><time>2026-04-04T11:02:51.103Z</time></trkpt><trkpt lat="44.5496533" lon="8.772905"><ele>774.0</ele><time>2026-04-04T11:02:52.106Z</time></trkpt><trkpt lat="44.54961" lon="8.7728083"><ele>774.0</ele><time>2026-04-04T11:02:53.105Z</time></trkpt><trkpt lat="44.5495517" lon="8.77271"><ele>774.0</ele><time>2026-04-04T11:02:54.109Z</time></trkpt><trkpt lat="44.5494883" lon="8.7726283"><ele>774.0</ele><time>2026-04-04T11:02:55.106Z</time></trkpt><trkpt lat="44.5494117" lon="8.772565"><ele>773.25</ele><time>2026-04-04T11:02:56.1Z</time></trkpt><trkpt lat="44.5493033" lon="8.7725433"><ele>772.5</ele><time>2026-04-04T11:02:57.1Z</time></trkpt><trkpt lat="44.5491917" lon="8.7725333"><ele>771.75</ele><time>2026-04-04T11:02:58.1Z</time></trkpt><trkpt lat="44.5490767" lon="8.7725267"><ele>771.0</ele><time>2026-04-04T11:02:59.101Z</time></trkpt><trkpt lat="44.5489483" lon="8.7725183"><ele>771.0</ele><time>2026-04-04T11:03:00.099Z</time></trkpt><trkpt lat="44.5488133" lon="8.7724867"><ele>771.0</ele><time>2026-04-04T11:03:01.105Z</time></trkpt><trkpt lat="44.548675" lon="8.7724517"><ele>771.0</ele><time>2026-04-04T11:03:02.1Z</time></trkpt><trkpt lat="44.5485383" lon="8.7724217"><ele>771.0</ele><time>2026-04-04T11:03:03.099Z</time></trkpt><trkpt lat="44.5484017" lon="8.7723967"><ele>772.25</ele><time>2026-04-04T11:03:04.101Z</time></trkpt><trkpt lat="44.548265" lon="8.7723683"><ele>773.5</ele><time>2026-04-04T11:03:05.105Z</time></trkpt><trkpt lat="44.5481383" lon="8.7723467"><ele>774.75</ele><time>2026-04-04T11:03:06.099Z</time></trkpt><trkpt lat="44.5480117" lon="8.7723417"><ele>776.0</ele><time>2026-04-04T11:03:07.1Z</time></trkpt><trkpt lat="44.5478867" lon="8.7723517"><ele>776.5999999999999</ele><time>2026-04-04T11:03:08.1Z</time></trkpt><trkpt lat="44.54777" lon="8.772385"><ele>777.2</ele><time>2026-04-04T11:03:09.103Z</time></trkpt><trkpt lat="44.5476517" lon="8.7724167"><ele>777.8</ele><time>2026-04-04T11:03:10.101Z</time></trkpt><trkpt lat="44.5475467" lon="8.77245"><ele>778.4000000000001</ele><time>2026-04-04T11:03:11.105Z</time></trkpt><trkpt lat="44.54745" lon="8.7724767"><ele>779.0</ele><time>2026-04-04T11:03:12.105Z</time></trkpt><trkpt lat="44.5473567" lon="8.7724767"><ele>779.0000000000001</ele><time>2026-04-04T11:03:13.103Z</time></trkpt><trkpt lat="44.5472633" lon="8.7724667"><ele>779.0</ele><time>2026-04-04T11:03:14.106Z</time></trkpt><trkpt lat="44.5471717" lon="8.7724317"><ele>779.0</ele><time>2026-04-04T11:03:15.106Z</time></trkpt><trkpt lat="44.5470917" lon="8.77238"><ele>779.0</ele><time>2026-04-04T11:03:16.101Z</time></trkpt><trkpt lat="44.5470167" lon="8.77234"><ele>779.0000000000001</ele><time>2026-04-04T11:03:17.101Z</time></trkpt><trkpt lat="44.5469417" lon="8.7722833"><ele>779.0</ele><time>2026-04-04T11:03:18.098Z</time></trkpt><trkpt lat="44.5468683" lon="8.7722383"><ele>780.75</ele><time>2026-04-04T11:03:19.101Z</time></trkpt><trkpt lat="44.5467883" lon="8.77216"><ele>782.5</ele><time>2026-04-04T11:03:20.104Z</time></trkpt><trkpt lat="44.5466983" lon="8.77207"><ele>784.25</ele><time>2026-04-04T11:03:21.097Z</time></trkpt><trkpt lat="44.5466" lon="8.7719617"><ele>786.0</ele><time>2026-04-04T11:03:22.105Z</time></trkpt><trkpt lat="44.5464933" lon="8.7718717"><ele>782.0</ele><time>2026-04-04T11:03:23.102Z</time></trkpt><trkpt lat="44.5463883" lon="8.7717667"><ele>778.0</ele><time>2026-04-04T11:03:24.098Z</time></trkpt><trkpt lat="44.5462833" lon="8.771665"><ele>774.0</ele><time>2026-04-04T11:03:25.1Z</time></trkpt><trkpt lat="44.5461717" lon="8.7715683"><ele>770.0</ele><time>2026-04-04T11:03:26.103Z</time></trkpt><trkpt lat="44.54605" lon="8.7714917"><ele>770.0</ele><time>2026-04-04T11:03:27.104Z</time></trkpt><trkpt lat="44.5459183" lon="8.7714433"><ele>770.0</ele><time>2026-04-04T11:03:28.101Z</time></trkpt><trkpt lat="44.5457833" lon="8.7714133"><ele>770.0</ele><time>2026-04-04T11:03:29.101Z</time></trkpt><trkpt lat="44.5456567" lon="8.771375"><ele>770.0</ele><time>2026-04-04T11:03:30.101Z</time></trkpt><trkpt lat="44.5455433" lon="8.7713167"><ele>770.0</ele><time>2026-04-04T11:03:31.102Z</time></trkpt><trkpt lat="44.545435" lon="8.7712433"><ele>770.0</ele><time>2026-04-04T11:03:32.101Z</time></trkpt><trkpt lat="44.54534" lon="8.7711617"><ele>770.0</ele><time>2026-04-04T11:03:33.1Z</time></trkpt><trkpt lat="44.545245" lon="8.7710817"><ele>770.0</ele><time>2026-04-04T11:03:34.101Z</time></trkpt><trkpt lat="44.5451367" lon="8.7710233"><ele>768.8</ele><time>2026-04-04T11:03:35.099Z</time></trkpt><trkpt lat="44.5450267" lon="8.7709783"><ele>767.6</ele><time>2026-04-04T11:03:36.102Z</time></trkpt><trkpt lat="44.5449133" lon="8.770945"><ele>766.4000000000001</ele><time>2026-04-04T11:03:37.1Z</time></trkpt><trkpt lat="44.5448067" lon="8.7709233"><ele>765.2</ele><time>2026-04-04T11:03:38.101Z</time></trkpt><trkpt lat="44.544715" lon="8.770895"><ele>764.0</ele><time>2026-04-04T11:03:39.105Z</time></trkpt><trkpt lat="44.5446383" lon="8.7708467"><ele>764.0</ele><time>2026-04-04T11:03:40.1Z</time></trkpt><trkpt lat="44.5445633" lon="8.7707967"><ele>764.0</ele><time>2026-04-04T11:03:41.107Z</time></trkpt><trkpt lat="44.5445183" lon="8.770725"><ele>764.0</ele><time>2026-04-04T11:03:42.099Z</time></trkpt><trkpt lat="44.544565" lon="8.770595"><ele>764.0</ele><time>2026-04-04T11:03:43.102Z</time></trkpt><trkpt lat="44.5445933" lon="8.7704783"><ele>764.0</ele><time>2026-04-04T11:03:44.1Z</time></trkpt><trkpt lat="44.5446383" lon="8.7703433"><ele>764.0</ele><time>2026-04-04T11:03:45.097Z</time></trkpt><trkpt lat="44.54469" lon="8.7701983"><ele>762.4000000000001</ele><time>2026-04-04T11:03:46.097Z</time></trkpt><trkpt lat="44.5447267" lon="8.77006"><ele>760.8</ele><time>2026-04-04T11:03:47.099Z</time></trkpt><trkpt lat="44.5447367" lon="8.7699333"><ele>759.2</ele><time>2026-04-04T11:03:48.099Z</time></trkpt><trkpt lat="44.54472" lon="8.7698117"><ele>757.5999999999999</ele><time>2026-04-04T11:03:49.099Z</time></trkpt><trkpt lat="44.54468" lon="8.76969"><ele>756.0</ele><time>2026-04-04T11:03:50.1Z</time></trkpt><trkpt lat="44.5446183" lon="8.7695817"><ele>756.0</ele><time>2026-04-04T11:03:51.099Z</time></trkpt><trkpt lat="44.54455" lon="8.76946"><ele>756.0</ele><time>2026-04-04T11:03:52.101Z</time></trkpt><trkpt lat="44.5445133" lon="8.7693233"><ele>756.0</ele><time>2026-04-04T11:03:53.103Z</time></trkpt><trkpt lat="44.5445" lon="8.7691917"><ele>756.0</ele><time>2026-04-04T11:03:54.105Z</time></trkpt><trkpt lat="44.5444883" lon="8.7690683"><ele>756.0</ele><time>2026-04-04T11:03:55.102Z</time></trkpt><trkpt lat="44.54447" lon="8.7689483"><ele>756.4</ele><time>2026-04-04T11:03:56.103Z</time></trkpt><trkpt lat="44.54444" lon="8.768825"><ele>756.8</ele><time>2026-04-04T11:03:57.104Z</time></trkpt><trkpt lat="44.5443983" lon="8.7686983"><ele>757.1999999999999</ele><time>2026-04-04T11:03:58.101Z</time></trkpt><trkpt lat="44.5443383" lon="8.7685833"><ele>757.5999999999999</ele><time>2026-04-04T11:03:59.102Z</time></trkpt><trkpt lat="44.544265" lon="8.7684917"><ele>758.0</ele><time>2026-04-04T11:04:00.102Z</time></trkpt><trkpt lat="44.5441917" lon="8.76841"><ele>758.0</ele><time>2026-04-04T11:04:01.1Z</time></trkpt><trkpt lat="44.54413" lon="8.7683283"><ele>758.0</ele><time>2026-04-04T11:04:02.1Z</time></trkpt><trkpt lat="44.54408" lon="8.7682433"><ele>758.0</ele><time>2026-04-04T11:04:03.103Z</time></trkpt><trkpt lat="44.5440483" lon="8.7681517"><ele>758.0</ele><time>2026-04-04T11:04:04.1Z</time></trkpt><trkpt lat="44.5440617" lon="8.76805"><ele>758.0</ele><time>2026-04-04T11:04:05.102Z</time></trkpt><trkpt lat="44.5441767" lon="8.7679517"><ele>758.0</ele><time>2026-04-04T11:04:06.099Z</time></trkpt><trkpt lat="44.5442617" lon="8.7678367"><ele>758.0</ele><time>2026-04-04T11:04:07.103Z</time></trkpt><trkpt lat="44.5443417" lon="8.7677183"><ele>758.0</ele><time>2026-04-04T11:04:08.105Z</time></trkpt><trkpt lat="44.5444133" lon="8.7675983"><ele>758.0</ele><time>2026-04-04T11:04:09.098Z</time></trkpt><trkpt lat="44.5444633" lon="8.7674767"><ele>758.0</ele><time>2026-04-04T11:04:10.101Z</time></trkpt><trkpt lat="44.54449" lon="8.767345"><ele>758.0</ele><time>2026-04-04T11:04:11.102Z</time></trkpt><trkpt lat="44.544495" lon="8.767205"><ele>756.0</ele><time>2026-04-04T11:04:12.106Z</time></trkpt><trkpt lat="44.54447" lon="8.76706"><ele>754.0</ele><time>2026-04-04T11:04:13.099Z</time></trkpt><trkpt lat="44.54442" lon="8.76692"><ele>752.0</ele><time>2026-04-04T11:04:14.1Z</time></trkpt><trkpt lat="44.5443717" lon="8.76677"><ele>750.0</ele><time>2026-04-04T11:04:15.1Z</time></trkpt><trkpt lat="44.5443217" lon="8.7666283"><ele>748.0</ele><time>2026-04-04T11:04:16.101Z</time></trkpt><trkpt lat="44.5442767" lon="8.76648"><ele>747.4</ele><time>2026-04-04T11:04:17.104Z</time></trkpt><trkpt lat="44.5442467" lon="8.766335"><ele>746.8</ele><time>2026-04-04T11:04:18.104Z</time></trkpt><trkpt lat="44.5442283" lon="8.7661933"><ele>746.2</ele><time>2026-04-04T11:04:19.103Z</time></trkpt><trkpt lat="44.544215" lon="8.766055"><ele>745.6</ele><time>2026-04-04T11:04:20.107Z</time></trkpt><trkpt lat="44.5441967" lon="8.7659183"><ele>745.0</ele><time>2026-04-04T11:04:21.107Z</time></trkpt><trkpt lat="44.5441583" lon="8.7657867"><ele>745.0</ele><time>2026-04-04T11:04:22.1Z</time></trkpt><trkpt lat="44.5441183" lon="8.765675"><ele>745.0</ele><time>2026-04-04T11:04:23.108Z</time></trkpt><trkpt lat="44.54409" lon="8.76557"><ele>745.0</ele><time>2026-04-04T11:04:24.102Z</time></trkpt><trkpt lat="44.5440667" lon="8.7654667"><ele>745.0</ele><time>2026-04-04T11:04:25.108Z</time></trkpt><trkpt lat="44.54405" lon="8.7653517"><ele>745.0</ele><time>2026-04-04T11:04:26.104Z</time></trkpt><trkpt lat="44.5440467" lon="8.76521"><ele>745.0</ele><time>2026-04-04T11:04:27.105Z</time></trkpt><trkpt lat="44.5440717" lon="8.765065"><ele>744.25</ele><time>2026-04-04T11:04:28.102Z</time></trkpt><trkpt lat="44.544105" lon="8.764915"><ele>743.5</ele><time>2026-04-04T11:04:29.101Z</time></trkpt><trkpt lat="44.5441383" lon="8.76476"><ele>742.75</ele><time>2026-04-04T11:04:30.101Z</time></trkpt><trkpt lat="44.54417" lon="8.764595"><ele>742.0</ele><time>2026-04-04T11:04:31.102Z</time></trkpt><trkpt lat="44.5441983" lon="8.764415"><ele>740.25</ele><time>2026-04-04T11:04:32.1Z</time></trkpt><trkpt lat="44.5442333" lon="8.764225"><ele>738.5</ele><time>2026-04-04T11:04:33.098Z</time></trkpt><trkpt lat="44.5442567" lon="8.7640317"><ele>736.75</ele><time>2026-04-04T11:04:34.101Z</time></trkpt><trkpt lat="44.5442683" lon="8.7638433"><ele>735.0</ele><time>2026-04-04T11:04:35.1Z</time></trkpt><trkpt lat="44.5442717" lon="8.763685"><ele>735.0</ele><time>2026-04-04T11:04:36.1Z</time></trkpt><trkpt lat="44.5442483" lon="8.763555"><ele>735.0</ele><time>2026-04-04T11:04:37.102Z</time></trkpt><trkpt lat="44.5442033" lon="8.7634383"><ele>735.0</ele><time>2026-04-04T11:04:38.102Z</time></trkpt><trkpt lat="44.5441467" lon="8.76333"><ele>735.0</ele><time>2026-04-04T11:04:39.098Z</time></trkpt><trkpt lat="44.544085" lon="8.7632217"><ele>735.0</ele><time>2026-04-04T11:04:40.103Z</time></trkpt><trkpt lat="44.5440417" lon="8.763115"><ele>735.0</ele><time>2026-04-04T11:04:41.101Z</time></trkpt><trkpt lat="44.5440067" lon="8.763"><ele>735.0</ele><time>2026-04-04T11:04:42.104Z</time></trkpt><trkpt lat="44.5439917" lon="8.762875"><ele>735.0</ele><time>2026-04-04T11:04:43.104Z</time></trkpt><trkpt lat="44.5440067" lon="8.7627283"><ele>735.0</ele><time>2026-04-04T11:04:44.104Z</time></trkpt><trkpt lat="44.5440167" lon="8.762575"><ele>735.0</ele><time>2026-04-04T11:04:45.098Z</time></trkpt><trkpt lat="44.5440417" lon="8.7624083"><ele>735.25</ele><time>2026-04-04T11:04:46.102Z</time></trkpt><trkpt lat="44.5440667" lon="8.7622367"><ele>735.5</ele><time>2026-04-04T11:04:47.102Z</time></trkpt><trkpt lat="44.544095" lon="8.7620633"><ele>735.75</ele><time>2026-04-04T11:04:48.099Z</time></trkpt><trkpt lat="44.5441217" lon="8.7619"><ele>736.0</ele><time>2026-04-04T11:04:49.1Z</time></trkpt><trkpt lat="44.5441533" lon="8.7617483"><ele>735.5999999999999</ele><time>2026-04-04T11:04:50.098Z</time></trkpt><trkpt lat="44.5442017" lon="8.7616217"><ele>735.2</ele><time>2026-04-04T11:04:51.104Z</time></trkpt><trkpt lat="44.544265" lon="8.7615067"><ele>734.8</ele><time>2026-04-04T11:04:52.107Z</time></trkpt><trkpt lat="44.544355" lon="8.761425"><ele>734.4000000000001</ele><time>2026-04-04T11:04:53.106Z</time></trkpt><trkpt lat="44.54445" lon="8.76137"><ele>734.0</ele><time>2026-04-04T11:04:54.096Z</time></trkpt><trkpt lat="44.54454" lon="8.7613133"><ele>736.6</ele><time>2026-04-04T11:04:55.1Z</time></trkpt><trkpt lat="44.544615" lon="8.76125"><ele>739.2</ele><time>2026-04-04T11:04:56.101Z</time></trkpt><trkpt lat="44.5446733" lon="8.7611533"><ele>741.8000000000001</ele><time>2026-04-04T11:04:57.101Z</time></trkpt><trkpt lat="44.5447167" lon="8.7610367"><ele>744.4000000000001</ele><time>2026-04-04T11:04:58.102Z</time></trkpt><trkpt lat="44.5447417" lon="8.7608967"><ele>747.0</ele><time>2026-04-04T11:04:59.099Z</time></trkpt><trkpt lat="44.544735" lon="8.7607517"><ele>747.0</ele><time>2026-04-04T11:05:00.097Z</time></trkpt><trkpt lat="44.5447133" lon="8.7606033"><ele>747.0</ele><time>2026-04-04T11:05:01.102Z</time></trkpt><trkpt lat="44.5446867" lon="8.760465"><ele>747.0</ele><time>2026-04-04T11:05:02.1Z</time></trkpt><trkpt lat="44.5446833" lon="8.760335"><ele>747.0</ele><time>2026-04-04T11:05:03.1Z</time></trkpt><trkpt lat="44.5446917" lon="8.76022"><ele>747.0</ele><time>2026-04-04T11:05:04.099Z</time></trkpt><trkpt lat="44.5447133" lon="8.7601083"><ele>746.2</ele><time>2026-04-04T11:05:05.101Z</time></trkpt><trkpt lat="44.54473" lon="8.7599867"><ele>745.4000000000001</ele><time>2026-04-04T11:05:06.103Z</time></trkpt><trkpt lat="44.5447267" lon="8.7598567"><ele>744.5999999999999</ele><time>2026-04-04T11:05:07.102Z</time></trkpt><trkpt lat="44.544705" lon="8.7597383"><ele>743.8</ele><time>2026-04-04T11:05:08.107Z</time></trkpt><trkpt lat="44.54466" lon="8.7596017"><ele>743.0</ele><time>2026-04-04T11:05:09.101Z</time></trkpt><trkpt lat="44.54462" lon="8.75946"><ele>744.25</ele><time>2026-04-04T11:05:10.101Z</time></trkpt><trkpt lat="44.5445833" lon="8.7593117"><ele>745.5</ele><time>2026-04-04T11:05:11.105Z</time></trkpt><trkpt lat="44.5445483" lon="8.7591533"><ele>746.75</ele><time>2026-04-04T11:05:12.1Z</time></trkpt><trkpt lat="44.5445283" lon="8.7589883"><ele>748.0</ele><time>2026-04-04T11:05:13.101Z</time></trkpt><trkpt lat="44.544515" lon="8.7588217"><ele>742.25</ele><time>2026-04-04T11:05:14.098Z</time></trkpt><trkpt lat="44.5445017" lon="8.758655"><ele>736.5</ele><time>2026-04-04T11:05:15.104Z</time></trkpt><trkpt lat="44.5444967" lon="8.7584917"><ele>730.75</ele><time>2026-04-04T11:05:16.104Z</time></trkpt><trkpt lat="44.54449" lon="8.7583233"><ele>725.0</ele><time>2026-04-04T11:05:17.099Z</time></trkpt><trkpt lat="44.5444933" lon="8.7581767"><ele>725.0</ele><time>2026-04-04T11:05:18.1Z</time></trkpt><trkpt lat="44.5444983" lon="8.7580433"><ele>725.0</ele><time>2026-04-04T11:05:19.106Z</time></trkpt><trkpt lat="44.5445067" lon="8.757925"><ele>725.0</ele><time>2026-04-04T11:05:20.099Z</time></trkpt><trkpt lat="44.5445217" lon="8.7578167"><ele>725.0</ele><time>2026-04-04T11:05:21.107Z</time></trkpt><trkpt lat="44.5445683" lon="8.75771"><ele>725.0</ele><time>2026-04-04T11:05:22.096Z</time></trkpt><trkpt lat="44.5446383" lon="8.7576317"><ele>725.0</ele><time>2026-04-04T11:05:23.1Z</time></trkpt><trkpt lat="44.544735" lon="8.75758"><ele>726.75</ele><time>2026-04-04T11:05:24.097Z</time></trkpt><trkpt lat="44.5448633" lon="8.7575567"><ele>728.5</ele><time>2026-04-04T11:05:25.102Z</time></trkpt><trkpt lat="44.5450033" lon="8.75752"><ele>730.25</ele><time>2026-04-04T11:05:26.103Z</time></trkpt><trkpt lat="44.5451133" lon="8.7574683"><ele>732.0</ele><time>2026-04-04T11:05:27.104Z</time></trkpt><trkpt lat="44.54522" lon="8.75742"><ele>732.0</ele><time>2026-04-04T11:05:28.102Z</time></trkpt><trkpt lat="44.5453383" lon="8.7574"><ele>732.0</ele><time>2026-04-04T11:05:29.103Z</time></trkpt><trkpt lat="44.545465" lon="8.757375"><ele>732.0</ele><time>2026-04-04T11:05:30.101Z</time></trkpt><trkpt lat="44.5456033" lon="8.7573567"><ele>732.0</ele><time>2026-04-04T11:05:31.106Z</time></trkpt><trkpt lat="44.5457417" lon="8.7573217"><ele>733.5</ele><time>2026-04-04T11:05:32.103Z</time></trkpt><trkpt lat="44.5458783" lon="8.7572933"><ele>735.0</ele><time>2026-04-04T11:05:33.107Z</time></trkpt><trkpt lat="44.5459983" lon="8.7572667"><ele>736.5</ele><time>2026-04-04T11:05:34.102Z</time></trkpt><trkpt lat="44.5461133" lon="8.7572383"><ele>738.0</ele><time>2026-04-04T11:05:35.103Z</time></trkpt><trkpt lat="44.5462017" lon="8.7572067"><ele>739.0</ele><time>2026-04-04T11:05:36.101Z</time></trkpt><trkpt lat="44.5462717" lon="8.75717"><ele>740.0</ele><time>2026-04-04T11:05:37.105Z</time></trkpt><trkpt lat="44.54633" lon="8.7570567"><ele>741.0</ele><time>2026-04-04T11:05:39.099Z</time></trkpt><trkpt lat="44.546305" lon="8.7568767"><ele>742.0</ele><time>2026-04-04T11:05:41.104Z</time></trkpt><trkpt lat="44.54629" lon="8.7567583"><ele>743.0</ele><time>2026-04-04T11:05:42.101Z</time></trkpt><trkpt lat="44.5462833" lon="8.756615"><ele>743.0</ele><time>2026-04-04T11:05:43.1Z</time></trkpt><trkpt lat="44.5463" lon="8.7564733"><ele>743.0</ele><time>2026-04-04T11:05:44.103Z</time></trkpt><trkpt lat="44.5463267" lon="8.756335"><ele>743.0</ele><time>2026-04-04T11:05:45.098Z</time></trkpt><trkpt lat="44.5463533" lon="8.7562133"><ele>743.0</ele><time>2026-04-04T11:05:46.1Z</time></trkpt><trkpt lat="44.5463833" lon="8.7560933"><ele>743.0</ele><time>2026-04-04T11:05:47.101Z</time></trkpt><trkpt lat="44.546415" lon="8.7559783"><ele>742.0</ele><time>2026-04-04T11:05:48.101Z</time></trkpt><trkpt lat="44.5464417" lon="8.755875"><ele>741.0</ele><time>2026-04-04T11:05:49.099Z</time></trkpt><trkpt lat="44.5464683" lon="8.75577"><ele>740.0</ele><time>2026-04-04T11:05:50.106Z</time></trkpt><trkpt lat="44.5465033" lon="8.7556683"><ele>739.0</ele><time>2026-04-04T11:05:51.1Z</time></trkpt><trkpt lat="44.5465367" lon="8.7555583"><ele>738.0</ele><time>2026-04-04T11:05:52.104Z</time></trkpt><trkpt lat="44.546565" lon="8.7554433"><ele>737.0</ele><time>2026-04-04T11:05:53.101Z</time></trkpt><trkpt lat="44.5465967" lon="8.755325"><ele>734.6</ele><time>2026-04-04T11:05:54.103Z</time></trkpt><trkpt lat="44.5466267" lon="8.7552017"><ele>732.2</ele><time>2026-04-04T11:05:55.102Z</time></trkpt><trkpt lat="44.546665" lon="8.755075"><ele>729.8</ele><time>2026-04-04T11:05:56.104Z</time></trkpt><trkpt lat="44.5467033" lon="8.7549417"><ele>727.4</ele><time>2026-04-04T11:05:57.105Z</time></trkpt><trkpt lat="44.5467317" lon="8.754805"><ele>725.0</ele><time>2026-04-04T11:05:58.103Z</time></trkpt><trkpt lat="44.5467583" lon="8.75466"><ele>725.0</ele><time>2026-04-04T11:05:59.106Z</time></trkpt><trkpt lat="44.5467767" lon="8.7545133"><ele>725.0</ele><time>2026-04-04T11:06:00.102Z</time></trkpt><trkpt lat="44.5468017" lon="8.7543633"><ele>725.0</ele><time>2026-04-04T11:06:01.104Z</time></trkpt><trkpt lat="44.546815" lon="8.75421"><ele>725.0</ele><time>2026-04-04T11:06:02.105Z</time></trkpt><trkpt lat="44.5468183" lon="8.7540567"><ele>725.0</ele><time>2026-04-04T11:06:03.1Z</time></trkpt><trkpt lat="44.5468183" lon="8.75391"><ele>724.2</ele><time>2026-04-04T11:06:04.098Z</time></trkpt><trkpt lat="44.5468067" lon="8.75377"><ele>723.4</ele><time>2026-04-04T11:06:05.098Z</time></trkpt><trkpt lat="44.54676" lon="8.7536467"><ele>722.5999999999999</ele><time>2026-04-04T11:06:06.105Z</time></trkpt><trkpt lat="44.5467217" lon="8.75351"><ele>721.8</ele><time>2026-04-04T11:06:07.101Z</time></trkpt><trkpt lat="44.546675" lon="8.7533783"><ele>721.0</ele><time>2026-04-04T11:06:08.101Z</time></trkpt><trkpt lat="44.546635" lon="8.75326"><ele>721.0</ele><time>2026-04-04T11:06:09.099Z</time></trkpt><trkpt lat="44.5465917" lon="8.75313"><ele>721.0</ele><time>2026-04-04T11:06:10.11Z</time></trkpt><trkpt lat="44.5465517" lon="8.7530117"><ele>721.0</ele><time>2026-04-04T11:06:11.104Z</time></trkpt><trkpt lat="44.5465067" lon="8.7529033"><ele>721.0</ele><time>2026-04-04T11:06:12.114Z</time></trkpt><trkpt lat="44.5464817" lon="8.7527833"><ele>721.0</ele><time>2026-04-04T11:06:13.103Z</time></trkpt><trkpt lat="44.5464717" lon="8.7526617"><ele>720.5999999999999</ele><time>2026-04-04T11:06:14.099Z</time></trkpt><trkpt lat="44.5464783" lon="8.7525283"><ele>720.2</ele><time>2026-04-04T11:06:15.105Z</time></trkpt><trkpt lat="44.5465017" lon="8.752395"><ele>719.8</ele><time>2026-04-04T11:06:16.102Z</time></trkpt><trkpt lat="44.5465233" lon="8.7522483"><ele>719.4000000000001</ele><time>2026-04-04T11:06:17.099Z</time></trkpt><trkpt lat="44.54652" lon="8.7521083"><ele>719.0</ele><time>2026-04-04T11:06:18.103Z</time></trkpt><trkpt lat="44.5465" lon="8.7519617"><ele>719.0</ele><time>2026-04-04T11:06:19.107Z</time></trkpt><trkpt lat="44.5464667" lon="8.75182"><ele>719.0</ele><time>2026-04-04T11:06:20.106Z</time></trkpt><trkpt lat="44.54643" lon="8.7516917"><ele>719.0</ele><time>2026-04-04T11:06:21.102Z</time></trkpt><trkpt lat="44.5463717" lon="8.7515817"><ele>719.0</ele><time>2026-04-04T11:06:22.104Z</time></trkpt><trkpt lat="44.5463017" lon="8.7514767"><ele>719.0</ele><time>2026-04-04T11:06:23.11Z</time></trkpt><trkpt lat="44.54622" lon="8.7513833"><ele>713.0</ele><time>2026-04-04T11:06:24.108Z</time></trkpt><trkpt lat="44.54614" lon="8.7512867"><ele>707.0</ele><time>2026-04-04T11:06:25.105Z</time></trkpt><trkpt lat="44.5460683" lon="8.7511883"><ele>701.0</ele><time>2026-04-04T11:06:26.102Z</time></trkpt><trkpt lat="44.546015" lon="8.7510833"><ele>695.0</ele><time>2026-04-04T11:06:27.103Z</time></trkpt><trkpt lat="44.545975" lon="8.7509767"><ele>689.0</ele><time>2026-04-04T11:06:28.1Z</time></trkpt><trkpt lat="44.545955" lon="8.7508533"><ele>689.0</ele><time>2026-04-04T11:06:29.098Z</time></trkpt><trkpt lat="44.5459633" lon="8.75072"><ele>689.0</ele><time>2026-04-04T11:06:30.102Z</time></trkpt><trkpt lat="44.5459633" lon="8.7505783"><ele>689.0</ele><time>2026-04-04T11:06:31.107Z</time></trkpt><trkpt lat="44.5459383" lon="8.75045"><ele>689.0</ele><time>2026-04-04T11:06:32.105Z</time></trkpt><trkpt lat="44.5459083" lon="8.7503183"><ele>689.0</ele><time>2026-04-04T11:06:33.102Z</time></trkpt><trkpt lat="44.5458583" lon="8.7502067"><ele>689.4000000000001</ele><time>2026-04-04T11:06:34.105Z</time></trkpt><trkpt lat="44.545785" lon="8.7501217"><ele>689.8</ele><time>2026-04-04T11:06:35.101Z</time></trkpt><trkpt lat="44.545705" lon="8.7500583"><ele>690.2</ele><time>2026-04-04T11:06:36.101Z</time></trkpt><trkpt lat="44.5456433" lon="8.7499983"><ele>690.5999999999999</ele><time>2026-04-04T11:06:37.103Z</time></trkpt><trkpt lat="44.5455933" lon="8.7499367"><ele>691.0</ele><time>2026-04-04T11:06:38.103Z</time></trkpt><trkpt lat="44.5455433" lon="8.7497783"><ele>691.0</ele><time>2026-04-04T11:06:40.103Z</time></trkpt><trkpt lat="44.5455667" lon="8.7496367"><ele>691.0</ele><time>2026-04-04T11:06:41.103Z</time></trkpt><trkpt lat="44.54557" lon="8.7495"><ele>691.0</ele><time>2026-04-04T11:06:42.101Z</time></trkpt><trkpt lat="44.5455817" lon="8.749355"><ele>691.0</ele><time>2026-04-04T11:06:43.103Z</time></trkpt><trkpt lat="44.545595" lon="8.7492017"><ele>691.0</ele><time>2026-04-04T11:06:44.104Z</time></trkpt><trkpt lat="44.5456067" lon="8.749055"><ele>691.0</ele><time>2026-04-04T11:06:45.111Z</time></trkpt><trkpt lat="44.5456233" lon="8.748915"><ele>691.0</ele><time>2026-04-04T11:06:46.111Z</time></trkpt><trkpt lat="44.5456533" lon="8.748775"><ele>691.0</ele><time>2026-04-04T11:06:47.1Z</time></trkpt><trkpt lat="44.5456833" lon="8.7486383"><ele>691.0</ele><time>2026-04-04T11:06:48.103Z</time></trkpt><trkpt lat="44.5457017" lon="8.7485067"><ele>691.0</ele><time>2026-04-04T11:06:49.102Z</time></trkpt><trkpt lat="44.5456767" lon="8.748395"><ele>691.0</ele><time>2026-04-04T11:06:50.097Z</time></trkpt><trkpt lat="44.5456533" lon="8.7482883"><ele>691.0</ele><time>2026-04-04T11:06:51.105Z</time></trkpt><trkpt lat="44.5455883" lon="8.7482033"><ele>691.0</ele><time>2026-04-04T11:06:52.102Z</time></trkpt><trkpt lat="44.5455067" lon="8.7481183"><ele>691.0</ele><time>2026-04-04T11:06:53.101Z</time></trkpt><trkpt lat="44.5454283" lon="8.7480283"><ele>691.0</ele><time>2026-04-04T11:06:54.1Z</time></trkpt><trkpt lat="44.54537" lon="8.7479217"><ele>686.1999999999999</ele><time>2026-04-04T11:06:55.101Z</time></trkpt><trkpt lat="44.5453333" lon="8.7478017"><ele>681.4</ele><time>2026-04-04T11:06:56.1Z</time></trkpt><trkpt lat="44.5453233" lon="8.747675"><ele>676.6</ele><time>2026-04-04T11:06:57.101Z</time></trkpt><trkpt lat="44.5453233" lon="8.7475467"><ele>671.8</ele><time>2026-04-04T11:06:58.102Z</time></trkpt><trkpt lat="44.54531" lon="8.74742"><ele>667.0</ele><time>2026-04-04T11:06:59.103Z</time></trkpt><trkpt lat="44.5452667" lon="8.7473117"><ele>667.0</ele><time>2026-04-04T11:07:00.098Z</time></trkpt><trkpt lat="44.5452033" lon="8.747215"><ele>667.0</ele><time>2026-04-04T11:07:01.101Z</time></trkpt><trkpt lat="44.54513" lon="8.747135"><ele>667.0</ele><time>2026-04-04T11:07:02.101Z</time></trkpt><trkpt lat="44.54503" lon="8.747075"><ele>667.0</ele><time>2026-04-04T11:07:03.102Z</time></trkpt><trkpt lat="44.544945" lon="8.7469817"><ele>667.0</ele><time>2026-04-04T11:07:04.099Z</time></trkpt><trkpt lat="44.5448883" lon="8.7468583"><ele>667.6666666666667</ele><time>2026-04-04T11:07:05.101Z</time></trkpt><trkpt lat="44.544845" lon="8.74673"><ele>668.3333333333334</ele><time>2026-04-04T11:07:06.1Z</time></trkpt><trkpt lat="44.544825" lon="8.746605"><ele>669.0</ele><time>2026-04-04T11:07:07.112Z</time></trkpt><trkpt lat="44.5448067" lon="8.7464783"><ele>669.6666666666666</ele><time>2026-04-04T11:07:08.105Z</time></trkpt><trkpt lat="44.5447733" lon="8.74638"><ele>670.3333333333333</ele><time>2026-04-04T11:07:09.097Z</time></trkpt><trkpt lat="44.544725" lon="8.746305"><ele>671.0</ele><time>2026-04-04T11:07:10.1Z</time></trkpt><trkpt lat="44.5446617" lon="8.7462567"><ele>671.0</ele><time>2026-04-04T11:07:11.109Z</time></trkpt><trkpt lat="44.5446" lon="8.7462267"><ele>671.0</ele><time>2026-04-04T11:07:12.102Z</time></trkpt><trkpt lat="44.5445083" lon="8.7461233"><ele>671.0</ele><time>2026-04-04T11:07:14.101Z</time></trkpt><trkpt lat="44.5445033" lon="8.7460233"><ele>671.0</ele><time>2026-04-04T11:07:15.1Z</time></trkpt><trkpt lat="44.5445017" lon="8.7459267"><ele>671.0</ele><time>2026-04-04T11:07:16.1Z</time></trkpt><trkpt lat="44.5445133" lon="8.74582"><ele>671.0</ele><time>2026-04-04T11:07:17.103Z</time></trkpt><trkpt lat="44.5445533" lon="8.7457017"><ele>670.5999999999999</ele><time>2026-04-04T11:07:18.1Z</time></trkpt><trkpt lat="44.544605" lon="8.74558"><ele>670.2</ele><time>2026-04-04T11:07:19.105Z</time></trkpt><trkpt lat="44.544665" lon="8.74546"><ele>669.8</ele><time>2026-04-04T11:07:20.105Z</time></trkpt><trkpt lat="44.544705" lon="8.7453267"><ele>669.4000000000001</ele><time>2026-04-04T11:07:21.105Z</time></trkpt><trkpt lat="44.5447267" lon="8.74518"><ele>669.0</ele><time>2026-04-04T11:07:22.099Z</time></trkpt><trkpt lat="44.54475" lon="8.7450333"><ele>669.0</ele><time>2026-04-04T11:07:23.102Z</time></trkpt><trkpt lat="44.5447717" lon="8.7449083"><ele>669.0</ele><time>2026-04-04T11:07:24.107Z</time></trkpt><trkpt lat="44.544795" lon="8.7447983"><ele>669.0</ele><time>2026-04-04T11:07:25.109Z</time></trkpt><trkpt lat="44.5448067" lon="8.744695"><ele>669.0</ele><time>2026-04-04T11:07:26.103Z</time></trkpt><trkpt lat="44.5448017" lon="8.7445967"><ele>669.0</ele><time>2026-04-04T11:07:27.103Z</time></trkpt><trkpt lat="44.5446867" lon="8.744495"><ele>669.0</ele><time>2026-04-04T11:07:29.102Z</time></trkpt><trkpt lat="44.544625" lon="8.7444417"><ele>669.0</ele><time>2026-04-04T11:07:30.098Z</time></trkpt><trkpt lat="44.5445483" lon="8.7443983"><ele>669.0</ele><time>2026-04-04T11:07:31.111Z</time></trkpt><trkpt lat="44.544475" lon="8.7443467"><ele>669.0</ele><time>2026-04-04T11:07:32.108Z</time></trkpt><trkpt lat="44.54441" lon="8.7442733"><ele>669.0</ele><time>2026-04-04T11:07:33.102Z</time></trkpt><trkpt lat="44.5443583" lon="8.7441783"><ele>669.0</ele><time>2026-04-04T11:07:34.104Z</time></trkpt><trkpt lat="44.5443067" lon="8.74407"><ele>666.0</ele><time>2026-04-04T11:07:35.101Z</time></trkpt><trkpt lat="44.54425" lon="8.7439583"><ele>663.0</ele><time>2026-04-04T11:07:36.102Z</time></trkpt><trkpt lat="44.5442033" lon="8.7438217"><ele>660.0</ele><time>2026-04-04T11:07:37.106Z</time></trkpt><trkpt lat="44.54417" lon="8.7436717"><ele>657.0</ele><time>2026-04-04T11:07:38.1Z</time></trkpt><trkpt lat="44.544155" lon="8.743515"><ele>654.0</ele><time>2026-04-04T11:07:39.099Z</time></trkpt><trkpt lat="44.54415" lon="8.7433483"><ele>654.0</ele><time>2026-04-04T11:07:40.108Z</time></trkpt><trkpt lat="44.544145" lon="8.74317"><ele>654.0</ele><time>2026-04-04T11:07:41.102Z</time></trkpt><trkpt lat="44.5441267" lon="8.7429933"><ele>654.0</ele><time>2026-04-04T11:07:42.097Z</time></trkpt><trkpt lat="44.5441133" lon="8.7428133"><ele>654.0</ele><time>2026-04-04T11:07:43.1Z</time></trkpt><trkpt lat="44.5441117" lon="8.742645"><ele>654.3333333333334</ele><time>2026-04-04T11:07:44.101Z</time></trkpt><trkpt lat="44.5441083" lon="8.742495"><ele>654.6666666666666</ele><time>2026-04-04T11:07:45.102Z</time></trkpt><trkpt lat="44.5441033" lon="8.7423633"><ele>655.0</ele><time>2026-04-04T11:07:46.104Z</time></trkpt><trkpt lat="44.5440767" lon="8.7422583"><ele>655.3333333333333</ele><time>2026-04-04T11:07:47.105Z</time></trkpt><trkpt lat="44.54404" lon="8.7421617"><ele>655.6666666666666</ele><time>2026-04-04T11:07:48.106Z</time></trkpt><trkpt lat="44.5439783" lon="8.7421083"><ele>656.0</ele><time>2026-04-04T11:07:49.101Z</time></trkpt><trkpt lat="44.54391" lon="8.7420533"><ele>656.0</ele><time>2026-04-04T11:07:50.111Z</time></trkpt><trkpt lat="44.5438317" lon="8.7419833"><ele>656.0</ele><time>2026-04-04T11:07:51.109Z</time></trkpt><trkpt lat="44.5437533" lon="8.7418933"><ele>656.0</ele><time>2026-04-04T11:07:52.098Z</time></trkpt><trkpt lat="44.5436683" lon="8.7417833"><ele>656.0</ele><time>2026-04-04T11:07:53.101Z</time></trkpt><trkpt lat="44.543585" lon="8.7416417"><ele>656.0</ele><time>2026-04-04T11:07:54.105Z</time></trkpt><trkpt lat="44.5434933" lon="8.7414883"><ele>658.0</ele><time>2026-04-04T11:07:55.113Z</time></trkpt><trkpt lat="44.543395" lon="8.7413333"><ele>660.0</ele><time>2026-04-04T11:07:56.103Z</time></trkpt><trkpt lat="44.5432917" lon="8.7411683"><ele>662.0</ele><time>2026-04-04T11:07:57.1Z</time></trkpt><trkpt lat="44.5431883" lon="8.741005"><ele>662.0</ele><time>2026-04-04T11:07:58.102Z</time></trkpt><trkpt lat="44.5431033" lon="8.74084"><ele>662.0</ele><time>2026-04-04T11:07:59.098Z</time></trkpt><trkpt lat="44.54303" lon="8.7406833"><ele>662.0</ele><time>2026-04-04T11:08:00.097Z</time></trkpt><trkpt lat="44.5429567" lon="8.74054"><ele>662.0</ele><time>2026-04-04T11:08:01.101Z</time></trkpt><trkpt lat="44.5428767" lon="8.740435"><ele>660.0</ele><time>2026-04-04T11:08:02.1Z</time></trkpt><trkpt lat="44.5428083" lon="8.74035"><ele>658.0</ele><time>2026-04-04T11:08:03.099Z</time></trkpt><trkpt lat="44.5427517" lon="8.7402767"><ele>656.0</ele><time>2026-04-04T11:08:04.103Z</time></trkpt><trkpt lat="44.5427067" lon="8.7402033"><ele>654.0</ele><time>2026-04-04T11:08:05.099Z</time></trkpt><trkpt lat="44.542665" lon="8.74012"><ele>652.0</ele><time>2026-04-04T11:08:06.099Z</time></trkpt><trkpt lat="44.54263" lon="8.7400167"><ele>650.0</ele><time>2026-04-04T11:08:07.099Z</time></trkpt><trkpt lat="44.5425983" lon="8.73989"><ele>650.0</ele><time>2026-04-04T11:08:08.103Z</time></trkpt><trkpt lat="44.5425467" lon="8.7397517"><ele>650.0</ele><time>2026-04-04T11:08:09.102Z</time></trkpt><trkpt lat="44.5424967" lon="8.7396117"><ele>650.0</ele><time>2026-04-04T11:08:10.099Z</time></trkpt><trkpt lat="44.54242" lon="8.73952"><ele>650.0</ele><time>2026-04-04T11:08:11.106Z</time></trkpt><trkpt lat="44.5423467" lon="8.7394433"><ele>650.0</ele><time>2026-04-04T11:08:12.101Z</time></trkpt><trkpt lat="44.5422817" lon="8.739365"><ele>652.6666666666666</ele><time>2026-04-04T11:08:13.102Z</time></trkpt><trkpt lat="44.5422383" lon="8.7392817"><ele>655.3333333333333</ele><time>2026-04-04T11:08:14.099Z</time></trkpt><trkpt lat="44.542215" lon="8.7391767"><ele>658.0</ele><time>2026-04-04T11:08:15.104Z</time></trkpt><trkpt lat="44.542205" lon="8.7390767"><ele>660.6666666666666</ele><time>2026-04-04T11:08:16.105Z</time></trkpt><trkpt lat="44.5422067" lon="8.7389883"><ele>663.3333333333334</ele><time>2026-04-04T11:08:17.107Z</time></trkpt><trkpt lat="44.5422" lon="8.7388717"><ele>666.0</ele><time>2026-04-04T11:08:19.099Z</time></trkpt><trkpt lat="44.5421533" lon="8.73876"><ele>666.0</ele><time>2026-04-04T11:08:53.1Z</time></trkpt><trkpt lat="44.542105" lon="8.738615"><ele>666.0</ele><time>2026-04-04T11:08:55.114Z</time></trkpt><trkpt lat="44.5420933" lon="8.7385233"><ele>666.0</ele><time>2026-04-04T11:08:56.105Z</time></trkpt><trkpt lat="44.54208" lon="8.738425"><ele>666.0</ele><time>2026-04-04T11:08:57.104Z</time></trkpt><trkpt lat="44.5420717" lon="8.7383167"><ele>666.0</ele><time>2026-04-04T11:08:58.101Z</time></trkpt><trkpt lat="44.54206" lon="8.7381867"><ele>666.0</ele><time>2026-04-04T11:08:59.11Z</time></trkpt><trkpt lat="44.542035" lon="8.7380483"><ele>663.0</ele><time>2026-04-04T11:09:00.098Z</time></trkpt><trkpt lat="44.542005" lon="8.737895"><ele>660.0</ele><time>2026-04-04T11:09:01.103Z</time></trkpt><trkpt lat="44.5419683" lon="8.73775"><ele>657.0</ele><time>2026-04-04T11:09:02.107Z</time></trkpt><trkpt lat="44.5419333" lon="8.7376217"><ele>654.0</ele><time>2026-04-04T11:09:03.103Z</time></trkpt><trkpt lat="44.5418967" lon="8.7375183"><ele>651.0</ele><time>2026-04-04T11:09:04.104Z</time></trkpt><trkpt lat="44.5418717" lon="8.7374133"><ele>651.0</ele><time>2026-04-04T11:09:05.1Z</time></trkpt><trkpt lat="44.5418567" lon="8.7372517"><ele>651.0</ele><time>2026-04-04T11:09:07.103Z</time></trkpt><trkpt lat="44.5418833" lon="8.7371583"><ele>651.0</ele><time>2026-04-04T11:09:08.1Z</time></trkpt><trkpt lat="44.5419217" lon="8.7370483"><ele>651.0</ele><time>2026-04-04T11:09:09.104Z</time></trkpt><trkpt lat="44.5419667" lon="8.73691"><ele>651.0</ele><time>2026-04-04T11:09:10.1Z</time></trkpt><trkpt lat="44.5420117" lon="8.73676"><ele>659.25</ele><time>2026-04-04T11:09:11.101Z</time></trkpt><trkpt lat="44.54206" lon="8.7365967"><ele>667.5</ele><time>2026-04-04T11:09:12.099Z</time></trkpt><trkpt lat="44.54211" lon="8.7364383"><ele>675.75</ele><time>2026-04-04T11:09:13.103Z</time></trkpt><trkpt lat="44.542165" lon="8.7362867"><ele>684.0</ele><time>2026-04-04T11:09:14.103Z</time></trkpt><trkpt lat="44.5422133" lon="8.7361467"><ele>681.6</ele><time>2026-04-04T11:09:15.099Z</time></trkpt><trkpt lat="44.54226" lon="8.7360117"><ele>679.2</ele><time>2026-04-04T11:09:16.103Z</time></trkpt><trkpt lat="44.542315" lon="8.73589"><ele>676.8000000000001</ele><time>2026-04-04T11:09:17.103Z</time></trkpt><trkpt lat="44.5423933" lon="8.73579"><ele>674.4000000000001</ele><time>2026-04-04T11:09:18.105Z</time></trkpt><trkpt lat="44.5424767" lon="8.7356833"><ele>672.0</ele><time>2026-04-04T11:09:19.103Z</time></trkpt><trkpt lat="44.542575" lon="8.735585"><ele>672.0</ele><time>2026-04-04T11:09:20.101Z</time></trkpt><trkpt lat="44.5426617" lon="8.7354817"><ele>672.0</ele><time>2026-04-04T11:09:21.101Z</time></trkpt><trkpt lat="44.542735" lon="8.7353683"><ele>672.0</ele><time>2026-04-04T11:09:22.101Z</time></trkpt><trkpt lat="44.54279" lon="8.73525"><ele>672.0</ele><time>2026-04-04T11:09:23.103Z</time></trkpt><trkpt lat="44.5428183" lon="8.735105"><ele>672.0</ele><time>2026-04-04T11:09:24.099Z</time></trkpt><trkpt lat="44.5428317" lon="8.734945"><ele>669.5</ele><time>2026-04-04T11:09:25.099Z</time></trkpt><trkpt lat="44.542835" lon="8.7347767"><ele>667.0</ele><time>2026-04-04T11:09:26.097Z</time></trkpt><trkpt lat="44.5428367" lon="8.7346017"><ele>664.5</ele><time>2026-04-04T11:09:27.101Z</time></trkpt><trkpt lat="44.5428283" lon="8.7344167"><ele>662.0</ele><time>2026-04-04T11:09:28.1Z</time></trkpt><trkpt lat="44.542805" lon="8.7342317"><ele>662.0</ele><time>2026-04-04T11:09:29.099Z</time></trkpt><trkpt lat="44.54277" lon="8.73405"><ele>662.0</ele><time>2026-04-04T11:09:30.1Z</time></trkpt><trkpt lat="44.5427133" lon="8.733885"><ele>662.0</ele><time>2026-04-04T11:09:31.102Z</time></trkpt><trkpt lat="44.5426567" lon="8.7337483"><ele>662.0</ele><time>2026-04-04T11:09:32.101Z</time></trkpt><trkpt lat="44.5426117" lon="8.7336317"><ele>663.5</ele><time>2026-04-04T11:09:33.097Z</time></trkpt><trkpt lat="44.5425867" lon="8.733515"><ele>665.0</ele><time>2026-04-04T11:09:34.1Z</time></trkpt><trkpt lat="44.5425733" lon="8.7334117"><ele>666.5</ele><time>2026-04-04T11:09:35.113Z</time></trkpt><trkpt lat="44.542585" lon="8.733315"><ele>668.0</ele><time>2026-04-04T11:09:36.099Z</time></trkpt><trkpt lat="44.542605" lon="8.7331517"><ele>669.5</ele><time>2026-04-04T11:09:38.105Z</time></trkpt><trkpt lat="44.5425533" lon="8.733035"><ele>671.0</ele><time>2026-04-04T11:09:40.105Z</time></trkpt><trkpt lat="44.54248" lon="8.73303"><ele>671.0</ele><time>2026-04-04T11:09:41.106Z</time></trkpt><trkpt lat="44.5424033" lon="8.73302"><ele>671.0</ele><time>2026-04-04T11:09:42.105Z</time></trkpt><trkpt lat="44.5423117" lon="8.73301"><ele>671.0</ele><time>2026-04-04T11:09:43.108Z</time></trkpt><trkpt lat="44.5422317" lon="8.7329667"><ele>671.0</ele><time>2026-04-04T11:09:44.105Z</time></trkpt><trkpt lat="44.5421517" lon="8.7329083"><ele>671.0</ele><time>2026-04-04T11:09:45.096Z</time></trkpt><trkpt lat="44.5420733" lon="8.73284"><ele>671.0</ele><time>2026-04-04T11:09:46.102Z</time></trkpt><trkpt lat="44.541995" lon="8.7327683"><ele>672.1666666666666</ele><time>2026-04-04T11:09:47.107Z</time></trkpt><trkpt lat="44.541925" lon="8.7326883"><ele>673.3333333333333</ele><time>2026-04-04T11:09:48.1Z</time></trkpt><trkpt lat="44.54184" lon="8.732655"><ele>674.5</ele><time>2026-04-04T11:09:49.1Z</time></trkpt><trkpt lat="44.5417567" lon="8.7326367"><ele>675.6666666666666</ele><time>2026-04-04T11:09:50.1Z</time></trkpt><trkpt lat="44.5416817" lon="8.7326567"><ele>676.8333333333334</ele><time>2026-04-04T11:09:51.101Z</time></trkpt><trkpt lat="44.541605" lon="8.7327467"><ele>678.0</ele><time>2026-04-04T11:09:52.109Z</time></trkpt><trkpt lat="44.5415383" lon="8.7327917"><ele>678.0</ele><time>2026-04-04T11:09:53.101Z</time></trkpt><trkpt lat="44.5414667" lon="8.7328267"><ele>678.0</ele><time>2026-04-04T11:09:54.099Z</time></trkpt><trkpt lat="44.541385" lon="8.7327233"><ele>678.0</ele><time>2026-04-04T11:09:56.098Z</time></trkpt><trkpt lat="44.54133" lon="8.7325517"><ele>678.0</ele><time>2026-04-04T11:09:58.097Z</time></trkpt><trkpt lat="44.5413017" lon="8.73246"><ele>678.0</ele><time>2026-04-04T11:09:59.104Z</time></trkpt><trkpt lat="44.5412667" lon="8.7323733"><ele>676.0</ele><time>2026-04-04T11:10:00.099Z</time></trkpt><trkpt lat="44.541205" lon="8.732325"><ele>674.0</ele><time>2026-04-04T11:10:01.104Z</time></trkpt><trkpt lat="44.54114" lon="8.7322917"><ele>672.0</ele><time>2026-04-04T11:10:02.104Z</time></trkpt><trkpt lat="44.5410583" lon="8.7322817"><ele>670.0</ele><time>2026-04-04T11:10:03.111Z</time></trkpt><trkpt lat="44.5409667" lon="8.7322683"><ele>668.0</ele><time>2026-04-04T11:10:04.107Z</time></trkpt><trkpt lat="44.5408517" lon="8.732285"><ele>666.0</ele><time>2026-04-04T11:10:05.102Z</time></trkpt><trkpt lat="44.540745" lon="8.7322983"><ele>666.0</ele><time>2026-04-04T11:10:06.101Z</time></trkpt><trkpt lat="44.540635" lon="8.7323183"><ele>666.0</ele><time>2026-04-04T11:10:07.106Z</time></trkpt><trkpt lat="44.54053" lon="8.7323183"><ele>666.0</ele><time>2026-04-04T11:10:08.101Z</time></trkpt><trkpt lat="44.5404317" lon="8.7323167"><ele>666.0</ele><time>2026-04-04T11:10:09.101Z</time></trkpt><trkpt lat="44.540345" lon="8.732325"><ele>666.0</ele><time>2026-04-04T11:10:10.096Z</time></trkpt><trkpt lat="44.5402617" lon="8.7323367"><ele>662.8</ele><time>2026-04-04T11:10:11.101Z</time></trkpt><trkpt lat="44.5401467" lon="8.7322533"><ele>659.5999999999999</ele><time>2026-04-04T11:10:13.1Z</time></trkpt><trkpt lat="44.5400983" lon="8.7321683"><ele>656.4</ele><time>2026-04-04T11:10:14.103Z</time></trkpt><trkpt lat="44.540025" lon="8.7321133"><ele>653.2</ele><time>2026-04-04T11:10:15.101Z</time></trkpt><trkpt lat="44.539945" lon="8.7320733"><ele>650.0</ele><time>2026-04-04T11:10:16.099Z</time></trkpt><trkpt lat="44.5398317" lon="8.73206"><ele>650.0</ele><time>2026-04-04T11:10:17.101Z</time></trkpt><trkpt lat="44.539745" lon="8.7320117"><ele>650.0</ele><time>2026-04-04T11:10:18.1Z</time></trkpt><trkpt lat="44.5396567" lon="8.731935"><ele>650.0</ele><time>2026-04-04T11:10:19.102Z</time></trkpt><trkpt lat="44.5395633" lon="8.7319033"><ele>650.0</ele><time>2026-04-04T11:10:20.098Z</time></trkpt><trkpt lat="44.5394683" lon="8.73189"><ele>650.0</ele><time>2026-04-04T11:10:21.102Z</time></trkpt><trkpt lat="44.53939" lon="8.73189"><ele>650.5</ele><time>2026-04-04T11:10:22.099Z</time></trkpt><trkpt lat="44.53931" lon="8.7318767"><ele>651.0</ele><time>2026-04-04T11:10:23.101Z</time></trkpt><trkpt lat="44.5392367" lon="8.7318633"><ele>651.5</ele><time>2026-04-04T11:10:24.103Z</time></trkpt><trkpt lat="44.5391933" lon="8.731735"><ele>652.0</ele><time>2026-04-04T11:10:26.098Z</time></trkpt><trkpt lat="44.5392033" lon="8.73161"><ele>652.5</ele><time>2026-04-04T11:10:27.103Z</time></trkpt><trkpt lat="44.5392133" lon="8.7315133"><ele>653.0</ele><time>2026-04-04T11:10:28.103Z</time></trkpt><trkpt lat="44.5392283" lon="8.7314083"><ele>653.0</ele><time>2026-04-04T11:10:29.11Z</time></trkpt><trkpt lat="44.5392383" lon="8.7312867"><ele>653.0</ele><time>2026-04-04T11:10:30.098Z</time></trkpt><trkpt lat="44.53926" lon="8.7311283"><ele>653.0</ele><time>2026-04-04T11:10:31.103Z</time></trkpt><trkpt lat="44.5392683" lon="8.7309567"><ele>653.0</ele><time>2026-04-04T11:10:32.102Z</time></trkpt><trkpt lat="44.5392433" lon="8.7308083"><ele>653.0</ele><time>2026-04-04T11:10:33.097Z</time></trkpt><trkpt lat="44.5391733" lon="8.7306717"><ele>654.0</ele><time>2026-04-04T11:10:34.101Z</time></trkpt><trkpt lat="44.5391167" lon="8.7305467"><ele>655.0</ele><time>2026-04-04T11:10:35.106Z</time></trkpt><trkpt lat="44.53909" lon="8.7304167"><ele>656.0</ele><time>2026-04-04T11:10:36.108Z</time></trkpt><trkpt lat="44.5390683" lon="8.7302933"><ele>657.0</ele><time>2026-04-04T11:10:37.099Z</time></trkpt><trkpt lat="44.5390533" lon="8.7301733"><ele>658.0</ele><time>2026-04-04T11:10:38.099Z</time></trkpt><trkpt lat="44.5390533" lon="8.73004"><ele>659.5999999999999</ele><time>2026-04-04T11:10:39.098Z</time></trkpt><trkpt lat="44.5390383" lon="8.7299183"><ele>661.1999999999999</ele><time>2026-04-04T11:10:40.106Z</time></trkpt><trkpt lat="44.5390117" lon="8.7298067"><ele>662.8</ele><time>2026-04-04T11:10:41.103Z</time></trkpt><trkpt lat="44.5389783" lon="8.72969"><ele>664.4</ele><time>2026-04-04T11:10:42.1Z</time></trkpt><trkpt lat="44.53893" lon="8.7295783"><ele>666.0</ele><time>2026-04-04T11:10:43.105Z</time></trkpt><trkpt lat="44.538865" lon="8.7294717"><ele>666.0</ele><time>2026-04-04T11:10:44.102Z</time></trkpt><trkpt lat="44.5387733" lon="8.7293933"><ele>666.0</ele><time>2026-04-04T11:10:45.096Z</time></trkpt><trkpt lat="44.538675" lon="8.729325"><ele>666.0</ele><time>2026-04-04T11:10:46.099Z</time></trkpt><trkpt lat="44.5385633" lon="8.7292633"><ele>666.0</ele><time>2026-04-04T11:10:47.1Z</time></trkpt><trkpt lat="44.53845" lon="8.729185"><ele>662.75</ele><time>2026-04-04T11:10:48.1Z</time></trkpt><trkpt lat="44.5383267" lon="8.7291217"><ele>659.5</ele><time>2026-04-04T11:10:49.104Z</time></trkpt><trkpt lat="44.538205" lon="8.7290533"><ele>656.25</ele><time>2026-04-04T11:10:50.102Z</time></trkpt><trkpt lat="44.5380917" lon="8.7289833"><ele>653.0</ele><time>2026-04-04T11:10:51.101Z</time></trkpt><trkpt lat="44.5379733" lon="8.728935"><ele>651.25</ele><time>2026-04-04T11:10:52.098Z</time></trkpt><trkpt lat="44.5378267" lon="8.728955"><ele>649.5</ele><time>2026-04-04T11:10:53.102Z</time></trkpt><trkpt lat="44.53771" lon="8.7289767"><ele>647.75</ele><time>2026-04-04T11:10:54.097Z</time></trkpt><trkpt lat="44.53757" lon="8.729025"><ele>646.0</ele><time>2026-04-04T11:10:55.098Z</time></trkpt><trkpt lat="44.5374367" lon="8.729075"><ele>646.0</ele><time>2026-04-04T11:10:56.1Z</time></trkpt><trkpt lat="44.5373133" lon="8.7291017"><ele>646.0</ele><time>2026-04-04T11:10:57.107Z</time></trkpt><trkpt lat="44.5371917" lon="8.7290967"><ele>646.0</ele><time>2026-04-04T11:10:58.099Z</time></trkpt><trkpt lat="44.5370833" lon="8.7290433"><ele>646.0</ele><time>2026-04-04T11:10:59.1Z</time></trkpt><trkpt lat="44.53698" lon="8.7289767"><ele>639.75</ele><time>2026-04-04T11:11:00.1Z</time></trkpt><trkpt lat="44.5368833" lon="8.7288817"><ele>633.5</ele><time>2026-04-04T11:11:01.109Z</time></trkpt><trkpt lat="44.5367717" lon="8.728805"><ele>627.25</ele><time>2026-04-04T11:11:02.101Z</time></trkpt><trkpt lat="44.5366617" lon="8.72873"><ele>621.0</ele><time>2026-04-04T11:11:03.104Z</time></trkpt><trkpt lat="44.5365667" lon="8.72865"><ele>621.0</ele><time>2026-04-04T11:11:04.104Z</time></trkpt><trkpt lat="44.536485" lon="8.7285767"><ele>621.0</ele><time>2026-04-04T11:11:05.099Z</time></trkpt><trkpt lat="44.53645" lon="8.7284717"><ele>621.0</ele><time>2026-04-04T11:11:06.1Z</time></trkpt><trkpt lat="44.5364033" lon="8.7283867"><ele>621.0</ele><time>2026-04-04T11:11:07.099Z</time></trkpt><trkpt lat="44.5363783" lon="8.728295"><ele>621.0</ele><time>2026-04-04T11:11:08.103Z</time></trkpt><trkpt lat="44.5363617" lon="8.728195"><ele>621.0</ele><time>2026-04-04T11:11:09.101Z</time></trkpt><trkpt lat="44.53644" lon="8.7280333"><ele>627.0</ele><time>2026-04-04T11:11:10.104Z</time></trkpt><trkpt lat="44.5365283" lon="8.727875"><ele>633.0</ele><time>2026-04-04T11:11:11.105Z</time></trkpt><trkpt lat="44.53659" lon="8.7277"><ele>639.0</ele><time>2026-04-04T11:11:12.107Z</time></trkpt><trkpt lat="44.5366" lon="8.7275467"><ele>645.0</ele><time>2026-04-04T11:11:13.102Z</time></trkpt><trkpt lat="44.5365867" lon="8.7273917"><ele>645.8</ele><time>2026-04-04T11:11:14.1Z</time></trkpt><trkpt lat="44.5365617" lon="8.7272583"><ele>646.6</ele><time>2026-04-04T11:11:15.101Z</time></trkpt><trkpt lat="44.5365317" lon="8.7271333"><ele>647.4000000000001</ele><time>2026-04-04T11:11:16.1Z</time></trkpt><trkpt lat="44.536455" lon="8.7270567"><ele>648.2</ele><time>2026-04-04T11:11:17.098Z</time></trkpt><trkpt lat="44.53636" lon="8.726995"><ele>649.0</ele><time>2026-04-04T11:11:18.101Z</time></trkpt><trkpt lat="44.5362667" lon="8.7269283"><ele>644.4000000000001</ele><time>2026-04-04T11:11:19.099Z</time></trkpt><trkpt lat="44.536165" lon="8.72692"><ele>639.8000000000001</ele><time>2026-04-04T11:11:20.097Z</time></trkpt><trkpt lat="44.5360667" lon="8.7269483"><ele>635.2</ele><time>2026-04-04T11:11:21.1Z</time></trkpt><trkpt lat="44.53597" lon="8.7270067"><ele>630.6</ele><time>2026-04-04T11:11:22.102Z</time></trkpt><trkpt lat="44.5358867" lon="8.7270867"><ele>626.0</ele><time>2026-04-04T11:11:23.098Z</time></trkpt><trkpt lat="44.5358217" lon="8.72715"><ele>626.0</ele><time>2026-04-04T11:11:24.102Z</time></trkpt><trkpt lat="44.535755" lon="8.727185"><ele>626.0</ele><time>2026-04-04T11:11:25.099Z</time></trkpt><trkpt lat="44.5356833" lon="8.72722"><ele>626.0</ele><time>2026-04-04T11:11:26.1Z</time></trkpt><trkpt lat="44.5355933" lon="8.727155"><ele>626.0</ele><time>2026-04-04T11:11:27.099Z</time></trkpt><trkpt lat="44.5354983" lon="8.7271083"><ele>626.0</ele><time>2026-04-04T11:11:28.103Z</time></trkpt><trkpt lat="44.5353983" lon="8.72707"><ele>625.2</ele><time>2026-04-04T11:11:29.098Z</time></trkpt><trkpt lat="44.5352917" lon="8.7270433"><ele>624.4000000000001</ele><time>2026-04-04T11:11:30.103Z</time></trkpt><trkpt lat="44.5351983" lon="8.7270067"><ele>623.6</ele><time>2026-04-04T11:11:31.101Z</time></trkpt><trkpt lat="44.5351033" lon="8.7269833"><ele>622.8000000000001</ele><time>2026-04-04T11:11:32.104Z</time></trkpt><trkpt lat="44.5350117" lon="8.72697"><ele>622.0</ele><time>2026-04-04T11:11:33.104Z</time></trkpt><trkpt lat="44.5349183" lon="8.7269783"><ele>622.0</ele><time>2026-04-04T11:11:34.101Z</time></trkpt><trkpt lat="44.5348233" lon="8.7270083"><ele>622.0</ele><time>2026-04-04T11:11:35.11Z</time></trkpt><trkpt lat="44.5347217" lon="8.727045"><ele>622.0</ele><time>2026-04-04T11:11:36.106Z</time></trkpt><trkpt lat="44.53462" lon="8.7270933"><ele>622.0</ele><time>2026-04-04T11:11:37.096Z</time></trkpt><trkpt lat="44.5345183" lon="8.7271717"><ele>622.0</ele><time>2026-04-04T11:11:38.097Z</time></trkpt><trkpt lat="44.53442" lon="8.7272617"><ele>623.75</ele><time>2026-04-04T11:11:39.104Z</time></trkpt><trkpt lat="44.5343267" lon="8.7273617"><ele>625.5</ele><time>2026-04-04T11:11:40.102Z</time></trkpt><trkpt lat="44.534225" lon="8.7274633"><ele>627.25</ele><time>2026-04-04T11:11:41.099Z</time></trkpt><trkpt lat="44.5341233" lon="8.7275533"><ele>629.0</ele><time>2026-04-04T11:11:42.103Z</time></trkpt><trkpt lat="44.5340383" lon="8.72762"><ele>629.0</ele><time>2026-04-04T11:11:43.1Z</time></trkpt><trkpt lat="44.5339467" lon="8.727675"><ele>629.0</ele><time>2026-04-04T11:11:44.101Z</time></trkpt><trkpt lat="44.5338" lon="8.7276717"><ele>629.0</ele><time>2026-04-04T11:11:46.101Z</time></trkpt><trkpt lat="44.5337133" lon="8.72764"><ele>629.0</ele><time>2026-04-04T11:11:47.102Z</time></trkpt><trkpt lat="44.5336167" lon="8.7276367"><ele>629.0</ele><time>2026-04-04T11:11:48.103Z</time></trkpt><trkpt lat="44.5334967" lon="8.7276267"><ele>627.8</ele><time>2026-04-04T11:11:49.101Z</time></trkpt><trkpt lat="44.533405" lon="8.7276017"><ele>626.5999999999999</ele><time>2026-04-04T11:11:50.103Z</time></trkpt><trkpt lat="44.5333183" lon="8.727575"><ele>625.4</ele><time>2026-04-04T11:11:51.099Z</time></trkpt><trkpt lat="44.53323" lon="8.72755"><ele>624.1999999999999</ele><time>2026-04-04T11:11:52.101Z</time></trkpt><trkpt lat="44.533125" lon="8.7275417"><ele>623.0</ele><time>2026-04-04T11:11:53.103Z</time></trkpt><trkpt lat="44.53302" lon="8.7275217"><ele>623.0</ele><time>2026-04-04T11:11:54.1Z</time></trkpt><trkpt lat="44.5329433" lon="8.7274933"><ele>623.0</ele><time>2026-04-04T11:11:55.104Z</time></trkpt><trkpt lat="44.5328733" lon="8.72746"><ele>623.0</ele><time>2026-04-04T11:11:56.099Z</time></trkpt><trkpt lat="44.53283" lon="8.727345"><ele>623.0</ele><time>2026-04-04T11:11:58.1Z</time></trkpt><trkpt lat="44.53282" lon="8.7271833"><ele>623.0</ele><time>2026-04-04T11:12:00.098Z</time></trkpt><trkpt lat="44.5328217" lon="8.7270817"><ele>623.0</ele><time>2026-04-04T11:12:01.103Z</time></trkpt><trkpt lat="44.5327983" lon="8.7269683"><ele>619.4</ele><time>2026-04-04T11:12:02.099Z</time></trkpt><trkpt lat="44.5327767" lon="8.726855"><ele>615.8</ele><time>2026-04-04T11:12:03.104Z</time></trkpt><trkpt lat="44.5327567" lon="8.726745"><ele>612.2</ele><time>2026-04-04T11:12:04.097Z</time></trkpt><trkpt lat="44.532685" lon="8.72664"><ele>608.6</ele><time>2026-04-04T11:12:05.099Z</time></trkpt><trkpt lat="44.532625" lon="8.7265133"><ele>605.0</ele><time>2026-04-04T11:12:06.1Z</time></trkpt><trkpt lat="44.5325467" lon="8.7264"><ele>605.0</ele><time>2026-04-04T11:12:07.098Z</time></trkpt><trkpt lat="44.532465" lon="8.726275"><ele>605.0</ele><time>2026-04-04T11:12:08.106Z</time></trkpt><trkpt lat="44.53234" lon="8.7261533"><ele>605.0</ele><time>2026-04-04T11:12:09.102Z</time></trkpt><trkpt lat="44.5322267" lon="8.7260367"><ele>605.0</ele><time>2026-04-04T11:12:10.102Z</time></trkpt><trkpt lat="44.5321233" lon="8.7259183"><ele>601.5</ele><time>2026-04-04T11:12:11.101Z</time></trkpt><trkpt lat="44.5320133" lon="8.7258083"><ele>598.0</ele><time>2026-04-04T11:12:12.1Z</time></trkpt><trkpt lat="44.5319217" lon="8.725695"><ele>594.5</ele><time>2026-04-04T11:12:13.101Z</time></trkpt><trkpt lat="44.5318317" lon="8.7255867"><ele>591.0</ele><time>2026-04-04T11:12:14.102Z</time></trkpt><trkpt lat="44.5317567" lon="8.7254817"><ele>591.0</ele><time>2026-04-04T11:12:15.105Z</time></trkpt><trkpt lat="44.5316867" lon="8.7253983"><ele>591.0</ele><time>2026-04-04T11:12:16.1Z</time></trkpt><trkpt lat="44.5316267" lon="8.7253167"><ele>591.0</ele><time>2026-04-04T11:12:17.099Z</time></trkpt><trkpt lat="44.5315717" lon="8.7252567"><ele>591.0</ele><time>2026-04-04T11:12:18.104Z</time></trkpt><trkpt lat="44.5314983" lon="8.7251217"><ele>591.0</ele><time>2026-04-04T11:12:20.1Z</time></trkpt><trkpt lat="44.5314883" lon="8.72493"><ele>591.8</ele><time>2026-04-04T11:12:22.11Z</time></trkpt><trkpt lat="44.5314967" lon="8.72481"><ele>592.6</ele><time>2026-04-04T11:12:23.103Z</time></trkpt><trkpt lat="44.5315083" lon="8.7246867"><ele>593.4</ele><time>2026-04-04T11:12:24.109Z</time></trkpt><trkpt lat="44.5315183" lon="8.7245633"><ele>594.2</ele><time>2026-04-04T11:12:25.098Z</time></trkpt><trkpt lat="44.531525" lon="8.72443"><ele>595.0</ele><time>2026-04-04T11:12:26.097Z</time></trkpt><trkpt lat="44.531575" lon="8.7242833"><ele>592.4</ele><time>2026-04-04T11:12:27.099Z</time></trkpt><trkpt lat="44.5316433" lon="8.72412"><ele>589.8</ele><time>2026-04-04T11:12:28.098Z</time></trkpt><trkpt lat="44.53168" lon="8.72397"><ele>587.2</ele><time>2026-04-04T11:12:29.101Z</time></trkpt><trkpt lat="44.5317017" lon="8.7238283"><ele>584.6</ele><time>2026-04-04T11:12:30.099Z</time></trkpt><trkpt lat="44.5317333" lon="8.7236983"><ele>582.0</ele><time>2026-04-04T11:12:31.1Z</time></trkpt><trkpt lat="44.5317817" lon="8.7236"><ele>581.4</ele><time>2026-04-04T11:12:32.101Z</time></trkpt><trkpt lat="44.531835" lon="8.7235133"><ele>580.8000000000001</ele><time>2026-04-04T11:12:33.099Z</time></trkpt><trkpt lat="44.5319183" lon="8.72346"><ele>580.2</ele><time>2026-04-04T11:12:34.1Z</time></trkpt><trkpt lat="44.532025" lon="8.7234333"><ele>579.6</ele><time>2026-04-04T11:12:35.104Z</time></trkpt><trkpt lat="44.5320933" lon="8.7233633"><ele>579.0</ele><time>2026-04-04T11:12:36.108Z</time></trkpt><trkpt lat="44.532165" lon="8.723295"><ele>579.0</ele><time>2026-04-04T11:12:37.107Z</time></trkpt><trkpt lat="44.5322067" lon="8.723215"><ele>579.0</ele><time>2026-04-04T11:12:38.101Z</time></trkpt><trkpt lat="44.5322433" lon="8.7230533"><ele>579.0</ele><time>2026-04-04T11:12:40.103Z</time></trkpt><trkpt lat="44.53208" lon="8.7228833"><ele>579.0</ele><time>2026-04-04T11:12:42.105Z</time></trkpt><trkpt lat="44.5319183" lon="8.7227933"><ele>588.6666666666666</ele><time>2026-04-04T11:12:43.103Z</time></trkpt><trkpt lat="44.5318017" lon="8.7226783"><ele>598.3333333333333</ele><time>2026-04-04T11:12:44.104Z</time></trkpt><trkpt lat="44.5316467" lon="8.7226167"><ele>608.0</ele><time>2026-04-04T11:12:45.104Z</time></trkpt><trkpt lat="44.531505" lon="8.72256"><ele>608.0</ele><time>2026-04-04T11:12:46.101Z</time></trkpt><trkpt lat="44.53136" lon="8.7225117"><ele>608.0</ele><time>2026-04-04T11:12:47.101Z</time></trkpt><trkpt lat="44.5311033" lon="8.722665"><ele>608.0</ele><time>2026-04-04T11:12:48.108Z</time></trkpt><trkpt lat="44.53098" lon="8.7226717"><ele>596.75</ele><time>2026-04-04T11:12:49.107Z</time></trkpt><trkpt lat="44.5308067" lon="8.7228217"><ele>585.5</ele><time>2026-04-04T11:12:50.099Z</time></trkpt><trkpt lat="44.530705" lon="8.7229167"><ele>574.25</ele><time>2026-04-04T11:12:51.097Z</time></trkpt><trkpt lat="44.5305983" lon="8.722955"><ele>563.0</ele><time>2026-04-04T11:12:52.1Z</time></trkpt><trkpt lat="44.5304783" lon="8.7229533"><ele>562.0</ele><time>2026-04-04T11:12:53.1Z</time></trkpt><trkpt lat="44.5303567" lon="8.7229567"><ele>561.0</ele><time>2026-04-04T11:12:54.098Z</time></trkpt><trkpt lat="44.5302217" lon="8.72297"><ele>560.0</ele><time>2026-04-04T11:12:55.109Z</time></trkpt><trkpt lat="44.530095" lon="8.723"><ele>559.0</ele><time>2026-04-04T11:12:56.101Z</time></trkpt><trkpt lat="44.5299833" lon="8.723025"><ele>559.0</ele><time>2026-04-04T11:12:57.1Z</time></trkpt><trkpt lat="44.5298767" lon="8.7230467"><ele>559.0</ele><time>2026-04-04T11:12:58.101Z</time></trkpt><trkpt lat="44.5297867" lon="8.7230533"><ele>559.0</ele><time>2026-04-04T11:12:59.101Z</time></trkpt><trkpt lat="44.5297067" lon="8.7230383"><ele>559.0</ele><time>2026-04-04T11:13:00.103Z</time></trkpt><trkpt lat="44.5296283" lon="8.723015"><ele>559.0</ele><time>2026-04-04T11:13:01.106Z</time></trkpt><trkpt lat="44.52957" lon="8.7229533"><ele>559.0</ele><time>2026-04-04T11:13:02.102Z</time></trkpt><trkpt lat="44.52955" lon="8.722845"><ele>559.3333333333334</ele><time>2026-04-04T11:13:03.1Z</time></trkpt><trkpt lat="44.529545" lon="8.7227133"><ele>559.6666666666667</ele><time>2026-04-04T11:13:04.104Z</time></trkpt><trkpt lat="44.5295217" lon="8.7225833"><ele>560.0</ele><time>2026-04-04T11:13:05.104Z</time></trkpt><trkpt lat="44.5294767" lon="8.7224883"><ele>560.3333333333334</ele><time>2026-04-04T11:13:06.1Z</time></trkpt><trkpt lat="44.5294217" lon="8.7224"><ele>560.6666666666666</ele><time>2026-04-04T11:13:07.104Z</time></trkpt><trkpt lat="44.5293433" lon="8.7223283"><ele>561.0</ele><time>2026-04-04T11:13:08.101Z</time></trkpt><trkpt lat="44.5292483" lon="8.7222733"><ele>561.0</ele><time>2026-04-04T11:13:09.104Z</time></trkpt><trkpt lat="44.52916" lon="8.7221717"><ele>561.0</ele><time>2026-04-04T11:13:10.103Z</time></trkpt><trkpt lat="44.5290767" lon="8.7220567"><ele>561.0</ele><time>2026-04-04T11:13:11.103Z</time></trkpt><trkpt lat="44.5290033" lon="8.7219133"><ele>561.0</ele><time>2026-04-04T11:13:12.098Z</time></trkpt><trkpt lat="44.5289067" lon="8.7217917"><ele>559.8</ele><time>2026-04-04T11:13:13.1Z</time></trkpt><trkpt lat="44.5288617" lon="8.7216483"><ele>558.6</ele><time>2026-04-04T11:13:14.099Z</time></trkpt><trkpt lat="44.5288183" lon="8.72153"><ele>557.4</ele><time>2026-04-04T11:13:15.098Z</time></trkpt><trkpt lat="44.5287767" lon="8.7214267"><ele>556.2</ele><time>2026-04-04T11:13:16.101Z</time></trkpt><trkpt lat="44.5287233" lon="8.7213417"><ele>555.0</ele><time>2026-04-04T11:13:17.101Z</time></trkpt><trkpt lat="44.52865" lon="8.72127"><ele>555.0</ele><time>2026-04-04T11:13:18.103Z</time></trkpt><trkpt lat="44.528545" lon="8.7212383"><ele>555.0</ele><time>2026-04-04T11:13:19.101Z</time></trkpt><trkpt lat="44.5284733" lon="8.7211717"><ele>555.0</ele><time>2026-04-04T11:13:20.1Z</time></trkpt><trkpt lat="44.52836" lon="8.7211767"><ele>555.0</ele><time>2026-04-04T11:13:21.103Z</time></trkpt><trkpt lat="44.52823" lon="8.7212233"><ele>555.0</ele><time>2026-04-04T11:13:22.099Z</time></trkpt><trkpt lat="44.5280817" lon="8.72125"><ele>555.0</ele><time>2026-04-04T11:13:23.101Z</time></trkpt><trkpt lat="44.52797" lon="8.7212583"><ele>555.0</ele><time>2026-04-04T11:13:24.106Z</time></trkpt><trkpt lat="44.5278817" lon="8.7212667"><ele>555.0</ele><time>2026-04-04T11:13:25.103Z</time></trkpt><trkpt lat="44.5277933" lon="8.7212733"><ele>555.0</ele><time>2026-04-04T11:13:26.1Z</time></trkpt><trkpt lat="44.5277083" lon="8.7212633"><ele>555.0</ele><time>2026-04-04T11:13:27.106Z</time></trkpt><trkpt lat="44.5276633" lon="8.7211767"><ele>553.2</ele><time>2026-04-04T11:13:28.101Z</time></trkpt><trkpt lat="44.5276233" lon="8.7210933"><ele>551.4</ele><time>2026-04-04T11:13:29.102Z</time></trkpt><trkpt lat="44.5275867" lon="8.7209717"><ele>549.6</ele><time>2026-04-04T11:13:30.101Z</time></trkpt><trkpt lat="44.5275517" lon="8.7208233"><ele>547.8</ele><time>2026-04-04T11:13:31.108Z</time></trkpt><trkpt lat="44.52751" lon="8.720605"><ele>546.0</ele><time>2026-04-04T11:13:32.099Z</time></trkpt><trkpt lat="44.527445" lon="8.7204183"><ele>550.0</ele><time>2026-04-04T11:13:33.107Z</time></trkpt><trkpt lat="44.5273733" lon="8.72022"><ele>554.0</ele><time>2026-04-04T11:13:34.098Z</time></trkpt><trkpt lat="44.5272967" lon="8.7200317"><ele>558.0</ele><time>2026-04-04T11:13:35.101Z</time></trkpt><trkpt lat="44.52724" lon="8.7198467"><ele>558.0</ele><time>2026-04-04T11:13:36.098Z</time></trkpt><trkpt lat="44.5271833" lon="8.7196917"><ele>558.0</ele><time>2026-04-04T11:13:37.1Z</time></trkpt><trkpt lat="44.52713" lon="8.71956"><ele>558.0</ele><time>2026-04-04T11:13:38.099Z</time></trkpt><trkpt lat="44.527085" lon="8.7194467"><ele>558.0</ele><time>2026-04-04T11:13:39.1Z</time></trkpt><trkpt lat="44.5270367" lon="8.7193433"><ele>558.0</ele><time>2026-04-04T11:13:40.101Z</time></trkpt><trkpt lat="44.52697" lon="8.7192783"><ele>554.1999999999999</ele><time>2026-04-04T11:13:41.101Z</time></trkpt><trkpt lat="44.52685" lon="8.7192667"><ele>550.4</ele><time>2026-04-04T11:13:42.102Z</time></trkpt><trkpt lat="44.526735" lon="8.7192567"><ele>546.5999999999999</ele><time>2026-04-04T11:13:43.098Z</time></trkpt><trkpt lat="44.5266433" lon="8.7192333"><ele>542.8</ele><time>2026-04-04T11:13:44.098Z</time></trkpt><trkpt lat="44.5265583" lon="8.7191933"><ele>539.0</ele><time>2026-04-04T11:13:45.101Z</time></trkpt><trkpt lat="44.52649" lon="8.7191317"><ele>539.0</ele><time>2026-04-04T11:13:46.099Z</time></trkpt><trkpt lat="44.5264667" lon="8.7190083"><ele>539.0</ele><time>2026-04-04T11:13:47.108Z</time></trkpt><trkpt lat="44.5264383" lon="8.71888"><ele>539.0</ele><time>2026-04-04T11:13:48.102Z</time></trkpt><trkpt lat="44.52642" lon="8.7187167"><ele>539.0</ele><time>2026-04-04T11:13:49.1Z</time></trkpt><trkpt lat="44.5263883" lon="8.71856"><ele>539.0</ele><time>2026-04-04T11:13:50.097Z</time></trkpt><trkpt lat="44.5263267" lon="8.7184133"><ele>539.25</ele><time>2026-04-04T11:13:51.098Z</time></trkpt><trkpt lat="44.5262333" lon="8.7182867"><ele>539.5</ele><time>2026-04-04T11:13:52.103Z</time></trkpt><trkpt lat="44.52612" lon="8.7181833"><ele>539.75</ele><time>2026-04-04T11:13:53.101Z</time></trkpt><trkpt lat="44.5260183" lon="8.7180767"><ele>540.0</ele><time>2026-04-04T11:13:54.107Z</time></trkpt><trkpt lat="44.52592" lon="8.7179867"><ele>536.1666666666666</ele><time>2026-04-04T11:13:55.1Z</time></trkpt><trkpt lat="44.525845" lon="8.7179133"><ele>532.3333333333334</ele><time>2026-04-04T11:13:56.106Z</time></trkpt><trkpt lat="44.5258" lon="8.71784"><ele>528.5</ele><time>2026-04-04T11:13:57.098Z</time></trkpt><trkpt lat="44.52581" lon="8.7177033"><ele>524.6666666666667</ele><time>2026-04-04T11:13:59.098Z</time></trkpt><trkpt lat="44.5258967" lon="8.7176417"><ele>520.8333333333334</ele><time>2026-04-04T11:14:00.101Z</time></trkpt><trkpt lat="44.5259717" lon="8.7175733"><ele>517.0</ele><time>2026-04-04T11:14:01.099Z</time></trkpt><trkpt lat="44.5260333" lon="8.7174933"><ele>517.0</ele><time>2026-04-04T11:14:02.099Z</time></trkpt><trkpt lat="44.5260817" lon="8.7174017"><ele>517.0</ele><time>2026-04-04T11:14:03.098Z</time></trkpt><trkpt lat="44.5261167" lon="8.71729"><ele>517.0</ele><time>2026-04-04T11:14:04.101Z</time></trkpt><trkpt lat="44.5261333" lon="8.7171683"><ele>517.0</ele><time>2026-04-04T11:14:05.1Z</time></trkpt><trkpt lat="44.5261333" lon="8.71703"><ele>517.0</ele><time>2026-04-04T11:14:06.106Z</time></trkpt><trkpt lat="44.526105" lon="8.7168867"><ele>518.4</ele><time>2026-04-04T11:14:07.099Z</time></trkpt><trkpt lat="44.5260467" lon="8.7167317"><ele>519.8000000000001</ele><time>2026-04-04T11:14:08.098Z</time></trkpt><trkpt lat="44.5259917" lon="8.7166083"><ele>521.2</ele><time>2026-04-04T11:14:09.101Z</time></trkpt><trkpt lat="44.5259517" lon="8.7165033"><ele>522.6</ele><time>2026-04-04T11:14:10.101Z</time></trkpt><trkpt lat="44.52592" lon="8.7164183"><ele>524.0</ele><time>2026-04-04T11:14:11.107Z</time></trkpt><trkpt lat="44.5258333" lon="8.71645"><ele>524.0</ele><time>2026-04-04T11:14:12.105Z</time></trkpt><trkpt lat="44.5257583" lon="8.7164783"><ele>524.0</ele><time>2026-04-04T11:14:13.101Z</time></trkpt><trkpt lat="44.52568" lon="8.7164983"><ele>524.0</ele><time>2026-04-04T11:14:14.099Z</time></trkpt><trkpt lat="44.5255767" lon="8.7165283"><ele>524.0</ele><time>2026-04-04T11:14:15.1Z</time></trkpt><trkpt lat="44.5254567" lon="8.7165433"><ele>524.0</ele><time>2026-04-04T11:14:16.104Z</time></trkpt><trkpt lat="44.52531" lon="8.7165217"><ele>520.5</ele><time>2026-04-04T11:14:17.101Z</time></trkpt><trkpt lat="44.525165" lon="8.7165233"><ele>517.0</ele><time>2026-04-04T11:14:18.101Z</time></trkpt><trkpt lat="44.5250233" lon="8.7165417"><ele>513.5</ele><time>2026-04-04T11:14:19.103Z</time></trkpt><trkpt lat="44.52488" lon="8.7165933"><ele>510.0</ele><time>2026-04-04T11:14:20.099Z</time></trkpt><trkpt lat="44.52473" lon="8.7166367"><ele>510.0</ele><time>2026-04-04T11:14:21.099Z</time></trkpt><trkpt lat="44.524585" lon="8.7166833"><ele>510.0</ele><time>2026-04-04T11:14:22.105Z</time></trkpt><trkpt lat="44.52446" lon="8.7167267"><ele>510.0</ele><time>2026-04-04T11:14:23.099Z</time></trkpt><trkpt lat="44.5243417" lon="8.7167683"><ele>510.0</ele><time>2026-04-04T11:14:24.099Z</time></trkpt><trkpt lat="44.5242433" lon="8.7167983"><ele>506.0</ele><time>2026-04-04T11:14:25.101Z</time></trkpt><trkpt lat="44.5241433" lon="8.7167733"><ele>502.0</ele><time>2026-04-04T11:14:26.1Z</time></trkpt><trkpt lat="44.5240417" lon="8.7167367"><ele>498.0</ele><time>2026-04-04T11:14:27.101Z</time></trkpt><trkpt lat="44.5239583" lon="8.71666"><ele>494.0</ele><time>2026-04-04T11:14:28.1Z</time></trkpt><trkpt lat="44.5238867" lon="8.7165433"><ele>490.0</ele><time>2026-04-04T11:14:29.098Z</time></trkpt><trkpt lat="44.5238183" lon="8.7164283"><ele>490.0</ele><time>2026-04-04T11:14:30.101Z</time></trkpt><trkpt lat="44.5237683" lon="8.7163117"><ele>490.0</ele><time>2026-04-04T11:14:31.102Z</time></trkpt><trkpt lat="44.5237483" lon="8.71617"><ele>490.0</ele><time>2026-04-04T11:14:32.104Z</time></trkpt><trkpt lat="44.5237233" lon="8.7160433"><ele>490.0</ele><time>2026-04-04T11:14:33.102Z</time></trkpt><trkpt lat="44.523715" lon="8.7159217"><ele>490.0</ele><time>2026-04-04T11:14:34.102Z</time></trkpt><trkpt lat="44.5237283" lon="8.7158"><ele>490.0</ele><time>2026-04-04T11:14:35.103Z</time></trkpt><trkpt lat="44.523745" lon="8.715685"><ele>490.0</ele><time>2026-04-04T11:14:36.1Z</time></trkpt><trkpt lat="44.5237817" lon="8.71558"><ele>490.0</ele><time>2026-04-04T11:14:37.106Z</time></trkpt><trkpt lat="44.5238233" lon="8.7154433"><ele>490.0</ele><time>2026-04-04T11:14:38.099Z</time></trkpt><trkpt lat="44.5239217" lon="8.7152683"><ele>490.0</ele><time>2026-04-04T11:14:39.1Z</time></trkpt><trkpt lat="44.5239783" lon="8.7150883"><ele>490.0</ele><time>2026-04-04T11:14:40.097Z</time></trkpt><trkpt lat="44.52404" lon="8.7148833"><ele>490.0</ele><time>2026-04-04T11:14:41.109Z</time></trkpt><trkpt lat="44.5240917" lon="8.7146817"><ele>490.0</ele><time>2026-04-04T11:14:42.101Z</time></trkpt><trkpt lat="44.5241383" lon="8.71447"><ele>485.5</ele><time>2026-04-04T11:14:43.101Z</time></trkpt><trkpt lat="44.5241717" lon="8.7142717"><ele>481.0</ele><time>2026-04-04T11:14:44.1Z</time></trkpt><trkpt lat="44.5242" lon="8.7141133"><ele>476.5</ele><time>2026-04-04T11:14:45.1Z</time></trkpt><trkpt lat="44.5242417" lon="8.713965"><ele>472.0</ele><time>2026-04-04T11:14:46.102Z</time></trkpt><trkpt lat="44.524295" lon="8.71383"><ele>472.0</ele><time>2026-04-04T11:14:47.099Z</time></trkpt><trkpt lat="44.5243717" lon="8.7137017"><ele>472.00000000000006</ele><time>2026-04-04T11:14:48.098Z</time></trkpt><trkpt lat="44.5244417" lon="8.7135933"><ele>472.00000000000006</ele><time>2026-04-04T11:14:49.103Z</time></trkpt><trkpt lat="44.524535" lon="8.7135267"><ele>472.0</ele><time>2026-04-04T11:14:50.101Z</time></trkpt><trkpt lat="44.5246217" lon="8.7134667"><ele>472.0</ele><time>2026-04-04T11:14:51.098Z</time></trkpt><trkpt lat="44.5247" lon="8.7133933"><ele>473.1666666666667</ele><time>2026-04-04T11:14:52.098Z</time></trkpt><trkpt lat="44.524755" lon="8.7133233"><ele>474.33333333333337</ele><time>2026-04-04T11:14:53.106Z</time></trkpt><trkpt lat="44.5248233" lon="8.7132617"><ele>475.5</ele><time>2026-04-04T11:14:54.102Z</time></trkpt><trkpt lat="44.5248967" lon="8.7132283"><ele>476.66666666666663</ele><time>2026-04-04T11:14:55.1Z</time></trkpt><trkpt lat="44.52495" lon="8.71317"><ele>477.8333333333333</ele><time>2026-04-04T11:14:56.102Z</time></trkpt><trkpt lat="44.5249967" lon="8.7130533"><ele>479.0</ele><time>2026-04-04T11:14:58.107Z</time></trkpt><trkpt lat="44.5248617" lon="8.7129267"><ele>478.99999999999994</ele><time>2026-04-04T11:15:00.103Z</time></trkpt><trkpt lat="44.5248267" lon="8.71284"><ele>479.0</ele><time>2026-04-04T11:15:01.105Z</time></trkpt><trkpt lat="44.5247967" lon="8.7127133"><ele>479.0</ele><time>2026-04-04T11:15:02.103Z</time></trkpt><trkpt lat="44.5247717" lon="8.7126167"><ele>479.0</ele><time>2026-04-04T11:15:03.104Z</time></trkpt><trkpt lat="44.524765" lon="8.7125267"><ele>478.99999999999994</ele><time>2026-04-04T11:15:04.099Z</time></trkpt><trkpt lat="44.5247683" lon="8.7123983"><ele>479.0</ele><time>2026-04-04T11:15:05.101Z</time></trkpt><trkpt lat="44.5248333" lon="8.7123317"><ele>474.2</ele><time>2026-04-04T11:15:06.104Z</time></trkpt><trkpt lat="44.5249333" lon="8.7122433"><ele>469.4</ele><time>2026-04-04T11:15:08.101Z</time></trkpt><trkpt lat="44.525005" lon="8.7122183"><ele>464.6</ele><time>2026-04-04T11:15:09.099Z</time></trkpt><trkpt lat="44.5251033" lon="8.71218"><ele>459.8</ele><time>2026-04-04T11:15:10.101Z</time></trkpt><trkpt lat="44.5252" lon="8.71212"><ele>455.0</ele><time>2026-04-04T11:15:11.108Z</time></trkpt><trkpt lat="44.5252783" lon="8.712065"><ele>455.0</ele><time>2026-04-04T11:15:12.1Z</time></trkpt><trkpt lat="44.525335" lon="8.7119867"><ele>455.0</ele><time>2026-04-04T11:15:13.1Z</time></trkpt><trkpt lat="44.525365" lon="8.7118717"><ele>455.0</ele><time>2026-04-04T11:15:14.104Z</time></trkpt><trkpt lat="44.5253683" lon="8.71173"><ele>455.0</ele><time>2026-04-04T11:15:15.102Z</time></trkpt><trkpt lat="44.5253833" lon="8.7116083"><ele>455.0</ele><time>2026-04-04T11:15:16.101Z</time></trkpt><trkpt lat="44.5253783" lon="8.7114567"><ele>457.6</ele><time>2026-04-04T11:15:17.1Z</time></trkpt><trkpt lat="44.5253917" lon="8.71132"><ele>460.2</ele><time>2026-04-04T11:15:18.101Z</time></trkpt><trkpt lat="44.5254267" lon="8.7112"><ele>462.79999999999995</ele><time>2026-04-04T11:15:19.102Z</time></trkpt><trkpt lat="44.52548" lon="8.71109"><ele>465.4</ele><time>2026-04-04T11:15:20.108Z</time></trkpt><trkpt lat="44.525595" lon="8.71099"><ele>468.0</ele><time>2026-04-04T11:15:21.103Z</time></trkpt><trkpt lat="44.5256633" lon="8.7108767"><ele>462.59999999999997</ele><time>2026-04-04T11:15:22.1Z</time></trkpt><trkpt lat="44.525745" lon="8.7107783"><ele>457.19999999999993</ele><time>2026-04-04T11:15:23.101Z</time></trkpt><trkpt lat="44.525825" lon="8.7106733"><ele>451.8</ele><time>2026-04-04T11:15:24.098Z</time></trkpt><trkpt lat="44.5259167" lon="8.71059"><ele>446.4</ele><time>2026-04-04T11:15:25.101Z</time></trkpt><trkpt lat="44.5260133" lon="8.7105117"><ele>441.0</ele><time>2026-04-04T11:15:26.102Z</time></trkpt><trkpt lat="44.5261033" lon="8.7104167"><ele>441.0</ele><time>2026-04-04T11:15:27.098Z</time></trkpt><trkpt lat="44.526205" lon="8.7103833"><ele>441.0</ele><time>2026-04-04T11:15:28.101Z</time></trkpt><trkpt lat="44.5262983" lon="8.710365"><ele>441.0</ele><time>2026-04-04T11:15:29.1Z</time></trkpt><trkpt lat="44.5263983" lon="8.71039"><ele>441.0</ele><time>2026-04-04T11:15:30.102Z</time></trkpt><trkpt lat="44.5264833" lon="8.7104183"><ele>441.0</ele><time>2026-04-04T11:15:31.102Z</time></trkpt><trkpt lat="44.5265633" lon="8.7104533"><ele>444.1666666666667</ele><time>2026-04-04T11:15:32.101Z</time></trkpt><trkpt lat="44.52664" lon="8.7104533"><ele>447.33333333333337</ele><time>2026-04-04T11:15:33.101Z</time></trkpt><trkpt lat="44.5267167" lon="8.7104433"><ele>450.5</ele><time>2026-04-04T11:15:34.1Z</time></trkpt><trkpt lat="44.52677" lon="8.7103867"><ele>453.6666666666667</ele><time>2026-04-04T11:15:35.103Z</time></trkpt><trkpt lat="44.52682" lon="8.71029"><ele>456.83333333333337</ele><time>2026-04-04T11:15:36.103Z</time></trkpt><trkpt lat="44.5268783" lon="8.7101983"><ele>460.0</ele><time>2026-04-04T11:15:37.105Z</time></trkpt><trkpt lat="44.5269283" lon="8.7100933"><ele>455.4</ele><time>2026-04-04T11:15:38.099Z</time></trkpt><trkpt lat="44.527" lon="8.7100067"><ele>450.8</ele><time>2026-04-04T11:15:39.099Z</time></trkpt><trkpt lat="44.527075" lon="8.7099"><ele>446.20000000000005</ele><time>2026-04-04T11:15:40.103Z</time></trkpt><trkpt lat="44.5271467" lon="8.7098033"><ele>441.6</ele><time>2026-04-04T11:15:41.106Z</time></trkpt><trkpt lat="44.5272083" lon="8.709715"><ele>437.0</ele><time>2026-04-04T11:15:42.101Z</time></trkpt><trkpt lat="44.527275" lon="8.7096333"><ele>437.0</ele><time>2026-04-04T11:15:43.102Z</time></trkpt><trkpt lat="44.5273367" lon="8.7095667"><ele>437.00000000000006</ele><time>2026-04-04T11:15:44.103Z</time></trkpt><trkpt lat="44.527425" lon="8.709555"><ele>437.00000000000006</ele><time>2026-04-04T11:15:45.101Z</time></trkpt><trkpt lat="44.5275233" lon="8.709565"><ele>437.0</ele><time>2026-04-04T11:15:46.101Z</time></trkpt><trkpt lat="44.5276233" lon="8.7095667"><ele>437.0</ele><time>2026-04-04T11:15:47.103Z</time></trkpt><trkpt lat="44.5277283" lon="8.7095517"><ele>437.0</ele><time>2026-04-04T11:15:48.099Z</time></trkpt><trkpt lat="44.5278367" lon="8.7095183"><ele>437.0</ele><time>2026-04-04T11:15:49.1Z</time></trkpt><trkpt lat="44.5279467" lon="8.7094867"><ele>437.0</ele><time>2026-04-04T11:15:50.105Z</time></trkpt><trkpt lat="44.5280633" lon="8.709465"><ele>437.0</ele><time>2026-04-04T11:15:51.109Z</time></trkpt><trkpt lat="44.5281817" lon="8.7094533"><ele>436.8</ele><time>2026-04-04T11:15:52.1Z</time></trkpt><trkpt lat="44.528295" lon="8.709455"><ele>436.6</ele><time>2026-04-04T11:15:53.102Z</time></trkpt><trkpt lat="44.5283983" lon="8.7094817"><ele>436.40000000000003</ele><time>2026-04-04T11:15:54.099Z</time></trkpt><trkpt lat="44.5284883" lon="8.709535"><ele>436.20000000000005</ele><time>2026-04-04T11:15:55.101Z</time></trkpt><trkpt lat="44.528555" lon="8.7096583"><ele>436.0</ele><time>2026-04-04T11:15:56.104Z</time></trkpt><trkpt lat="44.52861" lon="8.709775"><ele>436.00000000000006</ele><time>2026-04-04T11:15:57.104Z</time></trkpt><trkpt lat="44.5286783" lon="8.7098617"><ele>436.0</ele><time>2026-04-04T11:15:58.105Z</time></trkpt><trkpt lat="44.52873" lon="8.7099317"><ele>436.0</ele><time>2026-04-04T11:15:59.102Z</time></trkpt><trkpt lat="44.52878" lon="8.7099967"><ele>436.0</ele><time>2026-04-04T11:16:00.101Z</time></trkpt><trkpt lat="44.52887" lon="8.71006"><ele>436.00000000000006</ele><time>2026-04-04T11:16:02.104Z</time></trkpt><trkpt lat="44.5289683" lon="8.7099817"><ele>436.0</ele><time>2026-04-04T11:16:04.1Z</time></trkpt><trkpt lat="44.5290433" lon="8.7096233"><ele>433.4</ele><time>2026-04-04T11:16:05.104Z</time></trkpt><trkpt lat="44.5291183" lon="8.7094183"><ele>430.8</ele><time>2026-04-04T11:16:06.105Z</time></trkpt><trkpt lat="44.5291767" lon="8.709305"><ele>428.2</ele><time>2026-04-04T11:16:07.106Z</time></trkpt><trkpt lat="44.5292467" lon="8.7092283"><ele>425.59999999999997</ele><time>2026-04-04T11:16:08.105Z</time></trkpt><trkpt lat="44.5293167" lon="8.70917"><ele>423.0</ele><time>2026-04-04T11:16:09.102Z</time></trkpt><trkpt lat="44.5293817" lon="8.7091333"><ele>421.25</ele><time>2026-04-04T11:16:10.109Z</time></trkpt><trkpt lat="44.5294883" lon="8.709285"><ele>419.5</ele><time>2026-04-04T11:16:12.103Z</time></trkpt><trkpt lat="44.52955" lon="8.7093633"><ele>417.75</ele><time>2026-04-04T11:16:13.105Z</time></trkpt><trkpt lat="44.5296217" lon="8.7095"><ele>416.0</ele><time>2026-04-04T11:16:14.104Z</time></trkpt><trkpt lat="44.5297033" lon="8.7096533"><ele>415.99999999999994</ele><time>2026-04-04T11:16:15.1Z</time></trkpt><trkpt lat="44.5297767" lon="8.70979"><ele>416.0</ele><time>2026-04-04T11:16:16.1Z</time></trkpt><trkpt lat="44.52983" lon="8.7098833"><ele>416.0</ele><time>2026-04-04T11:16:17.107Z</time></trkpt><trkpt lat="44.52987" lon="8.70997"><ele>416.0</ele><time>2026-04-04T11:16:18.101Z</time></trkpt><trkpt lat="44.52992" lon="8.7100317"><ele>415.99999999999994</ele><time>2026-04-04T11:16:19.104Z</time></trkpt><trkpt lat="44.5299683" lon="8.709975"><ele>416.0</ele><time>2026-04-04T11:16:21.101Z</time></trkpt><trkpt lat="44.5299633" lon="8.7098417"><ele>415.99999999999994</ele><time>2026-04-04T11:16:24.104Z</time></trkpt><trkpt lat="44.5299317" lon="8.7097183"><ele>416.0</ele><time>2026-04-04T11:16:25.104Z</time></trkpt><trkpt lat="44.529915" lon="8.709615"><ele>416.0</ele><time>2026-04-04T11:16:26.105Z</time></trkpt><trkpt lat="44.5299183" lon="8.709505"><ele>416.0</ele><time>2026-04-04T11:16:27.104Z</time></trkpt><trkpt lat="44.52991" lon="8.70937"><ele>415.99999999999994</ele><time>2026-04-04T11:16:28.105Z</time></trkpt><trkpt lat="44.529915" lon="8.7092383"><ele>416.0</ele><time>2026-04-04T11:16:29.103Z</time></trkpt><trkpt lat="44.5299183" lon="8.7091017"><ele>413.16666666666663</ele><time>2026-04-04T11:16:30.101Z</time></trkpt><trkpt lat="44.529925" lon="8.7089783"><ele>410.3333333333333</ele><time>2026-04-04T11:16:31.108Z</time></trkpt><trkpt lat="44.5299467" lon="8.708855"><ele>407.5</ele><time>2026-04-04T11:16:32.102Z</time></trkpt><trkpt lat="44.5299683" lon="8.7087517"><ele>404.66666666666663</ele><time>2026-04-04T11:16:33.102Z</time></trkpt><trkpt lat="44.52999" lon="8.7086567"><ele>401.8333333333333</ele><time>2026-04-04T11:16:34.102Z</time></trkpt><trkpt lat="44.53002" lon="8.70857"><ele>399.0</ele><time>2026-04-04T11:16:35.099Z</time></trkpt><trkpt lat="44.53007" lon="8.7084983"><ele>397.0</ele><time>2026-04-04T11:16:36.103Z</time></trkpt><trkpt lat="44.5301267" lon="8.70844"><ele>395.0</ele><time>2026-04-04T11:16:37.1Z</time></trkpt><trkpt lat="44.530215" lon="8.70841"><ele>393.0</ele><time>2026-04-04T11:16:38.1Z</time></trkpt><trkpt lat="44.5302983" lon="8.7083883"><ele>391.0</ele><time>2026-04-04T11:16:39.099Z</time></trkpt><trkpt lat="44.53038" lon="8.7083717"><ele>389.0</ele><time>2026-04-04T11:16:40.103Z</time></trkpt><trkpt lat="44.5304667" lon="8.708325"><ele>387.0</ele><time>2026-04-04T11:16:41.103Z</time></trkpt><trkpt lat="44.5305533" lon="8.7082633"><ele>387.0</ele><time>2026-04-04T11:16:42.105Z</time></trkpt><trkpt lat="44.5306533" lon="8.7082317"><ele>387.0</ele><time>2026-04-04T11:16:43.105Z</time></trkpt><trkpt lat="44.5307717" lon="8.7082767"><ele>387.0</ele><time>2026-04-04T11:16:44.104Z</time></trkpt><trkpt lat="44.53088" lon="8.7082833"><ele>387.0</ele><time>2026-04-04T11:16:45.101Z</time></trkpt><trkpt lat="44.5309783" lon="8.7082517"><ele>387.0</ele><time>2026-04-04T11:16:46.104Z</time></trkpt><trkpt lat="44.53108" lon="8.7082067"><ele>387.0</ele><time>2026-04-04T11:16:47.102Z</time></trkpt><trkpt lat="44.5311817" lon="8.7081433"><ele>387.0</ele><time>2026-04-04T11:16:48.104Z</time></trkpt><trkpt lat="44.53128" lon="8.7080783"><ele>387.0</ele><time>2026-04-04T11:16:49.106Z</time></trkpt><trkpt lat="44.5313783" lon="8.7080333"><ele>387.0</ele><time>2026-04-04T11:16:50.104Z</time></trkpt><trkpt lat="44.5314667" lon="8.7080017"><ele>387.0</ele><time>2026-04-04T11:16:51.107Z</time></trkpt><trkpt lat="44.53155" lon="8.7079733"><ele>385.57142857142856</ele><time>2026-04-04T11:16:52.103Z</time></trkpt><trkpt lat="44.5316233" lon="8.707935"><ele>384.14285714285717</ele><time>2026-04-04T11:16:53.102Z</time></trkpt><trkpt lat="44.53169" lon="8.7078967"><ele>382.71428571428567</ele><time>2026-04-04T11:16:54.103Z</time></trkpt><trkpt lat="44.53174" lon="8.7078383"><ele>381.2857142857143</ele><time>2026-04-04T11:16:55.108Z</time></trkpt><trkpt lat="44.5317783" lon="8.7077367"><ele>379.85714285714283</ele><time>2026-04-04T11:16:56.103Z</time></trkpt><trkpt lat="44.5318267" lon="8.70766"><ele>378.4285714285714</ele><time>2026-04-04T11:16:57.103Z</time></trkpt><trkpt lat="44.5318767" lon="8.7075833"><ele>377.0</ele><time>2026-04-04T11:16:58.099Z</time></trkpt><trkpt lat="44.531935" lon="8.7075083"><ele>377.0</ele><time>2026-04-04T11:16:59.101Z</time></trkpt><trkpt lat="44.5319817" lon="8.707425"><ele>377.0</ele><time>2026-04-04T11:17:00.101Z</time></trkpt><trkpt lat="44.5320217" lon="8.7073283"><ele>377.0</ele><time>2026-04-04T11:17:01.101Z</time></trkpt><trkpt lat="44.53205" lon="8.7072367"><ele>377.0</ele><time>2026-04-04T11:17:02.1Z</time></trkpt><trkpt lat="44.53208" lon="8.707125"><ele>377.0</ele><time>2026-04-04T11:17:03.103Z</time></trkpt><trkpt lat="44.5321133" lon="8.7070333"><ele>377.0</ele><time>2026-04-04T11:17:04.102Z</time></trkpt><trkpt lat="44.5321483" lon="8.7069417"><ele>377.0</ele><time>2026-04-04T11:17:05.104Z</time></trkpt><trkpt lat="44.5322017" lon="8.7068583"><ele>377.0</ele><time>2026-04-04T11:17:06.11Z</time></trkpt><trkpt lat="44.5322617" lon="8.70678"><ele>377.0</ele><time>2026-04-04T11:17:07.106Z</time></trkpt><trkpt lat="44.5323233" lon="8.70671"><ele>377.0</ele><time>2026-04-04T11:17:08.103Z</time></trkpt><trkpt lat="44.5323867" lon="8.7066567"><ele>377.0</ele><time>2026-04-04T11:17:09.104Z</time></trkpt><trkpt lat="44.5324533" lon="8.706625"><ele>377.0</ele><time>2026-04-04T11:17:10.103Z</time></trkpt><trkpt lat="44.5325183" lon="8.706615"><ele>377.0</ele><time>2026-04-04T11:17:11.105Z</time></trkpt><trkpt lat="44.53263" lon="8.706695"><ele>377.0</ele><time>2026-04-04T11:17:13.104Z</time></trkpt><trkpt lat="44.5326717" lon="8.70679"><ele>377.0</ele><time>2026-04-04T11:17:14.104Z</time></trkpt><trkpt lat="44.532725" lon="8.706865"><ele>377.0</ele><time>2026-04-04T11:17:15.104Z</time></trkpt><trkpt lat="44.5327633" lon="8.7069817"><ele>377.0</ele><time>2026-04-04T11:17:16.106Z</time></trkpt><trkpt lat="44.5327883" lon="8.7071167"><ele>379.8</ele><time>2026-04-04T11:17:17.109Z</time></trkpt><trkpt lat="44.5328183" lon="8.7072067"><ele>382.6</ele><time>2026-04-04T11:17:18.098Z</time></trkpt><trkpt lat="44.5329" lon="8.7073017"><ele>385.40000000000003</ele><time>2026-04-04T11:17:20.101Z</time></trkpt><trkpt lat="44.532985" lon="8.7073017"><ele>388.20000000000005</ele><time>2026-04-04T11:17:22.099Z</time></trkpt><trkpt lat="44.5330767" lon="8.7071233"><ele>391.0</ele><time>2026-04-04T11:17:24.101Z</time></trkpt><trkpt lat="44.5331267" lon="8.7070433"><ele>391.0</ele><time>2026-04-04T11:17:25.1Z</time></trkpt><trkpt lat="44.53318" lon="8.7069883"><ele>391.0</ele><time>2026-04-04T11:17:26.101Z</time></trkpt><trkpt lat="44.5332767" lon="8.7069"><ele>391.0</ele><time>2026-04-04T11:17:28.104Z</time></trkpt><trkpt lat="44.5333683" lon="8.7069433"><ele>391.0</ele><time>2026-04-04T11:17:30.104Z</time></trkpt><trkpt lat="44.5333917" lon="8.7070367"><ele>391.0</ele><time>2026-04-04T11:17:31.104Z</time></trkpt><trkpt lat="44.5334733" lon="8.7071383"><ele>391.0</ele><time>2026-04-04T11:17:33.105Z</time></trkpt><trkpt lat="44.5335517" lon="8.7071383"><ele>391.0</ele><time>2026-04-04T11:17:35.105Z</time></trkpt><trkpt lat="44.5335983" lon="8.706995"><ele>391.0</ele><time>2026-04-04T11:17:37.101Z</time></trkpt><trkpt lat="44.533665" lon="8.7068567"><ele>391.0</ele><time>2026-04-04T11:17:39.103Z</time></trkpt><trkpt lat="44.5337117" lon="8.706785"><ele>391.0</ele><time>2026-04-04T11:17:40.105Z</time></trkpt><trkpt lat="44.5337667" lon="8.7067017"><ele>390.33333333333337</ele><time>2026-04-04T11:17:41.106Z</time></trkpt><trkpt lat="44.5338217" lon="8.7066083"><ele>389.6666666666667</ele><time>2026-04-04T11:17:42.106Z</time></trkpt><trkpt lat="44.5338733" lon="8.7065067"><ele>389.0</ele><time>2026-04-04T11:17:43.103Z</time></trkpt><trkpt lat="44.5339283" lon="8.7064033"><ele>388.33333333333337</ele><time>2026-04-04T11:17:44.1Z</time></trkpt><trkpt lat="44.5339767" lon="8.7063"><ele>387.6666666666667</ele><time>2026-04-04T11:17:45.1Z</time></trkpt><trkpt lat="44.5340217" lon="8.70619"><ele>387.0</ele><time>2026-04-04T11:17:46.099Z</time></trkpt><trkpt lat="44.534065" lon="8.7060867"><ele>384.40000000000003</ele><time>2026-04-04T11:17:47.101Z</time></trkpt><trkpt lat="44.5341033" lon="8.705995"><ele>381.8</ele><time>2026-04-04T11:17:48.098Z</time></trkpt><trkpt lat="44.534135" lon="8.7058933"><ele>379.2</ele><time>2026-04-04T11:17:50.102Z</time></trkpt><trkpt lat="44.5341317" lon="8.7057683"><ele>376.6</ele><time>2026-04-04T11:17:55.111Z</time></trkpt><trkpt lat="44.5340383" lon="8.705635"><ele>374.0</ele><time>2026-04-04T11:17:57.103Z</time></trkpt><trkpt lat="44.5339883" lon="8.7055483"><ele>374.0</ele><time>2026-04-04T11:17:58.101Z</time></trkpt><trkpt lat="44.5339617" lon="8.7054367"><ele>374.0</ele><time>2026-04-04T11:17:59.101Z</time></trkpt><trkpt lat="44.533945" lon="8.7053017"><ele>374.0</ele><time>2026-04-04T11:18:00.101Z</time></trkpt><trkpt lat="44.5339283" lon="8.7051567"><ele>374.0</ele><time>2026-04-04T11:18:01.102Z</time></trkpt><trkpt lat="44.533905" lon="8.7049967"><ele>374.0</ele><time>2026-04-04T11:18:02.1Z</time></trkpt><trkpt lat="44.533865" lon="8.7048367"><ele>371.25</ele><time>2026-04-04T11:18:03.105Z</time></trkpt><trkpt lat="44.5338217" lon="8.7046833"><ele>368.5</ele><time>2026-04-04T11:18:04.105Z</time></trkpt><trkpt lat="44.5337867" lon="8.7045317"><ele>365.75</ele><time>2026-04-04T11:18:05.098Z</time></trkpt><trkpt lat="44.5337733" lon="8.7043733"><ele>363.0</ele><time>2026-04-04T11:18:06.103Z</time></trkpt><trkpt lat="44.533765" lon="8.7042117"><ele>362.5</ele><time>2026-04-04T11:18:07.099Z</time></trkpt><trkpt lat="44.5337717" lon="8.7040417"><ele>362.0</ele><time>2026-04-04T11:18:08.106Z</time></trkpt><trkpt lat="44.5338033" lon="8.7038533"><ele>361.5</ele><time>2026-04-04T11:18:09.099Z</time></trkpt><trkpt lat="44.5338267" lon="8.7036683"><ele>361.0</ele><time>2026-04-04T11:18:10.1Z</time></trkpt><trkpt lat="44.5338583" lon="8.7034767"><ele>360.75</ele><time>2026-04-04T11:18:11.1Z</time></trkpt><trkpt lat="44.5338967" lon="8.703285"><ele>360.5</ele><time>2026-04-04T11:18:12.104Z</time></trkpt><trkpt lat="44.5339467" lon="8.7030967"><ele>360.25</ele><time>2026-04-04T11:18:13.099Z</time></trkpt><trkpt lat="44.534005" lon="8.7029083"><ele>360.0</ele><time>2026-04-04T11:18:14.103Z</time></trkpt><trkpt lat="44.5340817" lon="8.70273"><ele>362.0</ele><time>2026-04-04T11:18:15.098Z</time></trkpt><trkpt lat="44.5341733" lon="8.70255"><ele>364.0</ele><time>2026-04-04T11:18:16.103Z</time></trkpt><trkpt lat="44.5342667" lon="8.7023767"><ele>366.0</ele><time>2026-04-04T11:18:17.101Z</time></trkpt><trkpt lat="44.534355" lon="8.70221"><ele>366.0</ele><time>2026-04-04T11:18:18.101Z</time></trkpt><trkpt lat="44.5344367" lon="8.70205"><ele>366.0</ele><time>2026-04-04T11:18:19.103Z</time></trkpt><trkpt lat="44.534525" lon="8.7018933"><ele>366.0</ele><time>2026-04-04T11:18:20.11Z</time></trkpt><trkpt lat="44.53462" lon="8.7017367"><ele>366.0</ele><time>2026-04-04T11:18:21.1Z</time></trkpt><trkpt lat="44.534705" lon="8.7015867"><ele>363.75</ele><time>2026-04-04T11:18:22.101Z</time></trkpt><trkpt lat="44.5347867" lon="8.70144"><ele>361.5</ele><time>2026-04-04T11:18:23.104Z</time></trkpt><trkpt lat="44.5348567" lon="8.7013067"><ele>359.25</ele><time>2026-04-04T11:18:24.107Z</time></trkpt><trkpt lat="44.5349317" lon="8.70117"><ele>357.0</ele><time>2026-04-04T11:18:25.104Z</time></trkpt><trkpt lat="44.5350033" lon="8.7010283"><ele>357.0</ele><time>2026-04-04T11:18:26.101Z</time></trkpt><trkpt lat="44.5350683" lon="8.7008833"><ele>357.0</ele><time>2026-04-04T11:18:27.099Z</time></trkpt><trkpt lat="44.535125" lon="8.7007383"><ele>357.0</ele><time>2026-04-04T11:18:28.098Z</time></trkpt><trkpt lat="44.535175" lon="8.7006"><ele>357.0</ele><time>2026-04-04T11:18:29.1Z</time></trkpt><trkpt lat="44.5352267" lon="8.70046"><ele>357.0</ele><time>2026-04-04T11:18:30.106Z</time></trkpt><trkpt lat="44.5352717" lon="8.700325"><ele>357.0</ele><time>2026-04-04T11:18:31.098Z</time></trkpt><trkpt lat="44.53532" lon="8.7001883"><ele>357.0</ele><time>2026-04-04T11:18:32.098Z</time></trkpt><trkpt lat="44.5353517" lon="8.7000483"><ele>357.0</ele><time>2026-04-04T11:18:33.098Z</time></trkpt><trkpt lat="44.53539" lon="8.6999033"><ele>357.0</ele><time>2026-04-04T11:18:34.108Z</time></trkpt><trkpt lat="44.5354267" lon="8.699755"><ele>356.0</ele><time>2026-04-04T11:18:35.103Z</time></trkpt><trkpt lat="44.5354717" lon="8.699615"><ele>355.0</ele><time>2026-04-04T11:18:36.102Z</time></trkpt><trkpt lat="44.5355217" lon="8.6994917"><ele>354.0</ele><time>2026-04-04T11:18:37.099Z</time></trkpt><trkpt lat="44.5355667" lon="8.6993867"><ele>353.0</ele><time>2026-04-04T11:18:38.104Z</time></trkpt><trkpt lat="44.5356117" lon="8.6993033"><ele>352.0</ele><time>2026-04-04T11:18:39.105Z</time></trkpt><trkpt lat="44.5356517" lon="8.6992317"><ele>351.0</ele><time>2026-04-04T11:18:40.105Z</time></trkpt><trkpt lat="44.5357267" lon="8.699155"><ele>351.0</ele><time>2026-04-04T11:18:42.106Z</time></trkpt><trkpt lat="44.5358283" lon="8.6991383"><ele>351.0</ele><time>2026-04-04T11:18:44.101Z</time></trkpt><trkpt lat="44.5358367" lon="8.699035"><ele>351.0</ele><time>2026-04-04T11:18:47.105Z</time></trkpt><trkpt lat="44.5357717" lon="8.6990283"><ele>351.0</ele><time>2026-04-04T11:18:48.098Z</time></trkpt><trkpt lat="44.535645" lon="8.6989933"><ele>351.0</ele><time>2026-04-04T11:18:50.098Z</time></trkpt><trkpt lat="44.535565" lon="8.6989867"><ele>351.0</ele><time>2026-04-04T11:18:51.098Z</time></trkpt><trkpt lat="44.5354817" lon="8.69898"><ele>351.0</ele><time>2026-04-04T11:18:52.103Z</time></trkpt><trkpt lat="44.5353983" lon="8.6989733"><ele>351.0</ele><time>2026-04-04T11:18:53.107Z</time></trkpt><trkpt lat="44.5353" lon="8.698965"><ele>351.0</ele><time>2026-04-04T11:18:54.098Z</time></trkpt><trkpt lat="44.5351933" lon="8.69895"><ele>351.0</ele><time>2026-04-04T11:18:55.102Z</time></trkpt><trkpt lat="44.5350883" lon="8.69896"><ele>351.8</ele><time>2026-04-04T11:18:56.103Z</time></trkpt><trkpt lat="44.5349833" lon="8.698945"><ele>352.6</ele><time>2026-04-04T11:18:57.101Z</time></trkpt><trkpt lat="44.53488" lon="8.6989217"><ele>353.4</ele><time>2026-04-04T11:18:58.102Z</time></trkpt><trkpt lat="44.5347767" lon="8.6989033"><ele>354.2</ele><time>2026-04-04T11:18:59.102Z</time></trkpt><trkpt lat="44.5346833" lon="8.69889"><ele>355.0</ele><time>2026-04-04T11:19:00.102Z</time></trkpt><trkpt lat="44.5345867" lon="8.6988917"><ele>355.3333333333333</ele><time>2026-04-04T11:19:01.101Z</time></trkpt><trkpt lat="44.5344933" lon="8.6988967"><ele>355.66666666666663</ele><time>2026-04-04T11:19:02.107Z</time></trkpt><trkpt lat="44.5344033" lon="8.6989117"><ele>356.0</ele><time>2026-04-04T11:19:03.101Z</time></trkpt><trkpt lat="44.5343283" lon="8.6989383"><ele>356.3333333333333</ele><time>2026-04-04T11:19:04.103Z</time></trkpt><trkpt lat="44.5342633" lon="8.6989533"><ele>356.6666666666667</ele><time>2026-04-04T11:19:05.102Z</time></trkpt><trkpt lat="44.534285" lon="8.69884"><ele>357.0</ele><time>2026-04-04T11:19:20.101Z</time></trkpt><trkpt lat="44.53433" lon="8.6987433"><ele>357.0</ele><time>2026-04-04T11:19:22.102Z</time></trkpt><trkpt lat="44.53443" lon="8.69868"><ele>357.0</ele><time>2026-04-04T11:19:23.107Z</time></trkpt><trkpt lat="44.534525" lon="8.698625"><ele>357.0</ele><time>2026-04-04T11:19:24.101Z</time></trkpt><trkpt lat="44.5346383" lon="8.69857"><ele>357.0</ele><time>2026-04-04T11:19:25.101Z</time></trkpt><trkpt lat="44.5347667" lon="8.698475"><ele>355.0</ele><time>2026-04-04T11:19:26.105Z</time></trkpt><trkpt lat="44.5348883" lon="8.6983683"><ele>353.0</ele><time>2026-04-04T11:19:27.103Z</time></trkpt><trkpt lat="44.535015" lon="8.6982667"><ele>351.0</ele><time>2026-04-04T11:19:28.099Z</time></trkpt><trkpt lat="44.5351417" lon="8.69817"><ele>349.0</ele><time>2026-04-04T11:19:29.104Z</time></trkpt><trkpt lat="44.5352733" lon="8.6980733"><ele>349.3333333333333</ele><time>2026-04-04T11:19:30.101Z</time></trkpt><trkpt lat="44.5354033" lon="8.6979733"><ele>349.6666666666667</ele><time>2026-04-04T11:19:31.102Z</time></trkpt><trkpt lat="44.5355383" lon="8.6978767"><ele>350.0</ele><time>2026-04-04T11:19:32.105Z</time></trkpt><trkpt lat="44.5356717" lon="8.6977783"><ele>348.75</ele><time>2026-04-04T11:19:33.101Z</time></trkpt><trkpt lat="44.5358017" lon="8.697685"><ele>347.5</ele><time>2026-04-04T11:19:34.098Z</time></trkpt><trkpt lat="44.5359283" lon="8.697595"><ele>346.25</ele><time>2026-04-04T11:19:35.1Z</time></trkpt><trkpt lat="44.5360517" lon="8.697505"><ele>345.0</ele><time>2026-04-04T11:19:36.103Z</time></trkpt><trkpt lat="44.5361667" lon="8.69741"><ele>345.5</ele><time>2026-04-04T11:19:37.103Z</time></trkpt><trkpt lat="44.5362783" lon="8.6973233"><ele>346.0</ele><time>2026-04-04T11:19:38.099Z</time></trkpt><trkpt lat="44.5363883" lon="8.697255"><ele>346.5</ele><time>2026-04-04T11:19:39.1Z</time></trkpt><trkpt lat="44.5365" lon="8.697215"><ele>347.0</ele><time>2026-04-04T11:19:40.106Z</time></trkpt><trkpt lat="44.5366083" lon="8.6972167"><ele>347.0</ele><time>2026-04-04T11:19:41.107Z</time></trkpt><trkpt lat="44.53672" lon="8.69726"><ele>347.0</ele><time>2026-04-04T11:19:42.106Z</time></trkpt><trkpt lat="44.5368333" lon="8.697335"><ele>347.0</ele><time>2026-04-04T11:19:43.102Z</time></trkpt><trkpt lat="44.5369467" lon="8.6974283"><ele>347.0</ele><time>2026-04-04T11:19:44.099Z</time></trkpt><trkpt lat="44.5370633" lon="8.6975183"><ele>347.5</ele><time>2026-04-04T11:19:45.101Z</time></trkpt><trkpt lat="44.5371833" lon="8.6975983"><ele>348.0</ele><time>2026-04-04T11:19:46.1Z</time></trkpt><trkpt lat="44.5373067" lon="8.6976717"><ele>348.5</ele><time>2026-04-04T11:19:47.104Z</time></trkpt><trkpt lat="44.5374333" lon="8.6977267"><ele>349.0</ele><time>2026-04-04T11:19:48.1Z</time></trkpt><trkpt lat="44.537555" lon="8.6977733"><ele>348.2</ele><time>2026-04-04T11:19:49.103Z</time></trkpt><trkpt lat="44.537665" lon="8.6978083"><ele>347.4</ele><time>2026-04-04T11:19:50.101Z</time></trkpt><trkpt lat="44.53776" lon="8.6978233"><ele>346.6</ele><time>2026-04-04T11:19:51.1Z</time></trkpt><trkpt lat="44.537855" lon="8.6978483"><ele>345.8</ele><time>2026-04-04T11:19:52.104Z</time></trkpt><trkpt lat="44.5379433" lon="8.6978617"><ele>345.0</ele><time>2026-04-04T11:19:53.1Z</time></trkpt><trkpt lat="44.5380283" lon="8.697875"><ele>344.5</ele><time>2026-04-04T11:19:54.109Z</time></trkpt><trkpt lat="44.53811" lon="8.6978883"><ele>344.0</ele><time>2026-04-04T11:19:55.098Z</time></trkpt><trkpt lat="44.538185" lon="8.6979017"><ele>343.5</ele><time>2026-04-04T11:19:56.1Z</time></trkpt><trkpt lat="44.53825" lon="8.6979117"><ele>343.0</ele><time>2026-04-04T11:19:57.107Z</time></trkpt><trkpt lat="44.5383383" lon="8.6979167"><ele>342.5</ele><time>2026-04-04T11:19:59.107Z</time></trkpt><trkpt lat="44.5384233" lon="8.6979283"><ele>342.0</ele><time>2026-04-04T11:20:35.103Z</time></trkpt><trkpt lat="44.5385483" lon="8.69795"><ele>342.0</ele><time>2026-04-04T11:20:37.104Z</time></trkpt><trkpt lat="44.5386233" lon="8.69799"><ele>342.0</ele><time>2026-04-04T11:20:38.101Z</time></trkpt><trkpt lat="44.5387" lon="8.6981067"><ele>342.0</ele><time>2026-04-04T11:20:39.104Z</time></trkpt><trkpt lat="44.5387617" lon="8.69823"><ele>342.0</ele><time>2026-04-04T11:20:40.1Z</time></trkpt><trkpt lat="44.5388233" lon="8.6983433"><ele>342.0</ele><time>2026-04-04T11:20:41.103Z</time></trkpt><trkpt lat="44.53888" lon="8.6984633"><ele>341.6</ele><time>2026-04-04T11:20:42.1Z</time></trkpt><trkpt lat="44.538945" lon="8.6985617"><ele>341.20000000000005</ele><time>2026-04-04T11:20:43.105Z</time></trkpt><trkpt lat="44.5390233" lon="8.6986383"><ele>340.8</ele><time>2026-04-04T11:20:44.097Z</time></trkpt><trkpt lat="44.5391183" lon="8.6986917"><ele>340.4</ele><time>2026-04-04T11:20:45.1Z</time></trkpt><trkpt lat="44.5392267" lon="8.6987017"><ele>340.0</ele><time>2026-04-04T11:20:46.1Z</time></trkpt><trkpt lat="44.5393433" lon="8.6986983"><ele>342.5</ele><time>2026-04-04T11:20:47.103Z</time></trkpt><trkpt lat="44.5394717" lon="8.6986667"><ele>345.0</ele><time>2026-04-04T11:20:48.104Z</time></trkpt><trkpt lat="44.5396083" lon="8.6986267"><ele>347.5</ele><time>2026-04-04T11:20:49.101Z</time></trkpt><trkpt lat="44.5397417" lon="8.6985717"><ele>350.0</ele><time>2026-04-04T11:20:50.099Z</time></trkpt><trkpt lat="44.5398717" lon="8.6985117"><ele>350.0</ele><time>2026-04-04T11:20:51.107Z</time></trkpt><trkpt lat="44.539995" lon="8.6984333"><ele>350.0</ele><time>2026-04-04T11:20:52.1Z</time></trkpt><trkpt lat="44.54011" lon="8.6983267"><ele>350.0</ele><time>2026-04-04T11:20:53.1Z</time></trkpt><trkpt lat="44.54022" lon="8.69821"><ele>350.0</ele><time>2026-04-04T11:20:54.103Z</time></trkpt><trkpt lat="44.5403233" lon="8.6980833"><ele>349.5</ele><time>2026-04-04T11:20:55.1Z</time></trkpt><trkpt lat="44.540425" lon="8.69795"><ele>349.0</ele><time>2026-04-04T11:20:56.106Z</time></trkpt><trkpt lat="44.5405267" lon="8.6978067"><ele>348.5</ele><time>2026-04-04T11:20:57.107Z</time></trkpt><trkpt lat="44.5406333" lon="8.697685"><ele>348.0</ele><time>2026-04-04T11:20:58.102Z</time></trkpt><trkpt lat="44.5407383" lon="8.6975733"><ele>348.0</ele><time>2026-04-04T11:20:59.102Z</time></trkpt><trkpt lat="44.54085" lon="8.697445"><ele>348.0</ele><time>2026-04-04T11:21:00.105Z</time></trkpt><trkpt lat="44.5409583" lon="8.697315"><ele>348.0</ele><time>2026-04-04T11:21:01.106Z</time></trkpt><trkpt lat="44.541065" lon="8.6971983"><ele>348.0</ele><time>2026-04-04T11:21:02.098Z</time></trkpt><trkpt lat="44.54117" lon="8.6970933"><ele>348.5</ele><time>2026-04-04T11:21:03.106Z</time></trkpt><trkpt lat="44.54128" lon="8.697005"><ele>349.0</ele><time>2026-04-04T11:21:04.098Z</time></trkpt><trkpt lat="44.5413917" lon="8.6969267"><ele>349.5</ele><time>2026-04-04T11:21:05.106Z</time></trkpt><trkpt lat="44.5415033" lon="8.6968433"><ele>350.0</ele><time>2026-04-04T11:21:06.099Z</time></trkpt><trkpt lat="44.541615" lon="8.69676"><ele>350.0</ele><time>2026-04-04T11:21:07.1Z</time></trkpt><trkpt lat="44.5417267" lon="8.6966683"><ele>350.0</ele><time>2026-04-04T11:21:08.097Z</time></trkpt><trkpt lat="44.541825" lon="8.6965367"><ele>350.0</ele><time>2026-04-04T11:21:09.101Z</time></trkpt><trkpt lat="44.5419283" lon="8.6964133"><ele>350.0</ele><time>2026-04-04T11:21:10.1Z</time></trkpt><trkpt lat="44.54202" lon="8.69627"><ele>353.0</ele><time>2026-04-04T11:21:11.097Z</time></trkpt><trkpt lat="44.542115" lon="8.6961133"><ele>356.0</ele><time>2026-04-04T11:21:12.101Z</time></trkpt><trkpt lat="44.5422067" lon="8.6959517"><ele>359.0</ele><time>2026-04-04T11:21:13.101Z</time></trkpt><trkpt lat="44.5422967" lon="8.6957867"><ele>362.0</ele><time>2026-04-04T11:21:14.101Z</time></trkpt><trkpt lat="44.5423833" lon="8.6956183"><ele>362.0</ele><time>2026-04-04T11:21:15.102Z</time></trkpt><trkpt lat="44.5424617" lon="8.6954467"><ele>362.0</ele><time>2026-04-04T11:21:16.103Z</time></trkpt><trkpt lat="44.5425333" lon="8.6952767"><ele>362.0</ele><time>2026-04-04T11:21:17.107Z</time></trkpt><trkpt lat="44.542605" lon="8.695105"><ele>362.0</ele><time>2026-04-04T11:21:18.106Z</time></trkpt><trkpt lat="44.5426767" lon="8.69493"><ele>359.0</ele><time>2026-04-04T11:21:19.1Z</time></trkpt><trkpt lat="44.54275" lon="8.6947467"><ele>356.0</ele><time>2026-04-04T11:21:20.102Z</time></trkpt><trkpt lat="44.5428333" lon="8.6945633"><ele>353.0</ele><time>2026-04-04T11:21:21.11Z</time></trkpt><trkpt lat="44.542905" lon="8.6943517"><ele>353.0</ele><time>2026-04-04T11:21:22.103Z</time></trkpt><trkpt lat="44.54297" lon="8.6941333"><ele>353.0</ele><time>2026-04-04T11:21:23.105Z</time></trkpt><trkpt lat="44.5430283" lon="8.6939117"><ele>353.0</ele><time>2026-04-04T11:21:24.101Z</time></trkpt><trkpt lat="44.5430867" lon="8.69369"><ele>351.33333333333337</ele><time>2026-04-04T11:21:25.102Z</time></trkpt><trkpt lat="44.543145" lon="8.693465"><ele>349.6666666666667</ele><time>2026-04-04T11:21:26.105Z</time></trkpt><trkpt lat="44.5432017" lon="8.69324"><ele>348.0</ele><time>2026-04-04T11:21:27.104Z</time></trkpt><trkpt lat="44.5432617" lon="8.6930217"><ele>348.0</ele><time>2026-04-04T11:21:28.099Z</time></trkpt><trkpt lat="44.543335" lon="8.6928167"><ele>348.0</ele><time>2026-04-04T11:21:29.1Z</time></trkpt><trkpt lat="44.5434133" lon="8.6926167"><ele>348.0</ele><time>2026-04-04T11:21:30.102Z</time></trkpt><trkpt lat="44.54351" lon="8.6924267"><ele>347.6666666666667</ele><time>2026-04-04T11:21:31.1Z</time></trkpt><trkpt lat="44.5436217" lon="8.6922383"><ele>347.33333333333337</ele><time>2026-04-04T11:21:32.1Z</time></trkpt><trkpt lat="44.54374" lon="8.6920617"><ele>347.0</ele><time>2026-04-04T11:21:33.104Z</time></trkpt><trkpt lat="44.5438633" lon="8.6919033"><ele>347.0</ele><time>2026-04-04T11:21:34.103Z</time></trkpt><trkpt lat="44.54398" lon="8.6917533"><ele>347.0</ele><time>2026-04-04T11:21:35.101Z</time></trkpt><trkpt lat="44.5440867" lon="8.6916083"><ele>347.0</ele><time>2026-04-04T11:21:36.104Z</time></trkpt><trkpt lat="44.5441717" lon="8.6914633"><ele>347.0</ele><time>2026-04-04T11:21:37.109Z</time></trkpt><trkpt lat="44.5442233" lon="8.6913117"><ele>347.0</ele><time>2026-04-04T11:21:38.106Z</time></trkpt><trkpt lat="44.5442417" lon="8.6911483"><ele>347.0</ele><time>2026-04-04T11:21:39.099Z</time></trkpt><trkpt lat="44.544225" lon="8.6909767"><ele>347.0</ele><time>2026-04-04T11:21:40.1Z</time></trkpt><trkpt lat="44.54418" lon="8.690805"><ele>347.0</ele><time>2026-04-04T11:21:41.102Z</time></trkpt><trkpt lat="44.5441217" lon="8.6906317"><ele>345.5</ele><time>2026-04-04T11:21:42.103Z</time></trkpt><trkpt lat="44.5440633" lon="8.6904583"><ele>344.0</ele><time>2026-04-04T11:21:43.103Z</time></trkpt><trkpt lat="44.54402" lon="8.6902667"><ele>342.5</ele><time>2026-04-04T11:21:44.109Z</time></trkpt><trkpt lat="44.5439917" lon="8.690085"><ele>341.0</ele><time>2026-04-04T11:21:45.106Z</time></trkpt><trkpt lat="44.5439817" lon="8.6899"><ele>341.0</ele><time>2026-04-04T11:21:46.102Z</time></trkpt><trkpt lat="44.5439867" lon="8.6897"><ele>341.0</ele><time>2026-04-04T11:21:47.107Z</time></trkpt><trkpt lat="44.5439967" lon="8.68949"><ele>341.0</ele><time>2026-04-04T11:21:48.102Z</time></trkpt><trkpt lat="44.5440033" lon="8.6892683"><ele>341.33333333333337</ele><time>2026-04-04T11:21:49.1Z</time></trkpt><trkpt lat="44.543995" lon="8.6890417"><ele>341.6666666666667</ele><time>2026-04-04T11:21:50.098Z</time></trkpt><trkpt lat="44.5439783" lon="8.688815"><ele>342.0</ele><time>2026-04-04T11:21:51.109Z</time></trkpt><trkpt lat="44.5439583" lon="8.6885967"><ele>341.0</ele><time>2026-04-04T11:21:52.106Z</time></trkpt><trkpt lat="44.5439417" lon="8.6883833"><ele>340.0</ele><time>2026-04-04T11:21:53.104Z</time></trkpt><trkpt lat="44.5439317" lon="8.6881783"><ele>339.0</ele><time>2026-04-04T11:21:54.1Z</time></trkpt><trkpt lat="44.54394" lon="8.68797"><ele>338.0</ele><time>2026-04-04T11:21:55.097Z</time></trkpt><trkpt lat="44.5439617" lon="8.6877633"><ele>339.25</ele><time>2026-04-04T11:21:56.102Z</time></trkpt><trkpt lat="44.544005" lon="8.6875733"><ele>340.5</ele><time>2026-04-04T11:21:57.102Z</time></trkpt><trkpt lat="44.5440667" lon="8.6873983"><ele>341.75</ele><time>2026-04-04T11:21:58.102Z</time></trkpt><trkpt lat="44.54413" lon="8.687255"><ele>343.0</ele><time>2026-04-04T11:21:59.102Z</time></trkpt><trkpt lat="44.5441967" lon="8.6871017"><ele>343.0</ele><time>2026-04-04T11:22:00.1Z</time></trkpt><trkpt lat="44.5442567" lon="8.6869317"><ele>343.0</ele><time>2026-04-04T11:22:01.103Z</time></trkpt><trkpt lat="44.544305" lon="8.686745"><ele>343.0</ele><time>2026-04-04T11:22:02.1Z</time></trkpt><trkpt lat="44.5443533" lon="8.6865483"><ele>343.0</ele><time>2026-04-04T11:22:03.1Z</time></trkpt><trkpt lat="44.5444" lon="8.6863417"><ele>347.66666666666663</ele><time>2026-04-04T11:22:04.103Z</time></trkpt><trkpt lat="44.54444" lon="8.6861117"><ele>352.3333333333333</ele><time>2026-04-04T11:22:05.114Z</time></trkpt><trkpt lat="44.5444683" lon="8.6858633"><ele>357.0</ele><time>2026-04-04T11:22:06.103Z</time></trkpt><trkpt lat="44.5444883" lon="8.6856117"><ele>357.3333333333333</ele><time>2026-04-04T11:22:07.1Z</time></trkpt><trkpt lat="44.5445" lon="8.6853583"><ele>357.66666666666663</ele><time>2026-04-04T11:22:08.099Z</time></trkpt><trkpt lat="44.5444933" lon="8.6851033"><ele>358.0</ele><time>2026-04-04T11:22:09.101Z</time></trkpt><trkpt lat="44.5444767" lon="8.6848467"><ele>358.0</ele><time>2026-04-04T11:22:10.103Z</time></trkpt><trkpt lat="44.5444467" lon="8.6845917"><ele>358.0</ele><time>2026-04-04T11:22:11.105Z</time></trkpt><trkpt lat="44.5444067" lon="8.68434"><ele>358.0</ele><time>2026-04-04T11:22:12.101Z</time></trkpt><trkpt lat="44.5443667" lon="8.6840867"><ele>353.3333333333333</ele><time>2026-04-04T11:22:13.1Z</time></trkpt><trkpt lat="44.5443283" lon="8.6838317"><ele>348.6666666666667</ele><time>2026-04-04T11:22:14.098Z</time></trkpt><trkpt lat="44.54429" lon="8.683575"><ele>344.0</ele><time>2026-04-04T11:22:15.103Z</time></trkpt><trkpt lat="44.5442483" lon="8.683315"><ele>341.33333333333337</ele><time>2026-04-04T11:22:16.101Z</time></trkpt><trkpt lat="44.5442117" lon="8.6830583"><ele>338.6666666666667</ele><time>2026-04-04T11:22:17.101Z</time></trkpt><trkpt lat="44.5441717" lon="8.6828067"><ele>336.0</ele><time>2026-04-04T11:22:18.102Z</time></trkpt><trkpt lat="44.5441317" lon="8.68255"><ele>336.0</ele><time>2026-04-04T11:22:19.104Z</time></trkpt><trkpt lat="44.5440933" lon="8.6822933"><ele>336.0</ele><time>2026-04-04T11:22:20.103Z</time></trkpt><trkpt lat="44.5440583" lon="8.68204"><ele>336.0</ele><time>2026-04-04T11:22:21.103Z</time></trkpt><trkpt lat="44.5440217" lon="8.6817917"><ele>337.6666666666667</ele><time>2026-04-04T11:22:22.103Z</time></trkpt><trkpt lat="44.5439933" lon="8.6815433"><ele>339.33333333333337</ele><time>2026-04-04T11:22:23.103Z</time></trkpt><trkpt lat="44.5439733" lon="8.6813083"><ele>341.0</ele><time>2026-04-04T11:22:24.101Z</time></trkpt><trkpt lat="44.5439617" lon="8.6810767"><ele>341.6666666666667</ele><time>2026-04-04T11:22:25.104Z</time></trkpt><trkpt lat="44.543975" lon="8.6808467"><ele>342.3333333333333</ele><time>2026-04-04T11:22:26.103Z</time></trkpt><trkpt lat="44.5440083" lon="8.6806167"><ele>343.0</ele><time>2026-04-04T11:22:27.101Z</time></trkpt><trkpt lat="44.5440683" lon="8.680395"><ele>340.0</ele><time>2026-04-04T11:22:28.099Z</time></trkpt><trkpt lat="44.54416" lon="8.6801833"><ele>337.0</ele><time>2026-04-04T11:22:29.103Z</time></trkpt><trkpt lat="44.5442767" lon="8.67998"><ele>334.0</ele><time>2026-04-04T11:22:30.105Z</time></trkpt><trkpt lat="44.544385" lon="8.679775"><ele>334.0</ele><time>2026-04-04T11:22:31.101Z</time></trkpt><trkpt lat="44.5445117" lon="8.67957"><ele>334.0</ele><time>2026-04-04T11:22:32.104Z</time></trkpt><trkpt lat="44.5446317" lon="8.6793733"><ele>334.0</ele><time>2026-04-04T11:22:33.097Z</time></trkpt><trkpt lat="44.5447567" lon="8.679185"><ele>336.0</ele><time>2026-04-04T11:22:34.103Z</time></trkpt><trkpt lat="44.54488" lon="8.6790017"><ele>338.0</ele><time>2026-04-04T11:22:35.103Z</time></trkpt><trkpt lat="44.5450067" lon="8.6788317"><ele>340.0</ele><time>2026-04-04T11:22:36.103Z</time></trkpt><trkpt lat="44.5451417" lon="8.6786733"><ele>344.3333333333333</ele><time>2026-04-04T11:22:37.109Z</time></trkpt><trkpt lat="44.5452783" lon="8.6785233"><ele>348.6666666666667</ele><time>2026-04-04T11:22:38.098Z</time></trkpt><trkpt lat="44.5454117" lon="8.6783767"><ele>353.0</ele><time>2026-04-04T11:22:39.102Z</time></trkpt><trkpt lat="44.5455433" lon="8.6782233"><ele>353.0</ele><time>2026-04-04T11:22:40.106Z</time></trkpt><trkpt lat="44.545665" lon="8.67805"><ele>353.0</ele><time>2026-04-04T11:22:41.101Z</time></trkpt><trkpt lat="44.5457733" lon="8.67787"><ele>353.0</ele><time>2026-04-04T11:22:42.101Z</time></trkpt><trkpt lat="44.5458717" lon="8.6776917"><ele>347.5</ele><time>2026-04-04T11:22:43.103Z</time></trkpt><trkpt lat="44.5459483" lon="8.67752"><ele>342.0</ele><time>2026-04-04T11:22:44.104Z</time></trkpt><trkpt lat="44.5460133" lon="8.6773767"><ele>336.5</ele><time>2026-04-04T11:22:45.101Z</time></trkpt><trkpt lat="44.5460833" lon="8.6772667"><ele>331.0</ele><time>2026-04-04T11:22:46.102Z</time></trkpt><trkpt lat="44.5461633" lon="8.67719"><ele>336.25</ele><time>2026-04-04T11:22:47.104Z</time></trkpt><trkpt lat="44.5462617" lon="8.6771517"><ele>341.5</ele><time>2026-04-04T11:22:48.107Z</time></trkpt><trkpt lat="44.54638" lon="8.6771417"><ele>346.75</ele><time>2026-04-04T11:22:49.103Z</time></trkpt><trkpt lat="44.5465117" lon="8.6771333"><ele>352.0</ele><time>2026-04-04T11:22:50.099Z</time></trkpt><trkpt lat="44.5466783" lon="8.6771617"><ele>352.0</ele><time>2026-04-04T11:22:51.107Z</time></trkpt><trkpt lat="44.5468483" lon="8.6771733"><ele>352.0</ele><time>2026-04-04T11:22:52.104Z</time></trkpt><trkpt lat="44.5470133" lon="8.6771533"><ele>352.0</ele><time>2026-04-04T11:22:53.099Z</time></trkpt><trkpt lat="44.5471867" lon="8.677125"><ele>355.3333333333333</ele><time>2026-04-04T11:22:54.1Z</time></trkpt><trkpt lat="44.547355" lon="8.6770867"><ele>358.6666666666667</ele><time>2026-04-04T11:22:55.102Z</time></trkpt><trkpt lat="44.547515" lon="8.6770383"><ele>362.0</ele><time>2026-04-04T11:22:56.103Z</time></trkpt><trkpt lat="44.5476633" lon="8.676985"><ele>360.0</ele><time>2026-04-04T11:22:57.101Z</time></trkpt><trkpt lat="44.5478033" lon="8.6769217"><ele>358.0</ele><time>2026-04-04T11:22:58.111Z</time></trkpt><trkpt lat="44.547935" lon="8.676845"><ele>356.0</ele><time>2026-04-04T11:22:59.097Z</time></trkpt><trkpt lat="44.5480533" lon="8.6767483"><ele>354.0</ele><time>2026-04-04T11:23:00.107Z</time></trkpt><trkpt lat="44.5481617" lon="8.6766433"><ele>354.0</ele><time>2026-04-04T11:23:01.1Z</time></trkpt><trkpt lat="44.5482433" lon="8.6764867"><ele>354.0</ele><time>2026-04-04T11:23:02.101Z</time></trkpt><trkpt lat="44.548305" lon="8.6763067"><ele>354.0</ele><time>2026-04-04T11:23:03.101Z</time></trkpt><trkpt lat="44.54836" lon="8.6761117"><ele>354.0</ele><time>2026-04-04T11:23:04.107Z</time></trkpt><trkpt lat="44.54839" lon="8.6758933"><ele>347.0</ele><time>2026-04-04T11:23:05.103Z</time></trkpt><trkpt lat="44.5484467" lon="8.6756433"><ele>340.0</ele><time>2026-04-04T11:23:06.108Z</time></trkpt><trkpt lat="44.54846" lon="8.6754283"><ele>333.0</ele><time>2026-04-04T11:23:07.102Z</time></trkpt><trkpt lat="44.5484917" lon="8.67521"><ele>330.3333333333333</ele><time>2026-04-04T11:23:08.099Z</time></trkpt><trkpt lat="44.5485" lon="8.6749867"><ele>327.66666666666663</ele><time>2026-04-04T11:23:09.103Z</time></trkpt><trkpt lat="44.54851" lon="8.6747733"><ele>325.0</ele><time>2026-04-04T11:23:10.119Z</time></trkpt><trkpt lat="44.548525" lon="8.6745667"><ele>323.75</ele><time>2026-04-04T11:23:11.105Z</time></trkpt><trkpt lat="44.5485583" lon="8.674385"><ele>322.5</ele><time>2026-04-04T11:23:12.099Z</time></trkpt><trkpt lat="44.548615" lon="8.6742117"><ele>321.25</ele><time>2026-04-04T11:23:13.105Z</time></trkpt><trkpt lat="44.54869" lon="8.6740467"><ele>320.0</ele><time>2026-04-04T11:23:14.099Z</time></trkpt><trkpt lat="44.5487833" lon="8.6739183"><ele>324.25</ele><time>2026-04-04T11:23:15.104Z</time></trkpt><trkpt lat="44.5488917" lon="8.673815"><ele>328.5</ele><time>2026-04-04T11:23:16.101Z</time></trkpt><trkpt lat="44.54902" lon="8.6737433"><ele>332.75</ele><time>2026-04-04T11:23:17.101Z</time></trkpt><trkpt lat="44.5491667" lon="8.6736983"><ele>337.0</ele><time>2026-04-04T11:23:18.101Z</time></trkpt><trkpt lat="44.54935" lon="8.67366"><ele>337.0</ele><time>2026-04-04T11:23:19.106Z</time></trkpt><trkpt lat="44.54953" lon="8.6736133"><ele>337.0</ele><time>2026-04-04T11:23:20.108Z</time></trkpt><trkpt lat="44.549715" lon="8.6735633"><ele>337.0</ele><time>2026-04-04T11:23:21.1Z</time></trkpt><trkpt lat="44.5499067" lon="8.6735133"><ele>330.3333333333333</ele><time>2026-04-04T11:23:22.102Z</time></trkpt><trkpt lat="44.5501" lon="8.6734583"><ele>323.6666666666667</ele><time>2026-04-04T11:23:23.105Z</time></trkpt><trkpt lat="44.5502933" lon="8.6734067"><ele>317.0</ele><time>2026-04-04T11:23:24.101Z</time></trkpt><trkpt lat="44.5504817" lon="8.6733617"><ele>316.33333333333337</ele><time>2026-04-04T11:23:25.1Z</time></trkpt><trkpt lat="44.5506633" lon="8.6733117"><ele>315.6666666666667</ele><time>2026-04-04T11:23:26.1Z</time></trkpt><trkpt lat="44.5508333" lon="8.67326"><ele>315.0</ele><time>2026-04-04T11:23:27.101Z</time></trkpt><trkpt lat="44.5510167" lon="8.673225"><ele>315.0</ele><time>2026-04-04T11:23:28.103Z</time></trkpt><trkpt lat="44.5511967" lon="8.6731867"><ele>315.0</ele><time>2026-04-04T11:23:29.102Z</time></trkpt><trkpt lat="44.55138" lon="8.6731517"><ele>315.0</ele><time>2026-04-04T11:23:30.108Z</time></trkpt><trkpt lat="44.5515633" lon="8.6731283"><ele>316.3333333333333</ele><time>2026-04-04T11:23:31.102Z</time></trkpt><trkpt lat="44.5517517" lon="8.6731133"><ele>317.66666666666663</ele><time>2026-04-04T11:23:32.104Z</time></trkpt><trkpt lat="44.5519467" lon="8.67311"><ele>319.0</ele><time>2026-04-04T11:23:33.103Z</time></trkpt><trkpt lat="44.5521433" lon="8.6730933"><ele>319.0</ele><time>2026-04-04T11:23:34.099Z</time></trkpt><trkpt lat="44.5523367" lon="8.6730583"><ele>319.0</ele><time>2026-04-04T11:23:35.104Z</time></trkpt><trkpt lat="44.55253" lon="8.6730017"><ele>319.0</ele><time>2026-04-04T11:23:36.101Z</time></trkpt><trkpt lat="44.552715" lon="8.6729533"><ele>313.3333333333333</ele><time>2026-04-04T11:23:37.099Z</time></trkpt><trkpt lat="44.552915" lon="8.67289"><ele>307.6666666666667</ele><time>2026-04-04T11:23:38.102Z</time></trkpt><trkpt lat="44.5531133" lon="8.672825"><ele>302.0</ele><time>2026-04-04T11:23:39.098Z</time></trkpt><trkpt lat="44.5533067" lon="8.6727583"><ele>302.0</ele><time>2026-04-04T11:23:40.107Z</time></trkpt><trkpt lat="44.5534883" lon="8.672695"><ele>302.0</ele><time>2026-04-04T11:23:41.105Z</time></trkpt><trkpt lat="44.5536717" lon="8.6726333"><ele>302.0</ele><time>2026-04-04T11:23:42.102Z</time></trkpt><trkpt lat="44.5538567" lon="8.67257"><ele>304.33333333333337</ele><time>2026-04-04T11:23:43.102Z</time></trkpt><trkpt lat="44.5540433" lon="8.672515"><ele>306.6666666666667</ele><time>2026-04-04T11:23:44.105Z</time></trkpt><trkpt lat="44.5542283" lon="8.6724567"><ele>309.0</ele><time>2026-04-04T11:23:45.098Z</time></trkpt><trkpt lat="44.5544083" lon="8.6724033"><ele>310.3333333333333</ele><time>2026-04-04T11:23:46.103Z</time></trkpt><trkpt lat="44.554575" lon="8.6723483"><ele>311.66666666666663</ele><time>2026-04-04T11:23:47.102Z</time></trkpt><trkpt lat="44.5547383" lon="8.6722933"><ele>313.0</ele><time>2026-04-04T11:23:48.102Z</time></trkpt><trkpt lat="44.554895" lon="8.6722333"><ele>313.0</ele><time>2026-04-04T11:23:49.101Z</time></trkpt><trkpt lat="44.555045" lon="8.672175"><ele>313.0</ele><time>2026-04-04T11:23:50.102Z</time></trkpt><trkpt lat="44.5551883" lon="8.6721083"><ele>313.0</ele><time>2026-04-04T11:23:51.1Z</time></trkpt><trkpt lat="44.55533" lon="8.6720467"><ele>313.0</ele><time>2026-04-04T11:23:52.099Z</time></trkpt><trkpt lat="44.5554667" lon="8.6719933"><ele>313.0</ele><time>2026-04-04T11:23:53.101Z</time></trkpt><trkpt lat="44.555605" lon="8.671945"><ele>313.0</ele><time>2026-04-04T11:23:54.099Z</time></trkpt><trkpt lat="44.5557433" lon="8.6719"><ele>313.0</ele><time>2026-04-04T11:23:55.104Z</time></trkpt><trkpt lat="44.555885" lon="8.671865"><ele>310.25</ele><time>2026-04-04T11:23:56.1Z</time></trkpt><trkpt lat="44.5560233" lon="8.6718517"><ele>307.5</ele><time>2026-04-04T11:23:57.101Z</time></trkpt><trkpt lat="44.55615" lon="8.6718417"><ele>304.75</ele><time>2026-04-04T11:23:58.1Z</time></trkpt><trkpt lat="44.556275" lon="8.671835"><ele>302.0</ele><time>2026-04-04T11:23:59.1Z</time></trkpt><trkpt lat="44.5564033" lon="8.6718417"><ele>302.0</ele><time>2026-04-04T11:24:00.103Z</time></trkpt><trkpt lat="44.5565233" lon="8.6718533"><ele>302.0</ele><time>2026-04-04T11:24:01.1Z</time></trkpt><trkpt lat="44.5566383" lon="8.671865"><ele>302.0</ele><time>2026-04-04T11:24:02.099Z</time></trkpt><trkpt lat="44.5567533" lon="8.67189"><ele>302.0</ele><time>2026-04-04T11:24:03.103Z</time></trkpt><trkpt lat="44.5568733" lon="8.671935"><ele>303.6</ele><time>2026-04-04T11:24:04.097Z</time></trkpt><trkpt lat="44.556985" lon="8.6720033"><ele>305.2</ele><time>2026-04-04T11:24:05.103Z</time></trkpt><trkpt lat="44.5570733" lon="8.6720967"><ele>306.8</ele><time>2026-04-04T11:24:06.097Z</time></trkpt><trkpt lat="44.5571617" lon="8.6721833"><ele>308.4</ele><time>2026-04-04T11:24:07.102Z</time></trkpt><trkpt lat="44.5572483" lon="8.6722683"><ele>310.0</ele><time>2026-04-04T11:24:08.1Z</time></trkpt><trkpt lat="44.5573433" lon="8.6723383"><ele>310.0</ele><time>2026-04-04T11:24:09.1Z</time></trkpt><trkpt lat="44.5574383" lon="8.6724033"><ele>310.0</ele><time>2026-04-04T11:24:10.099Z</time></trkpt><trkpt lat="44.5575317" lon="8.6724717"><ele>310.0</ele><time>2026-04-04T11:24:11.1Z</time></trkpt><trkpt lat="44.55764" lon="8.6725333"><ele>310.0</ele><time>2026-04-04T11:24:12.101Z</time></trkpt><trkpt lat="44.5577617" lon="8.672595"><ele>308.25</ele><time>2026-04-04T11:24:13.101Z</time></trkpt><trkpt lat="44.5578867" lon="8.6726467"><ele>306.5</ele><time>2026-04-04T11:24:14.101Z</time></trkpt><trkpt lat="44.558015" lon="8.6726933"><ele>304.75</ele><time>2026-04-04T11:24:15.104Z</time></trkpt><trkpt lat="44.5581417" lon="8.6727383"><ele>303.0</ele><time>2026-04-04T11:24:16.105Z</time></trkpt><trkpt lat="44.558275" lon="8.672785"><ele>302.75</ele><time>2026-04-04T11:24:17.103Z</time></trkpt><trkpt lat="44.5584133" lon="8.672825"><ele>302.5</ele><time>2026-04-04T11:24:18.1Z</time></trkpt><trkpt lat="44.5585517" lon="8.6728567"><ele>302.25</ele><time>2026-04-04T11:24:19.101Z</time></trkpt><trkpt lat="44.5586833" lon="8.6728833"><ele>302.0</ele><time>2026-04-04T11:24:20.109Z</time></trkpt><trkpt lat="44.5588183" lon="8.6728933"><ele>302.75</ele><time>2026-04-04T11:24:21.101Z</time></trkpt><trkpt lat="44.5589483" lon="8.6728683"><ele>303.5</ele><time>2026-04-04T11:24:22.102Z</time></trkpt><trkpt lat="44.5590667" lon="8.6727983"><ele>304.25</ele><time>2026-04-04T11:24:23.102Z</time></trkpt><trkpt lat="44.5591867" lon="8.6727117"><ele>305.0</ele><time>2026-04-04T11:24:24.099Z</time></trkpt><trkpt lat="44.5593" lon="8.6726017"><ele>305.0</ele><time>2026-04-04T11:24:25.102Z</time></trkpt><trkpt lat="44.559415" lon="8.6724967"><ele>305.0</ele><time>2026-04-04T11:24:26.098Z</time></trkpt><trkpt lat="44.5595283" lon="8.6723883"><ele>305.0</ele><time>2026-04-04T11:24:27.105Z</time></trkpt><trkpt lat="44.5596333" lon="8.6722917"><ele>305.0</ele><time>2026-04-04T11:24:28.099Z</time></trkpt><trkpt lat="44.5597367" lon="8.672195"><ele>304.0</ele><time>2026-04-04T11:24:29.099Z</time></trkpt><trkpt lat="44.55985" lon="8.67212"><ele>303.0</ele><time>2026-04-04T11:24:30.1Z</time></trkpt><trkpt lat="44.5599533" lon="8.6720183"><ele>302.0</ele><time>2026-04-04T11:24:31.104Z</time></trkpt><trkpt lat="44.5600617" lon="8.6719183"><ele>301.0</ele><time>2026-04-04T11:24:32.104Z</time></trkpt><trkpt lat="44.56017" lon="8.671815"><ele>299.5</ele><time>2026-04-04T11:24:33.1Z</time></trkpt><trkpt lat="44.5602783" lon="8.671715"><ele>298.0</ele><time>2026-04-04T11:24:34.102Z</time></trkpt><trkpt lat="44.5603883" lon="8.6716167"><ele>296.5</ele><time>2026-04-04T11:24:35.105Z</time></trkpt><trkpt lat="44.5604983" lon="8.671515"><ele>295.0</ele><time>2026-04-04T11:24:36.104Z</time></trkpt><trkpt lat="44.56061" lon="8.6714083"><ele>295.0</ele><time>2026-04-04T11:24:37.111Z</time></trkpt><trkpt lat="44.5607233" lon="8.6713033"><ele>295.0</ele><time>2026-04-04T11:24:38.103Z</time></trkpt><trkpt lat="44.560835" lon="8.6711933"><ele>295.0</ele><time>2026-04-04T11:24:39.103Z</time></trkpt><trkpt lat="44.5609517" lon="8.6710733"><ele>295.0</ele><time>2026-04-04T11:24:40.102Z</time></trkpt><trkpt lat="44.5610633" lon="8.6709667"><ele>295.25</ele><time>2026-04-04T11:24:41.103Z</time></trkpt><trkpt lat="44.5611683" lon="8.6708783"><ele>295.5</ele><time>2026-04-04T11:24:42.105Z</time></trkpt><trkpt lat="44.56127" lon="8.6707917"><ele>295.75</ele><time>2026-04-04T11:24:43.101Z</time></trkpt><trkpt lat="44.5613667" lon="8.6707117"><ele>296.0</ele><time>2026-04-04T11:24:44.102Z</time></trkpt><trkpt lat="44.5614617" lon="8.670645"><ele>296.0</ele><time>2026-04-04T11:24:45.104Z</time></trkpt><trkpt lat="44.56155" lon="8.6705883"><ele>296.0</ele><time>2026-04-04T11:24:46.1Z</time></trkpt><trkpt lat="44.56163" lon="8.670535"><ele>296.0</ele><time>2026-04-04T11:24:47.1Z</time></trkpt><trkpt lat="44.561695" lon="8.6704817"><ele>296.0</ele><time>2026-04-04T11:24:48.1Z</time></trkpt><trkpt lat="44.5617883" lon="8.6704133"><ele>296.0</ele><time>2026-04-04T11:24:50.1Z</time></trkpt><trkpt lat="44.56185" lon="8.6703667"><ele>296.0</ele><time>2026-04-04T11:24:53.104Z</time></trkpt><trkpt lat="44.5619167" lon="8.670315"><ele>296.6666666666667</ele><time>2026-04-04T11:25:19.106Z</time></trkpt><trkpt lat="44.56197" lon="8.6702633"><ele>297.33333333333337</ele><time>2026-04-04T11:25:21.103Z</time></trkpt><trkpt lat="44.56206" lon="8.6701933"><ele>298.0</ele><time>2026-04-04T11:25:23.103Z</time></trkpt><trkpt lat="44.5621217" lon="8.6701533"><ele>298.6666666666667</ele><time>2026-04-04T11:25:24.103Z</time></trkpt><trkpt lat="44.562195" lon="8.6701"><ele>299.3333333333333</ele><time>2026-04-04T11:25:25.102Z</time></trkpt><trkpt lat="44.5622867" lon="8.67002"><ele>300.0</ele><time>2026-04-04T11:25:26.105Z</time></trkpt><trkpt lat="44.5623733" lon="8.6699283"><ele>300.0</ele><time>2026-04-04T11:25:27.106Z</time></trkpt><trkpt lat="44.5624617" lon="8.6698233"><ele>300.0</ele><time>2026-04-04T11:25:28.102Z</time></trkpt><trkpt lat="44.56255" lon="8.669725"><ele>300.0</ele><time>2026-04-04T11:25:29.108Z</time></trkpt><trkpt lat="44.5626417" lon="8.66964"><ele>300.0</ele><time>2026-04-04T11:25:30.101Z</time></trkpt><trkpt lat="44.5627317" lon="8.6695417"><ele>299.25</ele><time>2026-04-04T11:25:31.111Z</time></trkpt><trkpt lat="44.5628233" lon="8.6694367"><ele>298.5</ele><time>2026-04-04T11:25:32.106Z</time></trkpt><trkpt lat="44.5629083" lon="8.66933"><ele>297.75</ele><time>2026-04-04T11:25:33.106Z</time></trkpt><trkpt lat="44.5629867" lon="8.6692133"><ele>297.0</ele><time>2026-04-04T11:25:34.1Z</time></trkpt><trkpt lat="44.563075" lon="8.6691"><ele>297.0</ele><time>2026-04-04T11:25:35.101Z</time></trkpt><trkpt lat="44.563165" lon="8.6689917"><ele>297.0</ele><time>2026-04-04T11:25:36.103Z</time></trkpt><trkpt lat="44.5632533" lon="8.6688717"><ele>297.0</ele><time>2026-04-04T11:25:37.107Z</time></trkpt><trkpt lat="44.5633417" lon="8.6687533"><ele>297.0</ele><time>2026-04-04T11:25:38.101Z</time></trkpt><trkpt lat="44.5634383" lon="8.66864"><ele>296.75</ele><time>2026-04-04T11:25:39.102Z</time></trkpt><trkpt lat="44.5635317" lon="8.668515"><ele>296.5</ele><time>2026-04-04T11:25:40.099Z</time></trkpt><trkpt lat="44.5636283" lon="8.668395"><ele>296.25</ele><time>2026-04-04T11:25:41.101Z</time></trkpt><trkpt lat="44.5637367" lon="8.66828"><ele>296.0</ele><time>2026-04-04T11:25:42.1Z</time></trkpt><trkpt lat="44.5638267" lon="8.6681667"><ele>296.0</ele><time>2026-04-04T11:25:43.103Z</time></trkpt><trkpt lat="44.5639283" lon="8.6680417"><ele>296.0</ele><time>2026-04-04T11:25:44.105Z</time></trkpt><trkpt lat="44.56401" lon="8.6678967"><ele>296.0</ele><time>2026-04-04T11:25:45.101Z</time></trkpt><trkpt lat="44.56407" lon="8.667735"><ele>296.0</ele><time>2026-04-04T11:25:46.102Z</time></trkpt><trkpt lat="44.56413" lon="8.6675733"><ele>298.75</ele><time>2026-04-04T11:25:47.102Z</time></trkpt><trkpt lat="44.564185" lon="8.667415"><ele>301.5</ele><time>2026-04-04T11:25:48.099Z</time></trkpt><trkpt lat="44.564245" lon="8.667245"><ele>304.25</ele><time>2026-04-04T11:25:49.103Z</time></trkpt><trkpt lat="44.56432" lon="8.667085"><ele>307.0</ele><time>2026-04-04T11:25:50.102Z</time></trkpt><trkpt lat="44.564395" lon="8.6669233"><ele>305.75</ele><time>2026-04-04T11:25:51.108Z</time></trkpt><trkpt lat="44.5644883" lon="8.66677"><ele>304.5</ele><time>2026-04-04T11:25:52.1Z</time></trkpt><trkpt lat="44.5646017" lon="8.6666133"><ele>303.25</ele><time>2026-04-04T11:25:53.104Z</time></trkpt><trkpt lat="44.5647" lon="8.6664633"><ele>302.0</ele><time>2026-04-04T11:25:54.1Z</time></trkpt><trkpt lat="44.564805" lon="8.66632"><ele>302.0</ele><time>2026-04-04T11:25:55.11Z</time></trkpt><trkpt lat="44.5649083" lon="8.6661817"><ele>302.0</ele><time>2026-04-04T11:25:56.098Z</time></trkpt><trkpt lat="44.5650117" lon="8.6660383"><ele>302.0</ele><time>2026-04-04T11:25:57.103Z</time></trkpt><trkpt lat="44.5651133" lon="8.6659083"><ele>302.0</ele><time>2026-04-04T11:25:58.098Z</time></trkpt><trkpt lat="44.5652233" lon="8.6657917"><ele>301.75</ele><time>2026-04-04T11:25:59.098Z</time></trkpt><trkpt lat="44.5653417" lon="8.6656917"><ele>301.5</ele><time>2026-04-04T11:26:00.097Z</time></trkpt><trkpt lat="44.5654683" lon="8.6656017"><ele>301.25</ele><time>2026-04-04T11:26:01.099Z</time></trkpt><trkpt lat="44.5655933" lon="8.665515"><ele>301.0</ele><time>2026-04-04T11:26:02.1Z</time></trkpt><trkpt lat="44.5657183" lon="8.6654417"><ele>301.0</ele><time>2026-04-04T11:26:03.099Z</time></trkpt><trkpt lat="44.56584" lon="8.66537"><ele>301.0</ele><time>2026-04-04T11:26:04.099Z</time></trkpt><trkpt lat="44.5659633" lon="8.66529"><ele>301.0</ele><time>2026-04-04T11:26:05.102Z</time></trkpt><trkpt lat="44.5660867" lon="8.6652067"><ele>301.0</ele><time>2026-04-04T11:26:06.101Z</time></trkpt><trkpt lat="44.56621" lon="8.6651217"><ele>300.25</ele><time>2026-04-04T11:26:07.101Z</time></trkpt><trkpt lat="44.5663233" lon="8.6650217"><ele>299.5</ele><time>2026-04-04T11:26:08.101Z</time></trkpt><trkpt lat="44.5664283" lon="8.6649167"><ele>298.75</ele><time>2026-04-04T11:26:09.101Z</time></trkpt><trkpt lat="44.5665267" lon="8.66481"><ele>298.0</ele><time>2026-04-04T11:26:10.104Z</time></trkpt><trkpt lat="44.566615" lon="8.6647033"><ele>298.0</ele><time>2026-04-04T11:26:11.104Z</time></trkpt><trkpt lat="44.5667033" lon="8.6645967"><ele>298.0</ele><time>2026-04-04T11:26:12.101Z</time></trkpt><trkpt lat="44.5667917" lon="8.664485"><ele>298.0</ele><time>2026-04-04T11:26:13.101Z</time></trkpt><trkpt lat="44.5668833" lon="8.66439"><ele>298.0</ele><time>2026-04-04T11:26:14.105Z</time></trkpt><trkpt lat="44.56699" lon="8.6643"><ele>297.4</ele><time>2026-04-04T11:26:15.103Z</time></trkpt><trkpt lat="44.5671" lon="8.6642217"><ele>296.8</ele><time>2026-04-04T11:26:16.105Z</time></trkpt><trkpt lat="44.5672117" lon="8.66417"><ele>296.2</ele><time>2026-04-04T11:26:17.104Z</time></trkpt><trkpt lat="44.5673167" lon="8.6641383"><ele>295.6</ele><time>2026-04-04T11:26:18.103Z</time></trkpt><trkpt lat="44.5674117" lon="8.6641267"><ele>295.0</ele><time>2026-04-04T11:26:19.102Z</time></trkpt><trkpt lat="44.5674983" lon="8.664125"><ele>295.0</ele><time>2026-04-04T11:26:20.104Z</time></trkpt><trkpt lat="44.5675833" lon="8.6641383"><ele>295.0</ele><time>2026-04-04T11:26:21.096Z</time></trkpt><trkpt lat="44.5676567" lon="8.664155"><ele>295.0</ele><time>2026-04-04T11:26:22.099Z</time></trkpt><trkpt lat="44.5677633" lon="8.6641783"><ele>295.0</ele><time>2026-04-04T11:26:24.098Z</time></trkpt><trkpt lat="44.567845" lon="8.6641283"><ele>295.0</ele><time>2026-04-04T11:26:26.098Z</time></trkpt><trkpt lat="44.5678367" lon="8.664015"><ele>295.0</ele><time>2026-04-04T11:26:27.103Z</time></trkpt><trkpt lat="44.5678267" lon="8.6639033"><ele>295.0</ele><time>2026-04-04T11:26:28.105Z</time></trkpt><trkpt lat="44.567825" lon="8.6637433"><ele>295.0</ele><time>2026-04-04T11:26:29.102Z</time></trkpt><trkpt lat="44.5678333" lon="8.6635783"><ele>295.0</ele><time>2026-04-04T11:26:30.1Z</time></trkpt><trkpt lat="44.5678517" lon="8.6633983"><ele>295.0</ele><time>2026-04-04T11:26:31.104Z</time></trkpt><trkpt lat="44.567865" lon="8.6632067"><ele>300.75</ele><time>2026-04-04T11:26:32.106Z</time></trkpt><trkpt lat="44.5678783" lon="8.6630083"><ele>306.5</ele><time>2026-04-04T11:26:33.1Z</time></trkpt><trkpt lat="44.567885" lon="8.662815"><ele>312.25</ele><time>2026-04-04T11:26:34.102Z</time></trkpt><trkpt lat="44.5678983" lon="8.6626067"><ele>318.0</ele><time>2026-04-04T11:26:35.109Z</time></trkpt><trkpt lat="44.5679133" lon="8.66241"><ele>318.0</ele><time>2026-04-04T11:26:36.107Z</time></trkpt><trkpt lat="44.567935" lon="8.6622167"><ele>318.0</ele><time>2026-04-04T11:26:37.107Z</time></trkpt><trkpt lat="44.5679683" lon="8.662025"><ele>318.0</ele><time>2026-04-04T11:26:38.103Z</time></trkpt><trkpt lat="44.5679917" lon="8.661845"><ele>318.0</ele><time>2026-04-04T11:26:39.101Z</time></trkpt><trkpt lat="44.56804" lon="8.6616583"><ele>317.3333333333333</ele><time>2026-04-04T11:26:40.098Z</time></trkpt><trkpt lat="44.5680867" lon="8.6614683"><ele>316.66666666666663</ele><time>2026-04-04T11:26:41.105Z</time></trkpt><trkpt lat="44.5681417" lon="8.6612667"><ele>316.0</ele><time>2026-04-04T11:26:42.103Z</time></trkpt><trkpt lat="44.5681967" lon="8.6610617"><ele>315.3333333333333</ele><time>2026-04-04T11:26:43.113Z</time></trkpt><trkpt lat="44.5682567" lon="8.6608433"><ele>314.6666666666667</ele><time>2026-04-04T11:26:44.105Z</time></trkpt><trkpt lat="44.5682967" lon="8.6606217"><ele>314.0</ele><time>2026-04-04T11:26:45.109Z</time></trkpt><trkpt lat="44.5683383" lon="8.6603983"><ele>312.33333333333337</ele><time>2026-04-04T11:26:46.101Z</time></trkpt><trkpt lat="44.5683783" lon="8.660185"><ele>310.6666666666667</ele><time>2026-04-04T11:26:47.108Z</time></trkpt><trkpt lat="44.5684267" lon="8.6599833"><ele>309.0</ele><time>2026-04-04T11:26:48.098Z</time></trkpt><trkpt lat="44.5684783" lon="8.6597883"><ele>309.0</ele><time>2026-04-04T11:26:49.099Z</time></trkpt><trkpt lat="44.568545" lon="8.6596017"><ele>309.0</ele><time>2026-04-04T11:26:50.11Z</time></trkpt><trkpt lat="44.568605" lon="8.65941"><ele>309.0</ele><time>2026-04-04T11:26:51.1Z</time></trkpt><trkpt lat="44.568665" lon="8.659235"><ele>309.0</ele><time>2026-04-04T11:26:52.105Z</time></trkpt><trkpt lat="44.5687067" lon="8.6590433"><ele>308.0</ele><time>2026-04-04T11:26:53.108Z</time></trkpt><trkpt lat="44.568725" lon="8.6588317"><ele>307.0</ele><time>2026-04-04T11:26:54.106Z</time></trkpt><trkpt lat="44.5687117" lon="8.65862"><ele>306.0</ele><time>2026-04-04T11:26:55.105Z</time></trkpt><trkpt lat="44.56868" lon="8.6584167"><ele>306.0</ele><time>2026-04-04T11:26:56.099Z</time></trkpt><trkpt lat="44.5686433" lon="8.6582283"><ele>306.0</ele><time>2026-04-04T11:26:57.101Z</time></trkpt><trkpt lat="44.5686383" lon="8.65803"><ele>306.0</ele><time>2026-04-04T11:26:58.107Z</time></trkpt><trkpt lat="44.5686433" lon="8.657825"><ele>306.0</ele><time>2026-04-04T11:26:59.099Z</time></trkpt><trkpt lat="44.5686467" lon="8.657615"><ele>305.75</ele><time>2026-04-04T11:27:00.103Z</time></trkpt><trkpt lat="44.5686583" lon="8.6574133"><ele>305.5</ele><time>2026-04-04T11:27:01.1Z</time></trkpt><trkpt lat="44.5686767" lon="8.6572233"><ele>305.25</ele><time>2026-04-04T11:27:02.103Z</time></trkpt><trkpt lat="44.5687" lon="8.6570433"><ele>305.0</ele><time>2026-04-04T11:27:03.107Z</time></trkpt><trkpt lat="44.5687317" lon="8.6568783"><ele>313.0</ele><time>2026-04-04T11:27:04.105Z</time></trkpt><trkpt lat="44.56878" lon="8.65673"><ele>321.0</ele><time>2026-04-04T11:27:05.101Z</time></trkpt><trkpt lat="44.5688367" lon="8.6565883"><ele>329.0</ele><time>2026-04-04T11:27:06.1Z</time></trkpt><trkpt lat="44.5688967" lon="8.65643"><ele>337.0</ele><time>2026-04-04T11:27:07.101Z</time></trkpt><trkpt lat="44.5689517" lon="8.6562633"><ele>334.5</ele><time>2026-04-04T11:27:08.101Z</time></trkpt><trkpt lat="44.569005" lon="8.65609"><ele>332.0</ele><time>2026-04-04T11:27:09.101Z</time></trkpt><trkpt lat="44.5690583" lon="8.6559283"><ele>329.5</ele><time>2026-04-04T11:27:10.1Z</time></trkpt><trkpt lat="44.569065" lon="8.6557783"><ele>327.0</ele><time>2026-04-04T11:27:11.105Z</time></trkpt><trkpt lat="44.5690467" lon="8.655635"><ele>327.0</ele><time>2026-04-04T11:27:12.099Z</time></trkpt><trkpt lat="44.5690083" lon="8.6554967"><ele>327.0</ele><time>2026-04-04T11:27:13.103Z</time></trkpt><trkpt lat="44.56894" lon="8.6553583"><ele>327.0</ele><time>2026-04-04T11:27:14.1Z</time></trkpt><trkpt lat="44.56882" lon="8.6552567"><ele>327.0</ele><time>2026-04-04T11:27:15.099Z</time></trkpt><trkpt lat="44.5686667" lon="8.655185"><ele>322.3333333333333</ele><time>2026-04-04T11:27:16.105Z</time></trkpt><trkpt lat="44.5685267" lon="8.6551167"><ele>317.66666666666663</ele><time>2026-04-04T11:27:17.101Z</time></trkpt><trkpt lat="44.568375" lon="8.6550667"><ele>313.0</ele><time>2026-04-04T11:27:18.104Z</time></trkpt><trkpt lat="44.5682233" lon="8.65503"><ele>313.0</ele><time>2026-04-04T11:27:19.102Z</time></trkpt><trkpt lat="44.5680767" lon="8.6550083"><ele>313.0</ele><time>2026-04-04T11:27:20.099Z</time></trkpt><trkpt lat="44.56794" lon="8.6549917"><ele>313.0</ele><time>2026-04-04T11:27:21.102Z</time></trkpt><trkpt lat="44.56782" lon="8.6549533"><ele>313.0</ele><time>2026-04-04T11:27:22.099Z</time></trkpt><trkpt lat="44.56772" lon="8.654875"><ele>312.8</ele><time>2026-04-04T11:27:23.108Z</time></trkpt><trkpt lat="44.5676467" lon="8.6547683"><ele>312.6</ele><time>2026-04-04T11:27:24.098Z</time></trkpt><trkpt lat="44.5675983" lon="8.65464"><ele>312.4</ele><time>2026-04-04T11:27:25.098Z</time></trkpt><trkpt lat="44.567585" lon="8.65449"><ele>312.2</ele><time>2026-04-04T11:27:26.1Z</time></trkpt><trkpt lat="44.5675867" lon="8.6543283"><ele>312.0</ele><time>2026-04-04T11:27:27.098Z</time></trkpt><trkpt lat="44.5675617" lon="8.6541717"><ele>312.75</ele><time>2026-04-04T11:27:28.099Z</time></trkpt><trkpt lat="44.5675033" lon="8.6540217"><ele>313.5</ele><time>2026-04-04T11:27:29.099Z</time></trkpt><trkpt lat="44.5674433" lon="8.65387"><ele>314.25</ele><time>2026-04-04T11:27:30.104Z</time></trkpt><trkpt lat="44.5673967" lon="8.6537117"><ele>315.0</ele><time>2026-04-04T11:27:31.098Z</time></trkpt><trkpt lat="44.56735" lon="8.6535633"><ele>313.0</ele><time>2026-04-04T11:27:32.1Z</time></trkpt><trkpt lat="44.5672817" lon="8.6534233"><ele>311.0</ele><time>2026-04-04T11:27:33.098Z</time></trkpt><trkpt lat="44.567195" lon="8.6532967"><ele>309.0</ele><time>2026-04-04T11:27:34.1Z</time></trkpt><trkpt lat="44.567085" lon="8.6531817"><ele>307.0</ele><time>2026-04-04T11:27:35.101Z</time></trkpt><trkpt lat="44.5669667" lon="8.6530717"><ele>307.0</ele><time>2026-04-04T11:27:36.103Z</time></trkpt><trkpt lat="44.5668483" lon="8.6529617"><ele>307.0</ele><time>2026-04-04T11:27:37.101Z</time></trkpt><trkpt lat="44.56673" lon="8.65286"><ele>307.0</ele><time>2026-04-04T11:27:38.1Z</time></trkpt><trkpt lat="44.5666333" lon="8.6527467"><ele>307.0</ele><time>2026-04-04T11:27:39.103Z</time></trkpt><trkpt lat="44.566545" lon="8.65262"><ele>308.25</ele><time>2026-04-04T11:27:40.101Z</time></trkpt><trkpt lat="44.566445" lon="8.6525117"><ele>309.5</ele><time>2026-04-04T11:27:41.1Z</time></trkpt><trkpt lat="44.5663483" lon="8.6523817"><ele>310.75</ele><time>2026-04-04T11:27:42.101Z</time></trkpt><trkpt lat="44.5662233" lon="8.6522833"><ele>312.0</ele><time>2026-04-04T11:27:43.102Z</time></trkpt><trkpt lat="44.5660833" lon="8.6521983"><ele>312.0</ele><time>2026-04-04T11:27:44.1Z</time></trkpt><trkpt lat="44.5659417" lon="8.6521133"><ele>312.0</ele><time>2026-04-04T11:27:45.104Z</time></trkpt><trkpt lat="44.565795" lon="8.6520367"><ele>312.0</ele><time>2026-04-04T11:27:46.102Z</time></trkpt><trkpt lat="44.5656367" lon="8.65196"><ele>315.6666666666667</ele><time>2026-04-04T11:27:47.101Z</time></trkpt><trkpt lat="44.56548" lon="8.6518883"><ele>319.33333333333337</ele><time>2026-04-04T11:27:48.109Z</time></trkpt><trkpt lat="44.5653233" lon="8.6518183"><ele>323.0</ele><time>2026-04-04T11:27:49.101Z</time></trkpt><trkpt lat="44.5651717" lon="8.6517467"><ele>323.0</ele><time>2026-04-04T11:27:50.099Z</time></trkpt><trkpt lat="44.5650217" lon="8.6516633"><ele>323.0</ele><time>2026-04-04T11:27:51.097Z</time></trkpt><trkpt lat="44.5648767" lon="8.6515567"><ele>323.0</ele><time>2026-04-04T11:27:52.109Z</time></trkpt><trkpt lat="44.5647283" lon="8.6514517"><ele>323.0</ele><time>2026-04-04T11:27:53.101Z</time></trkpt><trkpt lat="44.5645783" lon="8.6513467"><ele>323.0</ele><time>2026-04-04T11:27:54.102Z</time></trkpt><trkpt lat="44.56443" lon="8.6512333"><ele>323.0</ele><time>2026-04-04T11:27:55.1Z</time></trkpt><trkpt lat="44.5642883" lon="8.6511133"><ele>325.5</ele><time>2026-04-04T11:27:56.107Z</time></trkpt><trkpt lat="44.5641667" lon="8.6509783"><ele>328.0</ele><time>2026-04-04T11:27:57.099Z</time></trkpt><trkpt lat="44.5640567" lon="8.6508433"><ele>330.5</ele><time>2026-04-04T11:27:58.103Z</time></trkpt><trkpt lat="44.56394" lon="8.65074"><ele>333.0</ele><time>2026-04-04T11:27:59.1Z</time></trkpt><trkpt lat="44.563805" lon="8.6506783"><ele>331.5</ele><time>2026-04-04T11:28:00.099Z</time></trkpt><trkpt lat="44.5636567" lon="8.650645"><ele>330.0</ele><time>2026-04-04T11:28:01.101Z</time></trkpt><trkpt lat="44.5635067" lon="8.6506367"><ele>328.5</ele><time>2026-04-04T11:28:02.102Z</time></trkpt><trkpt lat="44.5633667" lon="8.6506167"><ele>327.0</ele><time>2026-04-04T11:28:03.099Z</time></trkpt><trkpt lat="44.5632183" lon="8.65062"><ele>327.0</ele><time>2026-04-04T11:28:04.104Z</time></trkpt><trkpt lat="44.5630617" lon="8.6506433"><ele>327.0</ele><time>2026-04-04T11:28:05.102Z</time></trkpt><trkpt lat="44.5629" lon="8.6506717"><ele>327.0</ele><time>2026-04-04T11:28:06.101Z</time></trkpt><trkpt lat="44.5627383" lon="8.6506933"><ele>327.75</ele><time>2026-04-04T11:28:07.102Z</time></trkpt><trkpt lat="44.56259" lon="8.6507083"><ele>328.5</ele><time>2026-04-04T11:28:08.1Z</time></trkpt><trkpt lat="44.56246" lon="8.6507267"><ele>329.25</ele><time>2026-04-04T11:28:09.101Z</time></trkpt><trkpt lat="44.5623417" lon="8.6507417"><ele>330.0</ele><time>2026-04-04T11:28:10.099Z</time></trkpt><trkpt lat="44.56223" lon="8.6507433"><ele>330.0</ele><time>2026-04-04T11:28:11.104Z</time></trkpt><trkpt lat="44.5621267" lon="8.6507067"><ele>330.0</ele><time>2026-04-04T11:28:12.097Z</time></trkpt><trkpt lat="44.5620367" lon="8.6506033"><ele>330.0</ele><time>2026-04-04T11:28:13.106Z</time></trkpt><trkpt lat="44.5619467" lon="8.6504483"><ele>330.0</ele><time>2026-04-04T11:28:14.105Z</time></trkpt><trkpt lat="44.5618417" lon="8.6502867"><ele>332.0</ele><time>2026-04-04T11:28:15.098Z</time></trkpt><trkpt lat="44.5617267" lon="8.6501017"><ele>334.0</ele><time>2026-04-04T11:28:16.099Z</time></trkpt><trkpt lat="44.56161" lon="8.64991"><ele>336.0</ele><time>2026-04-04T11:28:17.1Z</time></trkpt><trkpt lat="44.5614883" lon="8.64971"><ele>336.0</ele><time>2026-04-04T11:28:18.099Z</time></trkpt><trkpt lat="44.5613633" lon="8.6494967"><ele>336.0</ele><time>2026-04-04T11:28:19.1Z</time></trkpt><trkpt lat="44.5612483" lon="8.649265"><ele>336.0</ele><time>2026-04-04T11:28:20.099Z</time></trkpt><trkpt lat="44.5611433" lon="8.649005"><ele>334.0</ele><time>2026-04-04T11:28:21.101Z</time></trkpt><trkpt lat="44.5610433" lon="8.6487483"><ele>332.0</ele><time>2026-04-04T11:28:22.105Z</time></trkpt><trkpt lat="44.5609517" lon="8.6485133"><ele>330.0</ele><time>2026-04-04T11:28:23.097Z</time></trkpt><trkpt lat="44.5608567" lon="8.6483067"><ele>335.3333333333333</ele><time>2026-04-04T11:28:24.106Z</time></trkpt><trkpt lat="44.5607483" lon="8.6481317"><ele>340.66666666666663</ele><time>2026-04-04T11:28:25.105Z</time></trkpt><trkpt lat="44.560625" lon="8.6479917"><ele>346.0</ele><time>2026-04-04T11:28:26.099Z</time></trkpt><trkpt lat="44.560495" lon="8.6478567"><ele>345.5</ele><time>2026-04-04T11:28:27.104Z</time></trkpt><trkpt lat="44.560365" lon="8.6477233"><ele>345.0</ele><time>2026-04-04T11:28:28.1Z</time></trkpt><trkpt lat="44.5602483" lon="8.6476033"><ele>344.5</ele><time>2026-04-04T11:28:29.1Z</time></trkpt><trkpt lat="44.560135" lon="8.6475217"><ele>344.0</ele><time>2026-04-04T11:28:30.102Z</time></trkpt><trkpt lat="44.5600183" lon="8.6474867"><ele>344.0</ele><time>2026-04-04T11:28:31.102Z</time></trkpt><trkpt lat="44.5599017" lon="8.647475"><ele>344.0</ele><time>2026-04-04T11:28:32.1Z</time></trkpt><trkpt lat="44.5597983" lon="8.6474583"><ele>344.0</ele><time>2026-04-04T11:28:33.103Z</time></trkpt><trkpt lat="44.5597117" lon="8.647395"><ele>344.0</ele><time>2026-04-04T11:28:34.106Z</time></trkpt><trkpt lat="44.559635" lon="8.6473167"><ele>344.0</ele><time>2026-04-04T11:28:35.106Z</time></trkpt><trkpt lat="44.5595933" lon="8.6471883"><ele>344.0</ele><time>2026-04-04T11:28:36.099Z</time></trkpt><trkpt lat="44.55957" lon="8.6470283"><ele>344.0</ele><time>2026-04-04T11:28:37.105Z</time></trkpt><trkpt lat="44.5595617" lon="8.6468333"><ele>344.0</ele><time>2026-04-04T11:28:38.098Z</time></trkpt><trkpt lat="44.5595483" lon="8.64662"><ele>344.0</ele><time>2026-04-04T11:28:39.105Z</time></trkpt><trkpt lat="44.5595117" lon="8.6464133"><ele>343.6666666666667</ele><time>2026-04-04T11:28:40.101Z</time></trkpt><trkpt lat="44.559465" lon="8.6461933"><ele>343.3333333333333</ele><time>2026-04-04T11:28:41.097Z</time></trkpt><trkpt lat="44.5593933" lon="8.6459917"><ele>343.0</ele><time>2026-04-04T11:28:42.1Z</time></trkpt><trkpt lat="44.559315" lon="8.645785"><ele>344.75</ele><time>2026-04-04T11:28:43.101Z</time></trkpt><trkpt lat="44.5592367" lon="8.645595"><ele>346.5</ele><time>2026-04-04T11:28:44.1Z</time></trkpt><trkpt lat="44.5591733" lon="8.64543"><ele>348.25</ele><time>2026-04-04T11:28:45.1Z</time></trkpt><trkpt lat="44.559145" lon="8.64527"><ele>350.0</ele><time>2026-04-04T11:28:46.1Z</time></trkpt><trkpt lat="44.5591517" lon="8.6451167"><ele>351.1666666666667</ele><time>2026-04-04T11:28:47.104Z</time></trkpt><trkpt lat="44.5591967" lon="8.64501"><ele>352.33333333333337</ele><time>2026-04-04T11:28:48.104Z</time></trkpt><trkpt lat="44.5592417" lon="8.6449133"><ele>353.5</ele><time>2026-04-04T11:28:49.113Z</time></trkpt><trkpt lat="44.5593083" lon="8.644855"><ele>354.6666666666667</ele><time>2026-04-04T11:28:50.104Z</time></trkpt><trkpt lat="44.559365" lon="8.6448067"><ele>355.8333333333333</ele><time>2026-04-04T11:28:51.1Z</time></trkpt><trkpt lat="44.559435" lon="8.6447767"><ele>357.0</ele><time>2026-04-04T11:28:52.1Z</time></trkpt><trkpt lat="44.5595483" lon="8.6447917"><ele>360.75</ele><time>2026-04-04T11:28:53.103Z</time></trkpt><trkpt lat="44.55971" lon="8.644885"><ele>364.5</ele><time>2026-04-04T11:28:54.101Z</time></trkpt><trkpt lat="44.5598433" lon="8.6449017"><ele>368.25</ele><time>2026-04-04T11:28:55.102Z</time></trkpt><trkpt lat="44.5599667" lon="8.6448633"><ele>372.0</ele><time>2026-04-04T11:28:56.099Z</time></trkpt><trkpt lat="44.5600833" lon="8.6447783"><ele>372.0</ele><time>2026-04-04T11:28:57.108Z</time></trkpt><trkpt lat="44.5602117" lon="8.64469"><ele>372.0</ele><time>2026-04-04T11:28:58.107Z</time></trkpt><trkpt lat="44.5603317" lon="8.6445933"><ele>372.0</ele><time>2026-04-04T11:28:59.102Z</time></trkpt><trkpt lat="44.5604317" lon="8.644505"><ele>372.0</ele><time>2026-04-04T11:29:00.1Z</time></trkpt><trkpt lat="44.5605067" lon="8.6444"><ele>376.0</ele><time>2026-04-04T11:29:01.101Z</time></trkpt><trkpt lat="44.560545" lon="8.6442833"><ele>380.0</ele><time>2026-04-04T11:29:02.099Z</time></trkpt><trkpt lat="44.5605667" lon="8.6441467"><ele>384.0</ele><time>2026-04-04T11:29:03.1Z</time></trkpt><trkpt lat="44.560575" lon="8.6440083"><ele>388.0</ele><time>2026-04-04T11:29:04.1Z</time></trkpt><trkpt lat="44.5605617" lon="8.6438617"><ele>392.0</ele><time>2026-04-04T11:29:05.102Z</time></trkpt><trkpt lat="44.5604983" lon="8.6437333"><ele>391.75</ele><time>2026-04-04T11:29:06.101Z</time></trkpt><trkpt lat="44.5604" lon="8.6436183"><ele>391.5</ele><time>2026-04-04T11:29:07.103Z</time></trkpt><trkpt lat="44.5602933" lon="8.6435233"><ele>391.25</ele><time>2026-04-04T11:29:08.102Z</time></trkpt><trkpt lat="44.5601567" lon="8.643455"><ele>391.0</ele><time>2026-04-04T11:29:09.104Z</time></trkpt><trkpt lat="44.560015" lon="8.6434017"><ele>388.5</ele><time>2026-04-04T11:29:10.104Z</time></trkpt><trkpt lat="44.5598633" lon="8.6433533"><ele>386.0</ele><time>2026-04-04T11:29:11.106Z</time></trkpt><trkpt lat="44.55972" lon="8.6433083"><ele>383.5</ele><time>2026-04-04T11:29:12.101Z</time></trkpt><trkpt lat="44.559585" lon="8.6432517"><ele>381.0</ele><time>2026-04-04T11:29:13.113Z</time></trkpt><trkpt lat="44.5594517" lon="8.6432283"><ele>381.0</ele><time>2026-04-04T11:29:14.105Z</time></trkpt><trkpt lat="44.5593367" lon="8.6432267"><ele>381.0</ele><time>2026-04-04T11:29:15.102Z</time></trkpt><trkpt lat="44.559235" lon="8.643255"><ele>381.0</ele><time>2026-04-04T11:29:16.102Z</time></trkpt><trkpt lat="44.5591483" lon="8.6433233"><ele>381.0</ele><time>2026-04-04T11:29:17.101Z</time></trkpt><trkpt lat="44.55909" lon="8.6434317"><ele>381.0</ele><time>2026-04-04T11:29:18.098Z</time></trkpt><trkpt lat="44.5590117" lon="8.6435233"><ele>381.0</ele><time>2026-04-04T11:29:19.101Z</time></trkpt><trkpt lat="44.5589383" lon="8.64361"><ele>381.0</ele><time>2026-04-04T11:29:20.101Z</time></trkpt><trkpt lat="44.5588533" lon="8.643685"><ele>381.0</ele><time>2026-04-04T11:29:21.099Z</time></trkpt><trkpt lat="44.55875" lon="8.643715"><ele>381.0</ele><time>2026-04-04T11:29:22.107Z</time></trkpt><trkpt lat="44.5586333" lon="8.6436"><ele>381.0</ele><time>2026-04-04T11:29:23.099Z</time></trkpt><trkpt lat="44.5585" lon="8.6434933"><ele>384.25</ele><time>2026-04-04T11:29:24.099Z</time></trkpt><trkpt lat="44.5583833" lon="8.6434367"><ele>387.5</ele><time>2026-04-04T11:29:25.098Z</time></trkpt><trkpt lat="44.558265" lon="8.643435"><ele>390.75</ele><time>2026-04-04T11:29:26.099Z</time></trkpt><trkpt lat="44.5581483" lon="8.6434867"><ele>394.0</ele><time>2026-04-04T11:29:27.098Z</time></trkpt><trkpt lat="44.5580417" lon="8.6435717"><ele>389.0</ele><time>2026-04-04T11:29:28.104Z</time></trkpt><trkpt lat="44.5579383" lon="8.6436817"><ele>384.0</ele><time>2026-04-04T11:29:29.101Z</time></trkpt><trkpt lat="44.5578333" lon="8.6437983"><ele>379.0</ele><time>2026-04-04T11:29:30.105Z</time></trkpt><trkpt lat="44.55773" lon="8.6439067"><ele>374.0</ele><time>2026-04-04T11:29:31.105Z</time></trkpt><trkpt lat="44.55764" lon="8.6439933"><ele>374.0</ele><time>2026-04-04T11:29:32.1Z</time></trkpt><trkpt lat="44.557545" lon="8.644045"><ele>374.0</ele><time>2026-04-04T11:29:33.103Z</time></trkpt><trkpt lat="44.5574433" lon="8.6440617"><ele>374.0</ele><time>2026-04-04T11:29:34.102Z</time></trkpt><trkpt lat="44.5573433" lon="8.6440333"><ele>374.0</ele><time>2026-04-04T11:29:35.105Z</time></trkpt><trkpt lat="44.5572517" lon="8.6439683"><ele>374.0</ele><time>2026-04-04T11:29:36.103Z</time></trkpt><trkpt lat="44.55717" lon="8.6438667"><ele>374.0</ele><time>2026-04-04T11:29:37.106Z</time></trkpt><trkpt lat="44.5571017" lon="8.643745"><ele>374.0</ele><time>2026-04-04T11:29:38.1Z</time></trkpt><trkpt lat="44.5570733" lon="8.6435783"><ele>374.0</ele><time>2026-04-04T11:29:39.099Z</time></trkpt><trkpt lat="44.5570533" lon="8.6434183"><ele>374.0</ele><time>2026-04-04T11:29:40.1Z</time></trkpt><trkpt lat="44.5570717" lon="8.6432133"><ele>381.33333333333337</ele><time>2026-04-04T11:29:41.102Z</time></trkpt><trkpt lat="44.5571067" lon="8.6430167"><ele>388.6666666666667</ele><time>2026-04-04T11:29:42.102Z</time></trkpt><trkpt lat="44.557185" lon="8.642825"><ele>396.0</ele><time>2026-04-04T11:29:43.097Z</time></trkpt><trkpt lat="44.5572867" lon="8.642635"><ele>398.0</ele><time>2026-04-04T11:29:44.098Z</time></trkpt><trkpt lat="44.557335" lon="8.6424667"><ele>400.0</ele><time>2026-04-04T11:29:45.097Z</time></trkpt><trkpt lat="44.55736" lon="8.6423033"><ele>402.0</ele><time>2026-04-04T11:29:46.099Z</time></trkpt><trkpt lat="44.557345" lon="8.6421367"><ele>404.0</ele><time>2026-04-04T11:29:47.1Z</time></trkpt><trkpt lat="44.55732" lon="8.64198"><ele>401.0</ele><time>2026-04-04T11:29:48.103Z</time></trkpt><trkpt lat="44.5572717" lon="8.641835"><ele>398.0</ele><time>2026-04-04T11:29:49.102Z</time></trkpt><trkpt lat="44.557175" lon="8.6417317"><ele>395.0</ele><time>2026-04-04T11:29:50.098Z</time></trkpt><trkpt lat="44.5570783" lon="8.6416483"><ele>392.0</ele><time>2026-04-04T11:29:51.102Z</time></trkpt><trkpt lat="44.55699" lon="8.6415633"><ele>392.0</ele><time>2026-04-04T11:29:52.1Z</time></trkpt><trkpt lat="44.55691" lon="8.6414683"><ele>392.0</ele><time>2026-04-04T11:29:53.101Z</time></trkpt><trkpt lat="44.5568683" lon="8.641335"><ele>392.0</ele><time>2026-04-04T11:29:54.101Z</time></trkpt><trkpt lat="44.5568383" lon="8.6412067"><ele>392.0</ele><time>2026-04-04T11:29:55.104Z</time></trkpt><trkpt lat="44.5568333" lon="8.6410683"><ele>392.0</ele><time>2026-04-04T11:29:56.104Z</time></trkpt><trkpt lat="44.5568483" lon="8.6409067"><ele>394.8</ele><time>2026-04-04T11:29:57.1Z</time></trkpt><trkpt lat="44.5568717" lon="8.6407383"><ele>397.6</ele><time>2026-04-04T11:29:58.102Z</time></trkpt><trkpt lat="44.556895" lon="8.64058"><ele>400.40000000000003</ele><time>2026-04-04T11:29:59.098Z</time></trkpt><trkpt lat="44.5568933" lon="8.6404317"><ele>403.20000000000005</ele><time>2026-04-04T11:30:00.102Z</time></trkpt><trkpt lat="44.55687" lon="8.6402967"><ele>406.0</ele><time>2026-04-04T11:30:01.104Z</time></trkpt><trkpt lat="44.55682" lon="8.640185"><ele>408.75</ele><time>2026-04-04T11:30:02.1Z</time></trkpt><trkpt lat="44.5567533" lon="8.64009"><ele>411.5</ele><time>2026-04-04T11:30:03.102Z</time></trkpt><trkpt lat="44.5566217" lon="8.6400717"><ele>414.25</ele><time>2026-04-04T11:30:04.1Z</time></trkpt><trkpt lat="44.556495" lon="8.6400733"><ele>417.0</ele><time>2026-04-04T11:30:05.106Z</time></trkpt><trkpt lat="44.5563617" lon="8.6400833"><ele>417.0</ele><time>2026-04-04T11:30:06.098Z</time></trkpt><trkpt lat="44.5562383" lon="8.6400917"><ele>417.0</ele><time>2026-04-04T11:30:07.1Z</time></trkpt><trkpt lat="44.5561117" lon="8.640105"><ele>417.0</ele><time>2026-04-04T11:30:08.104Z</time></trkpt><trkpt lat="44.5559967" lon="8.64009"><ele>417.0</ele><time>2026-04-04T11:30:09.102Z</time></trkpt><trkpt lat="44.5558883" lon="8.6400417"><ele>416.75</ele><time>2026-04-04T11:30:10.099Z</time></trkpt><trkpt lat="44.5558017" lon="8.6399467"><ele>416.5</ele><time>2026-04-04T11:30:11.101Z</time></trkpt><trkpt lat="44.555725" lon="8.6398233"><ele>416.25</ele><time>2026-04-04T11:30:12.099Z</time></trkpt><trkpt lat="44.5556567" lon="8.6396767"><ele>416.0</ele><time>2026-04-04T11:30:13.102Z</time></trkpt><trkpt lat="44.555585" lon="8.6395083"><ele>418.5</ele><time>2026-04-04T11:30:14.102Z</time></trkpt><trkpt lat="44.5555167" lon="8.6393333"><ele>421.0</ele><time>2026-04-04T11:30:15.1Z</time></trkpt><trkpt lat="44.5554683" lon="8.6391567"><ele>423.5</ele><time>2026-04-04T11:30:16.101Z</time></trkpt><trkpt lat="44.5554383" lon="8.6389933"><ele>426.0</ele><time>2026-04-04T11:30:17.102Z</time></trkpt><trkpt lat="44.5554383" lon="8.6388417"><ele>426.0</ele><time>2026-04-04T11:30:18.105Z</time></trkpt><trkpt lat="44.5554667" lon="8.638685"><ele>426.0</ele><time>2026-04-04T11:30:19.106Z</time></trkpt><trkpt lat="44.555505" lon="8.6385233"><ele>426.0</ele><time>2026-04-04T11:30:20.101Z</time></trkpt><trkpt lat="44.5555833" lon="8.638335"><ele>426.0</ele><time>2026-04-04T11:30:21.103Z</time></trkpt><trkpt lat="44.5556567" lon="8.6381267"><ele>427.25</ele><time>2026-04-04T11:30:22.101Z</time></trkpt><trkpt lat="44.55572" lon="8.6379183"><ele>428.5</ele><time>2026-04-04T11:30:23.102Z</time></trkpt><trkpt lat="44.5557733" lon="8.6377283"><ele>429.75</ele><time>2026-04-04T11:30:24.099Z</time></trkpt><trkpt lat="44.5558233" lon="8.637565"><ele>431.0</ele><time>2026-04-04T11:30:25.102Z</time></trkpt><trkpt lat="44.5558567" lon="8.6374183"><ele>431.3333333333333</ele><time>2026-04-04T11:30:26.102Z</time></trkpt><trkpt lat="44.555875" lon="8.63729"><ele>431.66666666666663</ele><time>2026-04-04T11:30:27.103Z</time></trkpt><trkpt lat="44.555855" lon="8.63719"><ele>432.0</ele><time>2026-04-04T11:30:28.101Z</time></trkpt><trkpt lat="44.5557733" lon="8.6371733"><ele>432.33333333333337</ele><time>2026-04-04T11:30:29.102Z</time></trkpt><trkpt lat="44.55569" lon="8.6371917"><ele>432.6666666666667</ele><time>2026-04-04T11:30:30.099Z</time></trkpt><trkpt lat="44.5556033" lon="8.637255"><ele>433.0</ele><time>2026-04-04T11:30:31.099Z</time></trkpt><trkpt lat="44.5555067" lon="8.6373583"><ele>433.0</ele><time>2026-04-04T11:30:32.098Z</time></trkpt><trkpt lat="44.5554067" lon="8.6374883"><ele>433.0</ele><time>2026-04-04T11:30:33.099Z</time></trkpt><trkpt lat="44.5553117" lon="8.6376183"><ele>433.0</ele><time>2026-04-04T11:30:34.099Z</time></trkpt><trkpt lat="44.5552217" lon="8.6377417"><ele>433.0</ele><time>2026-04-04T11:30:35.104Z</time></trkpt><trkpt lat="44.5551383" lon="8.6378583"><ele>430.4</ele><time>2026-04-04T11:30:36.101Z</time></trkpt><trkpt lat="44.5550483" lon="8.6379633"><ele>427.79999999999995</ele><time>2026-04-04T11:30:37.103Z</time></trkpt><trkpt lat="44.5549567" lon="8.6380067"><ele>425.2</ele><time>2026-04-04T11:30:38.1Z</time></trkpt><trkpt lat="44.5548617" lon="8.6380017"><ele>422.6</ele><time>2026-04-04T11:30:39.101Z</time></trkpt><trkpt lat="44.5547833" lon="8.6379633"><ele>420.0</ele><time>2026-04-04T11:30:40.102Z</time></trkpt><trkpt lat="44.55471" lon="8.6378733"><ele>424.0</ele><time>2026-04-04T11:30:41.102Z</time></trkpt><trkpt lat="44.55462" lon="8.6377733"><ele>428.0</ele><time>2026-04-04T11:30:42.102Z</time></trkpt><trkpt lat="44.5545367" lon="8.6376167"><ele>432.0</ele><time>2026-04-04T11:30:43.104Z</time></trkpt><trkpt lat="44.55447" lon="8.6374317"><ele>436.0</ele><time>2026-04-04T11:30:44.105Z</time></trkpt><trkpt lat="44.5544" lon="8.6372767"><ele>436.33333333333337</ele><time>2026-04-04T11:30:45.098Z</time></trkpt><trkpt lat="44.554335" lon="8.63716"><ele>436.6666666666667</ele><time>2026-04-04T11:30:46.099Z</time></trkpt><trkpt lat="44.554285" lon="8.6370633"><ele>437.0</ele><time>2026-04-04T11:30:47.102Z</time></trkpt><trkpt lat="44.55422" lon="8.6370067"><ele>437.33333333333337</ele><time>2026-04-04T11:30:48.099Z</time></trkpt><trkpt lat="44.55414" lon="8.6370183"><ele>437.6666666666667</ele><time>2026-04-04T11:30:49.107Z</time></trkpt><trkpt lat="44.5540517" lon="8.637035"><ele>438.0</ele><time>2026-04-04T11:30:50.101Z</time></trkpt><trkpt lat="44.553955" lon="8.6371367"><ele>438.0</ele><time>2026-04-04T11:30:51.101Z</time></trkpt><trkpt lat="44.553895" lon="8.637235"><ele>437.99999999999994</ele><time>2026-04-04T11:30:52.099Z</time></trkpt><trkpt lat="44.55387" lon="8.6373583"><ele>437.99999999999994</ele><time>2026-04-04T11:30:53.1Z</time></trkpt><trkpt lat="44.5538667" lon="8.637495"><ele>438.0</ele><time>2026-04-04T11:30:54.098Z</time></trkpt><trkpt lat="44.5538883" lon="8.6376467"><ele>438.0</ele><time>2026-04-04T11:30:55.098Z</time></trkpt><trkpt lat="44.5539183" lon="8.63782"><ele>437.75</ele><time>2026-04-04T11:30:56.101Z</time></trkpt><trkpt lat="44.5539383" lon="8.6380033"><ele>437.5</ele><time>2026-04-04T11:30:57.099Z</time></trkpt><trkpt lat="44.5539533" lon="8.6381817"><ele>437.25</ele><time>2026-04-04T11:30:58.099Z</time></trkpt><trkpt lat="44.5539617" lon="8.6383433"><ele>437.0</ele><time>2026-04-04T11:30:59.099Z</time></trkpt><trkpt lat="44.5539433" lon="8.6384933"><ele>435.75</ele><time>2026-04-04T11:31:00.102Z</time></trkpt><trkpt lat="44.5539167" lon="8.638635"><ele>434.5</ele><time>2026-04-04T11:31:01.1Z</time></trkpt><trkpt lat="44.553865" lon="8.6387883"><ele>433.25</ele><time>2026-04-04T11:31:02.102Z</time></trkpt><trkpt lat="44.5538367" lon="8.6389467"><ele>432.0</ele><time>2026-04-04T11:31:03.099Z</time></trkpt><trkpt lat="44.5538233" lon="8.6391117"><ele>432.0</ele><time>2026-04-04T11:31:04.108Z</time></trkpt><trkpt lat="44.5538117" lon="8.6392867"><ele>432.00000000000006</ele><time>2026-04-04T11:31:05.099Z</time></trkpt><trkpt lat="44.5538117" lon="8.6394467"><ele>432.00000000000006</ele><time>2026-04-04T11:31:06.107Z</time></trkpt><trkpt lat="44.553805" lon="8.6395867"><ele>432.0</ele><time>2026-04-04T11:31:07.107Z</time></trkpt><trkpt lat="44.5537683" lon="8.6397067"><ele>432.0</ele><time>2026-04-04T11:31:08.108Z</time></trkpt><trkpt lat="44.5537083" lon="8.6398133"><ele>431.5</ele><time>2026-04-04T11:31:09.105Z</time></trkpt><trkpt lat="44.5536383" lon="8.639885"><ele>431.0</ele><time>2026-04-04T11:31:10.099Z</time></trkpt><trkpt lat="44.5535033" lon="8.6398967"><ele>430.5</ele><time>2026-04-04T11:31:11.105Z</time></trkpt><trkpt lat="44.5533883" lon="8.63977"><ele>430.0</ele><time>2026-04-04T11:31:12.1Z</time></trkpt><trkpt lat="44.55329" lon="8.639685"><ele>430.0</ele><time>2026-04-04T11:31:13.1Z</time></trkpt><trkpt lat="44.553195" lon="8.6395817"><ele>430.0</ele><time>2026-04-04T11:31:14.102Z</time></trkpt><trkpt lat="44.5531217" lon="8.6394483"><ele>430.0</ele><time>2026-04-04T11:31:15.103Z</time></trkpt><trkpt lat="44.5530467" lon="8.6393283"><ele>430.0</ele><time>2026-04-04T11:31:16.102Z</time></trkpt><trkpt lat="44.553025" lon="8.63907"><ele>431.25</ele><time>2026-04-04T11:31:17.105Z</time></trkpt><trkpt lat="44.552975" lon="8.6388933"><ele>432.5</ele><time>2026-04-04T11:31:18.101Z</time></trkpt><trkpt lat="44.5529333" lon="8.6387233"><ele>433.75</ele><time>2026-04-04T11:31:19.1Z</time></trkpt><trkpt lat="44.5528933" lon="8.63856"><ele>435.0</ele><time>2026-04-04T11:31:20.101Z</time></trkpt><trkpt lat="44.55285" lon="8.6384167"><ele>435.0</ele><time>2026-04-04T11:31:21.1Z</time></trkpt><trkpt lat="44.5528083" lon="8.63829"><ele>435.0</ele><time>2026-04-04T11:31:22.1Z</time></trkpt><trkpt lat="44.5527533" lon="8.6381767"><ele>435.0</ele><time>2026-04-04T11:31:23.101Z</time></trkpt><trkpt lat="44.552695" lon="8.638055"><ele>435.0</ele><time>2026-04-04T11:31:24.105Z</time></trkpt><trkpt lat="44.552625" lon="8.6379233"><ele>435.0</ele><time>2026-04-04T11:31:25.1Z</time></trkpt><trkpt lat="44.552535" lon="8.6378067"><ele>441.75</ele><time>2026-04-04T11:31:26.101Z</time></trkpt><trkpt lat="44.552425" lon="8.63769"><ele>448.5</ele><time>2026-04-04T11:31:27.1Z</time></trkpt><trkpt lat="44.55231" lon="8.6375967"><ele>455.25</ele><time>2026-04-04T11:31:28.1Z</time></trkpt><trkpt lat="44.5522017" lon="8.6375117"><ele>462.0</ele><time>2026-04-04T11:31:29.106Z</time></trkpt><trkpt lat="44.55211" lon="8.63743"><ele>464.0</ele><time>2026-04-04T11:31:30.099Z</time></trkpt><trkpt lat="44.5520383" lon="8.6373317"><ele>466.00000000000006</ele><time>2026-04-04T11:31:31.104Z</time></trkpt><trkpt lat="44.5519933" lon="8.6372117"><ele>468.00000000000006</ele><time>2026-04-04T11:31:32.1Z</time></trkpt><trkpt lat="44.551985" lon="8.6371117"><ele>470.0</ele><time>2026-04-04T11:31:33.105Z</time></trkpt><trkpt lat="44.5520117" lon="8.6370033"><ele>472.0</ele><time>2026-04-04T11:31:34.111Z</time></trkpt><trkpt lat="44.552065" lon="8.63688"><ele>472.0</ele><time>2026-04-04T11:31:35.103Z</time></trkpt><trkpt lat="44.55212" lon="8.636735"><ele>472.0</ele><time>2026-04-04T11:31:36.105Z</time></trkpt><trkpt lat="44.5521367" lon="8.6365533"><ele>472.0</ele><time>2026-04-04T11:31:37.101Z</time></trkpt><trkpt lat="44.552135" lon="8.63636"><ele>472.0</ele><time>2026-04-04T11:31:38.104Z</time></trkpt><trkpt lat="44.5521283" lon="8.6361567"><ele>472.25</ele><time>2026-04-04T11:31:39.101Z</time></trkpt><trkpt lat="44.5521517" lon="8.6359433"><ele>472.5</ele><time>2026-04-04T11:31:40.101Z</time></trkpt><trkpt lat="44.552185" lon="8.6357583"><ele>472.75</ele><time>2026-04-04T11:31:41.1Z</time></trkpt><trkpt lat="44.55222" lon="8.63558"><ele>473.0</ele><time>2026-04-04T11:31:42.101Z</time></trkpt><trkpt lat="44.5522333" lon="8.6354083"><ele>473.25</ele><time>2026-04-04T11:31:43.101Z</time></trkpt><trkpt lat="44.5522217" lon="8.635235"><ele>473.5</ele><time>2026-04-04T11:31:44.1Z</time></trkpt><trkpt lat="44.5521833" lon="8.6350733"><ele>473.75</ele><time>2026-04-04T11:31:45.104Z</time></trkpt><trkpt lat="44.5521233" lon="8.6349383"><ele>474.0</ele><time>2026-04-04T11:31:46.104Z</time></trkpt><trkpt lat="44.55205" lon="8.634825"><ele>474.75</ele><time>2026-04-04T11:31:47.111Z</time></trkpt><trkpt lat="44.5519633" lon="8.6347367"><ele>475.5</ele><time>2026-04-04T11:31:48.1Z</time></trkpt><trkpt lat="44.5518617" lon="8.6346883"><ele>476.25</ele><time>2026-04-04T11:31:49.105Z</time></trkpt><trkpt lat="44.5517667" lon="8.6345933"><ele>477.0</ele><time>2026-04-04T11:31:50.102Z</time></trkpt><trkpt lat="44.5516833" lon="8.6344633"><ele>477.0</ele><time>2026-04-04T11:31:51.106Z</time></trkpt><trkpt lat="44.5516" lon="8.63432"><ele>477.0</ele><time>2026-04-04T11:31:52.1Z</time></trkpt><trkpt lat="44.5515" lon="8.6341783"><ele>477.0</ele><time>2026-04-04T11:31:53.104Z</time></trkpt><trkpt lat="44.5513867" lon="8.6340467"><ele>477.0</ele><time>2026-04-04T11:31:54.099Z</time></trkpt><trkpt lat="44.5512717" lon="8.6339167"><ele>478.75</ele><time>2026-04-04T11:31:55.108Z</time></trkpt><trkpt lat="44.55116" lon="8.6337933"><ele>480.5</ele><time>2026-04-04T11:31:56.1Z</time></trkpt><trkpt lat="44.5510617" lon="8.633645"><ele>482.25</ele><time>2026-04-04T11:31:57.106Z</time></trkpt><trkpt lat="44.5509817" lon="8.6334733"><ele>484.0</ele><time>2026-04-04T11:31:58.104Z</time></trkpt><trkpt lat="44.550915" lon="8.6332917"><ele>484.25</ele><time>2026-04-04T11:31:59.113Z</time></trkpt><trkpt lat="44.5508667" lon="8.6331183"><ele>484.5</ele><time>2026-04-04T11:32:00.099Z</time></trkpt><trkpt lat="44.5508533" lon="8.6329583"><ele>484.75</ele><time>2026-04-04T11:32:01.102Z</time></trkpt><trkpt lat="44.5508533" lon="8.632805"><ele>485.0</ele><time>2026-04-04T11:32:02.104Z</time></trkpt><trkpt lat="44.5508733" lon="8.6326517"><ele>485.25</ele><time>2026-04-04T11:32:03.102Z</time></trkpt><trkpt lat="44.55088" lon="8.6324833"><ele>485.5</ele><time>2026-04-04T11:32:04.1Z</time></trkpt><trkpt lat="44.55087" lon="8.6322983"><ele>485.75</ele><time>2026-04-04T11:32:05.101Z</time></trkpt><trkpt lat="44.5508467" lon="8.632115"><ele>486.0</ele><time>2026-04-04T11:32:06.112Z</time></trkpt><trkpt lat="44.5508083" lon="8.631935"><ele>486.25</ele><time>2026-04-04T11:32:07.102Z</time></trkpt><trkpt lat="44.55074" lon="8.6317667"><ele>486.5</ele><time>2026-04-04T11:32:08.101Z</time></trkpt><trkpt lat="44.5506517" lon="8.63161"><ele>486.75</ele><time>2026-04-04T11:32:09.102Z</time></trkpt><trkpt lat="44.5505433" lon="8.6314633"><ele>487.0</ele><time>2026-04-04T11:32:10.104Z</time></trkpt><trkpt lat="44.5504333" lon="8.631315"><ele>486.0</ele><time>2026-04-04T11:32:11.106Z</time></trkpt><trkpt lat="44.55032" lon="8.63118"><ele>485.0</ele><time>2026-04-04T11:32:12.105Z</time></trkpt><trkpt lat="44.5502017" lon="8.63107"><ele>484.0</ele><time>2026-04-04T11:32:13.103Z</time></trkpt><trkpt lat="44.5500767" lon="8.6309967"><ele>483.0</ele><time>2026-04-04T11:32:14.107Z</time></trkpt><trkpt lat="44.5499517" lon="8.6309517"><ele>483.0</ele><time>2026-04-04T11:32:15.102Z</time></trkpt><trkpt lat="44.5498333" lon="8.6309483"><ele>482.99999999999994</ele><time>2026-04-04T11:32:16.104Z</time></trkpt><trkpt lat="44.5497267" lon="8.63098"><ele>482.99999999999994</ele><time>2026-04-04T11:32:17.104Z</time></trkpt><trkpt lat="44.5496383" lon="8.6310667"><ele>483.0</ele><time>2026-04-04T11:32:18.102Z</time></trkpt><trkpt lat="44.549565" lon="8.631185"><ele>483.0</ele><time>2026-04-04T11:32:19.104Z</time></trkpt><trkpt lat="44.5494933" lon="8.63132"><ele>485.25</ele><time>2026-04-04T11:32:20.103Z</time></trkpt><trkpt lat="44.549415" lon="8.6314317"><ele>487.5</ele><time>2026-04-04T11:32:21.102Z</time></trkpt><trkpt lat="44.5493233" lon="8.631535"><ele>489.75</ele><time>2026-04-04T11:32:22.098Z</time></trkpt><trkpt lat="44.5492117" lon="8.63159"><ele>492.0</ele><time>2026-04-04T11:32:23.104Z</time></trkpt><trkpt lat="44.5490833" lon="8.6315933"><ele>492.0</ele><time>2026-04-04T11:32:24.098Z</time></trkpt><trkpt lat="44.5489433" lon="8.6315733"><ele>492.0</ele><time>2026-04-04T11:32:25.105Z</time></trkpt><trkpt lat="44.5488167" lon="8.6315367"><ele>492.0</ele><time>2026-04-04T11:32:26.101Z</time></trkpt><trkpt lat="44.54871" lon="8.63148"><ele>492.0</ele><time>2026-04-04T11:32:27.101Z</time></trkpt><trkpt lat="44.5486283" lon="8.631385"><ele>491.0</ele><time>2026-04-04T11:32:28.099Z</time></trkpt><trkpt lat="44.5485567" lon="8.6312817"><ele>490.00000000000006</ele><time>2026-04-04T11:32:29.101Z</time></trkpt><trkpt lat="44.548505" lon="8.6311667"><ele>489.00000000000006</ele><time>2026-04-04T11:32:30.102Z</time></trkpt><trkpt lat="44.5484767" lon="8.6310333"><ele>488.0</ele><time>2026-04-04T11:32:31.103Z</time></trkpt><trkpt lat="44.5484117" lon="8.63094"><ele>487.0</ele><time>2026-04-04T11:32:32.101Z</time></trkpt><trkpt lat="44.5483317" lon="8.6308917"><ele>490.6</ele><time>2026-04-04T11:32:33.103Z</time></trkpt><trkpt lat="44.5482483" lon="8.630865"><ele>494.20000000000005</ele><time>2026-04-04T11:32:34.102Z</time></trkpt><trkpt lat="44.5481583" lon="8.6308483"><ele>497.8</ele><time>2026-04-04T11:32:35.103Z</time></trkpt><trkpt lat="44.5480633" lon="8.63084"><ele>501.4</ele><time>2026-04-04T11:32:36.104Z</time></trkpt><trkpt lat="44.547935" lon="8.630845"><ele>505.0</ele><time>2026-04-04T11:32:37.104Z</time></trkpt><trkpt lat="44.54779" lon="8.6308683"><ele>505.25</ele><time>2026-04-04T11:32:38.108Z</time></trkpt><trkpt lat="44.5476483" lon="8.6308817"><ele>505.5</ele><time>2026-04-04T11:32:39.103Z</time></trkpt><trkpt lat="44.54754" lon="8.63085"><ele>505.75</ele><time>2026-04-04T11:32:40.1Z</time></trkpt><trkpt lat="44.54743" lon="8.63082"><ele>506.0</ele><time>2026-04-04T11:32:41.102Z</time></trkpt><trkpt lat="44.547345" lon="8.6307467"><ele>506.0</ele><time>2026-04-04T11:32:42.102Z</time></trkpt><trkpt lat="44.5472767" lon="8.6306283"><ele>506.0</ele><time>2026-04-04T11:32:43.107Z</time></trkpt><trkpt lat="44.5472333" lon="8.63047"><ele>506.0</ele><time>2026-04-04T11:32:44.101Z</time></trkpt><trkpt lat="44.5471867" lon="8.6303117"><ele>506.0</ele><time>2026-04-04T11:32:45.104Z</time></trkpt><trkpt lat="44.5471233" lon="8.6301733"><ele>508.20000000000005</ele><time>2026-04-04T11:32:46.104Z</time></trkpt><trkpt lat="44.5470517" lon="8.6300617"><ele>510.40000000000003</ele><time>2026-04-04T11:32:47.105Z</time></trkpt><trkpt lat="44.5469717" lon="8.6299817"><ele>512.6</ele><time>2026-04-04T11:32:48.099Z</time></trkpt><trkpt lat="44.5468883" lon="8.629935"><ele>514.8000000000001</ele><time>2026-04-04T11:32:49.102Z</time></trkpt><trkpt lat="44.5468083" lon="8.6299033"><ele>517.0</ele><time>2026-04-04T11:32:50.101Z</time></trkpt><trkpt lat="44.5467167" lon="8.6299667"><ele>517.0</ele><time>2026-04-04T11:32:51.101Z</time></trkpt><trkpt lat="44.54666" lon="8.630055"><ele>517.0</ele><time>2026-04-04T11:32:52.101Z</time></trkpt><trkpt lat="44.5466083" lon="8.630155"><ele>517.0</ele><time>2026-04-04T11:32:53.103Z</time></trkpt><trkpt lat="44.5465567" lon="8.6302667"><ele>517.0</ele><time>2026-04-04T11:32:54.1Z</time></trkpt><trkpt lat="44.546495" lon="8.6303567"><ele>517.0</ele><time>2026-04-04T11:32:55.108Z</time></trkpt><trkpt lat="44.5464367" lon="8.6304283"><ele>517.0</ele><time>2026-04-04T11:32:56.099Z</time></trkpt><trkpt lat="44.5463383" lon="8.6303817"><ele>518.75</ele><time>2026-04-04T11:32:57.104Z</time></trkpt><trkpt lat="44.5462267" lon="8.63033"><ele>520.5</ele><time>2026-04-04T11:32:58.101Z</time></trkpt><trkpt lat="44.5461067" lon="8.6302683"><ele>522.25</ele><time>2026-04-04T11:32:59.101Z</time></trkpt><trkpt lat="44.5459883" lon="8.6302083"><ele>524.0</ele><time>2026-04-04T11:33:00.103Z</time></trkpt><trkpt lat="44.5458717" lon="8.6301783"><ele>524.0</ele><time>2026-04-04T11:33:01.1Z</time></trkpt><trkpt lat="44.5457667" lon="8.6301783"><ele>524.0</ele><time>2026-04-04T11:33:02.103Z</time></trkpt><trkpt lat="44.5456833" lon="8.63021"><ele>524.0</ele><time>2026-04-04T11:33:03.102Z</time></trkpt><trkpt lat="44.545605" lon="8.6302717"><ele>524.0</ele><time>2026-04-04T11:33:04.102Z</time></trkpt><trkpt lat="44.5455567" lon="8.63038"><ele>524.0</ele><time>2026-04-04T11:33:05.11Z</time></trkpt><trkpt lat="44.5455183" lon="8.6305283"><ele>519.0</ele><time>2026-04-04T11:33:06.1Z</time></trkpt><trkpt lat="44.5455083" lon="8.6307083"><ele>514.0</ele><time>2026-04-04T11:33:07.109Z</time></trkpt><trkpt lat="44.5454833" lon="8.6308733"><ele>509.0</ele><time>2026-04-04T11:33:08.098Z</time></trkpt><trkpt lat="44.5454433" lon="8.631015"><ele>504.0</ele><time>2026-04-04T11:33:09.106Z</time></trkpt><trkpt lat="44.5453833" lon="8.6311233"><ele>508.25</ele><time>2026-04-04T11:33:10.106Z</time></trkpt><trkpt lat="44.545295" lon="8.6312083"><ele>512.5</ele><time>2026-04-04T11:33:11.105Z</time></trkpt><trkpt lat="44.545185" lon="8.6312933"><ele>516.75</ele><time>2026-04-04T11:33:12.1Z</time></trkpt><trkpt lat="44.545075" lon="8.631405"><ele>521.0</ele><time>2026-04-04T11:33:13.107Z</time></trkpt><trkpt lat="44.5449633" lon="8.631515"><ele>521.0</ele><time>2026-04-04T11:33:14.101Z</time></trkpt><trkpt lat="44.5448833" lon="8.6316417"><ele>521.0</ele><time>2026-04-04T11:33:15.102Z</time></trkpt><trkpt lat="44.5448317" lon="8.6317717"><ele>521.0</ele><time>2026-04-04T11:33:16.103Z</time></trkpt><trkpt lat="44.5448267" lon="8.6319067"><ele>521.0</ele><time>2026-04-04T11:33:17.106Z</time></trkpt><trkpt lat="44.5448433" lon="8.6320433"><ele>521.0</ele><time>2026-04-04T11:33:18.1Z</time></trkpt><trkpt lat="44.5448583" lon="8.63217"><ele>519.6</ele><time>2026-04-04T11:33:19.102Z</time></trkpt><trkpt lat="44.5448483" lon="8.632285"><ele>518.2</ele><time>2026-04-04T11:33:20.101Z</time></trkpt><trkpt lat="44.5448233" lon="8.632395"><ele>516.8</ele><time>2026-04-04T11:33:21.103Z</time></trkpt><trkpt lat="44.5447667" lon="8.6324967"><ele>515.4</ele><time>2026-04-04T11:33:22.109Z</time></trkpt><trkpt lat="44.544695" lon="8.63261"><ele>514.0</ele><time>2026-04-04T11:33:23.101Z</time></trkpt><trkpt lat="44.5446" lon="8.63275"><ele>516.75</ele><time>2026-04-04T11:33:24.106Z</time></trkpt><trkpt lat="44.544545" lon="8.6329083"><ele>519.5</ele><time>2026-04-04T11:33:25.103Z</time></trkpt><trkpt lat="44.5445167" lon="8.633065"><ele>522.25</ele><time>2026-04-04T11:33:26.109Z</time></trkpt><trkpt lat="44.5444983" lon="8.633225"><ele>525.0</ele><time>2026-04-04T11:33:27.101Z</time></trkpt><trkpt lat="44.5444733" lon="8.6333667"><ele>525.0</ele><time>2026-04-04T11:33:28.103Z</time></trkpt><trkpt lat="44.54445" lon="8.6334883"><ele>525.0</ele><time>2026-04-04T11:33:29.102Z</time></trkpt><trkpt lat="44.544415" lon="8.63359"><ele>525.0</ele><time>2026-04-04T11:33:30.103Z</time></trkpt><trkpt lat="44.54435" lon="8.6336433"><ele>525.0</ele><time>2026-04-04T11:33:31.104Z</time></trkpt><trkpt lat="44.5442883" lon="8.6336917"><ele>525.0</ele><time>2026-04-04T11:33:32.101Z</time></trkpt><trkpt lat="44.5442133" lon="8.6334683"><ele>525.0</ele><time>2026-04-04T11:33:33.108Z</time></trkpt><trkpt lat="44.5441483" lon="8.6333567"><ele>525.0</ele><time>2026-04-04T11:33:34.098Z</time></trkpt><trkpt lat="44.5440783" lon="8.6331917"><ele>525.0</ele><time>2026-04-04T11:33:35.1Z</time></trkpt><trkpt lat="44.5439717" lon="8.63303"><ele>525.0</ele><time>2026-04-04T11:33:36.104Z</time></trkpt><trkpt lat="44.5438617" lon="8.63289"><ele>523.75</ele><time>2026-04-04T11:33:37.104Z</time></trkpt><trkpt lat="44.543755" lon="8.632765"><ele>522.5</ele><time>2026-04-04T11:33:38.101Z</time></trkpt><trkpt lat="44.5436683" lon="8.6326433"><ele>521.25</ele><time>2026-04-04T11:33:39.103Z</time></trkpt><trkpt lat="44.5436133" lon="8.6325233"><ele>520.0</ele><time>2026-04-04T11:33:40.101Z</time></trkpt><trkpt lat="44.5435917" lon="8.6323983"><ele>520.0</ele><time>2026-04-04T11:33:41.103Z</time></trkpt><trkpt lat="44.54359" lon="8.6322833"><ele>520.0</ele><time>2026-04-04T11:33:42.1Z</time></trkpt><trkpt lat="44.5436533" lon="8.6321733"><ele>520.0</ele><time>2026-04-04T11:33:43.102Z</time></trkpt><trkpt lat="44.54368" lon="8.632055"><ele>520.0</ele><time>2026-04-04T11:33:44.104Z</time></trkpt><trkpt lat="44.543675" lon="8.63192"><ele>520.0</ele><time>2026-04-04T11:33:45.11Z</time></trkpt><trkpt lat="44.5436517" lon="8.6317883"><ele>524.75</ele><time>2026-04-04T11:33:46.098Z</time></trkpt><trkpt lat="44.54359" lon="8.631675"><ele>529.5</ele><time>2026-04-04T11:33:47.104Z</time></trkpt><trkpt lat="44.5435017" lon="8.6315633"><ele>534.25</ele><time>2026-04-04T11:33:48.099Z</time></trkpt><trkpt lat="44.543405" lon="8.63145"><ele>539.0</ele><time>2026-04-04T11:33:49.106Z</time></trkpt><trkpt lat="44.543295" lon="8.6313383"><ele>539.0</ele><time>2026-04-04T11:33:50.106Z</time></trkpt><trkpt lat="44.5431783" lon="8.6312333"><ele>539.0</ele><time>2026-04-04T11:33:51.104Z</time></trkpt><trkpt lat="44.5430617" lon="8.6311383"><ele>539.0</ele><time>2026-04-04T11:33:52.099Z</time></trkpt><trkpt lat="44.5429467" lon="8.631055"><ele>539.0</ele><time>2026-04-04T11:33:53.099Z</time></trkpt><trkpt lat="44.542835" lon="8.631005"><ele>542.2</ele><time>2026-04-04T11:33:54.104Z</time></trkpt><trkpt lat="44.54272" lon="8.6310017"><ele>545.4</ele><time>2026-04-04T11:33:55.1Z</time></trkpt><trkpt lat="44.5426133" lon="8.6310367"><ele>548.6</ele><time>2026-04-04T11:33:56.102Z</time></trkpt><trkpt lat="44.5425117" lon="8.6310667"><ele>551.8</ele><time>2026-04-04T11:33:57.099Z</time></trkpt><trkpt lat="44.54241" lon="8.6310567"><ele>555.0</ele><time>2026-04-04T11:33:58.101Z</time></trkpt><trkpt lat="44.5423133" lon="8.6310017"><ele>555.0</ele><time>2026-04-04T11:33:59.103Z</time></trkpt><trkpt lat="44.542225" lon="8.63091"><ele>555.0</ele><time>2026-04-04T11:34:00.097Z</time></trkpt><trkpt lat="44.5421517" lon="8.630785"><ele>555.0</ele><time>2026-04-04T11:34:01.101Z</time></trkpt><trkpt lat="44.54209" lon="8.6306433"><ele>555.0</ele><time>2026-04-04T11:34:02.102Z</time></trkpt><trkpt lat="44.54201" lon="8.6305367"><ele>552.2</ele><time>2026-04-04T11:34:03.107Z</time></trkpt><trkpt lat="44.54192" lon="8.6304733"><ele>549.4</ele><time>2026-04-04T11:34:04.103Z</time></trkpt><trkpt lat="44.541825" lon="8.630465"><ele>546.6</ele><time>2026-04-04T11:34:05.104Z</time></trkpt><trkpt lat="44.5417133" lon="8.6304917"><ele>543.8</ele><time>2026-04-04T11:34:06.102Z</time></trkpt><trkpt lat="44.5415933" lon="8.63053"><ele>541.0</ele><time>2026-04-04T11:34:07.106Z</time></trkpt><trkpt lat="44.541465" lon="8.630575"><ele>541.0</ele><time>2026-04-04T11:34:08.107Z</time></trkpt><trkpt lat="44.541335" lon="8.63062"><ele>541.0</ele><time>2026-04-04T11:34:09.102Z</time></trkpt><trkpt lat="44.5411967" lon="8.6306567"><ele>541.0</ele><time>2026-04-04T11:34:10.098Z</time></trkpt><trkpt lat="44.5410467" lon="8.6306717"><ele>541.0</ele><time>2026-04-04T11:34:11.101Z</time></trkpt><trkpt lat="44.5408867" lon="8.6306633"><ele>543.0</ele><time>2026-04-04T11:34:12.1Z</time></trkpt><trkpt lat="44.540725" lon="8.630665"><ele>545.0</ele><time>2026-04-04T11:34:13.103Z</time></trkpt><trkpt lat="44.5405617" lon="8.6306483"><ele>547.0</ele><time>2026-04-04T11:34:14.1Z</time></trkpt><trkpt lat="44.540405" lon="8.630645"><ele>551.0</ele><time>2026-04-04T11:34:15.109Z</time></trkpt><trkpt lat="44.5402633" lon="8.6306617"><ele>555.0</ele><time>2026-04-04T11:34:16.103Z</time></trkpt><trkpt lat="44.5401383" lon="8.6307067"><ele>559.0</ele><time>2026-04-04T11:34:17.109Z</time></trkpt><trkpt lat="44.54003" lon="8.63076"><ele>563.0</ele><time>2026-04-04T11:34:18.099Z</time></trkpt><trkpt lat="44.539945" lon="8.6308283"><ele>563.0</ele><time>2026-04-04T11:34:19.1Z</time></trkpt><trkpt lat="44.5398883" lon="8.630925"><ele>563.0</ele><time>2026-04-04T11:34:20.103Z</time></trkpt><trkpt lat="44.539865" lon="8.63104"><ele>563.0</ele><time>2026-04-04T11:34:21.1Z</time></trkpt><trkpt lat="44.539885" lon="8.63117"><ele>563.0</ele><time>2026-04-04T11:34:22.103Z</time></trkpt><trkpt lat="44.5399183" lon="8.6313"><ele>563.0</ele><time>2026-04-04T11:34:23.102Z</time></trkpt><trkpt lat="44.5399483" lon="8.6314283"><ele>561.4</ele><time>2026-04-04T11:34:24.101Z</time></trkpt><trkpt lat="44.5399567" lon="8.631555"><ele>559.8</ele><time>2026-04-04T11:34:25.101Z</time></trkpt><trkpt lat="44.5399583" lon="8.63169"><ele>558.2</ele><time>2026-04-04T11:34:26.107Z</time></trkpt><trkpt lat="44.5399333" lon="8.63183"><ele>556.6</ele><time>2026-04-04T11:34:27.108Z</time></trkpt><trkpt lat="44.5398933" lon="8.6319617"><ele>555.0</ele><time>2026-04-04T11:34:28.099Z</time></trkpt><trkpt lat="44.5398333" lon="8.63207"><ele>554.2</ele><time>2026-04-04T11:34:29.103Z</time></trkpt><trkpt lat="44.53976" lon="8.632125"><ele>553.4</ele><time>2026-04-04T11:34:30.108Z</time></trkpt><trkpt lat="44.5396817" lon="8.6321483"><ele>552.6</ele><time>2026-04-04T11:34:31.103Z</time></trkpt><trkpt lat="44.5396" lon="8.632035"><ele>551.8</ele><time>2026-04-04T11:34:32.108Z</time></trkpt><trkpt lat="44.5395267" lon="8.6319517"><ele>551.0</ele><time>2026-04-04T11:34:33.102Z</time></trkpt><trkpt lat="44.5394583" lon="8.6317817"><ele>551.0</ele><time>2026-04-04T11:34:34.105Z</time></trkpt><trkpt lat="44.5393833" lon="8.6315967"><ele>551.0</ele><time>2026-04-04T11:34:35.102Z</time></trkpt><trkpt lat="44.5393067" lon="8.6314133"><ele>551.0</ele><time>2026-04-04T11:34:36.106Z</time></trkpt><trkpt lat="44.5392483" lon="8.63122"><ele>553.0</ele><time>2026-04-04T11:34:37.098Z</time></trkpt><trkpt lat="44.5392167" lon="8.6310517"><ele>555.0</ele><time>2026-04-04T11:34:38.099Z</time></trkpt><trkpt lat="44.5392067" lon="8.63088"><ele>557.0</ele><time>2026-04-04T11:34:39.102Z</time></trkpt><trkpt lat="44.5392133" lon="8.630715"><ele>559.0</ele><time>2026-04-04T11:34:40.097Z</time></trkpt><trkpt lat="44.5392583" lon="8.6305567"><ele>559.0</ele><time>2026-04-04T11:34:41.101Z</time></trkpt><trkpt lat="44.5392817" lon="8.6303833"><ele>559.0</ele><time>2026-04-04T11:34:42.1Z</time></trkpt><trkpt lat="44.5392883" lon="8.6302033"><ele>559.0</ele><time>2026-04-04T11:34:43.1Z</time></trkpt><trkpt lat="44.5392767" lon="8.63001"><ele>559.0</ele><time>2026-04-04T11:34:44.1Z</time></trkpt><trkpt lat="44.5392483" lon="8.6298233"><ele>560.5</ele><time>2026-04-04T11:34:45.101Z</time></trkpt><trkpt lat="44.5392067" lon="8.6296517"><ele>562.0</ele><time>2026-04-04T11:34:46.1Z</time></trkpt><trkpt lat="44.5391333" lon="8.6295217"><ele>563.5</ele><time>2026-04-04T11:34:47.098Z</time></trkpt><trkpt lat="44.5390383" lon="8.6294133"><ele>565.0</ele><time>2026-04-04T11:34:48.102Z</time></trkpt><trkpt lat="44.5389233" lon="8.6293333"><ele>564.5</ele><time>2026-04-04T11:34:49.103Z</time></trkpt><trkpt lat="44.5388117" lon="8.6292583"><ele>564.0</ele><time>2026-04-04T11:34:50.103Z</time></trkpt><trkpt lat="44.538715" lon="8.629155"><ele>563.5</ele><time>2026-04-04T11:34:51.101Z</time></trkpt><trkpt lat="44.5386333" lon="8.62902"><ele>563.0</ele><time>2026-04-04T11:34:52.1Z</time></trkpt><trkpt lat="44.5385433" lon="8.628875"><ele>563.0</ele><time>2026-04-04T11:34:53.1Z</time></trkpt><trkpt lat="44.5384633" lon="8.62872"><ele>563.0</ele><time>2026-04-04T11:34:54.106Z</time></trkpt><trkpt lat="44.538405" lon="8.628555"><ele>563.0</ele><time>2026-04-04T11:34:55.101Z</time></trkpt><trkpt lat="44.5383833" lon="8.6283767"><ele>563.0</ele><time>2026-04-04T11:34:56.1Z</time></trkpt><trkpt lat="44.5383917" lon="8.6281833"><ele>565.75</ele><time>2026-04-04T11:34:57.101Z</time></trkpt><trkpt lat="44.5384183" lon="8.6279967"><ele>568.5</ele><time>2026-04-04T11:34:58.1Z</time></trkpt><trkpt lat="44.5384567" lon="8.62781"><ele>571.25</ele><time>2026-04-04T11:34:59.104Z</time></trkpt><trkpt lat="44.538495" lon="8.6276367"><ele>574.0</ele><time>2026-04-04T11:35:00.1Z</time></trkpt><trkpt lat="44.5385117" lon="8.6274817"><ele>575.8</ele><time>2026-04-04T11:35:01.098Z</time></trkpt><trkpt lat="44.5384983" lon="8.6273317"><ele>577.5999999999999</ele><time>2026-04-04T11:35:02.101Z</time></trkpt><trkpt lat="44.53846" lon="8.6271917"><ele>579.4</ele><time>2026-04-04T11:35:03.099Z</time></trkpt><trkpt lat="44.5384367" lon="8.6270433"><ele>581.1999999999999</ele><time>2026-04-04T11:35:04.099Z</time></trkpt><trkpt lat="44.5384367" lon="8.626895"><ele>583.0</ele><time>2026-04-04T11:35:05.101Z</time></trkpt><trkpt lat="44.5384717" lon="8.626755"><ele>584.8</ele><time>2026-04-04T11:35:06.101Z</time></trkpt><trkpt lat="44.53854" lon="8.62662"><ele>586.5999999999999</ele><time>2026-04-04T11:35:07.103Z</time></trkpt><trkpt lat="44.5386133" lon="8.626495"><ele>588.4000000000001</ele><time>2026-04-04T11:35:08.113Z</time></trkpt><trkpt lat="44.5386767" lon="8.6263717"><ele>590.2</ele><time>2026-04-04T11:35:09.101Z</time></trkpt><trkpt lat="44.5387033" lon="8.6262367"><ele>592.0</ele><time>2026-04-04T11:35:10.1Z</time></trkpt><trkpt lat="44.538685" lon="8.6261033"><ele>593.0</ele><time>2026-04-04T11:35:11.101Z</time></trkpt><trkpt lat="44.5386617" lon="8.6259717"><ele>594.0</ele><time>2026-04-04T11:35:12.102Z</time></trkpt><trkpt lat="44.5386567" lon="8.625835"><ele>595.0</ele><time>2026-04-04T11:35:13.104Z</time></trkpt><trkpt lat="44.5386783" lon="8.62571"><ele>596.0</ele><time>2026-04-04T11:35:14.107Z</time></trkpt><trkpt lat="44.53872" lon="8.6255883"><ele>597.0</ele><time>2026-04-04T11:35:15.107Z</time></trkpt><trkpt lat="44.53876" lon="8.625465"><ele>596.8000000000001</ele><time>2026-04-04T11:35:16.103Z</time></trkpt><trkpt lat="44.5387567" lon="8.6253267"><ele>596.6</ele><time>2026-04-04T11:35:17.104Z</time></trkpt><trkpt lat="44.538725" lon="8.6251967"><ele>596.4000000000001</ele><time>2026-04-04T11:35:18.101Z</time></trkpt><trkpt lat="44.538645" lon="8.6250783"><ele>596.2</ele><time>2026-04-04T11:35:19.103Z</time></trkpt><trkpt lat="44.5385517" lon="8.62497"><ele>596.0</ele><time>2026-04-04T11:35:20.1Z</time></trkpt><trkpt lat="44.5384417" lon="8.624875"><ele>596.0</ele><time>2026-04-04T11:35:21.104Z</time></trkpt><trkpt lat="44.53832" lon="8.62482"><ele>596.0</ele><time>2026-04-04T11:35:22.102Z</time></trkpt><trkpt lat="44.5382" lon="8.6248117"><ele>596.0</ele><time>2026-04-04T11:35:23.103Z</time></trkpt><trkpt lat="44.5380817" lon="8.6248483"><ele>596.0</ele><time>2026-04-04T11:35:24.099Z</time></trkpt><trkpt lat="44.5379683" lon="8.6249417"><ele>597.2</ele><time>2026-04-04T11:35:25.099Z</time></trkpt><trkpt lat="44.5378767" lon="8.62506"><ele>598.4000000000001</ele><time>2026-04-04T11:35:26.102Z</time></trkpt><trkpt lat="44.5377967" lon="8.6251733"><ele>599.6</ele><time>2026-04-04T11:35:27.101Z</time></trkpt><trkpt lat="44.5377217" lon="8.6252717"><ele>600.8000000000001</ele><time>2026-04-04T11:35:28.1Z</time></trkpt><trkpt lat="44.5376417" lon="8.6253267"><ele>602.0</ele><time>2026-04-04T11:35:29.102Z</time></trkpt><trkpt lat="44.5375517" lon="8.625365"><ele>602.0</ele><time>2026-04-04T11:35:30.1Z</time></trkpt><trkpt lat="44.5374667" lon="8.62532"><ele>602.0</ele><time>2026-04-04T11:35:31.102Z</time></trkpt><trkpt lat="44.53741" lon="8.6252233"><ele>602.0</ele><time>2026-04-04T11:35:32.1Z</time></trkpt><trkpt lat="44.53739" lon="8.6250333"><ele>602.0</ele><time>2026-04-04T11:35:33.103Z</time></trkpt><trkpt lat="44.5373633" lon="8.62484"><ele>602.0</ele><time>2026-04-04T11:35:34.1Z</time></trkpt><trkpt lat="44.5373467" lon="8.624645"><ele>602.0</ele><time>2026-04-04T11:35:35.101Z</time></trkpt><trkpt lat="44.5373533" lon="8.6244217"><ele>602.0</ele><time>2026-04-04T11:35:36.102Z</time></trkpt><trkpt lat="44.5373583" lon="8.6242017"><ele>602.3333333333333</ele><time>2026-04-04T11:35:37.102Z</time></trkpt><trkpt lat="44.5373633" lon="8.62398"><ele>602.6666666666666</ele><time>2026-04-04T11:35:38.101Z</time></trkpt><trkpt lat="44.5373683" lon="8.6237617"><ele>603.0</ele><time>2026-04-04T11:35:39.108Z</time></trkpt><trkpt lat="44.53739" lon="8.6235533"><ele>603.0</ele><time>2026-04-04T11:35:40.101Z</time></trkpt><trkpt lat="44.5374217" lon="8.6233467"><ele>603.0</ele><time>2026-04-04T11:35:41.103Z</time></trkpt><trkpt lat="44.5374567" lon="8.6231433"><ele>603.0</ele><time>2026-04-04T11:35:42.098Z</time></trkpt><trkpt lat="44.5374783" lon="8.6229567"><ele>603.0</ele><time>2026-04-04T11:35:43.107Z</time></trkpt><trkpt lat="44.537475" lon="8.6227917"><ele>602.1999999999999</ele><time>2026-04-04T11:35:44.098Z</time></trkpt><trkpt lat="44.53745" lon="8.6226417"><ele>601.4</ele><time>2026-04-04T11:35:45.104Z</time></trkpt><trkpt lat="44.5374017" lon="8.6225117"><ele>600.5999999999999</ele><time>2026-04-04T11:35:46.099Z</time></trkpt><trkpt lat="44.5373183" lon="8.6224117"><ele>599.8</ele><time>2026-04-04T11:35:47.105Z</time></trkpt><trkpt lat="44.5372233" lon="8.62232"><ele>599.0</ele><time>2026-04-04T11:35:48.1Z</time></trkpt><trkpt lat="44.537115" lon="8.6222267"><ele>604.25</ele><time>2026-04-04T11:35:49.102Z</time></trkpt><trkpt lat="44.537005" lon="8.6221267"><ele>609.5</ele><time>2026-04-04T11:35:50.101Z</time></trkpt><trkpt lat="44.5369033" lon="8.62202"><ele>614.75</ele><time>2026-04-04T11:35:51.103Z</time></trkpt><trkpt lat="44.5368167" lon="8.6218967"><ele>620.0</ele><time>2026-04-04T11:35:52.098Z</time></trkpt><trkpt lat="44.536755" lon="8.6217533"><ele>620.0</ele><time>2026-04-04T11:35:53.102Z</time></trkpt><trkpt lat="44.5366967" lon="8.6216133"><ele>620.0</ele><time>2026-04-04T11:35:54.101Z</time></trkpt><trkpt lat="44.5367167" lon="8.62141"><ele>620.0</ele><time>2026-04-04T11:35:55.103Z</time></trkpt><trkpt lat="44.5367583" lon="8.6212183"><ele>620.0</ele><time>2026-04-04T11:35:56.102Z</time></trkpt><trkpt lat="44.5368117" lon="8.621035"><ele>620.6666666666666</ele><time>2026-04-04T11:35:57.1Z</time></trkpt><trkpt lat="44.5368767" lon="8.620845"><ele>621.3333333333334</ele><time>2026-04-04T11:35:58.105Z</time></trkpt><trkpt lat="44.53695" lon="8.6206583"><ele>622.0</ele><time>2026-04-04T11:35:59.101Z</time></trkpt><trkpt lat="44.537025" lon="8.6204767"><ele>616.5</ele><time>2026-04-04T11:36:00.103Z</time></trkpt><trkpt lat="44.5370983" lon="8.6202983"><ele>611.0</ele><time>2026-04-04T11:36:01.102Z</time></trkpt><trkpt lat="44.5371467" lon="8.6201267"><ele>605.5</ele><time>2026-04-04T11:36:02.1Z</time></trkpt><trkpt lat="44.53717" lon="8.6199617"><ele>600.0</ele><time>2026-04-04T11:36:03.1Z</time></trkpt><trkpt lat="44.537145" lon="8.6198217"><ele>600.0</ele><time>2026-04-04T11:36:04.101Z</time></trkpt><trkpt lat="44.5370967" lon="8.6196917"><ele>600.0</ele><time>2026-04-04T11:36:05.106Z</time></trkpt><trkpt lat="44.5370083" lon="8.6195867"><ele>600.0</ele><time>2026-04-04T11:36:06.107Z</time></trkpt><trkpt lat="44.5369033" lon="8.6195217"><ele>600.0</ele><time>2026-04-04T11:36:07.098Z</time></trkpt><trkpt lat="44.5367683" lon="8.619515"><ele>604.5</ele><time>2026-04-04T11:36:08.102Z</time></trkpt><trkpt lat="44.536625" lon="8.6195183"><ele>609.0</ele><time>2026-04-04T11:36:09.099Z</time></trkpt><trkpt lat="44.5364733" lon="8.6195233"><ele>613.5</ele><time>2026-04-04T11:36:10.099Z</time></trkpt><trkpt lat="44.53632" lon="8.6195333"><ele>618.0</ele><time>2026-04-04T11:36:11.107Z</time></trkpt><trkpt lat="44.536175" lon="8.6195583"><ele>618.0</ele><time>2026-04-04T11:36:12.1Z</time></trkpt><trkpt lat="44.5360383" lon="8.6195733"><ele>618.0</ele><time>2026-04-04T11:36:13.1Z</time></trkpt><trkpt lat="44.5358983" lon="8.6195767"><ele>618.0</ele><time>2026-04-04T11:36:14.102Z</time></trkpt><trkpt lat="44.53576" lon="8.6195683"><ele>618.0</ele><time>2026-04-04T11:36:15.1Z</time></trkpt><trkpt lat="44.5356233" lon="8.6195467"><ele>618.0</ele><time>2026-04-04T11:36:16.103Z</time></trkpt><trkpt lat="44.53549" lon="8.6195083"><ele>618.0</ele><time>2026-04-04T11:36:17.102Z</time></trkpt><trkpt lat="44.5353617" lon="8.61945"><ele>618.0</ele><time>2026-04-04T11:36:18.102Z</time></trkpt><trkpt lat="44.5352333" lon="8.6193917"><ele>618.0</ele><time>2026-04-04T11:36:19.106Z</time></trkpt><trkpt lat="44.5351" lon="8.6193183"><ele>617.75</ele><time>2026-04-04T11:36:20.1Z</time></trkpt><trkpt lat="44.534965" lon="8.61927"><ele>617.5</ele><time>2026-04-04T11:36:21.101Z</time></trkpt><trkpt lat="44.534835" lon="8.6192367"><ele>617.25</ele><time>2026-04-04T11:36:22.101Z</time></trkpt><trkpt lat="44.53471" lon="8.619225"><ele>617.0</ele><time>2026-04-04T11:36:23.111Z</time></trkpt><trkpt lat="44.534585" lon="8.619235"><ele>616.5</ele><time>2026-04-04T11:36:24.102Z</time></trkpt><trkpt lat="44.5344433" lon="8.6192633"><ele>616.0</ele><time>2026-04-04T11:36:25.104Z</time></trkpt><trkpt lat="44.534305" lon="8.61932"><ele>615.5</ele><time>2026-04-04T11:36:26.103Z</time></trkpt><trkpt lat="44.534175" lon="8.6193633"><ele>615.0</ele><time>2026-04-04T11:36:27.1Z</time></trkpt><trkpt lat="44.5340633" lon="8.6193467"><ele>615.0</ele><time>2026-04-04T11:36:28.105Z</time></trkpt><trkpt lat="44.5339567" lon="8.6193017"><ele>615.0</ele><time>2026-04-04T11:36:29.101Z</time></trkpt><trkpt lat="44.5338717" lon="8.6191933"><ele>615.0</ele><time>2026-04-04T11:36:30.107Z</time></trkpt><trkpt lat="44.5338083" lon="8.6190483"><ele>615.0</ele><time>2026-04-04T11:36:31.104Z</time></trkpt><trkpt lat="44.5337533" lon="8.6188883"><ele>611.0</ele><time>2026-04-04T11:36:32.104Z</time></trkpt><trkpt lat="44.5337067" lon="8.6187217"><ele>607.0</ele><time>2026-04-04T11:36:33.098Z</time></trkpt><trkpt lat="44.53367" lon="8.6185383"><ele>603.0</ele><time>2026-04-04T11:36:34.1Z</time></trkpt><trkpt lat="44.5336233" lon="8.6183583"><ele>599.0</ele><time>2026-04-04T11:36:35.099Z</time></trkpt><trkpt lat="44.533565" lon="8.6181867"><ele>599.0</ele><time>2026-04-04T11:36:36.101Z</time></trkpt><trkpt lat="44.5334833" lon="8.6180283"><ele>599.0</ele><time>2026-04-04T11:36:37.102Z</time></trkpt><trkpt lat="44.5333833" lon="8.617905"><ele>599.0</ele><time>2026-04-04T11:36:38.101Z</time></trkpt><trkpt lat="44.5332767" lon="8.6178367"><ele>599.0</ele><time>2026-04-04T11:36:39.1Z</time></trkpt><trkpt lat="44.53316" lon="8.617815"><ele>596.75</ele><time>2026-04-04T11:36:40.101Z</time></trkpt><trkpt lat="44.5330383" lon="8.617815"><ele>594.5</ele><time>2026-04-04T11:36:41.106Z</time></trkpt><trkpt lat="44.5329167" lon="8.6178167"><ele>592.25</ele><time>2026-04-04T11:36:42.103Z</time></trkpt><trkpt lat="44.5328167" lon="8.6177467"><ele>590.0</ele><time>2026-04-04T11:36:43.102Z</time></trkpt><trkpt lat="44.5327067" lon="8.61768"><ele>590.0</ele><time>2026-04-04T11:36:44.103Z</time></trkpt><trkpt lat="44.5326267" lon="8.6175683"><ele>590.0</ele><time>2026-04-04T11:36:45.102Z</time></trkpt><trkpt lat="44.5325667" lon="8.6174417"><ele>590.0</ele><time>2026-04-04T11:36:46.103Z</time></trkpt><trkpt lat="44.5325333" lon="8.6172667"><ele>590.0</ele><time>2026-04-04T11:36:47.098Z</time></trkpt><trkpt lat="44.53253" lon="8.617065"><ele>591.3333333333333</ele><time>2026-04-04T11:36:48.105Z</time></trkpt><trkpt lat="44.532515" lon="8.6168467"><ele>592.6666666666666</ele><time>2026-04-04T11:36:49.101Z</time></trkpt><trkpt lat="44.53247" lon="8.6166483"><ele>594.0</ele><time>2026-04-04T11:36:50.104Z</time></trkpt><trkpt lat="44.532395" lon="8.61647"><ele>594.0</ele><time>2026-04-04T11:36:51.102Z</time></trkpt><trkpt lat="44.5323133" lon="8.616285"><ele>594.0</ele><time>2026-04-04T11:36:52.096Z</time></trkpt><trkpt lat="44.53223" lon="8.6161067"><ele>594.0</ele><time>2026-04-04T11:36:53.108Z</time></trkpt><trkpt lat="44.5321583" lon="8.6159267"><ele>595.0</ele><time>2026-04-04T11:36:54.102Z</time></trkpt><trkpt lat="44.5321033" lon="8.6157367"><ele>596.0</ele><time>2026-04-04T11:36:55.1Z</time></trkpt><trkpt lat="44.53205" lon="8.6155533"><ele>597.0</ele><time>2026-04-04T11:36:56.097Z</time></trkpt><trkpt lat="44.5319967" lon="8.6153867"><ele>598.0</ele><time>2026-04-04T11:36:57.096Z</time></trkpt><trkpt lat="44.531925" lon="8.6152717"><ele>595.0</ele><time>2026-04-04T11:36:58.101Z</time></trkpt><trkpt lat="44.531835" lon="8.6152017"><ele>592.0</ele><time>2026-04-04T11:36:59.1Z</time></trkpt><trkpt lat="44.5317383" lon="8.6151783"><ele>589.0</ele><time>2026-04-04T11:37:00.099Z</time></trkpt><trkpt lat="44.531645" lon="8.6151917"><ele>586.0</ele><time>2026-04-04T11:37:01.099Z</time></trkpt><trkpt lat="44.531555" lon="8.61524"><ele>583.0</ele><time>2026-04-04T11:37:02.1Z</time></trkpt><trkpt lat="44.531485" lon="8.61535"><ele>583.0</ele><time>2026-04-04T11:37:03.101Z</time></trkpt><trkpt lat="44.5314383" lon="8.61549"><ele>583.0</ele><time>2026-04-04T11:37:04.1Z</time></trkpt><trkpt lat="44.5314083" lon="8.6156317"><ele>583.0</ele><time>2026-04-04T11:37:05.099Z</time></trkpt><trkpt lat="44.5314017" lon="8.6158217"><ele>583.0</ele><time>2026-04-04T11:37:06.098Z</time></trkpt><trkpt lat="44.5314067" lon="8.6160217"><ele>582.25</ele><time>2026-04-04T11:37:07.1Z</time></trkpt><trkpt lat="44.5314083" lon="8.6162017"><ele>581.5</ele><time>2026-04-04T11:37:08.099Z</time></trkpt><trkpt lat="44.5314267" lon="8.61639"><ele>580.75</ele><time>2026-04-04T11:37:09.102Z</time></trkpt><trkpt lat="44.5314767" lon="8.6165667"><ele>580.0</ele><time>2026-04-04T11:37:10.1Z</time></trkpt><trkpt lat="44.531545" lon="8.6167333"><ele>580.0</ele><time>2026-04-04T11:37:11.101Z</time></trkpt><trkpt lat="44.5316283" lon="8.6168933"><ele>580.0</ele><time>2026-04-04T11:37:12.098Z</time></trkpt><trkpt lat="44.53171" lon="8.6170467"><ele>580.0</ele><time>2026-04-04T11:37:13.104Z</time></trkpt><trkpt lat="44.53178" lon="8.6172083"><ele>580.0</ele><time>2026-04-04T11:37:14.1Z</time></trkpt><trkpt lat="44.531835" lon="8.6173783"><ele>578.25</ele><time>2026-04-04T11:37:15.099Z</time></trkpt><trkpt lat="44.53187" lon="8.6175467"><ele>576.5</ele><time>2026-04-04T11:37:16.099Z</time></trkpt><trkpt lat="44.5319" lon="8.6177"><ele>574.75</ele><time>2026-04-04T11:37:17.099Z</time></trkpt><trkpt lat="44.531945" lon="8.6178567"><ele>573.0</ele><time>2026-04-04T11:37:18.101Z</time></trkpt><trkpt lat="44.5320183" lon="8.6180183"><ele>574.5</ele><time>2026-04-04T11:37:19.1Z</time></trkpt><trkpt lat="44.5321167" lon="8.6181767"><ele>576.0</ele><time>2026-04-04T11:37:20.1Z</time></trkpt><trkpt lat="44.532215" lon="8.6183333"><ele>577.5</ele><time>2026-04-04T11:37:21.099Z</time></trkpt><trkpt lat="44.5323083" lon="8.61849"><ele>579.0</ele><time>2026-04-04T11:37:22.1Z</time></trkpt><trkpt lat="44.5323967" lon="8.6186367"><ele>576.8</ele><time>2026-04-04T11:37:23.1Z</time></trkpt><trkpt lat="44.5324667" lon="8.6187783"><ele>574.5999999999999</ele><time>2026-04-04T11:37:24.103Z</time></trkpt><trkpt lat="44.532515" lon="8.6189133"><ele>572.4</ele><time>2026-04-04T11:37:25.102Z</time></trkpt><trkpt lat="44.5325367" lon="8.6190533"><ele>570.1999999999999</ele><time>2026-04-04T11:37:26.102Z</time></trkpt><trkpt lat="44.532535" lon="8.6192"><ele>568.0</ele><time>2026-04-04T11:37:27.102Z</time></trkpt><trkpt lat="44.5325067" lon="8.61935"><ele>567.75</ele><time>2026-04-04T11:37:28.104Z</time></trkpt><trkpt lat="44.532455" lon="8.619505"><ele>567.5</ele><time>2026-04-04T11:37:29.101Z</time></trkpt><trkpt lat="44.5323917" lon="8.61966"><ele>567.25</ele><time>2026-04-04T11:37:30.107Z</time></trkpt><trkpt lat="44.5323267" lon="8.6198167"><ele>567.0</ele><time>2026-04-04T11:37:31.105Z</time></trkpt><trkpt lat="44.532265" lon="8.6199733"><ele>567.0</ele><time>2026-04-04T11:37:32.1Z</time></trkpt><trkpt lat="44.532225" lon="8.6201467"><ele>567.0</ele><time>2026-04-04T11:37:33.099Z</time></trkpt><trkpt lat="44.5322133" lon="8.6203267"><ele>567.0</ele><time>2026-04-04T11:37:34.101Z</time></trkpt><trkpt lat="44.5322283" lon="8.6205217"><ele>567.0</ele><time>2026-04-04T11:37:35.1Z</time></trkpt><trkpt lat="44.5322483" lon="8.6207017"><ele>565.5</ele><time>2026-04-04T11:37:36.1Z</time></trkpt><trkpt lat="44.532295" lon="8.6208683"><ele>564.0</ele><time>2026-04-04T11:37:37.105Z</time></trkpt><trkpt lat="44.5323517" lon="8.6210217"><ele>562.5</ele><time>2026-04-04T11:37:38.096Z</time></trkpt><trkpt lat="44.5324167" lon="8.6211783"><ele>561.0</ele><time>2026-04-04T11:37:39.105Z</time></trkpt><trkpt lat="44.5324783" lon="8.6213183"><ele>559.75</ele><time>2026-04-04T11:37:40.108Z</time></trkpt><trkpt lat="44.5325167" lon="8.6214667"><ele>558.5</ele><time>2026-04-04T11:37:41.099Z</time></trkpt><trkpt lat="44.53253" lon="8.621625"><ele>557.25</ele><time>2026-04-04T11:37:42.097Z</time></trkpt><trkpt lat="44.532525" lon="8.6217967"><ele>556.0</ele><time>2026-04-04T11:37:43.101Z</time></trkpt><trkpt lat="44.532505" lon="8.621965"><ele>558.0</ele><time>2026-04-04T11:37:44.103Z</time></trkpt><trkpt lat="44.53247" lon="8.6221267"><ele>560.0</ele><time>2026-04-04T11:37:45.101Z</time></trkpt><trkpt lat="44.5324067" lon="8.62227"><ele>562.0</ele><time>2026-04-04T11:37:46.103Z</time></trkpt><trkpt lat="44.5323267" lon="8.62239"><ele>564.0</ele><time>2026-04-04T11:37:47.1Z</time></trkpt><trkpt lat="44.5322333" lon="8.6225067"><ele>564.0</ele><time>2026-04-04T11:37:48.104Z</time></trkpt><trkpt lat="44.5321383" lon="8.622615"><ele>564.0</ele><time>2026-04-04T11:37:49.107Z</time></trkpt><trkpt lat="44.5320433" lon="8.6227067"><ele>564.0</ele><time>2026-04-04T11:37:50.105Z</time></trkpt><trkpt lat="44.5319467" lon="8.6227617"><ele>564.0</ele><time>2026-04-04T11:37:51.102Z</time></trkpt><trkpt lat="44.531835" lon="8.62276"><ele>560.8</ele><time>2026-04-04T11:37:52.101Z</time></trkpt><trkpt lat="44.531745" lon="8.622705"><ele>557.5999999999999</ele><time>2026-04-04T11:37:53.106Z</time></trkpt><trkpt lat="44.5316633" lon="8.6226133"><ele>554.4</ele><time>2026-04-04T11:37:54.101Z</time></trkpt><trkpt lat="44.5315967" lon="8.622485"><ele>551.1999999999999</ele><time>2026-04-04T11:37:55.105Z</time></trkpt><trkpt lat="44.531535" lon="8.6223383"><ele>548.0</ele><time>2026-04-04T11:37:56.102Z</time></trkpt><trkpt lat="44.5314783" lon="8.6221983"><ele>548.0</ele><time>2026-04-04T11:37:57.101Z</time></trkpt><trkpt lat="44.5313983" lon="8.6221083"><ele>548.0</ele><time>2026-04-04T11:37:58.1Z</time></trkpt><trkpt lat="44.5313033" lon="8.6220617"><ele>548.0</ele><time>2026-04-04T11:37:59.101Z</time></trkpt><trkpt lat="44.5311983" lon="8.62205"><ele>548.0</ele><time>2026-04-04T11:38:00.108Z</time></trkpt><trkpt lat="44.531095" lon="8.622045"><ele>548.0</ele><time>2026-04-04T11:38:01.109Z</time></trkpt><trkpt lat="44.5309917" lon="8.6220167"><ele>545.5</ele><time>2026-04-04T11:38:02.101Z</time></trkpt><trkpt lat="44.5308967" lon="8.6219333"><ele>543.0</ele><time>2026-04-04T11:38:03.1Z</time></trkpt><trkpt lat="44.53081" lon="8.6218217"><ele>540.5</ele><time>2026-04-04T11:38:04.101Z</time></trkpt><trkpt lat="44.5307317" lon="8.621695"><ele>538.0</ele><time>2026-04-04T11:38:05.106Z</time></trkpt><trkpt lat="44.5306467" lon="8.6215967"><ele>538.0</ele><time>2026-04-04T11:38:06.107Z</time></trkpt><trkpt lat="44.5305483" lon="8.6215367"><ele>538.0</ele><time>2026-04-04T11:38:07.101Z</time></trkpt><trkpt lat="44.530455" lon="8.621525"><ele>538.0</ele><time>2026-04-04T11:38:08.103Z</time></trkpt><trkpt lat="44.53036" lon="8.62157"><ele>538.0</ele><time>2026-04-04T11:38:09.103Z</time></trkpt><trkpt lat="44.53028" lon="8.62166"><ele>538.0</ele><time>2026-04-04T11:38:10.101Z</time></trkpt><trkpt lat="44.5302283" lon="8.6217917"><ele>537.1999999999999</ele><time>2026-04-04T11:38:11.099Z</time></trkpt><trkpt lat="44.53019" lon="8.6219417"><ele>536.4</ele><time>2026-04-04T11:38:12.107Z</time></trkpt><trkpt lat="44.530145" lon="8.62208"><ele>535.5999999999999</ele><time>2026-04-04T11:38:13.101Z</time></trkpt><trkpt lat="44.53008" lon="8.622205"><ele>534.8</ele><time>2026-04-04T11:38:14.101Z</time></trkpt><trkpt lat="44.52999" lon="8.6222867"><ele>534.0</ele><time>2026-04-04T11:38:15.1Z</time></trkpt><trkpt lat="44.52989" lon="8.6223333"><ele>532.0</ele><time>2026-04-04T11:38:16.102Z</time></trkpt><trkpt lat="44.5297933" lon="8.6223633"><ele>530.0</ele><time>2026-04-04T11:38:17.102Z</time></trkpt><trkpt lat="44.5296883" lon="8.622225"><ele>528.0</ele><time>2026-04-04T11:38:18.1Z</time></trkpt><trkpt lat="44.5295933" lon="8.6220517"><ele>526.0</ele><time>2026-04-04T11:38:19.104Z</time></trkpt><trkpt lat="44.5295033" lon="8.6219433"><ele>526.0</ele><time>2026-04-04T11:38:20.104Z</time></trkpt><trkpt lat="44.5294133" lon="8.6218533"><ele>526.0</ele><time>2026-04-04T11:38:21.1Z</time></trkpt><trkpt lat="44.5293233" lon="8.62181"><ele>526.0</ele><time>2026-04-04T11:38:22.103Z</time></trkpt><trkpt lat="44.529235" lon="8.621825"><ele>526.0</ele><time>2026-04-04T11:38:23.108Z</time></trkpt><trkpt lat="44.5291483" lon="8.6218683"><ele>526.0</ele><time>2026-04-04T11:38:24.098Z</time></trkpt><trkpt lat="44.5290967" lon="8.6219683"><ele>528.4</ele><time>2026-04-04T11:38:25.104Z</time></trkpt><trkpt lat="44.5290383" lon="8.6220683"><ele>530.8</ele><time>2026-04-04T11:38:26.102Z</time></trkpt><trkpt lat="44.5289817" lon="8.622165"><ele>533.1999999999999</ele><time>2026-04-04T11:38:27.098Z</time></trkpt><trkpt lat="44.5289133" lon="8.6222467"><ele>535.6</ele><time>2026-04-04T11:38:28.108Z</time></trkpt><trkpt lat="44.5288383" lon="8.6223083"><ele>538.0</ele><time>2026-04-04T11:38:29.101Z</time></trkpt><trkpt lat="44.528745" lon="8.622355"><ele>537.0</ele><time>2026-04-04T11:38:30.102Z</time></trkpt><trkpt lat="44.5286183" lon="8.62241"><ele>536.0</ele><time>2026-04-04T11:38:31.103Z</time></trkpt><trkpt lat="44.5285017" lon="8.6224733"><ele>535.0</ele><time>2026-04-04T11:38:32.099Z</time></trkpt><trkpt lat="44.5283967" lon="8.6225217"><ele>534.0</ele><time>2026-04-04T11:38:33.103Z</time></trkpt><trkpt lat="44.5282917" lon="8.622545"><ele>534.0</ele><time>2026-04-04T11:38:34.105Z</time></trkpt><trkpt lat="44.5281967" lon="8.62251"><ele>534.0</ele><time>2026-04-04T11:38:35.104Z</time></trkpt><trkpt lat="44.5281217" lon="8.6224367"><ele>534.0</ele><time>2026-04-04T11:38:36.103Z</time></trkpt><trkpt lat="44.5280767" lon="8.6223333"><ele>534.0</ele><time>2026-04-04T11:38:37.107Z</time></trkpt><trkpt lat="44.5280667" lon="8.622185"><ele>534.0</ele><time>2026-04-04T11:38:38.1Z</time></trkpt><trkpt lat="44.5280667" lon="8.6220467"><ele>531.8</ele><time>2026-04-04T11:38:39.102Z</time></trkpt><trkpt lat="44.5280983" lon="8.6218917"><ele>529.5999999999999</ele><time>2026-04-04T11:38:40.1Z</time></trkpt><trkpt lat="44.528105" lon="8.62175"><ele>527.4</ele><time>2026-04-04T11:38:41.104Z</time></trkpt><trkpt lat="44.5280833" lon="8.6215967"><ele>525.1999999999999</ele><time>2026-04-04T11:38:42.099Z</time></trkpt><trkpt lat="44.5280433" lon="8.621445"><ele>523.0</ele><time>2026-04-04T11:38:43.101Z</time></trkpt><trkpt lat="44.5279733" lon="8.6212983"><ele>523.0</ele><time>2026-04-04T11:38:44.103Z</time></trkpt><trkpt lat="44.5278817" lon="8.62116"><ele>523.0</ele><time>2026-04-04T11:38:45.096Z</time></trkpt><trkpt lat="44.5277867" lon="8.621015"><ele>523.0</ele><time>2026-04-04T11:38:46.102Z</time></trkpt><trkpt lat="44.5276883" lon="8.6208567"><ele>523.0</ele><time>2026-04-04T11:38:47.098Z</time></trkpt><trkpt lat="44.5275967" lon="8.6206867"><ele>523.0</ele><time>2026-04-04T11:38:48.104Z</time></trkpt><trkpt lat="44.5275117" lon="8.62051"><ele>523.0</ele><time>2026-04-04T11:38:49.101Z</time></trkpt><trkpt lat="44.5274233" lon="8.6203333"><ele>523.0</ele><time>2026-04-04T11:38:50.099Z</time></trkpt><trkpt lat="44.5273417" lon="8.620155"><ele>522.25</ele><time>2026-04-04T11:38:51.101Z</time></trkpt><trkpt lat="44.527265" lon="8.61997"><ele>521.5</ele><time>2026-04-04T11:38:52.102Z</time></trkpt><trkpt lat="44.5271783" lon="8.6198"><ele>520.75</ele><time>2026-04-04T11:38:53.103Z</time></trkpt><trkpt lat="44.527085" lon="8.6196483"><ele>520.0</ele><time>2026-04-04T11:38:54.098Z</time></trkpt><trkpt lat="44.5269783" lon="8.6195183"><ele>514.3333333333334</ele><time>2026-04-04T11:38:55.098Z</time></trkpt><trkpt lat="44.5268567" lon="8.6194033"><ele>508.66666666666663</ele><time>2026-04-04T11:38:56.098Z</time></trkpt><trkpt lat="44.526715" lon="8.6193167"><ele>503.0</ele><time>2026-04-04T11:38:57.099Z</time></trkpt><trkpt lat="44.5265567" lon="8.619255"><ele>503.0</ele><time>2026-04-04T11:38:58.098Z</time></trkpt><trkpt lat="44.5263967" lon="8.619205"><ele>503.0</ele><time>2026-04-04T11:38:59.105Z</time></trkpt><trkpt lat="44.52624" lon="8.619165"><ele>503.0</ele><time>2026-04-04T11:39:00.099Z</time></trkpt><trkpt lat="44.52609" lon="8.619125"><ele>503.75</ele><time>2026-04-04T11:39:01.105Z</time></trkpt><trkpt lat="44.52595" lon="8.6190883"><ele>504.5</ele><time>2026-04-04T11:39:02.098Z</time></trkpt><trkpt lat="44.5258267" lon="8.6190717"><ele>505.25</ele><time>2026-04-04T11:39:03.1Z</time></trkpt><trkpt lat="44.5257067" lon="8.6190683"><ele>506.0</ele><time>2026-04-04T11:39:04.099Z</time></trkpt><trkpt lat="44.52559" lon="8.6190917"><ele>506.0</ele><time>2026-04-04T11:39:05.107Z</time></trkpt><trkpt lat="44.5254783" lon="8.61913"><ele>506.0</ele><time>2026-04-04T11:39:06.099Z</time></trkpt><trkpt lat="44.5253867" lon="8.61917"><ele>506.0</ele><time>2026-04-04T11:39:07.107Z</time></trkpt><trkpt lat="44.52529" lon="8.619215"><ele>506.0</ele><time>2026-04-04T11:39:08.103Z</time></trkpt><trkpt lat="44.5251883" lon="8.6192633"><ele>506.0</ele><time>2026-04-04T11:39:09.098Z</time></trkpt><trkpt lat="44.5250883" lon="8.6192983"><ele>504.8</ele><time>2026-04-04T11:39:10.099Z</time></trkpt><trkpt lat="44.5249867" lon="8.6193117"><ele>503.6</ele><time>2026-04-04T11:39:11.099Z</time></trkpt><trkpt lat="44.52489" lon="8.6192917"><ele>502.4</ele><time>2026-04-04T11:39:12.1Z</time></trkpt><trkpt lat="44.5247867" lon="8.61926"><ele>501.2</ele><time>2026-04-04T11:39:13.102Z</time></trkpt><trkpt lat="44.5246917" lon="8.619195"><ele>500.0</ele><time>2026-04-04T11:39:14.101Z</time></trkpt><trkpt lat="44.5246133" lon="8.6191117"><ele>500.0</ele><time>2026-04-04T11:39:15.101Z</time></trkpt><trkpt lat="44.5245583" lon="8.619015"><ele>500.0</ele><time>2026-04-04T11:39:16.102Z</time></trkpt><trkpt lat="44.5245467" lon="8.6189017"><ele>500.0</ele><time>2026-04-04T11:39:17.1Z</time></trkpt><trkpt lat="44.5245717" lon="8.6187867"><ele>500.0</ele><time>2026-04-04T11:39:18.105Z</time></trkpt><trkpt lat="44.5246167" lon="8.6186883"><ele>500.0</ele><time>2026-04-04T11:39:19.1Z</time></trkpt><trkpt lat="44.5247367" lon="8.6187033"><ele>500.0</ele><time>2026-04-04T11:39:20.102Z</time></trkpt><trkpt lat="44.52484" lon="8.6187167"><ele>500.0</ele><time>2026-04-04T11:39:21.099Z</time></trkpt><trkpt lat="44.524955" lon="8.6187683"><ele>500.0</ele><time>2026-04-04T11:39:22.1Z</time></trkpt><trkpt lat="44.52507" lon="8.6188133"><ele>500.0</ele><time>2026-04-04T11:39:23.099Z</time></trkpt><trkpt lat="44.525175" lon="8.6188233"><ele>500.0</ele><time>2026-04-04T11:39:24.098Z</time></trkpt><trkpt lat="44.5253083" lon="8.6187567"><ele>501.5</ele><time>2026-04-04T11:39:25.099Z</time></trkpt><trkpt lat="44.52541" lon="8.6186533"><ele>503.0</ele><time>2026-04-04T11:39:26.1Z</time></trkpt><trkpt lat="44.5255" lon="8.6185067"><ele>504.5</ele><time>2026-04-04T11:39:27.105Z</time></trkpt><trkpt lat="44.5255717" lon="8.6183483"><ele>506.0</ele><time>2026-04-04T11:39:28.099Z</time></trkpt><trkpt lat="44.52564" lon="8.6181883"><ele>503.20000000000005</ele><time>2026-04-04T11:39:29.101Z</time></trkpt><trkpt lat="44.5257083" lon="8.6180517"><ele>500.40000000000003</ele><time>2026-04-04T11:39:30.098Z</time></trkpt><trkpt lat="44.525785" lon="8.6179667"><ele>497.6</ele><time>2026-04-04T11:39:31.101Z</time></trkpt><trkpt lat="44.5258783" lon="8.6179117"><ele>494.8</ele><time>2026-04-04T11:39:32.099Z</time></trkpt><trkpt lat="44.5259767" lon="8.6178767"><ele>492.0</ele><time>2026-04-04T11:39:33.099Z</time></trkpt><trkpt lat="44.526075" lon="8.61794"><ele>492.0</ele><time>2026-04-04T11:39:34.099Z</time></trkpt><trkpt lat="44.5261633" lon="8.618"><ele>492.0</ele><time>2026-04-04T11:39:35.098Z</time></trkpt><trkpt lat="44.5262417" lon="8.6181967"><ele>492.0</ele><time>2026-04-04T11:39:36.098Z</time></trkpt><trkpt lat="44.5263267" lon="8.618315"><ele>492.0</ele><time>2026-04-04T11:39:37.102Z</time></trkpt><trkpt lat="44.5264017" lon="8.6184717"><ele>494.75</ele><time>2026-04-04T11:39:38.101Z</time></trkpt><trkpt lat="44.5265" lon="8.6185583"><ele>497.5</ele><time>2026-04-04T11:39:39.099Z</time></trkpt><trkpt lat="44.5266083" lon="8.618685"><ele>500.25</ele><time>2026-04-04T11:39:40.103Z</time></trkpt><trkpt lat="44.5267417" lon="8.6187283"><ele>503.0</ele><time>2026-04-04T11:39:41.099Z</time></trkpt><trkpt lat="44.526885" lon="8.6187567"><ele>503.0</ele><time>2026-04-04T11:39:42.107Z</time></trkpt><trkpt lat="44.5270233" lon="8.6187967"><ele>503.0</ele><time>2026-04-04T11:39:43.106Z</time></trkpt><trkpt lat="44.52714" lon="8.6188333"><ele>503.0</ele><time>2026-04-04T11:39:44.099Z</time></trkpt><trkpt lat="44.52727" lon="8.6189133"><ele>503.0</ele><time>2026-04-04T11:39:45.1Z</time></trkpt><trkpt lat="44.52739" lon="8.619005"><ele>500.4</ele><time>2026-04-04T11:39:46.104Z</time></trkpt><trkpt lat="44.527495" lon="8.6190917"><ele>497.79999999999995</ele><time>2026-04-04T11:39:47.104Z</time></trkpt><trkpt lat="44.527585" lon="8.6191383"><ele>495.2</ele><time>2026-04-04T11:39:48.108Z</time></trkpt><trkpt lat="44.5276917" lon="8.61913"><ele>492.6</ele><time>2026-04-04T11:39:49.1Z</time></trkpt><trkpt lat="44.5277933" lon="8.6190933"><ele>490.0</ele><time>2026-04-04T11:39:50.102Z</time></trkpt><trkpt lat="44.527875" lon="8.61901"><ele>490.0</ele><time>2026-04-04T11:39:51.102Z</time></trkpt><trkpt lat="44.527945" lon="8.6188967"><ele>490.0</ele><time>2026-04-04T11:39:52.103Z</time></trkpt><trkpt lat="44.5280017" lon="8.618745"><ele>490.0</ele><time>2026-04-04T11:39:53.104Z</time></trkpt><trkpt lat="44.528065" lon="8.6185817"><ele>490.0</ele><time>2026-04-04T11:39:54.107Z</time></trkpt><trkpt lat="44.52814" lon="8.6184117"><ele>488.25</ele><time>2026-04-04T11:39:55.101Z</time></trkpt><trkpt lat="44.52821" lon="8.6182367"><ele>486.5</ele><time>2026-04-04T11:39:56.1Z</time></trkpt><trkpt lat="44.5282783" lon="8.6180567"><ele>484.75</ele><time>2026-04-04T11:39:57.099Z</time></trkpt><trkpt lat="44.52834" lon="8.617865"><ele>483.0</ele><time>2026-04-04T11:39:58.1Z</time></trkpt><trkpt lat="44.5283833" lon="8.617665"><ele>482.33333333333337</ele><time>2026-04-04T11:39:59.099Z</time></trkpt><trkpt lat="44.5284067" lon="8.6174283"><ele>481.6666666666667</ele><time>2026-04-04T11:40:00.098Z</time></trkpt><trkpt lat="44.5284" lon="8.6172117"><ele>481.0</ele><time>2026-04-04T11:40:01.102Z</time></trkpt><trkpt lat="44.5283617" lon="8.616995"><ele>480.6666666666667</ele><time>2026-04-04T11:40:02.099Z</time></trkpt><trkpt lat="44.5282917" lon="8.6167867"><ele>480.33333333333337</ele><time>2026-04-04T11:40:03.101Z</time></trkpt><trkpt lat="44.5282167" lon="8.6166067"><ele>480.0</ele><time>2026-04-04T11:40:04.102Z</time></trkpt><trkpt lat="44.5281467" lon="8.61643"><ele>480.0</ele><time>2026-04-04T11:40:05.103Z</time></trkpt><trkpt lat="44.5280767" lon="8.6162617"><ele>480.0</ele><time>2026-04-04T11:40:06.101Z</time></trkpt><trkpt lat="44.528005" lon="8.616095"><ele>480.0</ele><time>2026-04-04T11:40:07.101Z</time></trkpt><trkpt lat="44.52793" lon="8.6159483"><ele>480.0</ele><time>2026-04-04T11:40:08.1Z</time></trkpt><trkpt lat="44.5278317" lon="8.6158317"><ele>476.0</ele><time>2026-04-04T11:40:09.105Z</time></trkpt><trkpt lat="44.5277133" lon="8.6157583"><ele>472.0</ele><time>2026-04-04T11:40:10.102Z</time></trkpt><trkpt lat="44.5275883" lon="8.6157083"><ele>468.0</ele><time>2026-04-04T11:40:11.11Z</time></trkpt><trkpt lat="44.5274633" lon="8.615655"><ele>464.0</ele><time>2026-04-04T11:40:12.101Z</time></trkpt><trkpt lat="44.527335" lon="8.6155667"><ele>464.0</ele><time>2026-04-04T11:40:13.101Z</time></trkpt><trkpt lat="44.5272317" lon="8.6154433"><ele>464.0</ele><time>2026-04-04T11:40:14.099Z</time></trkpt><trkpt lat="44.5271233" lon="8.6153"><ele>464.0</ele><time>2026-04-04T11:40:15.097Z</time></trkpt><trkpt lat="44.5270117" lon="8.6151217"><ele>460.3333333333333</ele><time>2026-04-04T11:40:16.101Z</time></trkpt><trkpt lat="44.526905" lon="8.6149333"><ele>456.66666666666663</ele><time>2026-04-04T11:40:17.103Z</time></trkpt><trkpt lat="44.5268033" lon="8.6147417"><ele>453.0</ele><time>2026-04-04T11:40:18.1Z</time></trkpt><trkpt lat="44.5267133" lon="8.61456"><ele>453.33333333333337</ele><time>2026-04-04T11:40:19.099Z</time></trkpt><trkpt lat="44.526635" lon="8.6143767"><ele>453.6666666666667</ele><time>2026-04-04T11:40:20.099Z</time></trkpt><trkpt lat="44.5265817" lon="8.61418"><ele>454.0</ele><time>2026-04-04T11:40:21.103Z</time></trkpt><trkpt lat="44.5265467" lon="8.6139767"><ele>454.0</ele><time>2026-04-04T11:40:22.101Z</time></trkpt><trkpt lat="44.5265033" lon="8.61377"><ele>454.0</ele><time>2026-04-04T11:40:23.102Z</time></trkpt><trkpt lat="44.52645" lon="8.613575"><ele>454.0</ele><time>2026-04-04T11:40:24.103Z</time></trkpt><trkpt lat="44.5263767" lon="8.6134017"><ele>454.0</ele><time>2026-04-04T11:40:25.103Z</time></trkpt><trkpt lat="44.5262933" lon="8.61325"><ele>450.83333333333337</ele><time>2026-04-04T11:40:26.098Z</time></trkpt><trkpt lat="44.5262067" lon="8.6131383"><ele>447.6666666666667</ele><time>2026-04-04T11:40:27.101Z</time></trkpt><trkpt lat="44.5261533" lon="8.6130367"><ele>444.5</ele><time>2026-04-04T11:40:28.097Z</time></trkpt><trkpt lat="44.5261067" lon="8.612945"><ele>441.33333333333337</ele><time>2026-04-04T11:40:29.1Z</time></trkpt><trkpt lat="44.5260783" lon="8.612845"><ele>438.1666666666667</ele><time>2026-04-04T11:40:30.103Z</time></trkpt><trkpt lat="44.52607" lon="8.612745"><ele>435.0</ele><time>2026-04-04T11:40:31.101Z</time></trkpt><trkpt lat="44.5262067" lon="8.6127717"><ele>437.75</ele><time>2026-04-04T11:40:32.1Z</time></trkpt><trkpt lat="44.5262967" lon="8.6128367"><ele>440.5</ele><time>2026-04-04T11:40:33.098Z</time></trkpt><trkpt lat="44.5263833" lon="8.6129383"><ele>443.25</ele><time>2026-04-04T11:40:34.11Z</time></trkpt><trkpt lat="44.5264683" lon="8.6130517"><ele>446.0</ele><time>2026-04-04T11:40:35.1Z</time></trkpt><trkpt lat="44.52656" lon="8.6131583"><ele>446.0</ele><time>2026-04-04T11:40:36.102Z</time></trkpt><trkpt lat="44.5266533" lon="8.613245"><ele>446.0</ele><time>2026-04-04T11:40:37.101Z</time></trkpt><trkpt lat="44.5267467" lon="8.613305"><ele>446.0</ele><time>2026-04-04T11:40:38.097Z</time></trkpt><trkpt lat="44.52684" lon="8.6133233"><ele>446.0</ele><time>2026-04-04T11:40:39.102Z</time></trkpt><trkpt lat="44.5269333" lon="8.6132883"><ele>446.0</ele><time>2026-04-04T11:40:40.098Z</time></trkpt><trkpt lat="44.5270167" lon="8.6132167"><ele>447.6</ele><time>2026-04-04T11:40:41.1Z</time></trkpt><trkpt lat="44.527075" lon="8.613125"><ele>449.20000000000005</ele><time>2026-04-04T11:40:42.101Z</time></trkpt><trkpt lat="44.5271183" lon="8.613005"><ele>450.79999999999995</ele><time>2026-04-04T11:40:43.107Z</time></trkpt><trkpt lat="44.5271567" lon="8.6128717"><ele>452.4</ele><time>2026-04-04T11:40:44.102Z</time></trkpt><trkpt lat="44.527185" lon="8.612695"><ele>454.0</ele><time>2026-04-04T11:40:45.102Z</time></trkpt><trkpt lat="44.5271433" lon="8.6124383"><ele>454.33333333333337</ele><time>2026-04-04T11:40:46.102Z</time></trkpt><trkpt lat="44.5271183" lon="8.6121733"><ele>454.66666666666663</ele><time>2026-04-04T11:40:47.106Z</time></trkpt><trkpt lat="44.52708" lon="8.6119083"><ele>455.0</ele><time>2026-04-04T11:40:48.098Z</time></trkpt><trkpt lat="44.5270483" lon="8.61166"><ele>445.3333333333333</ele><time>2026-04-04T11:40:49.1Z</time></trkpt><trkpt lat="44.5270183" lon="8.611435"><ele>435.66666666666663</ele><time>2026-04-04T11:40:50.102Z</time></trkpt><trkpt lat="44.5270017" lon="8.6112217"><ele>426.0</ele><time>2026-04-04T11:40:51.099Z</time></trkpt><trkpt lat="44.526995" lon="8.6110267"><ele>423.5</ele><time>2026-04-04T11:40:52.105Z</time></trkpt><trkpt lat="44.527015" lon="8.6108483"><ele>421.0</ele><time>2026-04-04T11:40:53.106Z</time></trkpt><trkpt lat="44.527065" lon="8.610685"><ele>418.5</ele><time>2026-04-04T11:40:54.099Z</time></trkpt><trkpt lat="44.5271483" lon="8.610545"><ele>416.0</ele><time>2026-04-04T11:40:55.102Z</time></trkpt><trkpt lat="44.52725" lon="8.610425"><ele>418.0</ele><time>2026-04-04T11:40:56.101Z</time></trkpt><trkpt lat="44.5273733" lon="8.610325"><ele>420.0</ele><time>2026-04-04T11:40:57.099Z</time></trkpt><trkpt lat="44.5274917" lon="8.6102267"><ele>422.0</ele><time>2026-04-04T11:40:58.098Z</time></trkpt><trkpt lat="44.5275883" lon="8.6101383"><ele>424.0</ele><time>2026-04-04T11:40:59.105Z</time></trkpt><trkpt lat="44.5276483" lon="8.61007"><ele>424.00000000000006</ele><time>2026-04-04T11:41:00.101Z</time></trkpt><trkpt lat="44.5276833" lon="8.6099817"><ele>424.0</ele><time>2026-04-04T11:41:01.098Z</time></trkpt><trkpt lat="44.527695" lon="8.60988"><ele>424.0</ele><time>2026-04-04T11:41:02.103Z</time></trkpt><trkpt lat="44.5276567" lon="8.6097817"><ele>424.0</ele><time>2026-04-04T11:41:03.106Z</time></trkpt><trkpt lat="44.5276017" lon="8.6097383"><ele>424.00000000000006</ele><time>2026-04-04T11:41:04.107Z</time></trkpt><trkpt lat="44.5275367" lon="8.6097167"><ele>424.0</ele><time>2026-04-04T11:41:05.105Z</time></trkpt><trkpt lat="44.5274333" lon="8.6097433"><ele>424.0</ele><time>2026-04-04T11:41:06.101Z</time></trkpt><trkpt lat="44.5273083" lon="8.6097867"><ele>424.0</ele><time>2026-04-04T11:41:07.108Z</time></trkpt><trkpt lat="44.5271783" lon="8.60982"><ele>424.0</ele><time>2026-04-04T11:41:08.102Z</time></trkpt><trkpt lat="44.527045" lon="8.6098667"><ele>424.0</ele><time>2026-04-04T11:41:09.101Z</time></trkpt><trkpt lat="44.526915" lon="8.6099367"><ele>419.5</ele><time>2026-04-04T11:41:10.099Z</time></trkpt><trkpt lat="44.5267983" lon="8.61003"><ele>415.0</ele><time>2026-04-04T11:41:11.1Z</time></trkpt><trkpt lat="44.52669" lon="8.6101133"><ele>410.5</ele><time>2026-04-04T11:41:12.098Z</time></trkpt><trkpt lat="44.5265767" lon="8.6101883"><ele>406.0</ele><time>2026-04-04T11:41:13.104Z</time></trkpt><trkpt lat="44.5264667" lon="8.6102283"><ele>406.0</ele><time>2026-04-04T11:41:14.1Z</time></trkpt><trkpt lat="44.5263533" lon="8.6102267"><ele>406.0</ele><time>2026-04-04T11:41:15.101Z</time></trkpt><trkpt lat="44.5262483" lon="8.61017"><ele>406.0</ele><time>2026-04-04T11:41:16.105Z</time></trkpt><trkpt lat="44.5261333" lon="8.6100667"><ele>406.0</ele><time>2026-04-04T11:41:17.101Z</time></trkpt><trkpt lat="44.5260433" lon="8.6099333"><ele>402.6666666666667</ele><time>2026-04-04T11:41:18.102Z</time></trkpt><trkpt lat="44.52598" lon="8.60976"><ele>399.33333333333337</ele><time>2026-04-04T11:41:19.103Z</time></trkpt><trkpt lat="44.5259183" lon="8.6095617"><ele>396.0</ele><time>2026-04-04T11:41:20.099Z</time></trkpt><trkpt lat="44.5258583" lon="8.609335"><ele>393.33333333333337</ele><time>2026-04-04T11:41:21.1Z</time></trkpt><trkpt lat="44.5257933" lon="8.6091033"><ele>390.6666666666667</ele><time>2026-04-04T11:41:22.104Z</time></trkpt><trkpt lat="44.525735" lon="8.6088767"><ele>388.0</ele><time>2026-04-04T11:41:23.1Z</time></trkpt><trkpt lat="44.5256783" lon="8.608675"><ele>387.5</ele><time>2026-04-04T11:41:24.097Z</time></trkpt><trkpt lat="44.5256267" lon="8.608495"><ele>387.0</ele><time>2026-04-04T11:41:25.103Z</time></trkpt><trkpt lat="44.52558" lon="8.6083267"><ele>386.5</ele><time>2026-04-04T11:41:26.1Z</time></trkpt><trkpt lat="44.525535" lon="8.6081567"><ele>386.0</ele><time>2026-04-04T11:41:27.1Z</time></trkpt><trkpt lat="44.52549" lon="8.607995"><ele>386.0</ele><time>2026-04-04T11:41:28.102Z</time></trkpt><trkpt lat="44.5254417" lon="8.6078417"><ele>386.0</ele><time>2026-04-04T11:41:29.106Z</time></trkpt><trkpt lat="44.525385" lon="8.6077033"><ele>386.0</ele><time>2026-04-04T11:41:30.101Z</time></trkpt><trkpt lat="44.525305" lon="8.6075867"><ele>386.0</ele><time>2026-04-04T11:41:31.1Z</time></trkpt><trkpt lat="44.5251967" lon="8.607495"><ele>389.0</ele><time>2026-04-04T11:41:32.103Z</time></trkpt><trkpt lat="44.5250733" lon="8.6074283"><ele>392.0</ele><time>2026-04-04T11:41:33.102Z</time></trkpt><trkpt lat="44.5249367" lon="8.6073767"><ele>395.0</ele><time>2026-04-04T11:41:34.101Z</time></trkpt><trkpt lat="44.5247933" lon="8.6073433"><ele>398.0</ele><time>2026-04-04T11:41:35.105Z</time></trkpt><trkpt lat="44.52465" lon="8.6073283"><ele>401.0</ele><time>2026-04-04T11:41:36.104Z</time></trkpt><trkpt lat="44.5245" lon="8.6073367"><ele>404.0</ele><time>2026-04-04T11:41:37.105Z</time></trkpt><trkpt lat="44.5243467" lon="8.60737"><ele>407.0</ele><time>2026-04-04T11:41:38.101Z</time></trkpt><trkpt lat="44.5241917" lon="8.60742"><ele>407.0</ele><time>2026-04-04T11:41:39.105Z</time></trkpt><trkpt lat="44.5240517" lon="8.607445"><ele>407.0</ele><time>2026-04-04T11:41:40.102Z</time></trkpt><trkpt lat="44.523925" lon="8.6074917"><ele>407.0</ele><time>2026-04-04T11:41:41.099Z</time></trkpt><trkpt lat="44.523805" lon="8.6075867"><ele>407.0</ele><time>2026-04-04T11:41:42.098Z</time></trkpt><trkpt lat="44.523695" lon="8.6076933"><ele>409.75</ele><time>2026-04-04T11:41:43.103Z</time></trkpt><trkpt lat="44.5235967" lon="8.6078333"><ele>412.5</ele><time>2026-04-04T11:41:44.1Z</time></trkpt><trkpt lat="44.5235" lon="8.6079883"><ele>415.25</ele><time>2026-04-04T11:41:45.099Z</time></trkpt><trkpt lat="44.5234067" lon="8.6081467"><ele>418.0</ele><time>2026-04-04T11:41:46.097Z</time></trkpt><trkpt lat="44.52331" lon="8.6083"><ele>418.0</ele><time>2026-04-04T11:41:47.102Z</time></trkpt><trkpt lat="44.5232083" lon="8.608445"><ele>418.0</ele><time>2026-04-04T11:41:48.097Z</time></trkpt><trkpt lat="44.5230967" lon="8.6085883"><ele>418.0</ele><time>2026-04-04T11:41:49.1Z</time></trkpt><trkpt lat="44.52297" lon="8.6087067"><ele>418.0</ele><time>2026-04-04T11:41:50.101Z</time></trkpt><trkpt lat="44.522835" lon="8.6088267"><ele>421.33333333333337</ele><time>2026-04-04T11:41:51.097Z</time></trkpt><trkpt lat="44.5226967" lon="8.6089383"><ele>424.66666666666663</ele><time>2026-04-04T11:41:52.099Z</time></trkpt><trkpt lat="44.5225517" lon="8.60903"><ele>428.0</ele><time>2026-04-04T11:41:53.1Z</time></trkpt><trkpt lat="44.52243" lon="8.6091267"><ele>428.0</ele><time>2026-04-04T11:41:54.103Z</time></trkpt><trkpt lat="44.5223333" lon="8.6092383"><ele>428.0</ele><time>2026-04-04T11:41:55.102Z</time></trkpt><trkpt lat="44.5222483" lon="8.6093683"><ele>428.0</ele><time>2026-04-04T11:41:56.101Z</time></trkpt><trkpt lat="44.5221917" lon="8.6095267"><ele>428.0</ele><time>2026-04-04T11:41:57.099Z</time></trkpt><trkpt lat="44.5221567" lon="8.60969"><ele>429.0</ele><time>2026-04-04T11:41:58.102Z</time></trkpt><trkpt lat="44.5221217" lon="8.609845"><ele>430.0</ele><time>2026-04-04T11:41:59.103Z</time></trkpt><trkpt lat="44.52207" lon="8.60999"><ele>431.0</ele><time>2026-04-04T11:42:00.102Z</time></trkpt><trkpt lat="44.522" lon="8.6101217"><ele>432.0</ele><time>2026-04-04T11:42:01.104Z</time></trkpt><trkpt lat="44.521905" lon="8.6102267"><ele>432.0</ele><time>2026-04-04T11:42:02.106Z</time></trkpt><trkpt lat="44.5217983" lon="8.6102983"><ele>432.0</ele><time>2026-04-04T11:42:03.102Z</time></trkpt><trkpt lat="44.5216717" lon="8.61035"><ele>432.0</ele><time>2026-04-04T11:42:04.099Z</time></trkpt><trkpt lat="44.52154" lon="8.6103933"><ele>432.0</ele><time>2026-04-04T11:42:05.1Z</time></trkpt><trkpt lat="44.5214117" lon="8.6104333"><ele>433.75</ele><time>2026-04-04T11:42:06.105Z</time></trkpt><trkpt lat="44.5212783" lon="8.61043"><ele>435.5</ele><time>2026-04-04T11:42:07.107Z</time></trkpt><trkpt lat="44.5211517" lon="8.61042"><ele>437.25</ele><time>2026-04-04T11:42:08.106Z</time></trkpt><trkpt lat="44.5210167" lon="8.6103833"><ele>439.0</ele><time>2026-04-04T11:42:09.101Z</time></trkpt><trkpt lat="44.5208767" lon="8.610345"><ele>438.6666666666667</ele><time>2026-04-04T11:42:10.103Z</time></trkpt><trkpt lat="44.52073" lon="8.6103033"><ele>438.33333333333337</ele><time>2026-04-04T11:42:11.107Z</time></trkpt><trkpt lat="44.5205783" lon="8.61025"><ele>438.0</ele><time>2026-04-04T11:42:12.105Z</time></trkpt><trkpt lat="44.52042" lon="8.6101983"><ele>442.0</ele><time>2026-04-04T11:42:13.1Z</time></trkpt><trkpt lat="44.52026" lon="8.6101433"><ele>446.0</ele><time>2026-04-04T11:42:14.099Z</time></trkpt><trkpt lat="44.5201017" lon="8.6100983"><ele>450.0</ele><time>2026-04-04T11:42:15.098Z</time></trkpt><trkpt lat="44.5199417" lon="8.6100567"><ele>450.0</ele><time>2026-04-04T11:42:16.1Z</time></trkpt><trkpt lat="44.519785" lon="8.61002"><ele>450.0</ele><time>2026-04-04T11:42:17.1Z</time></trkpt><trkpt lat="44.5196267" lon="8.6099833"><ele>450.0</ele><time>2026-04-04T11:42:18.1Z</time></trkpt><trkpt lat="44.5194733" lon="8.6099167"><ele>452.75</ele><time>2026-04-04T11:42:19.103Z</time></trkpt><trkpt lat="44.5193417" lon="8.6098767"><ele>455.5</ele><time>2026-04-04T11:42:20.105Z</time></trkpt><trkpt lat="44.5192183" lon="8.609815"><ele>458.25</ele><time>2026-04-04T11:42:21.099Z</time></trkpt><trkpt lat="44.5191117" lon="8.60972"><ele>461.0</ele><time>2026-04-04T11:42:22.103Z</time></trkpt><trkpt lat="44.5190183" lon="8.609555"><ele>460.25</ele><time>2026-04-04T11:42:23.104Z</time></trkpt><trkpt lat="44.51896" lon="8.6093933"><ele>459.5</ele><time>2026-04-04T11:42:24.101Z</time></trkpt><trkpt lat="44.5189233" lon="8.6092433"><ele>458.75</ele><time>2026-04-04T11:42:25.107Z</time></trkpt><trkpt lat="44.5188983" lon="8.6090867"><ele>458.0</ele><time>2026-04-04T11:42:26.1Z</time></trkpt><trkpt lat="44.5188633" lon="8.6089367"><ele>458.0</ele><time>2026-04-04T11:42:27.101Z</time></trkpt><trkpt lat="44.5188" lon="8.6088"><ele>458.0</ele><time>2026-04-04T11:42:28.101Z</time></trkpt><trkpt lat="44.5187083" lon="8.6086917"><ele>458.0</ele><time>2026-04-04T11:42:29.107Z</time></trkpt><trkpt lat="44.5185967" lon="8.6086083"><ele>458.0</ele><time>2026-04-04T11:42:30.101Z</time></trkpt><trkpt lat="44.5184767" lon="8.6085583"><ele>459.0</ele><time>2026-04-04T11:42:31.101Z</time></trkpt><trkpt lat="44.5183517" lon="8.6085533"><ele>460.0</ele><time>2026-04-04T11:42:32.101Z</time></trkpt><trkpt lat="44.51824" lon="8.6085867"><ele>461.0</ele><time>2026-04-04T11:42:33.1Z</time></trkpt><trkpt lat="44.5181467" lon="8.608665"><ele>462.0</ele><time>2026-04-04T11:42:34.107Z</time></trkpt><trkpt lat="44.518065" lon="8.60877"><ele>464.25</ele><time>2026-04-04T11:42:35.102Z</time></trkpt><trkpt lat="44.5180083" lon="8.6089067"><ele>466.5</ele><time>2026-04-04T11:42:36.101Z</time></trkpt><trkpt lat="44.5179767" lon="8.609065"><ele>468.75</ele><time>2026-04-04T11:42:37.101Z</time></trkpt><trkpt lat="44.51798" lon="8.609245"><ele>471.0</ele><time>2026-04-04T11:42:38.1Z</time></trkpt><trkpt lat="44.51801" lon="8.6094283"><ele>472.75</ele><time>2026-04-04T11:42:39.1Z</time></trkpt><trkpt lat="44.518055" lon="8.609615"><ele>474.5</ele><time>2026-04-04T11:42:40.103Z</time></trkpt><trkpt lat="44.518105" lon="8.6097983"><ele>476.25</ele><time>2026-04-04T11:42:41.102Z</time></trkpt><trkpt lat="44.518155" lon="8.6099817"><ele>478.0</ele><time>2026-04-04T11:42:42.1Z</time></trkpt><trkpt lat="44.5182283" lon="8.6101567"><ele>479.25</ele><time>2026-04-04T11:42:43.105Z</time></trkpt><trkpt lat="44.5182767" lon="8.61033"><ele>480.5</ele><time>2026-04-04T11:42:44.102Z</time></trkpt><trkpt lat="44.5183083" lon="8.61052"><ele>481.75</ele><time>2026-04-04T11:42:45.1Z</time></trkpt><trkpt lat="44.5183333" lon="8.6107167"><ele>483.0</ele><time>2026-04-04T11:42:46.099Z</time></trkpt><trkpt lat="44.518355" lon="8.6109217"><ele>483.0</ele><time>2026-04-04T11:42:47.105Z</time></trkpt><trkpt lat="44.5183767" lon="8.6111233"><ele>483.0</ele><time>2026-04-04T11:42:48.1Z</time></trkpt><trkpt lat="44.5183967" lon="8.611315"><ele>483.0</ele><time>2026-04-04T11:42:49.101Z</time></trkpt><trkpt lat="44.5183783" lon="8.611525"><ele>483.0</ele><time>2026-04-04T11:42:50.099Z</time></trkpt><trkpt lat="44.51838" lon="8.6116967"><ele>483.75</ele><time>2026-04-04T11:42:51.102Z</time></trkpt><trkpt lat="44.51837" lon="8.6118633"><ele>484.5</ele><time>2026-04-04T11:42:52.099Z</time></trkpt><trkpt lat="44.5183233" lon="8.6120033"><ele>485.25</ele><time>2026-04-04T11:42:53.101Z</time></trkpt><trkpt lat="44.518235" lon="8.6121367"><ele>486.0</ele><time>2026-04-04T11:42:54.096Z</time></trkpt><trkpt lat="44.5181283" lon="8.6122583"><ele>486.0</ele><time>2026-04-04T11:42:55.1Z</time></trkpt><trkpt lat="44.517995" lon="8.6123817"><ele>486.0</ele><time>2026-04-04T11:42:56.107Z</time></trkpt><trkpt lat="44.5178817" lon="8.61252"><ele>486.0</ele><time>2026-04-04T11:42:57.102Z</time></trkpt><trkpt lat="44.5177683" lon="8.6126483"><ele>488.66666666666663</ele><time>2026-04-04T11:42:58.099Z</time></trkpt><trkpt lat="44.5176533" lon="8.6127717"><ele>491.3333333333333</ele><time>2026-04-04T11:42:59.104Z</time></trkpt><trkpt lat="44.5175183" lon="8.6128867"><ele>494.0</ele><time>2026-04-04T11:43:00.1Z</time></trkpt><trkpt lat="44.5173817" lon="8.61297"><ele>494.0</ele><time>2026-04-04T11:43:01.099Z</time></trkpt><trkpt lat="44.5172583" lon="8.6130233"><ele>494.0</ele><time>2026-04-04T11:43:02.101Z</time></trkpt><trkpt lat="44.5171033" lon="8.6130733"><ele>494.0</ele><time>2026-04-04T11:43:03.101Z</time></trkpt><trkpt lat="44.5169567" lon="8.6130933"><ele>494.0</ele><time>2026-04-04T11:43:04.106Z</time></trkpt><trkpt lat="44.5168067" lon="8.6131267"><ele>495.0</ele><time>2026-04-04T11:43:05.102Z</time></trkpt><trkpt lat="44.5166667" lon="8.6131433"><ele>496.0</ele><time>2026-04-04T11:43:06.101Z</time></trkpt><trkpt lat="44.5165267" lon="8.61312"><ele>497.0</ele><time>2026-04-04T11:43:07.099Z</time></trkpt><trkpt lat="44.5163917" lon="8.6130467"><ele>498.0</ele><time>2026-04-04T11:43:08.099Z</time></trkpt><trkpt lat="44.5162583" lon="8.61296"><ele>496.33333333333337</ele><time>2026-04-04T11:43:09.102Z</time></trkpt><trkpt lat="44.5161233" lon="8.6128333"><ele>494.6666666666667</ele><time>2026-04-04T11:43:10.103Z</time></trkpt><trkpt lat="44.5159967" lon="8.6127067"><ele>493.0</ele><time>2026-04-04T11:43:11.105Z</time></trkpt><trkpt lat="44.5158917" lon="8.612575"><ele>495.75</ele><time>2026-04-04T11:43:12.099Z</time></trkpt><trkpt lat="44.5157767" lon="8.61246"><ele>498.5</ele><time>2026-04-04T11:43:13.099Z</time></trkpt><trkpt lat="44.5156817" lon="8.6123017"><ele>501.25</ele><time>2026-04-04T11:43:14.101Z</time></trkpt><trkpt lat="44.5155817" lon="8.612145"><ele>504.0</ele><time>2026-04-04T11:43:15.104Z</time></trkpt><trkpt lat="44.5154667" lon="8.6120033"><ele>505.33333333333337</ele><time>2026-04-04T11:43:16.099Z</time></trkpt><trkpt lat="44.51534" lon="8.61186"><ele>506.6666666666667</ele><time>2026-04-04T11:43:17.102Z</time></trkpt><trkpt lat="44.51521" lon="8.6117233"><ele>508.0</ele><time>2026-04-04T11:43:18.099Z</time></trkpt><trkpt lat="44.515095" lon="8.611595"><ele>508.0</ele><time>2026-04-04T11:43:19.098Z</time></trkpt><trkpt lat="44.5149733" lon="8.611485"><ele>508.0</ele><time>2026-04-04T11:43:20.098Z</time></trkpt><trkpt lat="44.5148633" lon="8.6113633"><ele>508.0</ele><time>2026-04-04T11:43:21.099Z</time></trkpt><trkpt lat="44.514755" lon="8.6112467"><ele>508.0</ele><time>2026-04-04T11:43:22.097Z</time></trkpt><trkpt lat="44.5146567" lon="8.6111083"><ele>509.0</ele><time>2026-04-04T11:43:23.102Z</time></trkpt><trkpt lat="44.5145633" lon="8.61099"><ele>510.0</ele><time>2026-04-04T11:43:24.1Z</time></trkpt><trkpt lat="44.5144817" lon="8.610875"><ele>511.0</ele><time>2026-04-04T11:43:25.101Z</time></trkpt><trkpt lat="44.514395" lon="8.61078"><ele>512.0</ele><time>2026-04-04T11:43:26.1Z</time></trkpt><trkpt lat="44.5143083" lon="8.6106883"><ele>512.0</ele><time>2026-04-04T11:43:27.101Z</time></trkpt><trkpt lat="44.514215" lon="8.6106083"><ele>512.0</ele><time>2026-04-04T11:43:28.106Z</time></trkpt><trkpt lat="44.5141283" lon="8.610515"><ele>512.0</ele><time>2026-04-04T11:43:29.101Z</time></trkpt><trkpt lat="44.51404" lon="8.6104333"><ele>512.0</ele><time>2026-04-04T11:43:30.105Z</time></trkpt><trkpt lat="44.51395" lon="8.6103433"><ele>512.0</ele><time>2026-04-04T11:43:31.106Z</time></trkpt><trkpt lat="44.5138617" lon="8.6102517"><ele>513.75</ele><time>2026-04-04T11:43:32.105Z</time></trkpt><trkpt lat="44.5137733" lon="8.61015"><ele>515.5</ele><time>2026-04-04T11:43:33.103Z</time></trkpt><trkpt lat="44.51368" lon="8.6100517"><ele>517.25</ele><time>2026-04-04T11:43:34.105Z</time></trkpt><trkpt lat="44.5135883" lon="8.6099517"><ele>519.0</ele><time>2026-04-04T11:43:35.108Z</time></trkpt><trkpt lat="44.5135117" lon="8.609835"><ele>519.0</ele><time>2026-04-04T11:43:36.098Z</time></trkpt><trkpt lat="44.5134233" lon="8.609735"><ele>519.0</ele><time>2026-04-04T11:43:37.106Z</time></trkpt><trkpt lat="44.513335" lon="8.6096383"><ele>519.0</ele><time>2026-04-04T11:43:38.101Z</time></trkpt><trkpt lat="44.5132467" lon="8.6095417"><ele>519.0</ele><time>2026-04-04T11:43:39.102Z</time></trkpt><trkpt lat="44.51315" lon="8.609455"><ele>518.75</ele><time>2026-04-04T11:43:40.1Z</time></trkpt><trkpt lat="44.5130517" lon="8.609365"><ele>518.5</ele><time>2026-04-04T11:43:41.099Z</time></trkpt><trkpt lat="44.5129533" lon="8.6092817"><ele>518.25</ele><time>2026-04-04T11:43:42.1Z</time></trkpt><trkpt lat="44.5128583" lon="8.6091967"><ele>518.0</ele><time>2026-04-04T11:43:43.101Z</time></trkpt><trkpt lat="44.5127583" lon="8.6091117"><ele>518.0</ele><time>2026-04-04T11:43:44.104Z</time></trkpt><trkpt lat="44.51266" lon="8.60902"><ele>518.0</ele><time>2026-04-04T11:43:45.098Z</time></trkpt><trkpt lat="44.5125617" lon="8.6089317"><ele>518.0</ele><time>2026-04-04T11:43:46.103Z</time></trkpt><trkpt lat="44.5124617" lon="8.608845"><ele>518.0</ele><time>2026-04-04T11:43:47.101Z</time></trkpt><trkpt lat="44.5123617" lon="8.6087633"><ele>518.0</ele><time>2026-04-04T11:43:48.1Z</time></trkpt><trkpt lat="44.512245" lon="8.6086983"><ele>518.0</ele><time>2026-04-04T11:43:49.101Z</time></trkpt><trkpt lat="44.5121267" lon="8.608645"><ele>518.0</ele><time>2026-04-04T11:43:50.101Z</time></trkpt><trkpt lat="44.5120133" lon="8.6085917"><ele>518.0</ele><time>2026-04-04T11:43:51.101Z</time></trkpt><trkpt lat="44.5118883" lon="8.6085433"><ele>519.0</ele><time>2026-04-04T11:43:52.103Z</time></trkpt><trkpt lat="44.5117633" lon="8.6084867"><ele>520.0</ele><time>2026-04-04T11:43:53.101Z</time></trkpt><trkpt lat="44.5116367" lon="8.6084333"><ele>521.0</ele><time>2026-04-04T11:43:54.106Z</time></trkpt><trkpt lat="44.51151" lon="8.6083783"><ele>522.0</ele><time>2026-04-04T11:43:55.105Z</time></trkpt><trkpt lat="44.511385" lon="8.608315"><ele>522.0</ele><time>2026-04-04T11:43:56.098Z</time></trkpt><trkpt lat="44.511255" lon="8.6082517"><ele>522.0</ele><time>2026-04-04T11:43:57.102Z</time></trkpt><trkpt lat="44.5111233" lon="8.6081733"><ele>522.0</ele><time>2026-04-04T11:43:58.098Z</time></trkpt><trkpt lat="44.5109883" lon="8.60809"><ele>522.0</ele><time>2026-04-04T11:43:59.106Z</time></trkpt><trkpt lat="44.5108633" lon="8.60798"><ele>523.6666666666666</ele><time>2026-04-04T11:44:00.1Z</time></trkpt><trkpt lat="44.5107467" lon="8.6078467"><ele>525.3333333333333</ele><time>2026-04-04T11:44:01.097Z</time></trkpt><trkpt lat="44.510625" lon="8.6077183"><ele>527.0</ele><time>2026-04-04T11:44:02.099Z</time></trkpt><trkpt lat="44.5104967" lon="8.6076017"><ele>523.3333333333333</ele><time>2026-04-04T11:44:03.099Z</time></trkpt><trkpt lat="44.510355" lon="8.6075017"><ele>519.6666666666666</ele><time>2026-04-04T11:44:04.099Z</time></trkpt><trkpt lat="44.5102033" lon="8.6074217"><ele>516.0</ele><time>2026-04-04T11:44:05.098Z</time></trkpt><trkpt lat="44.5100583" lon="8.6073467"><ele>516.0</ele><time>2026-04-04T11:44:06.099Z</time></trkpt><trkpt lat="44.5099233" lon="8.6072783"><ele>516.0</ele><time>2026-04-04T11:44:07.1Z</time></trkpt><trkpt lat="44.5097967" lon="8.6072133"><ele>516.0</ele><time>2026-04-04T11:44:08.102Z</time></trkpt><trkpt lat="44.5096733" lon="8.60716"><ele>516.0</ele><time>2026-04-04T11:44:09.104Z</time></trkpt><trkpt lat="44.5095617" lon="8.6071"><ele>515.25</ele><time>2026-04-04T11:44:10.103Z</time></trkpt><trkpt lat="44.50945" lon="8.6070467"><ele>514.5</ele><time>2026-04-04T11:44:11.104Z</time></trkpt><trkpt lat="44.509335" lon="8.60699"><ele>513.75</ele><time>2026-04-04T11:44:12.1Z</time></trkpt><trkpt lat="44.5092233" lon="8.6069317"><ele>513.0</ele><time>2026-04-04T11:44:13.102Z</time></trkpt><trkpt lat="44.509105" lon="8.6068717"><ele>514.4</ele><time>2026-04-04T11:44:14.1Z</time></trkpt><trkpt lat="44.5089883" lon="8.6068217"><ele>515.8</ele><time>2026-04-04T11:44:15.1Z</time></trkpt><trkpt lat="44.5088833" lon="8.60677"><ele>517.2</ele><time>2026-04-04T11:44:16.11Z</time></trkpt><trkpt lat="44.50879" lon="8.6067083"><ele>518.6</ele><time>2026-04-04T11:44:17.107Z</time></trkpt><trkpt lat="44.508705" lon="8.6066333"><ele>520.0</ele><time>2026-04-04T11:44:18.102Z</time></trkpt><trkpt lat="44.50863" lon="8.6065417"><ele>520.0</ele><time>2026-04-04T11:44:19.108Z</time></trkpt><trkpt lat="44.5085683" lon="8.6064383"><ele>520.0</ele><time>2026-04-04T11:44:20.105Z</time></trkpt><trkpt lat="44.5085183" lon="8.6063217"><ele>520.0</ele><time>2026-04-04T11:44:21.103Z</time></trkpt><trkpt lat="44.5084733" lon="8.6061817"><ele>520.0</ele><time>2026-04-04T11:44:22.102Z</time></trkpt><trkpt lat="44.5084267" lon="8.606035"><ele>520.0</ele><time>2026-04-04T11:44:23.1Z</time></trkpt><trkpt lat="44.5083717" lon="8.60588"><ele>521.0</ele><time>2026-04-04T11:44:24.105Z</time></trkpt><trkpt lat="44.50831" lon="8.6057217"><ele>522.0</ele><time>2026-04-04T11:44:25.105Z</time></trkpt><trkpt lat="44.5082367" lon="8.605555"><ele>523.0</ele><time>2026-04-04T11:44:26.102Z</time></trkpt><trkpt lat="44.5081583" lon="8.605395"><ele>524.0</ele><time>2026-04-04T11:44:27.099Z</time></trkpt><trkpt lat="44.5080783" lon="8.60525"><ele>524.8</ele><time>2026-04-04T11:44:28.103Z</time></trkpt><trkpt lat="44.5080083" lon="8.6051083"><ele>525.5999999999999</ele><time>2026-04-04T11:44:29.121Z</time></trkpt><trkpt lat="44.50795" lon="8.6049783"><ele>526.4</ele><time>2026-04-04T11:44:30.103Z</time></trkpt><trkpt lat="44.5079117" lon="8.60485"><ele>527.1999999999999</ele><time>2026-04-04T11:44:31.1Z</time></trkpt><trkpt lat="44.5078983" lon="8.6047083"><ele>528.0</ele><time>2026-04-04T11:44:32.104Z</time></trkpt><trkpt lat="44.5079083" lon="8.60457"><ele>526.6</ele><time>2026-04-04T11:44:33.102Z</time></trkpt><trkpt lat="44.5079283" lon="8.6044467"><ele>525.1999999999999</ele><time>2026-04-04T11:44:34.101Z</time></trkpt><trkpt lat="44.507985" lon="8.604345"><ele>523.8</ele><time>2026-04-04T11:44:35.102Z</time></trkpt><trkpt lat="44.508035" lon="8.6042633"><ele>522.4</ele><time>2026-04-04T11:44:36.102Z</time></trkpt><trkpt lat="44.5081167" lon="8.6042067"><ele>521.0</ele><time>2026-04-04T11:44:37.104Z</time></trkpt><trkpt lat="44.508215" lon="8.6041267"><ele>521.0</ele><time>2026-04-04T11:44:38.105Z</time></trkpt><trkpt lat="44.5083267" lon="8.6040267"><ele>521.0</ele><time>2026-04-04T11:44:39.1Z</time></trkpt><trkpt lat="44.5084183" lon="8.6039067"><ele>521.0</ele><time>2026-04-04T11:44:40.106Z</time></trkpt><trkpt lat="44.5085133" lon="8.6037533"><ele>521.0</ele><time>2026-04-04T11:44:41.105Z</time></trkpt><trkpt lat="44.5085783" lon="8.6035767"><ele>518.75</ele><time>2026-04-04T11:44:42.103Z</time></trkpt><trkpt lat="44.5086183" lon="8.6033883"><ele>516.5</ele><time>2026-04-04T11:44:43.101Z</time></trkpt><trkpt lat="44.5086483" lon="8.60319"><ele>514.25</ele><time>2026-04-04T11:44:44.101Z</time></trkpt><trkpt lat="44.5086817" lon="8.6029833"><ele>512.0</ele><time>2026-04-04T11:44:45.1Z</time></trkpt><trkpt lat="44.50871" lon="8.6027633"><ele>512.0</ele><time>2026-04-04T11:44:46.105Z</time></trkpt><trkpt lat="44.50873" lon="8.60255"><ele>512.0</ele><time>2026-04-04T11:44:47.106Z</time></trkpt><trkpt lat="44.508755" lon="8.6023433"><ele>512.0</ele><time>2026-04-04T11:44:48.101Z</time></trkpt><trkpt lat="44.50878" lon="8.6021483"><ele>512.0</ele><time>2026-04-04T11:44:49.106Z</time></trkpt><trkpt lat="44.5088033" lon="8.6019617"><ele>515.25</ele><time>2026-04-04T11:44:50.105Z</time></trkpt><trkpt lat="44.5088133" lon="8.60177"><ele>518.5</ele><time>2026-04-04T11:44:51.1Z</time></trkpt><trkpt lat="44.5088183" lon="8.601585"><ele>521.75</ele><time>2026-04-04T11:44:52.108Z</time></trkpt><trkpt lat="44.5087967" lon="8.6013983"><ele>525.0</ele><time>2026-04-04T11:44:53.1Z</time></trkpt><trkpt lat="44.5087467" lon="8.6012133"><ele>518.6666666666666</ele><time>2026-04-04T11:44:54.101Z</time></trkpt><trkpt lat="44.50868" lon="8.6010233"><ele>512.3333333333333</ele><time>2026-04-04T11:44:55.103Z</time></trkpt><trkpt lat="44.5086067" lon="8.60083"><ele>506.0</ele><time>2026-04-04T11:44:56.101Z</time></trkpt><trkpt lat="44.5085333" lon="8.6006283"><ele>506.0</ele><time>2026-04-04T11:44:57.101Z</time></trkpt><trkpt lat="44.5084617" lon="8.60043"><ele>506.0</ele><time>2026-04-04T11:44:58.102Z</time></trkpt><trkpt lat="44.508395" lon="8.60022"><ele>506.0</ele><time>2026-04-04T11:44:59.101Z</time></trkpt><trkpt lat="44.5083317" lon="8.6000217"><ele>506.75</ele><time>2026-04-04T11:45:00.099Z</time></trkpt><trkpt lat="44.5082717" lon="8.5998233"><ele>507.5</ele><time>2026-04-04T11:45:01.106Z</time></trkpt><trkpt lat="44.50823" lon="8.5996167"><ele>508.25</ele><time>2026-04-04T11:45:02.103Z</time></trkpt><trkpt lat="44.5081683" lon="8.5994467"><ele>509.0</ele><time>2026-04-04T11:45:03.103Z</time></trkpt><trkpt lat="44.5080967" lon="8.5992933"><ele>508.5</ele><time>2026-04-04T11:45:04.099Z</time></trkpt><trkpt lat="44.508025" lon="8.5991533"><ele>508.0</ele><time>2026-04-04T11:45:05.106Z</time></trkpt><trkpt lat="44.5079333" lon="8.59903"><ele>507.5</ele><time>2026-04-04T11:45:06.101Z</time></trkpt><trkpt lat="44.50783" lon="8.59893"><ele>507.0</ele><time>2026-04-04T11:45:07.101Z</time></trkpt><trkpt lat="44.507705" lon="8.5988467"><ele>507.0</ele><time>2026-04-04T11:45:08.102Z</time></trkpt><trkpt lat="44.5075667" lon="8.598775"><ele>507.0</ele><time>2026-04-04T11:45:09.098Z</time></trkpt><trkpt lat="44.5074283" lon="8.5987067"><ele>507.0</ele><time>2026-04-04T11:45:10.101Z</time></trkpt><trkpt lat="44.5072883" lon="8.598645"><ele>507.0</ele><time>2026-04-04T11:45:11.105Z</time></trkpt><trkpt lat="44.507155" lon="8.59858"><ele>507.75</ele><time>2026-04-04T11:45:12.104Z</time></trkpt><trkpt lat="44.5070233" lon="8.5985133"><ele>508.5</ele><time>2026-04-04T11:45:13.098Z</time></trkpt><trkpt lat="44.50689" lon="8.5984583"><ele>509.25</ele><time>2026-04-04T11:45:14.099Z</time></trkpt><trkpt lat="44.5067617" lon="8.59842"><ele>510.0</ele><time>2026-04-04T11:45:15.1Z</time></trkpt><trkpt lat="44.506615" lon="8.5984183"><ele>510.0</ele><time>2026-04-04T11:45:16.102Z</time></trkpt><trkpt lat="44.5064617" lon="8.59845"><ele>510.0</ele><time>2026-04-04T11:45:17.103Z</time></trkpt><trkpt lat="44.5062967" lon="8.5985"><ele>510.0</ele><time>2026-04-04T11:45:18.103Z</time></trkpt><trkpt lat="44.5061517" lon="8.5985533"><ele>510.5</ele><time>2026-04-04T11:45:19.103Z</time></trkpt><trkpt lat="44.506025" lon="8.598605"><ele>511.0</ele><time>2026-04-04T11:45:20.101Z</time></trkpt><trkpt lat="44.5059267" lon="8.5986583"><ele>511.5</ele><time>2026-04-04T11:45:21.107Z</time></trkpt><trkpt lat="44.50584" lon="8.5987533"><ele>512.0</ele><time>2026-04-04T11:45:22.098Z</time></trkpt><trkpt lat="44.505785" lon="8.5988783"><ele>509.25</ele><time>2026-04-04T11:45:23.102Z</time></trkpt><trkpt lat="44.505755" lon="8.5990383"><ele>506.5</ele><time>2026-04-04T11:45:24.106Z</time></trkpt><trkpt lat="44.5057667" lon="8.599245"><ele>503.75</ele><time>2026-04-04T11:45:25.102Z</time></trkpt><trkpt lat="44.5057383" lon="8.5994233"><ele>501.0</ele><time>2026-04-04T11:45:26.101Z</time></trkpt><trkpt lat="44.5057" lon="8.599585"><ele>497.75</ele><time>2026-04-04T11:45:27.106Z</time></trkpt><trkpt lat="44.5056383" lon="8.59974"><ele>494.5</ele><time>2026-04-04T11:45:28.099Z</time></trkpt><trkpt lat="44.5055683" lon="8.5998683"><ele>491.25</ele><time>2026-04-04T11:45:29.105Z</time></trkpt><trkpt lat="44.505465" lon="8.599935"><ele>488.0</ele><time>2026-04-04T11:45:30.104Z</time></trkpt><trkpt lat="44.5053267" lon="8.5999433"><ele>486.66666666666663</ele><time>2026-04-04T11:45:31.104Z</time></trkpt><trkpt lat="44.50515" lon="8.59989"><ele>485.33333333333337</ele><time>2026-04-04T11:45:32.106Z</time></trkpt><trkpt lat="44.505005" lon="8.59984"><ele>484.0</ele><time>2026-04-04T11:45:33.101Z</time></trkpt><trkpt lat="44.5048717" lon="8.5998133"><ele>484.0</ele><time>2026-04-04T11:45:34.106Z</time></trkpt><trkpt lat="44.50472" lon="8.5997717"><ele>484.0</ele><time>2026-04-04T11:45:35.099Z</time></trkpt><trkpt lat="44.50456" lon="8.5997383"><ele>484.0</ele><time>2026-04-04T11:45:36.105Z</time></trkpt><trkpt lat="44.5043967" lon="8.599695"><ele>479.6666666666667</ele><time>2026-04-04T11:45:37.099Z</time></trkpt><trkpt lat="44.5042383" lon="8.59965"><ele>475.33333333333337</ele><time>2026-04-04T11:45:38.103Z</time></trkpt><trkpt lat="44.5040767" lon="8.5996183"><ele>471.0</ele><time>2026-04-04T11:45:39.102Z</time></trkpt><trkpt lat="44.5039117" lon="8.5996"><ele>471.0</ele><time>2026-04-04T11:45:40.102Z</time></trkpt><trkpt lat="44.50376" lon="8.5995883"><ele>471.0</ele><time>2026-04-04T11:45:41.098Z</time></trkpt><trkpt lat="44.5036117" lon="8.599565"><ele>471.0</ele><time>2026-04-04T11:45:42.103Z</time></trkpt><trkpt lat="44.5034533" lon="8.5995233"><ele>474.66666666666663</ele><time>2026-04-04T11:45:43.097Z</time></trkpt><trkpt lat="44.503315" lon="8.5994483"><ele>478.3333333333333</ele><time>2026-04-04T11:45:44.106Z</time></trkpt><trkpt lat="44.5031733" lon="8.5993783"><ele>482.0</ele><time>2026-04-04T11:45:45.101Z</time></trkpt><trkpt lat="44.503025" lon="8.5993017"><ele>478.0</ele><time>2026-04-04T11:45:46.108Z</time></trkpt><trkpt lat="44.502875" lon="8.5992283"><ele>474.0</ele><time>2026-04-04T11:45:47.101Z</time></trkpt><trkpt lat="44.5027283" lon="8.5991467"><ele>470.0</ele><time>2026-04-04T11:45:48.097Z</time></trkpt><trkpt lat="44.5025833" lon="8.5990717"><ele>470.0</ele><time>2026-04-04T11:45:49.101Z</time></trkpt><trkpt lat="44.5024383" lon="8.5989933"><ele>470.0</ele><time>2026-04-04T11:45:50.099Z</time></trkpt><trkpt lat="44.502295" lon="8.5989167"><ele>470.0</ele><time>2026-04-04T11:45:51.099Z</time></trkpt><trkpt lat="44.5021533" lon="8.5988533"><ele>469.5</ele><time>2026-04-04T11:45:52.101Z</time></trkpt><trkpt lat="44.5020067" lon="8.5988117"><ele>469.0</ele><time>2026-04-04T11:45:53.1Z</time></trkpt><trkpt lat="44.5018633" lon="8.5987967"><ele>468.5</ele><time>2026-04-04T11:45:54.104Z</time></trkpt><trkpt lat="44.5017167" lon="8.5988133"><ele>468.0</ele><time>2026-04-04T11:45:55.103Z</time></trkpt><trkpt lat="44.50157" lon="8.5988467"><ele>468.0</ele><time>2026-04-04T11:45:56.107Z</time></trkpt><trkpt lat="44.5014317" lon="8.598865"><ele>468.0</ele><time>2026-04-04T11:45:57.099Z</time></trkpt><trkpt lat="44.50129" lon="8.5988583"><ele>468.0</ele><time>2026-04-04T11:45:58.1Z</time></trkpt><trkpt lat="44.5011467" lon="8.5988183"><ele>468.0</ele><time>2026-04-04T11:45:59.104Z</time></trkpt><trkpt lat="44.5010033" lon="8.5987467"><ele>474.66666666666663</ele><time>2026-04-04T11:46:00.104Z</time></trkpt><trkpt lat="44.5008633" lon="8.5986517"><ele>481.3333333333333</ele><time>2026-04-04T11:46:01.102Z</time></trkpt><trkpt lat="44.500715" lon="8.5985667"><ele>488.0</ele><time>2026-04-04T11:46:02.101Z</time></trkpt><trkpt lat="44.5005817" lon="8.598485"><ele>488.0</ele><time>2026-04-04T11:46:03.099Z</time></trkpt><trkpt lat="44.5004483" lon="8.5984233"><ele>488.0</ele><time>2026-04-04T11:46:04.104Z</time></trkpt><trkpt lat="44.5003117" lon="8.5983783"><ele>488.0</ele><time>2026-04-04T11:46:05.104Z</time></trkpt><trkpt lat="44.5001817" lon="8.5983233"><ele>488.0</ele><time>2026-04-04T11:46:06.104Z</time></trkpt><trkpt lat="44.5000533" lon="8.5982967"><ele>486.0</ele><time>2026-04-04T11:46:07.103Z</time></trkpt><trkpt lat="44.499915" lon="8.5983167"><ele>484.0</ele><time>2026-04-04T11:46:08.105Z</time></trkpt><trkpt lat="44.4997767" lon="8.5983817"><ele>482.0</ele><time>2026-04-04T11:46:09.102Z</time></trkpt><trkpt lat="44.4996483" lon="8.5984667"><ele>480.0</ele><time>2026-04-04T11:46:10.106Z</time></trkpt><trkpt lat="44.49952" lon="8.5985467"><ele>478.75</ele><time>2026-04-04T11:46:11.108Z</time></trkpt><trkpt lat="44.4993833" lon="8.5986333"><ele>477.5</ele><time>2026-04-04T11:46:12.103Z</time></trkpt><trkpt lat="44.4992483" lon="8.5987233"><ele>476.25</ele><time>2026-04-04T11:46:13.101Z</time></trkpt><trkpt lat="44.49913" lon="8.59883"><ele>475.0</ele><time>2026-04-04T11:46:14.1Z</time></trkpt><trkpt lat="44.4990317" lon="8.5989517"><ele>475.0</ele><time>2026-04-04T11:46:15.1Z</time></trkpt><trkpt lat="44.49895" lon="8.5991017"><ele>475.0</ele><time>2026-04-04T11:46:16.097Z</time></trkpt><trkpt lat="44.4989" lon="8.59927"><ele>475.0</ele><time>2026-04-04T11:46:17.104Z</time></trkpt><trkpt lat="44.4988417" lon="8.599435"><ele>475.0</ele><time>2026-04-04T11:46:18.099Z</time></trkpt><trkpt lat="44.4987733" lon="8.59959"><ele>478.25</ele><time>2026-04-04T11:46:19.098Z</time></trkpt><trkpt lat="44.4986917" lon="8.5997367"><ele>481.5</ele><time>2026-04-04T11:46:20.103Z</time></trkpt><trkpt lat="44.4985933" lon="8.5998833"><ele>484.75</ele><time>2026-04-04T11:46:21.102Z</time></trkpt><trkpt lat="44.498505" lon="8.6000267"><ele>488.0</ele><time>2026-04-04T11:46:22.1Z</time></trkpt><trkpt lat="44.4984133" lon="8.6001517"><ele>488.0</ele><time>2026-04-04T11:46:23.101Z</time></trkpt><trkpt lat="44.4983267" lon="8.600255"><ele>487.99999999999994</ele><time>2026-04-04T11:46:24.101Z</time></trkpt><trkpt lat="44.4982383" lon="8.6003483"><ele>487.99999999999994</ele><time>2026-04-04T11:46:25.103Z</time></trkpt><trkpt lat="44.4981567" lon="8.6004517"><ele>488.0</ele><time>2026-04-04T11:46:26.102Z</time></trkpt><trkpt lat="44.4981133" lon="8.6005617"><ele>488.0</ele><time>2026-04-04T11:46:27.099Z</time></trkpt><trkpt lat="44.4981083" lon="8.6007167"><ele>487.0</ele><time>2026-04-04T11:46:28.099Z</time></trkpt><trkpt lat="44.4981117" lon="8.6008817"><ele>486.0</ele><time>2026-04-04T11:46:29.103Z</time></trkpt><trkpt lat="44.49811" lon="8.6010483"><ele>485.0</ele><time>2026-04-04T11:46:30.101Z</time></trkpt><trkpt lat="44.498105" lon="8.6012217"><ele>484.0</ele><time>2026-04-04T11:46:31.103Z</time></trkpt><trkpt lat="44.49809" lon="8.6013883"><ele>484.0</ele><time>2026-04-04T11:46:32.103Z</time></trkpt><trkpt lat="44.4980517" lon="8.601545"><ele>484.0</ele><time>2026-04-04T11:46:33.106Z</time></trkpt><trkpt lat="44.4979867" lon="8.6016817"><ele>484.0</ele><time>2026-04-04T11:46:34.102Z</time></trkpt><trkpt lat="44.497905" lon="8.6018167"><ele>484.0</ele><time>2026-04-04T11:46:35.102Z</time></trkpt><trkpt lat="44.4978233" lon="8.6019483"><ele>483.5</ele><time>2026-04-04T11:46:36.101Z</time></trkpt><trkpt lat="44.4977433" lon="8.60208"><ele>483.0</ele><time>2026-04-04T11:46:37.1Z</time></trkpt><trkpt lat="44.4976617" lon="8.602215"><ele>482.5</ele><time>2026-04-04T11:46:38.103Z</time></trkpt><trkpt lat="44.49758" lon="8.6023633"><ele>482.0</ele><time>2026-04-04T11:46:39.103Z</time></trkpt><trkpt lat="44.4975017" lon="8.60251"><ele>482.0</ele><time>2026-04-04T11:46:40.1Z</time></trkpt><trkpt lat="44.4974267" lon="8.6026433"><ele>482.0</ele><time>2026-04-04T11:46:41.104Z</time></trkpt><trkpt lat="44.4973433" lon="8.6027717"><ele>482.0</ele><time>2026-04-04T11:46:42.1Z</time></trkpt><trkpt lat="44.49726" lon="8.6028983"><ele>482.0</ele><time>2026-04-04T11:46:43.097Z</time></trkpt><trkpt lat="44.49716" lon="8.60305"><ele>480.25</ele><time>2026-04-04T11:46:44.098Z</time></trkpt><trkpt lat="44.4970983" lon="8.6032"><ele>478.5</ele><time>2026-04-04T11:46:45.102Z</time></trkpt><trkpt lat="44.4970533" lon="8.6033483"><ele>476.75</ele><time>2026-04-04T11:46:46.099Z</time></trkpt><trkpt lat="44.497" lon="8.60349"><ele>475.0</ele><time>2026-04-04T11:46:47.109Z</time></trkpt><trkpt lat="44.496955" lon="8.6036417"><ele>476.5</ele><time>2026-04-04T11:46:48.101Z</time></trkpt><trkpt lat="44.4969017" lon="8.60381"><ele>478.0</ele><time>2026-04-04T11:46:49.101Z</time></trkpt><trkpt lat="44.496855" lon="8.6039867"><ele>479.5</ele><time>2026-04-04T11:46:50.1Z</time></trkpt><trkpt lat="44.49681" lon="8.604155"><ele>481.0</ele><time>2026-04-04T11:46:51.104Z</time></trkpt><trkpt lat="44.49676" lon="8.6043183"><ele>481.0</ele><time>2026-04-04T11:46:52.101Z</time></trkpt><trkpt lat="44.4967133" lon="8.6044583"><ele>481.0</ele><time>2026-04-04T11:46:53.104Z</time></trkpt><trkpt lat="44.4966517" lon="8.6045683"><ele>481.0</ele><time>2026-04-04T11:46:54.101Z</time></trkpt><trkpt lat="44.496585" lon="8.6046417"><ele>481.0</ele><time>2026-04-04T11:46:55.103Z</time></trkpt><trkpt lat="44.4965017" lon="8.6046867"><ele>481.0</ele><time>2026-04-04T11:46:56.1Z</time></trkpt><trkpt lat="44.4964017" lon="8.6047217"><ele>481.8</ele><time>2026-04-04T11:46:57.101Z</time></trkpt><trkpt lat="44.496315" lon="8.604735"><ele>482.6</ele><time>2026-04-04T11:46:58.104Z</time></trkpt><trkpt lat="44.496225" lon="8.6047333"><ele>483.4</ele><time>2026-04-04T11:46:59.103Z</time></trkpt><trkpt lat="44.49614" lon="8.6047017"><ele>484.2</ele><time>2026-04-04T11:47:00.1Z</time></trkpt><trkpt lat="44.4960517" lon="8.6046367"><ele>485.0</ele><time>2026-04-04T11:47:01.099Z</time></trkpt><trkpt lat="44.4959583" lon="8.6044467"><ele>485.0</ele><time>2026-04-04T11:47:02.102Z</time></trkpt><trkpt lat="44.4958467" lon="8.6043533"><ele>485.0</ele><time>2026-04-04T11:47:03.099Z</time></trkpt><trkpt lat="44.4957367" lon="8.6042917"><ele>485.0</ele><time>2026-04-04T11:47:04.102Z</time></trkpt><trkpt lat="44.4956217" lon="8.60423"><ele>485.0</ele><time>2026-04-04T11:47:05.101Z</time></trkpt><trkpt lat="44.4955183" lon="8.6041733"><ele>489.6</ele><time>2026-04-04T11:47:06.098Z</time></trkpt><trkpt lat="44.49542" lon="8.60412"><ele>494.2</ele><time>2026-04-04T11:47:07.098Z</time></trkpt><trkpt lat="44.49532" lon="8.604065"><ele>498.79999999999995</ele><time>2026-04-04T11:47:08.103Z</time></trkpt><trkpt lat="44.4952133" lon="8.60401"><ele>503.4</ele><time>2026-04-04T11:47:09.102Z</time></trkpt><trkpt lat="44.4951033" lon="8.6039583"><ele>508.0</ele><time>2026-04-04T11:47:10.101Z</time></trkpt><trkpt lat="44.4949933" lon="8.60391"><ele>508.0</ele><time>2026-04-04T11:47:11.105Z</time></trkpt><trkpt lat="44.494885" lon="8.6038533"><ele>507.99999999999994</ele><time>2026-04-04T11:47:12.099Z</time></trkpt><trkpt lat="44.49478" lon="8.6037933"><ele>507.99999999999994</ele><time>2026-04-04T11:47:13.102Z</time></trkpt><trkpt lat="44.4946783" lon="8.6037317"><ele>508.0</ele><time>2026-04-04T11:47:14.107Z</time></trkpt><trkpt lat="44.4945783" lon="8.60368"><ele>508.0</ele><time>2026-04-04T11:47:15.103Z</time></trkpt><trkpt lat="44.4944967" lon="8.60361"><ele>508.50000000000006</ele><time>2026-04-04T11:47:16.103Z</time></trkpt><trkpt lat="44.4944117" lon="8.6035683"><ele>509.0</ele><time>2026-04-04T11:47:17.11Z</time></trkpt><trkpt lat="44.4943367" lon="8.6035167"><ele>509.5</ele><time>2026-04-04T11:47:18.104Z</time></trkpt><trkpt lat="44.4942733" lon="8.6034417"><ele>510.0</ele><time>2026-04-04T11:47:19.103Z</time></trkpt><trkpt lat="44.4942183" lon="8.6033483"><ele>510.50000000000006</ele><time>2026-04-04T11:47:20.107Z</time></trkpt><trkpt lat="44.4942233" lon="8.6032"><ele>511.0</ele><time>2026-04-04T11:47:21.102Z</time></trkpt><trkpt lat="44.4942167" lon="8.603065"><ele>511.0</ele><time>2026-04-04T11:47:22.103Z</time></trkpt><trkpt lat="44.4942183" lon="8.60294"><ele>511.0</ele><time>2026-04-04T11:47:23.107Z</time></trkpt><trkpt lat="44.4943067" lon="8.6027667"><ele>511.0</ele><time>2026-04-04T11:47:24.104Z</time></trkpt><trkpt lat="44.4943817" lon="8.6026283"><ele>511.0</ele><time>2026-04-04T11:47:25.098Z</time></trkpt><trkpt lat="44.4944283" lon="8.6025017"><ele>510.75</ele><time>2026-04-04T11:47:26.1Z</time></trkpt><trkpt lat="44.49445" lon="8.6023567"><ele>510.5</ele><time>2026-04-04T11:47:27.1Z</time></trkpt><trkpt lat="44.4944417" lon="8.6022033"><ele>510.25</ele><time>2026-04-04T11:47:28.099Z</time></trkpt><trkpt lat="44.494445" lon="8.6020383"><ele>510.0</ele><time>2026-04-04T11:47:29.104Z</time></trkpt><trkpt lat="44.494435" lon="8.6018733"><ele>510.0</ele><time>2026-04-04T11:47:30.1Z</time></trkpt><trkpt lat="44.494435" lon="8.601715"><ele>510.0</ele><time>2026-04-04T11:47:31.101Z</time></trkpt><trkpt lat="44.4944367" lon="8.60156"><ele>510.0</ele><time>2026-04-04T11:47:32.099Z</time></trkpt><trkpt lat="44.49442" lon="8.6014217"><ele>510.0</ele><time>2026-04-04T11:47:33.101Z</time></trkpt><trkpt lat="44.4943633" lon="8.6013017"><ele>510.0</ele><time>2026-04-04T11:47:34.098Z</time></trkpt><trkpt lat="44.4942833" lon="8.6012117"><ele>509.0</ele><time>2026-04-04T11:47:35.098Z</time></trkpt><trkpt lat="44.494185" lon="8.6011533"><ele>508.0</ele><time>2026-04-04T11:47:36.105Z</time></trkpt><trkpt lat="44.4940717" lon="8.6011317"><ele>507.0</ele><time>2026-04-04T11:47:37.105Z</time></trkpt><trkpt lat="44.4939583" lon="8.6011217"><ele>506.0</ele><time>2026-04-04T11:47:38.104Z</time></trkpt><trkpt lat="44.4938617" lon="8.60111"><ele>505.0</ele><time>2026-04-04T11:47:39.102Z</time></trkpt><trkpt lat="44.4937733" lon="8.60107"><ele>508.2</ele><time>2026-04-04T11:47:40.104Z</time></trkpt><trkpt lat="44.4936983" lon="8.600995"><ele>511.4</ele><time>2026-04-04T11:47:41.1Z</time></trkpt><trkpt lat="44.4936417" lon="8.6008833"><ele>514.6</ele><time>2026-04-04T11:47:42.099Z</time></trkpt><trkpt lat="44.4936183" lon="8.6007383"><ele>517.8</ele><time>2026-04-04T11:47:43.102Z</time></trkpt><trkpt lat="44.4936" lon="8.6005767"><ele>521.0</ele><time>2026-04-04T11:47:44.103Z</time></trkpt><trkpt lat="44.4935717" lon="8.6004017"><ele>521.0</ele><time>2026-04-04T11:47:45.097Z</time></trkpt><trkpt lat="44.4935267" lon="8.6002117"><ele>521.0</ele><time>2026-04-04T11:47:46.098Z</time></trkpt><trkpt lat="44.493475" lon="8.600005"><ele>521.0</ele><time>2026-04-04T11:47:47.098Z</time></trkpt><trkpt lat="44.4934233" lon="8.5997933"><ele>521.0</ele><time>2026-04-04T11:47:48.104Z</time></trkpt><trkpt lat="44.4933633" lon="8.5995733"><ele>521.0</ele><time>2026-04-04T11:47:49.098Z</time></trkpt><trkpt lat="44.493295" lon="8.59936"><ele>521.0</ele><time>2026-04-04T11:47:50.097Z</time></trkpt><trkpt lat="44.49322" lon="8.59913"><ele>519.6666666666666</ele><time>2026-04-04T11:47:51.104Z</time></trkpt><trkpt lat="44.493145" lon="8.5988983"><ele>518.3333333333334</ele><time>2026-04-04T11:47:52.099Z</time></trkpt><trkpt lat="44.4930617" lon="8.598665"><ele>517.0</ele><time>2026-04-04T11:47:53.103Z</time></trkpt><trkpt lat="44.4929833" lon="8.5984233"><ele>525.3333333333334</ele><time>2026-04-04T11:47:54.101Z</time></trkpt><trkpt lat="44.4929117" lon="8.598185"><ele>533.6666666666666</ele><time>2026-04-04T11:47:55.105Z</time></trkpt><trkpt lat="44.4928517" lon="8.5979533"><ele>542.0</ele><time>2026-04-04T11:47:56.101Z</time></trkpt><trkpt lat="44.4928117" lon="8.597715"><ele>542.0</ele><time>2026-04-04T11:47:57.099Z</time></trkpt><trkpt lat="44.492785" lon="8.59747"><ele>542.0</ele><time>2026-04-04T11:47:58.102Z</time></trkpt><trkpt lat="44.4927583" lon="8.597235"><ele>542.0</ele><time>2026-04-04T11:47:59.102Z</time></trkpt><trkpt lat="44.4927233" lon="8.5970183"><ele>540.75</ele><time>2026-04-04T11:48:00.099Z</time></trkpt><trkpt lat="44.4926833" lon="8.5968167"><ele>539.5</ele><time>2026-04-04T11:48:01.108Z</time></trkpt><trkpt lat="44.492655" lon="8.5966217"><ele>538.25</ele><time>2026-04-04T11:48:02.102Z</time></trkpt><trkpt lat="44.492645" lon="8.59644"><ele>537.0</ele><time>2026-04-04T11:48:03.106Z</time></trkpt><trkpt lat="44.4926633" lon="8.596275"><ele>536.6</ele><time>2026-04-04T11:48:04.103Z</time></trkpt><trkpt lat="44.4927033" lon="8.5961417"><ele>536.2</ele><time>2026-04-04T11:48:05.105Z</time></trkpt><trkpt lat="44.49275" lon="8.59602"><ele>535.8</ele><time>2026-04-04T11:48:06.099Z</time></trkpt><trkpt lat="44.49279" lon="8.5959017"><ele>535.4</ele><time>2026-04-04T11:48:07.104Z</time></trkpt><trkpt lat="44.4928" lon="8.59579"><ele>535.0</ele><time>2026-04-04T11:48:08.101Z</time></trkpt><trkpt lat="44.492795" lon="8.595685"><ele>535.0</ele><time>2026-04-04T11:48:09.099Z</time></trkpt><trkpt lat="44.492735" lon="8.595595"><ele>535.0</ele><time>2026-04-04T11:48:10.101Z</time></trkpt><trkpt lat="44.4926583" lon="8.595535"><ele>535.0</ele><time>2026-04-04T11:48:11.098Z</time></trkpt><trkpt lat="44.4925733" lon="8.5954867"><ele>535.0</ele><time>2026-04-04T11:48:12.099Z</time></trkpt><trkpt lat="44.492485" lon="8.5954483"><ele>535.0</ele><time>2026-04-04T11:48:13.1Z</time></trkpt><trkpt lat="44.492395" lon="8.5954067"><ele>534.6</ele><time>2026-04-04T11:48:14.1Z</time></trkpt><trkpt lat="44.4923167" lon="8.595325"><ele>534.2</ele><time>2026-04-04T11:48:15.101Z</time></trkpt><trkpt lat="44.49226" lon="8.595205"><ele>533.8</ele><time>2026-04-04T11:48:16.1Z</time></trkpt><trkpt lat="44.4922133" lon="8.595075"><ele>533.4</ele><time>2026-04-04T11:48:17.102Z</time></trkpt><trkpt lat="44.4921733" lon="8.5949317"><ele>533.0</ele><time>2026-04-04T11:48:18.101Z</time></trkpt><trkpt lat="44.492135" lon="8.5947833"><ele>533.0</ele><time>2026-04-04T11:48:19.101Z</time></trkpt><trkpt lat="44.4920917" lon="8.5946533"><ele>533.0</ele><time>2026-04-04T11:48:20.104Z</time></trkpt><trkpt lat="44.492045" lon="8.59454"><ele>533.0</ele><time>2026-04-04T11:48:21.101Z</time></trkpt><trkpt lat="44.4919833" lon="8.5944567"><ele>533.0</ele><time>2026-04-04T11:48:22.102Z</time></trkpt><trkpt lat="44.4919167" lon="8.5943983"><ele>533.0</ele><time>2026-04-04T11:48:23.105Z</time></trkpt><trkpt lat="44.4918333" lon="8.594395"><ele>533.0</ele><time>2026-04-04T11:48:24.101Z</time></trkpt><trkpt lat="44.4917317" lon="8.594435"><ele>536.75</ele><time>2026-04-04T11:48:25.1Z</time></trkpt><trkpt lat="44.4915983" lon="8.5945133"><ele>540.5</ele><time>2026-04-04T11:48:26.102Z</time></trkpt><trkpt lat="44.4914633" lon="8.5946117"><ele>544.25</ele><time>2026-04-04T11:48:27.108Z</time></trkpt><trkpt lat="44.49134" lon="8.5946483"><ele>548.0</ele><time>2026-04-04T11:48:28.104Z</time></trkpt><trkpt lat="44.4912333" lon="8.5946483"><ele>549.0</ele><time>2026-04-04T11:48:29.105Z</time></trkpt><trkpt lat="44.4911383" lon="8.5946067"><ele>550.0</ele><time>2026-04-04T11:48:30.102Z</time></trkpt><trkpt lat="44.4910683" lon="8.5945217"><ele>551.0</ele><time>2026-04-04T11:48:31.105Z</time></trkpt><trkpt lat="44.4910033" lon="8.5944017"><ele>552.0</ele><time>2026-04-04T11:48:32.099Z</time></trkpt><trkpt lat="44.4909367" lon="8.5942767"><ele>553.0</ele><time>2026-04-04T11:48:33.1Z</time></trkpt><trkpt lat="44.490865" lon="8.59415"><ele>553.0</ele><time>2026-04-04T11:48:34.099Z</time></trkpt><trkpt lat="44.4907733" lon="8.5940433"><ele>553.0</ele><time>2026-04-04T11:48:35.102Z</time></trkpt><trkpt lat="44.4906633" lon="8.5939517"><ele>553.0</ele><time>2026-04-04T11:48:36.106Z</time></trkpt><trkpt lat="44.4905367" lon="8.5938683"><ele>553.0</ele><time>2026-04-04T11:48:37.106Z</time></trkpt><trkpt lat="44.4903983" lon="8.5938"><ele>552.6666666666667</ele><time>2026-04-04T11:48:38.104Z</time></trkpt><trkpt lat="44.49025" lon="8.5937383"><ele>552.3333333333334</ele><time>2026-04-04T11:48:39.106Z</time></trkpt><trkpt lat="44.4900967" lon="8.593685"><ele>552.0</ele><time>2026-04-04T11:48:40.105Z</time></trkpt><trkpt lat="44.489945" lon="8.5936233"><ele>552.0</ele><time>2026-04-04T11:48:41.1Z</time></trkpt><trkpt lat="44.4898017" lon="8.5935433"><ele>552.0</ele><time>2026-04-04T11:48:42.103Z</time></trkpt><trkpt lat="44.4896683" lon="8.5934333"><ele>552.0</ele><time>2026-04-04T11:48:43.104Z</time></trkpt><trkpt lat="44.4895517" lon="8.5933083"><ele>553.5</ele><time>2026-04-04T11:48:44.101Z</time></trkpt><trkpt lat="44.4894667" lon="8.59315"><ele>555.0</ele><time>2026-04-04T11:48:45.101Z</time></trkpt><trkpt lat="44.4893967" lon="8.5930033"><ele>556.5</ele><time>2026-04-04T11:48:46.102Z</time></trkpt><trkpt lat="44.489345" lon="8.59284"><ele>558.0</ele><time>2026-04-04T11:48:47.104Z</time></trkpt><trkpt lat="44.4892883" lon="8.59268"><ele>558.0</ele><time>2026-04-04T11:48:48.1Z</time></trkpt><trkpt lat="44.4892283" lon="8.5925233"><ele>558.0</ele><time>2026-04-04T11:48:49.104Z</time></trkpt><trkpt lat="44.4891417" lon="8.592395"><ele>558.0</ele><time>2026-04-04T11:48:50.102Z</time></trkpt><trkpt lat="44.4890383" lon="8.5922717"><ele>558.0</ele><time>2026-04-04T11:48:51.102Z</time></trkpt><trkpt lat="44.4889317" lon="8.5921567"><ele>558.0</ele><time>2026-04-04T11:48:52.101Z</time></trkpt><trkpt lat="44.4888217" lon="8.5920567"><ele>558.0</ele><time>2026-04-04T11:48:53.1Z</time></trkpt><trkpt lat="44.4887117" lon="8.5919933"><ele>558.0</ele><time>2026-04-04T11:48:54.101Z</time></trkpt><trkpt lat="44.488605" lon="8.5919767"><ele>558.0</ele><time>2026-04-04T11:48:55.103Z</time></trkpt><trkpt lat="44.4885017" lon="8.5919917"><ele>557.1999999999999</ele><time>2026-04-04T11:48:56.103Z</time></trkpt><trkpt lat="44.4884017" lon="8.5920283"><ele>556.4</ele><time>2026-04-04T11:48:57.102Z</time></trkpt><trkpt lat="44.4883017" lon="8.5920667"><ele>555.5999999999999</ele><time>2026-04-04T11:48:58.102Z</time></trkpt><trkpt lat="44.4882033" lon="8.5921117"><ele>554.8</ele><time>2026-04-04T11:48:59.107Z</time></trkpt><trkpt lat="44.4881083" lon="8.592145"><ele>554.0</ele><time>2026-04-04T11:49:00.1Z</time></trkpt><trkpt lat="44.4880117" lon="8.59216"><ele>553.75</ele><time>2026-04-04T11:49:01.103Z</time></trkpt><trkpt lat="44.4879033" lon="8.5921617"><ele>553.5</ele><time>2026-04-04T11:49:02.101Z</time></trkpt><trkpt lat="44.4878017" lon="8.5921"><ele>553.25</ele><time>2026-04-04T11:49:03.103Z</time></trkpt><trkpt lat="44.4877017" lon="8.592005"><ele>553.0</ele><time>2026-04-04T11:49:04.101Z</time></trkpt><trkpt lat="44.4875883" lon="8.59193"><ele>551.25</ele><time>2026-04-04T11:49:05.102Z</time></trkpt><trkpt lat="44.4874683" lon="8.5918533"><ele>549.5</ele><time>2026-04-04T11:49:06.101Z</time></trkpt><trkpt lat="44.487345" lon="8.5917783"><ele>547.75</ele><time>2026-04-04T11:49:07.101Z</time></trkpt><trkpt lat="44.4872183" lon="8.5917033"><ele>546.0</ele><time>2026-04-04T11:49:08.103Z</time></trkpt><trkpt lat="44.4870883" lon="8.5916267"><ele>546.0</ele><time>2026-04-04T11:49:09.102Z</time></trkpt><trkpt lat="44.4869533" lon="8.591545"><ele>546.0</ele><time>2026-04-04T11:49:10.104Z</time></trkpt><trkpt lat="44.4868217" lon="8.5914633"><ele>546.0</ele><time>2026-04-04T11:49:11.106Z</time></trkpt><trkpt lat="44.4867083" lon="8.591385"><ele>546.0</ele><time>2026-04-04T11:49:12.103Z</time></trkpt><trkpt lat="44.486615" lon="8.5912917"><ele>546.0</ele><time>2026-04-04T11:49:13.107Z</time></trkpt><trkpt lat="44.486535" lon="8.5911783"><ele>546.0</ele><time>2026-04-04T11:49:14.1Z</time></trkpt><trkpt lat="44.4864567" lon="8.5910467"><ele>546.0</ele><time>2026-04-04T11:49:15.101Z</time></trkpt><trkpt lat="44.4863917" lon="8.5909217"><ele>546.0</ele><time>2026-04-04T11:49:16.101Z</time></trkpt><trkpt lat="44.4863333" lon="8.5908067"><ele>546.0</ele><time>2026-04-04T11:49:17.101Z</time></trkpt><trkpt lat="44.4862583" lon="8.5907117"><ele>542.5</ele><time>2026-04-04T11:49:18.103Z</time></trkpt><trkpt lat="44.4861733" lon="8.5906267"><ele>539.0</ele><time>2026-04-04T11:49:19.102Z</time></trkpt><trkpt lat="44.48608" lon="8.5905533"><ele>535.5</ele><time>2026-04-04T11:49:20.098Z</time></trkpt><trkpt lat="44.485975" lon="8.5904817"><ele>532.0</ele><time>2026-04-04T11:49:21.1Z</time></trkpt><trkpt lat="44.485865" lon="8.5904067"><ele>531.8000000000001</ele><time>2026-04-04T11:49:22.099Z</time></trkpt><trkpt lat="44.48576" lon="8.5903383"><ele>531.6</ele><time>2026-04-04T11:49:23.098Z</time></trkpt><trkpt lat="44.48566" lon="8.5902767"><ele>531.4000000000001</ele><time>2026-04-04T11:49:24.103Z</time></trkpt><trkpt lat="44.485575" lon="8.5902033"><ele>531.2</ele><time>2026-04-04T11:49:25.1Z</time></trkpt><trkpt lat="44.4855083" lon="8.5901067"><ele>531.0</ele><time>2026-04-04T11:49:26.102Z</time></trkpt><trkpt lat="44.485455" lon="8.58998"><ele>537.0</ele><time>2026-04-04T11:49:27.1Z</time></trkpt><trkpt lat="44.48541" lon="8.589835"><ele>543.0</ele><time>2026-04-04T11:49:28.105Z</time></trkpt><trkpt lat="44.4853683" lon="8.5896817"><ele>549.0</ele><time>2026-04-04T11:49:29.102Z</time></trkpt><trkpt lat="44.485325" lon="8.5895233"><ele>555.0</ele><time>2026-04-04T11:49:30.102Z</time></trkpt><trkpt lat="44.485285" lon="8.5893567"><ele>556.75</ele><time>2026-04-04T11:49:31.109Z</time></trkpt><trkpt lat="44.4852467" lon="8.589185"><ele>558.5</ele><time>2026-04-04T11:49:32.104Z</time></trkpt><trkpt lat="44.4852167" lon="8.5890083"><ele>560.25</ele><time>2026-04-04T11:49:33.108Z</time></trkpt><trkpt lat="44.4852117" lon="8.5888183"><ele>562.0</ele><time>2026-04-04T11:49:34.11Z</time></trkpt><trkpt lat="44.48521" lon="8.588615"><ele>563.0</ele><time>2026-04-04T11:49:35.115Z</time></trkpt><trkpt lat="44.4852333" lon="8.5884217"><ele>564.0</ele><time>2026-04-04T11:49:36.102Z</time></trkpt><trkpt lat="44.4852717" lon="8.58823"><ele>565.0</ele><time>2026-04-04T11:49:37.103Z</time></trkpt><trkpt lat="44.4853233" lon="8.5880467"><ele>566.0</ele><time>2026-04-04T11:49:38.104Z</time></trkpt><trkpt lat="44.48538" lon="8.5878667"><ele>561.0</ele><time>2026-04-04T11:49:39.102Z</time></trkpt><trkpt lat="44.4854417" lon="8.5876933"><ele>556.0</ele><time>2026-04-04T11:49:40.103Z</time></trkpt><trkpt lat="44.48551" lon="8.5875267"><ele>551.0</ele><time>2026-04-04T11:49:41.099Z</time></trkpt><trkpt lat="44.4855833" lon="8.5873717"><ele>546.0</ele><time>2026-04-04T11:49:42.1Z</time></trkpt><trkpt lat="44.48566" lon="8.5872317"><ele>546.0</ele><time>2026-04-04T11:49:43.1Z</time></trkpt><trkpt lat="44.4857483" lon="8.5871"><ele>546.0</ele><time>2026-04-04T11:49:44.101Z</time></trkpt><trkpt lat="44.4858383" lon="8.5869817"><ele>546.0</ele><time>2026-04-04T11:49:45.1Z</time></trkpt><trkpt lat="44.48593" lon="8.586875"><ele>546.0</ele><time>2026-04-04T11:49:46.102Z</time></trkpt><trkpt lat="44.486015" lon="8.58678"><ele>547.4</ele><time>2026-04-04T11:49:47.102Z</time></trkpt><trkpt lat="44.4861067" lon="8.586705"><ele>548.8</ele><time>2026-04-04T11:49:48.104Z</time></trkpt><trkpt lat="44.48619" lon="8.5866583"><ele>550.1999999999999</ele><time>2026-04-04T11:49:49.106Z</time></trkpt><trkpt lat="44.4862867" lon="8.58665"><ele>551.6</ele><time>2026-04-04T11:49:50.103Z</time></trkpt><trkpt lat="44.4863783" lon="8.5866967"><ele>553.0</ele><time>2026-04-04T11:49:51.098Z</time></trkpt><trkpt lat="44.4864683" lon="8.58677"><ele>553.0</ele><time>2026-04-04T11:49:52.101Z</time></trkpt><trkpt lat="44.4865533" lon="8.5868317"><ele>553.0</ele><time>2026-04-04T11:49:53.102Z</time></trkpt><trkpt lat="44.486645" lon="8.586885"><ele>553.0</ele><time>2026-04-04T11:49:54.099Z</time></trkpt><trkpt lat="44.4867333" lon="8.5869183"><ele>553.0</ele><time>2026-04-04T11:49:55.1Z</time></trkpt><trkpt lat="44.4868233" lon="8.5869333"><ele>553.0</ele><time>2026-04-04T11:49:56.099Z</time></trkpt><trkpt lat="44.4869083" lon="8.5869383"><ele>553.0</ele><time>2026-04-04T11:49:57.105Z</time></trkpt><trkpt lat="44.487" lon="8.5869583"><ele>553.0</ele><time>2026-04-04T11:49:58.105Z</time></trkpt><trkpt lat="44.487095" lon="8.58699"><ele>553.0</ele><time>2026-04-04T11:49:59.102Z</time></trkpt><trkpt lat="44.48719" lon="8.587005"><ele>553.0</ele><time>2026-04-04T11:50:00.109Z</time></trkpt><trkpt lat="44.4872833" lon="8.587005"><ele>553.0</ele><time>2026-04-04T11:50:01.1Z</time></trkpt><trkpt lat="44.48737" lon="8.5869733"><ele>553.4</ele><time>2026-04-04T11:50:02.1Z</time></trkpt><trkpt lat="44.4874517" lon="8.5869383"><ele>553.8</ele><time>2026-04-04T11:50:03.098Z</time></trkpt><trkpt lat="44.48751" lon="8.5868983"><ele>554.2</ele><time>2026-04-04T11:50:04.102Z</time></trkpt><trkpt lat="44.487585" lon="8.5867483"><ele>554.6</ele><time>2026-04-04T11:50:06.105Z</time></trkpt><trkpt lat="44.4876083" lon="8.5866383"><ele>555.0</ele><time>2026-04-04T11:50:07.099Z</time></trkpt><trkpt lat="44.4876283" lon="8.5865083"><ele>555.0</ele><time>2026-04-04T11:50:08.1Z</time></trkpt><trkpt lat="44.4876233" lon="8.5863717"><ele>555.0</ele><time>2026-04-04T11:50:09.098Z</time></trkpt><trkpt lat="44.487605" lon="8.5862383"><ele>555.0</ele><time>2026-04-04T11:50:10.1Z</time></trkpt><trkpt lat="44.4875717" lon="8.5861267"><ele>555.0</ele><time>2026-04-04T11:50:11.102Z</time></trkpt><trkpt lat="44.4874917" lon="8.58605"><ele>555.0</ele><time>2026-04-04T11:50:12.105Z</time></trkpt><trkpt lat="44.48742" lon="8.585985"><ele>556.4</ele><time>2026-04-04T11:50:13.105Z</time></trkpt><trkpt lat="44.4873517" lon="8.585945"><ele>557.8</ele><time>2026-04-04T11:50:14.102Z</time></trkpt><trkpt lat="44.487275" lon="8.5859317"><ele>559.2</ele><time>2026-04-04T11:50:15.101Z</time></trkpt><trkpt lat="44.487195" lon="8.5859533"><ele>560.6</ele><time>2026-04-04T11:50:16.109Z</time></trkpt><trkpt lat="44.4870933" lon="8.5859933"><ele>562.0</ele><time>2026-04-04T11:50:17.1Z</time></trkpt><trkpt lat="44.486985" lon="8.5860367"><ele>563.4</ele><time>2026-04-04T11:50:18.101Z</time></trkpt><trkpt lat="44.4868767" lon="8.5860617"><ele>564.8000000000001</ele><time>2026-04-04T11:50:19.102Z</time></trkpt><trkpt lat="44.4867667" lon="8.5860933"><ele>566.2</ele><time>2026-04-04T11:50:20.103Z</time></trkpt><trkpt lat="44.48666" lon="8.586115"><ele>567.6</ele><time>2026-04-04T11:50:21.098Z</time></trkpt><trkpt lat="44.486545" lon="8.5861417"><ele>569.0</ele><time>2026-04-04T11:50:22.103Z</time></trkpt><trkpt lat="44.4864333" lon="8.5861883"><ele>568.0</ele><time>2026-04-04T11:50:23.101Z</time></trkpt><trkpt lat="44.4863267" lon="8.5862317"><ele>567.0</ele><time>2026-04-04T11:50:24.1Z</time></trkpt><trkpt lat="44.4862267" lon="8.5862667"><ele>566.0</ele><time>2026-04-04T11:50:25.099Z</time></trkpt><trkpt lat="44.4861383" lon="8.5862617"><ele>565.0</ele><time>2026-04-04T11:50:26.099Z</time></trkpt><trkpt lat="44.48606" lon="8.5862417"><ele>564.0</ele><time>2026-04-04T11:50:27.106Z</time></trkpt><trkpt lat="44.4860033" lon="8.586195"><ele>563.0</ele><time>2026-04-04T11:50:28.103Z</time></trkpt><trkpt lat="44.4860033" lon="8.5860717"><ele>564.0</ele><time>2026-04-04T11:50:29.098Z</time></trkpt><trkpt lat="44.4860167" lon="8.58597"><ele>565.0</ele><time>2026-04-04T11:50:30.1Z</time></trkpt><trkpt lat="44.4860317" lon="8.5858817"><ele>566.0</ele><time>2026-04-04T11:50:31.1Z</time></trkpt><trkpt lat="44.48608" lon="8.5858067"><ele>567.0</ele><time>2026-04-04T11:50:32.1Z</time></trkpt><trkpt lat="44.486185" lon="8.5857617"><ele>568.0</ele><time>2026-04-04T11:50:33.098Z</time></trkpt><trkpt lat="44.4863" lon="8.585735"><ele>569.0</ele><time>2026-04-04T11:50:34.103Z</time></trkpt><trkpt lat="44.486435" lon="8.585735"><ele>569.0</ele><time>2026-04-04T11:50:35.102Z</time></trkpt><trkpt lat="44.486575" lon="8.58578"><ele>569.0</ele><time>2026-04-04T11:50:36.102Z</time></trkpt><trkpt lat="44.4866867" lon="8.5857733"><ele>569.0</ele><time>2026-04-04T11:50:37.099Z</time></trkpt><trkpt lat="44.48681" lon="8.58576"><ele>569.0</ele><time>2026-04-04T11:50:38.102Z</time></trkpt><trkpt lat="44.48693" lon="8.5857283"><ele>569.0</ele><time>2026-04-04T11:50:39.101Z</time></trkpt><trkpt lat="44.4870433" lon="8.585675"><ele>569.0</ele><time>2026-04-04T11:50:40.102Z</time></trkpt><trkpt lat="44.4871567" lon="8.5856067"><ele>569.0</ele><time>2026-04-04T11:50:41.107Z</time></trkpt><trkpt lat="44.4872567" lon="8.5855183"><ele>569.0</ele><time>2026-04-04T11:50:42.106Z</time></trkpt><trkpt lat="44.48735" lon="8.5854117"><ele>571.5</ele><time>2026-04-04T11:50:43.102Z</time></trkpt><trkpt lat="44.4874433" lon="8.58531"><ele>574.0</ele><time>2026-04-04T11:50:44.104Z</time></trkpt><trkpt lat="44.48754" lon="8.585215"><ele>576.5</ele><time>2026-04-04T11:50:45.104Z</time></trkpt><trkpt lat="44.4876383" lon="8.58513"><ele>579.0</ele><time>2026-04-04T11:50:46.104Z</time></trkpt><trkpt lat="44.4877267" lon="8.5850467"><ele>579.0</ele><time>2026-04-04T11:50:47.104Z</time></trkpt><trkpt lat="44.4878083" lon="8.584955"><ele>579.0</ele><time>2026-04-04T11:50:48.103Z</time></trkpt><trkpt lat="44.4878817" lon="8.584855"><ele>579.0</ele><time>2026-04-04T11:50:49.104Z</time></trkpt><trkpt lat="44.487945" lon="8.58475"><ele>579.0</ele><time>2026-04-04T11:50:50.099Z</time></trkpt><trkpt lat="44.4880117" lon="8.5846517"><ele>579.0</ele><time>2026-04-04T11:50:51.1Z</time></trkpt><trkpt lat="44.4880833" lon="8.584575"><ele>577.8</ele><time>2026-04-04T11:50:52.099Z</time></trkpt><trkpt lat="44.4881667" lon="8.5845283"><ele>576.5999999999999</ele><time>2026-04-04T11:50:53.103Z</time></trkpt><trkpt lat="44.4882633" lon="8.5845117"><ele>575.4</ele><time>2026-04-04T11:50:54.104Z</time></trkpt><trkpt lat="44.48837" lon="8.5845283"><ele>574.1999999999999</ele><time>2026-04-04T11:50:55.102Z</time></trkpt><trkpt lat="44.488485" lon="8.5845617"><ele>573.0</ele><time>2026-04-04T11:50:56.101Z</time></trkpt><trkpt lat="44.4886" lon="8.5846133"><ele>573.0</ele><time>2026-04-04T11:50:57.1Z</time></trkpt><trkpt lat="44.4887" lon="8.5846833"><ele>573.0</ele><time>2026-04-04T11:50:58.102Z</time></trkpt><trkpt lat="44.4887883" lon="8.5847483"><ele>573.0</ele><time>2026-04-04T11:50:59.11Z</time></trkpt><trkpt lat="44.4888533" lon="8.5848517"><ele>573.0</ele><time>2026-04-04T11:51:00.101Z</time></trkpt><trkpt lat="44.4888933" lon="8.5849717"><ele>573.0</ele><time>2026-04-04T11:51:01.107Z</time></trkpt><trkpt lat="44.4889083" lon="8.5851033"><ele>576.5</ele><time>2026-04-04T11:51:02.099Z</time></trkpt><trkpt lat="44.48893" lon="8.585245"><ele>580.0</ele><time>2026-04-04T11:51:03.104Z</time></trkpt><trkpt lat="44.4889633" lon="8.58539"><ele>583.5</ele><time>2026-04-04T11:51:04.103Z</time></trkpt><trkpt lat="44.489015" lon="8.5855467"><ele>587.0</ele><time>2026-04-04T11:51:05.1Z</time></trkpt><trkpt lat="44.4890783" lon="8.5857133"><ele>587.0</ele><time>2026-04-04T11:51:06.102Z</time></trkpt><trkpt lat="44.4891467" lon="8.5858833"><ele>587.0</ele><time>2026-04-04T11:51:07.101Z</time></trkpt><trkpt lat="44.4892117" lon="8.5860517"><ele>587.0</ele><time>2026-04-04T11:51:08.101Z</time></trkpt><trkpt lat="44.489265" lon="8.586225"><ele>587.0</ele><time>2026-04-04T11:51:09.099Z</time></trkpt><trkpt lat="44.4893067" lon="8.5863867"><ele>588.2</ele><time>2026-04-04T11:51:10.111Z</time></trkpt><trkpt lat="44.48935" lon="8.5865283"><ele>589.4000000000001</ele><time>2026-04-04T11:51:11.099Z</time></trkpt><trkpt lat="44.4893933" lon="8.58665"><ele>590.5999999999999</ele><time>2026-04-04T11:51:12.1Z</time></trkpt><trkpt lat="44.48945" lon="8.5867417"><ele>591.8</ele><time>2026-04-04T11:51:13.101Z</time></trkpt><trkpt lat="44.4895167" lon="8.58682"><ele>593.0</ele><time>2026-04-04T11:51:14.1Z</time></trkpt><trkpt lat="44.489595" lon="8.58688"><ele>593.0</ele><time>2026-04-04T11:51:15.101Z</time></trkpt><trkpt lat="44.4896867" lon="8.5868767"><ele>593.0</ele><time>2026-04-04T11:51:16.099Z</time></trkpt><trkpt lat="44.4897817" lon="8.5868517"><ele>593.0</ele><time>2026-04-04T11:51:17.104Z</time></trkpt><trkpt lat="44.4898733" lon="8.5868083"><ele>593.0</ele><time>2026-04-04T11:51:18.102Z</time></trkpt><trkpt lat="44.4899783" lon="8.586725"><ele>593.0</ele><time>2026-04-04T11:51:19.101Z</time></trkpt><trkpt lat="44.49008" lon="8.586675"><ele>593.0</ele><time>2026-04-04T11:51:20.103Z</time></trkpt><trkpt lat="44.4901783" lon="8.58667"><ele>593.0</ele><time>2026-04-04T11:51:21.099Z</time></trkpt><trkpt lat="44.4902783" lon="8.5866767"><ele>593.0</ele><time>2026-04-04T11:51:22.1Z</time></trkpt><trkpt lat="44.49038" lon="8.5867067"><ele>593.0</ele><time>2026-04-04T11:51:23.101Z</time></trkpt><trkpt lat="44.4904783" lon="8.5867333"><ele>593.0</ele><time>2026-04-04T11:51:24.101Z</time></trkpt><trkpt lat="44.4905667" lon="8.586745"><ele>593.1999999999999</ele><time>2026-04-04T11:51:25.106Z</time></trkpt><trkpt lat="44.4906617" lon="8.5867317"><ele>593.4</ele><time>2026-04-04T11:51:26.105Z</time></trkpt><trkpt lat="44.49073" lon="8.5866983"><ele>593.5999999999999</ele><time>2026-04-04T11:51:27.099Z</time></trkpt><trkpt lat="44.4908" lon="8.586645"><ele>593.8</ele><time>2026-04-04T11:51:28.102Z</time></trkpt><trkpt lat="44.49086" lon="8.586525"><ele>594.0</ele><time>2026-04-04T11:51:29.105Z</time></trkpt><trkpt lat="44.4909283" lon="8.5864167"><ele>594.0</ele><time>2026-04-04T11:51:30.102Z</time></trkpt><trkpt lat="44.4910133" lon="8.586315"><ele>594.0</ele><time>2026-04-04T11:51:31.104Z</time></trkpt><trkpt lat="44.4910933" lon="8.5862"><ele>594.0</ele><time>2026-04-04T11:51:32.099Z</time></trkpt><trkpt lat="44.491175" lon="8.5860617"><ele>594.0</ele><time>2026-04-04T11:51:33.102Z</time></trkpt><trkpt lat="44.491245" lon="8.58592"><ele>595.25</ele><time>2026-04-04T11:51:34.103Z</time></trkpt><trkpt lat="44.491315" lon="8.5857817"><ele>596.5</ele><time>2026-04-04T11:51:35.1Z</time></trkpt><trkpt lat="44.49139" lon="8.58566"><ele>597.75</ele><time>2026-04-04T11:51:36.111Z</time></trkpt><trkpt lat="44.491485" lon="8.5855583"><ele>599.0</ele><time>2026-04-04T11:51:37.099Z</time></trkpt><trkpt lat="44.49159" lon="8.5854767"><ele>599.0</ele><time>2026-04-04T11:51:38.099Z</time></trkpt><trkpt lat="44.491715" lon="8.5854033"><ele>599.0</ele><time>2026-04-04T11:51:39.099Z</time></trkpt><trkpt lat="44.4918417" lon="8.585345"><ele>599.0</ele><time>2026-04-04T11:51:40.1Z</time></trkpt><trkpt lat="44.4919583" lon="8.5853067"><ele>599.0</ele><time>2026-04-04T11:51:41.099Z</time></trkpt><trkpt lat="44.4920633" lon="8.5852867"><ele>600.0</ele><time>2026-04-04T11:51:42.1Z</time></trkpt><trkpt lat="44.49217" lon="8.5853133"><ele>601.0</ele><time>2026-04-04T11:51:43.099Z</time></trkpt><trkpt lat="44.49227" lon="8.58537"><ele>602.0</ele><time>2026-04-04T11:51:44.102Z</time></trkpt><trkpt lat="44.4923733" lon="8.58547"><ele>603.0</ele><time>2026-04-04T11:51:45.103Z</time></trkpt><trkpt lat="44.4924883" lon="8.585585"><ele>603.0</ele><time>2026-04-04T11:51:46.101Z</time></trkpt><trkpt lat="44.492605" lon="8.5857017"><ele>603.0</ele><time>2026-04-04T11:51:47.102Z</time></trkpt><trkpt lat="44.4927317" lon="8.5858267"><ele>603.0</ele><time>2026-04-04T11:51:48.102Z</time></trkpt><trkpt lat="44.4928667" lon="8.5859283"><ele>604.3333333333334</ele><time>2026-04-04T11:51:49.1Z</time></trkpt><trkpt lat="44.4930033" lon="8.5860383"><ele>605.6666666666667</ele><time>2026-04-04T11:51:50.101Z</time></trkpt><trkpt lat="44.4931333" lon="8.58616"><ele>607.0</ele><time>2026-04-04T11:51:51.1Z</time></trkpt><trkpt lat="44.4932617" lon="8.5862867"><ele>607.0</ele><time>2026-04-04T11:51:52.101Z</time></trkpt><trkpt lat="44.493385" lon="8.5864183"><ele>607.0</ele><time>2026-04-04T11:51:53.103Z</time></trkpt><trkpt lat="44.4935067" lon="8.5865517"><ele>607.0</ele><time>2026-04-04T11:51:54.1Z</time></trkpt><trkpt lat="44.4936233" lon="8.5866817"><ele>607.0</ele><time>2026-04-04T11:51:55.101Z</time></trkpt><trkpt lat="44.4937267" lon="8.5868133"><ele>607.0</ele><time>2026-04-04T11:51:56.099Z</time></trkpt><trkpt lat="44.4938083" lon="8.5869617"><ele>607.0</ele><time>2026-04-04T11:51:57.108Z</time></trkpt><trkpt lat="44.49386" lon="8.5871183"><ele>607.0</ele><time>2026-04-04T11:51:58.101Z</time></trkpt><trkpt lat="44.4938917" lon="8.5872683"><ele>607.6</ele><time>2026-04-04T11:51:59.1Z</time></trkpt><trkpt lat="44.4939233" lon="8.5874283"><ele>608.2</ele><time>2026-04-04T11:52:00.1Z</time></trkpt><trkpt lat="44.493965" lon="8.5875767"><ele>608.8</ele><time>2026-04-04T11:52:01.1Z</time></trkpt><trkpt lat="44.4940067" lon="8.5877183"><ele>609.4</ele><time>2026-04-04T11:52:02.101Z</time></trkpt><trkpt lat="44.4940667" lon="8.587805"><ele>610.0</ele><time>2026-04-04T11:52:03.1Z</time></trkpt><trkpt lat="44.4941417" lon="8.5878517"><ele>610.8</ele><time>2026-04-04T11:52:04.101Z</time></trkpt><trkpt lat="44.4942317" lon="8.587815"><ele>611.6</ele><time>2026-04-04T11:52:05.102Z</time></trkpt><trkpt lat="44.4943033" lon="8.5877267"><ele>612.4</ele><time>2026-04-04T11:52:06.103Z</time></trkpt><trkpt lat="44.4943533" lon="8.58764"><ele>613.2</ele><time>2026-04-04T11:52:07.106Z</time></trkpt><trkpt lat="44.4943883" lon="8.5875317"><ele>614.0</ele><time>2026-04-04T11:52:08.104Z</time></trkpt><trkpt lat="44.4943633" lon="8.5873533"><ele>614.0</ele><time>2026-04-04T11:52:09.106Z</time></trkpt><trkpt lat="44.4943433" lon="8.5871767"><ele>614.0</ele><time>2026-04-04T11:52:10.102Z</time></trkpt><trkpt lat="44.4943183" lon="8.5870083"><ele>614.0</ele><time>2026-04-04T11:52:11.104Z</time></trkpt><trkpt lat="44.4942833" lon="8.58684"><ele>614.0</ele><time>2026-04-04T11:52:12.106Z</time></trkpt><trkpt lat="44.4942317" lon="8.5866817"><ele>616.25</ele><time>2026-04-04T11:52:13.101Z</time></trkpt><trkpt lat="44.49414" lon="8.5865483"><ele>618.5</ele><time>2026-04-04T11:52:14.1Z</time></trkpt><trkpt lat="44.49404" lon="8.586455"><ele>620.75</ele><time>2026-04-04T11:52:15.101Z</time></trkpt><trkpt lat="44.4939433" lon="8.586365"><ele>623.0</ele><time>2026-04-04T11:52:16.105Z</time></trkpt><trkpt lat="44.4938483" lon="8.5862783"><ele>623.0</ele><time>2026-04-04T11:52:17.1Z</time></trkpt><trkpt lat="44.4937717" lon="8.58618"><ele>623.0</ele><time>2026-04-04T11:52:18.1Z</time></trkpt><trkpt lat="44.4937133" lon="8.5860617"><ele>623.0</ele><time>2026-04-04T11:52:19.099Z</time></trkpt><trkpt lat="44.493675" lon="8.585935"><ele>623.0</ele><time>2026-04-04T11:52:20.104Z</time></trkpt><trkpt lat="44.4936667" lon="8.5857733"><ele>623.0</ele><time>2026-04-04T11:52:21.101Z</time></trkpt><trkpt lat="44.493695" lon="8.5856133"><ele>622.0</ele><time>2026-04-04T11:52:22.101Z</time></trkpt><trkpt lat="44.4937217" lon="8.5854517"><ele>621.0</ele><time>2026-04-04T11:52:23.098Z</time></trkpt><trkpt lat="44.4937633" lon="8.5853017"><ele>620.0</ele><time>2026-04-04T11:52:24.1Z</time></trkpt><trkpt lat="44.4937867" lon="8.58515"><ele>619.0</ele><time>2026-04-04T11:52:25.103Z</time></trkpt><trkpt lat="44.4937883" lon="8.5850167"><ele>618.0</ele><time>2026-04-04T11:52:26.102Z</time></trkpt><trkpt lat="44.4937567" lon="8.5849017"><ele>620.25</ele><time>2026-04-04T11:52:27.098Z</time></trkpt><trkpt lat="44.493705" lon="8.58479"><ele>622.5</ele><time>2026-04-04T11:52:28.104Z</time></trkpt><trkpt lat="44.4936083" lon="8.5846967"><ele>624.75</ele><time>2026-04-04T11:52:29.103Z</time></trkpt><trkpt lat="44.4935117" lon="8.5845883"><ele>627.0</ele><time>2026-04-04T11:52:30.104Z</time></trkpt><trkpt lat="44.493415" lon="8.5844633"><ele>629.0</ele><time>2026-04-04T11:52:31.104Z</time></trkpt><trkpt lat="44.493325" lon="8.5843333"><ele>631.0</ele><time>2026-04-04T11:52:32.099Z</time></trkpt><trkpt lat="44.49324" lon="8.5842017"><ele>633.0</ele><time>2026-04-04T11:52:33.102Z</time></trkpt><trkpt lat="44.4931583" lon="8.5840733"><ele>635.0</ele><time>2026-04-04T11:52:34.101Z</time></trkpt><trkpt lat="44.4930767" lon="8.5839617"><ele>635.0</ele><time>2026-04-04T11:52:35.102Z</time></trkpt><trkpt lat="44.4930017" lon="8.5838633"><ele>635.0</ele><time>2026-04-04T11:52:36.099Z</time></trkpt><trkpt lat="44.49291" lon="8.583815"><ele>635.0</ele><time>2026-04-04T11:52:37.11Z</time></trkpt><trkpt lat="44.4928117" lon="8.5837883"><ele>635.0</ele><time>2026-04-04T11:52:38.099Z</time></trkpt><trkpt lat="44.4927117" lon="8.583785"><ele>635.0</ele><time>2026-04-04T11:52:39.107Z</time></trkpt><trkpt lat="44.4926" lon="8.5837867"><ele>634.6</ele><time>2026-04-04T11:52:40.102Z</time></trkpt><trkpt lat="44.492495" lon="8.5837567"><ele>634.2</ele><time>2026-04-04T11:52:41.102Z</time></trkpt><trkpt lat="44.4924017" lon="8.583705"><ele>633.8</ele><time>2026-04-04T11:52:42.102Z</time></trkpt><trkpt lat="44.492325" lon="8.583655"><ele>633.4</ele><time>2026-04-04T11:52:43.099Z</time></trkpt><trkpt lat="44.4922533" lon="8.5835917"><ele>633.0</ele><time>2026-04-04T11:52:44.097Z</time></trkpt><trkpt lat="44.4921983" lon="8.5834983"><ele>636.2</ele><time>2026-04-04T11:52:45.102Z</time></trkpt><trkpt lat="44.492135" lon="8.58341"><ele>639.4</ele><time>2026-04-04T11:52:46.106Z</time></trkpt><trkpt lat="44.4920683" lon="8.5833067"><ele>642.6</ele><time>2026-04-04T11:52:47.101Z</time></trkpt><trkpt lat="44.49201" lon="8.5831717"><ele>645.8000000000001</ele><time>2026-04-04T11:52:48.099Z</time></trkpt><trkpt lat="44.4919367" lon="8.58307"><ele>649.0</ele><time>2026-04-04T11:52:49.101Z</time></trkpt><trkpt lat="44.49184" lon="8.5829817"><ele>649.0</ele><time>2026-04-04T11:52:50.103Z</time></trkpt><trkpt lat="44.4917133" lon="8.582965"><ele>649.0</ele><time>2026-04-04T11:52:51.101Z</time></trkpt><trkpt lat="44.4916" lon="8.5829283"><ele>649.0</ele><time>2026-04-04T11:52:52.1Z</time></trkpt><trkpt lat="44.49147" lon="8.5829367"><ele>649.0</ele><time>2026-04-04T11:52:53.098Z</time></trkpt><trkpt lat="44.4913567" lon="8.5829233"><ele>649.25</ele><time>2026-04-04T11:52:54.103Z</time></trkpt><trkpt lat="44.4912417" lon="8.5829083"><ele>649.5</ele><time>2026-04-04T11:52:55.1Z</time></trkpt><trkpt lat="44.4911217" lon="8.5828917"><ele>649.75</ele><time>2026-04-04T11:52:56.104Z</time></trkpt><trkpt lat="44.4910083" lon="8.5828667"><ele>650.0</ele><time>2026-04-04T11:52:57.106Z</time></trkpt><trkpt lat="44.4908883" lon="8.5828483"><ele>652.0</ele><time>2026-04-04T11:52:58.104Z</time></trkpt><trkpt lat="44.4907717" lon="8.5828417"><ele>654.0</ele><time>2026-04-04T11:52:59.101Z</time></trkpt><trkpt lat="44.4906633" lon="8.58284"><ele>656.0</ele><time>2026-04-04T11:53:00.105Z</time></trkpt><trkpt lat="44.49056" lon="8.5828333"><ele>658.0</ele><time>2026-04-04T11:53:01.101Z</time></trkpt><trkpt lat="44.490455" lon="8.5828217"><ele>660.0</ele><time>2026-04-04T11:53:02.099Z</time></trkpt><trkpt lat="44.4903517" lon="8.5827933"><ele>660.0</ele><time>2026-04-04T11:53:03.101Z</time></trkpt><trkpt lat="44.4902467" lon="8.58276"><ele>660.0</ele><time>2026-04-04T11:53:04.101Z</time></trkpt><trkpt lat="44.4901433" lon="8.5827183"><ele>660.0</ele><time>2026-04-04T11:53:05.098Z</time></trkpt><trkpt lat="44.490045" lon="8.582685"><ele>660.0</ele><time>2026-04-04T11:53:06.1Z</time></trkpt><trkpt lat="44.4899533" lon="8.5826417"><ele>660.0</ele><time>2026-04-04T11:53:07.1Z</time></trkpt><trkpt lat="44.48987" lon="8.58258"><ele>660.0</ele><time>2026-04-04T11:53:08.097Z</time></trkpt><trkpt lat="44.4897983" lon="8.5824933"><ele>660.0</ele><time>2026-04-04T11:53:09.107Z</time></trkpt><trkpt lat="44.4897383" lon="8.5823883"><ele>660.0</ele><time>2026-04-04T11:53:10.1Z</time></trkpt><trkpt lat="44.489675" lon="8.58228"><ele>660.0</ele><time>2026-04-04T11:53:11.104Z</time></trkpt><trkpt lat="44.4896283" lon="8.5821633"><ele>660.0</ele><time>2026-04-04T11:53:12.111Z</time></trkpt><trkpt lat="44.4895883" lon="8.5820583"><ele>660.6666666666666</ele><time>2026-04-04T11:53:13.102Z</time></trkpt><trkpt lat="44.4895617" lon="8.5819683"><ele>661.3333333333334</ele><time>2026-04-04T11:53:14.103Z</time></trkpt><trkpt lat="44.4895217" lon="8.5819"><ele>662.0</ele><time>2026-04-04T11:53:15.098Z</time></trkpt><trkpt lat="44.4894" lon="8.5818317"><ele>662.6666666666667</ele><time>2026-04-04T11:53:17.102Z</time></trkpt><trkpt lat="44.4893283" lon="8.58182"><ele>663.3333333333334</ele><time>2026-04-04T11:53:18.1Z</time></trkpt><trkpt lat="44.4892583" lon="8.5818233"><ele>664.0</ele><time>2026-04-04T11:53:19.103Z</time></trkpt><trkpt lat="44.48919" lon="8.5818283"><ele>664.0</ele><time>2026-04-04T11:53:20.101Z</time></trkpt><trkpt lat="44.4891217" lon="8.5818217"><ele>664.0</ele><time>2026-04-04T11:53:21.101Z</time></trkpt><trkpt lat="44.4890567" lon="8.5818083"><ele>664.0</ele><time>2026-04-04T11:53:22.103Z</time></trkpt><trkpt lat="44.488995" lon="8.5817683"><ele>664.0</ele><time>2026-04-04T11:53:23.1Z</time></trkpt><trkpt lat="44.48894" lon="8.5817067"><ele>664.0</ele><time>2026-04-04T11:53:24.101Z</time></trkpt><trkpt lat="44.4888967" lon="8.5816317"><ele>664.0</ele><time>2026-04-04T11:53:25.103Z</time></trkpt><trkpt lat="44.488865" lon="8.5815233"><ele>664.0</ele><time>2026-04-04T11:53:26.098Z</time></trkpt><trkpt lat="44.488855" lon="8.5813733"><ele>664.0</ele><time>2026-04-04T11:53:27.101Z</time></trkpt><trkpt lat="44.4888617" lon="8.581205"><ele>664.0</ele><time>2026-04-04T11:53:28.101Z</time></trkpt><trkpt lat="44.4888767" lon="8.58105"><ele>664.0</ele><time>2026-04-04T11:53:29.102Z</time></trkpt><trkpt lat="44.4889483" lon="8.5808833"><ele>664.0</ele><time>2026-04-04T11:53:30.101Z</time></trkpt><trkpt lat="44.48895" lon="8.5807217"><ele>664.25</ele><time>2026-04-04T11:53:31.1Z</time></trkpt><trkpt lat="44.488935" lon="8.580555"><ele>664.5</ele><time>2026-04-04T11:53:32.101Z</time></trkpt><trkpt lat="44.48892" lon="8.5803967"><ele>664.75</ele><time>2026-04-04T11:53:33.099Z</time></trkpt><trkpt lat="44.4889183" lon="8.5802383"><ele>665.0</ele><time>2026-04-04T11:53:34.099Z</time></trkpt><trkpt lat="44.48893" lon="8.5800883"><ele>665.0</ele><time>2026-04-04T11:53:35.103Z</time></trkpt><trkpt lat="44.4889367" lon="8.5799467"><ele>665.0</ele><time>2026-04-04T11:53:36.101Z</time></trkpt><trkpt lat="44.4889683" lon="8.5797967"><ele>665.0</ele><time>2026-04-04T11:53:37.109Z</time></trkpt><trkpt lat="44.4890117" lon="8.5796583"><ele>665.0</ele><time>2026-04-04T11:53:38.1Z</time></trkpt><trkpt lat="44.4890767" lon="8.5795267"><ele>665.0</ele><time>2026-04-04T11:53:39.1Z</time></trkpt><trkpt lat="44.4891533" lon="8.579395"><ele>665.8</ele><time>2026-04-04T11:53:40.101Z</time></trkpt><trkpt lat="44.4892467" lon="8.5792817"><ele>666.6</ele><time>2026-04-04T11:53:41.104Z</time></trkpt><trkpt lat="44.4893283" lon="8.5791967"><ele>667.4000000000001</ele><time>2026-04-04T11:53:42.105Z</time></trkpt><trkpt lat="44.4894117" lon="8.5791167"><ele>668.2</ele><time>2026-04-04T11:53:43.102Z</time></trkpt><trkpt lat="44.48949" lon="8.579045"><ele>669.0</ele><time>2026-04-04T11:53:44.098Z</time></trkpt><trkpt lat="44.489565" lon="8.578965"><ele>668.6</ele><time>2026-04-04T11:53:45.1Z</time></trkpt><trkpt lat="44.4896367" lon="8.5788817"><ele>668.2</ele><time>2026-04-04T11:53:46.1Z</time></trkpt><trkpt lat="44.4896967" lon="8.5787867"><ele>667.8000000000001</ele><time>2026-04-04T11:53:47.104Z</time></trkpt><trkpt lat="44.4897417" lon="8.57867"><ele>667.4000000000001</ele><time>2026-04-04T11:53:48.1Z</time></trkpt><trkpt lat="44.4897633" lon="8.578535"><ele>667.0</ele><time>2026-04-04T11:53:49.103Z</time></trkpt><trkpt lat="44.4897683" lon="8.578385"><ele>667.0</ele><time>2026-04-04T11:53:50.101Z</time></trkpt><trkpt lat="44.4897483" lon="8.5782333"><ele>667.0</ele><time>2026-04-04T11:53:51.099Z</time></trkpt><trkpt lat="44.4896983" lon="8.57809"><ele>667.0</ele><time>2026-04-04T11:53:52.101Z</time></trkpt><trkpt lat="44.4896283" lon="8.577965"><ele>667.0</ele><time>2026-04-04T11:53:53.101Z</time></trkpt><trkpt lat="44.4895417" lon="8.5778433"><ele>668.25</ele><time>2026-04-04T11:53:54.099Z</time></trkpt><trkpt lat="44.4894417" lon="8.5777333"><ele>669.5</ele><time>2026-04-04T11:53:55.102Z</time></trkpt><trkpt lat="44.4893317" lon="8.57762"><ele>670.75</ele><time>2026-04-04T11:53:56.108Z</time></trkpt><trkpt lat="44.4892133" lon="8.5775083"><ele>672.0</ele><time>2026-04-04T11:53:57.1Z</time></trkpt><trkpt lat="44.4890617" lon="8.5773883"><ele>672.0</ele><time>2026-04-04T11:53:58.101Z</time></trkpt><trkpt lat="44.488885" lon="8.57726"><ele>672.0</ele><time>2026-04-04T11:53:59.102Z</time></trkpt><trkpt lat="44.48871" lon="8.5771367"><ele>672.0</ele><time>2026-04-04T11:54:00.101Z</time></trkpt><trkpt lat="44.488545" lon="8.5770317"><ele>673.0</ele><time>2026-04-04T11:54:01.104Z</time></trkpt><trkpt lat="44.4883917" lon="8.5769567"><ele>674.0</ele><time>2026-04-04T11:54:02.106Z</time></trkpt><trkpt lat="44.48824" lon="8.576915"><ele>675.0</ele><time>2026-04-04T11:54:03.106Z</time></trkpt><trkpt lat="44.48809" lon="8.5769083"><ele>675.0</ele><time>2026-04-04T11:54:04.103Z</time></trkpt><trkpt lat="44.487945" lon="8.5769533"><ele>675.0</ele><time>2026-04-04T11:54:05.102Z</time></trkpt><trkpt lat="44.4878117" lon="8.5770333"><ele>675.0</ele><time>2026-04-04T11:54:06.1Z</time></trkpt><trkpt lat="44.48768" lon="8.5771367"><ele>675.0</ele><time>2026-04-04T11:54:07.101Z</time></trkpt><trkpt lat="44.487555" lon="8.5772517"><ele>678.0</ele><time>2026-04-04T11:54:08.104Z</time></trkpt><trkpt lat="44.487425" lon="8.5773533"><ele>681.0</ele><time>2026-04-04T11:54:09.102Z</time></trkpt><trkpt lat="44.4872883" lon="8.5774333"><ele>684.0</ele><time>2026-04-04T11:54:10.102Z</time></trkpt><trkpt lat="44.48715" lon="8.5775117"><ele>687.0</ele><time>2026-04-04T11:54:11.104Z</time></trkpt><trkpt lat="44.4870067" lon="8.577575"><ele>687.5</ele><time>2026-04-04T11:54:12.099Z</time></trkpt><trkpt lat="44.4868633" lon="8.5775983"><ele>688.0</ele><time>2026-04-04T11:54:13.105Z</time></trkpt><trkpt lat="44.486715" lon="8.5776133"><ele>688.5</ele><time>2026-04-04T11:54:14.099Z</time></trkpt><trkpt lat="44.486565" lon="8.5776317"><ele>689.0</ele><time>2026-04-04T11:54:15.098Z</time></trkpt><trkpt lat="44.48643" lon="8.5776333"><ele>689.0</ele><time>2026-04-04T11:54:16.1Z</time></trkpt><trkpt lat="44.4863133" lon="8.5776483"><ele>689.0</ele><time>2026-04-04T11:54:17.104Z</time></trkpt><trkpt lat="44.486215" lon="8.57765"><ele>689.0</ele><time>2026-04-04T11:54:18.103Z</time></trkpt><trkpt lat="44.486135" lon="8.5776067"><ele>689.0</ele><time>2026-04-04T11:54:19.102Z</time></trkpt><trkpt lat="44.48607" lon="8.5775383"><ele>689.0</ele><time>2026-04-04T11:54:20.101Z</time></trkpt><trkpt lat="44.486045" lon="8.5774467"><ele>689.8333333333333</ele><time>2026-04-04T11:54:21.103Z</time></trkpt><trkpt lat="44.4860233" lon="8.5773583"><ele>690.6666666666666</ele><time>2026-04-04T11:54:22.102Z</time></trkpt><trkpt lat="44.4860117" lon="8.5772667"><ele>691.5</ele><time>2026-04-04T11:54:23.103Z</time></trkpt><trkpt lat="44.4860267" lon="8.577175"><ele>692.3333333333334</ele><time>2026-04-04T11:54:24.102Z</time></trkpt><trkpt lat="44.48608" lon="8.577105"><ele>693.1666666666667</ele><time>2026-04-04T11:54:25.103Z</time></trkpt><trkpt lat="44.4861483" lon="8.5770417"><ele>694.0</ele><time>2026-04-04T11:54:26.099Z</time></trkpt><trkpt lat="44.4862533" lon="8.576975"><ele>693.75</ele><time>2026-04-04T11:54:27.102Z</time></trkpt><trkpt lat="44.48638" lon="8.5769083"><ele>693.5</ele><time>2026-04-04T11:54:28.104Z</time></trkpt><trkpt lat="44.48651" lon="8.576825"><ele>693.25</ele><time>2026-04-04T11:54:29.103Z</time></trkpt><trkpt lat="44.4866017" lon="8.5767267"><ele>693.0</ele><time>2026-04-04T11:54:30.107Z</time></trkpt><trkpt lat="44.4866717" lon="8.5766033"><ele>693.0</ele><time>2026-04-04T11:54:31.103Z</time></trkpt><trkpt lat="44.486725" lon="8.576455"><ele>693.0</ele><time>2026-04-04T11:54:32.1Z</time></trkpt><trkpt lat="44.48675" lon="8.5763017"><ele>693.0</ele><time>2026-04-04T11:54:33.104Z</time></trkpt><trkpt lat="44.48673" lon="8.5761533"><ele>693.0</ele><time>2026-04-04T11:54:34.102Z</time></trkpt><trkpt lat="44.4866883" lon="8.576015"><ele>693.0</ele><time>2026-04-04T11:54:35.102Z</time></trkpt><trkpt lat="44.48661" lon="8.5758967"><ele>693.25</ele><time>2026-04-04T11:54:36.103Z</time></trkpt><trkpt lat="44.4865083" lon="8.5758317"><ele>693.5</ele><time>2026-04-04T11:54:37.113Z</time></trkpt><trkpt lat="44.4863933" lon="8.57581"><ele>693.75</ele><time>2026-04-04T11:54:38.1Z</time></trkpt><trkpt lat="44.48627" lon="8.575815"><ele>694.0</ele><time>2026-04-04T11:54:39.102Z</time></trkpt><trkpt lat="44.4861317" lon="8.57584"><ele>695.6666666666667</ele><time>2026-04-04T11:54:40.099Z</time></trkpt><trkpt lat="44.485985" lon="8.575865"><ele>697.3333333333334</ele><time>2026-04-04T11:54:41.1Z</time></trkpt><trkpt lat="44.485835" lon="8.5758833"><ele>699.0</ele><time>2026-04-04T11:54:42.108Z</time></trkpt><trkpt lat="44.4856783" lon="8.5758983"><ele>699.0</ele><time>2026-04-04T11:54:43.102Z</time></trkpt><trkpt lat="44.4855217" lon="8.5758783"><ele>699.0</ele><time>2026-04-04T11:54:44.103Z</time></trkpt><trkpt lat="44.4853717" lon="8.5758533"><ele>699.0</ele><time>2026-04-04T11:54:45.102Z</time></trkpt><trkpt lat="44.4852283" lon="8.5758083"><ele>702.25</ele><time>2026-04-04T11:54:46.101Z</time></trkpt><trkpt lat="44.48509" lon="8.5757433"><ele>705.5</ele><time>2026-04-04T11:54:47.11Z</time></trkpt><trkpt lat="44.4849617" lon="8.57564"><ele>708.75</ele><time>2026-04-04T11:54:48.104Z</time></trkpt><trkpt lat="44.4848467" lon="8.5755217"><ele>712.0</ele><time>2026-04-04T11:54:49.106Z</time></trkpt><trkpt lat="44.4847383" lon="8.57541"><ele>710.75</ele><time>2026-04-04T11:54:50.102Z</time></trkpt><trkpt lat="44.48464" lon="8.57529"><ele>709.5</ele><time>2026-04-04T11:54:51.109Z</time></trkpt><trkpt lat="44.4845433" lon="8.5751717"><ele>708.25</ele><time>2026-04-04T11:54:52.108Z</time></trkpt><trkpt lat="44.48446" lon="8.575065"><ele>707.0</ele><time>2026-04-04T11:54:53.109Z</time></trkpt><trkpt lat="44.4844783" lon="8.57489"><ele>709.25</ele><time>2026-04-04T11:54:54.106Z</time></trkpt><trkpt lat="44.4845233" lon="8.574735"><ele>711.5</ele><time>2026-04-04T11:54:55.108Z</time></trkpt><trkpt lat="44.4845833" lon="8.574605"><ele>713.75</ele><time>2026-04-04T11:54:56.108Z</time></trkpt><trkpt lat="44.4846783" lon="8.57449"><ele>716.0</ele><time>2026-04-04T11:54:57.1Z</time></trkpt><trkpt lat="44.4847667" lon="8.5743633"><ele>716.0</ele><time>2026-04-04T11:54:58.106Z</time></trkpt><trkpt lat="44.4848217" lon="8.5742167"><ele>716.0</ele><time>2026-04-04T11:54:59.099Z</time></trkpt><trkpt lat="44.48486" lon="8.5740533"><ele>716.0</ele><time>2026-04-04T11:55:00.103Z</time></trkpt><trkpt lat="44.4848733" lon="8.5738767"><ele>716.0</ele><time>2026-04-04T11:55:01.1Z</time></trkpt><trkpt lat="44.48485" lon="8.57371"><ele>717.0</ele><time>2026-04-04T11:55:02.1Z</time></trkpt><trkpt lat="44.4848" lon="8.5735533"><ele>718.0</ele><time>2026-04-04T11:55:03.1Z</time></trkpt><trkpt lat="44.484775" lon="8.5733933"><ele>719.0</ele><time>2026-04-04T11:55:04.102Z</time></trkpt><trkpt lat="44.4847133" lon="8.5732383"><ele>720.0</ele><time>2026-04-04T11:55:05.104Z</time></trkpt><trkpt lat="44.4846417" lon="8.5730833"><ele>720.0</ele><time>2026-04-04T11:55:06.099Z</time></trkpt><trkpt lat="44.4846" lon="8.57292"><ele>720.0</ele><time>2026-04-04T11:55:07.101Z</time></trkpt><trkpt lat="44.4845733" lon="8.5727467"><ele>720.0</ele><time>2026-04-04T11:55:08.101Z</time></trkpt><trkpt lat="44.484585" lon="8.572575"><ele>720.0</ele><time>2026-04-04T11:55:09.102Z</time></trkpt><trkpt lat="44.4846" lon="8.5723983"><ele>720.75</ele><time>2026-04-04T11:55:10.104Z</time></trkpt><trkpt lat="44.484625" lon="8.5721983"><ele>721.5</ele><time>2026-04-04T11:55:11.108Z</time></trkpt><trkpt lat="44.4846517" lon="8.572015"><ele>722.25</ele><time>2026-04-04T11:55:12.106Z</time></trkpt><trkpt lat="44.484675" lon="8.57184"><ele>723.0</ele><time>2026-04-04T11:55:13.101Z</time></trkpt><trkpt lat="44.4846883" lon="8.571665"><ele>723.2</ele><time>2026-04-04T11:55:14.101Z</time></trkpt><trkpt lat="44.4846717" lon="8.571515"><ele>723.4</ele><time>2026-04-04T11:55:15.101Z</time></trkpt><trkpt lat="44.484625" lon="8.571415"><ele>723.6</ele><time>2026-04-04T11:55:16.105Z</time></trkpt><trkpt lat="44.4845683" lon="8.571325"><ele>723.8000000000001</ele><time>2026-04-04T11:55:17.101Z</time></trkpt><trkpt lat="44.4844783" lon="8.5712633"><ele>724.0</ele><time>2026-04-04T11:55:18.107Z</time></trkpt><trkpt lat="44.4843717" lon="8.57122"><ele>724.0</ele><time>2026-04-04T11:55:19.105Z</time></trkpt><trkpt lat="44.4842433" lon="8.5711867"><ele>724.0</ele><time>2026-04-04T11:55:20.097Z</time></trkpt><trkpt lat="44.48411" lon="8.5711417"><ele>724.0</ele><time>2026-04-04T11:55:21.105Z</time></trkpt><trkpt lat="44.4839833" lon="8.5711"><ele>724.0</ele><time>2026-04-04T11:55:22.105Z</time></trkpt><trkpt lat="44.4838683" lon="8.571045"><ele>724.0</ele><time>2026-04-04T11:55:23.105Z</time></trkpt><trkpt lat="44.48377" lon="8.57099"><ele>724.0</ele><time>2026-04-04T11:55:24.105Z</time></trkpt><trkpt lat="44.48369" lon="8.5709233"><ele>724.0</ele><time>2026-04-04T11:55:25.102Z</time></trkpt><trkpt lat="44.48364" lon="8.5708417"><ele>724.0</ele><time>2026-04-04T11:55:26.102Z</time></trkpt><trkpt lat="44.4836217" lon="8.5707517"><ele>724.0</ele><time>2026-04-04T11:55:27.098Z</time></trkpt><trkpt lat="44.483625" lon="8.5706467"><ele>724.0</ele><time>2026-04-04T11:55:28.102Z</time></trkpt><trkpt lat="44.4836333" lon="8.57053"><ele>729.25</ele><time>2026-04-04T11:55:29.102Z</time></trkpt><trkpt lat="44.4836517" lon="8.5703933"><ele>734.5</ele><time>2026-04-04T11:55:30.099Z</time></trkpt><trkpt lat="44.483675" lon="8.5702017"><ele>739.75</ele><time>2026-04-04T11:55:31.105Z</time></trkpt><trkpt lat="44.4836883" lon="8.5700133"><ele>745.0</ele><time>2026-04-04T11:55:32.102Z</time></trkpt><trkpt lat="44.4836717" lon="8.5698317"><ele>745.0</ele><time>2026-04-04T11:55:33.1Z</time></trkpt><trkpt lat="44.4836283" lon="8.5696517"><ele>745.0</ele><time>2026-04-04T11:55:34.103Z</time></trkpt><trkpt lat="44.48357" lon="8.5694867"><ele>745.0</ele><time>2026-04-04T11:55:35.102Z</time></trkpt><trkpt lat="44.4835217" lon="8.5693167"><ele>745.0</ele><time>2026-04-04T11:55:36.104Z</time></trkpt><trkpt lat="44.4834933" lon="8.5691333"><ele>744.0</ele><time>2026-04-04T11:55:37.103Z</time></trkpt><trkpt lat="44.48345" lon="8.5689617"><ele>743.0</ele><time>2026-04-04T11:55:38.105Z</time></trkpt><trkpt lat="44.483385" lon="8.5688017"><ele>742.0</ele><time>2026-04-04T11:55:39.1Z</time></trkpt><trkpt lat="44.48331" lon="8.5686533"><ele>741.0</ele><time>2026-04-04T11:55:40.1Z</time></trkpt><trkpt lat="44.4832433" lon="8.5685267"><ele>740.8333333333334</ele><time>2026-04-04T11:55:41.1Z</time></trkpt><trkpt lat="44.483205" lon="8.56841"><ele>740.6666666666666</ele><time>2026-04-04T11:55:42.1Z</time></trkpt><trkpt lat="44.48318" lon="8.5683017"><ele>740.5</ele><time>2026-04-04T11:55:43.101Z</time></trkpt><trkpt lat="44.4831917" lon="8.5682033"><ele>740.3333333333333</ele><time>2026-04-04T11:55:44.1Z</time></trkpt><trkpt lat="44.483235" lon="8.5681283"><ele>740.1666666666666</ele><time>2026-04-04T11:55:45.103Z</time></trkpt><trkpt lat="44.483355" lon="8.5681017"><ele>740.0</ele><time>2026-04-04T11:55:46.099Z</time></trkpt><trkpt lat="44.4834733" lon="8.568075"><ele>740.0</ele><time>2026-04-04T11:55:47.099Z</time></trkpt><trkpt lat="44.4835783" lon="8.56804"><ele>740.0</ele><time>2026-04-04T11:55:48.097Z</time></trkpt><trkpt lat="44.4836817" lon="8.56798"><ele>740.0</ele><time>2026-04-04T11:55:49.102Z</time></trkpt><trkpt lat="44.4837733" lon="8.56789"><ele>740.0</ele><time>2026-04-04T11:55:50.102Z</time></trkpt><trkpt lat="44.483845" lon="8.5677767"><ele>740.0</ele><time>2026-04-04T11:55:51.102Z</time></trkpt><trkpt lat="44.48388" lon="8.5676467"><ele>739.6</ele><time>2026-04-04T11:55:52.103Z</time></trkpt><trkpt lat="44.4838767" lon="8.5675117"><ele>739.2</ele><time>2026-04-04T11:55:53.104Z</time></trkpt><trkpt lat="44.4838517" lon="8.5673633"><ele>738.8</ele><time>2026-04-04T11:55:54.102Z</time></trkpt><trkpt lat="44.48383" lon="8.567205"><ele>738.4</ele><time>2026-04-04T11:55:55.103Z</time></trkpt><trkpt lat="44.4838083" lon="8.5670367"><ele>738.0</ele><time>2026-04-04T11:55:56.103Z</time></trkpt><trkpt lat="44.483795" lon="8.5668633"><ele>738.0</ele><time>2026-04-04T11:55:57.1Z</time></trkpt><trkpt lat="44.4837983" lon="8.5666917"><ele>738.0</ele><time>2026-04-04T11:55:58.103Z</time></trkpt><trkpt lat="44.4838083" lon="8.56653"><ele>738.0</ele><time>2026-04-04T11:55:59.102Z</time></trkpt><trkpt lat="44.4838217" lon="8.5663683"><ele>738.0</ele><time>2026-04-04T11:56:00.106Z</time></trkpt><trkpt lat="44.4838017" lon="8.5662033"><ele>741.5</ele><time>2026-04-04T11:56:01.099Z</time></trkpt><trkpt lat="44.4837617" lon="8.566045"><ele>745.0</ele><time>2026-04-04T11:56:02.106Z</time></trkpt><trkpt lat="44.4837033" lon="8.565885"><ele>748.5</ele><time>2026-04-04T11:56:03.11Z</time></trkpt><trkpt lat="44.4836483" lon="8.5657267"><ele>752.0</ele><time>2026-04-04T11:56:04.102Z</time></trkpt><trkpt lat="44.4836017" lon="8.565565"><ele>752.0</ele><time>2026-04-04T11:56:05.101Z</time></trkpt><trkpt lat="44.4835583" lon="8.5654067"><ele>752.0</ele><time>2026-04-04T11:56:06.099Z</time></trkpt><trkpt lat="44.4835217" lon="8.565255"><ele>752.0</ele><time>2026-04-04T11:56:07.102Z</time></trkpt><trkpt lat="44.4834967" lon="8.5651033"><ele>752.0</ele><time>2026-04-04T11:56:08.1Z</time></trkpt><trkpt lat="44.483465" lon="8.5649567"><ele>750.25</ele><time>2026-04-04T11:56:09.104Z</time></trkpt><trkpt lat="44.4834083" lon="8.5648283"><ele>748.5</ele><time>2026-04-04T11:56:10.1Z</time></trkpt><trkpt lat="44.483335" lon="8.5647417"><ele>746.75</ele><time>2026-04-04T11:56:11.099Z</time></trkpt><trkpt lat="44.4832317" lon="8.5646683"><ele>745.0</ele><time>2026-04-04T11:56:12.101Z</time></trkpt><trkpt lat="44.4831017" lon="8.5646067"><ele>745.0</ele><time>2026-04-04T11:56:13.1Z</time></trkpt><trkpt lat="44.48297" lon="8.56454"><ele>745.0</ele><time>2026-04-04T11:56:14.102Z</time></trkpt><trkpt lat="44.4828283" lon="8.5644983"><ele>745.0</ele><time>2026-04-04T11:56:15.101Z</time></trkpt><trkpt lat="44.482695" lon="8.5644617"><ele>745.0</ele><time>2026-04-04T11:56:16.103Z</time></trkpt><trkpt lat="44.4825717" lon="8.5644083"><ele>744.25</ele><time>2026-04-04T11:56:17.103Z</time></trkpt><trkpt lat="44.4824717" lon="8.5643167"><ele>743.5</ele><time>2026-04-04T11:56:18.106Z</time></trkpt><trkpt lat="44.4823717" lon="8.5642117"><ele>742.75</ele><time>2026-04-04T11:56:19.101Z</time></trkpt><trkpt lat="44.4822717" lon="8.5640917"><ele>742.0</ele><time>2026-04-04T11:56:20.105Z</time></trkpt><trkpt lat="44.48218" lon="8.5639483"><ele>743.25</ele><time>2026-04-04T11:56:21.102Z</time></trkpt><trkpt lat="44.482085" lon="8.5637917"><ele>744.5</ele><time>2026-04-04T11:56:22.106Z</time></trkpt><trkpt lat="44.4819933" lon="8.5636383"><ele>745.75</ele><time>2026-04-04T11:56:23.102Z</time></trkpt><trkpt lat="44.4819133" lon="8.5634783"><ele>747.0</ele><time>2026-04-04T11:56:24.107Z</time></trkpt><trkpt lat="44.4818517" lon="8.5633333"><ele>747.0</ele><time>2026-04-04T11:56:25.102Z</time></trkpt><trkpt lat="44.4817883" lon="8.56321"><ele>747.0</ele><time>2026-04-04T11:56:26.104Z</time></trkpt><trkpt lat="44.4817567" lon="8.5630617"><ele>747.0</ele><time>2026-04-04T11:56:27.101Z</time></trkpt><trkpt lat="44.4817483" lon="8.5628983"><ele>747.0</ele><time>2026-04-04T11:56:28.099Z</time></trkpt><trkpt lat="44.481775" lon="8.5627317"><ele>748.0</ele><time>2026-04-04T11:56:29.104Z</time></trkpt><trkpt lat="44.4818133" lon="8.5625933"><ele>749.0</ele><time>2026-04-04T11:56:30.102Z</time></trkpt><trkpt lat="44.4818817" lon="8.5624733"><ele>750.0</ele><time>2026-04-04T11:56:31.1Z</time></trkpt><trkpt lat="44.4819717" lon="8.5623583"><ele>751.0</ele><time>2026-04-04T11:56:32.101Z</time></trkpt><trkpt lat="44.482075" lon="8.56225"><ele>747.5</ele><time>2026-04-04T11:56:33.099Z</time></trkpt><trkpt lat="44.48217" lon="8.5621283"><ele>744.0</ele><time>2026-04-04T11:56:34.104Z</time></trkpt><trkpt lat="44.482255" lon="8.5619817"><ele>740.5</ele><time>2026-04-04T11:56:35.101Z</time></trkpt><trkpt lat="44.482315" lon="8.56183"><ele>737.0</ele><time>2026-04-04T11:56:36.102Z</time></trkpt><trkpt lat="44.4823683" lon="8.5616617"><ele>737.0</ele><time>2026-04-04T11:56:37.103Z</time></trkpt><trkpt lat="44.4824167" lon="8.5614733"><ele>737.0</ele><time>2026-04-04T11:56:38.1Z</time></trkpt><trkpt lat="44.482455" lon="8.5612817"><ele>737.0</ele><time>2026-04-04T11:56:39.1Z</time></trkpt><trkpt lat="44.4824783" lon="8.5610783"><ele>737.0</ele><time>2026-04-04T11:56:40.104Z</time></trkpt><trkpt lat="44.4824917" lon="8.5608617"><ele>738.25</ele><time>2026-04-04T11:56:41.102Z</time></trkpt><trkpt lat="44.4824833" lon="8.5606567"><ele>739.5</ele><time>2026-04-04T11:56:42.102Z</time></trkpt><trkpt lat="44.4824833" lon="8.5604483"><ele>740.75</ele><time>2026-04-04T11:56:43.102Z</time></trkpt><trkpt lat="44.4824917" lon="8.5602433"><ele>742.0</ele><time>2026-04-04T11:56:44.103Z</time></trkpt><trkpt lat="44.4825133" lon="8.56004"><ele>742.0</ele><time>2026-04-04T11:56:45.104Z</time></trkpt><trkpt lat="44.48255" lon="8.5598467"><ele>742.0</ele><time>2026-04-04T11:56:46.101Z</time></trkpt><trkpt lat="44.4825867" lon="8.5596683"><ele>742.0</ele><time>2026-04-04T11:56:47.105Z</time></trkpt><trkpt lat="44.4826267" lon="8.5595133"><ele>742.0</ele><time>2026-04-04T11:56:48.103Z</time></trkpt><trkpt lat="44.4826783" lon="8.5593783"><ele>743.0</ele><time>2026-04-04T11:56:49.102Z</time></trkpt><trkpt lat="44.4827383" lon="8.5592633"><ele>744.0</ele><time>2026-04-04T11:56:50.102Z</time></trkpt><trkpt lat="44.4828017" lon="8.5591467"><ele>745.0</ele><time>2026-04-04T11:56:51.1Z</time></trkpt><trkpt lat="44.4828467" lon="8.5590033"><ele>746.0</ele><time>2026-04-04T11:56:52.105Z</time></trkpt><trkpt lat="44.4828983" lon="8.5588417"><ele>747.0</ele><time>2026-04-04T11:56:53.104Z</time></trkpt><trkpt lat="44.4829367" lon="8.5586667"><ele>741.25</ele><time>2026-04-04T11:56:54.1Z</time></trkpt><trkpt lat="44.4829517" lon="8.5584933"><ele>735.5</ele><time>2026-04-04T11:56:55.1Z</time></trkpt><trkpt lat="44.4829767" lon="8.5583317"><ele>729.75</ele><time>2026-04-04T11:56:56.1Z</time></trkpt><trkpt lat="44.48296" lon="8.5581467"><ele>724.0</ele><time>2026-04-04T11:56:57.102Z</time></trkpt><trkpt lat="44.4829383" lon="8.557965"><ele>729.0</ele><time>2026-04-04T11:56:58.104Z</time></trkpt><trkpt lat="44.48293" lon="8.5577867"><ele>734.0</ele><time>2026-04-04T11:56:59.099Z</time></trkpt><trkpt lat="44.482915" lon="8.5576117"><ele>739.0</ele><time>2026-04-04T11:57:00.101Z</time></trkpt><trkpt lat="44.4829017" lon="8.5574417"><ele>744.0</ele><time>2026-04-04T11:57:01.101Z</time></trkpt><trkpt lat="44.482905" lon="8.5572767"><ele>737.8000000000001</ele><time>2026-04-04T11:57:02.101Z</time></trkpt><trkpt lat="44.4829383" lon="8.55713"><ele>731.6</ele><time>2026-04-04T11:57:03.104Z</time></trkpt><trkpt lat="44.4829867" lon="8.556995"><ele>725.4</ele><time>2026-04-04T11:57:04.101Z</time></trkpt><trkpt lat="44.4830233" lon="8.556855"><ele>719.2</ele><time>2026-04-04T11:57:05.107Z</time></trkpt><trkpt lat="44.48303" lon="8.5567183"><ele>713.0</ele><time>2026-04-04T11:57:06.107Z</time></trkpt><trkpt lat="44.4829933" lon="8.5566167"><ele>711.4</ele><time>2026-04-04T11:57:07.106Z</time></trkpt><trkpt lat="44.4829633" lon="8.5565267"><ele>709.8</ele><time>2026-04-04T11:57:08.102Z</time></trkpt><trkpt lat="44.4828983" lon="8.556455"><ele>708.2</ele><time>2026-04-04T11:57:09.102Z</time></trkpt><trkpt lat="44.4828017" lon="8.5564267"><ele>706.6</ele><time>2026-04-04T11:57:10.105Z</time></trkpt><trkpt lat="44.4826983" lon="8.5563917"><ele>705.0</ele><time>2026-04-04T11:57:11.104Z</time></trkpt><trkpt lat="44.4825683" lon="8.5564083"><ele>710.25</ele><time>2026-04-04T11:57:12.107Z</time></trkpt><trkpt lat="44.4824167" lon="8.5564117"><ele>715.5</ele><time>2026-04-04T11:57:13.103Z</time></trkpt><trkpt lat="44.4822817" lon="8.556375"><ele>720.75</ele><time>2026-04-04T11:57:14.1Z</time></trkpt><trkpt lat="44.48215" lon="8.55633"><ele>726.0</ele><time>2026-04-04T11:57:15.101Z</time></trkpt><trkpt lat="44.4820217" lon="8.5562933"><ele>728.0</ele><time>2026-04-04T11:57:16.099Z</time></trkpt><trkpt lat="44.4819133" lon="8.5562567"><ele>730.0</ele><time>2026-04-04T11:57:17.102Z</time></trkpt><trkpt lat="44.481815" lon="8.5562167"><ele>732.0</ele><time>2026-04-04T11:57:18.104Z</time></trkpt><trkpt lat="44.4817283" lon="8.5561517"><ele>734.0</ele><time>2026-04-04T11:57:19.101Z</time></trkpt><trkpt lat="44.481655" lon="8.5560883"><ele>736.0</ele><time>2026-04-04T11:57:20.101Z</time></trkpt><trkpt lat="44.4815933" lon="8.5559983"><ele>732.0</ele><time>2026-04-04T11:57:21.1Z</time></trkpt><trkpt lat="44.4815367" lon="8.5559067"><ele>728.0</ele><time>2026-04-04T11:57:22.098Z</time></trkpt><trkpt lat="44.4814817" lon="8.55581"><ele>724.0</ele><time>2026-04-04T11:57:23.1Z</time></trkpt><trkpt lat="44.4814467" lon="8.55568"><ele>720.0</ele><time>2026-04-04T11:57:24.101Z</time></trkpt><trkpt lat="44.481485" lon="8.555455"><ele>716.0</ele><time>2026-04-04T11:57:25.104Z</time></trkpt><trkpt lat="44.4815283" lon="8.55524"><ele>714.3333333333333</ele><time>2026-04-04T11:57:26.105Z</time></trkpt><trkpt lat="44.481575" lon="8.55504"><ele>712.6666666666666</ele><time>2026-04-04T11:57:27.105Z</time></trkpt><trkpt lat="44.4816433" lon="8.5548333"><ele>711.0</ele><time>2026-04-04T11:57:28.104Z</time></trkpt><trkpt lat="44.4817133" lon="8.55466"><ele>707.3333333333334</ele><time>2026-04-04T11:57:29.102Z</time></trkpt><trkpt lat="44.4818333" lon="8.5544767"><ele>703.6666666666667</ele><time>2026-04-04T11:57:30.099Z</time></trkpt><trkpt lat="44.4819833" lon="8.5543567"><ele>700.0</ele><time>2026-04-04T11:57:31.1Z</time></trkpt><trkpt lat="44.482175" lon="8.5542267"><ele>700.0</ele><time>2026-04-04T11:57:32.099Z</time></trkpt><trkpt lat="44.4823417" lon="8.55412"><ele>700.0</ele><time>2026-04-04T11:57:33.101Z</time></trkpt><trkpt lat="44.4824733" lon="8.5539833"><ele>700.0</ele><time>2026-04-04T11:57:34.099Z</time></trkpt><trkpt lat="44.4825667" lon="8.5538467"><ele>700.0</ele><time>2026-04-04T11:57:35.109Z</time></trkpt><trkpt lat="44.48267" lon="8.5537067"><ele>700.0</ele><time>2026-04-04T11:57:36.101Z</time></trkpt><trkpt lat="44.4827717" lon="8.5535867"><ele>700.0</ele><time>2026-04-04T11:57:37.103Z</time></trkpt><trkpt lat="44.482895" lon="8.5534917"><ele>700.0</ele><time>2026-04-04T11:57:38.099Z</time></trkpt><trkpt lat="44.4830183" lon="8.5534117"><ele>698.5</ele><time>2026-04-04T11:57:39.098Z</time></trkpt><trkpt lat="44.48315" lon="8.5533433"><ele>697.0</ele><time>2026-04-04T11:57:40.102Z</time></trkpt><trkpt lat="44.4832667" lon="8.553265"><ele>695.5</ele><time>2026-04-04T11:57:41.1Z</time></trkpt><trkpt lat="44.48337" lon="8.5531783"><ele>694.0</ele><time>2026-04-04T11:57:42.101Z</time></trkpt><trkpt lat="44.4834683" lon="8.553065"><ele>694.0</ele><time>2026-04-04T11:57:43.102Z</time></trkpt><trkpt lat="44.4835483" lon="8.5529533"><ele>694.0</ele><time>2026-04-04T11:57:44.105Z</time></trkpt><trkpt lat="44.4836367" lon="8.5528567"><ele>694.0</ele><time>2026-04-04T11:57:45.099Z</time></trkpt><trkpt lat="44.4837217" lon="8.552775"><ele>694.0</ele><time>2026-04-04T11:57:46.101Z</time></trkpt><trkpt lat="44.48379" lon="8.55268"><ele>694.0</ele><time>2026-04-04T11:57:47.101Z</time></trkpt><trkpt lat="44.4838233" lon="8.5525783"><ele>691.0</ele><time>2026-04-04T11:57:48.104Z</time></trkpt><trkpt lat="44.483835" lon="8.552445"><ele>688.0</ele><time>2026-04-04T11:57:49.104Z</time></trkpt><trkpt lat="44.483845" lon="8.552315"><ele>685.0</ele><time>2026-04-04T11:57:50.106Z</time></trkpt><trkpt lat="44.4838667" lon="8.5521817"><ele>682.0</ele><time>2026-04-04T11:57:51.104Z</time></trkpt><trkpt lat="44.483895" lon="8.55206"><ele>679.0</ele><time>2026-04-04T11:57:52.105Z</time></trkpt><trkpt lat="44.4839117" lon="8.5519333"><ele>679.0</ele><time>2026-04-04T11:57:53.101Z</time></trkpt><trkpt lat="44.4839067" lon="8.551795"><ele>679.0</ele><time>2026-04-04T11:57:54.101Z</time></trkpt><trkpt lat="44.4838817" lon="8.5516433"><ele>679.0</ele><time>2026-04-04T11:57:55.1Z</time></trkpt><trkpt lat="44.4838517" lon="8.5514883"><ele>679.0</ele><time>2026-04-04T11:57:56.101Z</time></trkpt><trkpt lat="44.4838117" lon="8.5513367"><ele>679.0</ele><time>2026-04-04T11:57:57.103Z</time></trkpt><trkpt lat="44.4837633" lon="8.5511933"><ele>680.2</ele><time>2026-04-04T11:57:58.1Z</time></trkpt><trkpt lat="44.4837117" lon="8.551055"><ele>681.4000000000001</ele><time>2026-04-04T11:57:59.102Z</time></trkpt><trkpt lat="44.48364" lon="8.5509517"><ele>682.6</ele><time>2026-04-04T11:58:00.1Z</time></trkpt><trkpt lat="44.48354" lon="8.5508683"><ele>683.8</ele><time>2026-04-04T11:58:01.104Z</time></trkpt><trkpt lat="44.483455" lon="8.5507917"><ele>685.0</ele><time>2026-04-04T11:58:02.098Z</time></trkpt><trkpt lat="44.483365" lon="8.5507283"><ele>685.0</ele><time>2026-04-04T11:58:03.102Z</time></trkpt><trkpt lat="44.4832317" lon="8.5507033"><ele>685.0</ele><time>2026-04-04T11:58:04.104Z</time></trkpt><trkpt lat="44.4830783" lon="8.5507067"><ele>685.0</ele><time>2026-04-04T11:58:05.104Z</time></trkpt><trkpt lat="44.4829383" lon="8.5506933"><ele>685.0</ele><time>2026-04-04T11:58:06.106Z</time></trkpt><trkpt lat="44.482795" lon="8.5506717"><ele>685.5</ele><time>2026-04-04T11:58:07.1Z</time></trkpt><trkpt lat="44.4826667" lon="8.5506367"><ele>686.0</ele><time>2026-04-04T11:58:08.101Z</time></trkpt><trkpt lat="44.4825383" lon="8.55062"><ele>686.5</ele><time>2026-04-04T11:58:09.099Z</time></trkpt><trkpt lat="44.4824117" lon="8.5506333"><ele>687.0</ele><time>2026-04-04T11:58:10.101Z</time></trkpt><trkpt lat="44.4822917" lon="8.550645"><ele>687.0</ele><time>2026-04-04T11:58:11.099Z</time></trkpt><trkpt lat="44.482165" lon="8.5506683"><ele>687.0</ele><time>2026-04-04T11:58:12.107Z</time></trkpt><trkpt lat="44.4820333" lon="8.55069"><ele>687.0</ele><time>2026-04-04T11:58:13.107Z</time></trkpt><trkpt lat="44.4819167" lon="8.5507383"><ele>687.0</ele><time>2026-04-04T11:58:14.105Z</time></trkpt><trkpt lat="44.4818067" lon="8.5507967"><ele>685.25</ele><time>2026-04-04T11:58:15.102Z</time></trkpt><trkpt lat="44.4816983" lon="8.5508767"><ele>683.5</ele><time>2026-04-04T11:58:16.1Z</time></trkpt><trkpt lat="44.4815867" lon="8.550965"><ele>681.75</ele><time>2026-04-04T11:58:17.102Z</time></trkpt><trkpt lat="44.481465" lon="8.551035"><ele>680.0</ele><time>2026-04-04T11:58:18.102Z</time></trkpt><trkpt lat="44.4813517" lon="8.5511167"><ele>686.0</ele><time>2026-04-04T11:58:19.108Z</time></trkpt><trkpt lat="44.4812533" lon="8.55121"><ele>692.0</ele><time>2026-04-04T11:58:20.105Z</time></trkpt><trkpt lat="44.48115" lon="8.5512833"><ele>698.0</ele><time>2026-04-04T11:58:21.104Z</time></trkpt><trkpt lat="44.4810517" lon="8.551335"><ele>704.0</ele><time>2026-04-04T11:58:22.101Z</time></trkpt><trkpt lat="44.4809433" lon="8.5513767"><ele>704.0</ele><time>2026-04-04T11:58:23.1Z</time></trkpt><trkpt lat="44.4807917" lon="8.5513617"><ele>704.0</ele><time>2026-04-04T11:58:24.102Z</time></trkpt><trkpt lat="44.480655" lon="8.5513217"><ele>704.0</ele><time>2026-04-04T11:58:25.101Z</time></trkpt><trkpt lat="44.4805333" lon="8.5512633"><ele>704.0</ele><time>2026-04-04T11:58:26.104Z</time></trkpt><trkpt lat="44.4804267" lon="8.5511917"><ele>701.0</ele><time>2026-04-04T11:58:27.102Z</time></trkpt><trkpt lat="44.4803333" lon="8.5510917"><ele>698.0</ele><time>2026-04-04T11:58:28.102Z</time></trkpt><trkpt lat="44.480285" lon="8.5509917"><ele>695.0</ele><time>2026-04-04T11:58:29.102Z</time></trkpt><trkpt lat="44.4802333" lon="8.5508883"><ele>692.0</ele><time>2026-04-04T11:58:30.105Z</time></trkpt><trkpt lat="44.4801967" lon="8.55076"><ele>689.0</ele><time>2026-04-04T11:58:31.101Z</time></trkpt><trkpt lat="44.480165" lon="8.5506483"><ele>689.0</ele><time>2026-04-04T11:58:32.103Z</time></trkpt><trkpt lat="44.4801633" lon="8.5505267"><ele>689.0</ele><time>2026-04-04T11:58:33.103Z</time></trkpt><trkpt lat="44.4801533" lon="8.550415"><ele>689.0</ele><time>2026-04-04T11:58:34.105Z</time></trkpt><trkpt lat="44.4802233" lon="8.550335"><ele>689.0</ele><time>2026-04-04T11:58:35.107Z</time></trkpt><trkpt lat="44.480295" lon="8.5503033"><ele>689.0</ele><time>2026-04-04T11:58:36.103Z</time></trkpt><trkpt lat="44.4803433" lon="8.5502367"><ele>689.0</ele><time>2026-04-04T11:58:37.104Z</time></trkpt><trkpt lat="44.4805617" lon="8.5503133"><ele>688.5</ele><time>2026-04-04T11:58:38.104Z</time></trkpt><trkpt lat="44.4806967" lon="8.5503183"><ele>688.0</ele><time>2026-04-04T11:58:39.101Z</time></trkpt><trkpt lat="44.4808383" lon="8.5503433"><ele>687.5</ele><time>2026-04-04T11:58:40.106Z</time></trkpt><trkpt lat="44.4809517" lon="8.5503267"><ele>687.0</ele><time>2026-04-04T11:58:41.1Z</time></trkpt><trkpt lat="44.4810533" lon="8.5502933"><ele>687.0</ele><time>2026-04-04T11:58:42.103Z</time></trkpt><trkpt lat="44.48116" lon="8.5502317"><ele>687.0</ele><time>2026-04-04T11:58:43.107Z</time></trkpt><trkpt lat="44.4812567" lon="8.5501383"><ele>687.0</ele><time>2026-04-04T11:58:44.1Z</time></trkpt><trkpt lat="44.481355" lon="8.5500417"><ele>687.0</ele><time>2026-04-04T11:58:45.101Z</time></trkpt><trkpt lat="44.481445" lon="8.5499283"><ele>687.6</ele><time>2026-04-04T11:58:46.099Z</time></trkpt><trkpt lat="44.481525" lon="8.5498133"><ele>688.2</ele><time>2026-04-04T11:58:47.108Z</time></trkpt><trkpt lat="44.4815983" lon="8.54969"><ele>688.8</ele><time>2026-04-04T11:58:48.101Z</time></trkpt><trkpt lat="44.481655" lon="8.5495733"><ele>689.4</ele><time>2026-04-04T11:58:49.102Z</time></trkpt><trkpt lat="44.4817033" lon="8.54945"><ele>690.0</ele><time>2026-04-04T11:58:50.103Z</time></trkpt><trkpt lat="44.481765" lon="8.5493633"><ele>690.0</ele><time>2026-04-04T11:58:51.103Z</time></trkpt><trkpt lat="44.481815" lon="8.5492833"><ele>690.0</ele><time>2026-04-04T11:58:52.1Z</time></trkpt><trkpt lat="44.4818817" lon="8.5492217"><ele>690.0</ele><time>2026-04-04T11:58:53.104Z</time></trkpt><trkpt lat="44.4819733" lon="8.5491733"><ele>690.0</ele><time>2026-04-04T11:58:54.103Z</time></trkpt><trkpt lat="44.4820783" lon="8.54915"><ele>690.0</ele><time>2026-04-04T11:58:55.103Z</time></trkpt><trkpt lat="44.4821667" lon="8.5491033"><ele>687.75</ele><time>2026-04-04T11:58:56.101Z</time></trkpt><trkpt lat="44.4822833" lon="8.5490633"><ele>685.5</ele><time>2026-04-04T11:58:57.103Z</time></trkpt><trkpt lat="44.4824117" lon="8.5490233"><ele>683.25</ele><time>2026-04-04T11:58:58.105Z</time></trkpt><trkpt lat="44.4825483" lon="8.5490133"><ele>681.0</ele><time>2026-04-04T11:58:59.101Z</time></trkpt><trkpt lat="44.4827033" lon="8.549055"><ele>681.0</ele><time>2026-04-04T11:59:00.107Z</time></trkpt><trkpt lat="44.4828467" lon="8.5490933"><ele>681.0</ele><time>2026-04-04T11:59:01.102Z</time></trkpt><trkpt lat="44.482975" lon="8.5491017"><ele>681.0</ele><time>2026-04-04T11:59:02.105Z</time></trkpt><trkpt lat="44.4830917" lon="8.5491"><ele>681.0</ele><time>2026-04-04T11:59:03.108Z</time></trkpt><trkpt lat="44.4832383" lon="8.5491367"><ele>679.0</ele><time>2026-04-04T11:59:04.1Z</time></trkpt><trkpt lat="44.48338" lon="8.54911"><ele>677.0</ele><time>2026-04-04T11:59:05.1Z</time></trkpt><trkpt lat="44.4835" lon="8.54906"><ele>675.0</ele><time>2026-04-04T11:59:06.101Z</time></trkpt><trkpt lat="44.4836183" lon="8.5489917"><ele>673.0</ele><time>2026-04-04T11:59:07.103Z</time></trkpt><trkpt lat="44.4837233" lon="8.5488967"><ele>674.0</ele><time>2026-04-04T11:59:08.104Z</time></trkpt><trkpt lat="44.483785" lon="8.54876"><ele>675.0</ele><time>2026-04-04T11:59:09.1Z</time></trkpt><trkpt lat="44.4838133" lon="8.5486283"><ele>676.0</ele><time>2026-04-04T11:59:10.1Z</time></trkpt><trkpt lat="44.483825" lon="8.5485"><ele>677.0</ele><time>2026-04-04T11:59:11.103Z</time></trkpt><trkpt lat="44.483805" lon="8.5483583"><ele>678.0</ele><time>2026-04-04T11:59:12.102Z</time></trkpt><trkpt lat="44.4837433" lon="8.5482117"><ele>678.0</ele><time>2026-04-04T11:59:13.101Z</time></trkpt><trkpt lat="44.48366" lon="8.5480567"><ele>678.0</ele><time>2026-04-04T11:59:14.1Z</time></trkpt><trkpt lat="44.4835817" lon="8.5478983"><ele>678.0</ele><time>2026-04-04T11:59:15.102Z</time></trkpt><trkpt lat="44.4834917" lon="8.54775"><ele>678.0</ele><time>2026-04-04T11:59:16.102Z</time></trkpt><trkpt lat="44.4834017" lon="8.5475833"><ele>674.75</ele><time>2026-04-04T11:59:17.103Z</time></trkpt><trkpt lat="44.4833033" lon="8.5474317"><ele>671.5</ele><time>2026-04-04T11:59:18.1Z</time></trkpt><trkpt lat="44.4832017" lon="8.5473017"><ele>668.25</ele><time>2026-04-04T11:59:19.106Z</time></trkpt><trkpt lat="44.4830967" lon="8.5471967"><ele>665.0</ele><time>2026-04-04T11:59:20.103Z</time></trkpt><trkpt lat="44.4830083" lon="8.547125"><ele>665.0</ele><time>2026-04-04T11:59:21.103Z</time></trkpt><trkpt lat="44.482955" lon="8.5470517"><ele>665.0</ele><time>2026-04-04T11:59:22.101Z</time></trkpt><trkpt lat="44.482915" lon="8.5469667"><ele>665.0</ele><time>2026-04-04T11:59:23.1Z</time></trkpt><trkpt lat="44.48289" lon="8.546875"><ele>665.0</ele><time>2026-04-04T11:59:24.109Z</time></trkpt><trkpt lat="44.4828733" lon="8.5467783"><ele>665.0</ele><time>2026-04-04T11:59:25.102Z</time></trkpt><trkpt lat="44.4828867" lon="8.546665"><ele>665.0</ele><time>2026-04-04T11:59:26.106Z</time></trkpt><trkpt lat="44.48296" lon="8.5465683"><ele>664.2</ele><time>2026-04-04T11:59:27.101Z</time></trkpt><trkpt lat="44.48303" lon="8.5464817"><ele>663.4</ele><time>2026-04-04T11:59:28.1Z</time></trkpt><trkpt lat="44.48311" lon="8.5464117"><ele>662.5999999999999</ele><time>2026-04-04T11:59:29.105Z</time></trkpt><trkpt lat="44.4831967" lon="8.5463533"><ele>661.8</ele><time>2026-04-04T11:59:30.101Z</time></trkpt><trkpt lat="44.4833217" lon="8.546335"><ele>661.0</ele><time>2026-04-04T11:59:31.107Z</time></trkpt><trkpt lat="44.4834333" lon="8.5463267"><ele>661.0</ele><time>2026-04-04T11:59:32.099Z</time></trkpt><trkpt lat="44.4835617" lon="8.5463933"><ele>661.0</ele><time>2026-04-04T11:59:33.101Z</time></trkpt><trkpt lat="44.4836767" lon="8.54647"><ele>661.0</ele><time>2026-04-04T11:59:34.101Z</time></trkpt><trkpt lat="44.483755" lon="8.546565"><ele>661.0</ele><time>2026-04-04T11:59:35.107Z</time></trkpt><trkpt lat="44.4838333" lon="8.5466783"><ele>663.0</ele><time>2026-04-04T11:59:36.1Z</time></trkpt><trkpt lat="44.4839233" lon="8.5467883"><ele>665.0</ele><time>2026-04-04T11:59:37.1Z</time></trkpt><trkpt lat="44.48404" lon="8.5468583"><ele>667.0</ele><time>2026-04-04T11:59:38.102Z</time></trkpt><trkpt lat="44.4841683" lon="8.54691"><ele>669.0</ele><time>2026-04-04T11:59:39.102Z</time></trkpt><trkpt lat="44.4843017" lon="8.5469383"><ele>669.0</ele><time>2026-04-04T11:59:40.1Z</time></trkpt><trkpt lat="44.4844333" lon="8.5469567"><ele>669.0</ele><time>2026-04-04T11:59:41.107Z</time></trkpt><trkpt lat="44.4845617" lon="8.546985"><ele>669.0</ele><time>2026-04-04T11:59:42.11Z</time></trkpt><trkpt lat="44.48468" lon="8.5470333"><ele>669.0</ele><time>2026-04-04T11:59:43.101Z</time></trkpt><trkpt lat="44.4847933" lon="8.5471267"><ele>667.5</ele><time>2026-04-04T11:59:44.104Z</time></trkpt><trkpt lat="44.484895" lon="8.5472417"><ele>666.0</ele><time>2026-04-04T11:59:45.101Z</time></trkpt><trkpt lat="44.4849917" lon="8.547385"><ele>664.5</ele><time>2026-04-04T11:59:46.102Z</time></trkpt><trkpt lat="44.4851017" lon="8.5475067"><ele>663.0</ele><time>2026-04-04T11:59:47.105Z</time></trkpt><trkpt lat="44.48523" lon="8.54761"><ele>663.0</ele><time>2026-04-04T11:59:48.105Z</time></trkpt><trkpt lat="44.4853667" lon="8.54771"><ele>663.0</ele><time>2026-04-04T11:59:49.103Z</time></trkpt><trkpt lat="44.4855167" lon="8.5477917"><ele>663.0</ele><time>2026-04-04T11:59:50.099Z</time></trkpt><trkpt lat="44.485675" lon="8.547855"><ele>660.5</ele><time>2026-04-04T11:59:51.099Z</time></trkpt><trkpt lat="44.4858267" lon="8.54791"><ele>658.0</ele><time>2026-04-04T11:59:52.104Z</time></trkpt><trkpt lat="44.485965" lon="8.5479617"><ele>655.5</ele><time>2026-04-04T11:59:53.11Z</time></trkpt><trkpt lat="44.4860933" lon="8.5480183"><ele>653.0</ele><time>2026-04-04T11:59:54.101Z</time></trkpt><trkpt lat="44.4862167" lon="8.548105"><ele>654.75</ele><time>2026-04-04T11:59:55.102Z</time></trkpt><trkpt lat="44.4863267" lon="8.5482083"><ele>656.5</ele><time>2026-04-04T11:59:56.102Z</time></trkpt><trkpt lat="44.486425" lon="8.5483183"><ele>658.25</ele><time>2026-04-04T11:59:57.099Z</time></trkpt><trkpt lat="44.4865067" lon="8.5484367"><ele>660.0</ele><time>2026-04-04T11:59:58.1Z</time></trkpt><trkpt lat="44.4865783" lon="8.5485567"><ele>660.0</ele><time>2026-04-04T11:59:59.103Z</time></trkpt><trkpt lat="44.486645" lon="8.548675"><ele>660.0</ele><time>2026-04-04T12:00:00.103Z</time></trkpt><trkpt lat="44.4867067" lon="8.5487767"><ele>660.0</ele><time>2026-04-04T12:00:01.104Z</time></trkpt><trkpt lat="44.48677" lon="8.5488583"><ele>660.0</ele><time>2026-04-04T12:00:02.1Z</time></trkpt><trkpt lat="44.4868417" lon="8.548925"><ele>660.0</ele><time>2026-04-04T12:00:03.102Z</time></trkpt><trkpt lat="44.48691" lon="8.5489783"><ele>659.6666666666666</ele><time>2026-04-04T12:00:04.102Z</time></trkpt><trkpt lat="44.4869867" lon="8.5490267"><ele>659.3333333333334</ele><time>2026-04-04T12:00:05.099Z</time></trkpt><trkpt lat="44.4870733" lon="8.54906"><ele>659.0</ele><time>2026-04-04T12:00:06.103Z</time></trkpt><trkpt lat="44.4871583" lon="8.5490867"><ele>658.6666666666667</ele><time>2026-04-04T12:00:07.1Z</time></trkpt><trkpt lat="44.48724" lon="8.5490867"><ele>658.3333333333334</ele><time>2026-04-04T12:00:08.103Z</time></trkpt><trkpt lat="44.4873233" lon="8.54907"><ele>658.0</ele><time>2026-04-04T12:00:09.107Z</time></trkpt><trkpt lat="44.4874083" lon="8.54904"><ele>658.0</ele><time>2026-04-04T12:00:10.099Z</time></trkpt><trkpt lat="44.4874983" lon="8.5490117"><ele>658.0</ele><time>2026-04-04T12:00:11.099Z</time></trkpt><trkpt lat="44.487585" lon="8.5489833"><ele>658.0</ele><time>2026-04-04T12:00:12.103Z</time></trkpt><trkpt lat="44.4876717" lon="8.5489533"><ele>658.0</ele><time>2026-04-04T12:00:13.106Z</time></trkpt><trkpt lat="44.4877567" lon="8.5489233"><ele>658.0</ele><time>2026-04-04T12:00:14.099Z</time></trkpt><trkpt lat="44.48784" lon="8.5488883"><ele>658.0</ele><time>2026-04-04T12:00:15.103Z</time></trkpt><trkpt lat="44.487925" lon="8.548855"><ele>658.0</ele><time>2026-04-04T12:00:16.098Z</time></trkpt><trkpt lat="44.48801" lon="8.54881"><ele>658.0</ele><time>2026-04-04T12:00:17.102Z</time></trkpt><trkpt lat="44.4881" lon="8.548765"><ele>658.0</ele><time>2026-04-04T12:00:18.108Z</time></trkpt><trkpt lat="44.4881933" lon="8.5487217"><ele>658.0</ele><time>2026-04-04T12:00:19.1Z</time></trkpt><trkpt lat="44.48829" lon="8.5486717"><ele>658.0</ele><time>2026-04-04T12:00:20.103Z</time></trkpt><trkpt lat="44.48839" lon="8.5486167"><ele>656.8</ele><time>2026-04-04T12:00:21.1Z</time></trkpt><trkpt lat="44.4884883" lon="8.5485683"><ele>655.5999999999999</ele><time>2026-04-04T12:00:22.101Z</time></trkpt><trkpt lat="44.48858" lon="8.5485283"><ele>654.4000000000001</ele><time>2026-04-04T12:00:23.103Z</time></trkpt><trkpt lat="44.4886667" lon="8.54849"><ele>653.2</ele><time>2026-04-04T12:00:24.1Z</time></trkpt><trkpt lat="44.48875" lon="8.548445"><ele>652.0</ele><time>2026-04-04T12:00:25.099Z</time></trkpt><trkpt lat="44.488825" lon="8.5484017"><ele>651.8</ele><time>2026-04-04T12:00:26.105Z</time></trkpt><trkpt lat="44.488905" lon="8.5483483"><ele>651.6</ele><time>2026-04-04T12:00:27.102Z</time></trkpt><trkpt lat="44.488985" lon="8.5482817"><ele>651.4</ele><time>2026-04-04T12:00:28.1Z</time></trkpt><trkpt lat="44.48906" lon="8.5482083"><ele>651.1999999999999</ele><time>2026-04-04T12:00:29.109Z</time></trkpt><trkpt lat="44.489135" lon="8.548115"><ele>651.0</ele><time>2026-04-04T12:00:30.1Z</time></trkpt><trkpt lat="44.4892117" lon="8.54802"><ele>651.0</ele><time>2026-04-04T12:00:31.1Z</time></trkpt><trkpt lat="44.48929" lon="8.5479233"><ele>651.0</ele><time>2026-04-04T12:00:32.101Z</time></trkpt><trkpt lat="44.4893783" lon="8.5478133"><ele>651.0</ele><time>2026-04-04T12:00:33.101Z</time></trkpt><trkpt lat="44.4894667" lon="8.547705"><ele>651.0</ele><time>2026-04-04T12:00:34.099Z</time></trkpt><trkpt lat="44.4895517" lon="8.5475917"><ele>650.25</ele><time>2026-04-04T12:00:35.107Z</time></trkpt><trkpt lat="44.4896417" lon="8.54746"><ele>649.5</ele><time>2026-04-04T12:00:36.098Z</time></trkpt><trkpt lat="44.4897283" lon="8.5473233"><ele>648.75</ele><time>2026-04-04T12:00:37.099Z</time></trkpt><trkpt lat="44.4898233" lon="8.5471783"><ele>648.0</ele><time>2026-04-04T12:00:38.1Z</time></trkpt><trkpt lat="44.4899167" lon="8.547035"><ele>646.5</ele><time>2026-04-04T12:00:39.098Z</time></trkpt><trkpt lat="44.49001" lon="8.5468883"><ele>645.0</ele><time>2026-04-04T12:00:40.105Z</time></trkpt><trkpt lat="44.4901" lon="8.5467483"><ele>643.5</ele><time>2026-04-04T12:00:41.1Z</time></trkpt><trkpt lat="44.4901933" lon="8.546595"><ele>642.0</ele><time>2026-04-04T12:00:42.103Z</time></trkpt><trkpt lat="44.49028" lon="8.5464467"><ele>642.0</ele><time>2026-04-04T12:00:43.099Z</time></trkpt><trkpt lat="44.490375" lon="8.546305"><ele>642.0</ele><time>2026-04-04T12:00:44.105Z</time></trkpt><trkpt lat="44.4904717" lon="8.54618"><ele>642.0</ele><time>2026-04-04T12:00:45.1Z</time></trkpt><trkpt lat="44.490575" lon="8.5460767"><ele>642.0</ele><time>2026-04-04T12:00:46.1Z</time></trkpt><trkpt lat="44.4906767" lon="8.546"><ele>639.8000000000001</ele><time>2026-04-04T12:00:47.096Z</time></trkpt><trkpt lat="44.4907767" lon="8.5459467"><ele>637.6</ele><time>2026-04-04T12:00:48.101Z</time></trkpt><trkpt lat="44.4908783" lon="8.545915"><ele>635.4000000000001</ele><time>2026-04-04T12:00:49.1Z</time></trkpt><trkpt lat="44.490985" lon="8.5459217"><ele>633.2</ele><time>2026-04-04T12:00:50.105Z</time></trkpt><trkpt lat="44.4910967" lon="8.5459717"><ele>631.0</ele><time>2026-04-04T12:00:51.108Z</time></trkpt><trkpt lat="44.491215" lon="8.5460483"><ele>631.0</ele><time>2026-04-04T12:00:52.101Z</time></trkpt><trkpt lat="44.4913283" lon="8.5461317"><ele>631.0</ele><time>2026-04-04T12:00:53.101Z</time></trkpt><trkpt lat="44.4914433" lon="8.5462517"><ele>631.0</ele><time>2026-04-04T12:00:54.1Z</time></trkpt><trkpt lat="44.491555" lon="8.546375"><ele>631.0</ele><time>2026-04-04T12:00:55.103Z</time></trkpt><trkpt lat="44.49167" lon="8.5465167"><ele>631.0</ele><time>2026-04-04T12:00:56.097Z</time></trkpt><trkpt lat="44.4917833" lon="8.5466517"><ele>631.0</ele><time>2026-04-04T12:00:57.103Z</time></trkpt><trkpt lat="44.491915" lon="8.5467633"><ele>631.0</ele><time>2026-04-04T12:00:58.103Z</time></trkpt><trkpt lat="44.4920483" lon="8.5468833"><ele>627.3333333333334</ele><time>2026-04-04T12:00:59.103Z</time></trkpt><trkpt lat="44.492175" lon="8.54702"><ele>623.6666666666666</ele><time>2026-04-04T12:01:00.099Z</time></trkpt><trkpt lat="44.4922933" lon="8.5471567"><ele>620.0</ele><time>2026-04-04T12:01:01.101Z</time></trkpt><trkpt lat="44.4924" lon="8.54729"><ele>620.0</ele><time>2026-04-04T12:01:02.1Z</time></trkpt><trkpt lat="44.49251" lon="8.547395"><ele>620.0</ele><time>2026-04-04T12:01:03.101Z</time></trkpt><trkpt lat="44.4926367" lon="8.5474567"><ele>620.0</ele><time>2026-04-04T12:01:04.1Z</time></trkpt><trkpt lat="44.4927717" lon="8.5474783"><ele>620.0</ele><time>2026-04-04T12:01:05.097Z</time></trkpt><trkpt lat="44.492915" lon="8.547475"><ele>618.0</ele><time>2026-04-04T12:01:06.104Z</time></trkpt><trkpt lat="44.4930583" lon="8.5474417"><ele>616.0</ele><time>2026-04-04T12:01:07.101Z</time></trkpt><trkpt lat="44.4932033" lon="8.54736"><ele>614.0</ele><time>2026-04-04T12:01:08.106Z</time></trkpt><trkpt lat="44.4933517" lon="8.5472567"><ele>614.0</ele><time>2026-04-04T12:01:09.106Z</time></trkpt><trkpt lat="44.4934883" lon="8.5471483"><ele>614.0</ele><time>2026-04-04T12:01:10.104Z</time></trkpt><trkpt lat="44.4936117" lon="8.54706"><ele>614.0</ele><time>2026-04-04T12:01:11.1Z</time></trkpt><trkpt lat="44.4937383" lon="8.5469867"><ele>614.0</ele><time>2026-04-04T12:01:12.105Z</time></trkpt><trkpt lat="44.4938533" lon="8.5469967"><ele>614.5</ele><time>2026-04-04T12:01:13.106Z</time></trkpt><trkpt lat="44.4939667" lon="8.54705"><ele>615.0</ele><time>2026-04-04T12:01:14.106Z</time></trkpt><trkpt lat="44.4940783" lon="8.547125"><ele>615.5</ele><time>2026-04-04T12:01:15.104Z</time></trkpt><trkpt lat="44.4941833" lon="8.5472233"><ele>616.0</ele><time>2026-04-04T12:01:16.109Z</time></trkpt><trkpt lat="44.49429" lon="8.5473267"><ele>616.0</ele><time>2026-04-04T12:01:17.102Z</time></trkpt><trkpt lat="44.4943967" lon="8.5474383"><ele>616.0</ele><time>2026-04-04T12:01:18.101Z</time></trkpt><trkpt lat="44.4945017" lon="8.547555"><ele>616.0</ele><time>2026-04-04T12:01:19.104Z</time></trkpt><trkpt lat="44.4946067" lon="8.547665"><ele>616.0</ele><time>2026-04-04T12:01:20.101Z</time></trkpt><trkpt lat="44.4947133" lon="8.5477733"><ele>616.5</ele><time>2026-04-04T12:01:21.108Z</time></trkpt><trkpt lat="44.4948167" lon="8.5478883"><ele>617.0</ele><time>2026-04-04T12:01:22.102Z</time></trkpt><trkpt lat="44.4949167" lon="8.548"><ele>617.5</ele><time>2026-04-04T12:01:23.1Z</time></trkpt><trkpt lat="44.4950117" lon="8.5481083"><ele>618.0</ele><time>2026-04-04T12:01:24.103Z</time></trkpt><trkpt lat="44.495105" lon="8.5481983"><ele>618.0</ele><time>2026-04-04T12:01:25.101Z</time></trkpt><trkpt lat="44.4951967" lon="8.5482633"><ele>618.0</ele><time>2026-04-04T12:01:26.1Z</time></trkpt><trkpt lat="44.4952917" lon="8.548295"><ele>618.0</ele><time>2026-04-04T12:01:27.101Z</time></trkpt><trkpt lat="44.4953933" lon="8.5482767"><ele>618.0</ele><time>2026-04-04T12:01:28.102Z</time></trkpt><trkpt lat="44.4955017" lon="8.5482183"><ele>618.0</ele><time>2026-04-04T12:01:29.102Z</time></trkpt><trkpt lat="44.495605" lon="8.5481383"><ele>617.5</ele><time>2026-04-04T12:01:30.101Z</time></trkpt><trkpt lat="44.49571" lon="8.5480367"><ele>617.0</ele><time>2026-04-04T12:01:31.105Z</time></trkpt><trkpt lat="44.4958183" lon="8.547925"><ele>616.5</ele><time>2026-04-04T12:01:32.102Z</time></trkpt><trkpt lat="44.495935" lon="8.5478117"><ele>616.0</ele><time>2026-04-04T12:01:33.1Z</time></trkpt><trkpt lat="44.4960517" lon="8.5476867"><ele>618.0</ele><time>2026-04-04T12:01:34.102Z</time></trkpt><trkpt lat="44.4961617" lon="8.5475633"><ele>620.0</ele><time>2026-04-04T12:01:35.102Z</time></trkpt><trkpt lat="44.49626" lon="8.547435"><ele>622.0</ele><time>2026-04-04T12:01:36.107Z</time></trkpt><trkpt lat="44.4963383" lon="8.5472817"><ele>624.0</ele><time>2026-04-04T12:01:37.105Z</time></trkpt><trkpt lat="44.4963983" lon="8.5471133"><ele>619.25</ele><time>2026-04-04T12:01:38.099Z</time></trkpt><trkpt lat="44.49644" lon="8.546915"><ele>614.5</ele><time>2026-04-04T12:01:39.103Z</time></trkpt><trkpt lat="44.4964517" lon="8.5467017"><ele>609.75</ele><time>2026-04-04T12:01:40.099Z</time></trkpt><trkpt lat="44.4964333" lon="8.5464983"><ele>605.0</ele><time>2026-04-04T12:01:41.1Z</time></trkpt><trkpt lat="44.49643" lon="8.5462883"><ele>605.0</ele><time>2026-04-04T12:01:42.103Z</time></trkpt><trkpt lat="44.4964317" lon="8.546075"><ele>605.0</ele><time>2026-04-04T12:01:43.105Z</time></trkpt><trkpt lat="44.49643" lon="8.5458717"><ele>605.0</ele><time>2026-04-04T12:01:44.1Z</time></trkpt><trkpt lat="44.4964333" lon="8.54571"><ele>605.0</ele><time>2026-04-04T12:01:45.1Z</time></trkpt><trkpt lat="44.4964417" lon="8.545565"><ele>605.0</ele><time>2026-04-04T12:01:46.103Z</time></trkpt><trkpt lat="44.4964733" lon="8.5454583"><ele>605.0</ele><time>2026-04-04T12:01:47.101Z</time></trkpt><trkpt lat="44.49651" lon="8.5453617"><ele>605.0</ele><time>2026-04-04T12:01:48.1Z</time></trkpt><trkpt lat="44.496595" lon="8.5453667"><ele>605.0</ele><time>2026-04-04T12:01:49.101Z</time></trkpt><trkpt lat="44.4966817" lon="8.5453833"><ele>605.0</ele><time>2026-04-04T12:01:50.105Z</time></trkpt><trkpt lat="44.496795" lon="8.5454533"><ele>605.0</ele><time>2026-04-04T12:01:51.1Z</time></trkpt><trkpt lat="44.4969" lon="8.545595"><ele>605.0</ele><time>2026-04-04T12:01:52.103Z</time></trkpt><trkpt lat="44.4970133" lon="8.5456733"><ele>605.0</ele><time>2026-04-04T12:01:53.106Z</time></trkpt><trkpt lat="44.4971383" lon="8.54572"><ele>605.0</ele><time>2026-04-04T12:01:54.104Z</time></trkpt><trkpt lat="44.4972683" lon="8.54574"><ele>603.25</ele><time>2026-04-04T12:01:55.104Z</time></trkpt><trkpt lat="44.4973967" lon="8.5457167"><ele>601.5</ele><time>2026-04-04T12:01:56.108Z</time></trkpt><trkpt lat="44.4975283" lon="8.5456667"><ele>599.75</ele><time>2026-04-04T12:01:57.102Z</time></trkpt><trkpt lat="44.4976533" lon="8.5455933"><ele>598.0</ele><time>2026-04-04T12:01:58.106Z</time></trkpt><trkpt lat="44.4977683" lon="8.5454983"><ele>598.0</ele><time>2026-04-04T12:01:59.101Z</time></trkpt><trkpt lat="44.4978717" lon="8.5453817"><ele>598.0</ele><time>2026-04-04T12:02:00.102Z</time></trkpt><trkpt lat="44.4979633" lon="8.54526"><ele>598.0</ele><time>2026-04-04T12:02:01.109Z</time></trkpt><trkpt lat="44.4980483" lon="8.54514"><ele>598.0</ele><time>2026-04-04T12:02:02.101Z</time></trkpt><trkpt lat="44.4981317" lon="8.54502"><ele>596.75</ele><time>2026-04-04T12:02:03.102Z</time></trkpt><trkpt lat="44.4982233" lon="8.5448933"><ele>595.5</ele><time>2026-04-04T12:02:04.1Z</time></trkpt><trkpt lat="44.4983117" lon="8.54478"><ele>594.25</ele><time>2026-04-04T12:02:05.108Z</time></trkpt><trkpt lat="44.4984033" lon="8.5446767"><ele>593.0</ele><time>2026-04-04T12:02:06.1Z</time></trkpt><trkpt lat="44.4984917" lon="8.544595"><ele>593.0</ele><time>2026-04-04T12:02:07.11Z</time></trkpt><trkpt lat="44.4985783" lon="8.54454"><ele>593.0</ele><time>2026-04-04T12:02:08.106Z</time></trkpt><trkpt lat="44.4986617" lon="8.544515"><ele>593.0</ele><time>2026-04-04T12:02:09.104Z</time></trkpt><trkpt lat="44.4987517" lon="8.5445333"><ele>593.0</ele><time>2026-04-04T12:02:10.104Z</time></trkpt><trkpt lat="44.4988433" lon="8.5445667"><ele>593.0</ele><time>2026-04-04T12:02:11.101Z</time></trkpt><trkpt lat="44.4989283" lon="8.5446217"><ele>593.0</ele><time>2026-04-04T12:02:12.102Z</time></trkpt><trkpt lat="44.4990133" lon="8.5447"><ele>593.0</ele><time>2026-04-04T12:02:13.102Z</time></trkpt><trkpt lat="44.49909" lon="8.5447917"><ele>593.0</ele><time>2026-04-04T12:02:14.099Z</time></trkpt><trkpt lat="44.49918" lon="8.5448433"><ele>593.0</ele><time>2026-04-04T12:02:15.102Z</time></trkpt><trkpt lat="44.499275" lon="8.544865"><ele>593.0</ele><time>2026-04-04T12:02:16.098Z</time></trkpt><trkpt lat="44.49937" lon="8.5448267"><ele>593.0</ele><time>2026-04-04T12:02:17.104Z</time></trkpt><trkpt lat="44.49946" lon="8.54478"><ele>593.0</ele><time>2026-04-04T12:02:18.104Z</time></trkpt><trkpt lat="44.4995633" lon="8.5447317"><ele>593.0</ele><time>2026-04-04T12:02:19.104Z</time></trkpt><trkpt lat="44.4996583" lon="8.5447217"><ele>593.0</ele><time>2026-04-04T12:02:20.102Z</time></trkpt><trkpt lat="44.4997633" lon="8.54471"><ele>593.0</ele><time>2026-04-04T12:02:21.101Z</time></trkpt><trkpt lat="44.4998633" lon="8.54465"><ele>592.6</ele><time>2026-04-04T12:02:22.103Z</time></trkpt><trkpt lat="44.499945" lon="8.5445683"><ele>592.1999999999999</ele><time>2026-04-04T12:02:23.105Z</time></trkpt><trkpt lat="44.5000167" lon="8.54446"><ele>591.8</ele><time>2026-04-04T12:02:24.102Z</time></trkpt><trkpt lat="44.50006" lon="8.5443233"><ele>591.4</ele><time>2026-04-04T12:02:25.101Z</time></trkpt><trkpt lat="44.50007" lon="8.544185"><ele>591.0</ele><time>2026-04-04T12:02:26.107Z</time></trkpt><trkpt lat="44.500065" lon="8.5440333"><ele>588.25</ele><time>2026-04-04T12:02:27.104Z</time></trkpt><trkpt lat="44.5000483" lon="8.5438583"><ele>585.5</ele><time>2026-04-04T12:02:28.099Z</time></trkpt><trkpt lat="44.5000217" lon="8.5436833"><ele>582.75</ele><time>2026-04-04T12:02:29.098Z</time></trkpt><trkpt lat="44.4999917" lon="8.5435067"><ele>580.0</ele><time>2026-04-04T12:02:30.102Z</time></trkpt><trkpt lat="44.4999567" lon="8.543325"><ele>578.75</ele><time>2026-04-04T12:02:31.104Z</time></trkpt><trkpt lat="44.4999233" lon="8.54314"><ele>577.5</ele><time>2026-04-04T12:02:32.098Z</time></trkpt><trkpt lat="44.4998883" lon="8.5429533"><ele>576.25</ele><time>2026-04-04T12:02:33.099Z</time></trkpt><trkpt lat="44.4998483" lon="8.542765"><ele>575.0</ele><time>2026-04-04T12:02:34.1Z</time></trkpt><trkpt lat="44.4997883" lon="8.5425817"><ele>574.5</ele><time>2026-04-04T12:02:35.102Z</time></trkpt><trkpt lat="44.499715" lon="8.542415"><ele>574.0</ele><time>2026-04-04T12:02:36.1Z</time></trkpt><trkpt lat="44.4996267" lon="8.54226"><ele>573.5</ele><time>2026-04-04T12:02:37.1Z</time></trkpt><trkpt lat="44.499525" lon="8.5421183"><ele>573.0</ele><time>2026-04-04T12:02:38.101Z</time></trkpt><trkpt lat="44.4994433" lon="8.5419667"><ele>568.75</ele><time>2026-04-04T12:02:39.102Z</time></trkpt><trkpt lat="44.4993783" lon="8.5418083"><ele>564.5</ele><time>2026-04-04T12:02:40.101Z</time></trkpt><trkpt lat="44.4993333" lon="8.5416417"><ele>560.25</ele><time>2026-04-04T12:02:41.105Z</time></trkpt><trkpt lat="44.4993067" lon="8.5414717"><ele>556.0</ele><time>2026-04-04T12:02:42.111Z</time></trkpt><trkpt lat="44.4992983" lon="8.5412967"><ele>554.5</ele><time>2026-04-04T12:02:43.102Z</time></trkpt><trkpt lat="44.4993083" lon="8.5411167"><ele>553.0</ele><time>2026-04-04T12:02:44.108Z</time></trkpt><trkpt lat="44.499335" lon="8.5409333"><ele>551.5</ele><time>2026-04-04T12:02:45.099Z</time></trkpt><trkpt lat="44.4993617" lon="8.5407467"><ele>550.0</ele><time>2026-04-04T12:02:46.101Z</time></trkpt><trkpt lat="44.4993633" lon="8.5405567"><ele>549.0</ele><time>2026-04-04T12:02:47.101Z</time></trkpt><trkpt lat="44.499345" lon="8.5403617"><ele>548.0</ele><time>2026-04-04T12:02:48.099Z</time></trkpt><trkpt lat="44.4993" lon="8.540165"><ele>547.0</ele><time>2026-04-04T12:02:49.102Z</time></trkpt><trkpt lat="44.49924" lon="8.539965"><ele>546.0</ele><time>2026-04-04T12:02:50.106Z</time></trkpt><trkpt lat="44.4991733" lon="8.53976"><ele>546.0</ele><time>2026-04-04T12:02:51.103Z</time></trkpt><trkpt lat="44.4991033" lon="8.5395533"><ele>546.0</ele><time>2026-04-04T12:02:52.109Z</time></trkpt><trkpt lat="44.4990333" lon="8.5393417"><ele>546.0</ele><time>2026-04-04T12:02:53.1Z</time></trkpt><trkpt lat="44.4989617" lon="8.5391367"><ele>545.0</ele><time>2026-04-04T12:02:54.101Z</time></trkpt><trkpt lat="44.4988867" lon="8.538945"><ele>544.0</ele><time>2026-04-04T12:02:55.106Z</time></trkpt><trkpt lat="44.49881" lon="8.5387833"><ele>543.0</ele><time>2026-04-04T12:02:56.103Z</time></trkpt><trkpt lat="44.4987283" lon="8.5386767"><ele>542.0</ele><time>2026-04-04T12:02:57.101Z</time></trkpt><trkpt lat="44.4986617" lon="8.5385567"><ele>540.6</ele><time>2026-04-04T12:02:58.101Z</time></trkpt><trkpt lat="44.49861" lon="8.5384217"><ele>539.2</ele><time>2026-04-04T12:02:59.101Z</time></trkpt><trkpt lat="44.4985783" lon="8.538285"><ele>537.8</ele><time>2026-04-04T12:03:00.101Z</time></trkpt><trkpt lat="44.498575" lon="8.538145"><ele>536.4</ele><time>2026-04-04T12:03:01.102Z</time></trkpt><trkpt lat="44.49858" lon="8.5379967"><ele>535.0</ele><time>2026-04-04T12:03:02.103Z</time></trkpt><trkpt lat="44.4985733" lon="8.5378517"><ele>535.0</ele><time>2026-04-04T12:03:03.104Z</time></trkpt><trkpt lat="44.4985533" lon="8.5377033"><ele>535.0</ele><time>2026-04-04T12:03:04.105Z</time></trkpt><trkpt lat="44.4985067" lon="8.537565"><ele>535.0</ele><time>2026-04-04T12:03:05.104Z</time></trkpt><trkpt lat="44.4984683" lon="8.5374133"><ele>535.0</ele><time>2026-04-04T12:03:06.104Z</time></trkpt><trkpt lat="44.4984417" lon="8.5372583"><ele>535.0</ele><time>2026-04-04T12:03:07.107Z</time></trkpt><trkpt lat="44.498425" lon="8.5370817"><ele>533.75</ele><time>2026-04-04T12:03:08.107Z</time></trkpt><trkpt lat="44.498415" lon="8.5368817"><ele>532.5</ele><time>2026-04-04T12:03:09.103Z</time></trkpt><trkpt lat="44.4984067" lon="8.5366733"><ele>531.25</ele><time>2026-04-04T12:03:10.1Z</time></trkpt><trkpt lat="44.4984" lon="8.5364617"><ele>530.0</ele><time>2026-04-04T12:03:11.104Z</time></trkpt><trkpt lat="44.4984033" lon="8.536255"><ele>528.0</ele><time>2026-04-04T12:03:12.107Z</time></trkpt><trkpt lat="44.4984083" lon="8.5360483"><ele>526.0</ele><time>2026-04-04T12:03:13.101Z</time></trkpt><trkpt lat="44.498405" lon="8.53584"><ele>524.0</ele><time>2026-04-04T12:03:14.108Z</time></trkpt><trkpt lat="44.4983917" lon="8.5356417"><ele>522.0</ele><time>2026-04-04T12:03:15.101Z</time></trkpt><trkpt lat="44.498385" lon="8.5354317"><ele>521.75</ele><time>2026-04-04T12:03:16.103Z</time></trkpt><trkpt lat="44.4983767" lon="8.5352433"><ele>521.5</ele><time>2026-04-04T12:03:17.101Z</time></trkpt><trkpt lat="44.4983583" lon="8.535065"><ele>521.25</ele><time>2026-04-04T12:03:18.101Z</time></trkpt><trkpt lat="44.4983283" lon="8.5348867"><ele>521.0</ele><time>2026-04-04T12:03:19.102Z</time></trkpt><trkpt lat="44.4982883" lon="8.5347183"><ele>521.0</ele><time>2026-04-04T12:03:20.103Z</time></trkpt><trkpt lat="44.4982317" lon="8.534555"><ele>521.0</ele><time>2026-04-04T12:03:21.102Z</time></trkpt><trkpt lat="44.4981567" lon="8.5344117"><ele>521.0</ele><time>2026-04-04T12:03:22.103Z</time></trkpt><trkpt lat="44.498065" lon="8.5342867"><ele>521.0</ele><time>2026-04-04T12:03:23.102Z</time></trkpt><trkpt lat="44.4979567" lon="8.5341683"><ele>519.5</ele><time>2026-04-04T12:03:24.103Z</time></trkpt><trkpt lat="44.4978283" lon="8.5340767"><ele>518.0</ele><time>2026-04-04T12:03:25.105Z</time></trkpt><trkpt lat="44.497695" lon="8.5339967"><ele>516.5</ele><time>2026-04-04T12:03:26.101Z</time></trkpt><trkpt lat="44.4975667" lon="8.5339333"><ele>515.0</ele><time>2026-04-04T12:03:27.104Z</time></trkpt><trkpt lat="44.4974433" lon="8.5339017"><ele>515.0</ele><time>2026-04-04T12:03:28.1Z</time></trkpt><trkpt lat="44.4973267" lon="8.5339117"><ele>515.0</ele><time>2026-04-04T12:03:29.103Z</time></trkpt><trkpt lat="44.4972183" lon="8.5339533"><ele>515.0</ele><time>2026-04-04T12:03:30.102Z</time></trkpt><trkpt lat="44.4971133" lon="8.5340033"><ele>515.0</ele><time>2026-04-04T12:03:31.1Z</time></trkpt><trkpt lat="44.4970133" lon="8.534025"><ele>515.0</ele><time>2026-04-04T12:03:32.101Z</time></trkpt><trkpt lat="44.4969167" lon="8.5340317"><ele>515.2</ele><time>2026-04-04T12:03:33.099Z</time></trkpt><trkpt lat="44.496825" lon="8.5340733"><ele>515.4</ele><time>2026-04-04T12:03:34.103Z</time></trkpt><trkpt lat="44.4967483" lon="8.534135"><ele>515.6</ele><time>2026-04-04T12:03:35.105Z</time></trkpt><trkpt lat="44.496675" lon="8.534235"><ele>515.8</ele><time>2026-04-04T12:03:36.101Z</time></trkpt><trkpt lat="44.4966133" lon="8.5343383"><ele>516.0</ele><time>2026-04-04T12:03:37.108Z</time></trkpt><trkpt lat="44.4965683" lon="8.5344617"><ele>513.6</ele><time>2026-04-04T12:03:38.099Z</time></trkpt><trkpt lat="44.496495" lon="8.5345783"><ele>511.20000000000005</ele><time>2026-04-04T12:03:39.101Z</time></trkpt><trkpt lat="44.49644" lon="8.5346783"><ele>508.79999999999995</ele><time>2026-04-04T12:03:40.102Z</time></trkpt><trkpt lat="44.4963667" lon="8.5347517"><ele>506.4</ele><time>2026-04-04T12:03:41.108Z</time></trkpt><trkpt lat="44.496285" lon="8.5348233"><ele>504.0</ele><time>2026-04-04T12:03:42.104Z</time></trkpt><trkpt lat="44.4961983" lon="8.5348817"><ele>502.6</ele><time>2026-04-04T12:03:43.1Z</time></trkpt><trkpt lat="44.4961033" lon="8.5349133"><ele>501.2</ele><time>2026-04-04T12:03:44.107Z</time></trkpt><trkpt lat="44.4959983" lon="8.5349167"><ele>499.80000000000007</ele><time>2026-04-04T12:03:45.101Z</time></trkpt><trkpt lat="44.4958767" lon="8.5348933"><ele>498.40000000000003</ele><time>2026-04-04T12:03:46.101Z</time></trkpt><trkpt lat="44.4957883" lon="8.53488"><ele>497.0</ele><time>2026-04-04T12:03:47.098Z</time></trkpt><trkpt lat="44.4957133" lon="8.5348133"><ele>497.0</ele><time>2026-04-04T12:03:48.1Z</time></trkpt><trkpt lat="44.4956833" lon="8.5346533"><ele>497.0</ele><time>2026-04-04T12:03:49.102Z</time></trkpt><trkpt lat="44.4956367" lon="8.5344567"><ele>497.0</ele><time>2026-04-04T12:03:50.103Z</time></trkpt><trkpt lat="44.495635" lon="8.5341683"><ele>498.5</ele><time>2026-04-04T12:03:51.104Z</time></trkpt><trkpt lat="44.4956067" lon="8.5340033"><ele>500.0</ele><time>2026-04-04T12:03:52.105Z</time></trkpt><trkpt lat="44.49558" lon="8.5338617"><ele>501.5</ele><time>2026-04-04T12:03:53.102Z</time></trkpt><trkpt lat="44.49554" lon="8.533705"><ele>503.0</ele><time>2026-04-04T12:03:54.106Z</time></trkpt><trkpt lat="44.495535" lon="8.533545"><ele>503.0</ele><time>2026-04-04T12:03:55.1Z</time></trkpt><trkpt lat="44.4955833" lon="8.5333467"><ele>503.0</ele><time>2026-04-04T12:03:56.108Z</time></trkpt><trkpt lat="44.4956217" lon="8.5331833"><ele>503.0</ele><time>2026-04-04T12:03:57.105Z</time></trkpt><trkpt lat="44.4956633" lon="8.5330183"><ele>503.0</ele><time>2026-04-04T12:03:58.104Z</time></trkpt><trkpt lat="44.4956917" lon="8.5328633"><ele>501.59999999999997</ele><time>2026-04-04T12:03:59.102Z</time></trkpt><trkpt lat="44.4957017" lon="8.532705"><ele>500.19999999999993</ele><time>2026-04-04T12:04:00.099Z</time></trkpt><trkpt lat="44.4957067" lon="8.532555"><ele>498.8</ele><time>2026-04-04T12:04:01.105Z</time></trkpt><trkpt lat="44.4957317" lon="8.5324017"><ele>497.4</ele><time>2026-04-04T12:04:02.103Z</time></trkpt><trkpt lat="44.4957733" lon="8.53225"><ele>496.0</ele><time>2026-04-04T12:04:03.103Z</time></trkpt><trkpt lat="44.4958183" lon="8.5321083"><ele>495.6</ele><time>2026-04-04T12:04:04.107Z</time></trkpt><trkpt lat="44.49587" lon="8.531965"><ele>495.20000000000005</ele><time>2026-04-04T12:04:05.102Z</time></trkpt><trkpt lat="44.4959017" lon="8.5318233"><ele>494.79999999999995</ele><time>2026-04-04T12:04:06.102Z</time></trkpt><trkpt lat="44.4958983" lon="8.5317117"><ele>494.4</ele><time>2026-04-04T12:04:07.103Z</time></trkpt><trkpt lat="44.4959033" lon="8.53158"><ele>494.0</ele><time>2026-04-04T12:04:08.102Z</time></trkpt><trkpt lat="44.4958567" lon="8.53147"><ele>494.0</ele><time>2026-04-04T12:04:09.102Z</time></trkpt><trkpt lat="44.4957917" lon="8.5313533"><ele>494.0</ele><time>2026-04-04T12:04:10.104Z</time></trkpt><trkpt lat="44.495685" lon="8.53122"><ele>494.0</ele><time>2026-04-04T12:04:11.102Z</time></trkpt><trkpt lat="44.4956033" lon="8.531085"><ele>494.0</ele><time>2026-04-04T12:04:12.105Z</time></trkpt><trkpt lat="44.495475" lon="8.530975"><ele>489.66666666666663</ele><time>2026-04-04T12:04:13.105Z</time></trkpt><trkpt lat="44.4953183" lon="8.5308717"><ele>485.33333333333337</ele><time>2026-04-04T12:04:14.102Z</time></trkpt><trkpt lat="44.4951783" lon="8.5307483"><ele>481.0</ele><time>2026-04-04T12:04:15.103Z</time></trkpt><trkpt lat="44.495055" lon="8.53063"><ele>481.0</ele><time>2026-04-04T12:04:16.105Z</time></trkpt><trkpt lat="44.4949367" lon="8.5305067"><ele>481.0</ele><time>2026-04-04T12:04:17.102Z</time></trkpt><trkpt lat="44.49482" lon="8.5303967"><ele>481.0</ele><time>2026-04-04T12:04:18.106Z</time></trkpt><trkpt lat="44.4947083" lon="8.5302833"><ele>481.0</ele><time>2026-04-04T12:04:19.099Z</time></trkpt><trkpt lat="44.4945983" lon="8.5301733"><ele>479.5</ele><time>2026-04-04T12:04:20.102Z</time></trkpt><trkpt lat="44.4944867" lon="8.5300633"><ele>478.0</ele><time>2026-04-04T12:04:21.098Z</time></trkpt><trkpt lat="44.4943933" lon="8.52991"><ele>476.5</ele><time>2026-04-04T12:04:22.101Z</time></trkpt><trkpt lat="44.4943217" lon="8.5297333"><ele>475.0</ele><time>2026-04-04T12:04:23.103Z</time></trkpt><trkpt lat="44.4942383" lon="8.5295567"><ele>475.0</ele><time>2026-04-04T12:04:24.108Z</time></trkpt><trkpt lat="44.4941583" lon="8.5293783"><ele>475.0</ele><time>2026-04-04T12:04:25.104Z</time></trkpt><trkpt lat="44.4940917" lon="8.5291783"><ele>475.0</ele><time>2026-04-04T12:04:26.099Z</time></trkpt><trkpt lat="44.4940317" lon="8.5289867"><ele>475.0</ele><time>2026-04-04T12:04:27.1Z</time></trkpt><trkpt lat="44.49398" lon="8.528815"><ele>475.0</ele><time>2026-04-04T12:04:28.098Z</time></trkpt><trkpt lat="44.493945" lon="8.5286483"><ele>475.0</ele><time>2026-04-04T12:04:29.103Z</time></trkpt><trkpt lat="44.4939267" lon="8.5284983"><ele>475.0</ele><time>2026-04-04T12:04:30.104Z</time></trkpt><trkpt lat="44.493935" lon="8.528365"><ele>473.5</ele><time>2026-04-04T12:04:31.103Z</time></trkpt><trkpt lat="44.494075" lon="8.52824"><ele>472.0</ele><time>2026-04-04T12:04:32.103Z</time></trkpt><trkpt lat="44.494155" lon="8.52814"><ele>470.5</ele><time>2026-04-04T12:04:33.103Z</time></trkpt><trkpt lat="44.4942367" lon="8.52803"><ele>469.0</ele><time>2026-04-04T12:04:34.104Z</time></trkpt><trkpt lat="44.4943417" lon="8.5278667"><ele>466.75</ele><time>2026-04-04T12:04:35.103Z</time></trkpt><trkpt lat="44.4944283" lon="8.5276933"><ele>464.5</ele><time>2026-04-04T12:04:36.099Z</time></trkpt><trkpt lat="44.4944967" lon="8.5275117"><ele>462.25</ele><time>2026-04-04T12:04:37.102Z</time></trkpt><trkpt lat="44.494535" lon="8.5273133"><ele>460.0</ele><time>2026-04-04T12:04:38.112Z</time></trkpt><trkpt lat="44.494585" lon="8.52715"><ele>458.6666666666667</ele><time>2026-04-04T12:04:39.1Z</time></trkpt><trkpt lat="44.494605" lon="8.5269417"><ele>457.33333333333337</ele><time>2026-04-04T12:04:40.1Z</time></trkpt><trkpt lat="44.4945733" lon="8.526695"><ele>456.0</ele><time>2026-04-04T12:04:41.105Z</time></trkpt><trkpt lat="44.4944967" lon="8.5264733"><ele>456.0</ele><time>2026-04-04T12:04:42.101Z</time></trkpt><trkpt lat="44.4944267" lon="8.52627"><ele>456.0</ele><time>2026-04-04T12:04:43.106Z</time></trkpt><trkpt lat="44.4943567" lon="8.5260833"><ele>456.0</ele><time>2026-04-04T12:04:44.107Z</time></trkpt><trkpt lat="44.4943233" lon="8.5258883"><ele>455.5</ele><time>2026-04-04T12:04:45.103Z</time></trkpt><trkpt lat="44.4943083" lon="8.5256933"><ele>455.0</ele><time>2026-04-04T12:04:46.102Z</time></trkpt><trkpt lat="44.49429" lon="8.5255217"><ele>454.5</ele><time>2026-04-04T12:04:47.099Z</time></trkpt><trkpt lat="44.4943017" lon="8.5253683"><ele>454.0</ele><time>2026-04-04T12:04:48.098Z</time></trkpt><trkpt lat="44.4943067" lon="8.525195"><ele>452.75</ele><time>2026-04-04T12:04:49.098Z</time></trkpt><trkpt lat="44.4943683" lon="8.5250633"><ele>451.5</ele><time>2026-04-04T12:04:50.102Z</time></trkpt><trkpt lat="44.4944933" lon="8.5249233"><ele>450.25</ele><time>2026-04-04T12:04:51.102Z</time></trkpt><trkpt lat="44.4945667" lon="8.5247683"><ele>449.0</ele><time>2026-04-04T12:04:52.099Z</time></trkpt><trkpt lat="44.4946033" lon="8.524585"><ele>446.3333333333333</ele><time>2026-04-04T12:04:53.106Z</time></trkpt><trkpt lat="44.494625" lon="8.5243883"><ele>443.66666666666663</ele><time>2026-04-04T12:04:54.101Z</time></trkpt><trkpt lat="44.4946517" lon="8.5241717"><ele>441.0</ele><time>2026-04-04T12:04:55.102Z</time></trkpt><trkpt lat="44.494675" lon="8.5239567"><ele>441.0</ele><time>2026-04-04T12:04:56.102Z</time></trkpt><trkpt lat="44.4947017" lon="8.5237567"><ele>441.0</ele><time>2026-04-04T12:04:57.103Z</time></trkpt><trkpt lat="44.4947283" lon="8.5235533"><ele>441.0</ele><time>2026-04-04T12:04:58.105Z</time></trkpt><trkpt lat="44.4947583" lon="8.523355"><ele>441.0</ele><time>2026-04-04T12:04:59.106Z</time></trkpt><trkpt lat="44.4948017" lon="8.523165"><ele>440.25</ele><time>2026-04-04T12:05:00.102Z</time></trkpt><trkpt lat="44.4948567" lon="8.5229783"><ele>439.5</ele><time>2026-04-04T12:05:01.102Z</time></trkpt><trkpt lat="44.49491" lon="8.522795"><ele>438.75</ele><time>2026-04-04T12:05:02.101Z</time></trkpt><trkpt lat="44.4949617" lon="8.52262"><ele>438.0</ele><time>2026-04-04T12:05:03.105Z</time></trkpt><trkpt lat="44.4950067" lon="8.5224767"><ele>437.3333333333333</ele><time>2026-04-04T12:05:04.105Z</time></trkpt><trkpt lat="44.49507" lon="8.522365"><ele>436.66666666666663</ele><time>2026-04-04T12:05:05.101Z</time></trkpt><trkpt lat="44.4951317" lon="8.5222733"><ele>436.0</ele><time>2026-04-04T12:05:06.101Z</time></trkpt><trkpt lat="44.495205" lon="8.5222"><ele>435.3333333333333</ele><time>2026-04-04T12:05:07.099Z</time></trkpt><trkpt lat="44.4952817" lon="8.5221633"><ele>434.66666666666663</ele><time>2026-04-04T12:05:08.099Z</time></trkpt><trkpt lat="44.4953633" lon="8.5221533"><ele>434.0</ele><time>2026-04-04T12:05:09.098Z</time></trkpt><trkpt lat="44.4954583" lon="8.522115"><ele>433.79999999999995</ele><time>2026-04-04T12:05:10.104Z</time></trkpt><trkpt lat="44.495555" lon="8.5220617"><ele>433.59999999999997</ele><time>2026-04-04T12:05:11.1Z</time></trkpt><trkpt lat="44.4956383" lon="8.521985"><ele>433.4</ele><time>2026-04-04T12:05:12.099Z</time></trkpt><trkpt lat="44.4957067" lon="8.5218783"><ele>433.2</ele><time>2026-04-04T12:05:13.102Z</time></trkpt><trkpt lat="44.4957617" lon="8.521745"><ele>433.0</ele><time>2026-04-04T12:05:14.101Z</time></trkpt><trkpt lat="44.4958067" lon="8.5215933"><ele>433.0</ele><time>2026-04-04T12:05:15.101Z</time></trkpt><trkpt lat="44.49585" lon="8.52143"><ele>433.0</ele><time>2026-04-04T12:05:16.102Z</time></trkpt><trkpt lat="44.495885" lon="8.5212633"><ele>433.0</ele><time>2026-04-04T12:05:17.103Z</time></trkpt><trkpt lat="44.4959" lon="8.5210917"><ele>433.0</ele><time>2026-04-04T12:05:18.101Z</time></trkpt><trkpt lat="44.4959083" lon="8.52091"><ele>433.0</ele><time>2026-04-04T12:05:19.104Z</time></trkpt><trkpt lat="44.495905" lon="8.5207333"><ele>433.0</ele><time>2026-04-04T12:05:20.107Z</time></trkpt><trkpt lat="44.4959" lon="8.5205667"><ele>433.0</ele><time>2026-04-04T12:05:21.101Z</time></trkpt><trkpt lat="44.495895" lon="8.5204"><ele>433.0</ele><time>2026-04-04T12:05:22.105Z</time></trkpt><trkpt lat="44.4958983" lon="8.5202233"><ele>432.75</ele><time>2026-04-04T12:05:23.103Z</time></trkpt><trkpt lat="44.4958767" lon="8.520065"><ele>432.5</ele><time>2026-04-04T12:05:24.107Z</time></trkpt><trkpt lat="44.49584" lon="8.519885"><ele>432.25</ele><time>2026-04-04T12:05:25.101Z</time></trkpt><trkpt lat="44.4957767" lon="8.5196817"><ele>432.0</ele><time>2026-04-04T12:05:26.101Z</time></trkpt><trkpt lat="44.4956967" lon="8.5194483"><ele>433.0</ele><time>2026-04-04T12:05:27.105Z</time></trkpt><trkpt lat="44.495605" lon="8.51919"><ele>434.0</ele><time>2026-04-04T12:05:28.106Z</time></trkpt><trkpt lat="44.4955233" lon="8.5189167"><ele>435.0</ele><time>2026-04-04T12:05:29.103Z</time></trkpt><trkpt lat="44.49544" lon="8.5186517"><ele>433.66666666666663</ele><time>2026-04-04T12:05:30.102Z</time></trkpt><trkpt lat="44.4953533" lon="8.5183917"><ele>432.3333333333333</ele><time>2026-04-04T12:05:31.101Z</time></trkpt><trkpt lat="44.495265" lon="8.5181367"><ele>431.0</ele><time>2026-04-04T12:05:32.098Z</time></trkpt><trkpt lat="44.49518" lon="8.5178883"><ele>431.0</ele><time>2026-04-04T12:05:33.105Z</time></trkpt><trkpt lat="44.4951117" lon="8.517615"><ele>431.0</ele><time>2026-04-04T12:05:34.108Z</time></trkpt><trkpt lat="44.4950317" lon="8.5173733"><ele>431.0</ele><time>2026-04-04T12:05:35.103Z</time></trkpt><trkpt lat="44.4949467" lon="8.517145"><ele>432.66666666666663</ele><time>2026-04-04T12:05:36.106Z</time></trkpt><trkpt lat="44.4948517" lon="8.5169233"><ele>434.33333333333337</ele><time>2026-04-04T12:05:37.104Z</time></trkpt><trkpt lat="44.4947467" lon="8.5167083"><ele>436.0</ele><time>2026-04-04T12:05:38.102Z</time></trkpt><trkpt lat="44.4946317" lon="8.5165017"><ele>434.0</ele><time>2026-04-04T12:05:39.101Z</time></trkpt><trkpt lat="44.4945117" lon="8.516285"><ele>432.0</ele><time>2026-04-04T12:05:40.102Z</time></trkpt><trkpt lat="44.4944033" lon="8.5160767"><ele>430.0</ele><time>2026-04-04T12:05:41.104Z</time></trkpt><trkpt lat="44.4943067" lon="8.5158433"><ele>430.0</ele><time>2026-04-04T12:05:42.101Z</time></trkpt><trkpt lat="44.4942167" lon="8.5156317"><ele>430.0</ele><time>2026-04-04T12:05:43.107Z</time></trkpt><trkpt lat="44.4941417" lon="8.5154317"><ele>430.0</ele><time>2026-04-04T12:05:44.104Z</time></trkpt><trkpt lat="44.4940333" lon="8.51531"><ele>428.75</ele><time>2026-04-04T12:05:45.105Z</time></trkpt><trkpt lat="44.4939233" lon="8.5152017"><ele>427.5</ele><time>2026-04-04T12:05:46.103Z</time></trkpt><trkpt lat="44.4938067" lon="8.51511"><ele>426.25</ele><time>2026-04-04T12:05:47.104Z</time></trkpt><trkpt lat="44.49368" lon="8.5150433"><ele>425.0</ele><time>2026-04-04T12:05:48.107Z</time></trkpt><trkpt lat="44.4935433" lon="8.5149967"><ele>425.0</ele><time>2026-04-04T12:05:49.109Z</time></trkpt><trkpt lat="44.4934067" lon="8.5149667"><ele>425.0</ele><time>2026-04-04T12:05:50.106Z</time></trkpt><trkpt lat="44.4932667" lon="8.5149383"><ele>425.0</ele><time>2026-04-04T12:05:51.103Z</time></trkpt><trkpt lat="44.4931417" lon="8.51491"><ele>425.0</ele><time>2026-04-04T12:05:52.116Z</time></trkpt><trkpt lat="44.4930367" lon="8.5148767"><ele>425.0</ele><time>2026-04-04T12:05:53.107Z</time></trkpt><trkpt lat="44.492955" lon="8.51482"><ele>425.0</ele><time>2026-04-04T12:05:54.111Z</time></trkpt><trkpt lat="44.49288" lon="8.5147533"><ele>425.0</ele><time>2026-04-04T12:05:55.1Z</time></trkpt><trkpt lat="44.4928067" lon="8.5146717"><ele>425.0</ele><time>2026-04-04T12:05:56.105Z</time></trkpt><trkpt lat="44.492775" lon="8.5145"><ele>425.0</ele><time>2026-04-04T12:05:57.105Z</time></trkpt><trkpt lat="44.4927383" lon="8.514315"><ele>423.3333333333333</ele><time>2026-04-04T12:05:58.101Z</time></trkpt><trkpt lat="44.4926883" lon="8.5141183"><ele>421.66666666666663</ele><time>2026-04-04T12:05:59.102Z</time></trkpt><trkpt lat="44.4926283" lon="8.5139017"><ele>420.0</ele><time>2026-04-04T12:06:00.099Z</time></trkpt><trkpt lat="44.492555" lon="8.5136767"><ele>420.0</ele><time>2026-04-04T12:06:01.103Z</time></trkpt><trkpt lat="44.49247" lon="8.5134567"><ele>420.0</ele><time>2026-04-04T12:06:02.103Z</time></trkpt><trkpt lat="44.4923767" lon="8.5132317"><ele>420.0</ele><time>2026-04-04T12:06:03.103Z</time></trkpt><trkpt lat="44.49228" lon="8.5130067"><ele>420.66666666666663</ele><time>2026-04-04T12:06:04.104Z</time></trkpt><trkpt lat="44.4921833" lon="8.5127883"><ele>421.3333333333333</ele><time>2026-04-04T12:06:05.107Z</time></trkpt><trkpt lat="44.492095" lon="8.5125617"><ele>422.0</ele><time>2026-04-04T12:06:06.104Z</time></trkpt><trkpt lat="44.492" lon="8.512355"><ele>420.0</ele><time>2026-04-04T12:06:07.105Z</time></trkpt><trkpt lat="44.4918883" lon="8.51217"><ele>418.0</ele><time>2026-04-04T12:06:08.101Z</time></trkpt><trkpt lat="44.4917883" lon="8.5119767"><ele>416.0</ele><time>2026-04-04T12:06:09.101Z</time></trkpt><trkpt lat="44.4916833" lon="8.5117933"><ele>416.0</ele><time>2026-04-04T12:06:10.1Z</time></trkpt><trkpt lat="44.4915733" lon="8.51162"><ele>416.0</ele><time>2026-04-04T12:06:11.104Z</time></trkpt><trkpt lat="44.4914633" lon="8.5114433"><ele>416.0</ele><time>2026-04-04T12:06:12.105Z</time></trkpt><trkpt lat="44.4913517" lon="8.5112733"><ele>415.3333333333333</ele><time>2026-04-04T12:06:13.1Z</time></trkpt><trkpt lat="44.49124" lon="8.511105"><ele>414.66666666666663</ele><time>2026-04-04T12:06:14.1Z</time></trkpt><trkpt lat="44.4911333" lon="8.5109283"><ele>414.0</ele><time>2026-04-04T12:06:15.103Z</time></trkpt><trkpt lat="44.49102" lon="8.5107533"><ele>414.0</ele><time>2026-04-04T12:06:16.098Z</time></trkpt><trkpt lat="44.4909" lon="8.510575"><ele>414.0</ele><time>2026-04-04T12:06:17.107Z</time></trkpt><trkpt lat="44.490775" lon="8.510395"><ele>414.0</ele><time>2026-04-04T12:06:18.102Z</time></trkpt><trkpt lat="44.4906517" lon="8.51021"><ele>414.33333333333337</ele><time>2026-04-04T12:06:19.104Z</time></trkpt><trkpt lat="44.49053" lon="8.5100267"><ele>414.6666666666667</ele><time>2026-04-04T12:06:20.099Z</time></trkpt><trkpt lat="44.4904283" lon="8.5098083"><ele>415.0</ele><time>2026-04-04T12:06:21.106Z</time></trkpt><trkpt lat="44.4903167" lon="8.5096217"><ele>413.0</ele><time>2026-04-04T12:06:22.1Z</time></trkpt><trkpt lat="44.49022" lon="8.5094183"><ele>411.0</ele><time>2026-04-04T12:06:23.101Z</time></trkpt><trkpt lat="44.4901483" lon="8.5092017"><ele>409.0</ele><time>2026-04-04T12:06:24.105Z</time></trkpt><trkpt lat="44.4901067" lon="8.5089567"><ele>408.6666666666667</ele><time>2026-04-04T12:06:25.103Z</time></trkpt><trkpt lat="44.4900483" lon="8.50874"><ele>408.33333333333337</ele><time>2026-04-04T12:06:26.104Z</time></trkpt><trkpt lat="44.489975" lon="8.5085083"><ele>408.0</ele><time>2026-04-04T12:06:27.103Z</time></trkpt><trkpt lat="44.4898933" lon="8.5082767"><ele>408.0</ele><time>2026-04-04T12:06:28.106Z</time></trkpt><trkpt lat="44.489805" lon="8.5080467"><ele>408.0</ele><time>2026-04-04T12:06:29.1Z</time></trkpt><trkpt lat="44.489715" lon="8.5078133"><ele>408.0</ele><time>2026-04-04T12:06:30.105Z</time></trkpt><trkpt lat="44.4896133" lon="8.5076"><ele>405.0</ele><time>2026-04-04T12:06:31.107Z</time></trkpt><trkpt lat="44.489505" lon="8.5073817"><ele>402.0</ele><time>2026-04-04T12:06:32.103Z</time></trkpt><trkpt lat="44.4894067" lon="8.5071467"><ele>399.0</ele><time>2026-04-04T12:06:33.1Z</time></trkpt><trkpt lat="44.489315" lon="8.506915"><ele>398.66666666666663</ele><time>2026-04-04T12:06:34.1Z</time></trkpt><trkpt lat="44.4892333" lon="8.506685"><ele>398.3333333333333</ele><time>2026-04-04T12:06:35.102Z</time></trkpt><trkpt lat="44.48915" lon="8.5064683"><ele>398.0</ele><time>2026-04-04T12:06:36.098Z</time></trkpt><trkpt lat="44.48907" lon="8.50625"><ele>397.0</ele><time>2026-04-04T12:06:37.104Z</time></trkpt><trkpt lat="44.48897" lon="8.5060467"><ele>396.0</ele><time>2026-04-04T12:06:38.099Z</time></trkpt><trkpt lat="44.48884" lon="8.5058767"><ele>395.0</ele><time>2026-04-04T12:06:39.1Z</time></trkpt><trkpt lat="44.48869" lon="8.5057217"><ele>395.0</ele><time>2026-04-04T12:06:40.103Z</time></trkpt><trkpt lat="44.4885233" lon="8.5055933"><ele>395.0</ele><time>2026-04-04T12:06:41.099Z</time></trkpt><trkpt lat="44.48837" lon="8.5054683"><ele>395.0</ele><time>2026-04-04T12:06:42.104Z</time></trkpt><trkpt lat="44.4882267" lon="8.5053433"><ele>394.3333333333333</ele><time>2026-04-04T12:06:43.104Z</time></trkpt><trkpt lat="44.48809" lon="8.505215"><ele>393.66666666666663</ele><time>2026-04-04T12:06:44.103Z</time></trkpt><trkpt lat="44.487955" lon="8.505105"><ele>393.0</ele><time>2026-04-04T12:06:45.101Z</time></trkpt><trkpt lat="44.4878317" lon="8.5049833"><ele>393.0</ele><time>2026-04-04T12:06:46.104Z</time></trkpt><trkpt lat="44.4877" lon="8.5049017"><ele>393.0</ele><time>2026-04-04T12:06:47.102Z</time></trkpt><trkpt lat="44.4875783" lon="8.5048067"><ele>393.0</ele><time>2026-04-04T12:06:48.107Z</time></trkpt><trkpt lat="44.487455" lon="8.5047267"><ele>393.0</ele><time>2026-04-04T12:06:49.104Z</time></trkpt><trkpt lat="44.487335" lon="8.50466"><ele>393.0</ele><time>2026-04-04T12:06:50.105Z</time></trkpt><trkpt lat="44.4872083" lon="8.50464"><ele>393.0</ele><time>2026-04-04T12:06:51.103Z</time></trkpt><trkpt lat="44.487085" lon="8.5046683"><ele>393.0</ele><time>2026-04-04T12:06:52.1Z</time></trkpt><trkpt lat="44.4869733" lon="8.504735"><ele>393.0</ele><time>2026-04-04T12:06:53.101Z</time></trkpt><trkpt lat="44.4868733" lon="8.5048483"><ele>392.25</ele><time>2026-04-04T12:06:54.104Z</time></trkpt><trkpt lat="44.4867783" lon="8.5049933"><ele>391.5</ele><time>2026-04-04T12:06:55.104Z</time></trkpt><trkpt lat="44.4866817" lon="8.5051183"><ele>390.75</ele><time>2026-04-04T12:06:56.1Z</time></trkpt><trkpt lat="44.48658" lon="8.5052"><ele>390.0</ele><time>2026-04-04T12:06:57.103Z</time></trkpt><trkpt lat="44.4864733" lon="8.5052117"><ele>390.0</ele><time>2026-04-04T12:06:58.105Z</time></trkpt><trkpt lat="44.4863583" lon="8.505165"><ele>390.0</ele><time>2026-04-04T12:06:59.1Z</time></trkpt><trkpt lat="44.4862533" lon="8.5050717"><ele>390.0</ele><time>2026-04-04T12:07:00.104Z</time></trkpt><trkpt lat="44.4861433" lon="8.5049467"><ele>390.0</ele><time>2026-04-04T12:07:01.1Z</time></trkpt><trkpt lat="44.4860283" lon="8.5047967"><ele>390.0</ele><time>2026-04-04T12:07:02.103Z</time></trkpt><trkpt lat="44.4859117" lon="8.5046383"><ele>390.0</ele><time>2026-04-04T12:07:03.1Z</time></trkpt><trkpt lat="44.4857933" lon="8.5044767"><ele>390.0</ele><time>2026-04-04T12:07:04.104Z</time></trkpt><trkpt lat="44.4856783" lon="8.5043167"><ele>390.0</ele><time>2026-04-04T12:07:05.1Z</time></trkpt><trkpt lat="44.485565" lon="8.5041633"><ele>390.0</ele><time>2026-04-04T12:07:06.1Z</time></trkpt><trkpt lat="44.4854617" lon="8.5040167"><ele>390.0</ele><time>2026-04-04T12:07:07.105Z</time></trkpt><trkpt lat="44.4853617" lon="8.5038883"><ele>390.0</ele><time>2026-04-04T12:07:08.101Z</time></trkpt><trkpt lat="44.485265" lon="8.5037883"><ele>390.0</ele><time>2026-04-04T12:07:09.1Z</time></trkpt><trkpt lat="44.48517" lon="8.5037333"><ele>390.0</ele><time>2026-04-04T12:07:10.105Z</time></trkpt><trkpt lat="44.4850933" lon="8.5037117"><ele>390.0</ele><time>2026-04-04T12:07:11.106Z</time></trkpt><trkpt lat="44.485015" lon="8.5037333"><ele>390.0</ele><time>2026-04-04T12:07:12.102Z</time></trkpt><trkpt lat="44.4849583" lon="8.5038283"><ele>390.0</ele><time>2026-04-04T12:07:13.105Z</time></trkpt><trkpt lat="44.4849033" lon="8.5039183"><ele>390.0</ele><time>2026-04-04T12:07:14.104Z</time></trkpt><trkpt lat="44.4848433" lon="8.5040117"><ele>390.0</ele><time>2026-04-04T12:07:15.103Z</time></trkpt><trkpt lat="44.4847533" lon="8.50407"><ele>390.0</ele><time>2026-04-04T12:07:16.108Z</time></trkpt><trkpt lat="44.4846467" lon="8.5040967"><ele>390.0</ele><time>2026-04-04T12:07:17.106Z</time></trkpt><trkpt lat="44.484535" lon="8.50409"><ele>390.0</ele><time>2026-04-04T12:07:18.105Z</time></trkpt><trkpt lat="44.4844217" lon="8.5040567"><ele>390.0</ele><time>2026-04-04T12:07:19.107Z</time></trkpt><trkpt lat="44.48431" lon="8.5040017"><ele>390.2</ele><time>2026-04-04T12:07:20.107Z</time></trkpt><trkpt lat="44.484205" lon="8.50393"><ele>390.4</ele><time>2026-04-04T12:07:21.109Z</time></trkpt><trkpt lat="44.4841167" lon="8.5038417"><ele>390.6</ele><time>2026-04-04T12:07:22.102Z</time></trkpt><trkpt lat="44.48405" lon="8.50375"><ele>390.8</ele><time>2026-04-04T12:07:23.108Z</time></trkpt><trkpt lat="44.484" lon="8.50365"><ele>391.0</ele><time>2026-04-04T12:07:24.101Z</time></trkpt><trkpt lat="44.48398" lon="8.5035433"><ele>391.0</ele><time>2026-04-04T12:07:25.104Z</time></trkpt><trkpt lat="44.4839717" lon="8.5034183"><ele>391.0</ele><time>2026-04-04T12:07:26.1Z</time></trkpt><trkpt lat="44.484015" lon="8.5032617"><ele>391.0</ele><time>2026-04-04T12:07:27.1Z</time></trkpt><trkpt lat="44.48404" lon="8.503075"><ele>391.0</ele><time>2026-04-04T12:07:28.102Z</time></trkpt><trkpt lat="44.4840233" lon="8.50289"><ele>390.0</ele><time>2026-04-04T12:07:29.102Z</time></trkpt><trkpt lat="44.4840017" lon="8.50269"><ele>389.0</ele><time>2026-04-04T12:07:30.103Z</time></trkpt><trkpt lat="44.483975" lon="8.5024733"><ele>388.0</ele><time>2026-04-04T12:07:31.104Z</time></trkpt><trkpt lat="44.4839383" lon="8.50226"><ele>388.0</ele><time>2026-04-04T12:07:32.102Z</time></trkpt><trkpt lat="44.48389" lon="8.5020533"><ele>388.0</ele><time>2026-04-04T12:07:33.103Z</time></trkpt><trkpt lat="44.4838333" lon="8.5018583"><ele>388.0</ele><time>2026-04-04T12:07:34.102Z</time></trkpt><trkpt lat="44.483755" lon="8.501685"><ele>388.0</ele><time>2026-04-04T12:07:35.104Z</time></trkpt><trkpt lat="44.4836667" lon="8.5015283"><ele>388.0</ele><time>2026-04-04T12:07:36.103Z</time></trkpt><trkpt lat="44.4835967" lon="8.5013617"><ele>388.0</ele><time>2026-04-04T12:07:37.106Z</time></trkpt><trkpt lat="44.483555" lon="8.5011783"><ele>388.0</ele><time>2026-04-04T12:07:38.101Z</time></trkpt><trkpt lat="44.4835267" lon="8.5009867"><ele>387.25</ele><time>2026-04-04T12:07:39.104Z</time></trkpt><trkpt lat="44.48351" lon="8.5007883"><ele>386.5</ele><time>2026-04-04T12:07:40.105Z</time></trkpt><trkpt lat="44.4834967" lon="8.5005883"><ele>385.75</ele><time>2026-04-04T12:07:41.105Z</time></trkpt><trkpt lat="44.4834817" lon="8.5003967"><ele>385.0</ele><time>2026-04-04T12:07:42.107Z</time></trkpt><trkpt lat="44.4834683" lon="8.50021"><ele>385.0</ele><time>2026-04-04T12:07:43.105Z</time></trkpt><trkpt lat="44.4834417" lon="8.5000333"><ele>385.0</ele><time>2026-04-04T12:07:44.104Z</time></trkpt><trkpt lat="44.4834033" lon="8.499865"><ele>385.0</ele><time>2026-04-04T12:07:45.104Z</time></trkpt><trkpt lat="44.4833517" lon="8.4996983"><ele>385.0</ele><time>2026-04-04T12:07:46.105Z</time></trkpt><trkpt lat="44.4832833" lon="8.4995433"><ele>384.5</ele><time>2026-04-04T12:07:47.103Z</time></trkpt><trkpt lat="44.4832117" lon="8.49939"><ele>384.0</ele><time>2026-04-04T12:07:48.105Z</time></trkpt><trkpt lat="44.483135" lon="8.4992467"><ele>383.5</ele><time>2026-04-04T12:07:49.101Z</time></trkpt><trkpt lat="44.48306" lon="8.499095"><ele>383.0</ele><time>2026-04-04T12:07:50.102Z</time></trkpt><trkpt lat="44.4829817" lon="8.4989483"><ele>383.75</ele><time>2026-04-04T12:07:51.099Z</time></trkpt><trkpt lat="44.4829033" lon="8.4987967"><ele>384.5</ele><time>2026-04-04T12:07:52.099Z</time></trkpt><trkpt lat="44.48283" lon="8.4986433"><ele>385.25</ele><time>2026-04-04T12:07:53.1Z</time></trkpt><trkpt lat="44.4827633" lon="8.4984867"><ele>386.0</ele><time>2026-04-04T12:07:54.106Z</time></trkpt><trkpt lat="44.482695" lon="8.4983283"><ele>386.0</ele><time>2026-04-04T12:07:55.1Z</time></trkpt><trkpt lat="44.482635" lon="8.4981683"><ele>386.0</ele><time>2026-04-04T12:07:56.105Z</time></trkpt><trkpt lat="44.482575" lon="8.4980083"><ele>386.0</ele><time>2026-04-04T12:07:57.104Z</time></trkpt><trkpt lat="44.4825267" lon="8.4978517"><ele>386.0</ele><time>2026-04-04T12:07:58.103Z</time></trkpt><trkpt lat="44.4824783" lon="8.4976883"><ele>385.5</ele><time>2026-04-04T12:07:59.11Z</time></trkpt><trkpt lat="44.482425" lon="8.4975233"><ele>385.0</ele><time>2026-04-04T12:08:00.1Z</time></trkpt><trkpt lat="44.4823717" lon="8.49736"><ele>384.5</ele><time>2026-04-04T12:08:01.103Z</time></trkpt><trkpt lat="44.4823233" lon="8.4971967"><ele>384.0</ele><time>2026-04-04T12:08:02.103Z</time></trkpt><trkpt lat="44.4822683" lon="8.4970417"><ele>383.25</ele><time>2026-04-04T12:08:03.101Z</time></trkpt><trkpt lat="44.4822117" lon="8.4968833"><ele>382.5</ele><time>2026-04-04T12:08:04.103Z</time></trkpt><trkpt lat="44.4821567" lon="8.4967333"><ele>381.75</ele><time>2026-04-04T12:08:05.101Z</time></trkpt><trkpt lat="44.482105" lon="8.4965867"><ele>381.0</ele><time>2026-04-04T12:08:06.109Z</time></trkpt><trkpt lat="44.4820483" lon="8.4964383"><ele>382.0</ele><time>2026-04-04T12:08:07.107Z</time></trkpt><trkpt lat="44.4819883" lon="8.49629"><ele>383.0</ele><time>2026-04-04T12:08:08.1Z</time></trkpt><trkpt lat="44.4819217" lon="8.4961417"><ele>384.0</ele><time>2026-04-04T12:08:09.101Z</time></trkpt><trkpt lat="44.4818583" lon="8.4959967"><ele>385.0</ele><time>2026-04-04T12:08:10.099Z</time></trkpt><trkpt lat="44.48179" lon="8.4958417"><ele>385.0</ele><time>2026-04-04T12:08:11.105Z</time></trkpt><trkpt lat="44.4817267" lon="8.495685"><ele>385.0</ele><time>2026-04-04T12:08:12.101Z</time></trkpt><trkpt lat="44.4816617" lon="8.495525"><ele>385.0</ele><time>2026-04-04T12:08:13.1Z</time></trkpt><trkpt lat="44.4815933" lon="8.4953667"><ele>385.0</ele><time>2026-04-04T12:08:14.1Z</time></trkpt><trkpt lat="44.4815167" lon="8.495215"><ele>383.25</ele><time>2026-04-04T12:08:15.099Z</time></trkpt><trkpt lat="44.481425" lon="8.49507"><ele>381.5</ele><time>2026-04-04T12:08:16.109Z</time></trkpt><trkpt lat="44.48132" lon="8.4949317"><ele>379.75</ele><time>2026-04-04T12:08:17.105Z</time></trkpt><trkpt lat="44.48121" lon="8.49481"><ele>378.0</ele><time>2026-04-04T12:08:18.104Z</time></trkpt><trkpt lat="44.4810883" lon="8.4946967"><ele>378.5</ele><time>2026-04-04T12:08:19.103Z</time></trkpt><trkpt lat="44.4809617" lon="8.4945933"><ele>379.0</ele><time>2026-04-04T12:08:20.111Z</time></trkpt><trkpt lat="44.48084" lon="8.494485"><ele>379.5</ele><time>2026-04-04T12:08:21.104Z</time></trkpt><trkpt lat="44.4807167" lon="8.4943767"><ele>380.0</ele><time>2026-04-04T12:08:22.102Z</time></trkpt><trkpt lat="44.4805967" lon="8.49427"><ele>380.0</ele><time>2026-04-04T12:08:23.101Z</time></trkpt><trkpt lat="44.480475" lon="8.4941633"><ele>380.0</ele><time>2026-04-04T12:08:24.1Z</time></trkpt><trkpt lat="44.4803583" lon="8.494055"><ele>380.0</ele><time>2026-04-04T12:08:25.105Z</time></trkpt><trkpt lat="44.480255" lon="8.4939333"><ele>380.0</ele><time>2026-04-04T12:08:26.105Z</time></trkpt><trkpt lat="44.4801617" lon="8.4937967"><ele>382.5</ele><time>2026-04-04T12:08:27.1Z</time></trkpt><trkpt lat="44.48009" lon="8.4936467"><ele>385.0</ele><time>2026-04-04T12:08:28.103Z</time></trkpt><trkpt lat="44.48004" lon="8.493485"><ele>387.5</ele><time>2026-04-04T12:08:29.1Z</time></trkpt><trkpt lat="44.47999" lon="8.4933233"><ele>390.0</ele><time>2026-04-04T12:08:30.108Z</time></trkpt><trkpt lat="44.47995" lon="8.49316"><ele>390.0</ele><time>2026-04-04T12:08:31.103Z</time></trkpt><trkpt lat="44.4799083" lon="8.4930033"><ele>390.0</ele><time>2026-04-04T12:08:32.102Z</time></trkpt><trkpt lat="44.479865" lon="8.4928467"><ele>390.0</ele><time>2026-04-04T12:08:33.099Z</time></trkpt><trkpt lat="44.4798317" lon="8.492685"><ele>390.0</ele><time>2026-04-04T12:08:34.099Z</time></trkpt><trkpt lat="44.4797933" lon="8.4925333"><ele>388.8</ele><time>2026-04-04T12:08:35.109Z</time></trkpt><trkpt lat="44.4797567" lon="8.4923833"><ele>387.6</ele><time>2026-04-04T12:08:36.099Z</time></trkpt><trkpt lat="44.4797183" lon="8.4922367"><ele>386.4</ele><time>2026-04-04T12:08:37.102Z</time></trkpt><trkpt lat="44.4796783" lon="8.4920867"><ele>385.2</ele><time>2026-04-04T12:08:38.1Z</time></trkpt><trkpt lat="44.47964" lon="8.491945"><ele>384.0</ele><time>2026-04-04T12:08:39.103Z</time></trkpt><trkpt lat="44.47961" lon="8.4918"><ele>384.79999999999995</ele><time>2026-04-04T12:08:40.103Z</time></trkpt><trkpt lat="44.4795867" lon="8.491665"><ele>385.59999999999997</ele><time>2026-04-04T12:08:41.104Z</time></trkpt><trkpt lat="44.4795583" lon="8.4915317"><ele>386.4</ele><time>2026-04-04T12:08:42.103Z</time></trkpt><trkpt lat="44.4795367" lon="8.491395"><ele>387.2</ele><time>2026-04-04T12:08:43.104Z</time></trkpt><trkpt lat="44.479515" lon="8.4912567"><ele>388.0</ele><time>2026-04-04T12:08:44.104Z</time></trkpt><trkpt lat="44.4794967" lon="8.4911217"><ele>388.0</ele><time>2026-04-04T12:08:45.109Z</time></trkpt><trkpt lat="44.479475" lon="8.49099"><ele>388.0</ele><time>2026-04-04T12:08:46.103Z</time></trkpt><trkpt lat="44.4794583" lon="8.4908567"><ele>388.0</ele><time>2026-04-04T12:08:47.102Z</time></trkpt><trkpt lat="44.4794433" lon="8.4907283"><ele>388.0</ele><time>2026-04-04T12:08:48.107Z</time></trkpt><trkpt lat="44.4794367" lon="8.490605"><ele>388.0</ele><time>2026-04-04T12:08:49.104Z</time></trkpt><trkpt lat="44.4794283" lon="8.4904967"><ele>388.2</ele><time>2026-04-04T12:08:50.102Z</time></trkpt><trkpt lat="44.479425" lon="8.4904067"><ele>388.4</ele><time>2026-04-04T12:08:51.096Z</time></trkpt><trkpt lat="44.4794383" lon="8.4902783"><ele>388.59999999999997</ele><time>2026-04-04T12:08:53.103Z</time></trkpt><trkpt lat="44.4795217" lon="8.4902367"><ele>388.79999999999995</ele><time>2026-04-04T12:08:55.105Z</time></trkpt><trkpt lat="44.4796533" lon="8.4902267"><ele>389.0</ele><time>2026-04-04T12:08:57.097Z</time></trkpt><trkpt lat="44.4797483" lon="8.4902217"><ele>386.0</ele><time>2026-04-04T12:08:58.099Z</time></trkpt><trkpt lat="44.4798617" lon="8.490215"><ele>383.0</ele><time>2026-04-04T12:08:59.101Z</time></trkpt><trkpt lat="44.47999" lon="8.490205"><ele>380.0</ele><time>2026-04-04T12:09:00.102Z</time></trkpt><trkpt lat="44.4801233" lon="8.4902017"><ele>377.0</ele><time>2026-04-04T12:09:01.1Z</time></trkpt><trkpt lat="44.4802567" lon="8.4902"><ele>377.0</ele><time>2026-04-04T12:09:02.103Z</time></trkpt><trkpt lat="44.480395" lon="8.4902017"><ele>377.0</ele><time>2026-04-04T12:09:03.103Z</time></trkpt><trkpt lat="44.4805383" lon="8.4902017"><ele>377.0</ele><time>2026-04-04T12:09:04.1Z</time></trkpt><trkpt lat="44.480685" lon="8.4902017"><ele>377.0</ele><time>2026-04-04T12:09:05.105Z</time></trkpt><trkpt lat="44.4808383" lon="8.4902"><ele>375.25</ele><time>2026-04-04T12:09:06.101Z</time></trkpt><trkpt lat="44.4809933" lon="8.4901917"><ele>373.5</ele><time>2026-04-04T12:09:07.103Z</time></trkpt><trkpt lat="44.4811383" lon="8.4901833"><ele>371.75</ele><time>2026-04-04T12:09:08.102Z</time></trkpt><trkpt lat="44.4812733" lon="8.49018"><ele>370.0</ele><time>2026-04-04T12:09:09.099Z</time></trkpt><trkpt lat="44.4814017" lon="8.4901967"><ele>370.0</ele><time>2026-04-04T12:09:10.104Z</time></trkpt><trkpt lat="44.4815217" lon="8.4902433"><ele>370.0</ele><time>2026-04-04T12:09:11.101Z</time></trkpt><trkpt lat="44.4816267" lon="8.490335"><ele>370.0</ele><time>2026-04-04T12:09:12.101Z</time></trkpt><trkpt lat="44.4817267" lon="8.4904533"><ele>370.0</ele><time>2026-04-04T12:09:13.102Z</time></trkpt><trkpt lat="44.48181" lon="8.490615"><ele>371.66666666666663</ele><time>2026-04-04T12:09:14.104Z</time></trkpt><trkpt lat="44.481875" lon="8.4908033"><ele>373.3333333333333</ele><time>2026-04-04T12:09:15.099Z</time></trkpt><trkpt lat="44.4819133" lon="8.4910217"><ele>375.0</ele><time>2026-04-04T12:09:16.103Z</time></trkpt><trkpt lat="44.4819367" lon="8.4912467"><ele>375.3333333333333</ele><time>2026-04-04T12:09:17.099Z</time></trkpt><trkpt lat="44.4819617" lon="8.49147"><ele>375.66666666666663</ele><time>2026-04-04T12:09:18.099Z</time></trkpt><trkpt lat="44.48198" lon="8.4917033"><ele>376.0</ele><time>2026-04-04T12:09:19.1Z</time></trkpt><trkpt lat="44.4819983" lon="8.49193"><ele>375.25</ele><time>2026-04-04T12:09:20.099Z</time></trkpt><trkpt lat="44.4820133" lon="8.49215"><ele>374.5</ele><time>2026-04-04T12:09:21.099Z</time></trkpt><trkpt lat="44.4820483" lon="8.49234"><ele>373.75</ele><time>2026-04-04T12:09:22.102Z</time></trkpt><trkpt lat="44.482095" lon="8.49251"><ele>373.0</ele><time>2026-04-04T12:09:23.109Z</time></trkpt><trkpt lat="44.482175" lon="8.492645"><ele>373.0</ele><time>2026-04-04T12:09:24.101Z</time></trkpt><trkpt lat="44.4822833" lon="8.4927517"><ele>373.0</ele><time>2026-04-04T12:09:25.101Z</time></trkpt><trkpt lat="44.4824067" lon="8.4928233"><ele>373.0</ele><time>2026-04-04T12:09:26.101Z</time></trkpt><trkpt lat="44.4825333" lon="8.4928933"><ele>373.0</ele><time>2026-04-04T12:09:27.103Z</time></trkpt><trkpt lat="44.48267" lon="8.492955"><ele>373.0</ele><time>2026-04-04T12:09:28.107Z</time></trkpt><trkpt lat="44.4828167" lon="8.492995"><ele>373.0</ele><time>2026-04-04T12:09:29.1Z</time></trkpt><trkpt lat="44.4829717" lon="8.493015"><ele>373.0</ele><time>2026-04-04T12:09:30.102Z</time></trkpt><trkpt lat="44.48311" lon="8.49304"><ele>373.0</ele><time>2026-04-04T12:09:31.104Z</time></trkpt><trkpt lat="44.483235" lon="8.4930833"><ele>376.0</ele><time>2026-04-04T12:09:32.104Z</time></trkpt><trkpt lat="44.483335" lon="8.49315"><ele>379.0</ele><time>2026-04-04T12:09:33.1Z</time></trkpt><trkpt lat="44.48341" lon="8.4932567"><ele>382.0</ele><time>2026-04-04T12:09:34.102Z</time></trkpt><trkpt lat="44.483465" lon="8.49339"><ele>385.0</ele><time>2026-04-04T12:09:35.099Z</time></trkpt><trkpt lat="44.4834983" lon="8.493545"><ele>388.0</ele><time>2026-04-04T12:09:36.102Z</time></trkpt><trkpt lat="44.483505" lon="8.493735"><ele>387.4</ele><time>2026-04-04T12:09:37.102Z</time></trkpt><trkpt lat="44.4835183" lon="8.4939033"><ele>386.79999999999995</ele><time>2026-04-04T12:09:38.097Z</time></trkpt><trkpt lat="44.4835433" lon="8.4940567"><ele>386.2</ele><time>2026-04-04T12:09:39.097Z</time></trkpt><trkpt lat="44.4835983" lon="8.4941867"><ele>385.6</ele><time>2026-04-04T12:09:40.099Z</time></trkpt><trkpt lat="44.4836683" lon="8.4942983"><ele>385.0</ele><time>2026-04-04T12:09:41.098Z</time></trkpt><trkpt lat="44.4837667" lon="8.4944067"><ele>385.75</ele><time>2026-04-04T12:09:42.1Z</time></trkpt><trkpt lat="44.4838767" lon="8.494515"><ele>386.5</ele><time>2026-04-04T12:09:43.101Z</time></trkpt><trkpt lat="44.4839883" lon="8.4946367"><ele>387.25</ele><time>2026-04-04T12:09:44.104Z</time></trkpt><trkpt lat="44.4840867" lon="8.494755"><ele>388.0</ele><time>2026-04-04T12:09:45.101Z</time></trkpt><trkpt lat="44.4841883" lon="8.4948533"><ele>388.0</ele><time>2026-04-04T12:09:46.104Z</time></trkpt><trkpt lat="44.4843017" lon="8.494925"><ele>388.0</ele><time>2026-04-04T12:09:47.102Z</time></trkpt><trkpt lat="44.484425" lon="8.494965"><ele>388.0</ele><time>2026-04-04T12:09:48.099Z</time></trkpt><trkpt lat="44.4845467" lon="8.4949783"><ele>388.0</ele><time>2026-04-04T12:09:49.104Z</time></trkpt><trkpt lat="44.4846533" lon="8.4950183"><ele>391.25</ele><time>2026-04-04T12:09:50.101Z</time></trkpt><trkpt lat="44.484765" lon="8.49506"><ele>394.5</ele><time>2026-04-04T12:09:51.099Z</time></trkpt><trkpt lat="44.4848317" lon="8.4951817"><ele>397.75</ele><time>2026-04-04T12:09:52.101Z</time></trkpt><trkpt lat="44.48487" lon="8.495325"><ele>401.0</ele><time>2026-04-04T12:09:53.104Z</time></trkpt><trkpt lat="44.4848767" lon="8.49549"><ele>401.0</ele><time>2026-04-04T12:09:54.099Z</time></trkpt><trkpt lat="44.4848583" lon="8.4956717"><ele>401.0</ele><time>2026-04-04T12:09:55.1Z</time></trkpt><trkpt lat="44.4848533" lon="8.4958183"><ele>401.0</ele><time>2026-04-04T12:09:56.099Z</time></trkpt><trkpt lat="44.484845" lon="8.4959867"><ele>401.0</ele><time>2026-04-04T12:09:57.103Z</time></trkpt><trkpt lat="44.4848683" lon="8.4961483"><ele>401.0</ele><time>2026-04-04T12:09:58.099Z</time></trkpt><trkpt lat="44.4849317" lon="8.4963083"><ele>401.0</ele><time>2026-04-04T12:09:59.104Z</time></trkpt><trkpt lat="44.4850217" lon="8.49646"><ele>401.0</ele><time>2026-04-04T12:10:00.109Z</time></trkpt><trkpt lat="44.48513" lon="8.4966017"><ele>401.0</ele><time>2026-04-04T12:10:01.104Z</time></trkpt><trkpt lat="44.4852567" lon="8.49673"><ele>401.0</ele><time>2026-04-04T12:10:02.097Z</time></trkpt><trkpt lat="44.4854083" lon="8.4968433"><ele>401.0</ele><time>2026-04-04T12:10:03.1Z</time></trkpt><trkpt lat="44.4855667" lon="8.49695"><ele>401.0</ele><time>2026-04-04T12:10:04.098Z</time></trkpt><trkpt lat="44.4857317" lon="8.4970383"><ele>404.3333333333333</ele><time>2026-04-04T12:10:05.103Z</time></trkpt><trkpt lat="44.4859" lon="8.4971033"><ele>407.66666666666663</ele><time>2026-04-04T12:10:06.103Z</time></trkpt><trkpt lat="44.4860733" lon="8.4971633"><ele>411.0</ele><time>2026-04-04T12:10:07.104Z</time></trkpt><trkpt lat="44.4862433" lon="8.497215"><ele>411.75</ele><time>2026-04-04T12:10:08.105Z</time></trkpt><trkpt lat="44.4864033" lon="8.4972467"><ele>412.5</ele><time>2026-04-04T12:10:09.097Z</time></trkpt><trkpt lat="44.4865483" lon="8.497245"><ele>413.25</ele><time>2026-04-04T12:10:10.1Z</time></trkpt><trkpt lat="44.4866783" lon="8.497215"><ele>414.0</ele><time>2026-04-04T12:10:11.102Z</time></trkpt><trkpt lat="44.4868217" lon="8.49715"><ele>415.66666666666663</ele><time>2026-04-04T12:10:12.102Z</time></trkpt><trkpt lat="44.48697" lon="8.4970767"><ele>417.3333333333333</ele><time>2026-04-04T12:10:13.1Z</time></trkpt><trkpt lat="44.4871133" lon="8.497015"><ele>419.0</ele><time>2026-04-04T12:10:14.097Z</time></trkpt><trkpt lat="44.4872533" lon="8.49697"><ele>418.75</ele><time>2026-04-04T12:10:15.109Z</time></trkpt><trkpt lat="44.4873917" lon="8.4969267"><ele>418.5</ele><time>2026-04-04T12:10:16.099Z</time></trkpt><trkpt lat="44.48751" lon="8.4969733"><ele>418.25</ele><time>2026-04-04T12:10:17.105Z</time></trkpt><trkpt lat="44.4876417" lon="8.497045"><ele>418.0</ele><time>2026-04-04T12:10:18.103Z</time></trkpt><trkpt lat="44.4877717" lon="8.49713"><ele>418.0</ele><time>2026-04-04T12:10:19.1Z</time></trkpt><trkpt lat="44.4878433" lon="8.4972217"><ele>418.0</ele><time>2026-04-04T12:10:20.1Z</time></trkpt><trkpt lat="44.487885" lon="8.4973417"><ele>418.0</ele><time>2026-04-04T12:10:21.099Z</time></trkpt><trkpt lat="44.4879317" lon="8.49745"><ele>418.0</ele><time>2026-04-04T12:10:22.099Z</time></trkpt><trkpt lat="44.4879883" lon="8.497535"><ele>418.0</ele><time>2026-04-04T12:10:23.104Z</time></trkpt><trkpt lat="44.4880583" lon="8.4976083"><ele>416.79999999999995</ele><time>2026-04-04T12:10:24.099Z</time></trkpt><trkpt lat="44.488135" lon="8.497665"><ele>415.6</ele><time>2026-04-04T12:10:25.1Z</time></trkpt><trkpt lat="44.4882333" lon="8.4976783"><ele>414.4</ele><time>2026-04-04T12:10:26.099Z</time></trkpt><trkpt lat="44.4883367" lon="8.4976667"><ele>413.20000000000005</ele><time>2026-04-04T12:10:27.097Z</time></trkpt><trkpt lat="44.488445" lon="8.4976183"><ele>412.0</ele><time>2026-04-04T12:10:28.101Z</time></trkpt><trkpt lat="44.4885683" lon="8.497465"><ele>412.0</ele><time>2026-04-04T12:10:29.101Z</time></trkpt><trkpt lat="44.488665" lon="8.4973917"><ele>412.0</ele><time>2026-04-04T12:10:30.103Z</time></trkpt><trkpt lat="44.48876" lon="8.49741"><ele>412.0</ele><time>2026-04-04T12:10:31.102Z</time></trkpt><trkpt lat="44.4888517" lon="8.4975167"><ele>412.0</ele><time>2026-04-04T12:10:32.102Z</time></trkpt><trkpt lat="44.4889267" lon="8.4976483"><ele>412.0</ele><time>2026-04-04T12:10:33.105Z</time></trkpt><trkpt lat="44.489025" lon="8.4977483"><ele>408.0</ele><time>2026-04-04T12:10:34.099Z</time></trkpt><trkpt lat="44.489135" lon="8.4978217"><ele>404.0</ele><time>2026-04-04T12:10:35.1Z</time></trkpt><trkpt lat="44.4892517" lon="8.4978633"><ele>400.0</ele><time>2026-04-04T12:10:36.105Z</time></trkpt><trkpt lat="44.4893683" lon="8.4978583"><ele>396.0</ele><time>2026-04-04T12:10:37.104Z</time></trkpt><trkpt lat="44.48949" lon="8.4978017"><ele>396.0</ele><time>2026-04-04T12:10:38.103Z</time></trkpt><trkpt lat="44.4895917" lon="8.4976983"><ele>396.0</ele><time>2026-04-04T12:10:39.109Z</time></trkpt><trkpt lat="44.4896833" lon="8.4975583"><ele>396.0</ele><time>2026-04-04T12:10:40.1Z</time></trkpt><trkpt lat="44.489775" lon="8.4974167"><ele>396.0</ele><time>2026-04-04T12:10:41.099Z</time></trkpt><trkpt lat="44.4898717" lon="8.4972967"><ele>395.5</ele><time>2026-04-04T12:10:42.104Z</time></trkpt><trkpt lat="44.48998" lon="8.4972033"><ele>395.0</ele><time>2026-04-04T12:10:43.099Z</time></trkpt><trkpt lat="44.4900967" lon="8.4971433"><ele>394.5</ele><time>2026-04-04T12:10:44.101Z</time></trkpt><trkpt lat="44.490215" lon="8.4971217"><ele>394.0</ele><time>2026-04-04T12:10:45.099Z</time></trkpt><trkpt lat="44.490345" lon="8.4971067"><ele>391.75</ele><time>2026-04-04T12:10:46.102Z</time></trkpt><trkpt lat="44.4904767" lon="8.4970767"><ele>389.5</ele><time>2026-04-04T12:10:47.106Z</time></trkpt><trkpt lat="44.4905817" lon="8.4970033"><ele>387.25</ele><time>2026-04-04T12:10:48.098Z</time></trkpt><trkpt lat="44.49064" lon="8.49686"><ele>385.0</ele><time>2026-04-04T12:10:49.103Z</time></trkpt><trkpt lat="44.4906783" lon="8.4967083"><ele>385.00000000000006</ele><time>2026-04-04T12:10:50.099Z</time></trkpt><trkpt lat="44.4906983" lon="8.49657"><ele>385.0</ele><time>2026-04-04T12:10:51.098Z</time></trkpt><trkpt lat="44.4907233" lon="8.4964617"><ele>385.0</ele><time>2026-04-04T12:10:52.105Z</time></trkpt><trkpt lat="44.4907533" lon="8.496365"><ele>385.0</ele><time>2026-04-04T12:10:53.1Z</time></trkpt><trkpt lat="44.490835" lon="8.4963433"><ele>385.00000000000006</ele><time>2026-04-04T12:10:54.098Z</time></trkpt><trkpt lat="44.4909217" lon="8.49633"><ele>385.0</ele><time>2026-04-04T12:10:55.1Z</time></trkpt><trkpt lat="44.491015" lon="8.496325"><ele>385.0</ele><time>2026-04-04T12:10:56.105Z</time></trkpt><trkpt lat="44.4910983" lon="8.49632"><ele>385.0</ele><time>2026-04-04T12:10:57.103Z</time></trkpt><trkpt lat="44.4912" lon="8.4963717"><ele>385.0</ele><time>2026-04-04T12:10:58.102Z</time></trkpt><trkpt lat="44.4912667" lon="8.4964483"><ele>385.0</ele><time>2026-04-04T12:10:59.102Z</time></trkpt><trkpt lat="44.491325" lon="8.4965217"><ele>385.0</ele><time>2026-04-04T12:11:00.105Z</time></trkpt><trkpt lat="44.4913083" lon="8.4966733"><ele>385.83333333333337</ele><time>2026-04-04T12:11:01.102Z</time></trkpt><trkpt lat="44.4913183" lon="8.4967933"><ele>386.6666666666667</ele><time>2026-04-04T12:11:02.103Z</time></trkpt><trkpt lat="44.49134" lon="8.4969033"><ele>387.5</ele><time>2026-04-04T12:11:03.103Z</time></trkpt><trkpt lat="44.4913633" lon="8.4969983"><ele>388.33333333333337</ele><time>2026-04-04T12:11:04.099Z</time></trkpt><trkpt lat="44.4914067" lon="8.49708"><ele>389.1666666666667</ele><time>2026-04-04T12:11:05.109Z</time></trkpt><trkpt lat="44.4914567" lon="8.4971367"><ele>390.0</ele><time>2026-04-04T12:11:06.101Z</time></trkpt><trkpt lat="44.49153" lon="8.49713"><ele>387.8333333333333</ele><time>2026-04-04T12:11:07.1Z</time></trkpt><trkpt lat="44.4916083" lon="8.4970733"><ele>385.6666666666667</ele><time>2026-04-04T12:11:08.098Z</time></trkpt><trkpt lat="44.49168" lon="8.4970567"><ele>383.5</ele><time>2026-04-04T12:11:09.1Z</time></trkpt><trkpt lat="44.4917517" lon="8.497025"><ele>381.33333333333337</ele><time>2026-04-04T12:11:10.098Z</time></trkpt><trkpt lat="44.4918317" lon="8.4969733"><ele>379.1666666666667</ele><time>2026-04-04T12:11:11.1Z</time></trkpt><trkpt lat="44.49191" lon="8.49694"><ele>377.0</ele><time>2026-04-04T12:11:12.1Z</time></trkpt><trkpt lat="44.4919883" lon="8.496895"><ele>377.0</ele><time>2026-04-04T12:11:13.107Z</time></trkpt><trkpt lat="44.4920667" lon="8.4968417"><ele>377.0</ele><time>2026-04-04T12:11:14.101Z</time></trkpt><trkpt lat="44.4921433" lon="8.49676"><ele>377.0</ele><time>2026-04-04T12:11:15.098Z</time></trkpt><trkpt lat="44.49221" lon="8.4966717"><ele>377.0</ele><time>2026-04-04T12:11:16.101Z</time></trkpt><trkpt lat="44.4922733" lon="8.4965967"><ele>377.0</ele><time>2026-04-04T12:11:17.103Z</time></trkpt><trkpt lat="44.49234" lon="8.496535"><ele>377.0</ele><time>2026-04-04T12:11:18.102Z</time></trkpt><trkpt lat="44.4924017" lon="8.4964883"><ele>376.6</ele><time>2026-04-04T12:11:19.102Z</time></trkpt><trkpt lat="44.4925183" lon="8.496525"><ele>376.20000000000005</ele><time>2026-04-04T12:11:21.101Z</time></trkpt><trkpt lat="44.4926333" lon="8.4966283"><ele>375.8</ele><time>2026-04-04T12:11:23.107Z</time></trkpt><trkpt lat="44.492695" lon="8.496685"><ele>375.4</ele><time>2026-04-04T12:11:24.106Z</time></trkpt><trkpt lat="44.4927567" lon="8.49675"><ele>375.0</ele><time>2026-04-04T12:11:25.101Z</time></trkpt><trkpt lat="44.4928233" lon="8.4968"><ele>375.0</ele><time>2026-04-04T12:11:26.105Z</time></trkpt><trkpt lat="44.4928967" lon="8.49685"><ele>375.0</ele><time>2026-04-04T12:11:27.102Z</time></trkpt><trkpt lat="44.4929783" lon="8.4968783"><ele>375.0</ele><time>2026-04-04T12:11:28.107Z</time></trkpt><trkpt lat="44.4930633" lon="8.4968917"><ele>375.0</ele><time>2026-04-04T12:11:29.104Z</time></trkpt><trkpt lat="44.4931517" lon="8.496895"><ele>375.0</ele><time>2026-04-04T12:11:30.105Z</time></trkpt><trkpt lat="44.49325" lon="8.4968883"><ele>375.0</ele><time>2026-04-04T12:11:31.109Z</time></trkpt><trkpt lat="44.4933767" lon="8.496865"><ele>372.3333333333333</ele><time>2026-04-04T12:11:32.102Z</time></trkpt><trkpt lat="44.4935283" lon="8.4968367"><ele>369.66666666666663</ele><time>2026-04-04T12:11:33.098Z</time></trkpt><trkpt lat="44.4936883" lon="8.49677"><ele>367.0</ele><time>2026-04-04T12:11:34.102Z</time></trkpt><trkpt lat="44.493845" lon="8.4966833"><ele>366.66666666666663</ele><time>2026-04-04T12:11:35.101Z</time></trkpt><trkpt lat="44.4940017" lon="8.4966067"><ele>366.3333333333333</ele><time>2026-04-04T12:11:36.099Z</time></trkpt><trkpt lat="44.49416" lon="8.49655"><ele>366.0</ele><time>2026-04-04T12:11:37.107Z</time></trkpt><trkpt lat="44.49431" lon="8.4964783"><ele>366.0</ele><time>2026-04-04T12:11:38.101Z</time></trkpt><trkpt lat="44.494445" lon="8.4964033"><ele>366.0</ele><time>2026-04-04T12:11:39.1Z</time></trkpt><trkpt lat="44.4945767" lon="8.49634"><ele>366.0</ele><time>2026-04-04T12:11:40.1Z</time></trkpt><trkpt lat="44.494715" lon="8.496315"><ele>366.0</ele><time>2026-04-04T12:11:41.101Z</time></trkpt><trkpt lat="44.4948633" lon="8.4963133"><ele>366.6666666666667</ele><time>2026-04-04T12:11:42.104Z</time></trkpt><trkpt lat="44.4950283" lon="8.4963067"><ele>367.33333333333337</ele><time>2026-04-04T12:11:43.102Z</time></trkpt><trkpt lat="44.4951967" lon="8.4962983"><ele>368.0</ele><time>2026-04-04T12:11:44.104Z</time></trkpt><trkpt lat="44.4953717" lon="8.496295"><ele>364.6666666666667</ele><time>2026-04-04T12:11:45.1Z</time></trkpt><trkpt lat="44.4955417" lon="8.4962933"><ele>361.3333333333333</ele><time>2026-04-04T12:11:46.103Z</time></trkpt><trkpt lat="44.4957067" lon="8.4962983"><ele>358.0</ele><time>2026-04-04T12:11:47.101Z</time></trkpt><trkpt lat="44.495885" lon="8.49628"><ele>358.0</ele><time>2026-04-04T12:11:48.1Z</time></trkpt><trkpt lat="44.4960583" lon="8.4962633"><ele>358.0</ele><time>2026-04-04T12:11:49.099Z</time></trkpt><trkpt lat="44.4962383" lon="8.4962317"><ele>358.0</ele><time>2026-04-04T12:11:50.102Z</time></trkpt><trkpt lat="44.496415" lon="8.4961967"><ele>356.3333333333333</ele><time>2026-04-04T12:11:51.099Z</time></trkpt><trkpt lat="44.496595" lon="8.4961667"><ele>354.6666666666667</ele><time>2026-04-04T12:11:52.107Z</time></trkpt><trkpt lat="44.496775" lon="8.496135"><ele>353.0</ele><time>2026-04-04T12:11:53.105Z</time></trkpt><trkpt lat="44.496955" lon="8.4961033"><ele>352.33333333333337</ele><time>2026-04-04T12:11:54.099Z</time></trkpt><trkpt lat="44.4971283" lon="8.496065"><ele>351.6666666666667</ele><time>2026-04-04T12:11:55.097Z</time></trkpt><trkpt lat="44.4972833" lon="8.4960333"><ele>351.0</ele><time>2026-04-04T12:11:56.099Z</time></trkpt><trkpt lat="44.497425" lon="8.4959817"><ele>351.0</ele><time>2026-04-04T12:11:57.104Z</time></trkpt><trkpt lat="44.497555" lon="8.49589"><ele>351.0</ele><time>2026-04-04T12:11:58.103Z</time></trkpt><trkpt lat="44.497665" lon="8.49576"><ele>351.0</ele><time>2026-04-04T12:11:59.098Z</time></trkpt><trkpt lat="44.4977567" lon="8.495605"><ele>351.0</ele><time>2026-04-04T12:12:00.101Z</time></trkpt><trkpt lat="44.4978333" lon="8.4954417"><ele>350.5</ele><time>2026-04-04T12:12:01.103Z</time></trkpt><trkpt lat="44.4978983" lon="8.495285"><ele>350.0</ele><time>2026-04-04T12:12:02.1Z</time></trkpt><trkpt lat="44.497965" lon="8.4951283"><ele>349.5</ele><time>2026-04-04T12:12:03.102Z</time></trkpt><trkpt lat="44.4980317" lon="8.4949733"><ele>349.0</ele><time>2026-04-04T12:12:04.102Z</time></trkpt><trkpt lat="44.498095" lon="8.49482"><ele>349.75</ele><time>2026-04-04T12:12:05.104Z</time></trkpt><trkpt lat="44.4981583" lon="8.4946683"><ele>350.5</ele><time>2026-04-04T12:12:06.102Z</time></trkpt><trkpt lat="44.49822" lon="8.4945167"><ele>351.25</ele><time>2026-04-04T12:12:07.101Z</time></trkpt><trkpt lat="44.4982783" lon="8.4943683"><ele>352.0</ele><time>2026-04-04T12:12:08.107Z</time></trkpt><trkpt lat="44.4983367" lon="8.49422"><ele>352.0</ele><time>2026-04-04T12:12:09.107Z</time></trkpt><trkpt lat="44.498395" lon="8.49407"><ele>352.0</ele><time>2026-04-04T12:12:10.1Z</time></trkpt><trkpt lat="44.4984533" lon="8.4939217"><ele>352.0</ele><time>2026-04-04T12:12:11.109Z</time></trkpt><trkpt lat="44.4985133" lon="8.4937733"><ele>352.0</ele><time>2026-04-04T12:12:12.1Z</time></trkpt><trkpt lat="44.4985733" lon="8.4936217"><ele>351.5</ele><time>2026-04-04T12:12:13.105Z</time></trkpt><trkpt lat="44.4986317" lon="8.4934683"><ele>351.0</ele><time>2026-04-04T12:12:14.102Z</time></trkpt><trkpt lat="44.4986983" lon="8.4933183"><ele>350.5</ele><time>2026-04-04T12:12:15.1Z</time></trkpt><trkpt lat="44.4987667" lon="8.49317"><ele>350.0</ele><time>2026-04-04T12:12:16.1Z</time></trkpt><trkpt lat="44.4988333" lon="8.4930183"><ele>349.25</ele><time>2026-04-04T12:12:17.1Z</time></trkpt><trkpt lat="44.4988983" lon="8.4928717"><ele>348.5</ele><time>2026-04-04T12:12:18.103Z</time></trkpt><trkpt lat="44.49896" lon="8.4927217"><ele>347.75</ele><time>2026-04-04T12:12:19.099Z</time></trkpt><trkpt lat="44.4990233" lon="8.4925717"><ele>347.0</ele><time>2026-04-04T12:12:20.099Z</time></trkpt><trkpt lat="44.4990867" lon="8.49242"><ele>347.0</ele><time>2026-04-04T12:12:21.097Z</time></trkpt><trkpt lat="44.4991517" lon="8.49227"><ele>347.0</ele><time>2026-04-04T12:12:22.101Z</time></trkpt><trkpt lat="44.4992133" lon="8.4921183"><ele>347.0</ele><time>2026-04-04T12:12:23.103Z</time></trkpt><trkpt lat="44.4992767" lon="8.4919617"><ele>347.0</ele><time>2026-04-04T12:12:24.104Z</time></trkpt><trkpt lat="44.49934" lon="8.4918017"><ele>346.5</ele><time>2026-04-04T12:12:25.103Z</time></trkpt><trkpt lat="44.4993967" lon="8.4916417"><ele>346.0</ele><time>2026-04-04T12:12:26.102Z</time></trkpt><trkpt lat="44.499465" lon="8.49149"><ele>345.5</ele><time>2026-04-04T12:12:27.1Z</time></trkpt><trkpt lat="44.4995267" lon="8.4913333"><ele>345.0</ele><time>2026-04-04T12:12:28.1Z</time></trkpt><trkpt lat="44.4995867" lon="8.4911717"><ele>344.75</ele><time>2026-04-04T12:12:29.103Z</time></trkpt><trkpt lat="44.4996483" lon="8.4910117"><ele>344.5</ele><time>2026-04-04T12:12:30.102Z</time></trkpt><trkpt lat="44.4997067" lon="8.4908567"><ele>344.25</ele><time>2026-04-04T12:12:31.105Z</time></trkpt><trkpt lat="44.49976" lon="8.490695"><ele>344.0</ele><time>2026-04-04T12:12:32.101Z</time></trkpt><trkpt lat="44.4998083" lon="8.4905333"><ele>344.0</ele><time>2026-04-04T12:12:33.107Z</time></trkpt><trkpt lat="44.499855" lon="8.49037"><ele>344.0</ele><time>2026-04-04T12:12:34.1Z</time></trkpt><trkpt lat="44.4998983" lon="8.4902"><ele>344.0</ele><time>2026-04-04T12:12:35.101Z</time></trkpt><trkpt lat="44.499945" lon="8.4900283"><ele>344.0</ele><time>2026-04-04T12:12:36.1Z</time></trkpt><trkpt lat="44.4999883" lon="8.489855"><ele>344.0</ele><time>2026-04-04T12:12:37.104Z</time></trkpt><trkpt lat="44.5000333" lon="8.4896817"><ele>344.0</ele><time>2026-04-04T12:12:38.103Z</time></trkpt><trkpt lat="44.5000783" lon="8.4895017"><ele>344.0</ele><time>2026-04-04T12:12:39.105Z</time></trkpt><trkpt lat="44.5001267" lon="8.4893183"><ele>344.0</ele><time>2026-04-04T12:12:40.098Z</time></trkpt><trkpt lat="44.500175" lon="8.4891333"><ele>344.25</ele><time>2026-04-04T12:12:41.107Z</time></trkpt><trkpt lat="44.5002233" lon="8.488945"><ele>344.5</ele><time>2026-04-04T12:12:42.101Z</time></trkpt><trkpt lat="44.5002683" lon="8.4887583"><ele>344.75</ele><time>2026-04-04T12:12:43.101Z</time></trkpt><trkpt lat="44.5003167" lon="8.488575"><ele>345.0</ele><time>2026-04-04T12:12:44.1Z</time></trkpt><trkpt lat="44.5003733" lon="8.4883883"><ele>346.0</ele><time>2026-04-04T12:12:45.099Z</time></trkpt><trkpt lat="44.50043" lon="8.4881917"><ele>347.0</ele><time>2026-04-04T12:12:46.101Z</time></trkpt><trkpt lat="44.5004917" lon="8.4879767"><ele>348.0</ele><time>2026-04-04T12:12:47.104Z</time></trkpt><trkpt lat="44.50055" lon="8.48776"><ele>348.0</ele><time>2026-04-04T12:12:48.102Z</time></trkpt><trkpt lat="44.5006083" lon="8.4875283"><ele>348.0</ele><time>2026-04-04T12:12:49.103Z</time></trkpt><trkpt lat="44.5006683" lon="8.4872867"><ele>348.0</ele><time>2026-04-04T12:12:50.1Z</time></trkpt><trkpt lat="44.5007317" lon="8.487045"><ele>347.6666666666667</ele><time>2026-04-04T12:12:51.101Z</time></trkpt><trkpt lat="44.50079" lon="8.4868033"><ele>347.33333333333337</ele><time>2026-04-04T12:12:52.101Z</time></trkpt><trkpt lat="44.500855" lon="8.48656"><ele>347.0</ele><time>2026-04-04T12:12:53.102Z</time></trkpt><trkpt lat="44.500925" lon="8.4863167"><ele>345.6666666666667</ele><time>2026-04-04T12:12:54.103Z</time></trkpt><trkpt lat="44.5009867" lon="8.4860767"><ele>344.3333333333333</ele><time>2026-04-04T12:12:55.103Z</time></trkpt><trkpt lat="44.5010517" lon="8.4858467"><ele>343.0</ele><time>2026-04-04T12:12:56.102Z</time></trkpt><trkpt lat="44.5011133" lon="8.4856267"><ele>342.75</ele><time>2026-04-04T12:12:57.101Z</time></trkpt><trkpt lat="44.5011667" lon="8.4854267"><ele>342.5</ele><time>2026-04-04T12:12:58.105Z</time></trkpt><trkpt lat="44.50123" lon="8.4852417"><ele>342.25</ele><time>2026-04-04T12:12:59.104Z</time></trkpt><trkpt lat="44.501315" lon="8.485085"><ele>342.0</ele><time>2026-04-04T12:13:00.106Z</time></trkpt><trkpt lat="44.50141" lon="8.484965"><ele>342.0</ele><time>2026-04-04T12:13:01.103Z</time></trkpt><trkpt lat="44.50153" lon="8.4848733"><ele>342.0</ele><time>2026-04-04T12:13:02.106Z</time></trkpt><trkpt lat="44.50166" lon="8.4847983"><ele>342.0</ele><time>2026-04-04T12:13:03.1Z</time></trkpt><trkpt lat="44.501805" lon="8.4847267"><ele>342.0</ele><time>2026-04-04T12:13:04.1Z</time></trkpt><trkpt lat="44.5019517" lon="8.4846533"><ele>340.0</ele><time>2026-04-04T12:13:05.101Z</time></trkpt><trkpt lat="44.5020967" lon="8.4845867"><ele>338.0</ele><time>2026-04-04T12:13:06.1Z</time></trkpt><trkpt lat="44.5022433" lon="8.48452"><ele>336.0</ele><time>2026-04-04T12:13:07.103Z</time></trkpt><trkpt lat="44.502385" lon="8.48445"><ele>336.0</ele><time>2026-04-04T12:13:08.103Z</time></trkpt><trkpt lat="44.5025267" lon="8.4843783"><ele>336.0</ele><time>2026-04-04T12:13:09.103Z</time></trkpt><trkpt lat="44.50267" lon="8.4843067"><ele>336.0</ele><time>2026-04-04T12:13:10.1Z</time></trkpt><trkpt lat="44.502815" lon="8.484235"><ele>335.6666666666667</ele><time>2026-04-04T12:13:11.099Z</time></trkpt><trkpt lat="44.5029583" lon="8.4841617"><ele>335.33333333333337</ele><time>2026-04-04T12:13:12.099Z</time></trkpt><trkpt lat="44.5031017" lon="8.4840917"><ele>335.0</ele><time>2026-04-04T12:13:13.099Z</time></trkpt><trkpt lat="44.5032483" lon="8.4840167"><ele>335.0</ele><time>2026-04-04T12:13:14.101Z</time></trkpt><trkpt lat="44.5033983" lon="8.4839433"><ele>335.0</ele><time>2026-04-04T12:13:15.102Z</time></trkpt><trkpt lat="44.5035467" lon="8.4838683"><ele>335.0</ele><time>2026-04-04T12:13:16.103Z</time></trkpt><trkpt lat="44.503695" lon="8.483795"><ele>335.33333333333337</ele><time>2026-04-04T12:13:17.101Z</time></trkpt><trkpt lat="44.50385" lon="8.4837167"><ele>335.6666666666667</ele><time>2026-04-04T12:13:18.102Z</time></trkpt><trkpt lat="44.5040067" lon="8.48364"><ele>336.0</ele><time>2026-04-04T12:13:19.103Z</time></trkpt><trkpt lat="44.5041633" lon="8.4835583"><ele>336.0</ele><time>2026-04-04T12:13:20.103Z</time></trkpt><trkpt lat="44.5043183" lon="8.4834733"><ele>336.0</ele><time>2026-04-04T12:13:21.101Z</time></trkpt><trkpt lat="44.504475" lon="8.48339"><ele>336.0</ele><time>2026-04-04T12:13:22.1Z</time></trkpt><trkpt lat="44.5046367" lon="8.4833117"><ele>337.3333333333333</ele><time>2026-04-04T12:13:23.106Z</time></trkpt><trkpt lat="44.5047983" lon="8.483225"><ele>338.66666666666663</ele><time>2026-04-04T12:13:24.107Z</time></trkpt><trkpt lat="44.5049617" lon="8.4831417"><ele>340.0</ele><time>2026-04-04T12:13:25.1Z</time></trkpt><trkpt lat="44.5051233" lon="8.48306"><ele>340.0</ele><time>2026-04-04T12:13:26.099Z</time></trkpt><trkpt lat="44.50528" lon="8.4829817"><ele>340.0</ele><time>2026-04-04T12:13:27.107Z</time></trkpt><trkpt lat="44.5054267" lon="8.4829133"><ele>340.0</ele><time>2026-04-04T12:13:28.103Z</time></trkpt><trkpt lat="44.5055717" lon="8.4828683"><ele>339.75</ele><time>2026-04-04T12:13:29.103Z</time></trkpt><trkpt lat="44.50571" lon="8.48286"><ele>339.5</ele><time>2026-04-04T12:13:30.101Z</time></trkpt><trkpt lat="44.5058383" lon="8.482845"><ele>339.25</ele><time>2026-04-04T12:13:31.103Z</time></trkpt><trkpt lat="44.5059567" lon="8.4828317"><ele>339.0</ele><time>2026-04-04T12:13:32.1Z</time></trkpt><trkpt lat="44.5060717" lon="8.4827867"><ele>339.0</ele><time>2026-04-04T12:13:33.103Z</time></trkpt><trkpt lat="44.5061883" lon="8.4826817"><ele>339.0</ele><time>2026-04-04T12:13:34.101Z</time></trkpt><trkpt lat="44.5062867" lon="8.4825633"><ele>339.0</ele><time>2026-04-04T12:13:35.105Z</time></trkpt><trkpt lat="44.5063767" lon="8.4824533"><ele>339.0</ele><time>2026-04-04T12:13:36.103Z</time></trkpt><trkpt lat="44.5064583" lon="8.4823617"><ele>338.6</ele><time>2026-04-04T12:13:37.102Z</time></trkpt><trkpt lat="44.5065333" lon="8.4822883"><ele>338.2</ele><time>2026-04-04T12:13:38.103Z</time></trkpt><trkpt lat="44.5066217" lon="8.4822483"><ele>337.8</ele><time>2026-04-04T12:13:39.104Z</time></trkpt><trkpt lat="44.5067117" lon="8.4822283"><ele>337.40000000000003</ele><time>2026-04-04T12:13:40.1Z</time></trkpt><trkpt lat="44.506825" lon="8.4822383"><ele>337.0</ele><time>2026-04-04T12:13:41.101Z</time></trkpt><trkpt lat="44.50694" lon="8.48227"><ele>337.0</ele><time>2026-04-04T12:13:42.106Z</time></trkpt><trkpt lat="44.5070667" lon="8.4823283"><ele>337.0</ele><time>2026-04-04T12:13:43.101Z</time></trkpt><trkpt lat="44.507195" lon="8.4823717"><ele>337.0</ele><time>2026-04-04T12:13:44.102Z</time></trkpt><trkpt lat="44.5073217" lon="8.4824033"><ele>337.0</ele><time>2026-04-04T12:13:45.108Z</time></trkpt><trkpt lat="44.50746" lon="8.4824167"><ele>337.75</ele><time>2026-04-04T12:13:46.102Z</time></trkpt><trkpt lat="44.5075833" lon="8.4824083"><ele>338.5</ele><time>2026-04-04T12:13:47.1Z</time></trkpt><trkpt lat="44.5076983" lon="8.4823567"><ele>339.25</ele><time>2026-04-04T12:13:48.102Z</time></trkpt><trkpt lat="44.50783" lon="8.482285"><ele>340.0</ele><time>2026-04-04T12:13:49.099Z</time></trkpt><trkpt lat="44.50793" lon="8.482175"><ele>340.25</ele><time>2026-04-04T12:13:50.099Z</time></trkpt><trkpt lat="44.508025" lon="8.4820517"><ele>340.5</ele><time>2026-04-04T12:13:51.1Z</time></trkpt><trkpt lat="44.5081233" lon="8.4819333"><ele>340.75</ele><time>2026-04-04T12:13:52.099Z</time></trkpt><trkpt lat="44.5082383" lon="8.4818417"><ele>341.0</ele><time>2026-04-04T12:13:53.102Z</time></trkpt><trkpt lat="44.508355" lon="8.4817667"><ele>341.0</ele><time>2026-04-04T12:13:54.103Z</time></trkpt><trkpt lat="44.5084883" lon="8.48168"><ele>341.0</ele><time>2026-04-04T12:13:55.101Z</time></trkpt><trkpt lat="44.5086183" lon="8.4815767"><ele>341.0</ele><time>2026-04-04T12:13:56.101Z</time></trkpt><trkpt lat="44.508735" lon="8.4814467"><ele>341.0</ele><time>2026-04-04T12:13:57.102Z</time></trkpt><trkpt lat="44.5088433" lon="8.481295"><ele>338.6666666666667</ele><time>2026-04-04T12:13:58.102Z</time></trkpt><trkpt lat="44.5089533" lon="8.481125"><ele>336.3333333333333</ele><time>2026-04-04T12:13:59.103Z</time></trkpt><trkpt lat="44.5090433" lon="8.4809483"><ele>334.0</ele><time>2026-04-04T12:14:00.102Z</time></trkpt><trkpt lat="44.5091183" lon="8.48077"><ele>334.0</ele><time>2026-04-04T12:14:01.104Z</time></trkpt><trkpt lat="44.5091883" lon="8.48058"><ele>334.0</ele><time>2026-04-04T12:14:02.106Z</time></trkpt><trkpt lat="44.5092517" lon="8.4803767"><ele>334.0</ele><time>2026-04-04T12:14:03.099Z</time></trkpt><trkpt lat="44.5093133" lon="8.4801583"><ele>336.3333333333333</ele><time>2026-04-04T12:14:04.101Z</time></trkpt><trkpt lat="44.5093683" lon="8.4799333"><ele>338.6666666666667</ele><time>2026-04-04T12:14:05.102Z</time></trkpt><trkpt lat="44.5094217" lon="8.4796967"><ele>341.0</ele><time>2026-04-04T12:14:06.101Z</time></trkpt><trkpt lat="44.5094733" lon="8.4794533"><ele>341.0</ele><time>2026-04-04T12:14:07.103Z</time></trkpt><trkpt lat="44.5095233" lon="8.4792117"><ele>341.0</ele><time>2026-04-04T12:14:08.101Z</time></trkpt><trkpt lat="44.509575" lon="8.47895"><ele>341.0</ele><time>2026-04-04T12:14:09.101Z</time></trkpt><trkpt lat="44.5096333" lon="8.4786733"><ele>335.0</ele><time>2026-04-04T12:14:10.102Z</time></trkpt><trkpt lat="44.50969" lon="8.4783933"><ele>329.0</ele><time>2026-04-04T12:14:11.098Z</time></trkpt><trkpt lat="44.5097467" lon="8.4781067"><ele>323.0</ele><time>2026-04-04T12:14:12.099Z</time></trkpt><trkpt lat="44.5098083" lon="8.4778367"><ele>323.0</ele><time>2026-04-04T12:14:13.106Z</time></trkpt><trkpt lat="44.5098667" lon="8.4775733"><ele>323.0</ele><time>2026-04-04T12:14:14.099Z</time></trkpt><trkpt lat="44.5099267" lon="8.4773233"><ele>323.0</ele><time>2026-04-04T12:14:15.1Z</time></trkpt><trkpt lat="44.50998" lon="8.4770817"><ele>323.0</ele><time>2026-04-04T12:14:16.101Z</time></trkpt><trkpt lat="44.51003" lon="8.4768367"><ele>323.0</ele><time>2026-04-04T12:14:17.104Z</time></trkpt><trkpt lat="44.5100833" lon="8.4765933"><ele>323.0</ele><time>2026-04-04T12:14:18.102Z</time></trkpt><trkpt lat="44.5101367" lon="8.4763567"><ele>323.33333333333337</ele><time>2026-04-04T12:14:19.102Z</time></trkpt><trkpt lat="44.51019" lon="8.4761217"><ele>323.6666666666667</ele><time>2026-04-04T12:14:20.102Z</time></trkpt><trkpt lat="44.5102433" lon="8.4758917"><ele>324.0</ele><time>2026-04-04T12:14:21.105Z</time></trkpt><trkpt lat="44.5103033" lon="8.475665"><ele>323.6666666666667</ele><time>2026-04-04T12:14:22.102Z</time></trkpt><trkpt lat="44.5103667" lon="8.475435"><ele>323.33333333333337</ele><time>2026-04-04T12:14:23.106Z</time></trkpt><trkpt lat="44.5104467" lon="8.475215"><ele>323.0</ele><time>2026-04-04T12:14:24.101Z</time></trkpt><trkpt lat="44.51054" lon="8.47501"><ele>323.33333333333337</ele><time>2026-04-04T12:14:25.109Z</time></trkpt><trkpt lat="44.5106533" lon="8.4748183"><ele>323.6666666666667</ele><time>2026-04-04T12:14:26.1Z</time></trkpt><trkpt lat="44.5107833" lon="8.4746383"><ele>324.0</ele><time>2026-04-04T12:14:27.1Z</time></trkpt><trkpt lat="44.51093" lon="8.474475"><ele>324.0</ele><time>2026-04-04T12:14:28.101Z</time></trkpt><trkpt lat="44.5110883" lon="8.4743333"><ele>324.0</ele><time>2026-04-04T12:14:29.104Z</time></trkpt><trkpt lat="44.5112517" lon="8.4742183"><ele>324.0</ele><time>2026-04-04T12:14:30.108Z</time></trkpt><trkpt lat="44.5114117" lon="8.4741267"><ele>323.3333333333333</ele><time>2026-04-04T12:14:31.101Z</time></trkpt><trkpt lat="44.5115683" lon="8.4740533"><ele>322.66666666666663</ele><time>2026-04-04T12:14:32.104Z</time></trkpt><trkpt lat="44.5117167" lon="8.473995"><ele>322.0</ele><time>2026-04-04T12:14:33.1Z</time></trkpt><trkpt lat="44.51186" lon="8.47394"><ele>322.0</ele><time>2026-04-04T12:14:34.101Z</time></trkpt><trkpt lat="44.512" lon="8.4738917"><ele>322.0</ele><time>2026-04-04T12:14:35.101Z</time></trkpt><trkpt lat="44.5121367" lon="8.4738533"><ele>322.0</ele><time>2026-04-04T12:14:36.103Z</time></trkpt><trkpt lat="44.5122733" lon="8.4738083"><ele>322.0</ele><time>2026-04-04T12:14:37.099Z</time></trkpt><trkpt lat="44.512415" lon="8.4737617"><ele>321.75</ele><time>2026-04-04T12:14:38.101Z</time></trkpt><trkpt lat="44.5125583" lon="8.473715"><ele>321.5</ele><time>2026-04-04T12:14:39.099Z</time></trkpt><trkpt lat="44.5126983" lon="8.4736717"><ele>321.25</ele><time>2026-04-04T12:14:40.102Z</time></trkpt><trkpt lat="44.51284" lon="8.47363"><ele>321.0</ele><time>2026-04-04T12:14:41.102Z</time></trkpt><trkpt lat="44.51297" lon="8.4735883"><ele>320.25</ele><time>2026-04-04T12:14:42.1Z</time></trkpt><trkpt lat="44.5131083" lon="8.4735367"><ele>319.5</ele><time>2026-04-04T12:14:43.102Z</time></trkpt><trkpt lat="44.513245" lon="8.4734883"><ele>318.75</ele><time>2026-04-04T12:14:44.101Z</time></trkpt><trkpt lat="44.51339" lon="8.4734367"><ele>318.0</ele><time>2026-04-04T12:14:45.101Z</time></trkpt><trkpt lat="44.51356" lon="8.4733667"><ele>318.6666666666667</ele><time>2026-04-04T12:14:46.107Z</time></trkpt><trkpt lat="44.5137533" lon="8.4732917"><ele>319.33333333333337</ele><time>2026-04-04T12:14:47.1Z</time></trkpt><trkpt lat="44.5139717" lon="8.473215"><ele>320.0</ele><time>2026-04-04T12:14:48.104Z</time></trkpt><trkpt lat="44.5142017" lon="8.47314"><ele>320.0</ele><time>2026-04-04T12:14:49.103Z</time></trkpt><trkpt lat="44.51443" lon="8.4730667"><ele>320.0</ele><time>2026-04-04T12:14:50.101Z</time></trkpt><trkpt lat="44.514655" lon="8.4729917"><ele>323.6666666666667</ele><time>2026-04-04T12:14:51.1Z</time></trkpt><trkpt lat="44.5148683" lon="8.472915"><ele>327.3333333333333</ele><time>2026-04-04T12:14:52.099Z</time></trkpt><trkpt lat="44.515065" lon="8.4728483"><ele>331.0</ele><time>2026-04-04T12:14:53.102Z</time></trkpt><trkpt lat="44.515255" lon="8.4727867"><ele>329.0</ele><time>2026-04-04T12:14:54.101Z</time></trkpt><trkpt lat="44.51543" lon="8.4727367"><ele>327.0</ele><time>2026-04-04T12:14:55.101Z</time></trkpt><trkpt lat="44.515585" lon="8.4727"><ele>325.0</ele><time>2026-04-04T12:14:56.099Z</time></trkpt><trkpt lat="44.5157317" lon="8.4726833"><ele>325.0</ele><time>2026-04-04T12:14:57.1Z</time></trkpt><trkpt lat="44.515875" lon="8.4727033"><ele>325.0</ele><time>2026-04-04T12:14:58.099Z</time></trkpt><trkpt lat="44.5160083" lon="8.4727683"><ele>325.0</ele><time>2026-04-04T12:14:59.1Z</time></trkpt><trkpt lat="44.516125" lon="8.4728783"><ele>325.0</ele><time>2026-04-04T12:15:00.1Z</time></trkpt><trkpt lat="44.51622" lon="8.4730383"><ele>325.0</ele><time>2026-04-04T12:15:01.102Z</time></trkpt><trkpt lat="44.5163033" lon="8.4732067"><ele>325.0</ele><time>2026-04-04T12:15:02.1Z</time></trkpt><trkpt lat="44.5163867" lon="8.4733783"><ele>325.0</ele><time>2026-04-04T12:15:03.098Z</time></trkpt><trkpt lat="44.51647" lon="8.4735317"><ele>325.0</ele><time>2026-04-04T12:15:04.105Z</time></trkpt><trkpt lat="44.5165717" lon="8.4736633"><ele>323.5</ele><time>2026-04-04T12:15:05.099Z</time></trkpt><trkpt lat="44.5166917" lon="8.473775"><ele>322.0</ele><time>2026-04-04T12:15:06.101Z</time></trkpt><trkpt lat="44.5168283" lon="8.473875"><ele>320.5</ele><time>2026-04-04T12:15:07.102Z</time></trkpt><trkpt lat="44.5169567" lon="8.4739717"><ele>319.0</ele><time>2026-04-04T12:15:08.1Z</time></trkpt><trkpt lat="44.5170817" lon="8.4740767"><ele>319.0</ele><time>2026-04-04T12:15:09.103Z</time></trkpt><trkpt lat="44.5172067" lon="8.4741617"><ele>319.0</ele><time>2026-04-04T12:15:10.099Z</time></trkpt><trkpt lat="44.51733" lon="8.4742333"><ele>319.0</ele><time>2026-04-04T12:15:11.108Z</time></trkpt><trkpt lat="44.5174617" lon="8.4742583"><ele>319.0</ele><time>2026-04-04T12:15:12.1Z</time></trkpt><trkpt lat="44.51761" lon="8.4742317"><ele>319.0</ele><time>2026-04-04T12:15:13.104Z</time></trkpt><trkpt lat="44.51776" lon="8.4741783"><ele>319.0</ele><time>2026-04-04T12:15:14.106Z</time></trkpt><trkpt lat="44.5179183" lon="8.4741083"><ele>319.0</ele><time>2026-04-04T12:15:15.099Z</time></trkpt><trkpt lat="44.5180767" lon="8.4740433"><ele>319.0</ele><time>2026-04-04T12:15:16.102Z</time></trkpt><trkpt lat="44.5182467" lon="8.4739767"><ele>319.0</ele><time>2026-04-04T12:15:17.109Z</time></trkpt><trkpt lat="44.51842" lon="8.4739083"><ele>319.0</ele><time>2026-04-04T12:15:18.1Z</time></trkpt><trkpt lat="44.5185967" lon="8.4738417"><ele>319.0</ele><time>2026-04-04T12:15:19.1Z</time></trkpt><trkpt lat="44.518785" lon="8.4737617"><ele>319.0</ele><time>2026-04-04T12:15:20.105Z</time></trkpt><trkpt lat="44.5189583" lon="8.4736867"><ele>319.0</ele><time>2026-04-04T12:15:21.105Z</time></trkpt><trkpt lat="44.5191133" lon="8.473615"><ele>319.0</ele><time>2026-04-04T12:15:22.099Z</time></trkpt><trkpt lat="44.5192533" lon="8.473515"><ele>319.0</ele><time>2026-04-04T12:15:23.1Z</time></trkpt><trkpt lat="44.51937" lon="8.4733933"><ele>319.0</ele><time>2026-04-04T12:15:24.099Z</time></trkpt><trkpt lat="44.5194583" lon="8.47324"><ele>319.0</ele><time>2026-04-04T12:15:25.101Z</time></trkpt><trkpt lat="44.51952" lon="8.4730583"><ele>322.0</ele><time>2026-04-04T12:15:26.1Z</time></trkpt><trkpt lat="44.5195533" lon="8.47286"><ele>325.0</ele><time>2026-04-04T12:15:27.103Z</time></trkpt><trkpt lat="44.5195617" lon="8.4726567"><ele>328.0</ele><time>2026-04-04T12:15:28.1Z</time></trkpt><trkpt lat="44.5195467" lon="8.4724567"><ele>331.0</ele><time>2026-04-04T12:15:29.102Z</time></trkpt><trkpt lat="44.5195317" lon="8.4722617"><ele>333.5</ele><time>2026-04-04T12:15:30.1Z</time></trkpt><trkpt lat="44.5195333" lon="8.4720817"><ele>336.0</ele><time>2026-04-04T12:15:31.109Z</time></trkpt><trkpt lat="44.51956" lon="8.4719167"><ele>338.5</ele><time>2026-04-04T12:15:32.101Z</time></trkpt><trkpt lat="44.5196183" lon="8.4717667"><ele>341.0</ele><time>2026-04-04T12:15:33.102Z</time></trkpt><trkpt lat="44.5197" lon="8.4716367"><ele>333.5</ele><time>2026-04-04T12:15:34.102Z</time></trkpt><trkpt lat="44.5198183" lon="8.4715333"><ele>326.0</ele><time>2026-04-04T12:15:35.103Z</time></trkpt><trkpt lat="44.5199383" lon="8.471445"><ele>318.5</ele><time>2026-04-04T12:15:36.098Z</time></trkpt><trkpt lat="44.5200617" lon="8.471365"><ele>311.0</ele><time>2026-04-04T12:15:37.104Z</time></trkpt><trkpt lat="44.520185" lon="8.4712933"><ele>311.0</ele><time>2026-04-04T12:15:38.1Z</time></trkpt><trkpt lat="44.5203083" lon="8.4712217"><ele>311.0</ele><time>2026-04-04T12:15:39.104Z</time></trkpt><trkpt lat="44.5204233" lon="8.47113"><ele>311.0</ele><time>2026-04-04T12:15:40.103Z</time></trkpt><trkpt lat="44.52054" lon="8.4710233"><ele>311.0</ele><time>2026-04-04T12:15:41.1Z</time></trkpt><trkpt lat="44.5206533" lon="8.4708983"><ele>307.33333333333337</ele><time>2026-04-04T12:15:42.109Z</time></trkpt><trkpt lat="44.5207683" lon="8.47077"><ele>303.6666666666667</ele><time>2026-04-04T12:15:43.1Z</time></trkpt><trkpt lat="44.5208917" lon="8.4706367"><ele>300.0</ele><time>2026-04-04T12:15:44.098Z</time></trkpt><trkpt lat="44.5210133" lon="8.4705"><ele>298.0</ele><time>2026-04-04T12:15:45.1Z</time></trkpt><trkpt lat="44.5211367" lon="8.47036"><ele>296.0</ele><time>2026-04-04T12:15:46.102Z</time></trkpt><trkpt lat="44.5212617" lon="8.4702217"><ele>294.0</ele><time>2026-04-04T12:15:47.104Z</time></trkpt><trkpt lat="44.52138" lon="8.470085"><ele>293.75</ele><time>2026-04-04T12:15:48.103Z</time></trkpt><trkpt lat="44.5214917" lon="8.4699367"><ele>293.5</ele><time>2026-04-04T12:15:49.1Z</time></trkpt><trkpt lat="44.52159" lon="8.46979"><ele>293.25</ele><time>2026-04-04T12:15:50.103Z</time></trkpt><trkpt lat="44.5216833" lon="8.4696433"><ele>293.0</ele><time>2026-04-04T12:15:51.103Z</time></trkpt><trkpt lat="44.5217667" lon="8.4695033"><ele>293.0</ele><time>2026-04-04T12:15:52.104Z</time></trkpt><trkpt lat="44.5218383" lon="8.4693867"><ele>293.0</ele><time>2026-04-04T12:15:53.104Z</time></trkpt><trkpt lat="44.5218917" lon="8.4692917"><ele>293.0</ele><time>2026-04-04T12:15:54.107Z</time></trkpt><trkpt lat="44.5219283" lon="8.469205"><ele>293.0</ele><time>2026-04-04T12:15:55.104Z</time></trkpt><trkpt lat="44.5219567" lon="8.4691133"><ele>293.0</ele><time>2026-04-04T12:15:56.107Z</time></trkpt><trkpt lat="44.5219683" lon="8.469005"><ele>293.0</ele><time>2026-04-04T12:15:57.102Z</time></trkpt><trkpt lat="44.521965" lon="8.4688833"><ele>294.4</ele><time>2026-04-04T12:15:58.1Z</time></trkpt><trkpt lat="44.52196" lon="8.4687433"><ele>295.8</ele><time>2026-04-04T12:15:59.101Z</time></trkpt><trkpt lat="44.521955" lon="8.4685933"><ele>297.2</ele><time>2026-04-04T12:16:00.1Z</time></trkpt><trkpt lat="44.521935" lon="8.4684367"><ele>298.6</ele><time>2026-04-04T12:16:01.107Z</time></trkpt><trkpt lat="44.5218933" lon="8.4682767"><ele>300.0</ele><time>2026-04-04T12:16:02.103Z</time></trkpt><trkpt lat="44.5218333" lon="8.4681183"><ele>300.0</ele><time>2026-04-04T12:16:03.104Z</time></trkpt><trkpt lat="44.5217567" lon="8.4679717"><ele>300.0</ele><time>2026-04-04T12:16:04.099Z</time></trkpt><trkpt lat="44.5216683" lon="8.46783"><ele>300.0</ele><time>2026-04-04T12:16:05.102Z</time></trkpt><trkpt lat="44.52159" lon="8.4676783"><ele>300.0</ele><time>2026-04-04T12:16:06.1Z</time></trkpt><trkpt lat="44.5215283" lon="8.46752"><ele>301.25</ele><time>2026-04-04T12:16:07.1Z</time></trkpt><trkpt lat="44.5214983" lon="8.467355"><ele>302.5</ele><time>2026-04-04T12:16:08.1Z</time></trkpt><trkpt lat="44.521485" lon="8.4672"><ele>303.75</ele><time>2026-04-04T12:16:09.101Z</time></trkpt><trkpt lat="44.5214833" lon="8.4670517"><ele>305.0</ele><time>2026-04-04T12:16:10.1Z</time></trkpt><trkpt lat="44.5215217" lon="8.4668933"><ele>305.0</ele><time>2026-04-04T12:16:11.103Z</time></trkpt><trkpt lat="44.5215183" lon="8.4667533"><ele>305.0</ele><time>2026-04-04T12:16:12.103Z</time></trkpt><trkpt lat="44.521515" lon="8.46662"><ele>305.0</ele><time>2026-04-04T12:16:13.102Z</time></trkpt><trkpt lat="44.5214767" lon="8.4665"><ele>305.0</ele><time>2026-04-04T12:16:14.106Z</time></trkpt><trkpt lat="44.5213883" lon="8.46638"><ele>305.0</ele><time>2026-04-04T12:16:15.103Z</time></trkpt><trkpt lat="44.5212583" lon="8.4662733"><ele>302.33333333333337</ele><time>2026-04-04T12:16:16.102Z</time></trkpt><trkpt lat="44.5211167" lon="8.46617"><ele>299.6666666666667</ele><time>2026-04-04T12:16:17.107Z</time></trkpt><trkpt lat="44.52095" lon="8.4660733"><ele>297.0</ele><time>2026-04-04T12:16:18.102Z</time></trkpt><trkpt lat="44.5207867" lon="8.465985"><ele>297.0</ele><time>2026-04-04T12:16:19.104Z</time></trkpt><trkpt lat="44.5206383" lon="8.4658967"><ele>297.0</ele><time>2026-04-04T12:16:20.102Z</time></trkpt><trkpt lat="44.5205017" lon="8.465795"><ele>297.0</ele><time>2026-04-04T12:16:21.102Z</time></trkpt><trkpt lat="44.5203733" lon="8.4656883"><ele>296.5</ele><time>2026-04-04T12:16:22.102Z</time></trkpt><trkpt lat="44.5202617" lon="8.4655717"><ele>296.0</ele><time>2026-04-04T12:16:23.104Z</time></trkpt><trkpt lat="44.5201617" lon="8.4654317"><ele>295.5</ele><time>2026-04-04T12:16:24.103Z</time></trkpt><trkpt lat="44.5200767" lon="8.46526"><ele>295.0</ele><time>2026-04-04T12:16:25.104Z</time></trkpt><trkpt lat="44.5199967" lon="8.465065"><ele>297.0</ele><time>2026-04-04T12:16:26.102Z</time></trkpt><trkpt lat="44.5199217" lon="8.4648467"><ele>299.0</ele><time>2026-04-04T12:16:27.105Z</time></trkpt><trkpt lat="44.5198433" lon="8.4646267"><ele>301.0</ele><time>2026-04-04T12:16:28.1Z</time></trkpt><trkpt lat="44.51977" lon="8.4643983"><ele>298.66666666666663</ele><time>2026-04-04T12:16:29.112Z</time></trkpt><trkpt lat="44.5196967" lon="8.4641667"><ele>296.3333333333333</ele><time>2026-04-04T12:16:30.103Z</time></trkpt><trkpt lat="44.51962" lon="8.4639367"><ele>294.0</ele><time>2026-04-04T12:16:31.102Z</time></trkpt><trkpt lat="44.5195467" lon="8.4637033"><ele>294.0</ele><time>2026-04-04T12:16:32.104Z</time></trkpt><trkpt lat="44.5194583" lon="8.4634717"><ele>294.0</ele><time>2026-04-04T12:16:33.11Z</time></trkpt><trkpt lat="44.519375" lon="8.46324"><ele>294.0</ele><time>2026-04-04T12:16:34.107Z</time></trkpt><trkpt lat="44.5192967" lon="8.46301"><ele>295.6666666666667</ele><time>2026-04-04T12:16:35.102Z</time></trkpt><trkpt lat="44.519225" lon="8.4627767"><ele>297.33333333333337</ele><time>2026-04-04T12:16:36.103Z</time></trkpt><trkpt lat="44.5191633" lon="8.4625333"><ele>299.0</ele><time>2026-04-04T12:16:37.108Z</time></trkpt><trkpt lat="44.5190833" lon="8.462305"><ele>300.0</ele><time>2026-04-04T12:16:38.1Z</time></trkpt><trkpt lat="44.519" lon="8.4620817"><ele>301.0</ele><time>2026-04-04T12:16:39.108Z</time></trkpt><trkpt lat="44.5189117" lon="8.46186"><ele>302.0</ele><time>2026-04-04T12:16:40.1Z</time></trkpt><trkpt lat="44.518815" lon="8.4616467"><ele>301.0</ele><time>2026-04-04T12:16:41.103Z</time></trkpt><trkpt lat="44.5187233" lon="8.4614333"><ele>300.0</ele><time>2026-04-04T12:16:42.1Z</time></trkpt><trkpt lat="44.518625" lon="8.4612233"><ele>299.0</ele><time>2026-04-04T12:16:43.11Z</time></trkpt><trkpt lat="44.5185333" lon="8.4610167"><ele>299.0</ele><time>2026-04-04T12:16:44.105Z</time></trkpt><trkpt lat="44.5184383" lon="8.4608117"><ele>299.0</ele><time>2026-04-04T12:16:45.101Z</time></trkpt><trkpt lat="44.51834" lon="8.460605"><ele>299.0</ele><time>2026-04-04T12:16:46.099Z</time></trkpt><trkpt lat="44.5182383" lon="8.4603967"><ele>299.33333333333337</ele><time>2026-04-04T12:16:47.104Z</time></trkpt><trkpt lat="44.518135" lon="8.4601883"><ele>299.6666666666667</ele><time>2026-04-04T12:16:48.103Z</time></trkpt><trkpt lat="44.5180317" lon="8.4599817"><ele>300.0</ele><time>2026-04-04T12:16:49.101Z</time></trkpt><trkpt lat="44.5179167" lon="8.4597767"><ele>299.3333333333333</ele><time>2026-04-04T12:16:50.102Z</time></trkpt><trkpt lat="44.5177983" lon="8.45957"><ele>298.66666666666663</ele><time>2026-04-04T12:16:51.105Z</time></trkpt><trkpt lat="44.5176817" lon="8.45936"><ele>298.0</ele><time>2026-04-04T12:16:52.099Z</time></trkpt><trkpt lat="44.5175633" lon="8.459145"><ele>298.0</ele><time>2026-04-04T12:16:53.1Z</time></trkpt><trkpt lat="44.5174517" lon="8.4589267"><ele>298.0</ele><time>2026-04-04T12:16:54.102Z</time></trkpt><trkpt lat="44.5173467" lon="8.4587117"><ele>298.0</ele><time>2026-04-04T12:16:55.105Z</time></trkpt><trkpt lat="44.5172517" lon="8.4585267"><ele>298.25</ele><time>2026-04-04T12:16:56.104Z</time></trkpt><trkpt lat="44.517165" lon="8.4583783"><ele>298.5</ele><time>2026-04-04T12:16:57.101Z</time></trkpt><trkpt lat="44.5170733" lon="8.4582683"><ele>298.75</ele><time>2026-04-04T12:16:58.101Z</time></trkpt><trkpt lat="44.5169617" lon="8.4582067"><ele>299.0</ele><time>2026-04-04T12:16:59.105Z</time></trkpt><trkpt lat="44.5168383" lon="8.4581767"><ele>299.0</ele><time>2026-04-04T12:17:00.102Z</time></trkpt><trkpt lat="44.5167133" lon="8.4581467"><ele>299.0</ele><time>2026-04-04T12:17:01.102Z</time></trkpt><trkpt lat="44.5165917" lon="8.4580967"><ele>299.0</ele><time>2026-04-04T12:17:02.1Z</time></trkpt><trkpt lat="44.5164867" lon="8.4580183"><ele>299.0</ele><time>2026-04-04T12:17:03.104Z</time></trkpt><trkpt lat="44.5163933" lon="8.4579017"><ele>302.0</ele><time>2026-04-04T12:17:04.103Z</time></trkpt><trkpt lat="44.516325" lon="8.457765"><ele>305.0</ele><time>2026-04-04T12:17:05.101Z</time></trkpt><trkpt lat="44.5162783" lon="8.457615"><ele>308.0</ele><time>2026-04-04T12:17:06.101Z</time></trkpt><trkpt lat="44.5162683" lon="8.4574417"><ele>311.0</ele><time>2026-04-04T12:17:07.105Z</time></trkpt><trkpt lat="44.5162733" lon="8.4572633"><ele>313.0</ele><time>2026-04-04T12:17:08.11Z</time></trkpt><trkpt lat="44.5162833" lon="8.45706"><ele>315.0</ele><time>2026-04-04T12:17:09.107Z</time></trkpt><trkpt lat="44.51627" lon="8.4568367"><ele>317.0</ele><time>2026-04-04T12:17:10.103Z</time></trkpt><trkpt lat="44.51623" lon="8.4566117"><ele>314.33333333333337</ele><time>2026-04-04T12:17:11.099Z</time></trkpt><trkpt lat="44.5161767" lon="8.4563883"><ele>311.6666666666667</ele><time>2026-04-04T12:17:12.107Z</time></trkpt><trkpt lat="44.5161167" lon="8.456175"><ele>309.0</ele><time>2026-04-04T12:17:13.104Z</time></trkpt><trkpt lat="44.516045" lon="8.4559683"><ele>309.0</ele><time>2026-04-04T12:17:14.1Z</time></trkpt><trkpt lat="44.5159483" lon="8.4557733"><ele>309.0</ele><time>2026-04-04T12:17:15.1Z</time></trkpt><trkpt lat="44.51583" lon="8.455595"><ele>309.0</ele><time>2026-04-04T12:17:16.1Z</time></trkpt><trkpt lat="44.515695" lon="8.4554317"><ele>308.6666666666667</ele><time>2026-04-04T12:17:17.101Z</time></trkpt><trkpt lat="44.5155517" lon="8.4552833"><ele>308.33333333333337</ele><time>2026-04-04T12:17:18.103Z</time></trkpt><trkpt lat="44.515395" lon="8.455155"><ele>308.0</ele><time>2026-04-04T12:17:19.102Z</time></trkpt><trkpt lat="44.5152333" lon="8.455035"><ele>308.0</ele><time>2026-04-04T12:17:20.102Z</time></trkpt><trkpt lat="44.5150733" lon="8.454925"><ele>308.0</ele><time>2026-04-04T12:17:21.104Z</time></trkpt><trkpt lat="44.5149233" lon="8.4548217"><ele>308.0</ele><time>2026-04-04T12:17:22.1Z</time></trkpt><trkpt lat="44.51478" lon="8.4547217"><ele>308.0</ele><time>2026-04-04T12:17:23.102Z</time></trkpt><trkpt lat="44.514655" lon="8.454625"><ele>308.0</ele><time>2026-04-04T12:17:24.103Z</time></trkpt><trkpt lat="44.5145433" lon="8.4545167"><ele>308.0</ele><time>2026-04-04T12:17:25.106Z</time></trkpt><trkpt lat="44.5144367" lon="8.4544017"><ele>308.0</ele><time>2026-04-04T12:17:26.106Z</time></trkpt><trkpt lat="44.51433" lon="8.4542833"><ele>309.5</ele><time>2026-04-04T12:17:27.101Z</time></trkpt><trkpt lat="44.514215" lon="8.4541783"><ele>311.0</ele><time>2026-04-04T12:17:28.106Z</time></trkpt><trkpt lat="44.51409" lon="8.4541067"><ele>312.5</ele><time>2026-04-04T12:17:29.108Z</time></trkpt><trkpt lat="44.5139533" lon="8.4540767"><ele>314.0</ele><time>2026-04-04T12:17:30.108Z</time></trkpt><trkpt lat="44.513815" lon="8.4540717"><ele>312.75</ele><time>2026-04-04T12:17:31.103Z</time></trkpt><trkpt lat="44.5136717" lon="8.4540833"><ele>311.5</ele><time>2026-04-04T12:17:32.107Z</time></trkpt><trkpt lat="44.5135217" lon="8.4541067"><ele>310.25</ele><time>2026-04-04T12:17:33.103Z</time></trkpt><trkpt lat="44.5133767" lon="8.4541467"><ele>309.0</ele><time>2026-04-04T12:17:34.104Z</time></trkpt><trkpt lat="44.5132433" lon="8.4541833"><ele>309.0</ele><time>2026-04-04T12:17:35.1Z</time></trkpt><trkpt lat="44.5131233" lon="8.4542133"><ele>309.0</ele><time>2026-04-04T12:17:36.101Z</time></trkpt><trkpt lat="44.5130067" lon="8.4542283"><ele>309.0</ele><time>2026-04-04T12:17:37.101Z</time></trkpt><trkpt lat="44.5128933" lon="8.45421"><ele>309.0</ele><time>2026-04-04T12:17:38.103Z</time></trkpt><trkpt lat="44.512785" lon="8.45416"><ele>308.4</ele><time>2026-04-04T12:17:39.099Z</time></trkpt><trkpt lat="44.512695" lon="8.4540433"><ele>307.79999999999995</ele><time>2026-04-04T12:17:40.103Z</time></trkpt><trkpt lat="44.5126083" lon="8.4539317"><ele>307.20000000000005</ele><time>2026-04-04T12:17:41.103Z</time></trkpt><trkpt lat="44.5125217" lon="8.4538767"><ele>306.6</ele><time>2026-04-04T12:17:42.113Z</time></trkpt><trkpt lat="44.5124617" lon="8.4537917"><ele>306.0</ele><time>2026-04-04T12:17:43.103Z</time></trkpt><trkpt lat="44.51244" lon="8.4536733"><ele>307.5</ele><time>2026-04-04T12:17:44.102Z</time></trkpt><trkpt lat="44.5124533" lon="8.453525"><ele>309.0</ele><time>2026-04-04T12:17:45.099Z</time></trkpt><trkpt lat="44.5125083" lon="8.4533733"><ele>310.5</ele><time>2026-04-04T12:17:46.1Z</time></trkpt><trkpt lat="44.5125883" lon="8.4532167"><ele>312.0</ele><time>2026-04-04T12:17:47.106Z</time></trkpt><trkpt lat="44.51267" lon="8.4530767"><ele>310.75</ele><time>2026-04-04T12:17:48.102Z</time></trkpt><trkpt lat="44.5127683" lon="8.4529417"><ele>309.5</ele><time>2026-04-04T12:17:49.105Z</time></trkpt><trkpt lat="44.512875" lon="8.45281"><ele>308.25</ele><time>2026-04-04T12:17:50.105Z</time></trkpt><trkpt lat="44.5129783" lon="8.45269"><ele>307.0</ele><time>2026-04-04T12:17:51.101Z</time></trkpt><trkpt lat="44.5130733" lon="8.4525683"><ele>310.25</ele><time>2026-04-04T12:17:52.099Z</time></trkpt><trkpt lat="44.5131533" lon="8.45244"><ele>313.5</ele><time>2026-04-04T12:17:53.102Z</time></trkpt><trkpt lat="44.5132233" lon="8.4523067"><ele>316.75</ele><time>2026-04-04T12:17:54.106Z</time></trkpt><trkpt lat="44.5132767" lon="8.4521683"><ele>320.0</ele><time>2026-04-04T12:17:55.103Z</time></trkpt><trkpt lat="44.5133283" lon="8.45202"><ele>320.0</ele><time>2026-04-04T12:17:56.102Z</time></trkpt><trkpt lat="44.5133717" lon="8.4518683"><ele>320.0</ele><time>2026-04-04T12:17:57.1Z</time></trkpt><trkpt lat="44.5134067" lon="8.4517133"><ele>320.0</ele><time>2026-04-04T12:17:58.101Z</time></trkpt><trkpt lat="44.513445" lon="8.4515467"><ele>320.0</ele><time>2026-04-04T12:17:59.1Z</time></trkpt><trkpt lat="44.5134917" lon="8.4513783"><ele>319.0</ele><time>2026-04-04T12:18:00.108Z</time></trkpt><trkpt lat="44.5135383" lon="8.45121"><ele>318.0</ele><time>2026-04-04T12:18:01.101Z</time></trkpt><trkpt lat="44.5135733" lon="8.4510533"><ele>317.0</ele><time>2026-04-04T12:18:02.102Z</time></trkpt><trkpt lat="44.5136117" lon="8.4508917"><ele>316.0</ele><time>2026-04-04T12:18:03.101Z</time></trkpt><trkpt lat="44.513655" lon="8.450725"><ele>316.0</ele><time>2026-04-04T12:18:04.099Z</time></trkpt><trkpt lat="44.5137033" lon="8.4505633"><ele>316.0</ele><time>2026-04-04T12:18:05.104Z</time></trkpt><trkpt lat="44.5137567" lon="8.4504083"><ele>316.0</ele><time>2026-04-04T12:18:06.104Z</time></trkpt><trkpt lat="44.5138133" lon="8.45025"><ele>316.0</ele><time>2026-04-04T12:18:07.103Z</time></trkpt><trkpt lat="44.5138733" lon="8.4500917"><ele>316.8</ele><time>2026-04-04T12:18:08.102Z</time></trkpt><trkpt lat="44.5139317" lon="8.4499333"><ele>317.6</ele><time>2026-04-04T12:18:09.102Z</time></trkpt><trkpt lat="44.5139833" lon="8.4497867"><ele>318.4</ele><time>2026-04-04T12:18:10.104Z</time></trkpt><trkpt lat="44.5140217" lon="8.4496583"><ele>319.2</ele><time>2026-04-04T12:18:11.101Z</time></trkpt><trkpt lat="44.5140433" lon="8.4495333"><ele>320.0</ele><time>2026-04-04T12:18:12.099Z</time></trkpt><trkpt lat="44.514035" lon="8.4494117"><ele>320.0</ele><time>2026-04-04T12:18:13.101Z</time></trkpt><trkpt lat="44.5140167" lon="8.44928"><ele>320.0</ele><time>2026-04-04T12:18:14.101Z</time></trkpt><trkpt lat="44.5139817" lon="8.44913"><ele>320.0</ele><time>2026-04-04T12:18:15.106Z</time></trkpt><trkpt lat="44.5139383" lon="8.4489583"><ele>320.0</ele><time>2026-04-04T12:18:16.104Z</time></trkpt><trkpt lat="44.5138783" lon="8.4487717"><ele>320.5</ele><time>2026-04-04T12:18:17.1Z</time></trkpt><trkpt lat="44.513825" lon="8.448575"><ele>321.0</ele><time>2026-04-04T12:18:18.099Z</time></trkpt><trkpt lat="44.51377" lon="8.4483883"><ele>321.5</ele><time>2026-04-04T12:18:19.106Z</time></trkpt><trkpt lat="44.51372" lon="8.4482"><ele>322.0</ele><time>2026-04-04T12:18:20.1Z</time></trkpt><trkpt lat="44.5136717" lon="8.4480117"><ele>320.0</ele><time>2026-04-04T12:18:21.1Z</time></trkpt><trkpt lat="44.51363" lon="8.4478167"><ele>318.0</ele><time>2026-04-04T12:18:22.101Z</time></trkpt><trkpt lat="44.513585" lon="8.4476167"><ele>316.0</ele><time>2026-04-04T12:18:23.101Z</time></trkpt><trkpt lat="44.5135367" lon="8.4474117"><ele>314.0</ele><time>2026-04-04T12:18:24.101Z</time></trkpt><trkpt lat="44.5134933" lon="8.447195"><ele>314.33333333333337</ele><time>2026-04-04T12:18:25.1Z</time></trkpt><trkpt lat="44.5134433" lon="8.4469783"><ele>314.6666666666667</ele><time>2026-04-04T12:18:26.105Z</time></trkpt><trkpt lat="44.5133933" lon="8.4467567"><ele>315.0</ele><time>2026-04-04T12:18:27.105Z</time></trkpt><trkpt lat="44.513345" lon="8.4465367"><ele>315.0</ele><time>2026-04-04T12:18:28.102Z</time></trkpt><trkpt lat="44.5133017" lon="8.446315"><ele>315.0</ele><time>2026-04-04T12:18:29.103Z</time></trkpt><trkpt lat="44.51326" lon="8.4460933"><ele>315.0</ele><time>2026-04-04T12:18:30.099Z</time></trkpt><trkpt lat="44.5132233" lon="8.4458683"><ele>315.6666666666667</ele><time>2026-04-04T12:18:31.1Z</time></trkpt><trkpt lat="44.513195" lon="8.4456467"><ele>316.33333333333337</ele><time>2026-04-04T12:18:32.101Z</time></trkpt><trkpt lat="44.513165" lon="8.44543"><ele>317.0</ele><time>2026-04-04T12:18:33.1Z</time></trkpt><trkpt lat="44.51313" lon="8.4452167"><ele>318.33333333333337</ele><time>2026-04-04T12:18:34.105Z</time></trkpt><trkpt lat="44.51308" lon="8.4450017"><ele>319.6666666666667</ele><time>2026-04-04T12:18:35.105Z</time></trkpt><trkpt lat="44.513025" lon="8.4447867"><ele>321.0</ele><time>2026-04-04T12:18:36.103Z</time></trkpt><trkpt lat="44.5129667" lon="8.4445817"><ele>319.75</ele><time>2026-04-04T12:18:37.104Z</time></trkpt><trkpt lat="44.5129167" lon="8.4444033"><ele>318.5</ele><time>2026-04-04T12:18:38.102Z</time></trkpt><trkpt lat="44.512865" lon="8.4442633"><ele>317.25</ele><time>2026-04-04T12:18:39.103Z</time></trkpt><trkpt lat="44.512795" lon="8.444155"><ele>316.0</ele><time>2026-04-04T12:18:40.1Z</time></trkpt><trkpt lat="44.512705" lon="8.4440683"><ele>316.0</ele><time>2026-04-04T12:18:41.103Z</time></trkpt><trkpt lat="44.5125833" lon="8.44401"><ele>316.0</ele><time>2026-04-04T12:18:42.1Z</time></trkpt><trkpt lat="44.5124467" lon="8.4439783"><ele>316.0</ele><time>2026-04-04T12:18:43.102Z</time></trkpt><trkpt lat="44.5123" lon="8.443975"><ele>316.0</ele><time>2026-04-04T12:18:44.101Z</time></trkpt><trkpt lat="44.51216" lon="8.443975"><ele>315.75</ele><time>2026-04-04T12:18:45.106Z</time></trkpt><trkpt lat="44.5120167" lon="8.4439817"><ele>315.5</ele><time>2026-04-04T12:18:46.106Z</time></trkpt><trkpt lat="44.511875" lon="8.4439633"><ele>315.25</ele><time>2026-04-04T12:18:47.103Z</time></trkpt><trkpt lat="44.511735" lon="8.4439167"><ele>315.0</ele><time>2026-04-04T12:18:48.103Z</time></trkpt><trkpt lat="44.5116067" lon="8.4438417"><ele>314.75</ele><time>2026-04-04T12:18:49.101Z</time></trkpt><trkpt lat="44.5114933" lon="8.44374"><ele>314.5</ele><time>2026-04-04T12:18:50.106Z</time></trkpt><trkpt lat="44.5113917" lon="8.4436183"><ele>314.25</ele><time>2026-04-04T12:18:51.101Z</time></trkpt><trkpt lat="44.5113067" lon="8.44347"><ele>314.0</ele><time>2026-04-04T12:18:52.103Z</time></trkpt><trkpt lat="44.5112367" lon="8.4433033"><ele>314.0</ele><time>2026-04-04T12:18:53.101Z</time></trkpt><trkpt lat="44.5111717" lon="8.4431233"><ele>314.0</ele><time>2026-04-04T12:18:54.103Z</time></trkpt><trkpt lat="44.511105" lon="8.4429333"><ele>314.0</ele><time>2026-04-04T12:18:55.107Z</time></trkpt><trkpt lat="44.5110333" lon="8.44273"><ele>315.33333333333337</ele><time>2026-04-04T12:18:56.103Z</time></trkpt><trkpt lat="44.5109517" lon="8.442525"><ele>316.6666666666667</ele><time>2026-04-04T12:18:57.102Z</time></trkpt><trkpt lat="44.5108517" lon="8.4423333"><ele>318.0</ele><time>2026-04-04T12:18:58.099Z</time></trkpt><trkpt lat="44.510735" lon="8.4421517"><ele>319.3333333333333</ele><time>2026-04-04T12:18:59.106Z</time></trkpt><trkpt lat="44.5106117" lon="8.441985"><ele>320.66666666666663</ele><time>2026-04-04T12:19:00.098Z</time></trkpt><trkpt lat="44.510505" lon="8.441825"><ele>322.0</ele><time>2026-04-04T12:19:01.103Z</time></trkpt><trkpt lat="44.5104233" lon="8.4416817"><ele>321.8</ele><time>2026-04-04T12:19:02.098Z</time></trkpt><trkpt lat="44.51036" lon="8.4415483"><ele>321.6</ele><time>2026-04-04T12:19:03.102Z</time></trkpt><trkpt lat="44.5103233" lon="8.441425"><ele>321.40000000000003</ele><time>2026-04-04T12:19:04.103Z</time></trkpt><trkpt lat="44.51034" lon="8.441295"><ele>321.20000000000005</ele><time>2026-04-04T12:19:05.101Z</time></trkpt><trkpt lat="44.510375" lon="8.4411667"><ele>321.0</ele><time>2026-04-04T12:19:06.104Z</time></trkpt><trkpt lat="44.5104183" lon="8.4410417"><ele>321.0</ele><time>2026-04-04T12:19:07.105Z</time></trkpt><trkpt lat="44.510505" lon="8.4409067"><ele>321.0</ele><time>2026-04-04T12:19:08.104Z</time></trkpt><trkpt lat="44.5105983" lon="8.4407533"><ele>321.0</ele><time>2026-04-04T12:19:09.107Z</time></trkpt><trkpt lat="44.5106967" lon="8.4405917"><ele>321.0</ele><time>2026-04-04T12:19:10.102Z</time></trkpt><trkpt lat="44.5107917" lon="8.440415"><ele>320.25</ele><time>2026-04-04T12:19:11.104Z</time></trkpt><trkpt lat="44.5108733" lon="8.440235"><ele>319.5</ele><time>2026-04-04T12:19:12.104Z</time></trkpt><trkpt lat="44.51094" lon="8.4400617"><ele>318.75</ele><time>2026-04-04T12:19:13.103Z</time></trkpt><trkpt lat="44.510985" lon="8.439895"><ele>318.0</ele><time>2026-04-04T12:19:14.103Z</time></trkpt><trkpt lat="44.5109983" lon="8.4397417"><ele>318.25</ele><time>2026-04-04T12:19:15.1Z</time></trkpt><trkpt lat="44.510975" lon="8.4395867"><ele>318.5</ele><time>2026-04-04T12:19:16.105Z</time></trkpt><trkpt lat="44.510915" lon="8.4394333"><ele>318.75</ele><time>2026-04-04T12:19:17.1Z</time></trkpt><trkpt lat="44.5108283" lon="8.439275"><ele>319.0</ele><time>2026-04-04T12:19:18.105Z</time></trkpt><trkpt lat="44.5107317" lon="8.4391017"><ele>319.0</ele><time>2026-04-04T12:19:19.103Z</time></trkpt><trkpt lat="44.510645" lon="8.43891"><ele>319.0</ele><time>2026-04-04T12:19:20.1Z</time></trkpt><trkpt lat="44.5105683" lon="8.4386983"><ele>319.0</ele><time>2026-04-04T12:19:21.1Z</time></trkpt><trkpt lat="44.51049" lon="8.4384783"><ele>319.0</ele><time>2026-04-04T12:19:22.103Z</time></trkpt><trkpt lat="44.51041" lon="8.4382533"><ele>319.0</ele><time>2026-04-04T12:19:23.103Z</time></trkpt><trkpt lat="44.5103333" lon="8.43803"><ele>319.0</ele><time>2026-04-04T12:19:24.102Z</time></trkpt><trkpt lat="44.5102683" lon="8.437805"><ele>320.0</ele><time>2026-04-04T12:19:25.098Z</time></trkpt><trkpt lat="44.51019" lon="8.4375867"><ele>321.0</ele><time>2026-04-04T12:19:26.099Z</time></trkpt><trkpt lat="44.51009" lon="8.437395"><ele>322.0</ele><time>2026-04-04T12:19:27.1Z</time></trkpt><trkpt lat="44.509985" lon="8.4372083"><ele>323.66666666666663</ele><time>2026-04-04T12:19:28.104Z</time></trkpt><trkpt lat="44.5098717" lon="8.437045"><ele>325.3333333333333</ele><time>2026-04-04T12:19:29.102Z</time></trkpt><trkpt lat="44.509745" lon="8.4368983"><ele>327.0</ele><time>2026-04-04T12:19:30.113Z</time></trkpt><trkpt lat="44.50962" lon="8.4367583"><ele>325.3333333333333</ele><time>2026-04-04T12:19:31.1Z</time></trkpt><trkpt lat="44.509495" lon="8.4366183"><ele>323.66666666666663</ele><time>2026-04-04T12:19:32.103Z</time></trkpt><trkpt lat="44.5093767" lon="8.4364733"><ele>322.0</ele><time>2026-04-04T12:19:33.101Z</time></trkpt><trkpt lat="44.5092617" lon="8.436325"><ele>323.5</ele><time>2026-04-04T12:19:34.1Z</time></trkpt><trkpt lat="44.50915" lon="8.4361833"><ele>325.0</ele><time>2026-04-04T12:19:35.11Z</time></trkpt><trkpt lat="44.5090333" lon="8.4360633"><ele>326.5</ele><time>2026-04-04T12:19:36.104Z</time></trkpt><trkpt lat="44.5089067" lon="8.43598"><ele>328.0</ele><time>2026-04-04T12:19:37.103Z</time></trkpt><trkpt lat="44.50876" lon="8.4359433"><ele>328.0</ele><time>2026-04-04T12:19:38.103Z</time></trkpt><trkpt lat="44.5086033" lon="8.43592"><ele>328.0</ele><time>2026-04-04T12:19:39.107Z</time></trkpt><trkpt lat="44.5084483" lon="8.4359033"><ele>328.0</ele><time>2026-04-04T12:19:40.108Z</time></trkpt><trkpt lat="44.5082917" lon="8.435885"><ele>328.0</ele><time>2026-04-04T12:19:41.107Z</time></trkpt><trkpt lat="44.5081317" lon="8.4358767"><ele>328.0</ele><time>2026-04-04T12:19:42.104Z</time></trkpt><trkpt lat="44.507975" lon="8.4358733"><ele>328.0</ele><time>2026-04-04T12:19:43.108Z</time></trkpt><trkpt lat="44.5078167" lon="8.435875"><ele>328.0</ele><time>2026-04-04T12:19:44.112Z</time></trkpt><trkpt lat="44.5076567" lon="8.43589"><ele>328.0</ele><time>2026-04-04T12:19:45.103Z</time></trkpt><trkpt lat="44.5075033" lon="8.435915"><ele>328.0</ele><time>2026-04-04T12:19:46.105Z</time></trkpt><trkpt lat="44.50735" lon="8.4359433"><ele>328.0</ele><time>2026-04-04T12:19:47.104Z</time></trkpt><trkpt lat="44.5071983" lon="8.4359533"><ele>328.0</ele><time>2026-04-04T12:19:48.105Z</time></trkpt><trkpt lat="44.507055" lon="8.43592"><ele>328.0</ele><time>2026-04-04T12:19:49.106Z</time></trkpt><trkpt lat="44.506915" lon="8.43586"><ele>328.0</ele><time>2026-04-04T12:19:50.103Z</time></trkpt><trkpt lat="44.5067817" lon="8.4357667"><ele>327.0</ele><time>2026-04-04T12:19:51.106Z</time></trkpt><trkpt lat="44.506645" lon="8.4356417"><ele>326.0</ele><time>2026-04-04T12:19:52.1Z</time></trkpt><trkpt lat="44.506505" lon="8.4355467"><ele>325.0</ele><time>2026-04-04T12:19:53.101Z</time></trkpt><trkpt lat="44.50635" lon="8.435485"><ele>329.0</ele><time>2026-04-04T12:19:54.101Z</time></trkpt><trkpt lat="44.50618" lon="8.4354517"><ele>333.0</ele><time>2026-04-04T12:19:55.103Z</time></trkpt><trkpt lat="44.50601" lon="8.435425"><ele>337.0</ele><time>2026-04-04T12:19:56.101Z</time></trkpt><trkpt lat="44.5058517" lon="8.435375"><ele>337.0</ele><time>2026-04-04T12:19:57.102Z</time></trkpt><trkpt lat="44.5057067" lon="8.4352917"><ele>337.0</ele><time>2026-04-04T12:19:58.103Z</time></trkpt><trkpt lat="44.5055683" lon="8.435175"><ele>337.0</ele><time>2026-04-04T12:19:59.117Z</time></trkpt><trkpt lat="44.5054267" lon="8.4350533"><ele>336.0</ele><time>2026-04-04T12:20:00.1Z</time></trkpt><trkpt lat="44.50528" lon="8.43496"><ele>335.0</ele><time>2026-04-04T12:20:01.106Z</time></trkpt><trkpt lat="44.505125" lon="8.4349017"><ele>334.0</ele><time>2026-04-04T12:20:02.102Z</time></trkpt><trkpt lat="44.5049583" lon="8.4348783"><ele>334.0</ele><time>2026-04-04T12:20:03.1Z</time></trkpt><trkpt lat="44.5047917" lon="8.4348733"><ele>334.0</ele><time>2026-04-04T12:20:04.102Z</time></trkpt><trkpt lat="44.5046317" lon="8.4348667"><ele>334.0</ele><time>2026-04-04T12:20:05.103Z</time></trkpt><trkpt lat="44.5044817" lon="8.4348517"><ele>333.75</ele><time>2026-04-04T12:20:06.103Z</time></trkpt><trkpt lat="44.5043483" lon="8.434785"><ele>333.5</ele><time>2026-04-04T12:20:07.108Z</time></trkpt><trkpt lat="44.504215" lon="8.4346933"><ele>333.25</ele><time>2026-04-04T12:20:08.103Z</time></trkpt><trkpt lat="44.504085" lon="8.4346017"><ele>333.0</ele><time>2026-04-04T12:20:09.101Z</time></trkpt><trkpt lat="44.503965" lon="8.4345233"><ele>336.2</ele><time>2026-04-04T12:20:10.104Z</time></trkpt><trkpt lat="44.503885" lon="8.4344367"><ele>339.4</ele><time>2026-04-04T12:20:11.1Z</time></trkpt><trkpt lat="44.5038417" lon="8.4343167"><ele>342.59999999999997</ele><time>2026-04-04T12:20:12.101Z</time></trkpt><trkpt lat="44.5038233" lon="8.43416"><ele>345.79999999999995</ele><time>2026-04-04T12:20:13.1Z</time></trkpt><trkpt lat="44.503815" lon="8.4339833"><ele>349.0</ele><time>2026-04-04T12:20:14.099Z</time></trkpt><trkpt lat="44.503825" lon="8.4337767"><ele>346.0</ele><time>2026-04-04T12:20:15.099Z</time></trkpt><trkpt lat="44.503795" lon="8.4335983"><ele>343.0</ele><time>2026-04-04T12:20:16.099Z</time></trkpt><trkpt lat="44.5037383" lon="8.433435"><ele>340.0</ele><time>2026-04-04T12:20:17.102Z</time></trkpt><trkpt lat="44.50366" lon="8.433265"><ele>337.0</ele><time>2026-04-04T12:20:18.103Z</time></trkpt><trkpt lat="44.5035617" lon="8.4330933"><ele>339.3333333333333</ele><time>2026-04-04T12:20:19.102Z</time></trkpt><trkpt lat="44.5034633" lon="8.4329133"><ele>341.6666666666667</ele><time>2026-04-04T12:20:20.101Z</time></trkpt><trkpt lat="44.5033833" lon="8.4327233"><ele>344.0</ele><time>2026-04-04T12:20:21.102Z</time></trkpt><trkpt lat="44.5033117" lon="8.4325383"><ele>344.0</ele><time>2026-04-04T12:20:22.104Z</time></trkpt><trkpt lat="44.5032467" lon="8.432395"><ele>344.0</ele><time>2026-04-04T12:20:23.11Z</time></trkpt><trkpt lat="44.50319" lon="8.4322833"><ele>344.0</ele><time>2026-04-04T12:20:24.103Z</time></trkpt><trkpt lat="44.5031367" lon="8.43218"><ele>344.0</ele><time>2026-04-04T12:20:25.107Z</time></trkpt><trkpt lat="44.503115" lon="8.4320417"><ele>344.0</ele><time>2026-04-04T12:20:26.107Z</time></trkpt><trkpt lat="44.5031083" lon="8.431885"><ele>344.5</ele><time>2026-04-04T12:20:27.102Z</time></trkpt><trkpt lat="44.5031133" lon="8.431715"><ele>345.0</ele><time>2026-04-04T12:20:28.105Z</time></trkpt><trkpt lat="44.5031217" lon="8.4315333"><ele>345.5</ele><time>2026-04-04T12:20:29.105Z</time></trkpt><trkpt lat="44.5031517" lon="8.43133"><ele>346.0</ele><time>2026-04-04T12:20:30.102Z</time></trkpt><trkpt lat="44.5031867" lon="8.4311183"><ele>346.0</ele><time>2026-04-04T12:20:31.101Z</time></trkpt><trkpt lat="44.50323" lon="8.430905"><ele>346.0</ele><time>2026-04-04T12:20:32.102Z</time></trkpt><trkpt lat="44.503285" lon="8.4306733"><ele>346.0</ele><time>2026-04-04T12:20:33.101Z</time></trkpt><trkpt lat="44.5033317" lon="8.43044"><ele>345.66666666666663</ele><time>2026-04-04T12:20:34.1Z</time></trkpt><trkpt lat="44.5033667" lon="8.43021"><ele>345.3333333333333</ele><time>2026-04-04T12:20:35.098Z</time></trkpt><trkpt lat="44.5033983" lon="8.4299883"><ele>345.0</ele><time>2026-04-04T12:20:36.1Z</time></trkpt><trkpt lat="44.503425" lon="8.429775"><ele>345.3333333333333</ele><time>2026-04-04T12:20:37.101Z</time></trkpt><trkpt lat="44.503455" lon="8.429555"><ele>345.66666666666663</ele><time>2026-04-04T12:20:38.108Z</time></trkpt><trkpt lat="44.50347" lon="8.4293367"><ele>346.0</ele><time>2026-04-04T12:20:39.103Z</time></trkpt><trkpt lat="44.503465" lon="8.4291167"><ele>346.0</ele><time>2026-04-04T12:20:40.101Z</time></trkpt><trkpt lat="44.5034367" lon="8.4288883"><ele>346.0</ele><time>2026-04-04T12:20:41.102Z</time></trkpt><trkpt lat="44.5033733" lon="8.4286783"><ele>346.0</ele><time>2026-04-04T12:20:42.105Z</time></trkpt><trkpt lat="44.5032833" lon="8.42848"><ele>346.25</ele><time>2026-04-04T12:20:43.107Z</time></trkpt><trkpt lat="44.5031967" lon="8.4282933"><ele>346.5</ele><time>2026-04-04T12:20:44.1Z</time></trkpt><trkpt lat="44.503125" lon="8.4281267"><ele>346.75</ele><time>2026-04-04T12:20:45.102Z</time></trkpt><trkpt lat="44.503065" lon="8.4279683"><ele>347.0</ele><time>2026-04-04T12:20:46.103Z</time></trkpt><trkpt lat="44.50304" lon="8.4277983"><ele>346.6</ele><time>2026-04-04T12:20:47.1Z</time></trkpt><trkpt lat="44.5030233" lon="8.4276367"><ele>346.20000000000005</ele><time>2026-04-04T12:20:48.105Z</time></trkpt><trkpt lat="44.5029867" lon="8.4275"><ele>345.8</ele><time>2026-04-04T12:20:49.106Z</time></trkpt><trkpt lat="44.5029367" lon="8.4273867"><ele>345.4</ele><time>2026-04-04T12:20:50.102Z</time></trkpt><trkpt lat="44.5028483" lon="8.42731"><ele>345.0</ele><time>2026-04-04T12:20:51.108Z</time></trkpt><trkpt lat="44.502745" lon="8.4272667"><ele>346.5</ele><time>2026-04-04T12:20:52.099Z</time></trkpt><trkpt lat="44.502635" lon="8.4272333"><ele>348.0</ele><time>2026-04-04T12:20:53.1Z</time></trkpt><trkpt lat="44.50251" lon="8.4272"><ele>349.5</ele><time>2026-04-04T12:20:54.099Z</time></trkpt><trkpt lat="44.5023817" lon="8.42714"><ele>351.0</ele><time>2026-04-04T12:20:55.103Z</time></trkpt><trkpt lat="44.5022467" lon="8.4270683"><ele>351.0</ele><time>2026-04-04T12:20:56.098Z</time></trkpt><trkpt lat="44.50211" lon="8.42696"><ele>351.0</ele><time>2026-04-04T12:20:57.1Z</time></trkpt><trkpt lat="44.5019733" lon="8.4268317"><ele>351.0</ele><time>2026-04-04T12:20:58.102Z</time></trkpt><trkpt lat="44.50183" lon="8.4266933"><ele>352.3333333333333</ele><time>2026-04-04T12:20:59.102Z</time></trkpt><trkpt lat="44.50168" lon="8.4265367"><ele>353.66666666666663</ele><time>2026-04-04T12:21:00.102Z</time></trkpt><trkpt lat="44.501525" lon="8.42636"><ele>355.0</ele><time>2026-04-04T12:21:01.103Z</time></trkpt><trkpt lat="44.5013533" lon="8.4261783"><ele>349.66666666666663</ele><time>2026-04-04T12:21:02.103Z</time></trkpt><trkpt lat="44.5011867" lon="8.4259933"><ele>344.3333333333333</ele><time>2026-04-04T12:21:03.101Z</time></trkpt><trkpt lat="44.5010167" lon="8.4258083"><ele>339.0</ele><time>2026-04-04T12:21:04.102Z</time></trkpt><trkpt lat="44.5008483" lon="8.4256183"><ele>337.3333333333333</ele><time>2026-04-04T12:21:05.102Z</time></trkpt><trkpt lat="44.50068" lon="8.425435"><ele>335.66666666666663</ele><time>2026-04-04T12:21:06.104Z</time></trkpt><trkpt lat="44.500505" lon="8.4252533"><ele>334.0</ele><time>2026-04-04T12:21:07.104Z</time></trkpt><trkpt lat="44.5003367" lon="8.4250733"><ele>334.0</ele><time>2026-04-04T12:21:08.103Z</time></trkpt><trkpt lat="44.5001833" lon="8.4248983"><ele>334.0</ele><time>2026-04-04T12:21:09.104Z</time></trkpt><trkpt lat="44.5000383" lon="8.4247383"><ele>334.0</ele><time>2026-04-04T12:21:10.109Z</time></trkpt><trkpt lat="44.4999133" lon="8.4245983"><ele>334.75</ele><time>2026-04-04T12:21:11.111Z</time></trkpt><trkpt lat="44.4998067" lon="8.424465"><ele>335.5</ele><time>2026-04-04T12:21:12.104Z</time></trkpt><trkpt lat="44.499715" lon="8.42432"><ele>336.25</ele><time>2026-04-04T12:21:13.103Z</time></trkpt><trkpt lat="44.499635" lon="8.42415"><ele>337.0</ele><time>2026-04-04T12:21:14.102Z</time></trkpt><trkpt lat="44.49956" lon="8.42397"><ele>337.0</ele><time>2026-04-04T12:21:15.103Z</time></trkpt><trkpt lat="44.4995017" lon="8.4237617"><ele>337.0</ele><time>2026-04-04T12:21:16.102Z</time></trkpt><trkpt lat="44.49946" lon="8.42355"><ele>337.0</ele><time>2026-04-04T12:21:17.105Z</time></trkpt><trkpt lat="44.4994433" lon="8.4233383"><ele>337.0</ele><time>2026-04-04T12:21:18.105Z</time></trkpt><trkpt lat="44.4994517" lon="8.4231217"><ele>337.0</ele><time>2026-04-04T12:21:19.104Z</time></trkpt><trkpt lat="44.4994833" lon="8.42291"><ele>337.0</ele><time>2026-04-04T12:21:20.107Z</time></trkpt><trkpt lat="44.4995383" lon="8.4227033"><ele>339.66666666666663</ele><time>2026-04-04T12:21:21.107Z</time></trkpt><trkpt lat="44.4996083" lon="8.4224967"><ele>342.3333333333333</ele><time>2026-04-04T12:21:22.101Z</time></trkpt><trkpt lat="44.4996783" lon="8.4222917"><ele>345.0</ele><time>2026-04-04T12:21:23.102Z</time></trkpt><trkpt lat="44.4997383" lon="8.4220817"><ele>345.6666666666667</ele><time>2026-04-04T12:21:24.101Z</time></trkpt><trkpt lat="44.4997883" lon="8.42186"><ele>346.33333333333337</ele><time>2026-04-04T12:21:25.101Z</time></trkpt><trkpt lat="44.4998217" lon="8.4216283"><ele>347.0</ele><time>2026-04-04T12:21:26.107Z</time></trkpt><trkpt lat="44.4998383" lon="8.421405"><ele>347.6666666666667</ele><time>2026-04-04T12:21:27.103Z</time></trkpt><trkpt lat="44.4998483" lon="8.4211817"><ele>348.3333333333333</ele><time>2026-04-04T12:21:28.105Z</time></trkpt><trkpt lat="44.4998517" lon="8.4209683"><ele>349.0</ele><time>2026-04-04T12:21:29.108Z</time></trkpt><trkpt lat="44.4998333" lon="8.420775"><ele>349.0</ele><time>2026-04-04T12:21:30.106Z</time></trkpt><trkpt lat="44.4997883" lon="8.4206"><ele>349.0</ele><time>2026-04-04T12:21:31.105Z</time></trkpt><trkpt lat="44.4997133" lon="8.420445"><ele>349.0</ele><time>2026-04-04T12:21:32.104Z</time></trkpt><trkpt lat="44.4995967" lon="8.4203167"><ele>349.0</ele><time>2026-04-04T12:21:33.104Z</time></trkpt><trkpt lat="44.49946" lon="8.4201967"><ele>346.66666666666663</ele><time>2026-04-04T12:21:34.105Z</time></trkpt><trkpt lat="44.4993067" lon="8.4200733"><ele>344.3333333333333</ele><time>2026-04-04T12:21:35.104Z</time></trkpt><trkpt lat="44.499145" lon="8.4199383"><ele>342.0</ele><time>2026-04-04T12:21:36.101Z</time></trkpt><trkpt lat="44.4989783" lon="8.4198"><ele>342.0</ele><time>2026-04-04T12:21:37.107Z</time></trkpt><trkpt lat="44.4988117" lon="8.41966"><ele>342.0</ele><time>2026-04-04T12:21:38.101Z</time></trkpt><trkpt lat="44.4986517" lon="8.4195283"><ele>342.0</ele><time>2026-04-04T12:21:39.103Z</time></trkpt><trkpt lat="44.4984967" lon="8.4194017"><ele>344.3333333333333</ele><time>2026-04-04T12:21:40.097Z</time></trkpt><trkpt lat="44.498345" lon="8.4192717"><ele>346.66666666666663</ele><time>2026-04-04T12:21:41.107Z</time></trkpt><trkpt lat="44.4981933" lon="8.4191433"><ele>349.0</ele><time>2026-04-04T12:21:42.1Z</time></trkpt><trkpt lat="44.4980483" lon="8.41902"><ele>347.3333333333333</ele><time>2026-04-04T12:21:43.103Z</time></trkpt><trkpt lat="44.4979133" lon="8.418905"><ele>345.6666666666667</ele><time>2026-04-04T12:21:44.11Z</time></trkpt><trkpt lat="44.49778" lon="8.4188017"><ele>344.0</ele><time>2026-04-04T12:21:45.099Z</time></trkpt><trkpt lat="44.497655" lon="8.4186983"><ele>346.5</ele><time>2026-04-04T12:21:46.108Z</time></trkpt><trkpt lat="44.4975317" lon="8.4186"><ele>349.0</ele><time>2026-04-04T12:21:47.11Z</time></trkpt><trkpt lat="44.4974117" lon="8.4185017"><ele>351.5</ele><time>2026-04-04T12:21:48.106Z</time></trkpt><trkpt lat="44.4972867" lon="8.4184033"><ele>354.0</ele><time>2026-04-04T12:21:49.103Z</time></trkpt><trkpt lat="44.4971633" lon="8.4182967"><ele>351.6666666666667</ele><time>2026-04-04T12:21:50.103Z</time></trkpt><trkpt lat="44.497035" lon="8.4181883"><ele>349.33333333333337</ele><time>2026-04-04T12:21:51.104Z</time></trkpt><trkpt lat="44.4968983" lon="8.4180733"><ele>347.0</ele><time>2026-04-04T12:21:52.105Z</time></trkpt><trkpt lat="44.49676" lon="8.417955"><ele>347.0</ele><time>2026-04-04T12:21:53.106Z</time></trkpt><trkpt lat="44.4966167" lon="8.4178367"><ele>347.0</ele><time>2026-04-04T12:21:54.107Z</time></trkpt><trkpt lat="44.4964733" lon="8.4177133"><ele>347.0</ele><time>2026-04-04T12:21:55.103Z</time></trkpt><trkpt lat="44.4963317" lon="8.4175883"><ele>345.6666666666667</ele><time>2026-04-04T12:21:56.109Z</time></trkpt><trkpt lat="44.49619" lon="8.4174667"><ele>344.3333333333333</ele><time>2026-04-04T12:21:57.102Z</time></trkpt><trkpt lat="44.4960483" lon="8.4173433"><ele>343.0</ele><time>2026-04-04T12:21:58.107Z</time></trkpt><trkpt lat="44.4959067" lon="8.4172217"><ele>344.0</ele><time>2026-04-04T12:21:59.105Z</time></trkpt><trkpt lat="44.495765" lon="8.4171083"><ele>345.0</ele><time>2026-04-04T12:22:00.104Z</time></trkpt><trkpt lat="44.49563" lon="8.4169967"><ele>346.0</ele><time>2026-04-04T12:22:01.109Z</time></trkpt><trkpt lat="44.4955033" lon="8.41689"><ele>345.25</ele><time>2026-04-04T12:22:02.105Z</time></trkpt><trkpt lat="44.4953817" lon="8.416785"><ele>344.5</ele><time>2026-04-04T12:22:03.108Z</time></trkpt><trkpt lat="44.4952567" lon="8.416685"><ele>343.75</ele><time>2026-04-04T12:22:04.103Z</time></trkpt><trkpt lat="44.4951367" lon="8.4165883"><ele>343.0</ele><time>2026-04-04T12:22:05.105Z</time></trkpt><trkpt lat="44.4950183" lon="8.4164917"><ele>343.0</ele><time>2026-04-04T12:22:06.099Z</time></trkpt><trkpt lat="44.4948917" lon="8.4163917"><ele>343.0</ele><time>2026-04-04T12:22:07.105Z</time></trkpt><trkpt lat="44.494765" lon="8.41629"><ele>343.0</ele><time>2026-04-04T12:22:08.109Z</time></trkpt><trkpt lat="44.4946383" lon="8.4161817"><ele>343.0</ele><time>2026-04-04T12:22:09.1Z</time></trkpt><trkpt lat="44.4945117" lon="8.41607"><ele>343.0</ele><time>2026-04-04T12:22:10.103Z</time></trkpt><trkpt lat="44.4943867" lon="8.41596"><ele>343.0</ele><time>2026-04-04T12:22:11.104Z</time></trkpt><trkpt lat="44.4942633" lon="8.4158467"><ele>343.0</ele><time>2026-04-04T12:22:12.102Z</time></trkpt><trkpt lat="44.4941433" lon="8.4157433"><ele>343.0</ele><time>2026-04-04T12:22:13.102Z</time></trkpt><trkpt lat="44.4940183" lon="8.4156417"><ele>343.0</ele><time>2026-04-04T12:22:14.104Z</time></trkpt><trkpt lat="44.4938883" lon="8.41555"><ele>343.0</ele><time>2026-04-04T12:22:15.105Z</time></trkpt><trkpt lat="44.4937533" lon="8.41547"><ele>343.0</ele><time>2026-04-04T12:22:16.105Z</time></trkpt><trkpt lat="44.4936117" lon="8.4154067"><ele>343.0</ele><time>2026-04-04T12:22:17.107Z</time></trkpt><trkpt lat="44.49346" lon="8.4153467"><ele>343.5</ele><time>2026-04-04T12:22:18.108Z</time></trkpt><trkpt lat="44.493315" lon="8.41529"><ele>344.0</ele><time>2026-04-04T12:22:19.11Z</time></trkpt><trkpt lat="44.4931683" lon="8.41524"><ele>344.5</ele><time>2026-04-04T12:22:20.104Z</time></trkpt><trkpt lat="44.4930267" lon="8.4151917"><ele>345.0</ele><time>2026-04-04T12:22:21.105Z</time></trkpt><trkpt lat="44.492885" lon="8.4151433"><ele>345.5</ele><time>2026-04-04T12:22:22.103Z</time></trkpt><trkpt lat="44.4927433" lon="8.415085"><ele>346.0</ele><time>2026-04-04T12:22:23.108Z</time></trkpt><trkpt lat="44.492605" lon="8.4150133"><ele>346.5</ele><time>2026-04-04T12:22:24.104Z</time></trkpt><trkpt lat="44.4924667" lon="8.4149467"><ele>347.0</ele><time>2026-04-04T12:22:25.107Z</time></trkpt><trkpt lat="44.4923267" lon="8.4148717"><ele>347.0</ele><time>2026-04-04T12:22:26.103Z</time></trkpt><trkpt lat="44.492185" lon="8.41479"><ele>347.0</ele><time>2026-04-04T12:22:27.113Z</time></trkpt><trkpt lat="44.4920383" lon="8.4147083"><ele>347.0</ele><time>2026-04-04T12:22:28.1Z</time></trkpt><trkpt lat="44.4918967" lon="8.41462"><ele>346.5</ele><time>2026-04-04T12:22:29.108Z</time></trkpt><trkpt lat="44.4917633" lon="8.4145333"><ele>346.0</ele><time>2026-04-04T12:22:30.102Z</time></trkpt><trkpt lat="44.4916367" lon="8.4144467"><ele>345.5</ele><time>2026-04-04T12:22:31.101Z</time></trkpt><trkpt lat="44.4915183" lon="8.414365"><ele>345.0</ele><time>2026-04-04T12:22:32.106Z</time></trkpt><trkpt lat="44.491405" lon="8.414275"><ele>345.0</ele><time>2026-04-04T12:22:33.102Z</time></trkpt><trkpt lat="44.491315" lon="8.4141583"><ele>345.0</ele><time>2026-04-04T12:22:34.102Z</time></trkpt><trkpt lat="44.4912417" lon="8.4140167"><ele>345.0</ele><time>2026-04-04T12:22:35.105Z</time></trkpt><trkpt lat="44.4911517" lon="8.413885"><ele>345.0</ele><time>2026-04-04T12:22:36.1Z</time></trkpt><trkpt lat="44.4910467" lon="8.4137617"><ele>345.25</ele><time>2026-04-04T12:22:37.105Z</time></trkpt><trkpt lat="44.49093" lon="8.4136583"><ele>345.5</ele><time>2026-04-04T12:22:38.101Z</time></trkpt><trkpt lat="44.49081" lon="8.4135717"><ele>345.75</ele><time>2026-04-04T12:22:39.103Z</time></trkpt><trkpt lat="44.4906933" lon="8.413495"><ele>346.0</ele><time>2026-04-04T12:22:40.103Z</time></trkpt><trkpt lat="44.4905933" lon="8.4134167"><ele>346.0</ele><time>2026-04-04T12:22:41.106Z</time></trkpt><trkpt lat="44.4905217" lon="8.41335"><ele>346.0</ele><time>2026-04-04T12:22:42.103Z</time></trkpt><trkpt lat="44.4904583" lon="8.413285"><ele>346.0</ele><time>2026-04-04T12:22:43.109Z</time></trkpt><trkpt lat="44.490405" lon="8.4132017"><ele>346.0</ele><time>2026-04-04T12:22:44.104Z</time></trkpt><trkpt lat="44.4903483" lon="8.4131"><ele>346.0</ele><time>2026-04-04T12:22:45.105Z</time></trkpt><trkpt lat="44.4903017" lon="8.4129867"><ele>346.0</ele><time>2026-04-04T12:22:46.102Z</time></trkpt><trkpt lat="44.4902567" lon="8.41288"><ele>346.3333333333333</ele><time>2026-04-04T12:22:47.104Z</time></trkpt><trkpt lat="44.4902183" lon="8.4127883"><ele>346.66666666666663</ele><time>2026-04-04T12:22:48.098Z</time></trkpt><trkpt lat="44.4901817" lon="8.412705"><ele>347.0</ele><time>2026-04-04T12:22:49.111Z</time></trkpt><trkpt lat="44.49014" lon="8.4126233"><ele>347.3333333333333</ele><time>2026-04-04T12:22:50.099Z</time></trkpt><trkpt lat="44.4900933" lon="8.4125367"><ele>347.6666666666667</ele><time>2026-04-04T12:22:51.099Z</time></trkpt><trkpt lat="44.490045" lon="8.4124417"><ele>348.0</ele><time>2026-04-04T12:22:52.103Z</time></trkpt><trkpt lat="44.4899967" lon="8.4123317"><ele>348.0</ele><time>2026-04-04T12:22:53.107Z</time></trkpt><trkpt lat="44.489945" lon="8.412215"><ele>348.0</ele><time>2026-04-04T12:22:54.106Z</time></trkpt><trkpt lat="44.4898883" lon="8.412095"><ele>348.0</ele><time>2026-04-04T12:22:55.106Z</time></trkpt><trkpt lat="44.4898283" lon="8.4119733"><ele>348.0</ele><time>2026-04-04T12:22:56.102Z</time></trkpt><trkpt lat="44.4897633" lon="8.4118567"><ele>348.0</ele><time>2026-04-04T12:22:57.102Z</time></trkpt><trkpt lat="44.4897" lon="8.4117483"><ele>348.4</ele><time>2026-04-04T12:22:58.106Z</time></trkpt><trkpt lat="44.489645" lon="8.411645"><ele>348.79999999999995</ele><time>2026-04-04T12:22:59.103Z</time></trkpt><trkpt lat="44.48959" lon="8.41156"><ele>349.2</ele><time>2026-04-04T12:23:00.103Z</time></trkpt><trkpt lat="44.489545" lon="8.4114917"><ele>349.6</ele><time>2026-04-04T12:23:01.102Z</time></trkpt><trkpt lat="44.4894883" lon="8.4113817"><ele>350.0</ele><time>2026-04-04T12:23:03.105Z</time></trkpt><trkpt lat="44.489585" lon="8.4112783"><ele>350.83333333333337</ele><time>2026-04-04T12:23:05.102Z</time></trkpt><trkpt lat="44.4896467" lon="8.4112383"><ele>351.6666666666667</ele><time>2026-04-04T12:23:06.101Z</time></trkpt><trkpt lat="44.4897033" lon="8.4111917"><ele>352.5</ele><time>2026-04-04T12:23:07.099Z</time></trkpt><trkpt lat="44.4897683" lon="8.4111417"><ele>353.3333333333333</ele><time>2026-04-04T12:23:08.103Z</time></trkpt><trkpt lat="44.4898383" lon="8.4110883"><ele>354.16666666666663</ele><time>2026-04-04T12:23:09.105Z</time></trkpt><trkpt lat="44.4899117" lon="8.4110283"><ele>355.0</ele><time>2026-04-04T12:23:10.098Z</time></trkpt><trkpt lat="44.4899733" lon="8.4109633"><ele>355.0</ele><time>2026-04-04T12:23:11.101Z</time></trkpt><trkpt lat="44.4900317" lon="8.4108933"><ele>355.0</ele><time>2026-04-04T12:23:12.106Z</time></trkpt><trkpt lat="44.4901033" lon="8.4108067"><ele>355.0</ele><time>2026-04-04T12:23:13.099Z</time></trkpt><trkpt lat="44.490145" lon="8.41072"><ele>355.0</ele><time>2026-04-04T12:23:14.099Z</time></trkpt><trkpt lat="44.490195" lon="8.410645"><ele>355.0</ele><time>2026-04-04T12:23:15.101Z</time></trkpt><trkpt lat="44.490245" lon="8.4105733"><ele>355.0</ele><time>2026-04-04T12:23:16.102Z</time></trkpt><trkpt lat="44.4903017" lon="8.4105117"><ele>355.16666666666663</ele><time>2026-04-04T12:23:17.107Z</time></trkpt><trkpt lat="44.490345" lon="8.4104467"><ele>355.3333333333333</ele><time>2026-04-04T12:23:18.099Z</time></trkpt><trkpt lat="44.490415" lon="8.4103933"><ele>355.5</ele><time>2026-04-04T12:23:19.101Z</time></trkpt><trkpt lat="44.4904733" lon="8.41033"><ele>355.6666666666667</ele><time>2026-04-04T12:23:20.101Z</time></trkpt><trkpt lat="44.49054" lon="8.4102767"><ele>355.83333333333337</ele><time>2026-04-04T12:23:21.097Z</time></trkpt><trkpt lat="44.4906133" lon="8.4102217"><ele>356.0</ele><time>2026-04-04T12:23:22.103Z</time></trkpt><trkpt lat="44.4906967" lon="8.4101917"><ele>357.20000000000005</ele><time>2026-04-04T12:23:23.104Z</time></trkpt><trkpt lat="44.4907633" lon="8.4101067"><ele>358.40000000000003</ele><time>2026-04-04T12:23:24.105Z</time></trkpt><trkpt lat="44.4908333" lon="8.4100217"><ele>359.6</ele><time>2026-04-04T12:23:25.106Z</time></trkpt><trkpt lat="44.4908933" lon="8.4099283"><ele>360.8</ele><time>2026-04-04T12:23:26.106Z</time></trkpt><trkpt lat="44.4909633" lon="8.4098383"><ele>362.0</ele><time>2026-04-04T12:23:27.102Z</time></trkpt><trkpt lat="44.49103" lon="8.409745"><ele>362.40000000000003</ele><time>2026-04-04T12:23:28.103Z</time></trkpt><trkpt lat="44.4911" lon="8.40964"><ele>362.8</ele><time>2026-04-04T12:23:29.109Z</time></trkpt><trkpt lat="44.4911683" lon="8.4095317"><ele>363.2</ele><time>2026-04-04T12:23:30.102Z</time></trkpt><trkpt lat="44.4912333" lon="8.40941"><ele>363.6</ele><time>2026-04-04T12:23:31.102Z</time></trkpt><trkpt lat="44.4912817" lon="8.4092867"><ele>364.0</ele><time>2026-04-04T12:23:32.103Z</time></trkpt><trkpt lat="44.4913383" lon="8.4091483"><ele>364.75</ele><time>2026-04-04T12:23:33.102Z</time></trkpt><trkpt lat="44.4913983" lon="8.4090067"><ele>365.5</ele><time>2026-04-04T12:23:34.107Z</time></trkpt><trkpt lat="44.4914533" lon="8.408855"><ele>366.25</ele><time>2026-04-04T12:23:35.107Z</time></trkpt><trkpt lat="44.49151" lon="8.4087"><ele>367.0</ele><time>2026-04-04T12:23:36.106Z</time></trkpt><trkpt lat="44.491555" lon="8.4085417"><ele>367.5</ele><time>2026-04-04T12:23:37.101Z</time></trkpt><trkpt lat="44.4915967" lon="8.4083833"><ele>368.0</ele><time>2026-04-04T12:23:38.103Z</time></trkpt><trkpt lat="44.4916483" lon="8.408235"><ele>368.5</ele><time>2026-04-04T12:23:39.101Z</time></trkpt><trkpt lat="44.4917233" lon="8.4081033"><ele>369.0</ele><time>2026-04-04T12:23:40.101Z</time></trkpt><trkpt lat="44.4918" lon="8.4079733"><ele>369.0</ele><time>2026-04-04T12:23:41.1Z</time></trkpt><trkpt lat="44.4918817" lon="8.4078467"><ele>369.0</ele><time>2026-04-04T12:23:42.102Z</time></trkpt><trkpt lat="44.4919667" lon="8.40772"><ele>369.0</ele><time>2026-04-04T12:23:43.108Z</time></trkpt><trkpt lat="44.4920583" lon="8.4076017"><ele>369.0</ele><time>2026-04-04T12:23:44.104Z</time></trkpt><trkpt lat="44.4921633" lon="8.4074933"><ele>371.25</ele><time>2026-04-04T12:23:45.1Z</time></trkpt><trkpt lat="44.4922817" lon="8.4074017"><ele>373.5</ele><time>2026-04-04T12:23:46.102Z</time></trkpt><trkpt lat="44.4924033" lon="8.4073083"><ele>375.75</ele><time>2026-04-04T12:23:47.102Z</time></trkpt><trkpt lat="44.4925217" lon="8.4071983"><ele>378.0</ele><time>2026-04-04T12:23:48.106Z</time></trkpt><trkpt lat="44.492635" lon="8.4070733"><ele>378.0</ele><time>2026-04-04T12:23:49.107Z</time></trkpt><trkpt lat="44.4927367" lon="8.4069283"><ele>378.0</ele><time>2026-04-04T12:23:50.1Z</time></trkpt><trkpt lat="44.49283" lon="8.4067683"><ele>378.0</ele><time>2026-04-04T12:23:51.102Z</time></trkpt><trkpt lat="44.49292" lon="8.4066083"><ele>378.0</ele><time>2026-04-04T12:23:52.102Z</time></trkpt><trkpt lat="44.4930133" lon="8.406455"><ele>380.5</ele><time>2026-04-04T12:23:53.102Z</time></trkpt><trkpt lat="44.4931133" lon="8.4063233"><ele>383.0</ele><time>2026-04-04T12:23:54.1Z</time></trkpt><trkpt lat="44.4932183" lon="8.4062267"><ele>385.5</ele><time>2026-04-04T12:23:55.11Z</time></trkpt><trkpt lat="44.4933233" lon="8.406145"><ele>388.0</ele><time>2026-04-04T12:23:56.108Z</time></trkpt><trkpt lat="44.493405" lon="8.4060417"><ele>388.0</ele><time>2026-04-04T12:23:57.107Z</time></trkpt><trkpt lat="44.4934667" lon="8.4059267"><ele>388.0</ele><time>2026-04-04T12:23:58.103Z</time></trkpt><trkpt lat="44.4934817" lon="8.4057767"><ele>388.0</ele><time>2026-04-04T12:23:59.109Z</time></trkpt><trkpt lat="44.493455" lon="8.4056267"><ele>388.0</ele><time>2026-04-04T12:24:00.105Z</time></trkpt><trkpt lat="44.4934117" lon="8.40548"><ele>388.0</ele><time>2026-04-04T12:24:01.101Z</time></trkpt><trkpt lat="44.493355" lon="8.4053433"><ele>389.2</ele><time>2026-04-04T12:24:02.102Z</time></trkpt><trkpt lat="44.4932983" lon="8.405215"><ele>390.4</ele><time>2026-04-04T12:24:03.101Z</time></trkpt><trkpt lat="44.4932583" lon="8.4050917"><ele>391.59999999999997</ele><time>2026-04-04T12:24:04.102Z</time></trkpt><trkpt lat="44.4932383" lon="8.404955"><ele>392.79999999999995</ele><time>2026-04-04T12:24:05.103Z</time></trkpt><trkpt lat="44.4932383" lon="8.404805"><ele>394.0</ele><time>2026-04-04T12:24:06.099Z</time></trkpt><trkpt lat="44.4932283" lon="8.4046583"><ele>395.2</ele><time>2026-04-04T12:24:07.1Z</time></trkpt><trkpt lat="44.4932083" lon="8.4045067"><ele>396.4</ele><time>2026-04-04T12:24:08.102Z</time></trkpt><trkpt lat="44.4931683" lon="8.404365"><ele>397.6</ele><time>2026-04-04T12:24:09.1Z</time></trkpt><trkpt lat="44.4930983" lon="8.40425"><ele>398.8</ele><time>2026-04-04T12:24:10.105Z</time></trkpt><trkpt lat="44.493" lon="8.4041617"><ele>400.0</ele><time>2026-04-04T12:24:11.105Z</time></trkpt><trkpt lat="44.4929083" lon="8.40408"><ele>398.6666666666667</ele><time>2026-04-04T12:24:12.104Z</time></trkpt><trkpt lat="44.4928417" lon="8.4039967"><ele>397.33333333333337</ele><time>2026-04-04T12:24:13.102Z</time></trkpt><trkpt lat="44.492785" lon="8.4039133"><ele>396.0</ele><time>2026-04-04T12:24:14.101Z</time></trkpt><trkpt lat="44.4927783" lon="8.4038233"><ele>394.66666666666663</ele><time>2026-04-04T12:24:15.101Z</time></trkpt><trkpt lat="44.4928067" lon="8.4037333"><ele>393.3333333333333</ele><time>2026-04-04T12:24:16.102Z</time></trkpt><trkpt lat="44.4928483" lon="8.4036367"><ele>392.0</ele><time>2026-04-04T12:24:17.102Z</time></trkpt><trkpt lat="44.49291" lon="8.4035217"><ele>395.5</ele><time>2026-04-04T12:24:18.101Z</time></trkpt><trkpt lat="44.4930117" lon="8.4034"><ele>399.0</ele><time>2026-04-04T12:24:19.103Z</time></trkpt><trkpt lat="44.4931333" lon="8.40328"><ele>402.5</ele><time>2026-04-04T12:24:20.102Z</time></trkpt><trkpt lat="44.4932483" lon="8.403165"><ele>406.0</ele><time>2026-04-04T12:24:21.1Z</time></trkpt><trkpt lat="44.4933617" lon="8.40306"><ele>407.25</ele><time>2026-04-04T12:24:22.102Z</time></trkpt><trkpt lat="44.4934717" lon="8.4029633"><ele>408.5</ele><time>2026-04-04T12:24:23.105Z</time></trkpt><trkpt lat="44.4935733" lon="8.4028733"><ele>409.75</ele><time>2026-04-04T12:24:24.102Z</time></trkpt><trkpt lat="44.4936733" lon="8.4027867"><ele>411.0</ele><time>2026-04-04T12:24:25.102Z</time></trkpt><trkpt lat="44.493775" lon="8.4027"><ele>411.0</ele><time>2026-04-04T12:24:26.103Z</time></trkpt><trkpt lat="44.493875" lon="8.402605"><ele>411.0</ele><time>2026-04-04T12:24:27.104Z</time></trkpt><trkpt lat="44.4939717" lon="8.402495"><ele>411.0</ele><time>2026-04-04T12:24:28.103Z</time></trkpt><trkpt lat="44.4940533" lon="8.402365"><ele>411.0</ele><time>2026-04-04T12:24:29.103Z</time></trkpt><trkpt lat="44.4941117" lon="8.402235"><ele>415.3333333333333</ele><time>2026-04-04T12:24:30.107Z</time></trkpt><trkpt lat="44.4941683" lon="8.402125"><ele>419.66666666666663</ele><time>2026-04-04T12:24:31.103Z</time></trkpt><trkpt lat="44.4942433" lon="8.4020533"><ele>424.0</ele><time>2026-04-04T12:24:32.103Z</time></trkpt><trkpt lat="44.4943167" lon="8.4019983"><ele>428.3333333333333</ele><time>2026-04-04T12:24:33.105Z</time></trkpt><trkpt lat="44.4943967" lon="8.4019683"><ele>432.66666666666663</ele><time>2026-04-04T12:24:34.1Z</time></trkpt><trkpt lat="44.4944767" lon="8.401965"><ele>437.0</ele><time>2026-04-04T12:24:35.104Z</time></trkpt><trkpt lat="44.4945867" lon="8.40204"><ele>436.5</ele><time>2026-04-04T12:24:36.103Z</time></trkpt><trkpt lat="44.4947" lon="8.4020733"><ele>436.0</ele><time>2026-04-04T12:24:37.106Z</time></trkpt><trkpt lat="44.494825" lon="8.40205"><ele>435.5</ele><time>2026-04-04T12:24:38.101Z</time></trkpt><trkpt lat="44.494935" lon="8.40198"><ele>435.0</ele><time>2026-04-04T12:24:39.104Z</time></trkpt><trkpt lat="44.4950367" lon="8.4018833"><ele>435.0</ele><time>2026-04-04T12:24:40.102Z</time></trkpt><trkpt lat="44.4951367" lon="8.4017917"><ele>435.0</ele><time>2026-04-04T12:24:41.103Z</time></trkpt><trkpt lat="44.495245" lon="8.401725"><ele>435.0</ele><time>2026-04-04T12:24:42.101Z</time></trkpt><trkpt lat="44.4953667" lon="8.40167"><ele>435.0</ele><time>2026-04-04T12:24:43.107Z</time></trkpt><trkpt lat="44.4954833" lon="8.4016383"><ele>434.75</ele><time>2026-04-04T12:24:44.103Z</time></trkpt><trkpt lat="44.495595" lon="8.4016267"><ele>434.5</ele><time>2026-04-04T12:24:45.1Z</time></trkpt><trkpt lat="44.49571" lon="8.4016567"><ele>434.25</ele><time>2026-04-04T12:24:46.101Z</time></trkpt><trkpt lat="44.4958117" lon="8.4017183"><ele>434.0</ele><time>2026-04-04T12:24:47.101Z</time></trkpt><trkpt lat="44.495905" lon="8.401815"><ele>434.0</ele><time>2026-04-04T12:24:48.102Z</time></trkpt><trkpt lat="44.4959833" lon="8.40198"><ele>434.0</ele><time>2026-04-04T12:24:49.101Z</time></trkpt><trkpt lat="44.4960533" lon="8.402145"><ele>434.0</ele><time>2026-04-04T12:24:50.102Z</time></trkpt><trkpt lat="44.4961117" lon="8.402305"><ele>434.0</ele><time>2026-04-04T12:24:51.099Z</time></trkpt><trkpt lat="44.4961617" lon="8.402445"><ele>433.79999999999995</ele><time>2026-04-04T12:24:52.102Z</time></trkpt><trkpt lat="44.49621" lon="8.4025467"><ele>433.59999999999997</ele><time>2026-04-04T12:24:53.102Z</time></trkpt><trkpt lat="44.4962567" lon="8.4026317"><ele>433.4</ele><time>2026-04-04T12:24:54.104Z</time></trkpt><trkpt lat="44.4963233" lon="8.4027067"><ele>433.2</ele><time>2026-04-04T12:24:56.109Z</time></trkpt><trkpt lat="44.4963367" lon="8.4025367"><ele>433.0</ele><time>2026-04-04T12:24:58.104Z</time></trkpt><trkpt lat="44.496225" lon="8.4022733"><ele>433.25</ele><time>2026-04-04T12:24:59.106Z</time></trkpt><trkpt lat="44.4961667" lon="8.4021317"><ele>433.5</ele><time>2026-04-04T12:25:00.101Z</time></trkpt><trkpt lat="44.4961283" lon="8.40197"><ele>433.75</ele><time>2026-04-04T12:25:01.103Z</time></trkpt><trkpt lat="44.4960833" lon="8.4018283"><ele>434.0</ele><time>2026-04-04T12:25:02.101Z</time></trkpt><trkpt lat="44.4960417" lon="8.4016967"><ele>433.99999999999994</ele><time>2026-04-04T12:25:03.101Z</time></trkpt><trkpt lat="44.4960217" lon="8.401585"><ele>434.0</ele><time>2026-04-04T12:25:04.103Z</time></trkpt><trkpt lat="44.4960133" lon="8.4014883"><ele>434.0</ele><time>2026-04-04T12:25:05.104Z</time></trkpt><trkpt lat="44.49604" lon="8.4014033"><ele>434.0</ele><time>2026-04-04T12:25:06.099Z</time></trkpt><trkpt lat="44.49615" lon="8.40132"><ele>433.99999999999994</ele><time>2026-04-04T12:25:08.1Z</time></trkpt><trkpt lat="44.496225" lon="8.401325"><ele>434.0</ele><time>2026-04-04T12:25:09.099Z</time></trkpt><trkpt lat="44.4963267" lon="8.4013533"><ele>433.2</ele><time>2026-04-04T12:25:10.102Z</time></trkpt><trkpt lat="44.4964367" lon="8.4013767"><ele>432.4</ele><time>2026-04-04T12:25:11.101Z</time></trkpt><trkpt lat="44.4965517" lon="8.4013617"><ele>431.6</ele><time>2026-04-04T12:25:12.101Z</time></trkpt><trkpt lat="44.49666" lon="8.4013167"><ele>430.8</ele><time>2026-04-04T12:25:13.103Z</time></trkpt><trkpt lat="44.49676" lon="8.4012683"><ele>430.0</ele><time>2026-04-04T12:25:14.103Z</time></trkpt><trkpt lat="44.4968517" lon="8.4012533"><ele>430.0</ele><time>2026-04-04T12:25:15.1Z</time></trkpt><trkpt lat="44.496955" lon="8.40129"><ele>430.0</ele><time>2026-04-04T12:25:16.102Z</time></trkpt><trkpt lat="44.49706" lon="8.4013617"><ele>430.0</ele><time>2026-04-04T12:25:17.111Z</time></trkpt><trkpt lat="44.4971633" lon="8.4014517"><ele>430.0</ele><time>2026-04-04T12:25:18.105Z</time></trkpt><trkpt lat="44.4972683" lon="8.401545"><ele>433.5</ele><time>2026-04-04T12:25:19.109Z</time></trkpt><trkpt lat="44.4973817" lon="8.4016233"><ele>437.0</ele><time>2026-04-04T12:25:20.107Z</time></trkpt><trkpt lat="44.497505" lon="8.4016683"><ele>440.5</ele><time>2026-04-04T12:25:21.101Z</time></trkpt><trkpt lat="44.4976283" lon="8.4016833"><ele>444.0</ele><time>2026-04-04T12:25:22.101Z</time></trkpt><trkpt lat="44.4977517" lon="8.4016667"><ele>444.0</ele><time>2026-04-04T12:25:23.103Z</time></trkpt><trkpt lat="44.4978617" lon="8.4016117"><ele>444.0</ele><time>2026-04-04T12:25:24.105Z</time></trkpt><trkpt lat="44.4979567" lon="8.4015333"><ele>444.0</ele><time>2026-04-04T12:25:25.101Z</time></trkpt><trkpt lat="44.4980233" lon="8.40141"><ele>444.0</ele><time>2026-04-04T12:25:26.098Z</time></trkpt><trkpt lat="44.4980517" lon="8.4012667"><ele>444.0</ele><time>2026-04-04T12:25:27.098Z</time></trkpt><trkpt lat="44.4980583" lon="8.4011317"><ele>443.6666666666667</ele><time>2026-04-04T12:25:28.102Z</time></trkpt><trkpt lat="44.4980633" lon="8.4010317"><ele>443.33333333333337</ele><time>2026-04-04T12:25:29.111Z</time></trkpt><trkpt lat="44.4980883" lon="8.400945"><ele>443.0</ele><time>2026-04-04T12:25:30.101Z</time></trkpt><trkpt lat="44.498135" lon="8.4008767"><ele>442.6666666666667</ele><time>2026-04-04T12:25:31.112Z</time></trkpt><trkpt lat="44.498205" lon="8.40082"><ele>442.33333333333337</ele><time>2026-04-04T12:25:32.1Z</time></trkpt><trkpt lat="44.4982733" lon="8.4007667"><ele>442.0</ele><time>2026-04-04T12:25:33.102Z</time></trkpt><trkpt lat="44.4983717" lon="8.400715"><ele>442.0</ele><time>2026-04-04T12:25:34.103Z</time></trkpt><trkpt lat="44.4985417" lon="8.40073"><ele>442.0</ele><time>2026-04-04T12:25:35.11Z</time></trkpt><trkpt lat="44.4987567" lon="8.4007067"><ele>442.0</ele><time>2026-04-04T12:25:36.105Z</time></trkpt><trkpt lat="44.4989783" lon="8.4006717"><ele>443.33333333333337</ele><time>2026-04-04T12:25:37.103Z</time></trkpt><trkpt lat="44.499185" lon="8.400625"><ele>444.66666666666663</ele><time>2026-04-04T12:25:38.104Z</time></trkpt><trkpt lat="44.4993817" lon="8.4005817"><ele>446.0</ele><time>2026-04-04T12:25:39.102Z</time></trkpt><trkpt lat="44.4995717" lon="8.40054"><ele>450.66666666666663</ele><time>2026-04-04T12:25:40.1Z</time></trkpt><trkpt lat="44.4997417" lon="8.40048"><ele>455.33333333333337</ele><time>2026-04-04T12:25:41.102Z</time></trkpt><trkpt lat="44.4998917" lon="8.4003917"><ele>460.0</ele><time>2026-04-04T12:25:42.101Z</time></trkpt><trkpt lat="44.50003" lon="8.4002717"><ele>460.0</ele><time>2026-04-04T12:25:43.107Z</time></trkpt><trkpt lat="44.5001583" lon="8.4001383"><ele>460.0</ele><time>2026-04-04T12:25:44.1Z</time></trkpt><trkpt lat="44.50028" lon="8.4000083"><ele>460.0</ele><time>2026-04-04T12:25:45.109Z</time></trkpt><trkpt lat="44.500405" lon="8.3998833"><ele>460.75</ele><time>2026-04-04T12:25:46.096Z</time></trkpt><trkpt lat="44.50053" lon="8.39976"><ele>461.5</ele><time>2026-04-04T12:25:47.108Z</time></trkpt><trkpt lat="44.5006533" lon="8.39964"><ele>462.25</ele><time>2026-04-04T12:25:48.098Z</time></trkpt><trkpt lat="44.5007717" lon="8.3995233"><ele>463.0</ele><time>2026-04-04T12:25:49.1Z</time></trkpt><trkpt lat="44.50089" lon="8.399435"><ele>463.00000000000006</ele><time>2026-04-04T12:25:50.101Z</time></trkpt><trkpt lat="44.500995" lon="8.39938"><ele>463.0</ele><time>2026-04-04T12:25:51.104Z</time></trkpt><trkpt lat="44.5010883" lon="8.3993517"><ele>463.0</ele><time>2026-04-04T12:25:52.099Z</time></trkpt><trkpt lat="44.50116" lon="8.3993467"><ele>463.0</ele><time>2026-04-04T12:25:53.099Z</time></trkpt><trkpt lat="44.5012333" lon="8.3993633"><ele>463.00000000000006</ele><time>2026-04-04T12:25:54.098Z</time></trkpt><trkpt lat="44.5013233" lon="8.399365"><ele>463.0</ele><time>2026-04-04T12:25:56.102Z</time></trkpt><trkpt lat="44.501325" lon="8.3992733"><ele>463.33333333333337</ele><time>2026-04-04T12:31:16.105Z</time></trkpt><trkpt lat="44.5014167" lon="8.399205"><ele>463.6666666666667</ele><time>2026-04-04T12:31:18.102Z</time></trkpt><trkpt lat="44.5014817" lon="8.39916"><ele>464.0</ele><time>2026-04-04T12:31:19.102Z</time></trkpt><trkpt lat="44.5015567" lon="8.3991183"><ele>464.33333333333337</ele><time>2026-04-04T12:31:20.103Z</time></trkpt><trkpt lat="44.5016367" lon="8.3990733"><ele>464.6666666666667</ele><time>2026-04-04T12:31:21.102Z</time></trkpt><trkpt lat="44.5017267" lon="8.399025"><ele>465.0</ele><time>2026-04-04T12:31:22.102Z</time></trkpt><trkpt lat="44.50182" lon="8.39897"><ele>465.0</ele><time>2026-04-04T12:31:23.103Z</time></trkpt><trkpt lat="44.50192" lon="8.3989067"><ele>465.0</ele><time>2026-04-04T12:31:24.102Z</time></trkpt><trkpt lat="44.502025" lon="8.3988317"><ele>465.0</ele><time>2026-04-04T12:31:25.103Z</time></trkpt><trkpt lat="44.5021283" lon="8.3987383"><ele>465.0</ele><time>2026-04-04T12:31:26.101Z</time></trkpt><trkpt lat="44.5022283" lon="8.39862"><ele>464.75</ele><time>2026-04-04T12:31:27.101Z</time></trkpt><trkpt lat="44.5023233" lon="8.3984933"><ele>464.5</ele><time>2026-04-04T12:31:28.1Z</time></trkpt><trkpt lat="44.50241" lon="8.3983783"><ele>464.25</ele><time>2026-04-04T12:31:29.102Z</time></trkpt><trkpt lat="44.5024917" lon="8.3982783"><ele>464.0</ele><time>2026-04-04T12:31:30.101Z</time></trkpt><trkpt lat="44.5025633" lon="8.3981883"><ele>463.99999999999994</ele><time>2026-04-04T12:31:31.108Z</time></trkpt><trkpt lat="44.50263" lon="8.3981133"><ele>464.0</ele><time>2026-04-04T12:31:32.099Z</time></trkpt><trkpt lat="44.5026967" lon="8.3980467"><ele>464.0</ele><time>2026-04-04T12:31:33.102Z</time></trkpt><trkpt lat="44.5027667" lon="8.3979833"><ele>464.0</ele><time>2026-04-04T12:31:34.102Z</time></trkpt><trkpt lat="44.50284" lon="8.3979167"><ele>463.99999999999994</ele><time>2026-04-04T12:31:35.101Z</time></trkpt><trkpt lat="44.50292" lon="8.3978467"><ele>464.0</ele><time>2026-04-04T12:31:36.103Z</time></trkpt><trkpt lat="44.5030033" lon="8.39778"><ele>465.2</ele><time>2026-04-04T12:31:37.104Z</time></trkpt><trkpt lat="44.5030883" lon="8.3977183"><ele>466.4</ele><time>2026-04-04T12:31:38.105Z</time></trkpt><trkpt lat="44.5031733" lon="8.39766"><ele>467.6</ele><time>2026-04-04T12:31:39.104Z</time></trkpt><trkpt lat="44.503255" lon="8.397595"><ele>468.8</ele><time>2026-04-04T12:31:40.104Z</time></trkpt><trkpt lat="44.5033383" lon="8.3975117"><ele>470.0</ele><time>2026-04-04T12:31:41.107Z</time></trkpt><trkpt lat="44.503425" lon="8.397415"><ele>470.0</ele><time>2026-04-04T12:31:42.106Z</time></trkpt><trkpt lat="44.50351" lon="8.397315"><ele>470.0</ele><time>2026-04-04T12:31:43.102Z</time></trkpt><trkpt lat="44.5035883" lon="8.39721"><ele>470.0</ele><time>2026-04-04T12:31:44.103Z</time></trkpt><trkpt lat="44.5036583" lon="8.3971"><ele>470.0</ele><time>2026-04-04T12:31:45.104Z</time></trkpt><trkpt lat="44.503725" lon="8.3969967"><ele>470.0</ele><time>2026-04-04T12:31:46.102Z</time></trkpt><trkpt lat="44.5037983" lon="8.3968917"><ele>469.0</ele><time>2026-04-04T12:31:47.104Z</time></trkpt><trkpt lat="44.5038783" lon="8.3967833"><ele>468.0</ele><time>2026-04-04T12:31:48.101Z</time></trkpt><trkpt lat="44.5039583" lon="8.396665"><ele>467.0</ele><time>2026-04-04T12:31:49.107Z</time></trkpt><trkpt lat="44.5040267" lon="8.39654"><ele>466.0</ele><time>2026-04-04T12:31:50.103Z</time></trkpt><trkpt lat="44.5040883" lon="8.39642"><ele>465.0</ele><time>2026-04-04T12:31:51.104Z</time></trkpt><trkpt lat="44.504155" lon="8.3963267"><ele>465.0</ele><time>2026-04-04T12:31:52.103Z</time></trkpt><trkpt lat="44.5042283" lon="8.3962533"><ele>465.0</ele><time>2026-04-04T12:31:53.101Z</time></trkpt><trkpt lat="44.5043033" lon="8.3962283"><ele>465.0</ele><time>2026-04-04T12:31:54.102Z</time></trkpt><trkpt lat="44.504395" lon="8.39628"><ele>465.0</ele><time>2026-04-04T12:31:55.101Z</time></trkpt><trkpt lat="44.504485" lon="8.3963433"><ele>465.0</ele><time>2026-04-04T12:31:56.099Z</time></trkpt><trkpt lat="44.5045883" lon="8.39639"><ele>463.0</ele><time>2026-04-04T12:31:57.103Z</time></trkpt><trkpt lat="44.5046917" lon="8.3964133"><ele>461.0</ele><time>2026-04-04T12:31:58.103Z</time></trkpt><trkpt lat="44.504795" lon="8.3963917"><ele>459.0</ele><time>2026-04-04T12:31:59.103Z</time></trkpt><trkpt lat="44.5048883" lon="8.3963283"><ele>457.0</ele><time>2026-04-04T12:32:00.101Z</time></trkpt><trkpt lat="44.5049733" lon="8.3962233"><ele>455.0</ele><time>2026-04-04T12:32:01.105Z</time></trkpt><trkpt lat="44.5050583" lon="8.3961017"><ele>454.75</ele><time>2026-04-04T12:32:02.106Z</time></trkpt><trkpt lat="44.5051467" lon="8.39598"><ele>454.5</ele><time>2026-04-04T12:32:03.099Z</time></trkpt><trkpt lat="44.50524" lon="8.3958567"><ele>454.25</ele><time>2026-04-04T12:32:04.106Z</time></trkpt><trkpt lat="44.5053333" lon="8.3957317"><ele>454.0</ele><time>2026-04-04T12:32:05.103Z</time></trkpt><trkpt lat="44.5054267" lon="8.3956083"><ele>452.75</ele><time>2026-04-04T12:32:06.104Z</time></trkpt><trkpt lat="44.5055167" lon="8.3954883"><ele>451.5</ele><time>2026-04-04T12:32:07.104Z</time></trkpt><trkpt lat="44.5056067" lon="8.395365"><ele>450.25</ele><time>2026-04-04T12:32:08.104Z</time></trkpt><trkpt lat="44.5057033" lon="8.39524"><ele>449.0</ele><time>2026-04-04T12:32:09.099Z</time></trkpt><trkpt lat="44.5058067" lon="8.3951117"><ele>449.0</ele><time>2026-04-04T12:32:10.099Z</time></trkpt><trkpt lat="44.5059217" lon="8.3949867"><ele>449.0</ele><time>2026-04-04T12:32:11.098Z</time></trkpt><trkpt lat="44.5060383" lon="8.3948567"><ele>449.0</ele><time>2026-04-04T12:32:12.103Z</time></trkpt><trkpt lat="44.506155" lon="8.3947283"><ele>449.0</ele><time>2026-04-04T12:32:13.107Z</time></trkpt><trkpt lat="44.5062733" lon="8.3946"><ele>448.25</ele><time>2026-04-04T12:32:14.099Z</time></trkpt><trkpt lat="44.5063933" lon="8.39447"><ele>447.5</ele><time>2026-04-04T12:32:15.099Z</time></trkpt><trkpt lat="44.5065117" lon="8.394345"><ele>446.75</ele><time>2026-04-04T12:32:16.1Z</time></trkpt><trkpt lat="44.5066217" lon="8.3942233"><ele>446.0</ele><time>2026-04-04T12:32:17.102Z</time></trkpt><trkpt lat="44.5067233" lon="8.39411"><ele>446.0</ele><time>2026-04-04T12:32:18.101Z</time></trkpt><trkpt lat="44.5068167" lon="8.394005"><ele>446.0</ele><time>2026-04-04T12:32:19.104Z</time></trkpt><trkpt lat="44.506905" lon="8.3939067"><ele>446.0</ele><time>2026-04-04T12:32:20.102Z</time></trkpt><trkpt lat="44.5069867" lon="8.3938133"><ele>446.0</ele><time>2026-04-04T12:32:21.105Z</time></trkpt><trkpt lat="44.5070617" lon="8.39372"><ele>446.0</ele><time>2026-04-04T12:32:22.104Z</time></trkpt><trkpt lat="44.5071367" lon="8.39362"><ele>446.75</ele><time>2026-04-04T12:32:23.108Z</time></trkpt><trkpt lat="44.5072117" lon="8.39349"><ele>447.5</ele><time>2026-04-04T12:32:24.106Z</time></trkpt><trkpt lat="44.5072867" lon="8.393335"><ele>448.25</ele><time>2026-04-04T12:32:25.104Z</time></trkpt><trkpt lat="44.5073617" lon="8.393165"><ele>449.0</ele><time>2026-04-04T12:32:26.107Z</time></trkpt><trkpt lat="44.5074433" lon="8.3929833"><ele>450.0</ele><time>2026-04-04T12:32:27.102Z</time></trkpt><trkpt lat="44.50752" lon="8.3928"><ele>451.0</ele><time>2026-04-04T12:32:28.105Z</time></trkpt><trkpt lat="44.507595" lon="8.3926183"><ele>452.0</ele><time>2026-04-04T12:32:29.103Z</time></trkpt><trkpt lat="44.5076733" lon="8.39243"><ele>452.0</ele><time>2026-04-04T12:32:30.103Z</time></trkpt><trkpt lat="44.507755" lon="8.3922467"><ele>452.0</ele><time>2026-04-04T12:32:31.106Z</time></trkpt><trkpt lat="44.5078383" lon="8.3920567"><ele>452.0</ele><time>2026-04-04T12:32:32.106Z</time></trkpt><trkpt lat="44.507925" lon="8.3918683"><ele>454.3333333333333</ele><time>2026-04-04T12:32:33.106Z</time></trkpt><trkpt lat="44.5080117" lon="8.3916833"><ele>456.66666666666663</ele><time>2026-04-04T12:32:34.11Z</time></trkpt><trkpt lat="44.5081133" lon="8.3915117"><ele>459.0</ele><time>2026-04-04T12:32:35.103Z</time></trkpt><trkpt lat="44.50823" lon="8.39136"><ele>461.66666666666663</ele><time>2026-04-04T12:32:36.105Z</time></trkpt><trkpt lat="44.5083567" lon="8.3912217"><ele>464.3333333333333</ele><time>2026-04-04T12:32:37.105Z</time></trkpt><trkpt lat="44.508485" lon="8.3911017"><ele>467.0</ele><time>2026-04-04T12:32:38.109Z</time></trkpt><trkpt lat="44.5086217" lon="8.3909967"><ele>465.66666666666663</ele><time>2026-04-04T12:32:39.107Z</time></trkpt><trkpt lat="44.5087517" lon="8.3908817"><ele>464.33333333333337</ele><time>2026-04-04T12:32:40.107Z</time></trkpt><trkpt lat="44.508875" lon="8.3907567"><ele>463.0</ele><time>2026-04-04T12:32:41.103Z</time></trkpt><trkpt lat="44.5089867" lon="8.3906233"><ele>461.75</ele><time>2026-04-04T12:32:42.103Z</time></trkpt><trkpt lat="44.509085" lon="8.3905"><ele>460.5</ele><time>2026-04-04T12:32:43.105Z</time></trkpt><trkpt lat="44.5091567" lon="8.3903817"><ele>459.25</ele><time>2026-04-04T12:32:44.11Z</time></trkpt><trkpt lat="44.5091917" lon="8.3902483"><ele>458.0</ele><time>2026-04-04T12:32:45.103Z</time></trkpt><trkpt lat="44.5091983" lon="8.39009"><ele>458.0</ele><time>2026-04-04T12:32:46.105Z</time></trkpt><trkpt lat="44.509185" lon="8.38992"><ele>458.0</ele><time>2026-04-04T12:32:47.103Z</time></trkpt><trkpt lat="44.509165" lon="8.38974"><ele>458.0</ele><time>2026-04-04T12:32:48.105Z</time></trkpt><trkpt lat="44.5091417" lon="8.3895467"><ele>458.0</ele><time>2026-04-04T12:32:49.102Z</time></trkpt><trkpt lat="44.5091167" lon="8.389355"><ele>456.5</ele><time>2026-04-04T12:32:50.108Z</time></trkpt><trkpt lat="44.5090917" lon="8.3891683"><ele>455.0</ele><time>2026-04-04T12:32:51.102Z</time></trkpt><trkpt lat="44.5090667" lon="8.388985"><ele>453.5</ele><time>2026-04-04T12:32:52.102Z</time></trkpt><trkpt lat="44.509045" lon="8.3888033"><ele>452.0</ele><time>2026-04-04T12:32:53.105Z</time></trkpt><trkpt lat="44.50903" lon="8.3886433"><ele>451.20000000000005</ele><time>2026-04-04T12:32:54.103Z</time></trkpt><trkpt lat="44.509035" lon="8.38849"><ele>450.40000000000003</ele><time>2026-04-04T12:32:55.103Z</time></trkpt><trkpt lat="44.5090383" lon="8.388355"><ele>449.59999999999997</ele><time>2026-04-04T12:32:56.102Z</time></trkpt><trkpt lat="44.5090867" lon="8.388265"><ele>448.79999999999995</ele><time>2026-04-04T12:32:57.107Z</time></trkpt><trkpt lat="44.5091533" lon="8.3881883"><ele>448.0</ele><time>2026-04-04T12:32:58.104Z</time></trkpt><trkpt lat="44.5092233" lon="8.3881233"><ele>448.0</ele><time>2026-04-04T12:32:59.102Z</time></trkpt><trkpt lat="44.5093017" lon="8.3880833"><ele>448.0</ele><time>2026-04-04T12:33:00.102Z</time></trkpt><trkpt lat="44.5094167" lon="8.38811"><ele>448.0</ele><time>2026-04-04T12:33:01.105Z</time></trkpt><trkpt lat="44.509575" lon="8.3882817"><ele>448.0</ele><time>2026-04-04T12:33:02.102Z</time></trkpt><trkpt lat="44.50969" lon="8.3884117"><ele>446.75</ele><time>2026-04-04T12:33:03.102Z</time></trkpt><trkpt lat="44.50981" lon="8.3885233"><ele>445.5</ele><time>2026-04-04T12:33:04.101Z</time></trkpt><trkpt lat="44.5099217" lon="8.388625"><ele>444.25</ele><time>2026-04-04T12:33:05.105Z</time></trkpt><trkpt lat="44.5100333" lon="8.388715"><ele>443.0</ele><time>2026-04-04T12:33:06.104Z</time></trkpt><trkpt lat="44.5101417" lon="8.3887767"><ele>443.0</ele><time>2026-04-04T12:33:07.1Z</time></trkpt><trkpt lat="44.5102533" lon="8.3887883"><ele>443.0</ele><time>2026-04-04T12:33:08.102Z</time></trkpt><trkpt lat="44.5103667" lon="8.3887717"><ele>443.0</ele><time>2026-04-04T12:33:09.106Z</time></trkpt><trkpt lat="44.51048" lon="8.388735"><ele>443.0</ele><time>2026-04-04T12:33:10.103Z</time></trkpt><trkpt lat="44.5106017" lon="8.388685"><ele>441.5</ele><time>2026-04-04T12:33:11.109Z</time></trkpt><trkpt lat="44.5107267" lon="8.3886383"><ele>440.0</ele><time>2026-04-04T12:33:12.099Z</time></trkpt><trkpt lat="44.5108617" lon="8.38859"><ele>438.5</ele><time>2026-04-04T12:33:13.115Z</time></trkpt><trkpt lat="44.511" lon="8.3885383"><ele>437.0</ele><time>2026-04-04T12:33:14.105Z</time></trkpt><trkpt lat="44.5111383" lon="8.3884733"><ele>438.0</ele><time>2026-04-04T12:33:15.108Z</time></trkpt><trkpt lat="44.5112717" lon="8.3883817"><ele>439.0</ele><time>2026-04-04T12:33:16.101Z</time></trkpt><trkpt lat="44.5113967" lon="8.3882633"><ele>440.0</ele><time>2026-04-04T12:33:17.108Z</time></trkpt><trkpt lat="44.5115133" lon="8.38813"><ele>439.75</ele><time>2026-04-04T12:33:18.107Z</time></trkpt><trkpt lat="44.511625" lon="8.3879867"><ele>439.5</ele><time>2026-04-04T12:33:19.105Z</time></trkpt><trkpt lat="44.511725" lon="8.3878483"><ele>439.25</ele><time>2026-04-04T12:33:20.106Z</time></trkpt><trkpt lat="44.5118217" lon="8.3877233"><ele>439.0</ele><time>2026-04-04T12:33:21.1Z</time></trkpt><trkpt lat="44.51192" lon="8.3876183"><ele>439.0</ele><time>2026-04-04T12:33:22.102Z</time></trkpt><trkpt lat="44.5120167" lon="8.3875317"><ele>439.0</ele><time>2026-04-04T12:33:23.102Z</time></trkpt><trkpt lat="44.51212" lon="8.38747"><ele>439.0</ele><time>2026-04-04T12:33:24.101Z</time></trkpt><trkpt lat="44.5122367" lon="8.3874283"><ele>439.0</ele><time>2026-04-04T12:33:25.103Z</time></trkpt><trkpt lat="44.51236" lon="8.3874033"><ele>439.5</ele><time>2026-04-04T12:33:26.101Z</time></trkpt><trkpt lat="44.5124867" lon="8.3873867"><ele>440.0</ele><time>2026-04-04T12:33:27.103Z</time></trkpt><trkpt lat="44.51261" lon="8.3873583"><ele>440.5</ele><time>2026-04-04T12:33:28.101Z</time></trkpt><trkpt lat="44.512735" lon="8.3873"><ele>441.0</ele><time>2026-04-04T12:33:29.106Z</time></trkpt><trkpt lat="44.5128467" lon="8.387215"><ele>439.5</ele><time>2026-04-04T12:33:30.103Z</time></trkpt><trkpt lat="44.51295" lon="8.387115"><ele>438.0</ele><time>2026-04-04T12:33:31.109Z</time></trkpt><trkpt lat="44.513055" lon="8.3869983"><ele>436.5</ele><time>2026-04-04T12:33:32.101Z</time></trkpt><trkpt lat="44.5131533" lon="8.3868667"><ele>435.0</ele><time>2026-04-04T12:33:33.108Z</time></trkpt><trkpt lat="44.5132567" lon="8.3867467"><ele>435.0</ele><time>2026-04-04T12:33:34.106Z</time></trkpt><trkpt lat="44.513355" lon="8.386625"><ele>435.0</ele><time>2026-04-04T12:33:35.11Z</time></trkpt><trkpt lat="44.5134483" lon="8.3865"><ele>435.0</ele><time>2026-04-04T12:33:36.105Z</time></trkpt><trkpt lat="44.5135367" lon="8.38637"><ele>435.0</ele><time>2026-04-04T12:33:37.103Z</time></trkpt><trkpt lat="44.5136233" lon="8.38624"><ele>434.75</ele><time>2026-04-04T12:33:38.103Z</time></trkpt><trkpt lat="44.5137083" lon="8.38611"><ele>434.5</ele><time>2026-04-04T12:33:39.101Z</time></trkpt><trkpt lat="44.513795" lon="8.385985"><ele>434.25</ele><time>2026-04-04T12:33:40.101Z</time></trkpt><trkpt lat="44.5138817" lon="8.3858533"><ele>434.0</ele><time>2026-04-04T12:33:41.103Z</time></trkpt><trkpt lat="44.5139683" lon="8.385725"><ele>434.0</ele><time>2026-04-04T12:33:42.105Z</time></trkpt><trkpt lat="44.5140533" lon="8.3855933"><ele>434.0</ele><time>2026-04-04T12:33:43.102Z</time></trkpt><trkpt lat="44.5141383" lon="8.3854567"><ele>434.0</ele><time>2026-04-04T12:33:44.105Z</time></trkpt><trkpt lat="44.51422" lon="8.385315"><ele>434.0</ele><time>2026-04-04T12:33:45.103Z</time></trkpt><trkpt lat="44.5143017" lon="8.3851667"><ele>434.5</ele><time>2026-04-04T12:33:46.103Z</time></trkpt><trkpt lat="44.5143833" lon="8.385015"><ele>435.0</ele><time>2026-04-04T12:33:47.103Z</time></trkpt><trkpt lat="44.5144667" lon="8.3848583"><ele>435.5</ele><time>2026-04-04T12:33:48.102Z</time></trkpt><trkpt lat="44.51455" lon="8.384695"><ele>436.0</ele><time>2026-04-04T12:33:49.102Z</time></trkpt><trkpt lat="44.5146283" lon="8.384525"><ele>436.75</ele><time>2026-04-04T12:33:50.102Z</time></trkpt><trkpt lat="44.5147017" lon="8.3843433"><ele>437.5</ele><time>2026-04-04T12:33:51.103Z</time></trkpt><trkpt lat="44.5147733" lon="8.3841633"><ele>438.25</ele><time>2026-04-04T12:33:52.108Z</time></trkpt><trkpt lat="44.51485" lon="8.3840017"><ele>439.0</ele><time>2026-04-04T12:33:53.102Z</time></trkpt><trkpt lat="44.51494" lon="8.3838617"><ele>439.25</ele><time>2026-04-04T12:33:54.104Z</time></trkpt><trkpt lat="44.5150433" lon="8.38374"><ele>439.5</ele><time>2026-04-04T12:33:55.106Z</time></trkpt><trkpt lat="44.5151467" lon="8.3836267"><ele>439.75</ele><time>2026-04-04T12:33:56.105Z</time></trkpt><trkpt lat="44.5152533" lon="8.3835233"><ele>440.0</ele><time>2026-04-04T12:33:57.101Z</time></trkpt><trkpt lat="44.5153617" lon="8.3834367"><ele>442.0</ele><time>2026-04-04T12:33:58.1Z</time></trkpt><trkpt lat="44.5154717" lon="8.3833683"><ele>444.0</ele><time>2026-04-04T12:33:59.103Z</time></trkpt><trkpt lat="44.5155767" lon="8.3833267"><ele>446.0</ele><time>2026-04-04T12:34:00.105Z</time></trkpt><trkpt lat="44.5156817" lon="8.3833167"><ele>448.0</ele><time>2026-04-04T12:34:01.103Z</time></trkpt><trkpt lat="44.515775" lon="8.3833433"><ele>450.0</ele><time>2026-04-04T12:34:02.108Z</time></trkpt><trkpt lat="44.5158617" lon="8.383425"><ele>450.0</ele><time>2026-04-04T12:34:03.106Z</time></trkpt><trkpt lat="44.5159483" lon="8.3834817"><ele>450.0</ele><time>2026-04-04T12:34:04.107Z</time></trkpt><trkpt lat="44.5160333" lon="8.3835067"><ele>450.0</ele><time>2026-04-04T12:34:05.101Z</time></trkpt><trkpt lat="44.5161183" lon="8.383505"><ele>450.0</ele><time>2026-04-04T12:34:06.1Z</time></trkpt><trkpt lat="44.5162" lon="8.3834967"><ele>450.0</ele><time>2026-04-04T12:34:07.099Z</time></trkpt><trkpt lat="44.5162467" lon="8.3833983"><ele>450.0</ele><time>2026-04-04T12:34:08.107Z</time></trkpt><trkpt lat="44.5162533" lon="8.3832783"><ele>450.6</ele><time>2026-04-04T12:34:09.108Z</time></trkpt><trkpt lat="44.5162633" lon="8.3831583"><ele>451.2</ele><time>2026-04-04T12:34:10.099Z</time></trkpt><trkpt lat="44.5162667" lon="8.3830167"><ele>451.79999999999995</ele><time>2026-04-04T12:34:11.106Z</time></trkpt><trkpt lat="44.5162333" lon="8.382875"><ele>452.4</ele><time>2026-04-04T12:34:12.108Z</time></trkpt><trkpt lat="44.5162017" lon="8.3827433"><ele>453.0</ele><time>2026-04-04T12:34:13.11Z</time></trkpt><trkpt lat="44.5161733" lon="8.3826133"><ele>453.0</ele><time>2026-04-04T12:34:14.101Z</time></trkpt><trkpt lat="44.5161517" lon="8.3824917"><ele>453.0</ele><time>2026-04-04T12:34:15.103Z</time></trkpt><trkpt lat="44.51614" lon="8.3823717"><ele>453.0</ele><time>2026-04-04T12:34:16.102Z</time></trkpt><trkpt lat="44.5161383" lon="8.3822517"><ele>453.0</ele><time>2026-04-04T12:34:17.101Z</time></trkpt><trkpt lat="44.5161567" lon="8.3821283"><ele>453.0</ele><time>2026-04-04T12:34:18.103Z</time></trkpt><trkpt lat="44.5161883" lon="8.38202"><ele>453.0</ele><time>2026-04-04T12:34:19.106Z</time></trkpt><trkpt lat="44.5162317" lon="8.3819133"><ele>453.5</ele><time>2026-04-04T12:34:20.105Z</time></trkpt><trkpt lat="44.5162883" lon="8.3818183"><ele>454.0</ele><time>2026-04-04T12:34:21.108Z</time></trkpt><trkpt lat="44.5163533" lon="8.3817417"><ele>454.5</ele><time>2026-04-04T12:34:22.104Z</time></trkpt><trkpt lat="44.5164283" lon="8.381695"><ele>455.0</ele><time>2026-04-04T12:34:23.102Z</time></trkpt><trkpt lat="44.5165183" lon="8.381675"><ele>455.5</ele><time>2026-04-04T12:34:24.108Z</time></trkpt><trkpt lat="44.5166067" lon="8.38173"><ele>456.0</ele><time>2026-04-04T12:34:25.112Z</time></trkpt><trkpt lat="44.5167" lon="8.38183"><ele>456.0</ele><time>2026-04-04T12:34:27.109Z</time></trkpt><trkpt lat="44.5167083" lon="8.382015"><ele>456.0</ele><time>2026-04-04T12:34:29.104Z</time></trkpt><trkpt lat="44.5167033" lon="8.3821183"><ele>456.0</ele><time>2026-04-04T12:34:30.105Z</time></trkpt><trkpt lat="44.5167233" lon="8.3822817"><ele>456.0</ele><time>2026-04-04T12:34:32.102Z</time></trkpt><trkpt lat="44.51676" lon="8.3824133"><ele>456.0</ele><time>2026-04-04T12:34:34.106Z</time></trkpt><trkpt lat="44.5168283" lon="8.38241"><ele>458.0</ele><time>2026-04-04T12:34:35.107Z</time></trkpt><trkpt lat="44.5169467" lon="8.3824117"><ele>460.0</ele><time>2026-04-04T12:34:37.1Z</time></trkpt><trkpt lat="44.5170233" lon="8.3823967"><ele>462.0</ele><time>2026-04-04T12:34:38.105Z</time></trkpt><trkpt lat="44.5171283" lon="8.3823883"><ele>464.0</ele><time>2026-04-04T12:34:40.103Z</time></trkpt><trkpt lat="44.5172317" lon="8.3823933"><ele>466.0</ele><time>2026-04-04T12:34:42.103Z</time></trkpt><trkpt lat="44.5173417" lon="8.3823633"><ele>467.8</ele><time>2026-04-04T12:34:44.105Z</time></trkpt><trkpt lat="44.5174267" lon="8.3823633"><ele>469.6</ele><time>2026-04-04T12:34:45.103Z</time></trkpt><trkpt lat="44.517555" lon="8.382355"><ele>471.4</ele><time>2026-04-04T12:34:46.101Z</time></trkpt><trkpt lat="44.5176617" lon="8.3823267"><ele>473.2</ele><time>2026-04-04T12:34:47.101Z</time></trkpt><trkpt lat="44.51775" lon="8.382305"><ele>475.0</ele><time>2026-04-04T12:34:48.106Z</time></trkpt><trkpt lat="44.517835" lon="8.3823167"><ele>474.33333333333337</ele><time>2026-04-04T12:34:49.104Z</time></trkpt><trkpt lat="44.51792" lon="8.3823483"><ele>473.6666666666667</ele><time>2026-04-04T12:34:50.103Z</time></trkpt><trkpt lat="44.5180033" lon="8.3823217"><ele>473.0</ele><time>2026-04-04T12:34:51.104Z</time></trkpt><trkpt lat="44.5180883" lon="8.3823467"><ele>472.33333333333337</ele><time>2026-04-04T12:34:52.099Z</time></trkpt><trkpt lat="44.5181733" lon="8.382325"><ele>471.6666666666667</ele><time>2026-04-04T12:34:53.1Z</time></trkpt><trkpt lat="44.5182567" lon="8.3822983"><ele>471.0</ele><time>2026-04-04T12:34:54.104Z</time></trkpt><trkpt lat="44.5183333" lon="8.3822717"><ele>471.0</ele><time>2026-04-04T12:34:55.101Z</time></trkpt><trkpt lat="44.5184183" lon="8.382225"><ele>471.0</ele><time>2026-04-04T12:34:56.105Z</time></trkpt><trkpt lat="44.5185167" lon="8.382195"><ele>471.0</ele><time>2026-04-04T12:34:57.101Z</time></trkpt><trkpt lat="44.5186183" lon="8.3821833"><ele>471.0</ele><time>2026-04-04T12:34:58.101Z</time></trkpt><trkpt lat="44.5187267" lon="8.382165"><ele>471.0</ele><time>2026-04-04T12:34:59.101Z</time></trkpt><trkpt lat="44.518835" lon="8.3821233"><ele>465.75</ele><time>2026-04-04T12:35:00.102Z</time></trkpt><trkpt lat="44.5189233" lon="8.3820167"><ele>460.5</ele><time>2026-04-04T12:35:01.099Z</time></trkpt><trkpt lat="44.5190533" lon="8.3819333"><ele>455.25</ele><time>2026-04-04T12:35:02.104Z</time></trkpt><trkpt lat="44.5191833" lon="8.3818367"><ele>450.0</ele><time>2026-04-04T12:35:03.105Z</time></trkpt><trkpt lat="44.5193133" lon="8.3817283"><ele>450.0</ele><time>2026-04-04T12:35:04.103Z</time></trkpt><trkpt lat="44.5194433" lon="8.3816167"><ele>450.0</ele><time>2026-04-04T12:35:05.104Z</time></trkpt><trkpt lat="44.5195767" lon="8.3815067"><ele>450.0</ele><time>2026-04-04T12:35:06.108Z</time></trkpt><trkpt lat="44.5197083" lon="8.3813883"><ele>446.33333333333337</ele><time>2026-04-04T12:35:07.104Z</time></trkpt><trkpt lat="44.5198417" lon="8.3812733"><ele>442.6666666666667</ele><time>2026-04-04T12:35:08.106Z</time></trkpt><trkpt lat="44.519965" lon="8.3811517"><ele>439.0</ele><time>2026-04-04T12:35:09.102Z</time></trkpt><trkpt lat="44.52008" lon="8.3810133"><ele>439.0</ele><time>2026-04-04T12:35:10.105Z</time></trkpt><trkpt lat="44.520185" lon="8.38087"><ele>439.0</ele><time>2026-04-04T12:35:11.103Z</time></trkpt><trkpt lat="44.5202883" lon="8.3807067"><ele>439.0</ele><time>2026-04-04T12:35:12.104Z</time></trkpt><trkpt lat="44.5203767" lon="8.3805433"><ele>439.0</ele><time>2026-04-04T12:35:13.107Z</time></trkpt><trkpt lat="44.5204567" lon="8.38036"><ele>439.5</ele><time>2026-04-04T12:35:14.1Z</time></trkpt><trkpt lat="44.5205183" lon="8.3801717"><ele>440.0</ele><time>2026-04-04T12:35:15.099Z</time></trkpt><trkpt lat="44.5205667" lon="8.3799867"><ele>440.5</ele><time>2026-04-04T12:35:16.104Z</time></trkpt><trkpt lat="44.5206" lon="8.3798033"><ele>441.0</ele><time>2026-04-04T12:35:17.098Z</time></trkpt><trkpt lat="44.5206133" lon="8.3796133"><ele>443.75</ele><time>2026-04-04T12:35:18.106Z</time></trkpt><trkpt lat="44.5206017" lon="8.3794183"><ele>446.5</ele><time>2026-04-04T12:35:19.103Z</time></trkpt><trkpt lat="44.5205683" lon="8.3792283"><ele>449.25</ele><time>2026-04-04T12:35:20.101Z</time></trkpt><trkpt lat="44.5205217" lon="8.37904"><ele>452.0</ele><time>2026-04-04T12:35:21.101Z</time></trkpt><trkpt lat="44.520475" lon="8.3788517"><ele>455.5</ele><time>2026-04-04T12:35:22.106Z</time></trkpt><trkpt lat="44.5204267" lon="8.3786617"><ele>459.0</ele><time>2026-04-04T12:35:23.108Z</time></trkpt><trkpt lat="44.5203783" lon="8.3784783"><ele>462.5</ele><time>2026-04-04T12:35:24.103Z</time></trkpt><trkpt lat="44.5203333" lon="8.3783033"><ele>466.0</ele><time>2026-04-04T12:35:25.106Z</time></trkpt><trkpt lat="44.5202917" lon="8.378135"><ele>456.75</ele><time>2026-04-04T12:35:26.103Z</time></trkpt><trkpt lat="44.5202583" lon="8.3779767"><ele>447.5</ele><time>2026-04-04T12:35:27.11Z</time></trkpt><trkpt lat="44.5202517" lon="8.37781"><ele>438.25</ele><time>2026-04-04T12:35:28.106Z</time></trkpt><trkpt lat="44.5202717" lon="8.3776417"><ele>429.0</ele><time>2026-04-04T12:35:29.106Z</time></trkpt><trkpt lat="44.5203117" lon="8.3774833"><ele>429.0</ele><time>2026-04-04T12:35:30.101Z</time></trkpt><trkpt lat="44.5203633" lon="8.37735"><ele>429.0</ele><time>2026-04-04T12:35:31.106Z</time></trkpt><trkpt lat="44.5204217" lon="8.3772483"><ele>429.0</ele><time>2026-04-04T12:35:32.109Z</time></trkpt><trkpt lat="44.5204833" lon="8.37716"><ele>429.0</ele><time>2026-04-04T12:35:33.103Z</time></trkpt><trkpt lat="44.520575" lon="8.3771033"><ele>429.0</ele><time>2026-04-04T12:35:34.104Z</time></trkpt><trkpt lat="44.520675" lon="8.3770683"><ele>428.33333333333337</ele><time>2026-04-04T12:35:35.108Z</time></trkpt><trkpt lat="44.520845" lon="8.3770617"><ele>427.6666666666667</ele><time>2026-04-04T12:35:36.103Z</time></trkpt><trkpt lat="44.5209917" lon="8.3770117"><ele>427.0</ele><time>2026-04-04T12:35:37.112Z</time></trkpt><trkpt lat="44.5211517" lon="8.3769833"><ele>427.0</ele><time>2026-04-04T12:35:38.102Z</time></trkpt><trkpt lat="44.52131" lon="8.37694"><ele>427.0</ele><time>2026-04-04T12:35:39.105Z</time></trkpt><trkpt lat="44.52147" lon="8.3768917"><ele>427.0</ele><time>2026-04-04T12:35:40.101Z</time></trkpt><trkpt lat="44.5216267" lon="8.37684"><ele>427.0</ele><time>2026-04-04T12:35:41.102Z</time></trkpt><trkpt lat="44.5217883" lon="8.376785"><ele>427.0</ele><time>2026-04-04T12:35:42.103Z</time></trkpt><trkpt lat="44.5219467" lon="8.3767267"><ele>427.0</ele><time>2026-04-04T12:35:43.11Z</time></trkpt><trkpt lat="44.5220833" lon="8.3766583"><ele>431.0</ele><time>2026-04-04T12:35:44.104Z</time></trkpt><trkpt lat="44.5222117" lon="8.3766033"><ele>435.0</ele><time>2026-04-04T12:35:45.102Z</time></trkpt><trkpt lat="44.522335" lon="8.3765483"><ele>439.0</ele><time>2026-04-04T12:35:46.103Z</time></trkpt><trkpt lat="44.5224433" lon="8.376535"><ele>443.0</ele><time>2026-04-04T12:35:47.105Z</time></trkpt><trkpt lat="44.522535" lon="8.3765183"><ele>442.99999999999994</ele><time>2026-04-04T12:35:48.103Z</time></trkpt><trkpt lat="44.52261" lon="8.3764767"><ele>443.0</ele><time>2026-04-04T12:35:49.1Z</time></trkpt><trkpt lat="44.522685" lon="8.376425"><ele>443.0</ele><time>2026-04-04T12:35:50.099Z</time></trkpt><trkpt lat="44.5227433" lon="8.37635"><ele>443.0</ele><time>2026-04-04T12:35:51.103Z</time></trkpt><trkpt lat="44.5227733" lon="8.3762483"><ele>442.99999999999994</ele><time>2026-04-04T12:35:52.103Z</time></trkpt><trkpt lat="44.5227533" lon="8.3761217"><ele>443.0</ele><time>2026-04-04T12:35:53.108Z</time></trkpt><trkpt lat="44.5227083" lon="8.3759583"><ele>438.0</ele><time>2026-04-04T12:35:54.106Z</time></trkpt><trkpt lat="44.5226467" lon="8.3757533"><ele>433.0</ele><time>2026-04-04T12:35:55.108Z</time></trkpt><trkpt lat="44.5225833" lon="8.3755433"><ele>428.0</ele><time>2026-04-04T12:35:56.102Z</time></trkpt><trkpt lat="44.5225383" lon="8.3753667"><ele>427.79999999999995</ele><time>2026-04-04T12:35:57.106Z</time></trkpt><trkpt lat="44.5225" lon="8.3752217"><ele>427.59999999999997</ele><time>2026-04-04T12:35:58.114Z</time></trkpt><trkpt lat="44.5224983" lon="8.3750917"><ele>427.40000000000003</ele><time>2026-04-04T12:35:59.103Z</time></trkpt><trkpt lat="44.5225083" lon="8.3749667"><ele>427.20000000000005</ele><time>2026-04-04T12:36:00.106Z</time></trkpt><trkpt lat="44.5225283" lon="8.3748367"><ele>427.0</ele><time>2026-04-04T12:36:01.102Z</time></trkpt><trkpt lat="44.52257" lon="8.37469"><ele>424.5</ele><time>2026-04-04T12:36:02.102Z</time></trkpt><trkpt lat="44.5226217" lon="8.3745417"><ele>422.0</ele><time>2026-04-04T12:36:03.102Z</time></trkpt><trkpt lat="44.5226783" lon="8.3743783"><ele>419.5</ele><time>2026-04-04T12:36:04.104Z</time></trkpt><trkpt lat="44.5227317" lon="8.3742"><ele>417.0</ele><time>2026-04-04T12:36:05.104Z</time></trkpt><trkpt lat="44.52276" lon="8.3740217"><ele>416.25</ele><time>2026-04-04T12:36:06.109Z</time></trkpt><trkpt lat="44.5227667" lon="8.3738333"><ele>415.5</ele><time>2026-04-04T12:36:07.105Z</time></trkpt><trkpt lat="44.522745" lon="8.37365"><ele>414.75</ele><time>2026-04-04T12:36:08.105Z</time></trkpt><trkpt lat="44.5227117" lon="8.3734733"><ele>414.0</ele><time>2026-04-04T12:36:09.106Z</time></trkpt><trkpt lat="44.52269" lon="8.3732917"><ele>414.0</ele><time>2026-04-04T12:36:10.103Z</time></trkpt><trkpt lat="44.5226717" lon="8.373125"><ele>414.0</ele><time>2026-04-04T12:36:11.104Z</time></trkpt><trkpt lat="44.5226567" lon="8.3729633"><ele>414.0</ele><time>2026-04-04T12:36:12.101Z</time></trkpt><trkpt lat="44.5226517" lon="8.3728133"><ele>414.0</ele><time>2026-04-04T12:36:13.104Z</time></trkpt><trkpt lat="44.5226683" lon="8.3726833"><ele>414.0</ele><time>2026-04-04T12:36:14.106Z</time></trkpt><trkpt lat="44.5227167" lon="8.37256"><ele>413.5</ele><time>2026-04-04T12:36:15.101Z</time></trkpt><trkpt lat="44.5227733" lon="8.37244"><ele>413.0</ele><time>2026-04-04T12:36:16.1Z</time></trkpt><trkpt lat="44.5228333" lon="8.3723"><ele>412.5</ele><time>2026-04-04T12:36:17.103Z</time></trkpt><trkpt lat="44.5228817" lon="8.3721433"><ele>412.0</ele><time>2026-04-04T12:36:18.103Z</time></trkpt><trkpt lat="44.522915" lon="8.3719683"><ele>415.5</ele><time>2026-04-04T12:36:19.102Z</time></trkpt><trkpt lat="44.5229367" lon="8.3717883"><ele>419.0</ele><time>2026-04-04T12:36:20.103Z</time></trkpt><trkpt lat="44.5229567" lon="8.3716033"><ele>422.5</ele><time>2026-04-04T12:36:21.103Z</time></trkpt><trkpt lat="44.5229633" lon="8.3714183"><ele>426.0</ele><time>2026-04-04T12:36:22.102Z</time></trkpt><trkpt lat="44.52295" lon="8.371235"><ele>426.0</ele><time>2026-04-04T12:36:23.099Z</time></trkpt><trkpt lat="44.5229267" lon="8.371055"><ele>426.0</ele><time>2026-04-04T12:36:24.107Z</time></trkpt><trkpt lat="44.52291" lon="8.370875"><ele>426.0</ele><time>2026-04-04T12:36:25.104Z</time></trkpt><trkpt lat="44.522905" lon="8.3706833"><ele>426.0</ele><time>2026-04-04T12:36:26.1Z</time></trkpt><trkpt lat="44.5229167" lon="8.37047"><ele>424.0</ele><time>2026-04-04T12:36:27.099Z</time></trkpt><trkpt lat="44.5229283" lon="8.3702567"><ele>422.0</ele><time>2026-04-04T12:36:28.101Z</time></trkpt><trkpt lat="44.522945" lon="8.3700317"><ele>420.0</ele><time>2026-04-04T12:36:29.102Z</time></trkpt><trkpt lat="44.5229583" lon="8.3698083"><ele>420.66666666666663</ele><time>2026-04-04T12:36:30.1Z</time></trkpt><trkpt lat="44.522965" lon="8.3695833"><ele>421.3333333333333</ele><time>2026-04-04T12:36:31.103Z</time></trkpt><trkpt lat="44.522955" lon="8.3693683"><ele>422.0</ele><time>2026-04-04T12:36:32.102Z</time></trkpt><trkpt lat="44.5229267" lon="8.36916"><ele>416.75</ele><time>2026-04-04T12:36:33.105Z</time></trkpt><trkpt lat="44.5228867" lon="8.3689567"><ele>411.5</ele><time>2026-04-04T12:36:34.102Z</time></trkpt><trkpt lat="44.5228417" lon="8.3687633"><ele>406.25</ele><time>2026-04-04T12:36:35.099Z</time></trkpt><trkpt lat="44.5228033" lon="8.3685833"><ele>401.0</ele><time>2026-04-04T12:36:36.1Z</time></trkpt><trkpt lat="44.5227883" lon="8.3684133"><ele>401.25</ele><time>2026-04-04T12:36:37.099Z</time></trkpt><trkpt lat="44.5228033" lon="8.36825"><ele>401.5</ele><time>2026-04-04T12:36:38.106Z</time></trkpt><trkpt lat="44.5228467" lon="8.368105"><ele>401.75</ele><time>2026-04-04T12:36:39.106Z</time></trkpt><trkpt lat="44.522915" lon="8.3679583"><ele>402.0</ele><time>2026-04-04T12:36:40.1Z</time></trkpt><trkpt lat="44.5230017" lon="8.3678117"><ele>402.0</ele><time>2026-04-04T12:36:41.103Z</time></trkpt><trkpt lat="44.5230917" lon="8.3676633"><ele>402.0</ele><time>2026-04-04T12:36:42.1Z</time></trkpt><trkpt lat="44.52317" lon="8.367495"><ele>402.0</ele><time>2026-04-04T12:36:43.102Z</time></trkpt><trkpt lat="44.5232383" lon="8.3673183"><ele>402.0</ele><time>2026-04-04T12:36:44.099Z</time></trkpt><trkpt lat="44.5233083" lon="8.36716"><ele>399.8</ele><time>2026-04-04T12:36:45.106Z</time></trkpt><trkpt lat="44.52337" lon="8.367035"><ele>397.6</ele><time>2026-04-04T12:36:46.1Z</time></trkpt><trkpt lat="44.52345" lon="8.3669417"><ele>395.40000000000003</ele><time>2026-04-04T12:36:47.101Z</time></trkpt><trkpt lat="44.5235533" lon="8.3668867"><ele>393.20000000000005</ele><time>2026-04-04T12:36:48.099Z</time></trkpt><trkpt lat="44.52366" lon="8.3668533"><ele>391.0</ele><time>2026-04-04T12:36:49.102Z</time></trkpt><trkpt lat="44.5237767" lon="8.36684"><ele>391.0</ele><time>2026-04-04T12:36:50.106Z</time></trkpt><trkpt lat="44.5239017" lon="8.36683"><ele>391.0</ele><time>2026-04-04T12:36:51.103Z</time></trkpt><trkpt lat="44.5240333" lon="8.3668267"><ele>391.0</ele><time>2026-04-04T12:36:52.099Z</time></trkpt><trkpt lat="44.5241733" lon="8.3668433"><ele>391.0</ele><time>2026-04-04T12:36:53.106Z</time></trkpt><trkpt lat="44.5243067" lon="8.3668717"><ele>391.0</ele><time>2026-04-04T12:36:54.105Z</time></trkpt><trkpt lat="44.52445" lon="8.3669083"><ele>391.0</ele><time>2026-04-04T12:36:55.106Z</time></trkpt><trkpt lat="44.5245967" lon="8.36694"><ele>391.0</ele><time>2026-04-04T12:36:56.103Z</time></trkpt><trkpt lat="44.524755" lon="8.3669783"><ele>389.75</ele><time>2026-04-04T12:36:57.106Z</time></trkpt><trkpt lat="44.52491" lon="8.3670217"><ele>388.5</ele><time>2026-04-04T12:36:58.109Z</time></trkpt><trkpt lat="44.5250483" lon="8.3670883"><ele>387.25</ele><time>2026-04-04T12:36:59.1Z</time></trkpt><trkpt lat="44.5251683" lon="8.3671633"><ele>386.0</ele><time>2026-04-04T12:37:00.105Z</time></trkpt><trkpt lat="44.525265" lon="8.3672367"><ele>386.4</ele><time>2026-04-04T12:37:01.101Z</time></trkpt><trkpt lat="44.52536" lon="8.3672767"><ele>386.8</ele><time>2026-04-04T12:37:02.098Z</time></trkpt><trkpt lat="44.5254533" lon="8.3672867"><ele>387.2</ele><time>2026-04-04T12:37:03.101Z</time></trkpt><trkpt lat="44.525535" lon="8.3672517"><ele>387.59999999999997</ele><time>2026-04-04T12:37:04.109Z</time></trkpt><trkpt lat="44.5256067" lon="8.3671733"><ele>388.0</ele><time>2026-04-04T12:37:05.104Z</time></trkpt><trkpt lat="44.52565" lon="8.36705"><ele>388.4</ele><time>2026-04-04T12:37:06.1Z</time></trkpt><trkpt lat="44.525655" lon="8.3669117"><ele>388.79999999999995</ele><time>2026-04-04T12:37:07.103Z</time></trkpt><trkpt lat="44.5256217" lon="8.3667733"><ele>389.2</ele><time>2026-04-04T12:37:08.101Z</time></trkpt><trkpt lat="44.52556" lon="8.3666333"><ele>389.6</ele><time>2026-04-04T12:37:09.1Z</time></trkpt><trkpt lat="44.525475" lon="8.3665033"><ele>390.0</ele><time>2026-04-04T12:37:10.098Z</time></trkpt><trkpt lat="44.5253883" lon="8.36636"><ele>390.0</ele><time>2026-04-04T12:37:11.1Z</time></trkpt><trkpt lat="44.525295" lon="8.3662117"><ele>390.0</ele><time>2026-04-04T12:37:12.108Z</time></trkpt><trkpt lat="44.5251833" lon="8.3660617"><ele>390.0</ele><time>2026-04-04T12:37:13.102Z</time></trkpt><trkpt lat="44.5250817" lon="8.3658967"><ele>390.0</ele><time>2026-04-04T12:37:14.101Z</time></trkpt><trkpt lat="44.524975" lon="8.365755"><ele>390.0</ele><time>2026-04-04T12:37:15.103Z</time></trkpt><trkpt lat="44.5248433" lon="8.3656583"><ele>390.0</ele><time>2026-04-04T12:37:16.102Z</time></trkpt><trkpt lat="44.5247183" lon="8.3655667"><ele>390.0</ele><time>2026-04-04T12:37:17.102Z</time></trkpt><trkpt lat="44.52459" lon="8.3654933"><ele>388.4</ele><time>2026-04-04T12:37:18.102Z</time></trkpt><trkpt lat="44.5244783" lon="8.3654183"><ele>386.8</ele><time>2026-04-04T12:37:19.105Z</time></trkpt><trkpt lat="44.52438" lon="8.36533"><ele>385.20000000000005</ele><time>2026-04-04T12:37:20.101Z</time></trkpt><trkpt lat="44.52431" lon="8.3652267"><ele>383.6</ele><time>2026-04-04T12:37:21.104Z</time></trkpt><trkpt lat="44.5242717" lon="8.36509"><ele>382.0</ele><time>2026-04-04T12:37:22.1Z</time></trkpt><trkpt lat="44.5242517" lon="8.3649333"><ele>382.0</ele><time>2026-04-04T12:37:23.105Z</time></trkpt><trkpt lat="44.5242367" lon="8.36476"><ele>382.0</ele><time>2026-04-04T12:37:24.099Z</time></trkpt><trkpt lat="44.5242317" lon="8.3645733"><ele>382.0</ele><time>2026-04-04T12:37:25.103Z</time></trkpt><trkpt lat="44.5242333" lon="8.3644033"><ele>382.0</ele><time>2026-04-04T12:37:26.101Z</time></trkpt><trkpt lat="44.5242517" lon="8.36425"><ele>382.0</ele><time>2026-04-04T12:37:27.101Z</time></trkpt><trkpt lat="44.5243017" lon="8.3641267"><ele>382.0</ele><time>2026-04-04T12:37:28.102Z</time></trkpt><trkpt lat="44.5243717" lon="8.36403"><ele>382.0</ele><time>2026-04-04T12:37:29.1Z</time></trkpt><trkpt lat="44.5244483" lon="8.3639483"><ele>382.0</ele><time>2026-04-04T12:37:30.104Z</time></trkpt><trkpt lat="44.5245017" lon="8.363845"><ele>382.0</ele><time>2026-04-04T12:37:31.109Z</time></trkpt><trkpt lat="44.5245267" lon="8.3637267"><ele>382.0</ele><time>2026-04-04T12:37:32.104Z</time></trkpt><trkpt lat="44.524535" lon="8.363615"><ele>382.0</ele><time>2026-04-04T12:37:33.1Z</time></trkpt><trkpt lat="44.5245167" lon="8.3635283"><ele>382.0</ele><time>2026-04-04T12:37:34.106Z</time></trkpt><trkpt lat="44.5244117" lon="8.363485"><ele>382.0</ele><time>2026-04-04T12:37:35.104Z</time></trkpt><trkpt lat="44.52432" lon="8.3634467"><ele>382.0</ele><time>2026-04-04T12:37:36.102Z</time></trkpt><trkpt lat="44.5242233" lon="8.3634067"><ele>382.0</ele><time>2026-04-04T12:37:37.109Z</time></trkpt><trkpt lat="44.5241267" lon="8.3633417"><ele>382.0</ele><time>2026-04-04T12:37:38.103Z</time></trkpt><trkpt lat="44.52404" lon="8.36324"><ele>382.0</ele><time>2026-04-04T12:37:39.102Z</time></trkpt><trkpt lat="44.523965" lon="8.3631083"><ele>382.0</ele><time>2026-04-04T12:37:40.102Z</time></trkpt><trkpt lat="44.5239033" lon="8.3629417"><ele>383.3333333333333</ele><time>2026-04-04T12:37:41.106Z</time></trkpt><trkpt lat="44.5238417" lon="8.36275"><ele>384.66666666666663</ele><time>2026-04-04T12:37:42.104Z</time></trkpt><trkpt lat="44.52378" lon="8.3625517"><ele>386.0</ele><time>2026-04-04T12:37:43.102Z</time></trkpt><trkpt lat="44.5237167" lon="8.3623517"><ele>384.0</ele><time>2026-04-04T12:37:44.104Z</time></trkpt><trkpt lat="44.5236567" lon="8.3621467"><ele>382.0</ele><time>2026-04-04T12:37:45.1Z</time></trkpt><trkpt lat="44.5236033" lon="8.36193"><ele>380.0</ele><time>2026-04-04T12:37:46.103Z</time></trkpt><trkpt lat="44.523545" lon="8.36171"><ele>380.0</ele><time>2026-04-04T12:37:47.102Z</time></trkpt><trkpt lat="44.5234817" lon="8.3614967"><ele>380.0</ele><time>2026-04-04T12:37:48.111Z</time></trkpt><trkpt lat="44.5234133" lon="8.361285"><ele>380.0</ele><time>2026-04-04T12:37:49.097Z</time></trkpt><trkpt lat="44.5233517" lon="8.3610667"><ele>381.0</ele><time>2026-04-04T12:37:50.102Z</time></trkpt><trkpt lat="44.5232783" lon="8.3608617"><ele>382.0</ele><time>2026-04-04T12:37:51.103Z</time></trkpt><trkpt lat="44.5231967" lon="8.3606633"><ele>383.0</ele><time>2026-04-04T12:37:52.102Z</time></trkpt><trkpt lat="44.5231133" lon="8.3604633"><ele>385.33333333333337</ele><time>2026-04-04T12:37:53.103Z</time></trkpt><trkpt lat="44.5230133" lon="8.3602833"><ele>387.6666666666667</ele><time>2026-04-04T12:37:54.102Z</time></trkpt><trkpt lat="44.5229117" lon="8.360115"><ele>390.0</ele><time>2026-04-04T12:37:55.101Z</time></trkpt><trkpt lat="44.5228033" lon="8.3599567"><ele>384.6666666666667</ele><time>2026-04-04T12:37:56.102Z</time></trkpt><trkpt lat="44.5227067" lon="8.359785"><ele>379.33333333333337</ele><time>2026-04-04T12:37:57.1Z</time></trkpt><trkpt lat="44.5226217" lon="8.3595983"><ele>374.0</ele><time>2026-04-04T12:37:58.102Z</time></trkpt><trkpt lat="44.5225517" lon="8.3593917"><ele>374.0</ele><time>2026-04-04T12:37:59.1Z</time></trkpt><trkpt lat="44.5224917" lon="8.359175"><ele>374.0</ele><time>2026-04-04T12:38:00.101Z</time></trkpt><trkpt lat="44.5224367" lon="8.3589517"><ele>374.0</ele><time>2026-04-04T12:38:01.101Z</time></trkpt><trkpt lat="44.5223767" lon="8.3587233"><ele>375.33333333333337</ele><time>2026-04-04T12:38:02.102Z</time></trkpt><trkpt lat="44.52232" lon="8.3584883"><ele>376.6666666666667</ele><time>2026-04-04T12:38:03.101Z</time></trkpt><trkpt lat="44.5222567" lon="8.3582567"><ele>378.0</ele><time>2026-04-04T12:38:04.1Z</time></trkpt><trkpt lat="44.5221967" lon="8.3580183"><ele>380.0</ele><time>2026-04-04T12:38:05.103Z</time></trkpt><trkpt lat="44.52214" lon="8.3577883"><ele>382.0</ele><time>2026-04-04T12:38:06.099Z</time></trkpt><trkpt lat="44.5220867" lon="8.3575667"><ele>384.0</ele><time>2026-04-04T12:38:07.107Z</time></trkpt><trkpt lat="44.5220283" lon="8.357355"><ele>379.0</ele><time>2026-04-04T12:38:08.101Z</time></trkpt><trkpt lat="44.521945" lon="8.3571667"><ele>374.0</ele><time>2026-04-04T12:38:09.106Z</time></trkpt><trkpt lat="44.5218433" lon="8.35699"><ele>369.0</ele><time>2026-04-04T12:38:10.107Z</time></trkpt><trkpt lat="44.5217267" lon="8.3568167"><ele>369.0</ele><time>2026-04-04T12:38:11.101Z</time></trkpt><trkpt lat="44.5216033" lon="8.356645"><ele>369.0</ele><time>2026-04-04T12:38:12.106Z</time></trkpt><trkpt lat="44.5214867" lon="8.3564617"><ele>369.0</ele><time>2026-04-04T12:38:13.102Z</time></trkpt><trkpt lat="44.5213667" lon="8.3562733"><ele>364.6666666666667</ele><time>2026-04-04T12:38:14.103Z</time></trkpt><trkpt lat="44.521255" lon="8.356065"><ele>360.33333333333337</ele><time>2026-04-04T12:38:15.1Z</time></trkpt><trkpt lat="44.521135" lon="8.355855"><ele>356.0</ele><time>2026-04-04T12:38:16.1Z</time></trkpt><trkpt lat="44.521005" lon="8.35565"><ele>359.33333333333337</ele><time>2026-04-04T12:38:17.103Z</time></trkpt><trkpt lat="44.5208583" lon="8.3554517"><ele>362.6666666666667</ele><time>2026-04-04T12:38:18.101Z</time></trkpt><trkpt lat="44.5207067" lon="8.3552667"><ele>366.0</ele><time>2026-04-04T12:38:19.105Z</time></trkpt><trkpt lat="44.520565" lon="8.3550767"><ele>366.0</ele><time>2026-04-04T12:38:20.105Z</time></trkpt><trkpt lat="44.5204333" lon="8.354875"><ele>366.0</ele><time>2026-04-04T12:38:21.104Z</time></trkpt><trkpt lat="44.5203183" lon="8.3546517"><ele>366.0</ele><time>2026-04-04T12:38:22.102Z</time></trkpt><trkpt lat="44.5202067" lon="8.3544233"><ele>361.0</ele><time>2026-04-04T12:38:23.106Z</time></trkpt><trkpt lat="44.5201083" lon="8.354205"><ele>356.0</ele><time>2026-04-04T12:38:24.103Z</time></trkpt><trkpt lat="44.5200233" lon="8.3540233"><ele>351.0</ele><time>2026-04-04T12:38:25.099Z</time></trkpt><trkpt lat="44.5199483" lon="8.3538633"><ele>350.3333333333333</ele><time>2026-04-04T12:38:26.105Z</time></trkpt><trkpt lat="44.519915" lon="8.353755"><ele>349.6666666666667</ele><time>2026-04-04T12:38:27.102Z</time></trkpt><trkpt lat="44.5199017" lon="8.353645"><ele>349.0</ele><time>2026-04-04T12:38:28.101Z</time></trkpt><trkpt lat="44.519885" lon="8.3535383"><ele>348.33333333333337</ele><time>2026-04-04T12:38:29.106Z</time></trkpt><trkpt lat="44.519895" lon="8.3534167"><ele>347.6666666666667</ele><time>2026-04-04T12:38:30.098Z</time></trkpt><trkpt lat="44.5199267" lon="8.353315"><ele>347.0</ele><time>2026-04-04T12:38:31.107Z</time></trkpt><trkpt lat="44.51999" lon="8.3531883"><ele>347.0</ele><time>2026-04-04T12:38:32.099Z</time></trkpt><trkpt lat="44.5200233" lon="8.3530433"><ele>347.0</ele><time>2026-04-04T12:38:33.1Z</time></trkpt><trkpt lat="44.5200383" lon="8.352885"><ele>347.0</ele><time>2026-04-04T12:38:34.103Z</time></trkpt><trkpt lat="44.52006" lon="8.3527183"><ele>347.0</ele><time>2026-04-04T12:38:35.105Z</time></trkpt><trkpt lat="44.5200967" lon="8.3525783"><ele>345.25</ele><time>2026-04-04T12:38:36.105Z</time></trkpt><trkpt lat="44.5201583" lon="8.3524383"><ele>343.5</ele><time>2026-04-04T12:38:37.101Z</time></trkpt><trkpt lat="44.5202283" lon="8.3523133"><ele>341.75</ele><time>2026-04-04T12:38:38.099Z</time></trkpt><trkpt lat="44.5203283" lon="8.35221"><ele>340.0</ele><time>2026-04-04T12:38:39.101Z</time></trkpt><trkpt lat="44.52044" lon="8.3521233"><ele>339.75</ele><time>2026-04-04T12:38:40.101Z</time></trkpt><trkpt lat="44.5205783" lon="8.3520683"><ele>339.5</ele><time>2026-04-04T12:38:41.103Z</time></trkpt><trkpt lat="44.5206967" lon="8.35204"><ele>339.25</ele><time>2026-04-04T12:38:42.1Z</time></trkpt><trkpt lat="44.5208183" lon="8.3520467"><ele>339.0</ele><time>2026-04-04T12:38:43.104Z</time></trkpt><trkpt lat="44.5209433" lon="8.3520917"><ele>339.0</ele><time>2026-04-04T12:38:44.103Z</time></trkpt><trkpt lat="44.5210783" lon="8.3521717"><ele>339.0</ele><time>2026-04-04T12:38:45.104Z</time></trkpt><trkpt lat="44.5212033" lon="8.3522967"><ele>339.0</ele><time>2026-04-04T12:38:46.103Z</time></trkpt><trkpt lat="44.5213233" lon="8.3524233"><ele>339.75</ele><time>2026-04-04T12:38:47.106Z</time></trkpt><trkpt lat="44.521455" lon="8.3525417"><ele>340.5</ele><time>2026-04-04T12:38:48.106Z</time></trkpt><trkpt lat="44.5215817" lon="8.352635"><ele>341.25</ele><time>2026-04-04T12:38:49.102Z</time></trkpt><trkpt lat="44.5217233" lon="8.35268"><ele>342.0</ele><time>2026-04-04T12:38:50.103Z</time></trkpt><trkpt lat="44.5218683" lon="8.3527267"><ele>342.0</ele><time>2026-04-04T12:38:51.102Z</time></trkpt><trkpt lat="44.522025" lon="8.3527383"><ele>342.0</ele><time>2026-04-04T12:38:52.103Z</time></trkpt><trkpt lat="44.52217" lon="8.3527683"><ele>342.0</ele><time>2026-04-04T12:38:53.101Z</time></trkpt><trkpt lat="44.5223167" lon="8.3527983"><ele>343.5</ele><time>2026-04-04T12:38:54.108Z</time></trkpt><trkpt lat="44.522465" lon="8.352835"><ele>345.0</ele><time>2026-04-04T12:38:55.106Z</time></trkpt><trkpt lat="44.5226" lon="8.3529"><ele>346.5</ele><time>2026-04-04T12:38:56.102Z</time></trkpt><trkpt lat="44.5227167" lon="8.3530033"><ele>348.0</ele><time>2026-04-04T12:38:57.1Z</time></trkpt><trkpt lat="44.52282" lon="8.3531067"><ele>345.25</ele><time>2026-04-04T12:38:58.099Z</time></trkpt><trkpt lat="44.5229267" lon="8.3531633"><ele>342.5</ele><time>2026-04-04T12:38:59.104Z</time></trkpt><trkpt lat="44.5230383" lon="8.3531833"><ele>339.75</ele><time>2026-04-04T12:39:00.102Z</time></trkpt><trkpt lat="44.5231567" lon="8.3531633"><ele>337.0</ele><time>2026-04-04T12:39:01.104Z</time></trkpt><trkpt lat="44.5232817" lon="8.3531117"><ele>332.66666666666663</ele><time>2026-04-04T12:39:02.1Z</time></trkpt><trkpt lat="44.5234233" lon="8.3530383"><ele>328.3333333333333</ele><time>2026-04-04T12:39:03.098Z</time></trkpt><trkpt lat="44.5235817" lon="8.3529517"><ele>324.0</ele><time>2026-04-04T12:39:04.1Z</time></trkpt><trkpt lat="44.5237433" lon="8.3528717"><ele>324.0</ele><time>2026-04-04T12:39:05.107Z</time></trkpt><trkpt lat="44.523905" lon="8.352785"><ele>324.0</ele><time>2026-04-04T12:39:06.108Z</time></trkpt><trkpt lat="44.524065" lon="8.3526967"><ele>324.0</ele><time>2026-04-04T12:39:07.104Z</time></trkpt><trkpt lat="44.5242183" lon="8.35261"><ele>324.0</ele><time>2026-04-04T12:39:08.105Z</time></trkpt><trkpt lat="44.5243767" lon="8.35252"><ele>324.0</ele><time>2026-04-04T12:39:09.104Z</time></trkpt><trkpt lat="44.524515" lon="8.352405"><ele>324.0</ele><time>2026-04-04T12:39:10.101Z</time></trkpt><trkpt lat="44.5246317" lon="8.35226"><ele>324.0</ele><time>2026-04-04T12:39:11.105Z</time></trkpt><trkpt lat="44.5247433" lon="8.352075"><ele>324.0</ele><time>2026-04-04T12:39:12.106Z</time></trkpt><trkpt lat="44.5248383" lon="8.3518683"><ele>324.0</ele><time>2026-04-04T12:39:13.102Z</time></trkpt><trkpt lat="44.524925" lon="8.35164"><ele>324.0</ele><time>2026-04-04T12:39:14.109Z</time></trkpt><trkpt lat="44.5249933" lon="8.351385"><ele>324.0</ele><time>2026-04-04T12:39:15.109Z</time></trkpt><trkpt lat="44.5250533" lon="8.351125"><ele>324.0</ele><time>2026-04-04T12:39:16.11Z</time></trkpt><trkpt lat="44.5251083" lon="8.350855"><ele>322.0</ele><time>2026-04-04T12:39:17.099Z</time></trkpt><trkpt lat="44.525165" lon="8.3505783"><ele>320.0</ele><time>2026-04-04T12:39:18.102Z</time></trkpt><trkpt lat="44.5252217" lon="8.3503033"><ele>318.0</ele><time>2026-04-04T12:39:19.103Z</time></trkpt><trkpt lat="44.5252767" lon="8.3500333"><ele>317.0</ele><time>2026-04-04T12:39:20.111Z</time></trkpt><trkpt lat="44.5253317" lon="8.34977"><ele>316.0</ele><time>2026-04-04T12:39:21.101Z</time></trkpt><trkpt lat="44.5253867" lon="8.3495117"><ele>315.0</ele><time>2026-04-04T12:39:22.099Z</time></trkpt><trkpt lat="44.52544" lon="8.3492717"><ele>315.0</ele><time>2026-04-04T12:39:23.098Z</time></trkpt><trkpt lat="44.5254883" lon="8.3490617"><ele>315.0</ele><time>2026-04-04T12:39:24.102Z</time></trkpt><trkpt lat="44.525535" lon="8.3488983"><ele>315.0</ele><time>2026-04-04T12:39:25.105Z</time></trkpt><trkpt lat="44.5255883" lon="8.3487833"><ele>315.0</ele><time>2026-04-04T12:39:26.1Z</time></trkpt><trkpt lat="44.5256483" lon="8.3487067"><ele>315.0</ele><time>2026-04-04T12:39:27.1Z</time></trkpt><trkpt lat="44.5257133" lon="8.3486817"><ele>315.0</ele><time>2026-04-04T12:39:28.103Z</time></trkpt><trkpt lat="44.5257967" lon="8.3486733"><ele>315.0</ele><time>2026-04-04T12:39:29.105Z</time></trkpt><trkpt lat="44.5258967" lon="8.3486933"><ele>315.0</ele><time>2026-04-04T12:39:30.102Z</time></trkpt><trkpt lat="44.5260017" lon="8.3487533"><ele>315.0</ele><time>2026-04-04T12:39:31.1Z</time></trkpt><trkpt lat="44.52611" lon="8.348895"><ele>315.0</ele><time>2026-04-04T12:39:32.101Z</time></trkpt><trkpt lat="44.526215" lon="8.3490267"><ele>315.0</ele><time>2026-04-04T12:39:33.102Z</time></trkpt><trkpt lat="44.5263017" lon="8.34916"><ele>315.0</ele><time>2026-04-04T12:39:34.101Z</time></trkpt><trkpt lat="44.5263733" lon="8.34932"><ele>315.0</ele><time>2026-04-04T12:39:35.101Z</time></trkpt><trkpt lat="44.5264367" lon="8.3494767"><ele>314.0</ele><time>2026-04-04T12:39:36.1Z</time></trkpt><trkpt lat="44.5264967" lon="8.3496267"><ele>313.0</ele><time>2026-04-04T12:39:37.112Z</time></trkpt><trkpt lat="44.5265567" lon="8.3497783"><ele>312.0</ele><time>2026-04-04T12:39:38.098Z</time></trkpt><trkpt lat="44.5266417" lon="8.349895"><ele>311.0</ele><time>2026-04-04T12:39:39.103Z</time></trkpt><trkpt lat="44.52674" lon="8.35"><ele>311.0</ele><time>2026-04-04T12:39:40.102Z</time></trkpt><trkpt lat="44.5268383" lon="8.3500917"><ele>311.0</ele><time>2026-04-04T12:39:41.106Z</time></trkpt><trkpt lat="44.5269333" lon="8.35018"><ele>311.0</ele><time>2026-04-04T12:39:42.101Z</time></trkpt><trkpt lat="44.5270217" lon="8.3502717"><ele>311.0</ele><time>2026-04-04T12:39:43.106Z</time></trkpt><trkpt lat="44.52712" lon="8.350345"><ele>309.75</ele><time>2026-04-04T12:39:44.099Z</time></trkpt><trkpt lat="44.5272133" lon="8.35042"><ele>308.5</ele><time>2026-04-04T12:39:45.098Z</time></trkpt><trkpt lat="44.52732" lon="8.3504883"><ele>307.25</ele><time>2026-04-04T12:39:46.1Z</time></trkpt><trkpt lat="44.52743" lon="8.3505517"><ele>306.0</ele><time>2026-04-04T12:39:47.11Z</time></trkpt><trkpt lat="44.5275417" lon="8.3506133"><ele>306.0</ele><time>2026-04-04T12:39:48.101Z</time></trkpt><trkpt lat="44.5276567" lon="8.3506733"><ele>306.0</ele><time>2026-04-04T12:39:49.107Z</time></trkpt><trkpt lat="44.5277733" lon="8.350735"><ele>306.0</ele><time>2026-04-04T12:39:50.1Z</time></trkpt><trkpt lat="44.5278833" lon="8.350795"><ele>306.0</ele><time>2026-04-04T12:39:51.102Z</time></trkpt><trkpt lat="44.5279933" lon="8.3508567"><ele>305.5</ele><time>2026-04-04T12:39:52.099Z</time></trkpt><trkpt lat="44.5281017" lon="8.35092"><ele>305.0</ele><time>2026-04-04T12:39:53.103Z</time></trkpt><trkpt lat="44.5282117" lon="8.35098"><ele>304.5</ele><time>2026-04-04T12:39:54.102Z</time></trkpt><trkpt lat="44.5283267" lon="8.35104"><ele>304.0</ele><time>2026-04-04T12:39:55.102Z</time></trkpt><trkpt lat="44.5284383" lon="8.3511033"><ele>304.0</ele><time>2026-04-04T12:39:56.102Z</time></trkpt><trkpt lat="44.5285567" lon="8.3511683"><ele>304.0</ele><time>2026-04-04T12:39:57.102Z</time></trkpt><trkpt lat="44.5286783" lon="8.3512217"><ele>304.0</ele><time>2026-04-04T12:39:58.1Z</time></trkpt><trkpt lat="44.5288083" lon="8.351255"><ele>304.0</ele><time>2026-04-04T12:39:59.106Z</time></trkpt><trkpt lat="44.52894" lon="8.3512783"><ele>304.59999999999997</ele><time>2026-04-04T12:40:00.102Z</time></trkpt><trkpt lat="44.52906" lon="8.3513"><ele>305.2</ele><time>2026-04-04T12:40:01.103Z</time></trkpt><trkpt lat="44.5291667" lon="8.351315"><ele>305.79999999999995</ele><time>2026-04-04T12:40:02.101Z</time></trkpt><trkpt lat="44.52927" lon="8.3513317"><ele>306.4</ele><time>2026-04-04T12:40:03.102Z</time></trkpt><trkpt lat="44.52937" lon="8.35136"><ele>307.0</ele><time>2026-04-04T12:40:04.102Z</time></trkpt><trkpt lat="44.52947" lon="8.3514"><ele>308.8</ele><time>2026-04-04T12:40:05.103Z</time></trkpt><trkpt lat="44.5295717" lon="8.351435"><ele>310.6</ele><time>2026-04-04T12:40:06.101Z</time></trkpt><trkpt lat="44.529675" lon="8.3514717"><ele>312.40000000000003</ele><time>2026-04-04T12:40:07.107Z</time></trkpt><trkpt lat="44.529785" lon="8.3515083"><ele>314.2</ele><time>2026-04-04T12:40:08.102Z</time></trkpt><trkpt lat="44.5298983" lon="8.35155"><ele>316.0</ele><time>2026-04-04T12:40:09.103Z</time></trkpt><trkpt lat="44.530015" lon="8.351565"><ele>316.0</ele><time>2026-04-04T12:40:10.099Z</time></trkpt><trkpt lat="44.53013" lon="8.35154"><ele>316.0</ele><time>2026-04-04T12:40:11.108Z</time></trkpt><trkpt lat="44.530235" lon="8.3514817"><ele>316.0</ele><time>2026-04-04T12:40:12.1Z</time></trkpt><trkpt lat="44.5303317" lon="8.351395"><ele>316.0</ele><time>2026-04-04T12:40:13.104Z</time></trkpt><trkpt lat="44.5304367" lon="8.35131"><ele>316.75</ele><time>2026-04-04T12:40:14.102Z</time></trkpt><trkpt lat="44.530545" lon="8.3512333"><ele>317.5</ele><time>2026-04-04T12:40:15.101Z</time></trkpt><trkpt lat="44.53065" lon="8.35116"><ele>318.25</ele><time>2026-04-04T12:40:16.105Z</time></trkpt><trkpt lat="44.5307533" lon="8.3510967"><ele>319.0</ele><time>2026-04-04T12:40:17.106Z</time></trkpt><trkpt lat="44.5308533" lon="8.3510433"><ele>319.0</ele><time>2026-04-04T12:40:18.1Z</time></trkpt><trkpt lat="44.5309633" lon="8.3509983"><ele>319.0</ele><time>2026-04-04T12:40:19.108Z</time></trkpt><trkpt lat="44.53109" lon="8.3509833"><ele>319.0</ele><time>2026-04-04T12:40:20.101Z</time></trkpt><trkpt lat="44.5312333" lon="8.3509567"><ele>319.0</ele><time>2026-04-04T12:40:21.107Z</time></trkpt><trkpt lat="44.531405" lon="8.350915"><ele>320.3333333333333</ele><time>2026-04-04T12:40:22.105Z</time></trkpt><trkpt lat="44.5315983" lon="8.3508467"><ele>321.6666666666667</ele><time>2026-04-04T12:40:23.108Z</time></trkpt><trkpt lat="44.5318083" lon="8.3507917"><ele>323.0</ele><time>2026-04-04T12:40:24.102Z</time></trkpt><trkpt lat="44.5320433" lon="8.35074"><ele>323.5</ele><time>2026-04-04T12:40:25.104Z</time></trkpt><trkpt lat="44.5322867" lon="8.350695"><ele>324.0</ele><time>2026-04-04T12:40:26.103Z</time></trkpt><trkpt lat="44.5325317" lon="8.3506367"><ele>324.0</ele><time>2026-04-04T12:40:27.104Z</time></trkpt><trkpt lat="44.532765" lon="8.350575"><ele>324.0</ele><time>2026-04-04T12:40:28.105Z</time></trkpt><trkpt lat="44.53299" lon="8.3505067"><ele>327.0</ele><time>2026-04-04T12:40:29.106Z</time></trkpt><trkpt lat="44.53321" lon="8.3504817"><ele>330.0</ele><time>2026-04-04T12:40:30.107Z</time></trkpt><trkpt lat="44.5334283" lon="8.3504667"><ele>333.0</ele><time>2026-04-04T12:40:31.102Z</time></trkpt><trkpt lat="44.5336483" lon="8.3504733"><ele>335.0</ele><time>2026-04-04T12:40:32.1Z</time></trkpt><trkpt lat="44.5338433" lon="8.3505083"><ele>337.0</ele><time>2026-04-04T12:40:33.102Z</time></trkpt><trkpt lat="44.5340283" lon="8.3505417"><ele>339.0</ele><time>2026-04-04T12:40:34.101Z</time></trkpt><trkpt lat="44.5341917" lon="8.35056"><ele>339.0</ele><time>2026-04-04T12:40:35.108Z</time></trkpt><trkpt lat="44.53433" lon="8.3505317"><ele>339.0</ele><time>2026-04-04T12:40:36.102Z</time></trkpt><trkpt lat="44.5344467" lon="8.3504633"><ele>339.0</ele><time>2026-04-04T12:40:37.104Z</time></trkpt><trkpt lat="44.53455" lon="8.3503517"><ele>339.0</ele><time>2026-04-04T12:40:38.106Z</time></trkpt><trkpt lat="44.5346217" lon="8.3501917"><ele>339.25</ele><time>2026-04-04T12:40:39.099Z</time></trkpt><trkpt lat="44.5346733" lon="8.3500167"><ele>339.5</ele><time>2026-04-04T12:40:40.103Z</time></trkpt><trkpt lat="44.5347217" lon="8.349835"><ele>339.75</ele><time>2026-04-04T12:40:41.102Z</time></trkpt><trkpt lat="44.5347633" lon="8.34967"><ele>340.0</ele><time>2026-04-04T12:40:42.107Z</time></trkpt><trkpt lat="44.5347883" lon="8.3495267"><ele>340.0</ele><time>2026-04-04T12:40:43.105Z</time></trkpt><trkpt lat="44.534835" lon="8.3494317"><ele>340.0</ele><time>2026-04-04T12:40:44.109Z</time></trkpt><trkpt lat="44.5349083" lon="8.3494"><ele>340.0</ele><time>2026-04-04T12:40:45.104Z</time></trkpt><trkpt lat="44.5349967" lon="8.3494083"><ele>340.0</ele><time>2026-04-04T12:40:46.107Z</time></trkpt><trkpt lat="44.53511" lon="8.349485"><ele>340.0</ele><time>2026-04-04T12:40:47.112Z</time></trkpt><trkpt lat="44.535205" lon="8.349575"><ele>340.0</ele><time>2026-04-04T12:40:48.106Z</time></trkpt><trkpt lat="44.5352767" lon="8.34968"><ele>340.0</ele><time>2026-04-04T12:40:49.107Z</time></trkpt><trkpt lat="44.5353083" lon="8.3498133"><ele>340.0</ele><time>2026-04-04T12:40:50.107Z</time></trkpt><trkpt lat="44.53532" lon="8.34997"><ele>340.0</ele><time>2026-04-04T12:40:51.105Z</time></trkpt><trkpt lat="44.5353317" lon="8.350135"><ele>340.0</ele><time>2026-04-04T12:40:52.104Z</time></trkpt><trkpt lat="44.5353533" lon="8.3502967"><ele>341.4</ele><time>2026-04-04T12:40:53.103Z</time></trkpt><trkpt lat="44.5354033" lon="8.35041"><ele>342.8</ele><time>2026-04-04T12:40:54.105Z</time></trkpt><trkpt lat="44.53548" lon="8.3504883"><ele>344.20000000000005</ele><time>2026-04-04T12:40:55.108Z</time></trkpt><trkpt lat="44.5355633" lon="8.35053"><ele>345.6</ele><time>2026-04-04T12:40:56.1Z</time></trkpt><trkpt lat="44.5357033" lon="8.35051"><ele>347.0</ele><time>2026-04-04T12:40:57.101Z</time></trkpt><trkpt lat="44.5358517" lon="8.3504867"><ele>347.0</ele><time>2026-04-04T12:40:58.11Z</time></trkpt><trkpt lat="44.5360067" lon="8.35044"><ele>347.0</ele><time>2026-04-04T12:40:59.101Z</time></trkpt><trkpt lat="44.5361517" lon="8.350385"><ele>347.0</ele><time>2026-04-04T12:41:00.105Z</time></trkpt><trkpt lat="44.53628" lon="8.3503717"><ele>347.0</ele><time>2026-04-04T12:41:01.106Z</time></trkpt><trkpt lat="44.5364033" lon="8.35038"><ele>348.20000000000005</ele><time>2026-04-04T12:41:02.103Z</time></trkpt><trkpt lat="44.5365033" lon="8.350375"><ele>349.4</ele><time>2026-04-04T12:41:03.104Z</time></trkpt><trkpt lat="44.5365967" lon="8.350345"><ele>350.6</ele><time>2026-04-04T12:41:04.114Z</time></trkpt><trkpt lat="44.5366517" lon="8.3502767"><ele>351.79999999999995</ele><time>2026-04-04T12:41:05.107Z</time></trkpt><trkpt lat="44.5366317" lon="8.3501233"><ele>353.0</ele><time>2026-04-04T12:41:07.104Z</time></trkpt><trkpt lat="44.5365667" lon="8.35009"><ele>353.0</ele><time>2026-04-04T12:41:08.101Z</time></trkpt><trkpt lat="44.5364833" lon="8.3500783"><ele>353.0</ele><time>2026-04-04T12:41:09.104Z</time></trkpt><trkpt lat="44.5364017" lon="8.350085"><ele>353.0</ele><time>2026-04-04T12:41:10.101Z</time></trkpt><trkpt lat="44.5363017" lon="8.350105"><ele>353.0</ele><time>2026-04-04T12:41:11.107Z</time></trkpt><trkpt lat="44.5361817" lon="8.3501417"><ele>353.0</ele><time>2026-04-04T12:41:12.102Z</time></trkpt><trkpt lat="44.5360767" lon="8.35015"><ele>351.79999999999995</ele><time>2026-04-04T12:41:13.109Z</time></trkpt><trkpt lat="44.5359767" lon="8.3501467"><ele>350.6</ele><time>2026-04-04T12:41:14.104Z</time></trkpt><trkpt lat="44.5358883" lon="8.350075"><ele>349.4</ele><time>2026-04-04T12:41:15.102Z</time></trkpt><trkpt lat="44.5358267" lon="8.3499733"><ele>348.20000000000005</ele><time>2026-04-04T12:41:16.1Z</time></trkpt><trkpt lat="44.5357867" lon="8.3498633"><ele>347.0</ele><time>2026-04-04T12:41:17.101Z</time></trkpt><trkpt lat="44.5358167" lon="8.349745"><ele>346.8</ele><time>2026-04-04T12:41:18.1Z</time></trkpt><trkpt lat="44.5358533" lon="8.3496483"><ele>346.6</ele><time>2026-04-04T12:41:19.106Z</time></trkpt><trkpt lat="44.5359717" lon="8.349605"><ele>346.40000000000003</ele><time>2026-04-04T12:41:20.105Z</time></trkpt><trkpt lat="44.536075" lon="8.3495383"><ele>346.20000000000005</ele><time>2026-04-04T12:41:21.1Z</time></trkpt><trkpt lat="44.536165" lon="8.3494467"><ele>346.0</ele><time>2026-04-04T12:41:22.109Z</time></trkpt><trkpt lat="44.5362283" lon="8.3493117"><ele>348.75</ele><time>2026-04-04T12:41:23.101Z</time></trkpt><trkpt lat="44.5362783" lon="8.3491567"><ele>351.5</ele><time>2026-04-04T12:41:24.104Z</time></trkpt><trkpt lat="44.536345" lon="8.3490167"><ele>354.25</ele><time>2026-04-04T12:41:25.103Z</time></trkpt><trkpt lat="44.53643" lon="8.3489"><ele>357.0</ele><time>2026-04-04T12:41:26.108Z</time></trkpt><trkpt lat="44.5365367" lon="8.348795"><ele>357.0</ele><time>2026-04-04T12:41:27.103Z</time></trkpt><trkpt lat="44.5366517" lon="8.3486883"><ele>357.0</ele><time>2026-04-04T12:41:28.104Z</time></trkpt><trkpt lat="44.53677" lon="8.3485783"><ele>357.0</ele><time>2026-04-04T12:41:29.104Z</time></trkpt><trkpt lat="44.5368883" lon="8.348455"><ele>357.0</ele><time>2026-04-04T12:41:30.102Z</time></trkpt><trkpt lat="44.5369983" lon="8.3483117"><ele>361.0</ele><time>2026-04-04T12:41:31.105Z</time></trkpt><trkpt lat="44.5370917" lon="8.3481367"><ele>365.0</ele><time>2026-04-04T12:41:32.1Z</time></trkpt><trkpt lat="44.537175" lon="8.347945"><ele>369.0</ele><time>2026-04-04T12:41:33.106Z</time></trkpt><trkpt lat="44.5372617" lon="8.3477417"><ele>369.0</ele><time>2026-04-04T12:41:34.106Z</time></trkpt><trkpt lat="44.5373483" lon="8.347545"><ele>369.0</ele><time>2026-04-04T12:41:35.103Z</time></trkpt><trkpt lat="44.5374267" lon="8.3473567"><ele>369.0</ele><time>2026-04-04T12:41:36.104Z</time></trkpt><trkpt lat="44.5374917" lon="8.347175"><ele>369.0</ele><time>2026-04-04T12:41:37.1Z</time></trkpt><trkpt lat="44.5375417" lon="8.3469917"><ele>369.0</ele><time>2026-04-04T12:41:38.101Z</time></trkpt><trkpt lat="44.53758" lon="8.3468133"><ele>369.0</ele><time>2026-04-04T12:41:39.1Z</time></trkpt><trkpt lat="44.53762" lon="8.3466317"><ele>369.0</ele><time>2026-04-04T12:41:40.1Z</time></trkpt><trkpt lat="44.5376483" lon="8.3464467"><ele>368.2</ele><time>2026-04-04T12:41:41.102Z</time></trkpt><trkpt lat="44.53767" lon="8.34628"><ele>367.4</ele><time>2026-04-04T12:41:42.101Z</time></trkpt><trkpt lat="44.53767" lon="8.3461317"><ele>366.6</ele><time>2026-04-04T12:41:43.101Z</time></trkpt><trkpt lat="44.5376433" lon="8.3459833"><ele>365.8</ele><time>2026-04-04T12:41:44.097Z</time></trkpt><trkpt lat="44.5375967" lon="8.3458383"><ele>365.0</ele><time>2026-04-04T12:41:45.101Z</time></trkpt><trkpt lat="44.53752" lon="8.3456983"><ele>365.0</ele><time>2026-04-04T12:41:46.1Z</time></trkpt><trkpt lat="44.5374333" lon="8.3455667"><ele>365.0</ele><time>2026-04-04T12:41:47.106Z</time></trkpt><trkpt lat="44.53734" lon="8.3454333"><ele>365.0</ele><time>2026-04-04T12:41:48.104Z</time></trkpt><trkpt lat="44.537255" lon="8.34529"><ele>365.0</ele><time>2026-04-04T12:41:49.105Z</time></trkpt><trkpt lat="44.537215" lon="8.345125"><ele>365.25</ele><time>2026-04-04T12:41:50.107Z</time></trkpt><trkpt lat="44.5371783" lon="8.3449533"><ele>365.5</ele><time>2026-04-04T12:41:51.102Z</time></trkpt><trkpt lat="44.5371517" lon="8.34477"><ele>365.75</ele><time>2026-04-04T12:41:52.107Z</time></trkpt><trkpt lat="44.5371233" lon="8.344605"><ele>366.0</ele><time>2026-04-04T12:41:53.102Z</time></trkpt><trkpt lat="44.5370683" lon="8.344485"><ele>363.4</ele><time>2026-04-04T12:41:54.101Z</time></trkpt><trkpt lat="44.5369933" lon="8.3444117"><ele>360.8</ele><time>2026-04-04T12:41:55.109Z</time></trkpt><trkpt lat="44.536915" lon="8.3443617"><ele>358.2</ele><time>2026-04-04T12:41:56.104Z</time></trkpt><trkpt lat="44.536835" lon="8.3443117"><ele>355.59999999999997</ele><time>2026-04-04T12:41:57.102Z</time></trkpt><trkpt lat="44.5367717" lon="8.3441867"><ele>353.0</ele><time>2026-04-04T12:41:58.102Z</time></trkpt><trkpt lat="44.5367133" lon="8.344025"><ele>353.75</ele><time>2026-04-04T12:41:59.104Z</time></trkpt><trkpt lat="44.536655" lon="8.3438483"><ele>354.5</ele><time>2026-04-04T12:42:00.1Z</time></trkpt><trkpt lat="44.5365933" lon="8.34366"><ele>355.25</ele><time>2026-04-04T12:42:01.105Z</time></trkpt><trkpt lat="44.536525" lon="8.3434733"><ele>356.0</ele><time>2026-04-04T12:42:02.1Z</time></trkpt><trkpt lat="44.5364517" lon="8.3432983"><ele>356.0</ele><time>2026-04-04T12:42:03.103Z</time></trkpt><trkpt lat="44.5363833" lon="8.3431433"><ele>356.0</ele><time>2026-04-04T12:42:04.101Z</time></trkpt><trkpt lat="44.5363417" lon="8.3429967"><ele>356.0</ele><time>2026-04-04T12:42:05.105Z</time></trkpt><trkpt lat="44.5363417" lon="8.34284"><ele>356.0</ele><time>2026-04-04T12:42:06.101Z</time></trkpt><trkpt lat="44.536375" lon="8.3426983"><ele>356.0</ele><time>2026-04-04T12:42:07.102Z</time></trkpt><trkpt lat="44.5364033" lon="8.3425533"><ele>356.0</ele><time>2026-04-04T12:42:08.102Z</time></trkpt><trkpt lat="44.5363983" lon="8.342415"><ele>356.0</ele><time>2026-04-04T12:42:09.101Z</time></trkpt><trkpt lat="44.5363583" lon="8.3422967"><ele>356.0</ele><time>2026-04-04T12:42:10.101Z</time></trkpt><trkpt lat="44.5362867" lon="8.34219"><ele>356.0</ele><time>2026-04-04T12:42:11.105Z</time></trkpt><trkpt lat="44.536195" lon="8.3420833"><ele>352.25</ele><time>2026-04-04T12:42:12.1Z</time></trkpt><trkpt lat="44.536125" lon="8.34196"><ele>348.5</ele><time>2026-04-04T12:42:13.108Z</time></trkpt><trkpt lat="44.53608" lon="8.3418167"><ele>344.75</ele><time>2026-04-04T12:42:14.101Z</time></trkpt><trkpt lat="44.53606" lon="8.341655"><ele>341.0</ele><time>2026-04-04T12:42:15.105Z</time></trkpt><trkpt lat="44.5360667" lon="8.3414767"><ele>339.75</ele><time>2026-04-04T12:42:16.105Z</time></trkpt><trkpt lat="44.536085" lon="8.3412833"><ele>338.5</ele><time>2026-04-04T12:42:17.103Z</time></trkpt><trkpt lat="44.5360933" lon="8.3410733"><ele>337.25</ele><time>2026-04-04T12:42:18.101Z</time></trkpt><trkpt lat="44.5360967" lon="8.34085"><ele>336.0</ele><time>2026-04-04T12:42:19.1Z</time></trkpt><trkpt lat="44.5361017" lon="8.3406233"><ele>335.0</ele><time>2026-04-04T12:42:20.111Z</time></trkpt><trkpt lat="44.53611" lon="8.3403917"><ele>334.0</ele><time>2026-04-04T12:42:21.098Z</time></trkpt><trkpt lat="44.5361233" lon="8.34016"><ele>333.0</ele><time>2026-04-04T12:42:22.105Z</time></trkpt><trkpt lat="44.536135" lon="8.3399267"><ele>331.0</ele><time>2026-04-04T12:42:23.099Z</time></trkpt><trkpt lat="44.5361417" lon="8.3396967"><ele>329.0</ele><time>2026-04-04T12:42:24.1Z</time></trkpt><trkpt lat="44.5361383" lon="8.3394667"><ele>327.0</ele><time>2026-04-04T12:42:25.102Z</time></trkpt><trkpt lat="44.5361233" lon="8.3392433"><ele>327.0</ele><time>2026-04-04T12:42:26.096Z</time></trkpt><trkpt lat="44.5360967" lon="8.3390333"><ele>327.0</ele><time>2026-04-04T12:42:27.101Z</time></trkpt><trkpt lat="44.5360567" lon="8.3388433"><ele>327.0</ele><time>2026-04-04T12:42:28.103Z</time></trkpt><trkpt lat="44.5359967" lon="8.3386667"><ele>327.0</ele><time>2026-04-04T12:42:29.103Z</time></trkpt><trkpt lat="44.535935" lon="8.3385033"><ele>325.8</ele><time>2026-04-04T12:42:30.103Z</time></trkpt><trkpt lat="44.5358883" lon="8.33835"><ele>324.6</ele><time>2026-04-04T12:42:31.105Z</time></trkpt><trkpt lat="44.5358683" lon="8.3382067"><ele>323.40000000000003</ele><time>2026-04-04T12:42:32.104Z</time></trkpt><trkpt lat="44.5358767" lon="8.3380817"><ele>322.20000000000005</ele><time>2026-04-04T12:42:33.106Z</time></trkpt><trkpt lat="44.5358833" lon="8.3379733"><ele>321.0</ele><time>2026-04-04T12:42:34.103Z</time></trkpt><trkpt lat="44.53589" lon="8.3378767"><ele>316.0</ele><time>2026-04-04T12:42:35.105Z</time></trkpt><trkpt lat="44.5359783" lon="8.337785"><ele>311.0</ele><time>2026-04-04T12:42:37.102Z</time></trkpt><trkpt lat="44.5360817" lon="8.33781"><ele>306.0</ele><time>2026-04-04T12:42:38.102Z</time></trkpt><trkpt lat="44.53622" lon="8.3378767"><ele>301.0</ele><time>2026-04-04T12:42:39.1Z</time></trkpt><trkpt lat="44.5364017" lon="8.3379817"><ele>305.66666666666663</ele><time>2026-04-04T12:42:40.102Z</time></trkpt><trkpt lat="44.5366083" lon="8.3381017"><ele>310.3333333333333</ele><time>2026-04-04T12:42:41.104Z</time></trkpt><trkpt lat="44.5368017" lon="8.3382517"><ele>315.0</ele><time>2026-04-04T12:42:42.104Z</time></trkpt><trkpt lat="44.5369467" lon="8.33836"><ele>309.0</ele><time>2026-04-04T12:42:43.105Z</time></trkpt><trkpt lat="44.537065" lon="8.33846"><ele>303.0</ele><time>2026-04-04T12:42:44.102Z</time></trkpt><trkpt lat="44.5371867" lon="8.3385983"><ele>297.0</ele><time>2026-04-04T12:42:45.101Z</time></trkpt><trkpt lat="44.5372917" lon="8.3387833"><ele>301.6666666666667</ele><time>2026-04-04T12:42:46.1Z</time></trkpt><trkpt lat="44.5373917" lon="8.33897"><ele>306.33333333333337</ele><time>2026-04-04T12:42:47.1Z</time></trkpt><trkpt lat="44.5374833" lon="8.33918"><ele>311.0</ele><time>2026-04-04T12:42:48.104Z</time></trkpt><trkpt lat="44.53757" lon="8.33939"><ele>311.0</ele><time>2026-04-04T12:42:49.1Z</time></trkpt><trkpt lat="44.5376467" lon="8.3395733"><ele>311.0</ele><time>2026-04-04T12:42:50.1Z</time></trkpt><trkpt lat="44.5377133" lon="8.339725"><ele>311.0</ele><time>2026-04-04T12:42:51.107Z</time></trkpt><trkpt lat="44.5377867" lon="8.33983"><ele>311.0</ele><time>2026-04-04T12:42:52.101Z</time></trkpt><trkpt lat="44.5378617" lon="8.3398917"><ele>311.8</ele><time>2026-04-04T12:42:53.101Z</time></trkpt><trkpt lat="44.53794" lon="8.3399333"><ele>312.6</ele><time>2026-04-04T12:42:54.099Z</time></trkpt><trkpt lat="44.5380167" lon="8.339935"><ele>313.4</ele><time>2026-04-04T12:42:55.102Z</time></trkpt><trkpt lat="44.5381" lon="8.339925"><ele>314.2</ele><time>2026-04-04T12:42:56.102Z</time></trkpt><trkpt lat="44.5381667" lon="8.339735"><ele>315.0</ele><time>2026-04-04T12:42:57.101Z</time></trkpt><trkpt lat="44.53824" lon="8.33961"><ele>311.4</ele><time>2026-04-04T12:42:58.102Z</time></trkpt><trkpt lat="44.5383067" lon="8.3394983"><ele>307.8</ele><time>2026-04-04T12:42:59.103Z</time></trkpt><trkpt lat="44.5383733" lon="8.3394217"><ele>304.2</ele><time>2026-04-04T12:43:00.101Z</time></trkpt><trkpt lat="44.53845" lon="8.3393617"><ele>300.6</ele><time>2026-04-04T12:43:01.104Z</time></trkpt><trkpt lat="44.5385433" lon="8.339355"><ele>297.0</ele><time>2026-04-04T12:43:02.099Z</time></trkpt><trkpt lat="44.5386567" lon="8.3393917"><ele>293.75</ele><time>2026-04-04T12:43:03.107Z</time></trkpt><trkpt lat="44.5388" lon="8.3394517"><ele>290.5</ele><time>2026-04-04T12:43:04.1Z</time></trkpt><trkpt lat="44.53893" lon="8.3395117"><ele>287.25</ele><time>2026-04-04T12:43:05.106Z</time></trkpt><trkpt lat="44.5390633" lon="8.3395917"><ele>284.0</ele><time>2026-04-04T12:43:06.099Z</time></trkpt><trkpt lat="44.5391617" lon="8.3396533"><ele>287.59999999999997</ele><time>2026-04-04T12:43:07.103Z</time></trkpt><trkpt lat="44.5392333" lon="8.3397517"><ele>291.2</ele><time>2026-04-04T12:43:08.097Z</time></trkpt><trkpt lat="44.5392867" lon="8.3398767"><ele>294.79999999999995</ele><time>2026-04-04T12:43:09.099Z</time></trkpt><trkpt lat="44.5393033" lon="8.340035"><ele>298.4</ele><time>2026-04-04T12:43:10.104Z</time></trkpt><trkpt lat="44.539335" lon="8.3401683"><ele>302.0</ele><time>2026-04-04T12:43:11.1Z</time></trkpt><trkpt lat="44.5393783" lon="8.3402867"><ele>302.0</ele><time>2026-04-04T12:43:12.099Z</time></trkpt><trkpt lat="44.539445" lon="8.3403883"><ele>302.0</ele><time>2026-04-04T12:43:13.103Z</time></trkpt><trkpt lat="44.5395217" lon="8.3404783"><ele>302.0</ele><time>2026-04-04T12:43:14.101Z</time></trkpt><trkpt lat="44.5396083" lon="8.3405567"><ele>302.0</ele><time>2026-04-04T12:43:15.101Z</time></trkpt><trkpt lat="44.53971" lon="8.3406383"><ele>302.0</ele><time>2026-04-04T12:43:16.103Z</time></trkpt><trkpt lat="44.53981" lon="8.3407517"><ele>301.75</ele><time>2026-04-04T12:43:17.103Z</time></trkpt><trkpt lat="44.5399" lon="8.3408967"><ele>301.5</ele><time>2026-04-04T12:43:18.104Z</time></trkpt><trkpt lat="44.539975" lon="8.3410667"><ele>301.25</ele><time>2026-04-04T12:43:19.1Z</time></trkpt><trkpt lat="44.540035" lon="8.3412467"><ele>301.0</ele><time>2026-04-04T12:43:20.105Z</time></trkpt><trkpt lat="44.5400817" lon="8.34141"><ele>301.0</ele><time>2026-04-04T12:43:21.102Z</time></trkpt><trkpt lat="44.5401067" lon="8.3415833"><ele>301.0</ele><time>2026-04-04T12:43:22.102Z</time></trkpt><trkpt lat="44.540115" lon="8.3417633"><ele>301.0</ele><time>2026-04-04T12:43:23.103Z</time></trkpt><trkpt lat="44.54012" lon="8.3419533"><ele>301.0</ele><time>2026-04-04T12:43:24.103Z</time></trkpt><trkpt lat="44.5401133" lon="8.34213"><ele>301.2</ele><time>2026-04-04T12:43:25.108Z</time></trkpt><trkpt lat="44.5401083" lon="8.3422917"><ele>301.40000000000003</ele><time>2026-04-04T12:43:26.1Z</time></trkpt><trkpt lat="44.540115" lon="8.3424367"><ele>301.6</ele><time>2026-04-04T12:43:27.101Z</time></trkpt><trkpt lat="44.5401517" lon="8.3425517"><ele>301.8</ele><time>2026-04-04T12:43:28.102Z</time></trkpt><trkpt lat="44.5402067" lon="8.342645"><ele>302.0</ele><time>2026-04-04T12:43:29.107Z</time></trkpt><trkpt lat="44.5402883" lon="8.3426567"><ele>302.0</ele><time>2026-04-04T12:43:30.101Z</time></trkpt><trkpt lat="44.5403783" lon="8.3426133"><ele>302.0</ele><time>2026-04-04T12:43:31.107Z</time></trkpt><trkpt lat="44.5404633" lon="8.3425467"><ele>302.0</ele><time>2026-04-04T12:43:32.104Z</time></trkpt><trkpt lat="44.5405383" lon="8.3424133"><ele>302.0</ele><time>2026-04-04T12:43:33.102Z</time></trkpt><trkpt lat="44.5406233" lon="8.3422833"><ele>302.0</ele><time>2026-04-04T12:43:34.1Z</time></trkpt><trkpt lat="44.540705" lon="8.3421783"><ele>297.0</ele><time>2026-04-04T12:43:35.104Z</time></trkpt><trkpt lat="44.5407833" lon="8.3420883"><ele>292.0</ele><time>2026-04-04T12:43:36.098Z</time></trkpt><trkpt lat="44.5408683" lon="8.3420583"><ele>287.0</ele><time>2026-04-04T12:43:37.102Z</time></trkpt><trkpt lat="44.540955" lon="8.342045"><ele>282.0</ele><time>2026-04-04T12:43:38.102Z</time></trkpt><trkpt lat="44.5410583" lon="8.34211"><ele>277.0</ele><time>2026-04-04T12:43:39.1Z</time></trkpt><trkpt lat="44.5411633" lon="8.3422083"><ele>277.0</ele><time>2026-04-04T12:43:40.101Z</time></trkpt><trkpt lat="44.5412733" lon="8.3423317"><ele>277.0</ele><time>2026-04-04T12:43:41.104Z</time></trkpt><trkpt lat="44.5413917" lon="8.3424817"><ele>277.0</ele><time>2026-04-04T12:43:42.101Z</time></trkpt><trkpt lat="44.541515" lon="8.3426383"><ele>277.0</ele><time>2026-04-04T12:43:43.103Z</time></trkpt><trkpt lat="44.5416367" lon="8.342805"><ele>277.0</ele><time>2026-04-04T12:43:44.102Z</time></trkpt><trkpt lat="44.5417583" lon="8.342975"><ele>277.0</ele><time>2026-04-04T12:43:45.108Z</time></trkpt><trkpt lat="44.5418767" lon="8.3431317"><ele>276.25</ele><time>2026-04-04T12:43:46.105Z</time></trkpt><trkpt lat="44.5419917" lon="8.34328"><ele>275.5</ele><time>2026-04-04T12:43:47.105Z</time></trkpt><trkpt lat="44.5420817" lon="8.3434183"><ele>274.75</ele><time>2026-04-04T12:43:48.105Z</time></trkpt><trkpt lat="44.54215" lon="8.3435517"><ele>274.0</ele><time>2026-04-04T12:43:49.11Z</time></trkpt><trkpt lat="44.5421867" lon="8.3436717"><ele>274.0</ele><time>2026-04-04T12:43:50.102Z</time></trkpt><trkpt lat="44.542215" lon="8.3437733"><ele>274.0</ele><time>2026-04-04T12:43:51.107Z</time></trkpt><trkpt lat="44.5422633" lon="8.343855"><ele>274.0</ele><time>2026-04-04T12:43:52.101Z</time></trkpt><trkpt lat="44.542325" lon="8.3439117"><ele>274.0</ele><time>2026-04-04T12:43:53.105Z</time></trkpt><trkpt lat="44.54245" lon="8.34394"><ele>274.0</ele><time>2026-04-04T12:43:55.104Z</time></trkpt><trkpt lat="44.542505" lon="8.343875"><ele>274.0</ele><time>2026-04-04T12:43:56.107Z</time></trkpt><trkpt lat="44.54255" lon="8.34378"><ele>274.0</ele><time>2026-04-04T12:43:57.101Z</time></trkpt><trkpt lat="44.5426367" lon="8.343595"><ele>274.0</ele><time>2026-04-04T12:43:58.104Z</time></trkpt><trkpt lat="44.542695" lon="8.34348"><ele>274.0</ele><time>2026-04-04T12:43:59.101Z</time></trkpt><trkpt lat="44.54276" lon="8.343395"><ele>274.0</ele><time>2026-04-04T12:44:00.099Z</time></trkpt><trkpt lat="44.54284" lon="8.3433333"><ele>274.0</ele><time>2026-04-04T12:44:01.102Z</time></trkpt><trkpt lat="44.54293" lon="8.34329"><ele>272.5</ele><time>2026-04-04T12:44:02.107Z</time></trkpt><trkpt lat="44.54302" lon="8.3432633"><ele>271.0</ele><time>2026-04-04T12:44:03.106Z</time></trkpt><trkpt lat="44.5431233" lon="8.3432483"><ele>269.5</ele><time>2026-04-04T12:44:04.103Z</time></trkpt><trkpt lat="44.5432667" lon="8.343285"><ele>268.0</ele><time>2026-04-04T12:44:05.106Z</time></trkpt><trkpt lat="44.54339" lon="8.3432983"><ele>268.0</ele><time>2026-04-04T12:44:06.107Z</time></trkpt><trkpt lat="44.5435383" lon="8.3433817"><ele>268.0</ele><time>2026-04-04T12:44:07.107Z</time></trkpt><trkpt lat="44.543645" lon="8.34345"><ele>268.0</ele><time>2026-04-04T12:44:08.106Z</time></trkpt><trkpt lat="44.543755" lon="8.3435533"><ele>268.0</ele><time>2026-04-04T12:44:09.105Z</time></trkpt><trkpt lat="44.5438417" lon="8.343635"><ele>267.0</ele><time>2026-04-04T12:44:10.099Z</time></trkpt><trkpt lat="44.54385" lon="8.34383"><ele>266.0</ele><time>2026-04-04T12:44:11.104Z</time></trkpt><trkpt lat="44.5439033" lon="8.3439467"><ele>265.0</ele><time>2026-04-04T12:44:12.102Z</time></trkpt><trkpt lat="44.54398" lon="8.3440467"><ele>264.0</ele><time>2026-04-04T12:44:13.111Z</time></trkpt><trkpt lat="44.5440583" lon="8.3441367"><ele>263.0</ele><time>2026-04-04T12:44:14.099Z</time></trkpt><trkpt lat="44.5441417" lon="8.3442"><ele>265.6</ele><time>2026-04-04T12:44:15.099Z</time></trkpt><trkpt lat="44.54424" lon="8.3442183"><ele>268.20000000000005</ele><time>2026-04-04T12:44:16.1Z</time></trkpt><trkpt lat="44.54434" lon="8.344195"><ele>270.8</ele><time>2026-04-04T12:44:17.1Z</time></trkpt><trkpt lat="44.5444267" lon="8.3441417"><ele>273.40000000000003</ele><time>2026-04-04T12:44:18.099Z</time></trkpt><trkpt lat="44.544505" lon="8.34404"><ele>276.0</ele><time>2026-04-04T12:44:19.102Z</time></trkpt><trkpt lat="44.5445717" lon="8.3439567"><ele>276.8</ele><time>2026-04-04T12:44:20.101Z</time></trkpt><trkpt lat="44.5446167" lon="8.3438733"><ele>277.6</ele><time>2026-04-04T12:44:21.103Z</time></trkpt><trkpt lat="44.54458" lon="8.3437283"><ele>278.4</ele><time>2026-04-04T12:44:22.116Z</time></trkpt><trkpt lat="44.5445217" lon="8.3435617"><ele>279.2</ele><time>2026-04-04T12:44:23.102Z</time></trkpt><trkpt lat="44.5444767" lon="8.343395"><ele>280.0</ele><time>2026-04-04T12:44:24.104Z</time></trkpt><trkpt lat="44.5444" lon="8.3432483"><ele>277.16666666666663</ele><time>2026-04-04T12:44:25.103Z</time></trkpt><trkpt lat="44.544355" lon="8.3431167"><ele>274.3333333333333</ele><time>2026-04-04T12:44:26.104Z</time></trkpt><trkpt lat="44.544325" lon="8.343"><ele>271.5</ele><time>2026-04-04T12:44:27.105Z</time></trkpt><trkpt lat="44.5443" lon="8.3428883"><ele>268.6666666666667</ele><time>2026-04-04T12:44:28.1Z</time></trkpt><trkpt lat="44.5442833" lon="8.3427817"><ele>265.83333333333337</ele><time>2026-04-04T12:44:29.102Z</time></trkpt><trkpt lat="44.54428" lon="8.3426733"><ele>263.0</ele><time>2026-04-04T12:44:30.11Z</time></trkpt><trkpt lat="44.5443117" lon="8.3425367"><ele>260.0</ele><time>2026-04-04T12:44:31.1Z</time></trkpt><trkpt lat="44.5443383" lon="8.34241"><ele>257.0</ele><time>2026-04-04T12:44:32.103Z</time></trkpt><trkpt lat="44.5444067" lon="8.3422883"><ele>254.0</ele><time>2026-04-04T12:44:33.1Z</time></trkpt><trkpt lat="44.544465" lon="8.3421617"><ele>251.0</ele><time>2026-04-04T12:44:34.103Z</time></trkpt><trkpt lat="44.5444983" lon="8.34199"><ele>248.0</ele><time>2026-04-04T12:44:35.101Z</time></trkpt><trkpt lat="44.5445183" lon="8.3418167"><ele>246.75</ele><time>2026-04-04T12:44:36.099Z</time></trkpt><trkpt lat="44.5445083" lon="8.3416517"><ele>245.5</ele><time>2026-04-04T12:44:37.103Z</time></trkpt><trkpt lat="44.544495" lon="8.3414783"><ele>244.25</ele><time>2026-04-04T12:44:38.101Z</time></trkpt><trkpt lat="44.5444567" lon="8.341305"><ele>243.0</ele><time>2026-04-04T12:44:39.099Z</time></trkpt><trkpt lat="44.544445" lon="8.3411233"><ele>243.0</ele><time>2026-04-04T12:44:40.1Z</time></trkpt><trkpt lat="44.5444367" lon="8.3409367"><ele>243.0</ele><time>2026-04-04T12:44:41.107Z</time></trkpt><trkpt lat="44.5444367" lon="8.34075"><ele>243.0</ele><time>2026-04-04T12:44:42.104Z</time></trkpt><trkpt lat="44.5444483" lon="8.3405667"><ele>243.0</ele><time>2026-04-04T12:44:43.101Z</time></trkpt><trkpt lat="44.5444817" lon="8.3403867"><ele>242.0</ele><time>2026-04-04T12:44:44.096Z</time></trkpt><trkpt lat="44.54452" lon="8.3401983"><ele>241.0</ele><time>2026-04-04T12:44:45.102Z</time></trkpt><trkpt lat="44.544555" lon="8.3400083"><ele>240.0</ele><time>2026-04-04T12:44:46.103Z</time></trkpt><trkpt lat="44.54458" lon="8.3398"><ele>239.0</ele><time>2026-04-04T12:44:47.104Z</time></trkpt><trkpt lat="44.5445967" lon="8.3396"><ele>239.0</ele><time>2026-04-04T12:44:48.104Z</time></trkpt><trkpt lat="44.5446067" lon="8.3394317"><ele>238.99999999999997</ele><time>2026-04-04T12:44:49.105Z</time></trkpt><trkpt lat="44.54461" lon="8.33929"><ele>238.99999999999997</ele><time>2026-04-04T12:44:50.1Z</time></trkpt><trkpt lat="44.544615" lon="8.3391733"><ele>239.0</ele><time>2026-04-04T12:44:51.104Z</time></trkpt><trkpt lat="44.54461" lon="8.3390767"><ele>239.0</ele><time>2026-04-04T12:44:52.106Z</time></trkpt><trkpt lat="44.5445833" lon="8.3389217"><ele>238.39999999999998</ele><time>2026-04-04T12:45:00.105Z</time></trkpt><trkpt lat="44.5445033" lon="8.3388383"><ele>237.79999999999998</ele><time>2026-04-04T12:45:02.1Z</time></trkpt><trkpt lat="44.5443833" lon="8.33878"><ele>237.20000000000002</ele><time>2026-04-04T12:45:04.107Z</time></trkpt><trkpt lat="44.544315" lon="8.338755"><ele>236.60000000000002</ele><time>2026-04-04T12:45:05.103Z</time></trkpt><trkpt lat="44.5442383" lon="8.3387367"><ele>236.0</ele><time>2026-04-04T12:45:06.102Z</time></trkpt><trkpt lat="44.544165" lon="8.3387133"><ele>236.00000000000003</ele><time>2026-04-04T12:45:07.105Z</time></trkpt><trkpt lat="44.544095" lon="8.3386867"><ele>236.0</ele><time>2026-04-04T12:45:08.1Z</time></trkpt><trkpt lat="44.5440317" lon="8.3386617"><ele>236.0</ele><time>2026-04-04T12:45:09.101Z</time></trkpt><trkpt lat="44.54397" lon="8.338635"><ele>236.0</ele><time>2026-04-04T12:45:10.103Z</time></trkpt><trkpt lat="44.54386" lon="8.3385933"><ele>236.00000000000003</ele><time>2026-04-04T12:45:12.105Z</time></trkpt><trkpt lat="44.5437783" lon="8.338565"><ele>236.0</ele><time>2026-04-04T12:45:14.103Z</time></trkpt><trkpt lat="44.5436567" lon="8.3384933"><ele>237.0</ele><time>2026-04-04T12:45:58.105Z</time></trkpt><trkpt lat="44.5435667" lon="8.3384633"><ele>238.00000000000003</ele><time>2026-04-04T12:45:59.105Z</time></trkpt><trkpt lat="44.5434817" lon="8.3384333"><ele>239.00000000000003</ele><time>2026-04-04T12:46:00.107Z</time></trkpt><trkpt lat="44.5433883" lon="8.33839"><ele>240.0</ele><time>2026-04-04T12:46:01.101Z</time></trkpt><trkpt lat="44.5432967" lon="8.3383317"><ele>241.0</ele><time>2026-04-04T12:46:02.101Z</time></trkpt><trkpt lat="44.5432067" lon="8.3382467"><ele>241.0</ele><time>2026-04-04T12:46:03.101Z</time></trkpt><trkpt lat="44.54311" lon="8.3381433"><ele>241.0</ele><time>2026-04-04T12:46:04.104Z</time></trkpt><trkpt lat="44.54302" lon="8.33802"><ele>241.0</ele><time>2026-04-04T12:46:05.098Z</time></trkpt><trkpt lat="44.5429267" lon="8.3378683"><ele>241.0</ele><time>2026-04-04T12:46:06.102Z</time></trkpt><trkpt lat="44.54284" lon="8.3377"><ele>242.25</ele><time>2026-04-04T12:46:07.099Z</time></trkpt><trkpt lat="44.5427633" lon="8.33752"><ele>243.5</ele><time>2026-04-04T12:46:08.104Z</time></trkpt><trkpt lat="44.542695" lon="8.337335"><ele>244.75</ele><time>2026-04-04T12:46:09.097Z</time></trkpt><trkpt lat="44.542625" lon="8.3371483"><ele>246.0</ele><time>2026-04-04T12:46:10.104Z</time></trkpt><trkpt lat="44.542555" lon="8.3369667"><ele>246.0</ele><time>2026-04-04T12:46:11.1Z</time></trkpt><trkpt lat="44.542485" lon="8.3367817"><ele>246.0</ele><time>2026-04-04T12:46:12.102Z</time></trkpt><trkpt lat="44.5424233" lon="8.3365933"><ele>246.0</ele><time>2026-04-04T12:46:13.104Z</time></trkpt><trkpt lat="44.5423617" lon="8.336405"><ele>246.0</ele><time>2026-04-04T12:46:14.1Z</time></trkpt><trkpt lat="44.5423033" lon="8.3362117"><ele>244.33333333333331</ele><time>2026-04-04T12:46:15.099Z</time></trkpt><trkpt lat="44.5422333" lon="8.336025"><ele>242.66666666666666</ele><time>2026-04-04T12:46:16.111Z</time></trkpt><trkpt lat="44.5421633" lon="8.3358283"><ele>241.0</ele><time>2026-04-04T12:46:17.105Z</time></trkpt><trkpt lat="44.5420917" lon="8.3356333"><ele>244.66666666666666</ele><time>2026-04-04T12:46:18.104Z</time></trkpt><trkpt lat="44.5420217" lon="8.3354383"><ele>248.33333333333331</ele><time>2026-04-04T12:46:19.106Z</time></trkpt><trkpt lat="44.5419517" lon="8.3352417"><ele>252.0</ele><time>2026-04-04T12:46:20.102Z</time></trkpt><trkpt lat="44.5418817" lon="8.3350467"><ele>252.0</ele><time>2026-04-04T12:46:21.104Z</time></trkpt><trkpt lat="44.54181" lon="8.334855"><ele>252.0</ele><time>2026-04-04T12:46:22.101Z</time></trkpt><trkpt lat="44.54174" lon="8.3346617"><ele>252.0</ele><time>2026-04-04T12:46:23.103Z</time></trkpt><trkpt lat="44.54167" lon="8.3344683"><ele>249.33333333333331</ele><time>2026-04-04T12:46:24.103Z</time></trkpt><trkpt lat="44.5416017" lon="8.334275"><ele>246.66666666666666</ele><time>2026-04-04T12:46:25.103Z</time></trkpt><trkpt lat="44.5415333" lon="8.33408"><ele>244.0</ele><time>2026-04-04T12:46:26.105Z</time></trkpt><trkpt lat="44.5414633" lon="8.3338867"><ele>242.0</ele><time>2026-04-04T12:46:27.108Z</time></trkpt><trkpt lat="44.5413967" lon="8.333685"><ele>240.0</ele><time>2026-04-04T12:46:28.098Z</time></trkpt><trkpt lat="44.5413267" lon="8.3334883"><ele>238.0</ele><time>2026-04-04T12:46:29.099Z</time></trkpt><trkpt lat="44.541255" lon="8.3332883"><ele>243.66666666666666</ele><time>2026-04-04T12:46:30.104Z</time></trkpt><trkpt lat="44.54119" lon="8.33308"><ele>249.33333333333331</ele><time>2026-04-04T12:46:31.108Z</time></trkpt><trkpt lat="44.5411317" lon="8.332865"><ele>255.0</ele><time>2026-04-04T12:46:32.1Z</time></trkpt><trkpt lat="44.5410867" lon="8.3326467"><ele>255.0</ele><time>2026-04-04T12:46:33.102Z</time></trkpt><trkpt lat="44.5410633" lon="8.3324233"><ele>255.0</ele><time>2026-04-04T12:46:34.099Z</time></trkpt><trkpt lat="44.54106" lon="8.3321983"><ele>255.0</ele><time>2026-04-04T12:46:35.101Z</time></trkpt><trkpt lat="44.5410683" lon="8.33197"><ele>255.0</ele><time>2026-04-04T12:46:36.103Z</time></trkpt><trkpt lat="44.5410833" lon="8.3317417"><ele>255.0</ele><time>2026-04-04T12:46:37.101Z</time></trkpt><trkpt lat="44.5410933" lon="8.3315083"><ele>255.0</ele><time>2026-04-04T12:46:38.105Z</time></trkpt><trkpt lat="44.541095" lon="8.3312767"><ele>255.0</ele><time>2026-04-04T12:46:39.104Z</time></trkpt><trkpt lat="44.5410833" lon="8.331045"><ele>255.0</ele><time>2026-04-04T12:46:40.1Z</time></trkpt><trkpt lat="44.5410667" lon="8.3308133"><ele>255.0</ele><time>2026-04-04T12:46:41.107Z</time></trkpt><trkpt lat="44.5410517" lon="8.330585"><ele>256.6666666666667</ele><time>2026-04-04T12:46:42.101Z</time></trkpt><trkpt lat="44.541035" lon="8.3303617"><ele>258.33333333333337</ele><time>2026-04-04T12:46:43.107Z</time></trkpt><trkpt lat="44.5410167" lon="8.3301517"><ele>260.0</ele><time>2026-04-04T12:46:44.102Z</time></trkpt><trkpt lat="44.5409933" lon="8.32994"><ele>260.0</ele><time>2026-04-04T12:46:45.104Z</time></trkpt><trkpt lat="44.5409783" lon="8.3297333"><ele>260.0</ele><time>2026-04-04T12:46:46.101Z</time></trkpt><trkpt lat="44.5409683" lon="8.329505"><ele>260.0</ele><time>2026-04-04T12:46:47.1Z</time></trkpt><trkpt lat="44.5409533" lon="8.3293017"><ele>260.0</ele><time>2026-04-04T12:46:48.104Z</time></trkpt><trkpt lat="44.5409483" lon="8.3291067"><ele>260.0</ele><time>2026-04-04T12:46:49.106Z</time></trkpt><trkpt lat="44.540965" lon="8.3289167"><ele>260.0</ele><time>2026-04-04T12:46:50.103Z</time></trkpt><trkpt lat="44.5409917" lon="8.328735"><ele>260.0</ele><time>2026-04-04T12:46:51.111Z</time></trkpt><trkpt lat="44.5410267" lon="8.32856"><ele>260.0</ele><time>2026-04-04T12:46:52.1Z</time></trkpt><trkpt lat="44.5410617" lon="8.3283833"><ele>260.0</ele><time>2026-04-04T12:46:53.108Z</time></trkpt><trkpt lat="44.54109" lon="8.328205"><ele>260.0</ele><time>2026-04-04T12:46:54.101Z</time></trkpt><trkpt lat="44.5411033" lon="8.3280267"><ele>260.0</ele><time>2026-04-04T12:46:55.112Z</time></trkpt><trkpt lat="44.5410917" lon="8.3278433"><ele>258.5</ele><time>2026-04-04T12:46:56.102Z</time></trkpt><trkpt lat="44.5410533" lon="8.32767"><ele>257.0</ele><time>2026-04-04T12:46:57.1Z</time></trkpt><trkpt lat="44.5410033" lon="8.3274933"><ele>255.5</ele><time>2026-04-04T12:46:58.102Z</time></trkpt><trkpt lat="44.540945" lon="8.3273117"><ele>254.0</ele><time>2026-04-04T12:46:59.105Z</time></trkpt><trkpt lat="44.5408817" lon="8.3271217"><ele>251.33333333333334</ele><time>2026-04-04T12:47:00.102Z</time></trkpt><trkpt lat="44.5408217" lon="8.326925"><ele>248.66666666666669</ele><time>2026-04-04T12:47:01.102Z</time></trkpt><trkpt lat="44.54076" lon="8.32672"><ele>246.0</ele><time>2026-04-04T12:47:02.101Z</time></trkpt><trkpt lat="44.5406983" lon="8.3265083"><ele>243.66666666666669</ele><time>2026-04-04T12:47:03.103Z</time></trkpt><trkpt lat="44.540635" lon="8.3262933"><ele>241.33333333333334</ele><time>2026-04-04T12:47:04.102Z</time></trkpt><trkpt lat="44.5405667" lon="8.3260833"><ele>239.0</ele><time>2026-04-04T12:47:05.101Z</time></trkpt><trkpt lat="44.5404967" lon="8.325865"><ele>239.0</ele><time>2026-04-04T12:47:06.103Z</time></trkpt><trkpt lat="44.5404283" lon="8.325645"><ele>239.0</ele><time>2026-04-04T12:47:07.104Z</time></trkpt><trkpt lat="44.5403583" lon="8.325425"><ele>239.0</ele><time>2026-04-04T12:47:08.102Z</time></trkpt><trkpt lat="44.5402883" lon="8.3252083"><ele>238.75</ele><time>2026-04-04T12:47:09.104Z</time></trkpt><trkpt lat="44.5402217" lon="8.325005"><ele>238.5</ele><time>2026-04-04T12:47:10.108Z</time></trkpt><trkpt lat="44.540155" lon="8.32482"><ele>238.25</ele><time>2026-04-04T12:47:11.102Z</time></trkpt><trkpt lat="44.5400717" lon="8.3246633"><ele>238.0</ele><time>2026-04-04T12:47:12.1Z</time></trkpt><trkpt lat="44.5399633" lon="8.3245433"><ele>238.0</ele><time>2026-04-04T12:47:13.104Z</time></trkpt><trkpt lat="44.5398333" lon="8.3244633"><ele>238.0</ele><time>2026-04-04T12:47:14.104Z</time></trkpt><trkpt lat="44.5396867" lon="8.3244183"><ele>238.0</ele><time>2026-04-04T12:47:15.104Z</time></trkpt><trkpt lat="44.5395317" lon="8.32441"><ele>238.0</ele><time>2026-04-04T12:47:16.109Z</time></trkpt><trkpt lat="44.539375" lon="8.32443"><ele>237.66666666666666</ele><time>2026-04-04T12:47:17.11Z</time></trkpt><trkpt lat="44.53922" lon="8.3244617"><ele>237.33333333333331</ele><time>2026-04-04T12:47:18.1Z</time></trkpt><trkpt lat="44.539065" lon="8.32449"><ele>237.0</ele><time>2026-04-04T12:47:19.102Z</time></trkpt><trkpt lat="44.5389167" lon="8.32451"><ele>237.0</ele><time>2026-04-04T12:47:20.1Z</time></trkpt><trkpt lat="44.5387667" lon="8.324515"><ele>237.0</ele><time>2026-04-04T12:47:21.101Z</time></trkpt><trkpt lat="44.538635" lon="8.3244833"><ele>237.0</ele><time>2026-04-04T12:47:22.101Z</time></trkpt><trkpt lat="44.5385133" lon="8.3243967"><ele>237.0</ele><time>2026-04-04T12:47:23.104Z</time></trkpt><trkpt lat="44.5384067" lon="8.32427"><ele>236.33333333333331</ele><time>2026-04-04T12:47:24.105Z</time></trkpt><trkpt lat="44.5383167" lon="8.3241017"><ele>235.66666666666666</ele><time>2026-04-04T12:47:25.103Z</time></trkpt><trkpt lat="44.5382283" lon="8.3239183"><ele>235.0</ele><time>2026-04-04T12:47:26.104Z</time></trkpt><trkpt lat="44.5381367" lon="8.3237267"><ele>233.33333333333331</ele><time>2026-04-04T12:47:27.103Z</time></trkpt><trkpt lat="44.5380467" lon="8.3235333"><ele>231.66666666666669</ele><time>2026-04-04T12:47:28.103Z</time></trkpt><trkpt lat="44.537955" lon="8.323345"><ele>230.0</ele><time>2026-04-04T12:47:29.103Z</time></trkpt><trkpt lat="44.537865" lon="8.3231583"><ele>230.5</ele><time>2026-04-04T12:47:30.102Z</time></trkpt><trkpt lat="44.537775" lon="8.32298"><ele>231.0</ele><time>2026-04-04T12:47:31.103Z</time></trkpt><trkpt lat="44.5376833" lon="8.32282"><ele>231.5</ele><time>2026-04-04T12:47:32.099Z</time></trkpt><trkpt lat="44.5375883" lon="8.3226817"><ele>232.0</ele><time>2026-04-04T12:47:33.107Z</time></trkpt><trkpt lat="44.537475" lon="8.32258"><ele>232.0</ele><time>2026-04-04T12:47:34.1Z</time></trkpt><trkpt lat="44.5373567" lon="8.3225217"><ele>232.0</ele><time>2026-04-04T12:47:35.102Z</time></trkpt><trkpt lat="44.5372317" lon="8.3225017"><ele>232.0</ele><time>2026-04-04T12:47:36.099Z</time></trkpt><trkpt lat="44.5371133" lon="8.3225183"><ele>232.0</ele><time>2026-04-04T12:47:37.098Z</time></trkpt><trkpt lat="44.5370183" lon="8.3225467"><ele>234.16666666666666</ele><time>2026-04-04T12:47:38.099Z</time></trkpt><trkpt lat="44.5369417" lon="8.322565"><ele>236.33333333333331</ele><time>2026-04-04T12:47:39.098Z</time></trkpt><trkpt lat="44.5368733" lon="8.32256"><ele>238.5</ele><time>2026-04-04T12:47:40.101Z</time></trkpt><trkpt lat="44.5367933" lon="8.3224683"><ele>240.66666666666669</ele><time>2026-04-04T12:47:42.1Z</time></trkpt><trkpt lat="44.5367617" lon="8.3223867"><ele>242.83333333333334</ele><time>2026-04-04T12:47:43.101Z</time></trkpt><trkpt lat="44.536725" lon="8.3222883"><ele>245.0</ele><time>2026-04-04T12:47:44.101Z</time></trkpt><trkpt lat="44.5366917" lon="8.3221717"><ele>245.75</ele><time>2026-04-04T12:47:45.103Z</time></trkpt><trkpt lat="44.536675" lon="8.322015"><ele>246.5</ele><time>2026-04-04T12:47:46.103Z</time></trkpt><trkpt lat="44.5366683" lon="8.3218333"><ele>247.25</ele><time>2026-04-04T12:47:47.102Z</time></trkpt><trkpt lat="44.53666" lon="8.321645"><ele>248.0</ele><time>2026-04-04T12:47:48.103Z</time></trkpt><trkpt lat="44.5366533" lon="8.3214583"><ele>248.75</ele><time>2026-04-04T12:47:49.103Z</time></trkpt><trkpt lat="44.53665" lon="8.3212617"><ele>249.5</ele><time>2026-04-04T12:47:50.106Z</time></trkpt><trkpt lat="44.5366533" lon="8.3210517"><ele>250.25</ele><time>2026-04-04T12:47:51.101Z</time></trkpt><trkpt lat="44.5366633" lon="8.3208333"><ele>251.0</ele><time>2026-04-04T12:47:52.104Z</time></trkpt><trkpt lat="44.5366817" lon="8.320605"><ele>252.66666666666669</ele><time>2026-04-04T12:47:53.1Z</time></trkpt><trkpt lat="44.5367033" lon="8.3203733"><ele>254.33333333333331</ele><time>2026-04-04T12:47:54.1Z</time></trkpt><trkpt lat="44.5367217" lon="8.3201467"><ele>256.0</ele><time>2026-04-04T12:47:55.101Z</time></trkpt><trkpt lat="44.53675" lon="8.3199183"><ele>258.0</ele><time>2026-04-04T12:47:56.108Z</time></trkpt><trkpt lat="44.5367767" lon="8.3196783"><ele>260.0</ele><time>2026-04-04T12:47:57.099Z</time></trkpt><trkpt lat="44.5367933" lon="8.319435"><ele>262.0</ele><time>2026-04-04T12:47:58.103Z</time></trkpt><trkpt lat="44.5367983" lon="8.3191917"><ele>262.0</ele><time>2026-04-04T12:47:59.107Z</time></trkpt><trkpt lat="44.5368" lon="8.3189483"><ele>262.0</ele><time>2026-04-04T12:48:00.1Z</time></trkpt><trkpt lat="44.5367883" lon="8.3187117"><ele>262.0</ele><time>2026-04-04T12:48:01.1Z</time></trkpt><trkpt lat="44.53678" lon="8.3184917"><ele>263.75</ele><time>2026-04-04T12:48:02.099Z</time></trkpt><trkpt lat="44.53678" lon="8.3182883"><ele>265.5</ele><time>2026-04-04T12:48:03.101Z</time></trkpt><trkpt lat="44.5367983" lon="8.3180883"><ele>267.25</ele><time>2026-04-04T12:48:04.098Z</time></trkpt><trkpt lat="44.536825" lon="8.3178867"><ele>269.0</ele><time>2026-04-04T12:48:05.1Z</time></trkpt><trkpt lat="44.5368483" lon="8.3176867"><ele>271.5</ele><time>2026-04-04T12:48:06.102Z</time></trkpt><trkpt lat="44.53687" lon="8.3174867"><ele>274.0</ele><time>2026-04-04T12:48:07.101Z</time></trkpt><trkpt lat="44.5369083" lon="8.3172883"><ele>276.5</ele><time>2026-04-04T12:48:08.106Z</time></trkpt><trkpt lat="44.5369517" lon="8.3170933"><ele>279.0</ele><time>2026-04-04T12:48:09.105Z</time></trkpt><trkpt lat="44.536995" lon="8.3169017"><ele>279.5</ele><time>2026-04-04T12:48:10.099Z</time></trkpt><trkpt lat="44.5370417" lon="8.3167183"><ele>280.0</ele><time>2026-04-04T12:48:11.104Z</time></trkpt><trkpt lat="44.5371" lon="8.31655"><ele>280.5</ele><time>2026-04-04T12:48:12.108Z</time></trkpt><trkpt lat="44.5371717" lon="8.3163933"><ele>281.0</ele><time>2026-04-04T12:48:13.103Z</time></trkpt><trkpt lat="44.53726" lon="8.3162533"><ele>281.0</ele><time>2026-04-04T12:48:14.103Z</time></trkpt><trkpt lat="44.5373667" lon="8.316125"><ele>281.0</ele><time>2026-04-04T12:48:15.101Z</time></trkpt><trkpt lat="44.5374817" lon="8.316"><ele>281.0</ele><time>2026-04-04T12:48:16.104Z</time></trkpt><trkpt lat="44.5375983" lon="8.3158733"><ele>281.0</ele><time>2026-04-04T12:48:17.105Z</time></trkpt><trkpt lat="44.53772" lon="8.315755"><ele>281.0</ele><time>2026-04-04T12:48:18.108Z</time></trkpt><trkpt lat="44.537845" lon="8.3156367"><ele>281.0</ele><time>2026-04-04T12:48:19.103Z</time></trkpt><trkpt lat="44.5379667" lon="8.3155117"><ele>281.0</ele><time>2026-04-04T12:48:20.105Z</time></trkpt><trkpt lat="44.5380833" lon="8.3153833"><ele>282.75</ele><time>2026-04-04T12:48:21.102Z</time></trkpt><trkpt lat="44.538195" lon="8.3152683"><ele>284.5</ele><time>2026-04-04T12:48:22.099Z</time></trkpt><trkpt lat="44.5383133" lon="8.3151783"><ele>286.25</ele><time>2026-04-04T12:48:23.098Z</time></trkpt><trkpt lat="44.5384267" lon="8.3150917"><ele>288.0</ele><time>2026-04-04T12:48:24.101Z</time></trkpt><trkpt lat="44.5385267" lon="8.315015"><ele>288.0</ele><time>2026-04-04T12:48:25.101Z</time></trkpt><trkpt lat="44.53861" lon="8.3149283"><ele>288.0</ele><time>2026-04-04T12:48:26.1Z</time></trkpt><trkpt lat="44.53868" lon="8.314845"><ele>288.0</ele><time>2026-04-04T12:48:27.102Z</time></trkpt><trkpt lat="44.5387417" lon="8.3147667"><ele>288.0</ele><time>2026-04-04T12:48:28.101Z</time></trkpt><trkpt lat="44.5387783" lon="8.3146767"><ele>288.0</ele><time>2026-04-04T12:48:29.105Z</time></trkpt><trkpt lat="44.5387617" lon="8.3145367"><ele>288.0</ele><time>2026-04-04T12:48:31.102Z</time></trkpt><trkpt lat="44.5386833" lon="8.3145467"><ele>288.0</ele><time>2026-04-04T12:48:33.106Z</time></trkpt><trkpt lat="44.5385983" lon="8.31466"><ele>288.0</ele><time>2026-04-04T12:48:35.101Z</time></trkpt><trkpt lat="44.5385433" lon="8.3147433"><ele>288.0</ele><time>2026-04-04T12:48:36.101Z</time></trkpt><trkpt lat="44.5384767" lon="8.3148183"><ele>288.0</ele><time>2026-04-04T12:48:37.103Z</time></trkpt><trkpt lat="44.53841" lon="8.3148783"><ele>288.0</ele><time>2026-04-04T12:48:38.105Z</time></trkpt><trkpt lat="44.5383333" lon="8.31494"><ele>288.0</ele><time>2026-04-04T12:48:39.102Z</time></trkpt><trkpt lat="44.5382433" lon="8.3149983"><ele>288.0</ele><time>2026-04-04T12:48:40.101Z</time></trkpt><trkpt lat="44.53814" lon="8.315075"><ele>288.0</ele><time>2026-04-04T12:48:41.107Z</time></trkpt><trkpt lat="44.5379983" lon="8.3151367"><ele>288.0</ele><time>2026-04-04T12:48:42.102Z</time></trkpt><trkpt lat="44.5378683" lon="8.3151867"><ele>293.5</ele><time>2026-04-04T12:48:43.103Z</time></trkpt><trkpt lat="44.5377333" lon="8.3152517"><ele>299.0</ele><time>2026-04-04T12:48:44.103Z</time></trkpt><trkpt lat="44.5375983" lon="8.3153317"><ele>304.5</ele><time>2026-04-04T12:48:45.098Z</time></trkpt><trkpt lat="44.5374633" lon="8.3154017"><ele>310.0</ele><time>2026-04-04T12:48:46.1Z</time></trkpt><trkpt lat="44.537345" lon="8.3154567"><ele>310.0</ele><time>2026-04-04T12:48:47.098Z</time></trkpt><trkpt lat="44.5372333" lon="8.3155233"><ele>310.0</ele><time>2026-04-04T12:48:48.105Z</time></trkpt><trkpt lat="44.5371167" lon="8.3155617"><ele>310.0</ele><time>2026-04-04T12:48:49.105Z</time></trkpt><trkpt lat="44.5370033" lon="8.3155883"><ele>310.0</ele><time>2026-04-04T12:48:50.1Z</time></trkpt><trkpt lat="44.536885" lon="8.31558"><ele>310.75</ele><time>2026-04-04T12:48:51.101Z</time></trkpt><trkpt lat="44.5367567" lon="8.3155583"><ele>311.5</ele><time>2026-04-04T12:48:52.102Z</time></trkpt><trkpt lat="44.5366283" lon="8.315525"><ele>312.25</ele><time>2026-04-04T12:48:53.103Z</time></trkpt><trkpt lat="44.53651" lon="8.3154933"><ele>313.0</ele><time>2026-04-04T12:48:54.104Z</time></trkpt><trkpt lat="44.5364117" lon="8.3154533"><ele>313.0</ele><time>2026-04-04T12:48:55.104Z</time></trkpt><trkpt lat="44.5363267" lon="8.3153983"><ele>313.0</ele><time>2026-04-04T12:48:56.103Z</time></trkpt><trkpt lat="44.5362617" lon="8.315315"><ele>313.0</ele><time>2026-04-04T12:48:57.102Z</time></trkpt><trkpt lat="44.5362033" lon="8.315215"><ele>313.0</ele><time>2026-04-04T12:48:58.107Z</time></trkpt><trkpt lat="44.53614" lon="8.3151183"><ele>313.0</ele><time>2026-04-04T12:48:59.106Z</time></trkpt><trkpt lat="44.536075" lon="8.31503"><ele>310.66666666666663</ele><time>2026-04-04T12:49:00.101Z</time></trkpt><trkpt lat="44.536015" lon="8.3149467"><ele>308.3333333333333</ele><time>2026-04-04T12:49:01.104Z</time></trkpt><trkpt lat="44.5359683" lon="8.31486"><ele>306.0</ele><time>2026-04-04T12:49:02.102Z</time></trkpt><trkpt lat="44.5359517" lon="8.314765"><ele>303.6666666666667</ele><time>2026-04-04T12:49:03.1Z</time></trkpt><trkpt lat="44.5360033" lon="8.3146633"><ele>301.33333333333337</ele><time>2026-04-04T12:49:04.103Z</time></trkpt><trkpt lat="44.5360633" lon="8.3145717"><ele>299.0</ele><time>2026-04-04T12:49:05.103Z</time></trkpt><trkpt lat="44.536125" lon="8.3144767"><ele>298.5</ele><time>2026-04-04T12:49:06.104Z</time></trkpt><trkpt lat="44.5361767" lon="8.3143683"><ele>298.0</ele><time>2026-04-04T12:49:07.103Z</time></trkpt><trkpt lat="44.5362117" lon="8.3142567"><ele>297.5</ele><time>2026-04-04T12:49:08.105Z</time></trkpt><trkpt lat="44.5362267" lon="8.3141367"><ele>297.0</ele><time>2026-04-04T12:49:09.11Z</time></trkpt><trkpt lat="44.5362283" lon="8.3140217"><ele>296.5</ele><time>2026-04-04T12:49:10.109Z</time></trkpt><trkpt lat="44.5362483" lon="8.313915"><ele>296.0</ele><time>2026-04-04T12:49:11.103Z</time></trkpt><trkpt lat="44.53627" lon="8.3138067"><ele>302.20000000000005</ele><time>2026-04-04T12:49:12.103Z</time></trkpt><trkpt lat="44.5363117" lon="8.3137033"><ele>308.40000000000003</ele><time>2026-04-04T12:49:13.1Z</time></trkpt><trkpt lat="44.5363717" lon="8.3136033"><ele>314.6</ele><time>2026-04-04T12:49:14.104Z</time></trkpt><trkpt lat="44.5364083" lon="8.3134883"><ele>320.8</ele><time>2026-04-04T12:49:15.101Z</time></trkpt><trkpt lat="44.5364283" lon="8.313365"><ele>327.0</ele><time>2026-04-04T12:49:16.105Z</time></trkpt><trkpt lat="44.5364567" lon="8.3132417"><ele>327.0</ele><time>2026-04-04T12:49:17.103Z</time></trkpt><trkpt lat="44.5365033" lon="8.3131367"><ele>327.0</ele><time>2026-04-04T12:49:18.102Z</time></trkpt><trkpt lat="44.53658" lon="8.3130717"><ele>327.0</ele><time>2026-04-04T12:49:19.103Z</time></trkpt><trkpt lat="44.53666" lon="8.31302"><ele>327.0</ele><time>2026-04-04T12:49:20.104Z</time></trkpt><trkpt lat="44.53674" lon="8.3129583"><ele>327.0</ele><time>2026-04-04T12:49:21.11Z</time></trkpt><trkpt lat="44.536805" lon="8.3128767"><ele>327.0</ele><time>2026-04-04T12:49:22.109Z</time></trkpt><trkpt lat="44.5368617" lon="8.312785"><ele>326.40000000000003</ele><time>2026-04-04T12:49:23.101Z</time></trkpt><trkpt lat="44.536895" lon="8.31268"><ele>325.8</ele><time>2026-04-04T12:49:24.103Z</time></trkpt><trkpt lat="44.53687" lon="8.3125433"><ele>325.2</ele><time>2026-04-04T12:49:25.102Z</time></trkpt><trkpt lat="44.5368517" lon="8.3124167"><ele>324.6</ele><time>2026-04-04T12:49:26.102Z</time></trkpt><trkpt lat="44.536785" lon="8.3123217"><ele>324.0</ele><time>2026-04-04T12:49:27.103Z</time></trkpt><trkpt lat="44.536725" lon="8.31222"><ele>323.8333333333333</ele><time>2026-04-04T12:49:28.105Z</time></trkpt><trkpt lat="44.5366817" lon="8.31211"><ele>323.6666666666667</ele><time>2026-04-04T12:49:29.107Z</time></trkpt><trkpt lat="44.5366533" lon="8.3119883"><ele>323.5</ele><time>2026-04-04T12:49:30.106Z</time></trkpt><trkpt lat="44.5366517" lon="8.3118667"><ele>323.33333333333337</ele><time>2026-04-04T12:49:31.105Z</time></trkpt><trkpt lat="44.5366667" lon="8.3117533"><ele>323.1666666666667</ele><time>2026-04-04T12:49:32.1Z</time></trkpt><trkpt lat="44.5367233" lon="8.3116633"><ele>323.0</ele><time>2026-04-04T12:49:33.101Z</time></trkpt><trkpt lat="44.5368133" lon="8.3116"><ele>323.0</ele><time>2026-04-04T12:49:34.102Z</time></trkpt><trkpt lat="44.5369383" lon="8.3115483"><ele>323.0</ele><time>2026-04-04T12:49:35.102Z</time></trkpt><trkpt lat="44.5370233" lon="8.3114633"><ele>323.0</ele><time>2026-04-04T12:49:36.103Z</time></trkpt><trkpt lat="44.537075" lon="8.31136"><ele>323.0</ele><time>2026-04-04T12:49:37.1Z</time></trkpt><trkpt lat="44.5371083" lon="8.311245"><ele>323.0</ele><time>2026-04-04T12:49:38.101Z</time></trkpt><trkpt lat="44.537115" lon="8.3111183"><ele>323.75</ele><time>2026-04-04T12:49:39.103Z</time></trkpt><trkpt lat="44.5371117" lon="8.3109933"><ele>324.5</ele><time>2026-04-04T12:49:40.101Z</time></trkpt><trkpt lat="44.5370883" lon="8.31086"><ele>325.25</ele><time>2026-04-04T12:49:41.103Z</time></trkpt><trkpt lat="44.5369817" lon="8.310695"><ele>326.0</ele><time>2026-04-04T12:49:42.103Z</time></trkpt><trkpt lat="44.5369117" lon="8.31057"><ele>326.0</ele><time>2026-04-04T12:49:43.103Z</time></trkpt><trkpt lat="44.53687" lon="8.31045"><ele>326.0</ele><time>2026-04-04T12:49:44.108Z</time></trkpt><trkpt lat="44.5368517" lon="8.3103417"><ele>326.0</ele><time>2026-04-04T12:49:45.102Z</time></trkpt><trkpt lat="44.5368867" lon="8.3102583"><ele>326.0</ele><time>2026-04-04T12:49:46.11Z</time></trkpt><trkpt lat="44.5369317" lon="8.31018"><ele>326.0</ele><time>2026-04-04T12:49:47.103Z</time></trkpt><trkpt lat="44.5369967" lon="8.31012"><ele>326.0</ele><time>2026-04-04T12:49:48.103Z</time></trkpt><trkpt lat="44.5371217" lon="8.3101383"><ele>330.6</ele><time>2026-04-04T12:49:49.102Z</time></trkpt><trkpt lat="44.5372367" lon="8.3101317"><ele>335.20000000000005</ele><time>2026-04-04T12:49:50.101Z</time></trkpt><trkpt lat="44.5373333" lon="8.310095"><ele>339.79999999999995</ele><time>2026-04-04T12:49:51.108Z</time></trkpt><trkpt lat="44.537415" lon="8.3100183"><ele>344.4</ele><time>2026-04-04T12:49:52.102Z</time></trkpt><trkpt lat="44.5374717" lon="8.3099217"><ele>349.0</ele><time>2026-04-04T12:49:53.105Z</time></trkpt><trkpt lat="44.5375183" lon="8.3098233"><ele>349.3333333333333</ele><time>2026-04-04T12:49:54.105Z</time></trkpt><trkpt lat="44.5375717" lon="8.3097417"><ele>349.66666666666663</ele><time>2026-04-04T12:49:55.103Z</time></trkpt><trkpt lat="44.537635" lon="8.3096783"><ele>350.0</ele><time>2026-04-04T12:49:56.106Z</time></trkpt><trkpt lat="44.5377033" lon="8.30962"><ele>350.3333333333333</ele><time>2026-04-04T12:49:57.1Z</time></trkpt><trkpt lat="44.5377883" lon="8.3095533"><ele>350.6666666666667</ele><time>2026-04-04T12:49:58.102Z</time></trkpt><trkpt lat="44.53788" lon="8.309465"><ele>351.0</ele><time>2026-04-04T12:49:59.101Z</time></trkpt><trkpt lat="44.5379717" lon="8.3093583"><ele>351.0</ele><time>2026-04-04T12:50:00.103Z</time></trkpt><trkpt lat="44.5380667" lon="8.3092433"><ele>351.0</ele><time>2026-04-04T12:50:01.104Z</time></trkpt><trkpt lat="44.5381517" lon="8.3091133"><ele>351.0</ele><time>2026-04-04T12:50:02.103Z</time></trkpt><trkpt lat="44.5382333" lon="8.3089783"><ele>351.0</ele><time>2026-04-04T12:50:03.102Z</time></trkpt><trkpt lat="44.5382967" lon="8.3088467"><ele>351.6</ele><time>2026-04-04T12:50:04.102Z</time></trkpt><trkpt lat="44.5383417" lon="8.30871"><ele>352.20000000000005</ele><time>2026-04-04T12:50:05.104Z</time></trkpt><trkpt lat="44.5383433" lon="8.3085683"><ele>352.79999999999995</ele><time>2026-04-04T12:50:06.104Z</time></trkpt><trkpt lat="44.5383167" lon="8.308425"><ele>353.4</ele><time>2026-04-04T12:50:07.105Z</time></trkpt><trkpt lat="44.538275" lon="8.3082883"><ele>354.0</ele><time>2026-04-04T12:50:08.105Z</time></trkpt><trkpt lat="44.53824" lon="8.30814"><ele>355.0</ele><time>2026-04-04T12:50:09.103Z</time></trkpt><trkpt lat="44.5382067" lon="8.30799"><ele>356.0</ele><time>2026-04-04T12:50:10.103Z</time></trkpt><trkpt lat="44.538185" lon="8.3078433"><ele>357.0</ele><time>2026-04-04T12:50:11.101Z</time></trkpt><trkpt lat="44.5381733" lon="8.3077017"><ele>358.0</ele><time>2026-04-04T12:50:12.102Z</time></trkpt><trkpt lat="44.53818" lon="8.3075817"><ele>359.0</ele><time>2026-04-04T12:50:13.107Z</time></trkpt><trkpt lat="44.5382017" lon="8.3074833"><ele>359.0</ele><time>2026-04-04T12:50:14.103Z</time></trkpt><trkpt lat="44.538285" lon="8.3074133"><ele>359.0</ele><time>2026-04-04T12:50:15.104Z</time></trkpt><trkpt lat="44.5383783" lon="8.3073233"><ele>359.0</ele><time>2026-04-04T12:50:16.106Z</time></trkpt><trkpt lat="44.5384617" lon="8.3072167"><ele>359.0</ele><time>2026-04-04T12:50:17.103Z</time></trkpt><trkpt lat="44.538535" lon="8.307095"><ele>359.0</ele><time>2026-04-04T12:50:18.106Z</time></trkpt><trkpt lat="44.5385783" lon="8.3069633"><ele>358.33333333333337</ele><time>2026-04-04T12:50:19.103Z</time></trkpt><trkpt lat="44.5385833" lon="8.3068233"><ele>357.6666666666667</ele><time>2026-04-04T12:50:20.102Z</time></trkpt><trkpt lat="44.538585" lon="8.30669"><ele>357.0</ele><time>2026-04-04T12:50:21.104Z</time></trkpt><trkpt lat="44.5386083" lon="8.3065783"><ele>356.3333333333333</ele><time>2026-04-04T12:50:22.1Z</time></trkpt><trkpt lat="44.5386433" lon="8.3064817"><ele>355.66666666666663</ele><time>2026-04-04T12:50:23.103Z</time></trkpt><trkpt lat="44.5387167" lon="8.3064083"><ele>355.0</ele><time>2026-04-04T12:50:24.102Z</time></trkpt><trkpt lat="44.538805" lon="8.3063567"><ele>359.3333333333333</ele><time>2026-04-04T12:50:25.102Z</time></trkpt><trkpt lat="44.5388767" lon="8.3062817"><ele>363.66666666666663</ele><time>2026-04-04T12:50:26.104Z</time></trkpt><trkpt lat="44.5389233" lon="8.30618"><ele>368.0</ele><time>2026-04-04T12:50:27.105Z</time></trkpt><trkpt lat="44.5389583" lon="8.30607"><ele>372.3333333333333</ele><time>2026-04-04T12:50:28.102Z</time></trkpt><trkpt lat="44.5389683" lon="8.3059483"><ele>376.6666666666667</ele><time>2026-04-04T12:50:29.101Z</time></trkpt><trkpt lat="44.5389517" lon="8.3058217"><ele>381.0</ele><time>2026-04-04T12:50:30.108Z</time></trkpt><trkpt lat="44.53896" lon="8.3056983"><ele>381.0</ele><time>2026-04-04T12:50:31.101Z</time></trkpt><trkpt lat="44.5389883" lon="8.3055817"><ele>381.0</ele><time>2026-04-04T12:50:32.106Z</time></trkpt><trkpt lat="44.5390117" lon="8.3054733"><ele>381.0</ele><time>2026-04-04T12:50:33.099Z</time></trkpt><trkpt lat="44.5390483" lon="8.3053833"><ele>381.0</ele><time>2026-04-04T12:50:34.104Z</time></trkpt><trkpt lat="44.5390767" lon="8.3052983"><ele>381.0</ele><time>2026-04-04T12:50:35.107Z</time></trkpt><trkpt lat="44.5392433" lon="8.3053433"><ele>383.0</ele><time>2026-04-04T12:50:37.103Z</time></trkpt><trkpt lat="44.5393733" lon="8.3054433"><ele>385.0</ele><time>2026-04-04T12:50:38.099Z</time></trkpt><trkpt lat="44.5394983" lon="8.305535"><ele>387.0</ele><time>2026-04-04T12:50:39.101Z</time></trkpt><trkpt lat="44.5396533" lon="8.3056033"><ele>387.0</ele><time>2026-04-04T12:50:40.1Z</time></trkpt><trkpt lat="44.5397633" lon="8.3056317"><ele>387.0</ele><time>2026-04-04T12:50:41.1Z</time></trkpt><trkpt lat="44.5398717" lon="8.305625"><ele>387.0</ele><time>2026-04-04T12:50:42.105Z</time></trkpt><trkpt lat="44.5399833" lon="8.305595"><ele>387.0</ele><time>2026-04-04T12:50:43.099Z</time></trkpt><trkpt lat="44.5400733" lon="8.305525"><ele>387.0</ele><time>2026-04-04T12:50:44.102Z</time></trkpt><trkpt lat="44.5401433" lon="8.30542"><ele>384.5</ele><time>2026-04-04T12:50:45.101Z</time></trkpt><trkpt lat="44.5401817" lon="8.3052733"><ele>382.0</ele><time>2026-04-04T12:50:46.098Z</time></trkpt><trkpt lat="44.540205" lon="8.305105"><ele>379.5</ele><time>2026-04-04T12:50:47.1Z</time></trkpt><trkpt lat="44.540215" lon="8.3049183"><ele>377.0</ele><time>2026-04-04T12:50:48.102Z</time></trkpt><trkpt lat="44.5402133" lon="8.3047267"><ele>375.75</ele><time>2026-04-04T12:50:49.104Z</time></trkpt><trkpt lat="44.5402133" lon="8.3045333"><ele>374.5</ele><time>2026-04-04T12:50:50.107Z</time></trkpt><trkpt lat="44.5402183" lon="8.3043517"><ele>373.25</ele><time>2026-04-04T12:50:51.1Z</time></trkpt><trkpt lat="44.5402283" lon="8.3041967"><ele>372.0</ele><time>2026-04-04T12:50:52.109Z</time></trkpt><trkpt lat="44.5402483" lon="8.3040783"><ele>372.0</ele><time>2026-04-04T12:50:53.109Z</time></trkpt><trkpt lat="44.5402783" lon="8.303975"><ele>372.0</ele><time>2026-04-04T12:50:54.103Z</time></trkpt><trkpt lat="44.5403267" lon="8.3038983"><ele>372.0</ele><time>2026-04-04T12:50:55.104Z</time></trkpt><trkpt lat="44.5404083" lon="8.303865"><ele>372.0</ele><time>2026-04-04T12:50:56.099Z</time></trkpt><trkpt lat="44.540495" lon="8.3038233"><ele>372.0</ele><time>2026-04-04T12:50:57.102Z</time></trkpt><trkpt lat="44.5405833" lon="8.3037633"><ele>372.0</ele><time>2026-04-04T12:50:58.106Z</time></trkpt><trkpt lat="44.5406417" lon="8.30366"><ele>370.40000000000003</ele><time>2026-04-04T12:50:59.108Z</time></trkpt><trkpt lat="44.5406867" lon="8.303535"><ele>368.8</ele><time>2026-04-04T12:51:00.1Z</time></trkpt><trkpt lat="44.5407383" lon="8.303395"><ele>367.2</ele><time>2026-04-04T12:51:01.101Z</time></trkpt><trkpt lat="44.5407983" lon="8.3032467"><ele>365.6</ele><time>2026-04-04T12:51:02.105Z</time></trkpt><trkpt lat="44.54086" lon="8.30312"><ele>364.0</ele><time>2026-04-04T12:51:03.099Z</time></trkpt><trkpt lat="44.54093" lon="8.303025"><ele>364.0</ele><time>2026-04-04T12:51:04.103Z</time></trkpt><trkpt lat="44.5410133" lon="8.302975"><ele>364.0</ele><time>2026-04-04T12:51:05.113Z</time></trkpt><trkpt lat="44.541105" lon="8.3029433"><ele>364.0</ele><time>2026-04-04T12:51:06.103Z</time></trkpt><trkpt lat="44.5412067" lon="8.302975"><ele>364.0</ele><time>2026-04-04T12:51:07.105Z</time></trkpt><trkpt lat="44.5413283" lon="8.303035"><ele>364.0</ele><time>2026-04-04T12:51:08.103Z</time></trkpt><trkpt lat="44.5414483" lon="8.3030883"><ele>369.4</ele><time>2026-04-04T12:51:09.104Z</time></trkpt><trkpt lat="44.5415567" lon="8.3031133"><ele>374.79999999999995</ele><time>2026-04-04T12:51:10.105Z</time></trkpt><trkpt lat="44.54165" lon="8.3031067"><ele>380.20000000000005</ele><time>2026-04-04T12:51:11.101Z</time></trkpt><trkpt lat="44.5417433" lon="8.3030767"><ele>385.6</ele><time>2026-04-04T12:51:12.103Z</time></trkpt><trkpt lat="44.5418167" lon="8.303025"><ele>391.0</ele><time>2026-04-04T12:51:13.102Z</time></trkpt><trkpt lat="44.5417917" lon="8.3028933"><ele>391.00000000000006</ele><time>2026-04-04T12:51:14.101Z</time></trkpt><trkpt lat="44.541785" lon="8.3027717"><ele>391.0</ele><time>2026-04-04T12:51:15.106Z</time></trkpt><trkpt lat="44.5417917" lon="8.3026533"><ele>391.0</ele><time>2026-04-04T12:51:16.101Z</time></trkpt><trkpt lat="44.541805" lon="8.302545"><ele>391.0</ele><time>2026-04-04T12:51:17.105Z</time></trkpt><trkpt lat="44.5418667" lon="8.3024933"><ele>391.00000000000006</ele><time>2026-04-04T12:51:18.103Z</time></trkpt><trkpt lat="44.541935" lon="8.3024567"><ele>391.0</ele><time>2026-04-04T12:51:19.105Z</time></trkpt><trkpt lat="44.5420067" lon="8.3024083"><ele>395.8</ele><time>2026-04-04T12:51:20.102Z</time></trkpt><trkpt lat="44.542085" lon="8.30234"><ele>400.6</ele><time>2026-04-04T12:51:21.1Z</time></trkpt><trkpt lat="44.542125" lon="8.3022217"><ele>405.4</ele><time>2026-04-04T12:51:22.102Z</time></trkpt><trkpt lat="44.5421267" lon="8.3020817"><ele>410.2</ele><time>2026-04-04T12:51:23.1Z</time></trkpt><trkpt lat="44.54211" lon="8.3019433"><ele>415.0</ele><time>2026-04-04T12:51:24.1Z</time></trkpt><trkpt lat="44.5420917" lon="8.3018217"><ele>415.00000000000006</ele><time>2026-04-04T12:51:25.105Z</time></trkpt><trkpt lat="44.54208" lon="8.3017167"><ele>415.0</ele><time>2026-04-04T12:51:26.1Z</time></trkpt><trkpt lat="44.5420883" lon="8.3016167"><ele>415.0</ele><time>2026-04-04T12:51:27.101Z</time></trkpt><trkpt lat="44.542105" lon="8.3015167"><ele>415.0</ele><time>2026-04-04T12:51:28.105Z</time></trkpt><trkpt lat="44.5421767" lon="8.301435"><ele>415.00000000000006</ele><time>2026-04-04T12:51:29.106Z</time></trkpt><trkpt lat="44.5422517" lon="8.3013517"><ele>415.0</ele><time>2026-04-04T12:51:30.102Z</time></trkpt><trkpt lat="44.542345" lon="8.3012733"><ele>413.4</ele><time>2026-04-04T12:51:31.107Z</time></trkpt><trkpt lat="44.5424617" lon="8.30121"><ele>411.8</ele><time>2026-04-04T12:51:32.101Z</time></trkpt><trkpt lat="44.5425567" lon="8.3011317"><ele>410.20000000000005</ele><time>2026-04-04T12:51:33.102Z</time></trkpt><trkpt lat="44.5426167" lon="8.30103"><ele>408.6</ele><time>2026-04-04T12:51:34.101Z</time></trkpt><trkpt lat="44.5426417" lon="8.3008967"><ele>407.0</ele><time>2026-04-04T12:51:35.106Z</time></trkpt><trkpt lat="44.54266" lon="8.300755"><ele>406.99999999999994</ele><time>2026-04-04T12:51:36.103Z</time></trkpt><trkpt lat="44.5426633" lon="8.3006083"><ele>407.0</ele><time>2026-04-04T12:51:37.106Z</time></trkpt><trkpt lat="44.5426533" lon="8.3004683"><ele>407.0</ele><time>2026-04-04T12:51:38.101Z</time></trkpt><trkpt lat="44.54265" lon="8.30035"><ele>407.0</ele><time>2026-04-04T12:51:39.102Z</time></trkpt><trkpt lat="44.5426683" lon="8.3002533"><ele>406.99999999999994</ele><time>2026-04-04T12:51:40.103Z</time></trkpt><trkpt lat="44.542705" lon="8.3001617"><ele>407.0</ele><time>2026-04-04T12:51:41.106Z</time></trkpt><trkpt lat="44.5427833" lon="8.3000783"><ele>407.0</ele><time>2026-04-04T12:51:42.102Z</time></trkpt><trkpt lat="44.5428683" lon="8.2999617"><ele>407.0</ele><time>2026-04-04T12:51:43.102Z</time></trkpt><trkpt lat="44.5429517" lon="8.2998317"><ele>407.0</ele><time>2026-04-04T12:51:44.1Z</time></trkpt><trkpt lat="44.54304" lon="8.2996983"><ele>407.0</ele><time>2026-04-04T12:51:45.103Z</time></trkpt><trkpt lat="44.5431383" lon="8.29957"><ele>406.5</ele><time>2026-04-04T12:51:46.099Z</time></trkpt><trkpt lat="44.5432267" lon="8.29942"><ele>406.0</ele><time>2026-04-04T12:51:47.101Z</time></trkpt><trkpt lat="44.5433067" lon="8.29925"><ele>405.5</ele><time>2026-04-04T12:51:48.099Z</time></trkpt><trkpt lat="44.5433767" lon="8.29907"><ele>405.0</ele><time>2026-04-04T12:51:49.101Z</time></trkpt><trkpt lat="44.54344" lon="8.2988933"><ele>406.2</ele><time>2026-04-04T12:51:50.108Z</time></trkpt><trkpt lat="44.5434967" lon="8.2987333"><ele>407.4</ele><time>2026-04-04T12:51:51.101Z</time></trkpt><trkpt lat="44.543545" lon="8.2985967"><ele>408.6</ele><time>2026-04-04T12:51:52.099Z</time></trkpt><trkpt lat="44.5436" lon="8.29849"><ele>409.8</ele><time>2026-04-04T12:51:53.105Z</time></trkpt><trkpt lat="44.54366" lon="8.2984"><ele>411.0</ele><time>2026-04-04T12:51:54.101Z</time></trkpt><trkpt lat="44.5437167" lon="8.2983283"><ele>414.5</ele><time>2026-04-04T12:51:55.103Z</time></trkpt><trkpt lat="44.543805" lon="8.2982933"><ele>418.0</ele><time>2026-04-04T12:51:56.106Z</time></trkpt><trkpt lat="44.5439083" lon="8.2982633"><ele>421.5</ele><time>2026-04-04T12:51:57.107Z</time></trkpt><trkpt lat="44.5440533" lon="8.2982733"><ele>425.0</ele><time>2026-04-04T12:51:58.102Z</time></trkpt><trkpt lat="44.5441867" lon="8.2982833"><ele>425.0</ele><time>2026-04-04T12:51:59.103Z</time></trkpt><trkpt lat="44.5443133" lon="8.2982817"><ele>425.0</ele><time>2026-04-04T12:52:00.101Z</time></trkpt><trkpt lat="44.5444267" lon="8.298295"><ele>425.0</ele><time>2026-04-04T12:52:01.104Z</time></trkpt><trkpt lat="44.5445183" lon="8.298295"><ele>425.0</ele><time>2026-04-04T12:52:02.101Z</time></trkpt><trkpt lat="44.544595" lon="8.2982833"><ele>425.0</ele><time>2026-04-04T12:52:03.1Z</time></trkpt><trkpt lat="44.54466" lon="8.29825"><ele>424.4</ele><time>2026-04-04T12:52:04.109Z</time></trkpt><trkpt lat="44.5446617" lon="8.29812"><ele>423.8</ele><time>2026-04-04T12:52:06.103Z</time></trkpt><trkpt lat="44.54456" lon="8.29802"><ele>423.20000000000005</ele><time>2026-04-04T12:52:08.103Z</time></trkpt><trkpt lat="44.544465" lon="8.2980067"><ele>422.6</ele><time>2026-04-04T12:52:09.099Z</time></trkpt><trkpt lat="44.5443633" lon="8.2979983"><ele>422.0</ele><time>2026-04-04T12:52:10.104Z</time></trkpt><trkpt lat="44.5442583" lon="8.2979867"><ele>425.75</ele><time>2026-04-04T12:52:11.104Z</time></trkpt><trkpt lat="44.5441483" lon="8.2979333"><ele>429.5</ele><time>2026-04-04T12:52:12.099Z</time></trkpt><trkpt lat="44.54406" lon="8.2978483"><ele>433.25</ele><time>2026-04-04T12:52:13.1Z</time></trkpt><trkpt lat="44.543975" lon="8.2977467"><ele>437.0</ele><time>2026-04-04T12:52:14.101Z</time></trkpt><trkpt lat="44.543895" lon="8.2976267"><ele>437.0</ele><time>2026-04-04T12:52:15.111Z</time></trkpt><trkpt lat="44.5437817" lon="8.2975517"><ele>437.0</ele><time>2026-04-04T12:52:16.103Z</time></trkpt><trkpt lat="44.5436683" lon="8.297475"><ele>437.0</ele><time>2026-04-04T12:52:17.103Z</time></trkpt><trkpt lat="44.5435517" lon="8.2973883"><ele>437.0</ele><time>2026-04-04T12:52:18.098Z</time></trkpt><trkpt lat="44.5434417" lon="8.2972867"><ele>442.75</ele><time>2026-04-04T12:52:19.107Z</time></trkpt><trkpt lat="44.5433417" lon="8.2971683"><ele>448.5</ele><time>2026-04-04T12:52:20.102Z</time></trkpt><trkpt lat="44.543245" lon="8.2970417"><ele>454.25</ele><time>2026-04-04T12:52:21.102Z</time></trkpt><trkpt lat="44.5431617" lon="8.2969"><ele>460.0</ele><time>2026-04-04T12:52:22.106Z</time></trkpt><trkpt lat="44.543075" lon="8.2967583"><ele>460.0</ele><time>2026-04-04T12:52:23.103Z</time></trkpt><trkpt lat="44.542985" lon="8.2966167"><ele>460.0</ele><time>2026-04-04T12:52:24.109Z</time></trkpt><trkpt lat="44.5428817" lon="8.2964867"><ele>460.0</ele><time>2026-04-04T12:52:25.109Z</time></trkpt><trkpt lat="44.542765" lon="8.29638"><ele>460.0</ele><time>2026-04-04T12:52:26.1Z</time></trkpt><trkpt lat="44.5426633" lon="8.296275"><ele>459.8</ele><time>2026-04-04T12:52:27.101Z</time></trkpt><trkpt lat="44.54257" lon="8.29618"><ele>459.6</ele><time>2026-04-04T12:52:28.103Z</time></trkpt><trkpt lat="44.5424967" lon="8.2960767"><ele>459.4</ele><time>2026-04-04T12:52:29.103Z</time></trkpt><trkpt lat="44.5424467" lon="8.2959667"><ele>459.2</ele><time>2026-04-04T12:52:30.104Z</time></trkpt><trkpt lat="44.5424133" lon="8.2958467"><ele>459.0</ele><time>2026-04-04T12:52:31.102Z</time></trkpt><trkpt lat="44.542425" lon="8.2957117"><ele>457.5</ele><time>2026-04-04T12:52:32.105Z</time></trkpt><trkpt lat="44.542445" lon="8.29557"><ele>456.0</ele><time>2026-04-04T12:52:33.1Z</time></trkpt><trkpt lat="44.5424783" lon="8.2954183"><ele>454.5</ele><time>2026-04-04T12:52:34.099Z</time></trkpt><trkpt lat="44.5425267" lon="8.2952567"><ele>453.0</ele><time>2026-04-04T12:52:35.1Z</time></trkpt><trkpt lat="44.5425883" lon="8.295095"><ele>453.0</ele><time>2026-04-04T12:52:36.099Z</time></trkpt><trkpt lat="44.5426733" lon="8.2949383"><ele>453.0</ele><time>2026-04-04T12:52:37.111Z</time></trkpt><trkpt lat="44.5427583" lon="8.2947867"><ele>453.0</ele><time>2026-04-04T12:52:38.103Z</time></trkpt><trkpt lat="44.542845" lon="8.2946383"><ele>453.0</ele><time>2026-04-04T12:52:39.103Z</time></trkpt><trkpt lat="44.5429333" lon="8.2944967"><ele>457.25</ele><time>2026-04-04T12:52:40.107Z</time></trkpt><trkpt lat="44.5430267" lon="8.2943583"><ele>461.5</ele><time>2026-04-04T12:52:41.106Z</time></trkpt><trkpt lat="44.5431233" lon="8.2942117"><ele>465.75</ele><time>2026-04-04T12:52:42.104Z</time></trkpt><trkpt lat="44.5432133" lon="8.2940533"><ele>470.0</ele><time>2026-04-04T12:52:43.105Z</time></trkpt><trkpt lat="44.5432917" lon="8.293885"><ele>470.0</ele><time>2026-04-04T12:52:44.103Z</time></trkpt><trkpt lat="44.5433517" lon="8.2937033"><ele>470.0</ele><time>2026-04-04T12:52:45.102Z</time></trkpt><trkpt lat="44.5433967" lon="8.2935067"><ele>470.0</ele><time>2026-04-04T12:52:46.103Z</time></trkpt><trkpt lat="44.54344" lon="8.2933167"><ele>470.0</ele><time>2026-04-04T12:52:47.107Z</time></trkpt><trkpt lat="44.5434883" lon="8.29314"><ele>469.5</ele><time>2026-04-04T12:52:48.106Z</time></trkpt><trkpt lat="44.5435283" lon="8.2929633"><ele>469.0</ele><time>2026-04-04T12:52:49.107Z</time></trkpt><trkpt lat="44.5435383" lon="8.2927767"><ele>468.5</ele><time>2026-04-04T12:52:50.102Z</time></trkpt><trkpt lat="44.543555" lon="8.2925983"><ele>468.0</ele><time>2026-04-04T12:52:51.104Z</time></trkpt><trkpt lat="44.5435533" lon="8.292425"><ele>468.75</ele><time>2026-04-04T12:52:52.099Z</time></trkpt><trkpt lat="44.5435433" lon="8.292255"><ele>469.5</ele><time>2026-04-04T12:52:53.103Z</time></trkpt><trkpt lat="44.5435333" lon="8.2920883"><ele>470.25</ele><time>2026-04-04T12:52:54.1Z</time></trkpt><trkpt lat="44.5435383" lon="8.2919233"><ele>471.0</ele><time>2026-04-04T12:52:55.101Z</time></trkpt><trkpt lat="44.5435633" lon="8.2917617"><ele>471.0</ele><time>2026-04-04T12:52:56.107Z</time></trkpt><trkpt lat="44.543585" lon="8.291595"><ele>471.0</ele><time>2026-04-04T12:52:57.105Z</time></trkpt><trkpt lat="44.5436017" lon="8.291425"><ele>471.0</ele><time>2026-04-04T12:52:58.101Z</time></trkpt><trkpt lat="44.5436217" lon="8.2912567"><ele>471.0</ele><time>2026-04-04T12:52:59.105Z</time></trkpt><trkpt lat="44.5436317" lon="8.2910967"><ele>472.5</ele><time>2026-04-04T12:53:00.103Z</time></trkpt><trkpt lat="44.5436167" lon="8.290945"><ele>474.0</ele><time>2026-04-04T12:53:01.101Z</time></trkpt><trkpt lat="44.5435533" lon="8.2908"><ele>475.5</ele><time>2026-04-04T12:53:02.104Z</time></trkpt><trkpt lat="44.54349" lon="8.2906567"><ele>477.0</ele><time>2026-04-04T12:53:03.1Z</time></trkpt><trkpt lat="44.5434283" lon="8.29052"><ele>477.0</ele><time>2026-04-04T12:53:04.102Z</time></trkpt><trkpt lat="44.543395" lon="8.2903867"><ele>477.00000000000006</ele><time>2026-04-04T12:53:05.101Z</time></trkpt><trkpt lat="44.5433933" lon="8.2902633"><ele>477.00000000000006</ele><time>2026-04-04T12:53:06.106Z</time></trkpt><trkpt lat="44.5434117" lon="8.2901467"><ele>477.0</ele><time>2026-04-04T12:53:07.105Z</time></trkpt><trkpt lat="44.54346" lon="8.29003"><ele>477.0</ele><time>2026-04-04T12:53:08.105Z</time></trkpt><trkpt lat="44.543505" lon="8.2898883"><ele>475.25</ele><time>2026-04-04T12:53:09.103Z</time></trkpt><trkpt lat="44.5435483" lon="8.2897233"><ele>473.5</ele><time>2026-04-04T12:53:10.106Z</time></trkpt><trkpt lat="44.5435933" lon="8.2895433"><ele>471.75</ele><time>2026-04-04T12:53:11.103Z</time></trkpt><trkpt lat="44.5436467" lon="8.2893717"><ele>470.0</ele><time>2026-04-04T12:53:12.102Z</time></trkpt><trkpt lat="44.5437167" lon="8.289205"><ele>475.5</ele><time>2026-04-04T12:53:13.105Z</time></trkpt><trkpt lat="44.5437883" lon="8.2890417"><ele>481.0</ele><time>2026-04-04T12:53:14.106Z</time></trkpt><trkpt lat="44.5438767" lon="8.2888817"><ele>486.5</ele><time>2026-04-04T12:53:15.106Z</time></trkpt><trkpt lat="44.5439533" lon="8.28873"><ele>492.0</ele><time>2026-04-04T12:53:16.102Z</time></trkpt><trkpt lat="44.5440483" lon="8.2885867"><ele>492.0</ele><time>2026-04-04T12:53:17.1Z</time></trkpt><trkpt lat="44.544135" lon="8.2884383"><ele>492.0</ele><time>2026-04-04T12:53:18.105Z</time></trkpt><trkpt lat="44.5442017" lon="8.28828"><ele>492.0</ele><time>2026-04-04T12:53:19.102Z</time></trkpt><trkpt lat="44.5442567" lon="8.2881067"><ele>492.0</ele><time>2026-04-04T12:53:20.1Z</time></trkpt><trkpt lat="44.54428" lon="8.2879133"><ele>493.0</ele><time>2026-04-04T12:53:21.102Z</time></trkpt><trkpt lat="44.5442783" lon="8.287715"><ele>494.0</ele><time>2026-04-04T12:53:22.107Z</time></trkpt><trkpt lat="44.5442517" lon="8.28752"><ele>495.0</ele><time>2026-04-04T12:53:23.104Z</time></trkpt><trkpt lat="44.5442067" lon="8.2873317"><ele>496.0</ele><time>2026-04-04T12:53:24.103Z</time></trkpt><trkpt lat="44.5441617" lon="8.28715"><ele>498.0</ele><time>2026-04-04T12:53:25.106Z</time></trkpt><trkpt lat="44.5441367" lon="8.2869683"><ele>500.0</ele><time>2026-04-04T12:53:26.106Z</time></trkpt><trkpt lat="44.5441317" lon="8.2868"><ele>502.0</ele><time>2026-04-04T12:53:27.102Z</time></trkpt><trkpt lat="44.5441333" lon="8.286645"><ele>504.0</ele><time>2026-04-04T12:53:28.103Z</time></trkpt><trkpt lat="44.5441583" lon="8.2864983"><ele>503.5</ele><time>2026-04-04T12:53:29.103Z</time></trkpt><trkpt lat="44.5442067" lon="8.2863567"><ele>503.0</ele><time>2026-04-04T12:53:30.103Z</time></trkpt><trkpt lat="44.54427" lon="8.2862217"><ele>502.5</ele><time>2026-04-04T12:53:31.109Z</time></trkpt><trkpt lat="44.544335" lon="8.28608"><ele>502.0</ele><time>2026-04-04T12:53:32.102Z</time></trkpt><trkpt lat="44.544385" lon="8.2859233"><ele>502.0</ele><time>2026-04-04T12:53:33.102Z</time></trkpt><trkpt lat="44.544425" lon="8.2857583"><ele>502.0</ele><time>2026-04-04T12:53:34.105Z</time></trkpt><trkpt lat="44.5444367" lon="8.285595"><ele>502.0</ele><time>2026-04-04T12:53:35.102Z</time></trkpt><trkpt lat="44.544435" lon="8.28544"><ele>502.0</ele><time>2026-04-04T12:53:36.103Z</time></trkpt><trkpt lat="44.5443983" lon="8.285285"><ele>504.0</ele><time>2026-04-04T12:53:37.103Z</time></trkpt><trkpt lat="44.54435" lon="8.2851333"><ele>506.00000000000006</ele><time>2026-04-04T12:53:38.1Z</time></trkpt><trkpt lat="44.5442967" lon="8.2849917"><ele>508.00000000000006</ele><time>2026-04-04T12:53:39.1Z</time></trkpt><trkpt lat="44.5442467" lon="8.2848617"><ele>510.0</ele><time>2026-04-04T12:53:40.101Z</time></trkpt><trkpt lat="44.544215" lon="8.28473"><ele>512.0</ele><time>2026-04-04T12:53:41.104Z</time></trkpt><trkpt lat="44.5442083" lon="8.2845817"><ele>513.75</ele><time>2026-04-04T12:53:42.103Z</time></trkpt><trkpt lat="44.5442167" lon="8.2844333"><ele>515.5</ele><time>2026-04-04T12:53:43.103Z</time></trkpt><trkpt lat="44.54423" lon="8.284275"><ele>517.25</ele><time>2026-04-04T12:53:44.101Z</time></trkpt><trkpt lat="44.5442717" lon="8.28412"><ele>519.0</ele><time>2026-04-04T12:53:45.1Z</time></trkpt><trkpt lat="44.54432" lon="8.28397"><ele>518.2</ele><time>2026-04-04T12:53:46.108Z</time></trkpt><trkpt lat="44.5443567" lon="8.283815"><ele>517.4</ele><time>2026-04-04T12:53:47.1Z</time></trkpt><trkpt lat="44.544375" lon="8.2836567"><ele>516.6</ele><time>2026-04-04T12:53:48.102Z</time></trkpt><trkpt lat="44.5443833" lon="8.2835167"><ele>515.8</ele><time>2026-04-04T12:53:49.103Z</time></trkpt><trkpt lat="44.5443933" lon="8.2833833"><ele>515.0</ele><time>2026-04-04T12:53:50.105Z</time></trkpt><trkpt lat="44.5444217" lon="8.2832733"><ele>515.0</ele><time>2026-04-04T12:53:51.107Z</time></trkpt><trkpt lat="44.5444583" lon="8.28318"><ele>515.0</ele><time>2026-04-04T12:53:52.101Z</time></trkpt><trkpt lat="44.54452" lon="8.2831083"><ele>515.0</ele><time>2026-04-04T12:53:53.104Z</time></trkpt><trkpt lat="44.5446" lon="8.2830483"><ele>515.0</ele><time>2026-04-04T12:53:54.1Z</time></trkpt><trkpt lat="44.544675" lon="8.2829667"><ele>515.0</ele><time>2026-04-04T12:53:55.107Z</time></trkpt><trkpt lat="44.544745" lon="8.2828567"><ele>515.0</ele><time>2026-04-04T12:53:56.101Z</time></trkpt><trkpt lat="44.5448083" lon="8.2827217"><ele>522.0</ele><time>2026-04-04T12:53:57.103Z</time></trkpt><trkpt lat="44.544865" lon="8.282575"><ele>529.0</ele><time>2026-04-04T12:53:58.1Z</time></trkpt><trkpt lat="44.5448917" lon="8.2824083"><ele>536.0</ele><time>2026-04-04T12:53:59.099Z</time></trkpt><trkpt lat="44.544895" lon="8.2822383"><ele>543.0</ele><time>2026-04-04T12:54:00.097Z</time></trkpt><trkpt lat="44.5448783" lon="8.2820717"><ele>542.4</ele><time>2026-04-04T12:54:01.1Z</time></trkpt><trkpt lat="44.54485" lon="8.281915"><ele>541.8</ele><time>2026-04-04T12:54:02.101Z</time></trkpt><trkpt lat="44.54482" lon="8.2817683"><ele>541.2</ele><time>2026-04-04T12:54:03.099Z</time></trkpt><trkpt lat="44.5448067" lon="8.28163"><ele>540.6</ele><time>2026-04-04T12:54:04.104Z</time></trkpt><trkpt lat="44.5448283" lon="8.2814983"><ele>540.0</ele><time>2026-04-04T12:54:05.106Z</time></trkpt><trkpt lat="44.5448667" lon="8.2813683"><ele>540.0</ele><time>2026-04-04T12:54:06.1Z</time></trkpt><trkpt lat="44.5449233" lon="8.28124"><ele>540.0</ele><time>2026-04-04T12:54:07.109Z</time></trkpt><trkpt lat="44.54499" lon="8.281105"><ele>540.0</ele><time>2026-04-04T12:54:08.103Z</time></trkpt><trkpt lat="44.5450717" lon="8.2809717"><ele>540.0</ele><time>2026-04-04T12:54:09.102Z</time></trkpt><trkpt lat="44.5451617" lon="8.2808483"><ele>540.0</ele><time>2026-04-04T12:54:10.102Z</time></trkpt><trkpt lat="44.5452533" lon="8.2807383"><ele>540.0</ele><time>2026-04-04T12:54:11.101Z</time></trkpt><trkpt lat="44.54535" lon="8.28065"><ele>540.0</ele><time>2026-04-04T12:54:12.102Z</time></trkpt><trkpt lat="44.5454433" lon="8.2805933"><ele>540.0</ele><time>2026-04-04T12:54:13.1Z</time></trkpt><trkpt lat="44.5455467" lon="8.280555"><ele>540.0</ele><time>2026-04-04T12:54:14.108Z</time></trkpt><trkpt lat="44.54566" lon="8.28052"><ele>543.25</ele><time>2026-04-04T12:54:15.099Z</time></trkpt><trkpt lat="44.5457733" lon="8.2804717"><ele>546.5</ele><time>2026-04-04T12:54:16.101Z</time></trkpt><trkpt lat="44.5458867" lon="8.2803833"><ele>549.75</ele><time>2026-04-04T12:54:17.107Z</time></trkpt><trkpt lat="44.5459783" lon="8.2802733"><ele>553.0</ele><time>2026-04-04T12:54:18.103Z</time></trkpt><trkpt lat="44.5460517" lon="8.280125"><ele>553.0</ele><time>2026-04-04T12:54:19.106Z</time></trkpt><trkpt lat="44.5461117" lon="8.27995"><ele>553.0</ele><time>2026-04-04T12:54:20.102Z</time></trkpt><trkpt lat="44.5461517" lon="8.27975"><ele>553.0</ele><time>2026-04-04T12:54:21.103Z</time></trkpt><trkpt lat="44.5461733" lon="8.2795317"><ele>553.0</ele><time>2026-04-04T12:54:22.102Z</time></trkpt><trkpt lat="44.5461783" lon="8.2793017"><ele>553.0</ele><time>2026-04-04T12:54:23.099Z</time></trkpt><trkpt lat="44.546165" lon="8.279065"><ele>553.0</ele><time>2026-04-04T12:54:24.104Z</time></trkpt><trkpt lat="44.54613" lon="8.2788517"><ele>553.0</ele><time>2026-04-04T12:54:25.1Z</time></trkpt><trkpt lat="44.5460983" lon="8.2786633"><ele>553.0</ele><time>2026-04-04T12:54:26.106Z</time></trkpt><trkpt lat="44.5460867" lon="8.27849"><ele>553.0</ele><time>2026-04-04T12:54:27.099Z</time></trkpt><trkpt lat="44.5460933" lon="8.2783533"><ele>553.0</ele><time>2026-04-04T12:54:28.101Z</time></trkpt><trkpt lat="44.5461483" lon="8.2782933"><ele>553.0</ele><time>2026-04-04T12:54:29.099Z</time></trkpt><trkpt lat="44.5462417" lon="8.27832"><ele>553.0</ele><time>2026-04-04T12:54:31.103Z</time></trkpt><trkpt lat="44.5462667" lon="8.2784017"><ele>561.25</ele><time>2026-04-04T12:54:32.102Z</time></trkpt><trkpt lat="44.5462867" lon="8.278515"><ele>569.5</ele><time>2026-04-04T12:54:33.104Z</time></trkpt><trkpt lat="44.5462933" lon="8.2786833"><ele>577.75</ele><time>2026-04-04T12:54:34.101Z</time></trkpt><trkpt lat="44.54631" lon="8.2788683"><ele>586.0</ele><time>2026-04-04T12:54:35.103Z</time></trkpt><trkpt lat="44.546325" lon="8.2790533"><ele>586.0</ele><time>2026-04-04T12:54:36.104Z</time></trkpt><trkpt lat="44.5463317" lon="8.2792317"><ele>586.0</ele><time>2026-04-04T12:54:37.102Z</time></trkpt><trkpt lat="44.5463283" lon="8.2793817"><ele>586.0</ele><time>2026-04-04T12:54:38.1Z</time></trkpt><trkpt lat="44.546335" lon="8.2795017"><ele>586.0</ele><time>2026-04-04T12:54:39.103Z</time></trkpt><trkpt lat="44.54635" lon="8.279595"><ele>586.0</ele><time>2026-04-04T12:54:40.1Z</time></trkpt><trkpt lat="44.5464567" lon="8.2796017"><ele>586.0</ele><time>2026-04-04T12:54:42.099Z</time></trkpt><trkpt lat="44.5465033" lon="8.2795283"><ele>586.0</ele><time>2026-04-04T12:54:43.11Z</time></trkpt><trkpt lat="44.5465283" lon="8.2794317"><ele>586.0</ele><time>2026-04-04T12:54:44.101Z</time></trkpt><trkpt lat="44.546525" lon="8.2792883"><ele>586.0</ele><time>2026-04-04T12:54:45.102Z</time></trkpt><trkpt lat="44.546515" lon="8.27912"><ele>586.0</ele><time>2026-04-04T12:54:46.099Z</time></trkpt><trkpt lat="44.5465117" lon="8.2789367"><ele>586.25</ele><time>2026-04-04T12:54:47.099Z</time></trkpt><trkpt lat="44.5465217" lon="8.2787533"><ele>586.5</ele><time>2026-04-04T12:54:48.099Z</time></trkpt><trkpt lat="44.5465467" lon="8.2785617"><ele>586.75</ele><time>2026-04-04T12:54:49.103Z</time></trkpt><trkpt lat="44.546585" lon="8.278355"><ele>587.0</ele><time>2026-04-04T12:54:50.101Z</time></trkpt><trkpt lat="44.5466367" lon="8.27814"><ele>586.6666666666666</ele><time>2026-04-04T12:54:51.102Z</time></trkpt><trkpt lat="44.54669" lon="8.2779067"><ele>586.3333333333334</ele><time>2026-04-04T12:54:52.102Z</time></trkpt><trkpt lat="44.5467417" lon="8.27766"><ele>586.0</ele><time>2026-04-04T12:54:53.099Z</time></trkpt><trkpt lat="44.54679" lon="8.277415"><ele>586.0</ele><time>2026-04-04T12:54:54.1Z</time></trkpt><trkpt lat="44.546845" lon="8.2771733"><ele>586.0</ele><time>2026-04-04T12:54:55.103Z</time></trkpt><trkpt lat="44.5469033" lon="8.2769283"><ele>586.0</ele><time>2026-04-04T12:54:56.116Z</time></trkpt><trkpt lat="44.546945" lon="8.276675"><ele>588.3333333333334</ele><time>2026-04-04T12:54:57.103Z</time></trkpt><trkpt lat="44.546965" lon="8.2764183"><ele>590.6666666666666</ele><time>2026-04-04T12:54:58.103Z</time></trkpt><trkpt lat="44.5469733" lon="8.27616"><ele>593.0</ele><time>2026-04-04T12:54:59.106Z</time></trkpt><trkpt lat="44.5469633" lon="8.275915"><ele>593.0</ele><time>2026-04-04T12:55:00.101Z</time></trkpt><trkpt lat="44.5469417" lon="8.275685"><ele>593.0</ele><time>2026-04-04T12:55:01.106Z</time></trkpt><trkpt lat="44.54692" lon="8.275475"><ele>593.0</ele><time>2026-04-04T12:55:02.109Z</time></trkpt><trkpt lat="44.5468817" lon="8.2752983"><ele>593.0</ele><time>2026-04-04T12:55:03.101Z</time></trkpt><trkpt lat="44.54682" lon="8.2751517"><ele>596.75</ele><time>2026-04-04T12:55:04.103Z</time></trkpt><trkpt lat="44.5467467" lon="8.2750083"><ele>600.5</ele><time>2026-04-04T12:55:05.101Z</time></trkpt><trkpt lat="44.5466583" lon="8.2748817"><ele>604.25</ele><time>2026-04-04T12:55:06.103Z</time></trkpt><trkpt lat="44.5465767" lon="8.2747517"><ele>608.0</ele><time>2026-04-04T12:55:07.106Z</time></trkpt><trkpt lat="44.546515" lon="8.2745967"><ele>613.0</ele><time>2026-04-04T12:55:08.102Z</time></trkpt><trkpt lat="44.54648" lon="8.2744033"><ele>618.0</ele><time>2026-04-04T12:55:09.1Z</time></trkpt><trkpt lat="44.5464467" lon="8.2741833"><ele>623.0</ele><time>2026-04-04T12:55:10.104Z</time></trkpt><trkpt lat="44.5464117" lon="8.2739533"><ele>626.6666666666666</ele><time>2026-04-04T12:55:11.097Z</time></trkpt><trkpt lat="44.546365" lon="8.2737333"><ele>630.3333333333334</ele><time>2026-04-04T12:55:12.102Z</time></trkpt><trkpt lat="44.5462967" lon="8.273545"><ele>634.0</ele><time>2026-04-04T12:55:13.103Z</time></trkpt><trkpt lat="44.546205" lon="8.2733833"><ele>631.75</ele><time>2026-04-04T12:55:14.103Z</time></trkpt><trkpt lat="44.5461" lon="8.2732417"><ele>629.5</ele><time>2026-04-04T12:55:15.098Z</time></trkpt><trkpt lat="44.545995" lon="8.2731033"><ele>627.25</ele><time>2026-04-04T12:55:16.104Z</time></trkpt><trkpt lat="44.5459083" lon="8.2729567"><ele>625.0</ele><time>2026-04-04T12:55:17.099Z</time></trkpt><trkpt lat="44.5458383" lon="8.2728067"><ele>625.0</ele><time>2026-04-04T12:55:18.104Z</time></trkpt><trkpt lat="44.5458017" lon="8.2726467"><ele>625.0</ele><time>2026-04-04T12:55:19.103Z</time></trkpt><trkpt lat="44.54578" lon="8.2724783"><ele>625.0</ele><time>2026-04-04T12:55:20.103Z</time></trkpt><trkpt lat="44.5457433" lon="8.2723167"><ele>625.0</ele><time>2026-04-04T12:55:21.106Z</time></trkpt><trkpt lat="44.5456733" lon="8.272175"><ele>625.25</ele><time>2026-04-04T12:55:22.101Z</time></trkpt><trkpt lat="44.5455783" lon="8.2720483"><ele>625.5</ele><time>2026-04-04T12:55:23.101Z</time></trkpt><trkpt lat="44.5454667" lon="8.2719217"><ele>625.75</ele><time>2026-04-04T12:55:24.103Z</time></trkpt><trkpt lat="44.5453417" lon="8.2718"><ele>626.0</ele><time>2026-04-04T12:55:25.103Z</time></trkpt><trkpt lat="44.5452017" lon="8.2717033"><ele>626.0</ele><time>2026-04-04T12:55:26.099Z</time></trkpt><trkpt lat="44.5450517" lon="8.271615"><ele>626.0</ele><time>2026-04-04T12:55:27.104Z</time></trkpt><trkpt lat="44.5448933" lon="8.2715483"><ele>626.0</ele><time>2026-04-04T12:55:28.106Z</time></trkpt><trkpt lat="44.5447217" lon="8.271485"><ele>632.0</ele><time>2026-04-04T12:55:29.103Z</time></trkpt><trkpt lat="44.5445433" lon="8.2714383"><ele>638.0</ele><time>2026-04-04T12:55:30.101Z</time></trkpt><trkpt lat="44.5443617" lon="8.271415"><ele>644.0</ele><time>2026-04-04T12:55:31.108Z</time></trkpt><trkpt lat="44.5441817" lon="8.271395"><ele>644.0</ele><time>2026-04-04T12:55:32.101Z</time></trkpt><trkpt lat="44.5439967" lon="8.2713883"><ele>644.0</ele><time>2026-04-04T12:55:33.105Z</time></trkpt><trkpt lat="44.543815" lon="8.271375"><ele>644.0</ele><time>2026-04-04T12:55:34.1Z</time></trkpt><trkpt lat="44.5436467" lon="8.2713717"><ele>639.6</ele><time>2026-04-04T12:55:35.105Z</time></trkpt><trkpt lat="44.5435017" lon="8.271375"><ele>635.2</ele><time>2026-04-04T12:55:36.1Z</time></trkpt><trkpt lat="44.5433833" lon="8.2713667"><ele>630.8000000000001</ele><time>2026-04-04T12:55:37.106Z</time></trkpt><trkpt lat="44.5433067" lon="8.2713217"><ele>626.4000000000001</ele><time>2026-04-04T12:55:38.101Z</time></trkpt><trkpt lat="44.5432433" lon="8.2712667"><ele>622.0</ele><time>2026-04-04T12:55:39.103Z</time></trkpt><trkpt lat="44.5432" lon="8.271185"><ele>622.0</ele><time>2026-04-04T12:55:40.102Z</time></trkpt><trkpt lat="44.5432317" lon="8.2710133"><ele>622.0</ele><time>2026-04-04T12:55:41.104Z</time></trkpt><trkpt lat="44.543255" lon="8.2708433"><ele>622.0</ele><time>2026-04-04T12:55:42.105Z</time></trkpt><trkpt lat="44.5432983" lon="8.270655"><ele>622.0</ele><time>2026-04-04T12:55:43.106Z</time></trkpt><trkpt lat="44.5433617" lon="8.2704733"><ele>619.3333333333334</ele><time>2026-04-04T12:55:44.105Z</time></trkpt><trkpt lat="44.5434533" lon="8.270305"><ele>616.6666666666666</ele><time>2026-04-04T12:55:45.108Z</time></trkpt><trkpt lat="44.5435667" lon="8.2701333"><ele>614.0</ele><time>2026-04-04T12:55:46.103Z</time></trkpt><trkpt lat="44.5436767" lon="8.269945"><ele>623.6666666666666</ele><time>2026-04-04T12:55:47.101Z</time></trkpt><trkpt lat="44.5437867" lon="8.2697483"><ele>633.3333333333334</ele><time>2026-04-04T12:55:48.104Z</time></trkpt><trkpt lat="44.5438917" lon="8.2695533"><ele>643.0</ele><time>2026-04-04T12:55:49.102Z</time></trkpt><trkpt lat="44.5439667" lon="8.26937"><ele>643.0</ele><time>2026-04-04T12:55:50.101Z</time></trkpt><trkpt lat="44.5440317" lon="8.2692183"><ele>643.0</ele><time>2026-04-04T12:55:51.097Z</time></trkpt><trkpt lat="44.5441067" lon="8.269095"><ele>643.0</ele><time>2026-04-04T12:55:52.097Z</time></trkpt><trkpt lat="44.5441967" lon="8.2689933"><ele>643.0</ele><time>2026-04-04T12:55:53.097Z</time></trkpt><trkpt lat="44.5442883" lon="8.268875"><ele>639.25</ele><time>2026-04-04T12:55:54.104Z</time></trkpt><trkpt lat="44.5443667" lon="8.26873"><ele>635.5</ele><time>2026-04-04T12:55:55.097Z</time></trkpt><trkpt lat="44.5444317" lon="8.2685683"><ele>631.75</ele><time>2026-04-04T12:55:56.098Z</time></trkpt><trkpt lat="44.5444783" lon="8.2683917"><ele>628.0</ele><time>2026-04-04T12:55:57.098Z</time></trkpt><trkpt lat="44.5444833" lon="8.2681917"><ele>626.75</ele><time>2026-04-04T12:55:58.1Z</time></trkpt><trkpt lat="44.54447" lon="8.267995"><ele>625.5</ele><time>2026-04-04T12:55:59.101Z</time></trkpt><trkpt lat="44.5444433" lon="8.2678183"><ele>624.25</ele><time>2026-04-04T12:56:00.099Z</time></trkpt><trkpt lat="44.54442" lon="8.267665"><ele>623.0</ele><time>2026-04-04T12:56:01.1Z</time></trkpt><trkpt lat="44.54441" lon="8.2675417"><ele>623.0</ele><time>2026-04-04T12:56:02.103Z</time></trkpt><trkpt lat="44.5444067" lon="8.26744"><ele>623.0</ele><time>2026-04-04T12:56:03.1Z</time></trkpt><trkpt lat="44.54446" lon="8.26735"><ele>623.0</ele><time>2026-04-04T12:56:05.106Z</time></trkpt><trkpt lat="44.5445517" lon="8.2673533"><ele>623.0</ele><time>2026-04-04T12:56:07.105Z</time></trkpt><trkpt lat="44.5446217" lon="8.26738"><ele>623.0</ele><time>2026-04-04T12:56:08.107Z</time></trkpt><trkpt lat="44.5446983" lon="8.2674133"><ele>623.0</ele><time>2026-04-04T12:56:09.106Z</time></trkpt><trkpt lat="44.5447867" lon="8.267445"><ele>629.75</ele><time>2026-04-04T12:56:10.104Z</time></trkpt><trkpt lat="44.5449017" lon="8.267485"><ele>636.5</ele><time>2026-04-04T12:56:11.102Z</time></trkpt><trkpt lat="44.5450167" lon="8.2675083"><ele>643.25</ele><time>2026-04-04T12:56:12.101Z</time></trkpt><trkpt lat="44.5451317" lon="8.2675117"><ele>650.0</ele><time>2026-04-04T12:56:13.107Z</time></trkpt><trkpt lat="44.54525" lon="8.2675117"><ele>651.6666666666666</ele><time>2026-04-04T12:56:14.1Z</time></trkpt><trkpt lat="44.5453883" lon="8.2675167"><ele>653.3333333333334</ele><time>2026-04-04T12:56:15.106Z</time></trkpt><trkpt lat="44.5455417" lon="8.2675417"><ele>655.0</ele><time>2026-04-04T12:56:16.105Z</time></trkpt><trkpt lat="44.545705" lon="8.2675717"><ele>655.0</ele><time>2026-04-04T12:56:17.107Z</time></trkpt><trkpt lat="44.5458717" lon="8.267605"><ele>655.0</ele><time>2026-04-04T12:56:18.107Z</time></trkpt><trkpt lat="44.5460817" lon="8.26767"><ele>655.0</ele><time>2026-04-04T12:56:19.101Z</time></trkpt><trkpt lat="44.5462717" lon="8.2677117"><ele>655.3333333333334</ele><time>2026-04-04T12:56:20.098Z</time></trkpt><trkpt lat="44.54647" lon="8.2677617"><ele>655.6666666666666</ele><time>2026-04-04T12:56:21.102Z</time></trkpt><trkpt lat="44.54667" lon="8.26782"><ele>656.0</ele><time>2026-04-04T12:56:22.1Z</time></trkpt><trkpt lat="44.5468617" lon="8.2678733"><ele>656.0</ele><time>2026-04-04T12:56:23.1Z</time></trkpt><trkpt lat="44.5470483" lon="8.2679333"><ele>656.0</ele><time>2026-04-04T12:56:24.101Z</time></trkpt><trkpt lat="44.5472367" lon="8.2679883"><ele>656.0</ele><time>2026-04-04T12:56:25.103Z</time></trkpt><trkpt lat="44.54742" lon="8.2680317"><ele>656.0</ele><time>2026-04-04T12:56:26.106Z</time></trkpt><trkpt lat="44.5476" lon="8.26806"><ele>656.0</ele><time>2026-04-04T12:56:27.103Z</time></trkpt><trkpt lat="44.5477767" lon="8.26808"><ele>656.0</ele><time>2026-04-04T12:56:28.102Z</time></trkpt><trkpt lat="44.5479483" lon="8.2680717"><ele>660.3333333333333</ele><time>2026-04-04T12:56:29.101Z</time></trkpt><trkpt lat="44.5481183" lon="8.2680383"><ele>664.6666666666666</ele><time>2026-04-04T12:56:30.103Z</time></trkpt><trkpt lat="44.5482917" lon="8.2679833"><ele>669.0</ele><time>2026-04-04T12:56:31.102Z</time></trkpt><trkpt lat="44.5484617" lon="8.2679167"><ele>669.0</ele><time>2026-04-04T12:56:32.1Z</time></trkpt><trkpt lat="44.5486317" lon="8.2678367"><ele>669.0</ele><time>2026-04-04T12:56:33.101Z</time></trkpt><trkpt lat="44.548795" lon="8.2677433"><ele>669.0</ele><time>2026-04-04T12:56:34.105Z</time></trkpt><trkpt lat="44.5489633" lon="8.26764"><ele>676.3333333333334</ele><time>2026-04-04T12:56:35.11Z</time></trkpt><trkpt lat="44.5491267" lon="8.2675383"><ele>683.6666666666667</ele><time>2026-04-04T12:56:36.105Z</time></trkpt><trkpt lat="44.5492867" lon="8.2674383"><ele>691.0</ele><time>2026-04-04T12:56:37.097Z</time></trkpt><trkpt lat="44.549435" lon="8.2673367"><ele>692.3333333333334</ele><time>2026-04-04T12:56:38.103Z</time></trkpt><trkpt lat="44.54957" lon="8.2672133"><ele>693.6666666666666</ele><time>2026-04-04T12:56:39.098Z</time></trkpt><trkpt lat="44.54969" lon="8.2670667"><ele>695.0</ele><time>2026-04-04T12:56:40.106Z</time></trkpt><trkpt lat="44.5497967" lon="8.266905"><ele>695.0</ele><time>2026-04-04T12:56:41.102Z</time></trkpt><trkpt lat="44.5498767" lon="8.2667367"><ele>695.0</ele><time>2026-04-04T12:56:42.101Z</time></trkpt><trkpt lat="44.5499467" lon="8.266585"><ele>695.0</ele><time>2026-04-04T12:56:43.101Z</time></trkpt><trkpt lat="44.5500183" lon="8.26648"><ele>695.0</ele><time>2026-04-04T12:56:44.102Z</time></trkpt><trkpt lat="44.5501" lon="8.2664217"><ele>695.0</ele><time>2026-04-04T12:56:45.104Z</time></trkpt><trkpt lat="44.55018" lon="8.26641"><ele>695.0</ele><time>2026-04-04T12:56:46.103Z</time></trkpt><trkpt lat="44.5502517" lon="8.2664483"><ele>695.0</ele><time>2026-04-04T12:56:47.1Z</time></trkpt><trkpt lat="44.5503233" lon="8.2665017"><ele>695.0</ele><time>2026-04-04T12:56:48.102Z</time></trkpt><trkpt lat="44.5504033" lon="8.2665717"><ele>695.0</ele><time>2026-04-04T12:56:49.113Z</time></trkpt><trkpt lat="44.5504967" lon="8.2666767"><ele>695.3333333333333</ele><time>2026-04-04T12:56:50.105Z</time></trkpt><trkpt lat="44.5506217" lon="8.2667983"><ele>695.6666666666666</ele><time>2026-04-04T12:56:51.105Z</time></trkpt><trkpt lat="44.550755" lon="8.26692"><ele>696.0</ele><time>2026-04-04T12:56:52.106Z</time></trkpt><trkpt lat="44.5508917" lon="8.2670733"><ele>696.0</ele><time>2026-04-04T12:56:53.109Z</time></trkpt><trkpt lat="44.551035" lon="8.2672033"><ele>696.0</ele><time>2026-04-04T12:56:54.106Z</time></trkpt><trkpt lat="44.551175" lon="8.2673283"><ele>696.0</ele><time>2026-04-04T12:56:55.105Z</time></trkpt><trkpt lat="44.5513133" lon="8.2674433"><ele>702.0</ele><time>2026-04-04T12:56:56.102Z</time></trkpt><trkpt lat="44.5514617" lon="8.2675333"><ele>708.0</ele><time>2026-04-04T12:56:57.101Z</time></trkpt><trkpt lat="44.55159" lon="8.2676383"><ele>714.0</ele><time>2026-04-04T12:56:58.106Z</time></trkpt><trkpt lat="44.5517317" lon="8.267695"><ele>714.0</ele><time>2026-04-04T12:56:59.099Z</time></trkpt><trkpt lat="44.5518833" lon="8.2677217"><ele>714.0</ele><time>2026-04-04T12:57:00.101Z</time></trkpt><trkpt lat="44.5520317" lon="8.267715"><ele>714.0</ele><time>2026-04-04T12:57:01.104Z</time></trkpt><trkpt lat="44.5521833" lon="8.2676833"><ele>715.0</ele><time>2026-04-04T12:57:02.099Z</time></trkpt><trkpt lat="44.5523217" lon="8.2676167"><ele>716.0</ele><time>2026-04-04T12:57:03.101Z</time></trkpt><trkpt lat="44.5524317" lon="8.2675083"><ele>717.0</ele><time>2026-04-04T12:57:04.1Z</time></trkpt><trkpt lat="44.5525267" lon="8.2673833"><ele>718.0</ele><time>2026-04-04T12:57:05.101Z</time></trkpt><trkpt lat="44.5526" lon="8.267235"><ele>718.0</ele><time>2026-04-04T12:57:06.1Z</time></trkpt><trkpt lat="44.552645" lon="8.26707"><ele>718.0</ele><time>2026-04-04T12:57:07.101Z</time></trkpt><trkpt lat="44.5526867" lon="8.266905"><ele>718.0</ele><time>2026-04-04T12:57:08.101Z</time></trkpt><trkpt lat="44.5527433" lon="8.2667467"><ele>718.0</ele><time>2026-04-04T12:57:09.103Z</time></trkpt><trkpt lat="44.5528133" lon="8.266615"><ele>719.0</ele><time>2026-04-04T12:57:10.102Z</time></trkpt><trkpt lat="44.5529117" lon="8.2665017"><ele>720.0</ele><time>2026-04-04T12:57:11.102Z</time></trkpt><trkpt lat="44.5530267" lon="8.266395"><ele>721.0</ele><time>2026-04-04T12:57:12.103Z</time></trkpt><trkpt lat="44.5531467" lon="8.2662833"><ele>722.0</ele><time>2026-04-04T12:57:13.105Z</time></trkpt><trkpt lat="44.553275" lon="8.26617"><ele>722.0</ele><time>2026-04-04T12:57:14.104Z</time></trkpt><trkpt lat="44.5534133" lon="8.2660633"><ele>722.0</ele><time>2026-04-04T12:57:15.103Z</time></trkpt><trkpt lat="44.5535533" lon="8.2659683"><ele>722.0</ele><time>2026-04-04T12:57:16.103Z</time></trkpt><trkpt lat="44.5536983" lon="8.265915"><ele>726.0</ele><time>2026-04-04T12:57:17.1Z</time></trkpt><trkpt lat="44.5538417" lon="8.265905"><ele>730.0</ele><time>2026-04-04T12:57:18.104Z</time></trkpt><trkpt lat="44.5539833" lon="8.2659167"><ele>734.0</ele><time>2026-04-04T12:57:19.101Z</time></trkpt><trkpt lat="44.55414" lon="8.2659617"><ele>738.0</ele><time>2026-04-04T12:57:20.107Z</time></trkpt><trkpt lat="44.5543117" lon="8.2660367"><ele>738.0</ele><time>2026-04-04T12:57:21.096Z</time></trkpt><trkpt lat="44.5544817" lon="8.266155"><ele>738.0</ele><time>2026-04-04T12:57:22.103Z</time></trkpt><trkpt lat="44.5546683" lon="8.2662617"><ele>738.0</ele><time>2026-04-04T12:57:23.107Z</time></trkpt><trkpt lat="44.554865" lon="8.2663533"><ele>736.6666666666666</ele><time>2026-04-04T12:57:24.099Z</time></trkpt><trkpt lat="44.5550717" lon="8.2664333"><ele>735.3333333333333</ele><time>2026-04-04T12:57:25.101Z</time></trkpt><trkpt lat="44.5552617" lon="8.266495"><ele>734.0</ele><time>2026-04-04T12:57:26.106Z</time></trkpt><trkpt lat="44.555445" lon="8.2665417"><ele>739.0</ele><time>2026-04-04T12:57:27.104Z</time></trkpt><trkpt lat="44.5556183" lon="8.2665983"><ele>744.0</ele><time>2026-04-04T12:57:28.101Z</time></trkpt><trkpt lat="44.5557783" lon="8.2666767"><ele>749.0</ele><time>2026-04-04T12:57:29.104Z</time></trkpt><trkpt lat="44.5559317" lon="8.26678"><ele>749.0</ele><time>2026-04-04T12:57:30.104Z</time></trkpt><trkpt lat="44.5560767" lon="8.2669117"><ele>749.0</ele><time>2026-04-04T12:57:31.102Z</time></trkpt><trkpt lat="44.556215" lon="8.267065"><ele>749.0</ele><time>2026-04-04T12:57:32.099Z</time></trkpt><trkpt lat="44.55635" lon="8.2672317"><ele>751.0</ele><time>2026-04-04T12:57:33.1Z</time></trkpt><trkpt lat="44.5564817" lon="8.267415"><ele>753.0</ele><time>2026-04-04T12:57:34.101Z</time></trkpt><trkpt lat="44.5566183" lon="8.2676"><ele>755.0</ele><time>2026-04-04T12:57:35.103Z</time></trkpt><trkpt lat="44.5567517" lon="8.267795"><ele>755.0</ele><time>2026-04-04T12:57:36.104Z</time></trkpt><trkpt lat="44.5568883" lon="8.267985"><ele>755.0</ele><time>2026-04-04T12:57:37.104Z</time></trkpt><trkpt lat="44.5570217" lon="8.2681717"><ele>755.0</ele><time>2026-04-04T12:57:38.102Z</time></trkpt><trkpt lat="44.5571483" lon="8.2683467"><ele>758.0</ele><time>2026-04-04T12:57:39.101Z</time></trkpt><trkpt lat="44.5572817" lon="8.268505"><ele>761.0</ele><time>2026-04-04T12:57:40.103Z</time></trkpt><trkpt lat="44.557425" lon="8.2686433"><ele>764.0</ele><time>2026-04-04T12:57:41.1Z</time></trkpt><trkpt lat="44.5575717" lon="8.2687533"><ele>764.0</ele><time>2026-04-04T12:57:42.103Z</time></trkpt><trkpt lat="44.5577083" lon="8.2688567"><ele>764.0</ele><time>2026-04-04T12:57:43.109Z</time></trkpt><trkpt lat="44.5578367" lon="8.26896"><ele>764.0</ele><time>2026-04-04T12:57:44.1Z</time></trkpt><trkpt lat="44.5579567" lon="8.269085"><ele>765.25</ele><time>2026-04-04T12:57:45.101Z</time></trkpt><trkpt lat="44.5580817" lon="8.2692067"><ele>766.5</ele><time>2026-04-04T12:57:46.098Z</time></trkpt><trkpt lat="44.5581967" lon="8.269325"><ele>767.75</ele><time>2026-04-04T12:57:47.105Z</time></trkpt><trkpt lat="44.5583133" lon="8.2694033"><ele>769.0</ele><time>2026-04-04T12:57:48.098Z</time></trkpt><trkpt lat="44.5584333" lon="8.26944"><ele>769.0</ele><time>2026-04-04T12:57:49.1Z</time></trkpt><trkpt lat="44.5585617" lon="8.26945"><ele>769.0</ele><time>2026-04-04T12:57:50.1Z</time></trkpt><trkpt lat="44.558695" lon="8.2694533"><ele>769.0</ele><time>2026-04-04T12:57:51.108Z</time></trkpt><trkpt lat="44.55883" lon="8.2694667"><ele>769.0</ele><time>2026-04-04T12:57:52.099Z</time></trkpt><trkpt lat="44.5589633" lon="8.2695067"><ele>771.0</ele><time>2026-04-04T12:57:53.102Z</time></trkpt><trkpt lat="44.5590883" lon="8.2695817"><ele>773.0</ele><time>2026-04-04T12:57:54.103Z</time></trkpt><trkpt lat="44.559215" lon="8.2696817"><ele>775.0</ele><time>2026-04-04T12:57:55.101Z</time></trkpt><trkpt lat="44.55934" lon="8.2698"><ele>777.0</ele><time>2026-04-04T12:57:56.1Z</time></trkpt><trkpt lat="44.5594683" lon="8.2699317"><ele>775.6666666666667</ele><time>2026-04-04T12:57:57.099Z</time></trkpt><trkpt lat="44.5595983" lon="8.270065"><ele>774.3333333333334</ele><time>2026-04-04T12:57:58.101Z</time></trkpt><trkpt lat="44.55974" lon="8.270195"><ele>773.0</ele><time>2026-04-04T12:57:59.101Z</time></trkpt><trkpt lat="44.5598933" lon="8.27031"><ele>773.0</ele><time>2026-04-04T12:58:00.106Z</time></trkpt><trkpt lat="44.560055" lon="8.2704083"><ele>773.0</ele><time>2026-04-04T12:58:01.104Z</time></trkpt><trkpt lat="44.56021" lon="8.270505"><ele>773.0</ele><time>2026-04-04T12:58:02.102Z</time></trkpt><trkpt lat="44.56035" lon="8.2706067"><ele>775.5</ele><time>2026-04-04T12:58:03.1Z</time></trkpt><trkpt lat="44.5604717" lon="8.27073"><ele>778.0</ele><time>2026-04-04T12:58:04.104Z</time></trkpt><trkpt lat="44.5605733" lon="8.2708767"><ele>780.5</ele><time>2026-04-04T12:58:05.101Z</time></trkpt><trkpt lat="44.5606467" lon="8.2710433"><ele>783.0</ele><time>2026-04-04T12:58:06.105Z</time></trkpt><trkpt lat="44.5607117" lon="8.2711917"><ele>783.0</ele><time>2026-04-04T12:58:07.105Z</time></trkpt><trkpt lat="44.560775" lon="8.2713167"><ele>783.0</ele><time>2026-04-04T12:58:08.101Z</time></trkpt><trkpt lat="44.560855" lon="8.2714117"><ele>783.0</ele><time>2026-04-04T12:58:09.104Z</time></trkpt><trkpt lat="44.5609567" lon="8.27148"><ele>783.0</ele><time>2026-04-04T12:58:10.103Z</time></trkpt><trkpt lat="44.5610733" lon="8.2715217"><ele>783.0</ele><time>2026-04-04T12:58:11.111Z</time></trkpt><trkpt lat="44.5612083" lon="8.2715483"><ele>780.75</ele><time>2026-04-04T12:58:12.101Z</time></trkpt><trkpt lat="44.5613467" lon="8.27157"><ele>778.5</ele><time>2026-04-04T12:58:13.101Z</time></trkpt><trkpt lat="44.5614883" lon="8.2715733"><ele>776.25</ele><time>2026-04-04T12:58:14.101Z</time></trkpt><trkpt lat="44.56162" lon="8.2715567"><ele>774.0</ele><time>2026-04-04T12:58:15.1Z</time></trkpt><trkpt lat="44.56174" lon="8.2715133"><ele>774.0</ele><time>2026-04-04T12:58:16.104Z</time></trkpt><trkpt lat="44.5618467" lon="8.271445"><ele>774.0</ele><time>2026-04-04T12:58:17.105Z</time></trkpt><trkpt lat="44.5619433" lon="8.27133"><ele>774.0</ele><time>2026-04-04T12:58:18.106Z</time></trkpt><trkpt lat="44.5620317" lon="8.271195"><ele>774.0</ele><time>2026-04-04T12:58:19.106Z</time></trkpt><trkpt lat="44.5621067" lon="8.2710517"><ele>770.75</ele><time>2026-04-04T12:58:20.102Z</time></trkpt><trkpt lat="44.5621667" lon="8.270905"><ele>767.5</ele><time>2026-04-04T12:58:21.106Z</time></trkpt><trkpt lat="44.5622067" lon="8.270745"><ele>764.25</ele><time>2026-04-04T12:58:22.102Z</time></trkpt><trkpt lat="44.5622283" lon="8.2705717"><ele>761.0</ele><time>2026-04-04T12:58:23.103Z</time></trkpt><trkpt lat="44.562235" lon="8.2703867"><ele>761.0</ele><time>2026-04-04T12:58:24.103Z</time></trkpt><trkpt lat="44.5622233" lon="8.2701717"><ele>761.0</ele><time>2026-04-04T12:58:25.109Z</time></trkpt><trkpt lat="44.5621867" lon="8.26996"><ele>761.0</ele><time>2026-04-04T12:58:26.103Z</time></trkpt><trkpt lat="44.5621433" lon="8.2697567"><ele>760.4</ele><time>2026-04-04T12:58:27.103Z</time></trkpt><trkpt lat="44.5620967" lon="8.2695717"><ele>759.8</ele><time>2026-04-04T12:58:28.097Z</time></trkpt><trkpt lat="44.5620633" lon="8.26942"><ele>759.1999999999999</ele><time>2026-04-04T12:58:29.109Z</time></trkpt><trkpt lat="44.5620417" lon="8.2692983"><ele>758.5999999999999</ele><time>2026-04-04T12:58:30.105Z</time></trkpt><trkpt lat="44.5620283" lon="8.269185"><ele>758.0</ele><time>2026-04-04T12:58:31.1Z</time></trkpt><trkpt lat="44.5620417" lon="8.26909"><ele>758.0</ele><time>2026-04-04T12:58:32.1Z</time></trkpt><trkpt lat="44.5620733" lon="8.2690117"><ele>758.0</ele><time>2026-04-04T12:58:33.1Z</time></trkpt><trkpt lat="44.56223" lon="8.2691367"><ele>758.0</ele><time>2026-04-04T12:58:34.103Z</time></trkpt><trkpt lat="44.5623067" lon="8.2691983"><ele>758.0</ele><time>2026-04-04T12:58:35.102Z</time></trkpt><trkpt lat="44.5623217" lon="8.2693467"><ele>758.0</ele><time>2026-04-04T12:58:36.098Z</time></trkpt><trkpt lat="44.5623467" lon="8.26948"><ele>758.0</ele><time>2026-04-04T12:58:37.101Z</time></trkpt><trkpt lat="44.56236" lon="8.2696367"><ele>758.0</ele><time>2026-04-04T12:58:38.101Z</time></trkpt><trkpt lat="44.5623933" lon="8.2697917"><ele>758.0</ele><time>2026-04-04T12:58:39.1Z</time></trkpt><trkpt lat="44.5624367" lon="8.269965"><ele>758.0</ele><time>2026-04-04T12:58:40.104Z</time></trkpt><trkpt lat="44.56248" lon="8.2701483"><ele>758.5</ele><time>2026-04-04T12:58:41.103Z</time></trkpt><trkpt lat="44.5625233" lon="8.2703367"><ele>759.0</ele><time>2026-04-04T12:58:42.105Z</time></trkpt><trkpt lat="44.562565" lon="8.2705267"><ele>759.5</ele><time>2026-04-04T12:58:43.105Z</time></trkpt><trkpt lat="44.5626" lon="8.2707217"><ele>760.0</ele><time>2026-04-04T12:58:44.101Z</time></trkpt><trkpt lat="44.5626233" lon="8.2709233"><ele>760.0</ele><time>2026-04-04T12:58:45.103Z</time></trkpt><trkpt lat="44.5626317" lon="8.2711233"><ele>760.0</ele><time>2026-04-04T12:58:46.101Z</time></trkpt><trkpt lat="44.5626317" lon="8.2713183"><ele>760.0</ele><time>2026-04-04T12:58:47.104Z</time></trkpt><trkpt lat="44.562625" lon="8.2715133"><ele>760.0</ele><time>2026-04-04T12:58:48.101Z</time></trkpt><trkpt lat="44.5626233" lon="8.27171"><ele>759.5</ele><time>2026-04-04T12:58:49.104Z</time></trkpt><trkpt lat="44.562635" lon="8.2719"><ele>759.0</ele><time>2026-04-04T12:58:50.102Z</time></trkpt><trkpt lat="44.5626467" lon="8.2720833"><ele>758.5</ele><time>2026-04-04T12:58:51.1Z</time></trkpt><trkpt lat="44.5626733" lon="8.2722567"><ele>758.0</ele><time>2026-04-04T12:58:52.1Z</time></trkpt><trkpt lat="44.56271" lon="8.2724017"><ele>755.1666666666666</ele><time>2026-04-04T12:58:53.108Z</time></trkpt><trkpt lat="44.56275" lon="8.2725033"><ele>752.3333333333333</ele><time>2026-04-04T12:58:54.103Z</time></trkpt><trkpt lat="44.5627833" lon="8.272585"><ele>749.5</ele><time>2026-04-04T12:58:55.104Z</time></trkpt><trkpt lat="44.5628267" lon="8.2726917"><ele>746.6666666666666</ele><time>2026-04-04T12:58:57.101Z</time></trkpt><trkpt lat="44.56288" lon="8.2727417"><ele>743.8333333333334</ele><time>2026-04-04T13:00:20.101Z</time></trkpt><trkpt lat="44.5629667" lon="8.2728233"><ele>741.0</ele><time>2026-04-04T13:00:22.098Z</time></trkpt><trkpt lat="44.5630267" lon="8.2728833"><ele>739.8</ele><time>2026-04-04T13:00:23.102Z</time></trkpt><trkpt lat="44.5631017" lon="8.27295"><ele>738.5999999999999</ele><time>2026-04-04T13:00:24.099Z</time></trkpt><trkpt lat="44.56319" lon="8.2730267"><ele>737.4</ele><time>2026-04-04T13:00:25.101Z</time></trkpt><trkpt lat="44.56329" lon="8.2731067"><ele>736.2</ele><time>2026-04-04T13:00:26.101Z</time></trkpt><trkpt lat="44.5633967" lon="8.27319"><ele>735.0</ele><time>2026-04-04T13:00:27.099Z</time></trkpt><trkpt lat="44.5635133" lon="8.2732767"><ele>734.25</ele><time>2026-04-04T13:00:28.103Z</time></trkpt><trkpt lat="44.5636367" lon="8.2733617"><ele>733.5</ele><time>2026-04-04T13:00:29.1Z</time></trkpt><trkpt lat="44.563765" lon="8.2734367"><ele>732.75</ele><time>2026-04-04T13:00:30.102Z</time></trkpt><trkpt lat="44.5638983" lon="8.2734983"><ele>732.0</ele><time>2026-04-04T13:00:31.101Z</time></trkpt><trkpt lat="44.5640317" lon="8.273555"><ele>732.0</ele><time>2026-04-04T13:00:32.101Z</time></trkpt><trkpt lat="44.56417" lon="8.273605"><ele>732.0</ele><time>2026-04-04T13:00:33.102Z</time></trkpt><trkpt lat="44.5643117" lon="8.273645"><ele>732.0</ele><time>2026-04-04T13:00:34.101Z</time></trkpt><trkpt lat="44.5644717" lon="8.2736667"><ele>732.0</ele><time>2026-04-04T13:00:35.108Z</time></trkpt><trkpt lat="44.564625" lon="8.273675"><ele>731.0</ele><time>2026-04-04T13:00:36.101Z</time></trkpt><trkpt lat="44.564785" lon="8.273675"><ele>730.0</ele><time>2026-04-04T13:00:37.103Z</time></trkpt><trkpt lat="44.5649383" lon="8.273675"><ele>729.0</ele><time>2026-04-04T13:00:38.102Z</time></trkpt><trkpt lat="44.5650883" lon="8.2736767"><ele>729.0</ele><time>2026-04-04T13:00:39.104Z</time></trkpt><trkpt lat="44.5652417" lon="8.2736683"><ele>729.0</ele><time>2026-04-04T13:00:40.1Z</time></trkpt><trkpt lat="44.5653967" lon="8.2736367"><ele>729.0</ele><time>2026-04-04T13:00:41.101Z</time></trkpt><trkpt lat="44.5655533" lon="8.2735867"><ele>730.0</ele><time>2026-04-04T13:00:42.105Z</time></trkpt><trkpt lat="44.5657067" lon="8.2735267"><ele>731.0</ele><time>2026-04-04T13:00:43.104Z</time></trkpt><trkpt lat="44.5658733" lon="8.2734783"><ele>732.0</ele><time>2026-04-04T13:00:44.104Z</time></trkpt><trkpt lat="44.5660383" lon="8.2734483"><ele>731.6666666666666</ele><time>2026-04-04T13:00:45.103Z</time></trkpt><trkpt lat="44.5662083" lon="8.2734333"><ele>731.3333333333333</ele><time>2026-04-04T13:00:46.104Z</time></trkpt><trkpt lat="44.5663817" lon="8.273425"><ele>731.0</ele><time>2026-04-04T13:00:47.1Z</time></trkpt><trkpt lat="44.566555" lon="8.27342"><ele>731.0</ele><time>2026-04-04T13:00:48.101Z</time></trkpt><trkpt lat="44.5667317" lon="8.2734133"><ele>731.0</ele><time>2026-04-04T13:00:49.101Z</time></trkpt><trkpt lat="44.566905" lon="8.273395"><ele>731.0</ele><time>2026-04-04T13:00:50.103Z</time></trkpt><trkpt lat="44.567085" lon="8.27336"><ele>732.6666666666666</ele><time>2026-04-04T13:00:51.102Z</time></trkpt><trkpt lat="44.5672467" lon="8.273295"><ele>734.3333333333334</ele><time>2026-04-04T13:00:52.111Z</time></trkpt><trkpt lat="44.5673983" lon="8.273205"><ele>736.0</ele><time>2026-04-04T13:00:53.102Z</time></trkpt><trkpt lat="44.5675333" lon="8.2731033"><ele>729.3333333333334</ele><time>2026-04-04T13:00:54.1Z</time></trkpt><trkpt lat="44.5676783" lon="8.2730183"><ele>722.6666666666666</ele><time>2026-04-04T13:00:55.109Z</time></trkpt><trkpt lat="44.56784" lon="8.2729583"><ele>716.0</ele><time>2026-04-04T13:00:56.103Z</time></trkpt><trkpt lat="44.56799" lon="8.27291"><ele>716.0</ele><time>2026-04-04T13:00:57.105Z</time></trkpt><trkpt lat="44.5681733" lon="8.2728733"><ele>716.0</ele><time>2026-04-04T13:00:58.105Z</time></trkpt><trkpt lat="44.5683533" lon="8.27281"><ele>716.0</ele><time>2026-04-04T13:00:59.106Z</time></trkpt><trkpt lat="44.5685283" lon="8.272725"><ele>721.3333333333333</ele><time>2026-04-04T13:01:00.101Z</time></trkpt><trkpt lat="44.5686983" lon="8.2726117"><ele>726.6666666666666</ele><time>2026-04-04T13:01:01.106Z</time></trkpt><trkpt lat="44.56887" lon="8.27248"><ele>732.0</ele><time>2026-04-04T13:01:02.102Z</time></trkpt><trkpt lat="44.5690367" lon="8.2723467"><ele>724.3333333333334</ele><time>2026-04-04T13:01:03.106Z</time></trkpt><trkpt lat="44.5692" lon="8.27222"><ele>716.6666666666667</ele><time>2026-04-04T13:01:04.103Z</time></trkpt><trkpt lat="44.5693567" lon="8.2721"><ele>709.0</ele><time>2026-04-04T13:01:05.109Z</time></trkpt><trkpt lat="44.5695" lon="8.2719933"><ele>710.5</ele><time>2026-04-04T13:01:06.107Z</time></trkpt><trkpt lat="44.5696283" lon="8.27191"><ele>712.0</ele><time>2026-04-04T13:01:07.102Z</time></trkpt><trkpt lat="44.569745" lon="8.2718583"><ele>713.5</ele><time>2026-04-04T13:01:08.102Z</time></trkpt><trkpt lat="44.5698617" lon="8.2718417"><ele>715.0</ele><time>2026-04-04T13:01:09.104Z</time></trkpt><trkpt lat="44.5699817" lon="8.2718667"><ele>715.0</ele><time>2026-04-04T13:01:10.104Z</time></trkpt><trkpt lat="44.57011" lon="8.2718917"><ele>715.0</ele><time>2026-04-04T13:01:11.104Z</time></trkpt><trkpt lat="44.57025" lon="8.2718983"><ele>715.0</ele><time>2026-04-04T13:01:12.107Z</time></trkpt><trkpt lat="44.570395" lon="8.27189"><ele>715.0</ele><time>2026-04-04T13:01:13.106Z</time></trkpt><trkpt lat="44.570545" lon="8.2718517"><ele>716.6666666666667</ele><time>2026-04-04T13:01:14.104Z</time></trkpt><trkpt lat="44.570685" lon="8.2717817"><ele>718.3333333333334</ele><time>2026-04-04T13:01:15.103Z</time></trkpt><trkpt lat="44.5708233" lon="8.2716983"><ele>720.0</ele><time>2026-04-04T13:01:16.102Z</time></trkpt><trkpt lat="44.5709617" lon="8.2716033"><ele>720.0</ele><time>2026-04-04T13:01:17.103Z</time></trkpt><trkpt lat="44.5710967" lon="8.2714917"><ele>720.0</ele><time>2026-04-04T13:01:18.102Z</time></trkpt><trkpt lat="44.5712233" lon="8.2713767"><ele>720.0</ele><time>2026-04-04T13:01:19.103Z</time></trkpt><trkpt lat="44.5713583" lon="8.27127"><ele>716.3333333333334</ele><time>2026-04-04T13:01:20.106Z</time></trkpt><trkpt lat="44.5714867" lon="8.27117"><ele>712.6666666666667</ele><time>2026-04-04T13:01:21.105Z</time></trkpt><trkpt lat="44.5716217" lon="8.27108"><ele>709.0</ele><time>2026-04-04T13:01:22.101Z</time></trkpt><trkpt lat="44.5717633" lon="8.2709917"><ele>709.0</ele><time>2026-04-04T13:01:23.105Z</time></trkpt><trkpt lat="44.571905" lon="8.2709183"><ele>709.0</ele><time>2026-04-04T13:01:24.104Z</time></trkpt><trkpt lat="44.57205" lon="8.2708683"><ele>709.0</ele><time>2026-04-04T13:01:25.11Z</time></trkpt><trkpt lat="44.5721983" lon="8.2708417"><ele>709.0</ele><time>2026-04-04T13:01:26.105Z</time></trkpt><trkpt lat="44.5723467" lon="8.2708183"><ele>709.0</ele><time>2026-04-04T13:01:27.105Z</time></trkpt><trkpt lat="44.5725" lon="8.27077"><ele>709.0</ele><time>2026-04-04T13:01:28.1Z</time></trkpt><trkpt lat="44.572655" lon="8.2707083"><ele>709.0</ele><time>2026-04-04T13:01:29.106Z</time></trkpt><trkpt lat="44.572805" lon="8.27065"><ele>709.0</ele><time>2026-04-04T13:01:30.1Z</time></trkpt><trkpt lat="44.5729533" lon="8.2705867"><ele>709.0</ele><time>2026-04-04T13:01:31.104Z</time></trkpt><trkpt lat="44.5731017" lon="8.2705267"><ele>707.6666666666667</ele><time>2026-04-04T13:01:32.104Z</time></trkpt><trkpt lat="44.5732483" lon="8.270445"><ele>706.3333333333334</ele><time>2026-04-04T13:01:33.105Z</time></trkpt><trkpt lat="44.5733883" lon="8.2703417"><ele>705.0</ele><time>2026-04-04T13:01:34.104Z</time></trkpt><trkpt lat="44.57353" lon="8.2702233"><ele>705.0</ele><time>2026-04-04T13:01:35.107Z</time></trkpt><trkpt lat="44.5736667" lon="8.2700917"><ele>705.0</ele><time>2026-04-04T13:01:36.102Z</time></trkpt><trkpt lat="44.5738" lon="8.2699533"><ele>705.0</ele><time>2026-04-04T13:01:37.103Z</time></trkpt><trkpt lat="44.5739333" lon="8.2698333"><ele>705.75</ele><time>2026-04-04T13:01:38.117Z</time></trkpt><trkpt lat="44.574065" lon="8.2697333"><ele>706.5</ele><time>2026-04-04T13:01:39.105Z</time></trkpt><trkpt lat="44.5742" lon="8.26966"><ele>707.25</ele><time>2026-04-04T13:01:40.102Z</time></trkpt><trkpt lat="44.5743267" lon="8.269595"><ele>708.0</ele><time>2026-04-04T13:01:41.107Z</time></trkpt><trkpt lat="44.574445" lon="8.2695067"><ele>706.75</ele><time>2026-04-04T13:01:42.105Z</time></trkpt><trkpt lat="44.57455" lon="8.269405"><ele>705.5</ele><time>2026-04-04T13:01:43.105Z</time></trkpt><trkpt lat="44.57465" lon="8.2692967"><ele>704.25</ele><time>2026-04-04T13:01:44.102Z</time></trkpt><trkpt lat="44.5747533" lon="8.26919"><ele>703.0</ele><time>2026-04-04T13:01:45.105Z</time></trkpt><trkpt lat="44.5748633" lon="8.2691067"><ele>703.0</ele><time>2026-04-04T13:01:46.103Z</time></trkpt><trkpt lat="44.5749783" lon="8.2690367"><ele>703.0</ele><time>2026-04-04T13:01:47.107Z</time></trkpt><trkpt lat="44.5750983" lon="8.2689767"><ele>703.0</ele><time>2026-04-04T13:01:48.1Z</time></trkpt><trkpt lat="44.5752233" lon="8.268925"><ele>703.0</ele><time>2026-04-04T13:01:49.107Z</time></trkpt><trkpt lat="44.5753467" lon="8.2688817"><ele>703.5</ele><time>2026-04-04T13:01:50.104Z</time></trkpt><trkpt lat="44.5754717" lon="8.2688517"><ele>704.0</ele><time>2026-04-04T13:01:51.099Z</time></trkpt><trkpt lat="44.575605" lon="8.26882"><ele>704.5</ele><time>2026-04-04T13:01:52.101Z</time></trkpt><trkpt lat="44.5757433" lon="8.2687517"><ele>705.0</ele><time>2026-04-04T13:01:53.107Z</time></trkpt><trkpt lat="44.575875" lon="8.2686583"><ele>705.0</ele><time>2026-04-04T13:01:54.099Z</time></trkpt><trkpt lat="44.5760067" lon="8.2685467"><ele>705.0</ele><time>2026-04-04T13:01:55.105Z</time></trkpt><trkpt lat="44.576135" lon="8.26842"><ele>705.0</ele><time>2026-04-04T13:01:56.098Z</time></trkpt><trkpt lat="44.5762517" lon="8.2682967"><ele>703.5</ele><time>2026-04-04T13:01:57.103Z</time></trkpt><trkpt lat="44.576365" lon="8.2681883"><ele>702.0</ele><time>2026-04-04T13:01:58.102Z</time></trkpt><trkpt lat="44.57648" lon="8.2681117"><ele>700.5</ele><time>2026-04-04T13:01:59.103Z</time></trkpt><trkpt lat="44.5766083" lon="8.2680617"><ele>699.0</ele><time>2026-04-04T13:02:00.1Z</time></trkpt><trkpt lat="44.576745" lon="8.26803"><ele>699.0</ele><time>2026-04-04T13:02:01.101Z</time></trkpt><trkpt lat="44.5768867" lon="8.2680067"><ele>699.0</ele><time>2026-04-04T13:02:02.1Z</time></trkpt><trkpt lat="44.57703" lon="8.2679717"><ele>699.0</ele><time>2026-04-04T13:02:03.102Z</time></trkpt><trkpt lat="44.577165" lon="8.267905"><ele>699.0</ele><time>2026-04-04T13:02:04.102Z</time></trkpt><trkpt lat="44.577285" lon="8.2678083"><ele>704.6666666666666</ele><time>2026-04-04T13:02:05.105Z</time></trkpt><trkpt lat="44.5773917" lon="8.26768"><ele>710.3333333333333</ele><time>2026-04-04T13:02:06.106Z</time></trkpt><trkpt lat="44.577485" lon="8.2675117"><ele>716.0</ele><time>2026-04-04T13:02:07.104Z</time></trkpt><trkpt lat="44.5775767" lon="8.2673283"><ele>712.0</ele><time>2026-04-04T13:02:08.101Z</time></trkpt><trkpt lat="44.57766" lon="8.2671417"><ele>708.0</ele><time>2026-04-04T13:02:09.103Z</time></trkpt><trkpt lat="44.5777467" lon="8.266955"><ele>704.0</ele><time>2026-04-04T13:02:10.105Z</time></trkpt><trkpt lat="44.57783" lon="8.2667917"><ele>707.8000000000001</ele><time>2026-04-04T13:02:11.106Z</time></trkpt><trkpt lat="44.5779017" lon="8.2666583"><ele>711.6</ele><time>2026-04-04T13:02:12.107Z</time></trkpt><trkpt lat="44.5779783" lon="8.2665667"><ele>715.4</ele><time>2026-04-04T13:02:13.106Z</time></trkpt><trkpt lat="44.578075" lon="8.2665117"><ele>719.2</ele><time>2026-04-04T13:02:14.107Z</time></trkpt><trkpt lat="44.5781767" lon="8.266505"><ele>723.0</ele><time>2026-04-04T13:02:15.107Z</time></trkpt><trkpt lat="44.5783033" lon="8.266515"><ele>723.0</ele><time>2026-04-04T13:02:16.101Z</time></trkpt><trkpt lat="44.578445" lon="8.26652"><ele>723.0</ele><time>2026-04-04T13:02:17.107Z</time></trkpt><trkpt lat="44.578595" lon="8.2665183"><ele>723.0</ele><time>2026-04-04T13:02:18.108Z</time></trkpt><trkpt lat="44.578745" lon="8.26652"><ele>723.0</ele><time>2026-04-04T13:02:19.103Z</time></trkpt><trkpt lat="44.5788967" lon="8.266515"><ele>724.25</ele><time>2026-04-04T13:02:20.103Z</time></trkpt><trkpt lat="44.5790483" lon="8.2665133"><ele>725.5</ele><time>2026-04-04T13:02:21.102Z</time></trkpt><trkpt lat="44.5792" lon="8.26651"><ele>726.75</ele><time>2026-04-04T13:02:22.103Z</time></trkpt><trkpt lat="44.5793433" lon="8.2664917"><ele>728.0</ele><time>2026-04-04T13:02:23.104Z</time></trkpt><trkpt lat="44.5794683" lon="8.2664517"><ele>728.75</ele><time>2026-04-04T13:02:24.11Z</time></trkpt><trkpt lat="44.5795833" lon="8.266375"><ele>729.5</ele><time>2026-04-04T13:02:25.104Z</time></trkpt><trkpt lat="44.5796867" lon="8.2662533"><ele>730.25</ele><time>2026-04-04T13:02:26.102Z</time></trkpt><trkpt lat="44.5797883" lon="8.2661067"><ele>731.0</ele><time>2026-04-04T13:02:27.104Z</time></trkpt><trkpt lat="44.5798933" lon="8.26595"><ele>731.0</ele><time>2026-04-04T13:02:28.101Z</time></trkpt><trkpt lat="44.5800033" lon="8.26579"><ele>731.0</ele><time>2026-04-04T13:02:29.104Z</time></trkpt><trkpt lat="44.58011" lon="8.265635"><ele>731.0</ele><time>2026-04-04T13:02:30.106Z</time></trkpt><trkpt lat="44.58021" lon="8.2654983"><ele>729.75</ele><time>2026-04-04T13:02:31.102Z</time></trkpt><trkpt lat="44.5803083" lon="8.2653917"><ele>728.5</ele><time>2026-04-04T13:02:32.104Z</time></trkpt><trkpt lat="44.5804183" lon="8.2653133"><ele>727.25</ele><time>2026-04-04T13:02:33.102Z</time></trkpt><trkpt lat="44.580535" lon="8.265255"><ele>726.0</ele><time>2026-04-04T13:02:34.104Z</time></trkpt><trkpt lat="44.5806717" lon="8.2652283"><ele>726.0</ele><time>2026-04-04T13:02:35.103Z</time></trkpt><trkpt lat="44.5808267" lon="8.2652317"><ele>726.0</ele><time>2026-04-04T13:02:36.108Z</time></trkpt><trkpt lat="44.580995" lon="8.2652483"><ele>726.0</ele><time>2026-04-04T13:02:37.106Z</time></trkpt><trkpt lat="44.5811567" lon="8.2652633"><ele>728.3333333333334</ele><time>2026-04-04T13:02:38.101Z</time></trkpt><trkpt lat="44.5813217" lon="8.26526"><ele>730.6666666666667</ele><time>2026-04-04T13:02:39.105Z</time></trkpt><trkpt lat="44.5814917" lon="8.26524"><ele>733.0</ele><time>2026-04-04T13:02:40.112Z</time></trkpt><trkpt lat="44.5816533" lon="8.2652233"><ele>733.0</ele><time>2026-04-04T13:02:41.101Z</time></trkpt><trkpt lat="44.5818133" lon="8.26522"><ele>733.0</ele><time>2026-04-04T13:02:42.105Z</time></trkpt><trkpt lat="44.5819683" lon="8.26524"><ele>733.0</ele><time>2026-04-04T13:02:43.099Z</time></trkpt><trkpt lat="44.5821233" lon="8.2652933"><ele>733.3333333333334</ele><time>2026-04-04T13:02:44.102Z</time></trkpt><trkpt lat="44.5822717" lon="8.2653767"><ele>733.6666666666666</ele><time>2026-04-04T13:02:45.101Z</time></trkpt><trkpt lat="44.58243" lon="8.2654717"><ele>734.0</ele><time>2026-04-04T13:02:46.108Z</time></trkpt><trkpt lat="44.58259" lon="8.2655683"><ele>738.0</ele><time>2026-04-04T13:02:47.104Z</time></trkpt><trkpt lat="44.58275" lon="8.265665"><ele>742.0</ele><time>2026-04-04T13:02:48.103Z</time></trkpt><trkpt lat="44.58291" lon="8.265755"><ele>746.0</ele><time>2026-04-04T13:02:49.104Z</time></trkpt><trkpt lat="44.5830783" lon="8.265825"><ele>746.0</ele><time>2026-04-04T13:02:50.105Z</time></trkpt><trkpt lat="44.5832483" lon="8.2658683"><ele>746.0</ele><time>2026-04-04T13:02:51.109Z</time></trkpt><trkpt lat="44.5834183" lon="8.2658917"><ele>746.0</ele><time>2026-04-04T13:02:52.117Z</time></trkpt><trkpt lat="44.583585" lon="8.2658933"><ele>747.6666666666666</ele><time>2026-04-04T13:02:53.104Z</time></trkpt><trkpt lat="44.5837467" lon="8.2658683"><ele>749.3333333333334</ele><time>2026-04-04T13:02:54.109Z</time></trkpt><trkpt lat="44.5838967" lon="8.2658167"><ele>751.0</ele><time>2026-04-04T13:02:55.103Z</time></trkpt><trkpt lat="44.584025" lon="8.2657133"><ele>749.0</ele><time>2026-04-04T13:02:56.109Z</time></trkpt><trkpt lat="44.5841333" lon="8.2655617"><ele>747.0</ele><time>2026-04-04T13:02:57.103Z</time></trkpt><trkpt lat="44.5842267" lon="8.2653933"><ele>745.0</ele><time>2026-04-04T13:02:58.104Z</time></trkpt><trkpt lat="44.584315" lon="8.2652267"><ele>745.0</ele><time>2026-04-04T13:02:59.1Z</time></trkpt><trkpt lat="44.5844033" lon="8.2650817"><ele>745.0</ele><time>2026-04-04T13:03:00.103Z</time></trkpt><trkpt lat="44.5844983" lon="8.26498"><ele>745.0</ele><time>2026-04-04T13:03:01.106Z</time></trkpt><trkpt lat="44.5846" lon="8.2649167"><ele>745.0</ele><time>2026-04-04T13:03:02.106Z</time></trkpt><trkpt lat="44.5847133" lon="8.2648933"><ele>747.0</ele><time>2026-04-04T13:03:03.101Z</time></trkpt><trkpt lat="44.584835" lon="8.2648767"><ele>749.0</ele><time>2026-04-04T13:03:04.105Z</time></trkpt><trkpt lat="44.5849617" lon="8.264855"><ele>751.0</ele><time>2026-04-04T13:03:05.102Z</time></trkpt><trkpt lat="44.5850833" lon="8.264835"><ele>753.0</ele><time>2026-04-04T13:03:06.102Z</time></trkpt><trkpt lat="44.5852033" lon="8.2648367"><ele>753.0</ele><time>2026-04-04T13:03:07.1Z</time></trkpt><trkpt lat="44.585325" lon="8.26487"><ele>753.0</ele><time>2026-04-04T13:03:08.103Z</time></trkpt><trkpt lat="44.5854533" lon="8.2649283"><ele>753.0</ele><time>2026-04-04T13:03:09.103Z</time></trkpt><trkpt lat="44.585585" lon="8.2649817"><ele>753.0</ele><time>2026-04-04T13:03:10.101Z</time></trkpt><trkpt lat="44.5857333" lon="8.2650183"><ele>752.3333333333334</ele><time>2026-04-04T13:03:11.099Z</time></trkpt><trkpt lat="44.585885" lon="8.2650433"><ele>751.6666666666667</ele><time>2026-04-04T13:03:12.103Z</time></trkpt><trkpt lat="44.5860483" lon="8.2650633"><ele>751.0</ele><time>2026-04-04T13:03:13.104Z</time></trkpt><trkpt lat="44.586215" lon="8.2650867"><ele>751.0</ele><time>2026-04-04T13:03:14.102Z</time></trkpt><trkpt lat="44.5863833" lon="8.2651183"><ele>751.0</ele><time>2026-04-04T13:03:15.114Z</time></trkpt><trkpt lat="44.5865517" lon="8.2651617"><ele>751.0</ele><time>2026-04-04T13:03:16.106Z</time></trkpt><trkpt lat="44.5867117" lon="8.2652017"><ele>751.0</ele><time>2026-04-04T13:03:17.099Z</time></trkpt><trkpt lat="44.586855" lon="8.2652333"><ele>751.0</ele><time>2026-04-04T13:03:18.101Z</time></trkpt><trkpt lat="44.58698" lon="8.26528"><ele>751.0</ele><time>2026-04-04T13:03:19.105Z</time></trkpt><trkpt lat="44.5871017" lon="8.2653533"><ele>751.0</ele><time>2026-04-04T13:03:20.101Z</time></trkpt><trkpt lat="44.587195" lon="8.2654633"><ele>750.25</ele><time>2026-04-04T13:03:21.1Z</time></trkpt><trkpt lat="44.5872767" lon="8.26558"><ele>749.5</ele><time>2026-04-04T13:03:22.102Z</time></trkpt><trkpt lat="44.5873617" lon="8.265685"><ele>748.75</ele><time>2026-04-04T13:03:23.104Z</time></trkpt><trkpt lat="44.5874583" lon="8.2657617"><ele>748.0</ele><time>2026-04-04T13:03:24.102Z</time></trkpt><trkpt lat="44.5875767" lon="8.2658"><ele>746.5</ele><time>2026-04-04T13:03:25.102Z</time></trkpt><trkpt lat="44.5877067" lon="8.2658017"><ele>745.0</ele><time>2026-04-04T13:03:26.099Z</time></trkpt><trkpt lat="44.5878533" lon="8.2657817"><ele>743.5</ele><time>2026-04-04T13:03:27.103Z</time></trkpt><trkpt lat="44.588005" lon="8.26576"><ele>742.0</ele><time>2026-04-04T13:03:28.106Z</time></trkpt><trkpt lat="44.5881633" lon="8.2657367"><ele>742.0</ele><time>2026-04-04T13:03:29.101Z</time></trkpt><trkpt lat="44.58832" lon="8.265735"><ele>742.0</ele><time>2026-04-04T13:03:30.099Z</time></trkpt><trkpt lat="44.58847" lon="8.26576"><ele>742.0</ele><time>2026-04-04T13:03:31.103Z</time></trkpt><trkpt lat="44.5886017" lon="8.26582"><ele>742.0</ele><time>2026-04-04T13:03:32.1Z</time></trkpt><trkpt lat="44.5887183" lon="8.265905"><ele>742.0</ele><time>2026-04-04T13:03:33.097Z</time></trkpt><trkpt lat="44.5888233" lon="8.26601"><ele>742.0</ele><time>2026-04-04T13:03:34.1Z</time></trkpt><trkpt lat="44.5889217" lon="8.266125"><ele>742.0</ele><time>2026-04-04T13:03:35.102Z</time></trkpt><trkpt lat="44.5890217" lon="8.2662417"><ele>742.0</ele><time>2026-04-04T13:03:36.105Z</time></trkpt><trkpt lat="44.58913" lon="8.2663517"><ele>742.0</ele><time>2026-04-04T13:03:37.111Z</time></trkpt><trkpt lat="44.58923" lon="8.2664433"><ele>742.0</ele><time>2026-04-04T13:03:38.105Z</time></trkpt><trkpt lat="44.5893133" lon="8.2665133"><ele>742.0</ele><time>2026-04-04T13:03:39.107Z</time></trkpt><trkpt lat="44.5893917" lon="8.266565"><ele>742.0</ele><time>2026-04-04T13:03:40.105Z</time></trkpt><trkpt lat="44.5894533" lon="8.2666017"><ele>742.0</ele><time>2026-04-04T13:03:41.103Z</time></trkpt><trkpt lat="44.589535" lon="8.2666683"><ele>739.25</ele><time>2026-04-04T13:03:43.099Z</time></trkpt><trkpt lat="44.5896367" lon="8.26681"><ele>736.5</ele><time>2026-04-04T13:03:45.103Z</time></trkpt><trkpt lat="44.5896883" lon="8.26694"><ele>733.75</ele><time>2026-04-04T13:03:46.106Z</time></trkpt><trkpt lat="44.5897367" lon="8.2670883"><ele>731.0</ele><time>2026-04-04T13:03:47.103Z</time></trkpt><trkpt lat="44.5897883" lon="8.26724"><ele>731.75</ele><time>2026-04-04T13:03:48.098Z</time></trkpt><trkpt lat="44.589845" lon="8.2674033"><ele>732.5</ele><time>2026-04-04T13:03:49.101Z</time></trkpt><trkpt lat="44.5898983" lon="8.2675717"><ele>733.25</ele><time>2026-04-04T13:03:50.101Z</time></trkpt><trkpt lat="44.5899433" lon="8.2677433"><ele>734.0</ele><time>2026-04-04T13:03:51.099Z</time></trkpt><trkpt lat="44.5899883" lon="8.2679183"><ele>734.0</ele><time>2026-04-04T13:03:52.101Z</time></trkpt><trkpt lat="44.5900467" lon="8.2680933"><ele>734.0</ele><time>2026-04-04T13:03:53.101Z</time></trkpt><trkpt lat="44.5901017" lon="8.2682733"><ele>734.0</ele><time>2026-04-04T13:03:54.103Z</time></trkpt><trkpt lat="44.59016" lon="8.26845"><ele>734.0</ele><time>2026-04-04T13:03:55.105Z</time></trkpt><trkpt lat="44.5902217" lon="8.26863"><ele>732.0</ele><time>2026-04-04T13:03:56.104Z</time></trkpt><trkpt lat="44.5902817" lon="8.2688083"><ele>730.0</ele><time>2026-04-04T13:03:57.103Z</time></trkpt><trkpt lat="44.59034" lon="8.2689917"><ele>728.0</ele><time>2026-04-04T13:03:58.106Z</time></trkpt><trkpt lat="44.5903967" lon="8.26917"><ele>726.0</ele><time>2026-04-04T13:03:59.105Z</time></trkpt><trkpt lat="44.5904583" lon="8.269355"><ele>724.5</ele><time>2026-04-04T13:04:00.105Z</time></trkpt><trkpt lat="44.5905117" lon="8.2695367"><ele>723.0</ele><time>2026-04-04T13:04:01.105Z</time></trkpt><trkpt lat="44.5905717" lon="8.2697167"><ele>721.5</ele><time>2026-04-04T13:04:02.1Z</time></trkpt><trkpt lat="44.59063" lon="8.2698933"><ele>720.0</ele><time>2026-04-04T13:04:03.106Z</time></trkpt><trkpt lat="44.5906883" lon="8.270065"><ele>720.0</ele><time>2026-04-04T13:04:04.101Z</time></trkpt><trkpt lat="44.5907383" lon="8.27024"><ele>720.0</ele><time>2026-04-04T13:04:05.105Z</time></trkpt><trkpt lat="44.5907867" lon="8.27041"><ele>720.0</ele><time>2026-04-04T13:04:06.102Z</time></trkpt><trkpt lat="44.590825" lon="8.2705717"><ele>720.0</ele><time>2026-04-04T13:04:07.099Z</time></trkpt><trkpt lat="44.59085" lon="8.27074"><ele>722.25</ele><time>2026-04-04T13:04:08.105Z</time></trkpt><trkpt lat="44.5908533" lon="8.2709083"><ele>724.5</ele><time>2026-04-04T13:04:09.106Z</time></trkpt><trkpt lat="44.59083" lon="8.2710717"><ele>726.75</ele><time>2026-04-04T13:04:10.104Z</time></trkpt><trkpt lat="44.5908183" lon="8.27124"><ele>729.0</ele><time>2026-04-04T13:04:11.109Z</time></trkpt><trkpt lat="44.5908" lon="8.27141"><ele>730.4000000000001</ele><time>2026-04-04T13:04:12.099Z</time></trkpt><trkpt lat="44.5907783" lon="8.2715817"><ele>731.8</ele><time>2026-04-04T13:04:13.102Z</time></trkpt><trkpt lat="44.59076" lon="8.2717417"><ele>733.2</ele><time>2026-04-04T13:04:14.104Z</time></trkpt><trkpt lat="44.5907483" lon="8.2718967"><ele>734.5999999999999</ele><time>2026-04-04T13:04:15.103Z</time></trkpt><trkpt lat="44.5907517" lon="8.27203"><ele>736.0</ele><time>2026-04-04T13:04:16.102Z</time></trkpt><trkpt lat="44.5907683" lon="8.27215"><ele>736.0</ele><time>2026-04-04T13:04:17.103Z</time></trkpt><trkpt lat="44.5907933" lon="8.2722567"><ele>736.0</ele><time>2026-04-04T13:04:18.104Z</time></trkpt><trkpt lat="44.5908417" lon="8.2723383"><ele>736.0</ele><time>2026-04-04T13:04:19.105Z</time></trkpt><trkpt lat="44.5909" lon="8.2724083"><ele>736.0</ele><time>2026-04-04T13:04:20.102Z</time></trkpt><trkpt lat="44.5909733" lon="8.2724683"><ele>736.0</ele><time>2026-04-04T13:04:21.101Z</time></trkpt><trkpt lat="44.5910567" lon="8.2725167"><ele>736.0</ele><time>2026-04-04T13:04:22.109Z</time></trkpt><trkpt lat="44.5911383" lon="8.2725583"><ele>738.0</ele><time>2026-04-04T13:04:23.105Z</time></trkpt><trkpt lat="44.5912233" lon="8.27258"><ele>740.0</ele><time>2026-04-04T13:04:24.103Z</time></trkpt><trkpt lat="44.5912933" lon="8.2725933"><ele>742.0</ele><time>2026-04-04T13:04:25.102Z</time></trkpt><trkpt lat="44.591395" lon="8.27257"><ele>744.0</ele><time>2026-04-04T13:04:27.1Z</time></trkpt><trkpt lat="44.5913917" lon="8.2724517"><ele>746.0</ele><time>2026-04-04T13:04:30.101Z</time></trkpt><trkpt lat="44.5912867" lon="8.2723667"><ele>746.0</ele><time>2026-04-04T13:04:32.1Z</time></trkpt><trkpt lat="44.59118" lon="8.2722917"><ele>746.0</ele><time>2026-04-04T13:04:34.101Z</time></trkpt><trkpt lat="44.5910783" lon="8.27222"><ele>746.0</ele><time>2026-04-04T13:04:36.102Z</time></trkpt><trkpt lat="44.5909883" lon="8.2721533"><ele>746.0</ele><time>2026-04-04T13:04:38.102Z</time></trkpt><trkpt lat="44.59093" lon="8.27205"><ele>746.0</ele><time>2026-04-04T13:04:40.103Z</time></trkpt><trkpt lat="44.5909067" lon="8.271935"><ele>746.7142857142858</ele><time>2026-04-04T13:04:42.103Z</time></trkpt><trkpt lat="44.59094" lon="8.271845"><ele>747.4285714285714</ele><time>2026-04-04T13:04:44.103Z</time></trkpt><trkpt lat="44.59101" lon="8.2718683"><ele>748.1428571428571</ele><time>2026-04-04T13:04:46.101Z</time></trkpt><trkpt lat="44.59107" lon="8.2719467"><ele>748.8571428571429</ele><time>2026-04-04T13:04:47.102Z</time></trkpt><trkpt lat="44.5911233" lon="8.27204"><ele>749.5714285714286</ele><time>2026-04-04T13:04:48.102Z</time></trkpt><trkpt lat="44.5911833" lon="8.2720833"><ele>750.2857142857143</ele><time>2026-04-04T13:04:49.102Z</time></trkpt><trkpt lat="44.591245" lon="8.2721283"><ele>751.0</ele><time>2026-04-04T13:04:50.103Z</time></trkpt><trkpt lat="44.5913117" lon="8.2721583"><ele>751.0</ele><time>2026-04-04T13:04:51.1Z</time></trkpt><trkpt lat="44.5913767" lon="8.272185"><ele>751.0</ele><time>2026-04-04T13:04:52.101Z</time></trkpt><trkpt lat="44.59145" lon="8.2722083"><ele>751.0</ele><time>2026-04-04T13:04:53.106Z</time></trkpt><trkpt lat="44.5915167" lon="8.2722417"><ele>751.0</ele><time>2026-04-04T13:04:54.102Z</time></trkpt><trkpt lat="44.59159" lon="8.2722717"><ele>751.0</ele><time>2026-04-04T13:04:55.101Z</time></trkpt><trkpt lat="44.5916717" lon="8.2722933"><ele>751.0</ele><time>2026-04-04T13:04:56.098Z</time></trkpt><trkpt lat="44.591745" lon="8.2723283"><ele>750.8333333333334</ele><time>2026-04-04T13:04:57.099Z</time></trkpt><trkpt lat="44.59182" lon="8.2723583"><ele>750.6666666666667</ele><time>2026-04-04T13:04:58.1Z</time></trkpt><trkpt lat="44.5918917" lon="8.2723983"><ele>750.5</ele><time>2026-04-04T13:04:59.101Z</time></trkpt><trkpt lat="44.5919667" lon="8.272435"><ele>750.3333333333334</ele><time>2026-04-04T13:05:00.098Z</time></trkpt><trkpt lat="44.59204" lon="8.2724733"><ele>750.1666666666666</ele><time>2026-04-04T13:05:01.102Z</time></trkpt><trkpt lat="44.59211" lon="8.2725117"><ele>750.0</ele><time>2026-04-04T13:05:02.097Z</time></trkpt><trkpt lat="44.59218" lon="8.2725517"><ele>750.0</ele><time>2026-04-04T13:05:03.101Z</time></trkpt><trkpt lat="44.592245" lon="8.2725967"><ele>750.0</ele><time>2026-04-04T13:05:04.102Z</time></trkpt><trkpt lat="44.5923017" lon="8.27266"><ele>750.0</ele><time>2026-04-04T13:05:05.104Z</time></trkpt><trkpt lat="44.592355" lon="8.2727183"><ele>750.0</ele><time>2026-04-04T13:05:06.104Z</time></trkpt><trkpt lat="44.59244" lon="8.27282"><ele>750.0</ele><time>2026-04-04T13:05:08.104Z</time></trkpt><trkpt lat="44.592535" lon="8.27286"><ele>750.0</ele><time>2026-04-04T13:05:10.102Z</time></trkpt><trkpt lat="44.5926367" lon="8.2728367"><ele>750.0</ele><time>2026-04-04T13:05:12.1Z</time></trkpt><trkpt lat="44.5927067" lon="8.2727433"><ele>750.0</ele><time>2026-04-04T13:05:14.102Z</time></trkpt><trkpt lat="44.5927483" lon="8.272615"><ele>750.0</ele><time>2026-04-04T13:05:16.101Z</time></trkpt><trkpt lat="44.5927833" lon="8.2724767"><ele>750.0</ele><time>2026-04-04T13:05:18.109Z</time></trkpt><trkpt lat="44.5927883" lon="8.2723867"><ele>750.0</ele><time>2026-04-04T13:05:19.097Z</time></trkpt><trkpt lat="44.5928117" lon="8.2722167"><ele>750.0</ele><time>2026-04-04T13:05:21.102Z</time></trkpt><trkpt lat="44.5928383" lon="8.272045"><ele>750.0</ele><time>2026-04-04T13:05:23.108Z</time></trkpt><trkpt lat="44.5928383" lon="8.271885"><ele>750.0</ele><time>2026-04-04T13:05:25.102Z</time></trkpt><trkpt lat="44.5928967" lon="8.2717167"><ele>750.0</ele><time>2026-04-04T13:05:27.102Z</time></trkpt><trkpt lat="44.5929183" lon="8.2716283"><ele>750.0</ele><time>2026-04-04T13:05:28.102Z</time></trkpt><trkpt lat="44.5929383" lon="8.271535"><ele>746.8333333333334</ele><time>2026-04-04T13:05:29.106Z</time></trkpt><trkpt lat="44.59295" lon="8.27144"><ele>743.6666666666666</ele><time>2026-04-04T13:05:30.106Z</time></trkpt><trkpt lat="44.59296" lon="8.27134"><ele>740.5</ele><time>2026-04-04T13:05:31.103Z</time></trkpt><trkpt lat="44.5929717" lon="8.2712433"><ele>737.3333333333333</ele><time>2026-04-04T13:05:32.106Z</time></trkpt><trkpt lat="44.5929867" lon="8.27108"><ele>734.1666666666666</ele><time>2026-04-04T13:05:34.104Z</time></trkpt><trkpt lat="44.5930033" lon="8.2709583"><ele>731.0</ele><time>2026-04-04T13:05:36.104Z</time></trkpt><trkpt lat="44.5930283" lon="8.27085"><ele>731.0</ele><time>2026-04-04T13:05:38.109Z</time></trkpt><trkpt lat="44.5931417" lon="8.2708317"><ele>731.0</ele><time>2026-04-04T13:05:40.098Z</time></trkpt><trkpt lat="44.59323" lon="8.27077"><ele>731.0</ele><time>2026-04-04T13:05:42.103Z</time></trkpt><trkpt lat="44.5932533" lon="8.270665"><ele>731.0</ele><time>2026-04-04T13:05:44.101Z</time></trkpt><trkpt lat="44.59321" lon="8.270575"><ele>731.0</ele><time>2026-04-04T13:05:47.106Z</time></trkpt><trkpt lat="44.593115" lon="8.2705517"><ele>728.5999999999999</ele><time>2026-04-04T13:05:49.102Z</time></trkpt><trkpt lat="44.5929817" lon="8.27052"><ele>726.2</ele><time>2026-04-04T13:05:51.098Z</time></trkpt><trkpt lat="44.5929033" lon="8.270495"><ele>723.8</ele><time>2026-04-04T13:05:52.105Z</time></trkpt><trkpt lat="44.592825" lon="8.2704667"><ele>721.4000000000001</ele><time>2026-04-04T13:05:53.104Z</time></trkpt><trkpt lat="44.5927333" lon="8.2704433"><ele>719.0</ele><time>2026-04-04T13:05:54.101Z</time></trkpt><trkpt lat="44.592645" lon="8.2704267"><ele>718.5</ele><time>2026-04-04T13:05:55.106Z</time></trkpt><trkpt lat="44.5925617" lon="8.2704317"><ele>718.0</ele><time>2026-04-04T13:05:56.104Z</time></trkpt><trkpt lat="44.592485" lon="8.270445"><ele>717.5</ele><time>2026-04-04T13:05:57.104Z</time></trkpt><trkpt lat="44.5924167" lon="8.2704883"><ele>717.0</ele><time>2026-04-04T13:05:58.103Z</time></trkpt><trkpt lat="44.5923533" lon="8.2705483"><ele>716.5</ele><time>2026-04-04T13:05:59.109Z</time></trkpt><trkpt lat="44.5922933" lon="8.2705917"><ele>716.0</ele><time>2026-04-04T13:06:00.098Z</time></trkpt><trkpt lat="44.5922083" lon="8.27064"><ele>716.0</ele><time>2026-04-04T13:06:02.103Z</time></trkpt><trkpt lat="44.5921417" lon="8.2706117"><ele>716.0</ele><time>2026-04-04T13:06:06.103Z</time></trkpt><trkpt lat="44.592155" lon="8.2705233"><ele>716.0</ele><time>2026-04-04T13:06:09.101Z</time></trkpt><trkpt lat="44.5922267" lon="8.2704383"><ele>716.0</ele><time>2026-04-04T13:06:11.101Z</time></trkpt><trkpt lat="44.5923033" lon="8.2703833"><ele>716.0</ele><time>2026-04-04T13:06:12.101Z</time></trkpt><trkpt lat="44.5923783" lon="8.2703117"><ele>716.0</ele><time>2026-04-04T13:06:13.103Z</time></trkpt><trkpt lat="44.59245" lon="8.2702433"><ele>716.0</ele><time>2026-04-04T13:06:14.104Z</time></trkpt><trkpt lat="44.5925333" lon="8.270185"><ele>716.0</ele><time>2026-04-04T13:06:15.101Z</time></trkpt><trkpt lat="44.5926167" lon="8.2701317"><ele>716.0</ele><time>2026-04-04T13:06:16.106Z</time></trkpt><trkpt lat="44.5927017" lon="8.2700917"><ele>716.0</ele><time>2026-04-04T13:06:17.101Z</time></trkpt><trkpt lat="44.5927867" lon="8.270065"><ele>716.0</ele><time>2026-04-04T13:06:18.106Z</time></trkpt><trkpt lat="44.592885" lon="8.2700717"><ele>716.75</ele><time>2026-04-04T13:06:19.104Z</time></trkpt><trkpt lat="44.5929933" lon="8.2701017"><ele>717.5</ele><time>2026-04-04T13:06:20.104Z</time></trkpt><trkpt lat="44.59311" lon="8.2701"><ele>718.25</ele><time>2026-04-04T13:06:21.104Z</time></trkpt><trkpt lat="44.59324" lon="8.27009"><ele>719.0</ele><time>2026-04-04T13:06:22.101Z</time></trkpt><trkpt lat="44.59336" lon="8.27006"><ele>719.0</ele><time>2026-04-04T13:06:23.1Z</time></trkpt><trkpt lat="44.5934783" lon="8.2700067"><ele>719.0</ele><time>2026-04-04T13:06:24.099Z</time></trkpt><trkpt lat="44.59359" lon="8.2699333"><ele>719.0</ele><time>2026-04-04T13:06:25.103Z</time></trkpt><trkpt lat="44.59369" lon="8.2698433"><ele>719.0</ele><time>2026-04-04T13:06:26.1Z</time></trkpt><trkpt lat="44.5937833" lon="8.269725"><ele>716.6</ele><time>2026-04-04T13:06:27.105Z</time></trkpt><trkpt lat="44.5938717" lon="8.2695983"><ele>714.2</ele><time>2026-04-04T13:06:28.101Z</time></trkpt><trkpt lat="44.5939483" lon="8.2694883"><ele>711.8000000000001</ele><time>2026-04-04T13:06:29.102Z</time></trkpt><trkpt lat="44.5940233" lon="8.2694067"><ele>709.4000000000001</ele><time>2026-04-04T13:06:30.102Z</time></trkpt><trkpt lat="44.594105" lon="8.2693483"><ele>707.0</ele><time>2026-04-04T13:06:31.102Z</time></trkpt><trkpt lat="44.5942017" lon="8.2693183"><ele>707.0</ele><time>2026-04-04T13:06:32.099Z</time></trkpt><trkpt lat="44.594305" lon="8.2692867"><ele>707.0</ele><time>2026-04-04T13:06:33.104Z</time></trkpt><trkpt lat="44.59442" lon="8.2692517"><ele>707.0</ele><time>2026-04-04T13:06:34.104Z</time></trkpt><trkpt lat="44.5945383" lon="8.2692083"><ele>707.0</ele><time>2026-04-04T13:06:35.105Z</time></trkpt><trkpt lat="44.5946683" lon="8.2691567"><ele>705.75</ele><time>2026-04-04T13:06:36.105Z</time></trkpt><trkpt lat="44.5947917" lon="8.2690917"><ele>704.5</ele><time>2026-04-04T13:06:37.104Z</time></trkpt><trkpt lat="44.5949167" lon="8.26901"><ele>703.25</ele><time>2026-04-04T13:06:38.104Z</time></trkpt><trkpt lat="44.595045" lon="8.2689167"><ele>702.0</ele><time>2026-04-04T13:06:39.102Z</time></trkpt><trkpt lat="44.59519" lon="8.268815"><ele>699.3333333333334</ele><time>2026-04-04T13:06:40.1Z</time></trkpt><trkpt lat="44.595325" lon="8.26871"><ele>696.6666666666667</ele><time>2026-04-04T13:06:41.107Z</time></trkpt><trkpt lat="44.59545" lon="8.2685817"><ele>694.0</ele><time>2026-04-04T13:06:42.104Z</time></trkpt><trkpt lat="44.5955617" lon="8.26843"><ele>694.0</ele><time>2026-04-04T13:06:43.105Z</time></trkpt><trkpt lat="44.5956567" lon="8.2682633"><ele>694.0</ele><time>2026-04-04T13:06:44.099Z</time></trkpt><trkpt lat="44.5957417" lon="8.2681067"><ele>694.0</ele><time>2026-04-04T13:06:45.103Z</time></trkpt><trkpt lat="44.5958233" lon="8.26796"><ele>694.0</ele><time>2026-04-04T13:06:46.112Z</time></trkpt><trkpt lat="44.5959117" lon="8.2678367"><ele>690.25</ele><time>2026-04-04T13:06:47.102Z</time></trkpt><trkpt lat="44.5960083" lon="8.267735"><ele>686.5</ele><time>2026-04-04T13:06:48.103Z</time></trkpt><trkpt lat="44.596115" lon="8.26766"><ele>682.75</ele><time>2026-04-04T13:06:49.102Z</time></trkpt><trkpt lat="44.5962283" lon="8.2676033"><ele>679.0</ele><time>2026-04-04T13:06:50.1Z</time></trkpt><trkpt lat="44.5963533" lon="8.2675683"><ele>678.75</ele><time>2026-04-04T13:06:51.103Z</time></trkpt><trkpt lat="44.5964867" lon="8.2675417"><ele>678.5</ele><time>2026-04-04T13:06:52.101Z</time></trkpt><trkpt lat="44.5966283" lon="8.2675067"><ele>678.25</ele><time>2026-04-04T13:06:53.105Z</time></trkpt><trkpt lat="44.5967733" lon="8.2674667"><ele>678.0</ele><time>2026-04-04T13:06:54.104Z</time></trkpt><trkpt lat="44.59693" lon="8.267405"><ele>676.3333333333334</ele><time>2026-04-04T13:06:55.101Z</time></trkpt><trkpt lat="44.597085" lon="8.26733"><ele>674.6666666666667</ele><time>2026-04-04T13:06:56.105Z</time></trkpt><trkpt lat="44.5972433" lon="8.2672283"><ele>673.0</ele><time>2026-04-04T13:06:57.101Z</time></trkpt><trkpt lat="44.5973867" lon="8.2670983"><ele>673.0</ele><time>2026-04-04T13:06:58.105Z</time></trkpt><trkpt lat="44.5975167" lon="8.266955"><ele>673.0</ele><time>2026-04-04T13:06:59.102Z</time></trkpt><trkpt lat="44.59764" lon="8.2668183"><ele>673.0</ele><time>2026-04-04T13:07:00.101Z</time></trkpt><trkpt lat="44.5977683" lon="8.2667067"><ele>672.3333333333334</ele><time>2026-04-04T13:07:01.102Z</time></trkpt><trkpt lat="44.5979083" lon="8.26662"><ele>671.6666666666666</ele><time>2026-04-04T13:07:02.106Z</time></trkpt><trkpt lat="44.5980483" lon="8.2665367"><ele>671.0</ele><time>2026-04-04T13:07:03.102Z</time></trkpt><trkpt lat="44.5981933" lon="8.2664517"><ele>671.3333333333333</ele><time>2026-04-04T13:07:04.104Z</time></trkpt><trkpt lat="44.5983367" lon="8.2663633"><ele>671.6666666666666</ele><time>2026-04-04T13:07:05.104Z</time></trkpt><trkpt lat="44.5984783" lon="8.2662717"><ele>672.0</ele><time>2026-04-04T13:07:06.099Z</time></trkpt><trkpt lat="44.5986167" lon="8.266175"><ele>672.6666666666666</ele><time>2026-04-04T13:07:07.102Z</time></trkpt><trkpt lat="44.59876" lon="8.266085"><ele>673.3333333333333</ele><time>2026-04-04T13:07:08.102Z</time></trkpt><trkpt lat="44.5989067" lon="8.2660067"><ele>674.0</ele><time>2026-04-04T13:07:09.104Z</time></trkpt><trkpt lat="44.5990567" lon="8.26595"><ele>674.0</ele><time>2026-04-04T13:07:10.103Z</time></trkpt><trkpt lat="44.5992067" lon="8.265885"><ele>674.0</ele><time>2026-04-04T13:07:11.105Z</time></trkpt><trkpt lat="44.5993567" lon="8.2658"><ele>674.0</ele><time>2026-04-04T13:07:12.103Z</time></trkpt><trkpt lat="44.5995" lon="8.2656867"><ele>671.3333333333333</ele><time>2026-04-04T13:07:13.104Z</time></trkpt><trkpt lat="44.599635" lon="8.2655433"><ele>668.6666666666666</ele><time>2026-04-04T13:07:14.1Z</time></trkpt><trkpt lat="44.5997567" lon="8.2653817"><ele>666.0</ele><time>2026-04-04T13:07:15.104Z</time></trkpt><trkpt lat="44.5998667" lon="8.26519"><ele>666.0</ele><time>2026-04-04T13:07:16.103Z</time></trkpt><trkpt lat="44.599975" lon="8.2649967"><ele>666.0</ele><time>2026-04-04T13:07:17.107Z</time></trkpt><trkpt lat="44.60009" lon="8.2648067"><ele>666.0</ele><time>2026-04-04T13:07:18.101Z</time></trkpt><trkpt lat="44.6002083" lon="8.264625"><ele>664.0</ele><time>2026-04-04T13:07:19.099Z</time></trkpt><trkpt lat="44.60033" lon="8.2644483"><ele>662.0</ele><time>2026-04-04T13:07:20.102Z</time></trkpt><trkpt lat="44.600455" lon="8.26428"><ele>660.0</ele><time>2026-04-04T13:07:21.106Z</time></trkpt><trkpt lat="44.6005767" lon="8.2641233"><ele>660.0</ele><time>2026-04-04T13:07:22.105Z</time></trkpt><trkpt lat="44.60069" lon="8.2639783"><ele>660.0</ele><time>2026-04-04T13:07:23.104Z</time></trkpt><trkpt lat="44.6007967" lon="8.2638367"><ele>660.0</ele><time>2026-04-04T13:07:24.102Z</time></trkpt><trkpt lat="44.6008983" lon="8.2636817"><ele>655.6666666666666</ele><time>2026-04-04T13:07:25.108Z</time></trkpt><trkpt lat="44.6009883" lon="8.2635217"><ele>651.3333333333333</ele><time>2026-04-04T13:07:26.101Z</time></trkpt><trkpt lat="44.6010733" lon="8.2633417"><ele>647.0</ele><time>2026-04-04T13:07:27.108Z</time></trkpt><trkpt lat="44.601155" lon="8.2631483"><ele>645.0</ele><time>2026-04-04T13:07:28.104Z</time></trkpt><trkpt lat="44.6012317" lon="8.2629433"><ele>643.0</ele><time>2026-04-04T13:07:29.103Z</time></trkpt><trkpt lat="44.6013067" lon="8.2627333"><ele>641.0</ele><time>2026-04-04T13:07:30.104Z</time></trkpt><trkpt lat="44.6013767" lon="8.2625133"><ele>641.0</ele><time>2026-04-04T13:07:31.107Z</time></trkpt><trkpt lat="44.6014333" lon="8.2622883"><ele>641.0</ele><time>2026-04-04T13:07:32.099Z</time></trkpt><trkpt lat="44.6014833" lon="8.2620717"><ele>641.0</ele><time>2026-04-04T13:07:33.104Z</time></trkpt><trkpt lat="44.6015333" lon="8.26187"><ele>639.5</ele><time>2026-04-04T13:07:34.103Z</time></trkpt><trkpt lat="44.601605" lon="8.2616933"><ele>638.0</ele><time>2026-04-04T13:07:35.103Z</time></trkpt><trkpt lat="44.6016983" lon="8.261535"><ele>636.5</ele><time>2026-04-04T13:07:36.103Z</time></trkpt><trkpt lat="44.6018083" lon="8.261405"><ele>635.0</ele><time>2026-04-04T13:07:37.102Z</time></trkpt><trkpt lat="44.601925" lon="8.261295"><ele>633.25</ele><time>2026-04-04T13:07:38.101Z</time></trkpt><trkpt lat="44.602055" lon="8.2612067"><ele>631.5</ele><time>2026-04-04T13:07:39.102Z</time></trkpt><trkpt lat="44.602195" lon="8.26114"><ele>629.75</ele><time>2026-04-04T13:07:40.101Z</time></trkpt><trkpt lat="44.6023367" lon="8.2610917"><ele>628.0</ele><time>2026-04-04T13:07:41.101Z</time></trkpt><trkpt lat="44.60248" lon="8.2610583"><ele>628.0</ele><time>2026-04-04T13:07:42.102Z</time></trkpt><trkpt lat="44.602625" lon="8.2610333"><ele>628.0</ele><time>2026-04-04T13:07:43.103Z</time></trkpt><trkpt lat="44.6027733" lon="8.261015"><ele>628.0</ele><time>2026-04-04T13:07:44.106Z</time></trkpt><trkpt lat="44.6029167" lon="8.2610083"><ele>628.0</ele><time>2026-04-04T13:07:45.105Z</time></trkpt><trkpt lat="44.60306" lon="8.26101"><ele>627.0</ele><time>2026-04-04T13:07:46.107Z</time></trkpt><trkpt lat="44.603205" lon="8.2610283"><ele>626.0</ele><time>2026-04-04T13:07:47.105Z</time></trkpt><trkpt lat="44.60335" lon="8.26107"><ele>625.0</ele><time>2026-04-04T13:07:48.101Z</time></trkpt><trkpt lat="44.6034983" lon="8.26112"><ele>624.0</ele><time>2026-04-04T13:07:49.102Z</time></trkpt><trkpt lat="44.6036533" lon="8.2611733"><ele>622.3333333333334</ele><time>2026-04-04T13:07:50.11Z</time></trkpt><trkpt lat="44.6038083" lon="8.2612317"><ele>620.6666666666667</ele><time>2026-04-04T13:07:51.101Z</time></trkpt><trkpt lat="44.60396" lon="8.2612883"><ele>619.0</ele><time>2026-04-04T13:07:52.104Z</time></trkpt><trkpt lat="44.6040967" lon="8.2613317"><ele>619.0</ele><time>2026-04-04T13:07:53.104Z</time></trkpt><trkpt lat="44.6042267" lon="8.2613417"><ele>619.0</ele><time>2026-04-04T13:07:54.102Z</time></trkpt><trkpt lat="44.6043583" lon="8.2613083"><ele>619.0</ele><time>2026-04-04T13:07:55.105Z</time></trkpt><trkpt lat="44.6044917" lon="8.2612367"><ele>619.0</ele><time>2026-04-04T13:07:56.105Z</time></trkpt><trkpt lat="44.6046283" lon="8.26114"><ele>616.3333333333334</ele><time>2026-04-04T13:07:57.098Z</time></trkpt><trkpt lat="44.6047667" lon="8.26103"><ele>613.6666666666666</ele><time>2026-04-04T13:07:58.105Z</time></trkpt><trkpt lat="44.6049083" lon="8.2609167"><ele>611.0</ele><time>2026-04-04T13:07:59.099Z</time></trkpt><trkpt lat="44.60505" lon="8.2608033"><ele>611.0</ele><time>2026-04-04T13:08:00.101Z</time></trkpt><trkpt lat="44.605195" lon="8.2606883"><ele>611.0</ele><time>2026-04-04T13:08:01.105Z</time></trkpt><trkpt lat="44.6053383" lon="8.2605667"><ele>611.0</ele><time>2026-04-04T13:08:02.1Z</time></trkpt><trkpt lat="44.6054817" lon="8.26044"><ele>609.3333333333333</ele><time>2026-04-04T13:08:03.103Z</time></trkpt><trkpt lat="44.605625" lon="8.2603067"><ele>607.6666666666666</ele><time>2026-04-04T13:08:04.103Z</time></trkpt><trkpt lat="44.6057633" lon="8.26017"><ele>606.0</ele><time>2026-04-04T13:08:05.103Z</time></trkpt><trkpt lat="44.6058983" lon="8.2600483"><ele>606.0</ele><time>2026-04-04T13:08:06.104Z</time></trkpt><trkpt lat="44.6060283" lon="8.25995"><ele>606.0</ele><time>2026-04-04T13:08:07.105Z</time></trkpt><trkpt lat="44.60616" lon="8.2598817"><ele>606.0</ele><time>2026-04-04T13:08:08.107Z</time></trkpt><trkpt lat="44.6062983" lon="8.2598517"><ele>606.0</ele><time>2026-04-04T13:08:09.105Z</time></trkpt><trkpt lat="44.6064417" lon="8.2598417"><ele>605.75</ele><time>2026-04-04T13:08:10.104Z</time></trkpt><trkpt lat="44.6065883" lon="8.2598317"><ele>605.5</ele><time>2026-04-04T13:08:11.106Z</time></trkpt><trkpt lat="44.6067333" lon="8.2598133"><ele>605.25</ele><time>2026-04-04T13:08:12.102Z</time></trkpt><trkpt lat="44.6068667" lon="8.2597967"><ele>605.0</ele><time>2026-04-04T13:08:13.109Z</time></trkpt><trkpt lat="44.606985" lon="8.25977"><ele>601.8</ele><time>2026-04-04T13:08:14.104Z</time></trkpt><trkpt lat="44.60708" lon="8.2597217"><ele>598.6</ele><time>2026-04-04T13:08:15.1Z</time></trkpt><trkpt lat="44.60716" lon="8.2596517"><ele>595.4</ele><time>2026-04-04T13:08:16.1Z</time></trkpt><trkpt lat="44.6072083" lon="8.259545"><ele>592.2</ele><time>2026-04-04T13:08:17.099Z</time></trkpt><trkpt lat="44.607225" lon="8.259405"><ele>589.0</ele><time>2026-04-04T13:08:18.101Z</time></trkpt><trkpt lat="44.6072283" lon="8.2592467"><ele>589.0</ele><time>2026-04-04T13:08:19.1Z</time></trkpt><trkpt lat="44.6072317" lon="8.2590733"><ele>589.0</ele><time>2026-04-04T13:08:20.104Z</time></trkpt><trkpt lat="44.6072383" lon="8.2588967"><ele>589.0</ele><time>2026-04-04T13:08:21.102Z</time></trkpt><trkpt lat="44.60724" lon="8.2587183"><ele>589.0</ele><time>2026-04-04T13:08:22.105Z</time></trkpt><trkpt lat="44.607235" lon="8.258545"><ele>587.75</ele><time>2026-04-04T13:08:23.1Z</time></trkpt><trkpt lat="44.6072117" lon="8.25839"><ele>586.5</ele><time>2026-04-04T13:08:24.102Z</time></trkpt><trkpt lat="44.6071617" lon="8.2582567"><ele>585.25</ele><time>2026-04-04T13:08:25.101Z</time></trkpt><trkpt lat="44.607085" lon="8.258135"><ele>584.0</ele><time>2026-04-04T13:08:26.102Z</time></trkpt><trkpt lat="44.60699" lon="8.258025"><ele>584.0</ele><time>2026-04-04T13:08:27.104Z</time></trkpt><trkpt lat="44.606885" lon="8.2579283"><ele>584.0</ele><time>2026-04-04T13:08:28.105Z</time></trkpt><trkpt lat="44.6067667" lon="8.2578583"><ele>584.0</ele><time>2026-04-04T13:08:29.106Z</time></trkpt><trkpt lat="44.6066383" lon="8.2578017"><ele>584.0</ele><time>2026-04-04T13:08:30.102Z</time></trkpt><trkpt lat="44.6065083" lon="8.2577383"><ele>584.0</ele><time>2026-04-04T13:08:31.103Z</time></trkpt><trkpt lat="44.6063933" lon="8.257645"><ele>584.0</ele><time>2026-04-04T13:08:32.104Z</time></trkpt><trkpt lat="44.6063083" lon="8.257505"><ele>584.0</ele><time>2026-04-04T13:08:33.105Z</time></trkpt><trkpt lat="44.6062417" lon="8.2573267"><ele>584.0</ele><time>2026-04-04T13:08:34.105Z</time></trkpt><trkpt lat="44.6061817" lon="8.257135"><ele>583.6666666666666</ele><time>2026-04-04T13:08:35.105Z</time></trkpt><trkpt lat="44.6061283" lon="8.256925"><ele>583.3333333333334</ele><time>2026-04-04T13:08:36.105Z</time></trkpt><trkpt lat="44.6060683" lon="8.2567133"><ele>583.0</ele><time>2026-04-04T13:08:37.115Z</time></trkpt><trkpt lat="44.6060067" lon="8.2564983"><ele>580.0</ele><time>2026-04-04T13:08:38.105Z</time></trkpt><trkpt lat="44.60595" lon="8.25628"><ele>577.0</ele><time>2026-04-04T13:08:39.104Z</time></trkpt><trkpt lat="44.6059033" lon="8.256065"><ele>574.0</ele><time>2026-04-04T13:08:40.105Z</time></trkpt><trkpt lat="44.6058717" lon="8.2558483"><ele>574.0</ele><time>2026-04-04T13:08:41.109Z</time></trkpt><trkpt lat="44.60587" lon="8.2556567"><ele>574.0</ele><time>2026-04-04T13:08:42.101Z</time></trkpt><trkpt lat="44.6058967" lon="8.2554867"><ele>574.0</ele><time>2026-04-04T13:08:43.104Z</time></trkpt><trkpt lat="44.6059467" lon="8.2553367"><ele>574.0</ele><time>2026-04-04T13:08:44.101Z</time></trkpt><trkpt lat="44.6060333" lon="8.255195"><ele>574.5</ele><time>2026-04-04T13:08:45.101Z</time></trkpt><trkpt lat="44.6061367" lon="8.2550617"><ele>575.0</ele><time>2026-04-04T13:08:46.104Z</time></trkpt><trkpt lat="44.60625" lon="8.25493"><ele>575.5</ele><time>2026-04-04T13:08:47.101Z</time></trkpt><trkpt lat="44.606375" lon="8.2548033"><ele>576.0</ele><time>2026-04-04T13:08:48.102Z</time></trkpt><trkpt lat="44.6064967" lon="8.2546833"><ele>572.5</ele><time>2026-04-04T13:08:49.101Z</time></trkpt><trkpt lat="44.6066083" lon="8.254565"><ele>569.0</ele><time>2026-04-04T13:08:50.1Z</time></trkpt><trkpt lat="44.606715" lon="8.25444"><ele>565.5</ele><time>2026-04-04T13:08:51.104Z</time></trkpt><trkpt lat="44.606805" lon="8.2542967"><ele>562.0</ele><time>2026-04-04T13:08:52.108Z</time></trkpt><trkpt lat="44.6068667" lon="8.2541433"><ele>562.0</ele><time>2026-04-04T13:08:53.105Z</time></trkpt><trkpt lat="44.6068933" lon="8.2539933"><ele>562.0</ele><time>2026-04-04T13:08:54.103Z</time></trkpt><trkpt lat="44.606885" lon="8.2538483"><ele>562.0</ele><time>2026-04-04T13:08:55.105Z</time></trkpt><trkpt lat="44.6068383" lon="8.2537033"><ele>562.0</ele><time>2026-04-04T13:08:56.1Z</time></trkpt><trkpt lat="44.60677" lon="8.2535633"><ele>562.0</ele><time>2026-04-04T13:08:57.105Z</time></trkpt><trkpt lat="44.6066883" lon="8.2534117"><ele>559.3333333333334</ele><time>2026-04-04T13:08:58.104Z</time></trkpt><trkpt lat="44.606595" lon="8.2532483"><ele>556.6666666666666</ele><time>2026-04-04T13:08:59.102Z</time></trkpt><trkpt lat="44.6064967" lon="8.253075"><ele>554.0</ele><time>2026-04-04T13:09:00.103Z</time></trkpt><trkpt lat="44.6064017" lon="8.2528983"><ele>551.0</ele><time>2026-04-04T13:09:01.104Z</time></trkpt><trkpt lat="44.60632" lon="8.252715"><ele>548.0</ele><time>2026-04-04T13:09:02.103Z</time></trkpt><trkpt lat="44.6062567" lon="8.2525333"><ele>545.0</ele><time>2026-04-04T13:09:03.103Z</time></trkpt><trkpt lat="44.6062067" lon="8.2523633"><ele>542.0</ele><time>2026-04-04T13:09:04.099Z</time></trkpt><trkpt lat="44.6061583" lon="8.2522017"><ele>541.75</ele><time>2026-04-04T13:09:05.103Z</time></trkpt><trkpt lat="44.6061017" lon="8.2520517"><ele>541.5</ele><time>2026-04-04T13:09:06.103Z</time></trkpt><trkpt lat="44.606035" lon="8.2519083"><ele>541.25</ele><time>2026-04-04T13:09:07.101Z</time></trkpt><trkpt lat="44.6059583" lon="8.25177"><ele>541.0</ele><time>2026-04-04T13:09:08.102Z</time></trkpt><trkpt lat="44.605885" lon="8.2516383"><ele>541.0</ele><time>2026-04-04T13:09:09.097Z</time></trkpt><trkpt lat="44.6058233" lon="8.251525"><ele>541.0</ele><time>2026-04-04T13:09:10.103Z</time></trkpt><trkpt lat="44.6057967" lon="8.2514367"><ele>541.0</ele><time>2026-04-04T13:09:11.106Z</time></trkpt><trkpt lat="44.6058167" lon="8.2512933"><ele>541.0</ele><time>2026-04-04T13:09:13.106Z</time></trkpt><trkpt lat="44.60594" lon="8.2512733"><ele>541.0</ele><time>2026-04-04T13:09:15.106Z</time></trkpt><trkpt lat="44.6060283" lon="8.251295"><ele>539.0</ele><time>2026-04-04T13:09:16.105Z</time></trkpt><trkpt lat="44.6061417" lon="8.2513517"><ele>537.0</ele><time>2026-04-04T13:09:17.107Z</time></trkpt><trkpt lat="44.60626" lon="8.2514083"><ele>535.0</ele><time>2026-04-04T13:09:18.103Z</time></trkpt><trkpt lat="44.6063783" lon="8.25146"><ele>533.0</ele><time>2026-04-04T13:09:19.107Z</time></trkpt><trkpt lat="44.6064967" lon="8.2515133"><ele>533.0</ele><time>2026-04-04T13:09:20.102Z</time></trkpt><trkpt lat="44.6066117" lon="8.2515667"><ele>533.0</ele><time>2026-04-04T13:09:21.103Z</time></trkpt><trkpt lat="44.6067133" lon="8.2516167"><ele>533.0</ele><time>2026-04-04T13:09:22.107Z</time></trkpt><trkpt lat="44.6067967" lon="8.2516567"><ele>533.0</ele><time>2026-04-04T13:09:23.102Z</time></trkpt><trkpt lat="44.606865" lon="8.25168"><ele>533.0</ele><time>2026-04-04T13:09:24.108Z</time></trkpt><trkpt lat="44.6069467" lon="8.2516917"><ele>531.4</ele><time>2026-04-04T13:09:25.101Z</time></trkpt><trkpt lat="44.60703" lon="8.25166"><ele>529.8</ele><time>2026-04-04T13:09:27.099Z</time></trkpt><trkpt lat="44.6070367" lon="8.251525"><ele>528.2</ele><time>2026-04-04T13:09:29.107Z</time></trkpt><trkpt lat="44.6069933" lon="8.251385"><ele>526.6</ele><time>2026-04-04T13:09:30.103Z</time></trkpt><trkpt lat="44.6069483" lon="8.2512433"><ele>525.0</ele><time>2026-04-04T13:09:31.102Z</time></trkpt><trkpt lat="44.606915" lon="8.251105"><ele>525.0</ele><time>2026-04-04T13:09:32.102Z</time></trkpt><trkpt lat="44.6068867" lon="8.2509517"><ele>525.0</ele><time>2026-04-04T13:09:33.105Z</time></trkpt><trkpt lat="44.6068583" lon="8.2508"><ele>525.0</ele><time>2026-04-04T13:09:34.103Z</time></trkpt><trkpt lat="44.6068283" lon="8.250635"><ele>525.0</ele><time>2026-04-04T13:09:35.106Z</time></trkpt><trkpt lat="44.6068017" lon="8.2504733"><ele>523.5</ele><time>2026-04-04T13:09:36.101Z</time></trkpt><trkpt lat="44.6067733" lon="8.2503067"><ele>522.0</ele><time>2026-04-04T13:09:37.101Z</time></trkpt><trkpt lat="44.60675" lon="8.2501433"><ele>520.5</ele><time>2026-04-04T13:09:38.102Z</time></trkpt><trkpt lat="44.6067267" lon="8.2499883"><ele>519.0</ele><time>2026-04-04T13:09:39.11Z</time></trkpt><trkpt lat="44.6066883" lon="8.249855"><ele>517.0</ele><time>2026-04-04T13:09:40.106Z</time></trkpt><trkpt lat="44.606635" lon="8.2497417"><ele>515.0</ele><time>2026-04-04T13:09:41.104Z</time></trkpt><trkpt lat="44.6065717" lon="8.2496383"><ele>513.0</ele><time>2026-04-04T13:09:42.106Z</time></trkpt><trkpt lat="44.6065117" lon="8.2495367"><ele>511.0</ele><time>2026-04-04T13:09:43.103Z</time></trkpt><trkpt lat="44.6064633" lon="8.2494267"><ele>509.0</ele><time>2026-04-04T13:09:44.104Z</time></trkpt><trkpt lat="44.6064333" lon="8.2493083"><ele>508.99999999999994</ele><time>2026-04-04T13:09:45.106Z</time></trkpt><trkpt lat="44.60642" lon="8.249185"><ele>509.0</ele><time>2026-04-04T13:09:46.103Z</time></trkpt><trkpt lat="44.6064033" lon="8.2490617"><ele>509.0</ele><time>2026-04-04T13:09:47.101Z</time></trkpt><trkpt lat="44.6063767" lon="8.2489417"><ele>509.0</ele><time>2026-04-04T13:09:48.107Z</time></trkpt><trkpt lat="44.6063417" lon="8.24884"><ele>508.99999999999994</ele><time>2026-04-04T13:09:49.101Z</time></trkpt><trkpt lat="44.6062983" lon="8.2487717"><ele>509.0</ele><time>2026-04-04T13:09:50.108Z</time></trkpt><trkpt lat="44.6061967" lon="8.2487067"><ele>507.79999999999995</ele><time>2026-04-04T13:09:52.111Z</time></trkpt><trkpt lat="44.60611" lon="8.2487817"><ele>506.59999999999997</ele><time>2026-04-04T13:09:53.102Z</time></trkpt><trkpt lat="44.6060367" lon="8.2488417"><ele>505.4</ele><time>2026-04-04T13:09:54.101Z</time></trkpt><trkpt lat="44.6059717" lon="8.2489217"><ele>504.2</ele><time>2026-04-04T13:09:55.104Z</time></trkpt><trkpt lat="44.6059133" lon="8.2490183"><ele>503.0</ele><time>2026-04-04T13:09:56.104Z</time></trkpt><trkpt lat="44.6058517" lon="8.2491183"><ele>503.0</ele><time>2026-04-04T13:09:57.104Z</time></trkpt><trkpt lat="44.6057883" lon="8.249225"><ele>502.99999999999994</ele><time>2026-04-04T13:09:58.109Z</time></trkpt><trkpt lat="44.6057183" lon="8.249335"><ele>502.99999999999994</ele><time>2026-04-04T13:09:59.109Z</time></trkpt><trkpt lat="44.6056467" lon="8.2494467"><ele>503.0</ele><time>2026-04-04T13:10:00.102Z</time></trkpt><trkpt lat="44.605565" lon="8.2495533"><ele>503.0</ele><time>2026-04-04T13:10:01.105Z</time></trkpt><trkpt lat="44.6054717" lon="8.249645"><ele>503.0</ele><time>2026-04-04T13:10:02.106Z</time></trkpt><trkpt lat="44.605375" lon="8.24974"><ele>503.0</ele><time>2026-04-04T13:10:03.103Z</time></trkpt><trkpt lat="44.60528" lon="8.2498417"><ele>503.0</ele><time>2026-04-04T13:10:04.103Z</time></trkpt><trkpt lat="44.6051883" lon="8.2499467"><ele>503.0</ele><time>2026-04-04T13:10:05.105Z</time></trkpt><trkpt lat="44.60509" lon="8.25005"><ele>501.75</ele><time>2026-04-04T13:10:06.107Z</time></trkpt><trkpt lat="44.6049767" lon="8.2501417"><ele>500.5</ele><time>2026-04-04T13:10:07.101Z</time></trkpt><trkpt lat="44.6048733" lon="8.2502333"><ele>499.25</ele><time>2026-04-04T13:10:08.1Z</time></trkpt><trkpt lat="44.6047683" lon="8.2503067"><ele>498.0</ele><time>2026-04-04T13:10:09.102Z</time></trkpt><trkpt lat="44.6046717" lon="8.25037"><ele>498.0</ele><time>2026-04-04T13:10:10.098Z</time></trkpt><trkpt lat="44.60459" lon="8.2504283"><ele>498.0</ele><time>2026-04-04T13:10:11.1Z</time></trkpt><trkpt lat="44.60452" lon="8.2504783"><ele>498.0</ele><time>2026-04-04T13:10:12.099Z</time></trkpt><trkpt lat="44.604455" lon="8.2505367"><ele>498.0</ele><time>2026-04-04T13:10:13.1Z</time></trkpt><trkpt lat="44.6044083" lon="8.2506183"><ele>498.0</ele><time>2026-04-04T13:10:14.102Z</time></trkpt><trkpt lat="44.60437" lon="8.2507117"><ele>498.0</ele><time>2026-04-04T13:10:15.102Z</time></trkpt><trkpt lat="44.6043283" lon="8.2507933"><ele>497.71428571428567</ele><time>2026-04-04T13:10:16.101Z</time></trkpt><trkpt lat="44.6042833" lon="8.2508583"><ele>497.4285714285714</ele><time>2026-04-04T13:10:17.101Z</time></trkpt><trkpt lat="44.6042117" lon="8.250855"><ele>497.1428571428571</ele><time>2026-04-04T13:10:18.103Z</time></trkpt><trkpt lat="44.6041483" lon="8.2508417"><ele>496.8571428571429</ele><time>2026-04-04T13:10:19.104Z</time></trkpt><trkpt lat="44.6040933" lon="8.2507633"><ele>496.5714285714286</ele><time>2026-04-04T13:10:20.104Z</time></trkpt><trkpt lat="44.60404" lon="8.25068"><ele>496.28571428571433</ele><time>2026-04-04T13:10:21.108Z</time></trkpt><trkpt lat="44.6039817" lon="8.2505983"><ele>496.0</ele><time>2026-04-04T13:10:22.104Z</time></trkpt><trkpt lat="44.60393" lon="8.2505133"><ele>495.28571428571433</ele><time>2026-04-04T13:10:23.104Z</time></trkpt><trkpt lat="44.6038933" lon="8.2504333"><ele>494.5714285714286</ele><time>2026-04-04T13:10:24.103Z</time></trkpt><trkpt lat="44.603875" lon="8.2503433"><ele>493.8571428571429</ele><time>2026-04-04T13:10:25.106Z</time></trkpt><trkpt lat="44.60386" lon="8.25025"><ele>493.1428571428571</ele><time>2026-04-04T13:10:26.107Z</time></trkpt><trkpt lat="44.6038683" lon="8.25015"><ele>492.4285714285714</ele><time>2026-04-04T13:10:27.102Z</time></trkpt><trkpt lat="44.6038867" lon="8.2500367"><ele>491.71428571428567</ele><time>2026-04-04T13:10:28.108Z</time></trkpt><trkpt lat="44.6039083" lon="8.2499183"><ele>491.0</ele><time>2026-04-04T13:10:29.103Z</time></trkpt><trkpt lat="44.6039233" lon="8.2498"><ele>491.20000000000005</ele><time>2026-04-04T13:10:30.099Z</time></trkpt><trkpt lat="44.60396" lon="8.24968"><ele>491.40000000000003</ele><time>2026-04-04T13:10:31.098Z</time></trkpt><trkpt lat="44.604005" lon="8.2495633"><ele>491.6</ele><time>2026-04-04T13:10:32.098Z</time></trkpt><trkpt lat="44.60406" lon="8.2494467"><ele>491.8</ele><time>2026-04-04T13:10:33.104Z</time></trkpt><trkpt lat="44.6041083" lon="8.2493233"><ele>492.0</ele><time>2026-04-04T13:10:34.099Z</time></trkpt><trkpt lat="44.6041533" lon="8.2492"><ele>492.0</ele><time>2026-04-04T13:10:35.098Z</time></trkpt><trkpt lat="44.60419" lon="8.24908"><ele>492.00000000000006</ele><time>2026-04-04T13:10:36.099Z</time></trkpt><trkpt lat="44.6042117" lon="8.2489517"><ele>492.00000000000006</ele><time>2026-04-04T13:10:37.103Z</time></trkpt><trkpt lat="44.6042333" lon="8.24881"><ele>492.0</ele><time>2026-04-04T13:10:38.107Z</time></trkpt><trkpt lat="44.6042567" lon="8.2486583"><ele>492.0</ele><time>2026-04-04T13:10:39.098Z</time></trkpt><trkpt lat="44.6042767" lon="8.2484933"><ele>493.75</ele><time>2026-04-04T13:10:40.099Z</time></trkpt><trkpt lat="44.6043133" lon="8.24832"><ele>495.5</ele><time>2026-04-04T13:10:41.103Z</time></trkpt><trkpt lat="44.6043467" lon="8.2481433"><ele>497.25</ele><time>2026-04-04T13:10:42.103Z</time></trkpt><trkpt lat="44.604385" lon="8.2479717"><ele>499.0</ele><time>2026-04-04T13:10:43.102Z</time></trkpt><trkpt lat="44.6044217" lon="8.247815"><ele>498.6666666666667</ele><time>2026-04-04T13:10:44.107Z</time></trkpt><trkpt lat="44.6044567" lon="8.2476883"><ele>498.33333333333337</ele><time>2026-04-04T13:10:45.101Z</time></trkpt><trkpt lat="44.6044833" lon="8.2475733"><ele>498.0</ele><time>2026-04-04T13:10:46.104Z</time></trkpt><trkpt lat="44.6044967" lon="8.2474633"><ele>497.66666666666663</ele><time>2026-04-04T13:10:47.102Z</time></trkpt><trkpt lat="44.60442" lon="8.247415"><ele>497.3333333333333</ele><time>2026-04-04T13:10:49.104Z</time></trkpt><trkpt lat="44.604355" lon="8.2474517"><ele>497.0</ele><time>2026-04-04T13:10:50.108Z</time></trkpt><trkpt lat="44.6042917" lon="8.247495"><ele>501.20000000000005</ele><time>2026-04-04T13:10:51.102Z</time></trkpt><trkpt lat="44.6042133" lon="8.2475517"><ele>505.40000000000003</ele><time>2026-04-04T13:10:52.101Z</time></trkpt><trkpt lat="44.6041217" lon="8.2476283"><ele>509.59999999999997</ele><time>2026-04-04T13:10:53.103Z</time></trkpt><trkpt lat="44.6040133" lon="8.247715"><ele>513.8</ele><time>2026-04-04T13:10:54.101Z</time></trkpt><trkpt lat="44.6039067" lon="8.2478167"><ele>518.0</ele><time>2026-04-04T13:10:55.103Z</time></trkpt><trkpt lat="44.6037967" lon="8.24793"><ele>518.0</ele><time>2026-04-04T13:10:56.104Z</time></trkpt><trkpt lat="44.6036917" lon="8.2480633"><ele>518.0</ele><time>2026-04-04T13:10:57.103Z</time></trkpt><trkpt lat="44.6035967" lon="8.2482133"><ele>518.0</ele><time>2026-04-04T13:10:58.101Z</time></trkpt><trkpt lat="44.6035017" lon="8.2483667"><ele>518.0</ele><time>2026-04-04T13:10:59.106Z</time></trkpt><trkpt lat="44.603415" lon="8.24851"><ele>518.8</ele><time>2026-04-04T13:11:00.099Z</time></trkpt><trkpt lat="44.6033383" lon="8.2486333"><ele>519.5999999999999</ele><time>2026-04-04T13:11:01.102Z</time></trkpt><trkpt lat="44.6032683" lon="8.248735"><ele>520.4000000000001</ele><time>2026-04-04T13:11:02.112Z</time></trkpt><trkpt lat="44.603195" lon="8.2488033"><ele>521.2</ele><time>2026-04-04T13:11:03.1Z</time></trkpt><trkpt lat="44.6031217" lon="8.2488617"><ele>522.0</ele><time>2026-04-04T13:11:04.103Z</time></trkpt><trkpt lat="44.603035" lon="8.2489067"><ele>522.0</ele><time>2026-04-04T13:11:05.099Z</time></trkpt><trkpt lat="44.602955" lon="8.248935"><ele>522.0</ele><time>2026-04-04T13:11:06.103Z</time></trkpt><trkpt lat="44.6028817" lon="8.24893"><ele>522.0</ele><time>2026-04-04T13:11:07.104Z</time></trkpt><trkpt lat="44.6028383" lon="8.2487717"><ele>522.0</ele><time>2026-04-04T13:11:09.104Z</time></trkpt><trkpt lat="44.6028467" lon="8.2486617"><ele>522.0</ele><time>2026-04-04T13:11:10.104Z</time></trkpt><trkpt lat="44.602865" lon="8.248565"><ele>522.0</ele><time>2026-04-04T13:11:11.102Z</time></trkpt><trkpt lat="44.6029283" lon="8.24843"><ele>522.0</ele><time>2026-04-04T13:11:12.106Z</time></trkpt><trkpt lat="44.603005" lon="8.248295"><ele>522.0</ele><time>2026-04-04T13:11:13.101Z</time></trkpt><trkpt lat="44.6030783" lon="8.2481517"><ele>522.0</ele><time>2026-04-04T13:11:14.102Z</time></trkpt><trkpt lat="44.6031583" lon="8.2480067"><ele>522.0</ele><time>2026-04-04T13:11:15.102Z</time></trkpt><trkpt lat="44.60325" lon="8.2478617"><ele>528.0</ele><time>2026-04-04T13:11:16.105Z</time></trkpt><trkpt lat="44.60334" lon="8.2477133"><ele>534.0</ele><time>2026-04-04T13:11:17.113Z</time></trkpt><trkpt lat="44.603435" lon="8.2475667"><ele>540.0</ele><time>2026-04-04T13:11:18.11Z</time></trkpt><trkpt lat="44.6035383" lon="8.2474267"><ele>546.0</ele><time>2026-04-04T13:11:19.108Z</time></trkpt><trkpt lat="44.6036417" lon="8.24729"><ele>545.75</ele><time>2026-04-04T13:11:20.103Z</time></trkpt><trkpt lat="44.6037417" lon="8.24715"><ele>545.5</ele><time>2026-04-04T13:11:21.1Z</time></trkpt><trkpt lat="44.6038333" lon="8.2470033"><ele>545.25</ele><time>2026-04-04T13:11:22.104Z</time></trkpt><trkpt lat="44.6039283" lon="8.2468583"><ele>545.0</ele><time>2026-04-04T13:11:23.105Z</time></trkpt><trkpt lat="44.6040383" lon="8.2467183"><ele>545.0</ele><time>2026-04-04T13:11:24.103Z</time></trkpt><trkpt lat="44.6041483" lon="8.246585"><ele>545.0</ele><time>2026-04-04T13:11:25.107Z</time></trkpt><trkpt lat="44.604245" lon="8.2464367"><ele>545.0</ele><time>2026-04-04T13:11:26.102Z</time></trkpt><trkpt lat="44.604335" lon="8.2462917"><ele>545.0</ele><time>2026-04-04T13:11:27.104Z</time></trkpt><trkpt lat="44.60443" lon="8.2461567"><ele>546.75</ele><time>2026-04-04T13:11:28.104Z</time></trkpt><trkpt lat="44.6045383" lon="8.2460533"><ele>548.5</ele><time>2026-04-04T13:11:29.104Z</time></trkpt><trkpt lat="44.6046633" lon="8.2459783"><ele>550.25</ele><time>2026-04-04T13:11:30.102Z</time></trkpt><trkpt lat="44.60479" lon="8.2458983"><ele>552.0</ele><time>2026-04-04T13:11:31.106Z</time></trkpt><trkpt lat="44.604905" lon="8.245805"><ele>552.0</ele><time>2026-04-04T13:11:32.106Z</time></trkpt><trkpt lat="44.6050083" lon="8.2456967"><ele>552.0</ele><time>2026-04-04T13:11:33.105Z</time></trkpt><trkpt lat="44.6051017" lon="8.2455783"><ele>552.0</ele><time>2026-04-04T13:11:34.105Z</time></trkpt><trkpt lat="44.6051883" lon="8.2454567"><ele>552.0</ele><time>2026-04-04T13:11:35.1Z</time></trkpt><trkpt lat="44.6052617" lon="8.2453267"><ele>552.0</ele><time>2026-04-04T13:11:36.104Z</time></trkpt><trkpt lat="44.60532" lon="8.2451867"><ele>552.0</ele><time>2026-04-04T13:11:37.104Z</time></trkpt><trkpt lat="44.605375" lon="8.2450383"><ele>552.0</ele><time>2026-04-04T13:11:38.1Z</time></trkpt><trkpt lat="44.6054367" lon="8.2448983"><ele>552.0</ele><time>2026-04-04T13:11:39.103Z</time></trkpt><trkpt lat="44.6055133" lon="8.2447767"><ele>554.1666666666666</ele><time>2026-04-04T13:11:40.102Z</time></trkpt><trkpt lat="44.6056" lon="8.2446967"><ele>556.3333333333334</ele><time>2026-04-04T13:11:41.102Z</time></trkpt><trkpt lat="44.605685" lon="8.244665"><ele>558.5</ele><time>2026-04-04T13:11:42.104Z</time></trkpt><trkpt lat="44.605755" lon="8.2446567"><ele>560.6666666666667</ele><time>2026-04-04T13:11:43.106Z</time></trkpt><trkpt lat="44.6058567" lon="8.24461"><ele>562.8333333333334</ele><time>2026-04-04T13:11:45.105Z</time></trkpt><trkpt lat="44.60591" lon="8.244545"><ele>565.0</ele><time>2026-04-04T13:11:47.103Z</time></trkpt><trkpt lat="44.6059883" lon="8.2444233"><ele>565.0</ele><time>2026-04-04T13:11:49.101Z</time></trkpt><trkpt lat="44.606055" lon="8.2443433"><ele>565.0</ele><time>2026-04-04T13:11:50.101Z</time></trkpt><trkpt lat="44.6061317" lon="8.24426"><ele>565.0</ele><time>2026-04-04T13:11:51.105Z</time></trkpt><trkpt lat="44.6062267" lon="8.2441683"><ele>565.0</ele><time>2026-04-04T13:11:52.104Z</time></trkpt><trkpt lat="44.6063233" lon="8.2440783"><ele>565.0</ele><time>2026-04-04T13:11:53.107Z</time></trkpt><trkpt lat="44.6064267" lon="8.243985"><ele>563.25</ele><time>2026-04-04T13:11:54.106Z</time></trkpt><trkpt lat="44.6065317" lon="8.24391"><ele>561.5</ele><time>2026-04-04T13:11:55.105Z</time></trkpt><trkpt lat="44.6066417" lon="8.243855"><ele>559.75</ele><time>2026-04-04T13:11:56.105Z</time></trkpt><trkpt lat="44.60675" lon="8.2438133"><ele>558.0</ele><time>2026-04-04T13:11:57.101Z</time></trkpt><trkpt lat="44.606865" lon="8.2437583"><ele>558.0</ele><time>2026-04-04T13:11:58.107Z</time></trkpt><trkpt lat="44.6069833" lon="8.2437033"><ele>558.0</ele><time>2026-04-04T13:11:59.103Z</time></trkpt><trkpt lat="44.607095" lon="8.2436533"><ele>558.0</ele><time>2026-04-04T13:12:00.105Z</time></trkpt><trkpt lat="44.6072083" lon="8.2436033"><ele>558.0</ele><time>2026-04-04T13:12:01.102Z</time></trkpt><trkpt lat="44.6073183" lon="8.2435533"><ele>557.5</ele><time>2026-04-04T13:12:02.103Z</time></trkpt><trkpt lat="44.6074117" lon="8.2435017"><ele>557.0</ele><time>2026-04-04T13:12:03.101Z</time></trkpt><trkpt lat="44.607485" lon="8.2434483"><ele>556.5</ele><time>2026-04-04T13:12:04.105Z</time></trkpt><trkpt lat="44.607545" lon="8.2433983"><ele>556.0</ele><time>2026-04-04T13:12:05.105Z</time></trkpt><trkpt lat="44.607605" lon="8.24335"><ele>555.5</ele><time>2026-04-04T13:12:06.099Z</time></trkpt><trkpt lat="44.6075967" lon="8.2431967"><ele>555.0</ele><time>2026-04-04T13:12:08.102Z</time></trkpt><trkpt lat="44.60754" lon="8.2431333"><ele>552.8</ele><time>2026-04-04T13:12:09.101Z</time></trkpt><trkpt lat="44.60747" lon="8.2430733"><ele>550.6</ele><time>2026-04-04T13:12:10.102Z</time></trkpt><trkpt lat="44.6073817" lon="8.2430017"><ele>548.4</ele><time>2026-04-04T13:12:11.109Z</time></trkpt><trkpt lat="44.6072817" lon="8.2429167"><ele>546.2</ele><time>2026-04-04T13:12:12.099Z</time></trkpt><trkpt lat="44.6071867" lon="8.2428183"><ele>544.0</ele><time>2026-04-04T13:12:13.103Z</time></trkpt><trkpt lat="44.6070883" lon="8.24273"><ele>544.5</ele><time>2026-04-04T13:12:14.104Z</time></trkpt><trkpt lat="44.6069833" lon="8.24265"><ele>545.0</ele><time>2026-04-04T13:12:15.101Z</time></trkpt><trkpt lat="44.6068783" lon="8.2426017"><ele>545.5</ele><time>2026-04-04T13:12:16.103Z</time></trkpt><trkpt lat="44.60676" lon="8.2425883"><ele>546.0</ele><time>2026-04-04T13:12:17.103Z</time></trkpt><trkpt lat="44.6066383" lon="8.242595"><ele>546.0</ele><time>2026-04-04T13:12:18.103Z</time></trkpt><trkpt lat="44.6065167" lon="8.2425933"><ele>546.0</ele><time>2026-04-04T13:12:19.105Z</time></trkpt><trkpt lat="44.606405" lon="8.2425517"><ele>546.0</ele><time>2026-04-04T13:12:20.1Z</time></trkpt><trkpt lat="44.6063067" lon="8.2424667"><ele>546.0</ele><time>2026-04-04T13:12:21.109Z</time></trkpt><trkpt lat="44.606225" lon="8.2423417"><ele>545.25</ele><time>2026-04-04T13:12:22.102Z</time></trkpt><trkpt lat="44.606155" lon="8.2421933"><ele>544.5</ele><time>2026-04-04T13:12:23.106Z</time></trkpt><trkpt lat="44.6060917" lon="8.2420267"><ele>543.75</ele><time>2026-04-04T13:12:24.098Z</time></trkpt><trkpt lat="44.6060433" lon="8.2418417"><ele>543.0</ele><time>2026-04-04T13:12:25.098Z</time></trkpt><trkpt lat="44.6060117" lon="8.2416367"><ele>540.75</ele><time>2026-04-04T13:12:26.109Z</time></trkpt><trkpt lat="44.6059817" lon="8.24143"><ele>538.5</ele><time>2026-04-04T13:12:27.1Z</time></trkpt><trkpt lat="44.6059533" lon="8.2412433"><ele>536.25</ele><time>2026-04-04T13:12:28.103Z</time></trkpt><trkpt lat="44.605935" lon="8.2410917"><ele>534.0</ele><time>2026-04-04T13:12:29.099Z</time></trkpt><trkpt lat="44.605935" lon="8.240965"><ele>534.0</ele><time>2026-04-04T13:12:30.102Z</time></trkpt><trkpt lat="44.6059517" lon="8.24085"><ele>534.0</ele><time>2026-04-04T13:12:31.103Z</time></trkpt><trkpt lat="44.6059817" lon="8.24075"><ele>534.0</ele><time>2026-04-04T13:12:32.103Z</time></trkpt><trkpt lat="44.6060333" lon="8.24067"><ele>534.0</ele><time>2026-04-04T13:12:33.101Z</time></trkpt><trkpt lat="44.6061233" lon="8.2406317"><ele>534.0</ele><time>2026-04-04T13:12:34.105Z</time></trkpt><trkpt lat="44.60626" lon="8.240615"><ele>530.25</ele><time>2026-04-04T13:12:35.101Z</time></trkpt><trkpt lat="44.6063867" lon="8.2405767"><ele>526.5</ele><time>2026-04-04T13:12:36.103Z</time></trkpt><trkpt lat="44.606505" lon="8.240545"><ele>522.75</ele><time>2026-04-04T13:12:37.108Z</time></trkpt><trkpt lat="44.606615" lon="8.240545"><ele>519.0</ele><time>2026-04-04T13:12:38.107Z</time></trkpt><trkpt lat="44.6067283" lon="8.2405767"><ele>519.0</ele><time>2026-04-04T13:12:39.104Z</time></trkpt><trkpt lat="44.6068483" lon="8.2406183"><ele>519.0</ele><time>2026-04-04T13:12:40.105Z</time></trkpt><trkpt lat="44.6069767" lon="8.2406417"><ele>519.0</ele><time>2026-04-04T13:12:41.113Z</time></trkpt><trkpt lat="44.6071033" lon="8.240645"><ele>519.0</ele><time>2026-04-04T13:12:42.108Z</time></trkpt><trkpt lat="44.6072333" lon="8.24062"><ele>517.25</ele><time>2026-04-04T13:12:43.11Z</time></trkpt><trkpt lat="44.6073583" lon="8.240565"><ele>515.5</ele><time>2026-04-04T13:12:44.111Z</time></trkpt><trkpt lat="44.6074617" lon="8.2404767"><ele>513.75</ele><time>2026-04-04T13:12:45.099Z</time></trkpt><trkpt lat="44.607555" lon="8.2403617"><ele>512.0</ele><time>2026-04-04T13:12:46.105Z</time></trkpt><trkpt lat="44.60762" lon="8.2402033"><ele>512.0</ele><time>2026-04-04T13:12:47.101Z</time></trkpt><trkpt lat="44.607665" lon="8.2400167"><ele>512.0</ele><time>2026-04-04T13:12:48.1Z</time></trkpt><trkpt lat="44.607715" lon="8.239845"><ele>512.0</ele><time>2026-04-04T13:12:49.102Z</time></trkpt><trkpt lat="44.60777" lon="8.2397217"><ele>512.0</ele><time>2026-04-04T13:12:50.101Z</time></trkpt><trkpt lat="44.6078317" lon="8.2396417"><ele>509.8</ele><time>2026-04-04T13:12:51.098Z</time></trkpt><trkpt lat="44.6079083" lon="8.2396"><ele>507.6</ele><time>2026-04-04T13:12:52.1Z</time></trkpt><trkpt lat="44.6079967" lon="8.2395883"><ele>505.40000000000003</ele><time>2026-04-04T13:12:53.106Z</time></trkpt><trkpt lat="44.6081117" lon="8.23961"><ele>503.20000000000005</ele><time>2026-04-04T13:12:54.104Z</time></trkpt><trkpt lat="44.6082383" lon="8.2396133"><ele>501.0</ele><time>2026-04-04T13:12:55.106Z</time></trkpt><trkpt lat="44.6083733" lon="8.2395967"><ele>501.0</ele><time>2026-04-04T13:12:56.1Z</time></trkpt><trkpt lat="44.6085133" lon="8.2395517"><ele>501.0</ele><time>2026-04-04T13:12:57.103Z</time></trkpt><trkpt lat="44.608655" lon="8.2394883"><ele>501.0</ele><time>2026-04-04T13:12:58.106Z</time></trkpt><trkpt lat="44.6087967" lon="8.2394167"><ele>501.0</ele><time>2026-04-04T13:12:59.105Z</time></trkpt><trkpt lat="44.6089383" lon="8.2393383"><ele>500.0</ele><time>2026-04-04T13:13:00.103Z</time></trkpt><trkpt lat="44.6090833" lon="8.2392517"><ele>499.0</ele><time>2026-04-04T13:13:01.102Z</time></trkpt><trkpt lat="44.6092283" lon="8.2391683"><ele>498.0</ele><time>2026-04-04T13:13:02.103Z</time></trkpt><trkpt lat="44.6093767" lon="8.2390733"><ele>498.0</ele><time>2026-04-04T13:13:03.1Z</time></trkpt><trkpt lat="44.6095217" lon="8.238985"><ele>498.0</ele><time>2026-04-04T13:13:04.104Z</time></trkpt><trkpt lat="44.609655" lon="8.238895"><ele>498.0</ele><time>2026-04-04T13:13:05.106Z</time></trkpt><trkpt lat="44.609775" lon="8.2388117"><ele>498.0</ele><time>2026-04-04T13:13:06.101Z</time></trkpt><trkpt lat="44.6098783" lon="8.2387067"><ele>495.5</ele><time>2026-04-04T13:13:07.103Z</time></trkpt><trkpt lat="44.6099583" lon="8.2385617"><ele>493.0</ele><time>2026-04-04T13:13:08.105Z</time></trkpt><trkpt lat="44.61003" lon="8.2384017"><ele>490.5</ele><time>2026-04-04T13:13:09.099Z</time></trkpt><trkpt lat="44.610095" lon="8.238235"><ele>488.0</ele><time>2026-04-04T13:13:10.103Z</time></trkpt><trkpt lat="44.61016" lon="8.238075"><ele>485.79999999999995</ele><time>2026-04-04T13:13:11.099Z</time></trkpt><trkpt lat="44.6102233" lon="8.2379283"><ele>483.59999999999997</ele><time>2026-04-04T13:13:12.105Z</time></trkpt><trkpt lat="44.6102867" lon="8.237805"><ele>481.40000000000003</ele><time>2026-04-04T13:13:13.108Z</time></trkpt><trkpt lat="44.6103583" lon="8.2377033"><ele>479.20000000000005</ele><time>2026-04-04T13:13:14.1Z</time></trkpt><trkpt lat="44.61045" lon="8.2376283"><ele>477.0</ele><time>2026-04-04T13:13:15.101Z</time></trkpt><trkpt lat="44.6105567" lon="8.2375667"><ele>476.75</ele><time>2026-04-04T13:13:16.102Z</time></trkpt><trkpt lat="44.6106783" lon="8.2375217"><ele>476.5</ele><time>2026-04-04T13:13:17.101Z</time></trkpt><trkpt lat="44.61081" lon="8.237475"><ele>476.25</ele><time>2026-04-04T13:13:18.104Z</time></trkpt><trkpt lat="44.610945" lon="8.23743"><ele>476.0</ele><time>2026-04-04T13:13:19.105Z</time></trkpt><trkpt lat="44.6110833" lon="8.237385"><ele>474.75</ele><time>2026-04-04T13:13:20.104Z</time></trkpt><trkpt lat="44.6112233" lon="8.2373417"><ele>473.5</ele><time>2026-04-04T13:13:21.102Z</time></trkpt><trkpt lat="44.6113683" lon="8.2372983"><ele>472.25</ele><time>2026-04-04T13:13:22.105Z</time></trkpt><trkpt lat="44.611515" lon="8.23726"><ele>471.0</ele><time>2026-04-04T13:13:23.104Z</time></trkpt><trkpt lat="44.6116683" lon="8.2372233"><ele>468.5</ele><time>2026-04-04T13:13:24.105Z</time></trkpt><trkpt lat="44.6118117" lon="8.237185"><ele>466.0</ele><time>2026-04-04T13:13:25.105Z</time></trkpt><trkpt lat="44.6119333" lon="8.23714"><ele>463.5</ele><time>2026-04-04T13:13:26.101Z</time></trkpt><trkpt lat="44.6120367" lon="8.2370667"><ele>461.0</ele><time>2026-04-04T13:13:27.108Z</time></trkpt><trkpt lat="44.6121183" lon="8.2369567"><ele>460.75</ele><time>2026-04-04T13:13:28.102Z</time></trkpt><trkpt lat="44.6121733" lon="8.2368033"><ele>460.5</ele><time>2026-04-04T13:13:29.103Z</time></trkpt><trkpt lat="44.6122083" lon="8.2366217"><ele>460.25</ele><time>2026-04-04T13:13:30.107Z</time></trkpt><trkpt lat="44.6122417" lon="8.236425"><ele>460.0</ele><time>2026-04-04T13:13:31.1Z</time></trkpt><trkpt lat="44.6122767" lon="8.2362233"><ele>458.33333333333337</ele><time>2026-04-04T13:13:32.107Z</time></trkpt><trkpt lat="44.61231" lon="8.2360167"><ele>456.66666666666663</ele><time>2026-04-04T13:13:33.098Z</time></trkpt><trkpt lat="44.612345" lon="8.2358117"><ele>455.0</ele><time>2026-04-04T13:13:34.104Z</time></trkpt><trkpt lat="44.61238" lon="8.2356"><ele>453.0</ele><time>2026-04-04T13:13:35.099Z</time></trkpt><trkpt lat="44.612415" lon="8.235395"><ele>451.0</ele><time>2026-04-04T13:13:36.102Z</time></trkpt><trkpt lat="44.612455" lon="8.2352033"><ele>449.0</ele><time>2026-04-04T13:13:37.099Z</time></trkpt><trkpt lat="44.6125" lon="8.2350317"><ele>447.0</ele><time>2026-04-04T13:13:38.097Z</time></trkpt><trkpt lat="44.6125633" lon="8.234885"><ele>445.25</ele><time>2026-04-04T13:13:39.101Z</time></trkpt><trkpt lat="44.6126467" lon="8.2347617"><ele>443.5</ele><time>2026-04-04T13:13:40.101Z</time></trkpt><trkpt lat="44.6127533" lon="8.2346517"><ele>441.75</ele><time>2026-04-04T13:13:41.103Z</time></trkpt><trkpt lat="44.6128733" lon="8.2345467"><ele>440.0</ele><time>2026-04-04T13:13:42.102Z</time></trkpt><trkpt lat="44.612995" lon="8.234435"><ele>440.0</ele><time>2026-04-04T13:13:43.107Z</time></trkpt><trkpt lat="44.6131117" lon="8.234325"><ele>440.0</ele><time>2026-04-04T13:13:44.102Z</time></trkpt><trkpt lat="44.6132267" lon="8.234255"><ele>440.0</ele><time>2026-04-04T13:13:45.107Z</time></trkpt><trkpt lat="44.613325" lon="8.2342083"><ele>440.0</ele><time>2026-04-04T13:13:46.104Z</time></trkpt><trkpt lat="44.6134317" lon="8.2341933"><ele>440.0</ele><time>2026-04-04T13:13:47.105Z</time></trkpt><trkpt lat="44.6135567" lon="8.2341883"><ele>440.0</ele><time>2026-04-04T13:13:48.105Z</time></trkpt><trkpt lat="44.6137017" lon="8.234195"><ele>440.0</ele><time>2026-04-04T13:13:49.103Z</time></trkpt><trkpt lat="44.6138617" lon="8.23421"><ele>440.0</ele><time>2026-04-04T13:13:50.106Z</time></trkpt><trkpt lat="44.614015" lon="8.234215"><ele>437.3333333333333</ele><time>2026-04-04T13:13:51.102Z</time></trkpt><trkpt lat="44.6141767" lon="8.23422"><ele>434.66666666666663</ele><time>2026-04-04T13:13:52.106Z</time></trkpt><trkpt lat="44.61433" lon="8.2342167"><ele>432.0</ele><time>2026-04-04T13:13:53.108Z</time></trkpt><trkpt lat="44.6144783" lon="8.23422"><ele>430.40000000000003</ele><time>2026-04-04T13:13:54.103Z</time></trkpt><trkpt lat="44.6146033" lon="8.2342167"><ele>428.80000000000007</ele><time>2026-04-04T13:13:55.102Z</time></trkpt><trkpt lat="44.6147167" lon="8.23418"><ele>427.2</ele><time>2026-04-04T13:13:56.103Z</time></trkpt><trkpt lat="44.614805" lon="8.234115"><ele>425.6</ele><time>2026-04-04T13:13:57.104Z</time></trkpt><trkpt lat="44.6148717" lon="8.2340133"><ele>424.0</ele><time>2026-04-04T13:13:58.103Z</time></trkpt><trkpt lat="44.614905" lon="8.2338983"><ele>423.75</ele><time>2026-04-04T13:13:59.108Z</time></trkpt><trkpt lat="44.614895" lon="8.2337517"><ele>423.5</ele><time>2026-04-04T13:14:00.102Z</time></trkpt><trkpt lat="44.6148617" lon="8.2335817"><ele>423.25</ele><time>2026-04-04T13:14:01.101Z</time></trkpt><trkpt lat="44.6148117" lon="8.233425"><ele>423.0</ele><time>2026-04-04T13:14:02.102Z</time></trkpt><trkpt lat="44.614755" lon="8.2332733"><ele>422.25</ele><time>2026-04-04T13:14:03.103Z</time></trkpt><trkpt lat="44.6147" lon="8.2331317"><ele>421.5</ele><time>2026-04-04T13:14:04.101Z</time></trkpt><trkpt lat="44.6146667" lon="8.2329717"><ele>420.75</ele><time>2026-04-04T13:14:05.102Z</time></trkpt><trkpt lat="44.6146517" lon="8.232795"><ele>420.0</ele><time>2026-04-04T13:14:06.1Z</time></trkpt><trkpt lat="44.614645" lon="8.232605"><ele>420.0</ele><time>2026-04-04T13:14:07.103Z</time></trkpt><trkpt lat="44.614635" lon="8.232425"><ele>420.0</ele><time>2026-04-04T13:14:08.102Z</time></trkpt><trkpt lat="44.6146067" lon="8.2322717"><ele>420.0</ele><time>2026-04-04T13:14:09.107Z</time></trkpt><trkpt lat="44.6145567" lon="8.232165"><ele>420.0</ele><time>2026-04-04T13:14:10.102Z</time></trkpt><trkpt lat="44.6145" lon="8.232085"><ele>420.0</ele><time>2026-04-04T13:14:11.106Z</time></trkpt><trkpt lat="44.6144117" lon="8.2320817"><ele>417.0</ele><time>2026-04-04T13:14:12.101Z</time></trkpt><trkpt lat="44.6143283" lon="8.2320983"><ele>414.0</ele><time>2026-04-04T13:14:13.102Z</time></trkpt><trkpt lat="44.6142367" lon="8.23217"><ele>411.0</ele><time>2026-04-04T13:14:14.097Z</time></trkpt><trkpt lat="44.614145" lon="8.2322733"><ele>408.0</ele><time>2026-04-04T13:14:15.101Z</time></trkpt><trkpt lat="44.6140267" lon="8.2324183"><ele>408.0</ele><time>2026-04-04T13:14:16.101Z</time></trkpt><trkpt lat="44.61392" lon="8.2325267"><ele>408.0</ele><time>2026-04-04T13:14:17.098Z</time></trkpt><trkpt lat="44.6138217" lon="8.2326233"><ele>408.0</ele><time>2026-04-04T13:14:18.098Z</time></trkpt><trkpt lat="44.6137133" lon="8.2326883"><ele>408.0</ele><time>2026-04-04T13:14:19.099Z</time></trkpt><trkpt lat="44.6136067" lon="8.2327217"><ele>406.0</ele><time>2026-04-04T13:14:20.102Z</time></trkpt><trkpt lat="44.6134983" lon="8.2327"><ele>404.0</ele><time>2026-04-04T13:14:21.105Z</time></trkpt><trkpt lat="44.6133933" lon="8.2326383"><ele>402.0</ele><time>2026-04-04T13:14:22.106Z</time></trkpt><trkpt lat="44.6132883" lon="8.232555"><ele>400.0</ele><time>2026-04-04T13:14:23.1Z</time></trkpt><trkpt lat="44.6131733" lon="8.232475"><ele>400.0</ele><time>2026-04-04T13:14:24.101Z</time></trkpt><trkpt lat="44.61305" lon="8.2324017"><ele>400.0</ele><time>2026-04-04T13:14:25.103Z</time></trkpt><trkpt lat="44.6129233" lon="8.2323317"><ele>400.0</ele><time>2026-04-04T13:14:26.102Z</time></trkpt><trkpt lat="44.6127967" lon="8.2322583"><ele>400.0</ele><time>2026-04-04T13:14:27.103Z</time></trkpt><trkpt lat="44.6126767" lon="8.2321817"><ele>398.0</ele><time>2026-04-04T13:14:28.108Z</time></trkpt><trkpt lat="44.6125717" lon="8.2321"><ele>396.0</ele><time>2026-04-04T13:14:29.103Z</time></trkpt><trkpt lat="44.612495" lon="8.2320117"><ele>394.0</ele><time>2026-04-04T13:14:30.104Z</time></trkpt><trkpt lat="44.6124517" lon="8.231915"><ele>392.0</ele><time>2026-04-04T13:14:31.102Z</time></trkpt><trkpt lat="44.61245" lon="8.2318067"><ele>390.0</ele><time>2026-04-04T13:14:32.099Z</time></trkpt><trkpt lat="44.6124633" lon="8.2317"><ele>390.0</ele><time>2026-04-04T13:14:33.102Z</time></trkpt><trkpt lat="44.6125117" lon="8.2315783"><ele>390.0</ele><time>2026-04-04T13:14:34.102Z</time></trkpt><trkpt lat="44.6125917" lon="8.2314333"><ele>390.0</ele><time>2026-04-04T13:14:35.107Z</time></trkpt><trkpt lat="44.6126917" lon="8.2312817"><ele>390.0</ele><time>2026-04-04T13:14:36.104Z</time></trkpt><trkpt lat="44.6127983" lon="8.23114"><ele>387.3333333333333</ele><time>2026-04-04T13:14:37.109Z</time></trkpt><trkpt lat="44.612915" lon="8.231015"><ele>384.66666666666663</ele><time>2026-04-04T13:14:38.102Z</time></trkpt><trkpt lat="44.6130483" lon="8.2308917"><ele>382.0</ele><time>2026-04-04T13:14:39.108Z</time></trkpt><trkpt lat="44.6131767" lon="8.230755"><ele>379.66666666666663</ele><time>2026-04-04T13:14:40.105Z</time></trkpt><trkpt lat="44.6133017" lon="8.230605"><ele>377.3333333333333</ele><time>2026-04-04T13:14:41.11Z</time></trkpt><trkpt lat="44.613435" lon="8.2304617"><ele>375.0</ele><time>2026-04-04T13:14:42.099Z</time></trkpt><trkpt lat="44.6135683" lon="8.2303267"><ele>374.6666666666667</ele><time>2026-04-04T13:14:43.103Z</time></trkpt><trkpt lat="44.613705" lon="8.2301933"><ele>374.33333333333337</ele><time>2026-04-04T13:14:44.102Z</time></trkpt><trkpt lat="44.6138383" lon="8.230065"><ele>374.0</ele><time>2026-04-04T13:14:45.099Z</time></trkpt><trkpt lat="44.6139717" lon="8.2299367"><ele>369.0</ele><time>2026-04-04T13:14:46.101Z</time></trkpt><trkpt lat="44.614105" lon="8.229805"><ele>364.0</ele><time>2026-04-04T13:14:47.104Z</time></trkpt><trkpt lat="44.61424" lon="8.22967"><ele>359.0</ele><time>2026-04-04T13:14:48.097Z</time></trkpt><trkpt lat="44.6143767" lon="8.2295333"><ele>363.0</ele><time>2026-04-04T13:14:49.1Z</time></trkpt><trkpt lat="44.61451" lon="8.2293917"><ele>367.0</ele><time>2026-04-04T13:14:50.101Z</time></trkpt><trkpt lat="44.61464" lon="8.2292383"><ele>371.0</ele><time>2026-04-04T13:14:51.105Z</time></trkpt><trkpt lat="44.6147667" lon="8.229075"><ele>365.6666666666667</ele><time>2026-04-04T13:14:52.104Z</time></trkpt><trkpt lat="44.61489" lon="8.2289033"><ele>360.3333333333333</ele><time>2026-04-04T13:14:53.106Z</time></trkpt><trkpt lat="44.61501" lon="8.228725"><ele>355.0</ele><time>2026-04-04T13:14:54.097Z</time></trkpt><trkpt lat="44.6151317" lon="8.2285433"><ele>355.0</ele><time>2026-04-04T13:14:55.106Z</time></trkpt><trkpt lat="44.6152617" lon="8.2283583"><ele>355.0</ele><time>2026-04-04T13:14:56.101Z</time></trkpt><trkpt lat="44.6153883" lon="8.2281617"><ele>355.0</ele><time>2026-04-04T13:14:57.101Z</time></trkpt><trkpt lat="44.6155217" lon="8.2279567"><ele>353.3333333333333</ele><time>2026-04-04T13:14:58.099Z</time></trkpt><trkpt lat="44.615655" lon="8.2277467"><ele>351.6666666666667</ele><time>2026-04-04T13:14:59.108Z</time></trkpt><trkpt lat="44.6157917" lon="8.22754"><ele>350.0</ele><time>2026-04-04T13:15:00.101Z</time></trkpt><trkpt lat="44.6159233" lon="8.2273383"><ele>347.6666666666667</ele><time>2026-04-04T13:15:01.109Z</time></trkpt><trkpt lat="44.61605" lon="8.227135"><ele>345.3333333333333</ele><time>2026-04-04T13:15:02.1Z</time></trkpt><trkpt lat="44.6161733" lon="8.22694"><ele>343.0</ele><time>2026-04-04T13:15:03.097Z</time></trkpt><trkpt lat="44.616285" lon="8.226765"><ele>343.0</ele><time>2026-04-04T13:15:04.101Z</time></trkpt><trkpt lat="44.6163833" lon="8.2266167"><ele>343.0</ele><time>2026-04-04T13:15:05.104Z</time></trkpt><trkpt lat="44.616465" lon="8.2264917"><ele>343.0</ele><time>2026-04-04T13:15:06.102Z</time></trkpt><trkpt lat="44.6165267" lon="8.22639"><ele>343.0</ele><time>2026-04-04T13:15:07.099Z</time></trkpt><trkpt lat="44.6165767" lon="8.2262933"><ele>343.0</ele><time>2026-04-04T13:15:08.1Z</time></trkpt><trkpt lat="44.616605" lon="8.226205"><ele>340.2</ele><time>2026-04-04T13:15:09.1Z</time></trkpt><trkpt lat="44.6165467" lon="8.226105"><ele>337.4</ele><time>2026-04-04T13:15:10.101Z</time></trkpt><trkpt lat="44.6164767" lon="8.2260233"><ele>334.59999999999997</ele><time>2026-04-04T13:15:11.102Z</time></trkpt><trkpt lat="44.6163767" lon="8.2259567"><ele>331.79999999999995</ele><time>2026-04-04T13:15:12.099Z</time></trkpt><trkpt lat="44.6162867" lon="8.2258767"><ele>329.0</ele><time>2026-04-04T13:15:13.098Z</time></trkpt><trkpt lat="44.616205" lon="8.22578"><ele>328.6</ele><time>2026-04-04T13:15:14.099Z</time></trkpt><trkpt lat="44.6161483" lon="8.22566"><ele>328.2</ele><time>2026-04-04T13:15:15.103Z</time></trkpt><trkpt lat="44.616115" lon="8.2255233"><ele>327.8</ele><time>2026-04-04T13:15:16.101Z</time></trkpt><trkpt lat="44.616105" lon="8.2253833"><ele>327.40000000000003</ele><time>2026-04-04T13:15:17.102Z</time></trkpt><trkpt lat="44.6161317" lon="8.2252567"><ele>327.0</ele><time>2026-04-04T13:15:18.104Z</time></trkpt><trkpt lat="44.6161883" lon="8.2251533"><ele>325.20000000000005</ele><time>2026-04-04T13:15:19.104Z</time></trkpt><trkpt lat="44.616265" lon="8.2250767"><ele>323.40000000000003</ele><time>2026-04-04T13:15:20.107Z</time></trkpt><trkpt lat="44.616365" lon="8.2250383"><ele>321.6</ele><time>2026-04-04T13:15:21.1Z</time></trkpt><trkpt lat="44.6164767" lon="8.2250183"><ele>319.8</ele><time>2026-04-04T13:15:22.102Z</time></trkpt><trkpt lat="44.6166" lon="8.2249967"><ele>318.0</ele><time>2026-04-04T13:15:23.102Z</time></trkpt><trkpt lat="44.6167183" lon="8.2249617"><ele>318.0</ele><time>2026-04-04T13:15:24.097Z</time></trkpt><trkpt lat="44.6168317" lon="8.2249033"><ele>318.0</ele><time>2026-04-04T13:15:25.099Z</time></trkpt><trkpt lat="44.6169167" lon="8.2248033"><ele>318.0</ele><time>2026-04-04T13:15:26.107Z</time></trkpt><trkpt lat="44.6169833" lon="8.2246717"><ele>318.0</ele><time>2026-04-04T13:15:27.107Z</time></trkpt><trkpt lat="44.6170483" lon="8.224535"><ele>316.25</ele><time>2026-04-04T13:15:28.1Z</time></trkpt><trkpt lat="44.617135" lon="8.224405"><ele>314.5</ele><time>2026-04-04T13:15:29.106Z</time></trkpt><trkpt lat="44.6172383" lon="8.22428"><ele>312.75</ele><time>2026-04-04T13:15:30.101Z</time></trkpt><trkpt lat="44.6173383" lon="8.2241683"><ele>311.0</ele><time>2026-04-04T13:15:31.099Z</time></trkpt><trkpt lat="44.6174167" lon="8.2240683"><ele>311.0</ele><time>2026-04-04T13:15:32.101Z</time></trkpt><trkpt lat="44.6174567" lon="8.2239817"><ele>311.0</ele><time>2026-04-04T13:15:33.1Z</time></trkpt><trkpt lat="44.6174817" lon="8.223895"><ele>311.0</ele><time>2026-04-04T13:15:34.104Z</time></trkpt><trkpt lat="44.6174483" lon="8.2238167"><ele>311.0</ele><time>2026-04-04T13:15:35.103Z</time></trkpt><trkpt lat="44.6173783" lon="8.2237567"><ele>311.0</ele><time>2026-04-04T13:15:36.102Z</time></trkpt><trkpt lat="44.6172883" lon="8.2237083"><ele>311.0</ele><time>2026-04-04T13:15:37.102Z</time></trkpt><trkpt lat="44.6171933" lon="8.223645"><ele>310.0</ele><time>2026-04-04T13:15:38.102Z</time></trkpt><trkpt lat="44.6171083" lon="8.2235483"><ele>309.0</ele><time>2026-04-04T13:15:39.104Z</time></trkpt><trkpt lat="44.61704" lon="8.2234283"><ele>308.0</ele><time>2026-04-04T13:15:40.113Z</time></trkpt><trkpt lat="44.6169833" lon="8.22329"><ele>307.0</ele><time>2026-04-04T13:15:41.108Z</time></trkpt><trkpt lat="44.6169267" lon="8.22315"><ele>306.0</ele><time>2026-04-04T13:15:42.102Z</time></trkpt><trkpt lat="44.6168783" lon="8.2230167"><ele>303.6</ele><time>2026-04-04T13:15:43.104Z</time></trkpt><trkpt lat="44.6168517" lon="8.2228967"><ele>301.20000000000005</ele><time>2026-04-04T13:15:44.103Z</time></trkpt><trkpt lat="44.616845" lon="8.2227867"><ele>298.79999999999995</ele><time>2026-04-04T13:15:45.106Z</time></trkpt><trkpt lat="44.6168533" lon="8.2226917"><ele>296.4</ele><time>2026-04-04T13:15:46.106Z</time></trkpt><trkpt lat="44.6169867" lon="8.2226467"><ele>294.0</ele><time>2026-04-04T13:15:48.103Z</time></trkpt><trkpt lat="44.6170767" lon="8.2226783"><ele>293.75</ele><time>2026-04-04T13:15:49.102Z</time></trkpt><trkpt lat="44.61719" lon="8.222725"><ele>293.5</ele><time>2026-04-04T13:15:50.099Z</time></trkpt><trkpt lat="44.61731" lon="8.22274"><ele>293.25</ele><time>2026-04-04T13:15:51.102Z</time></trkpt><trkpt lat="44.6174383" lon="8.2227083"><ele>293.0</ele><time>2026-04-04T13:15:52.099Z</time></trkpt><trkpt lat="44.617575" lon="8.2226567"><ele>293.0</ele><time>2026-04-04T13:15:53.1Z</time></trkpt><trkpt lat="44.6177083" lon="8.22259"><ele>293.0</ele><time>2026-04-04T13:15:54.101Z</time></trkpt><trkpt lat="44.61784" lon="8.22251"><ele>293.0</ele><time>2026-04-04T13:15:55.107Z</time></trkpt><trkpt lat="44.6179667" lon="8.2224067"><ele>293.0</ele><time>2026-04-04T13:15:56.104Z</time></trkpt><trkpt lat="44.61809" lon="8.222285"><ele>292.0</ele><time>2026-04-04T13:15:57.1Z</time></trkpt><trkpt lat="44.6182117" lon="8.222155"><ele>291.0</ele><time>2026-04-04T13:15:58.103Z</time></trkpt><trkpt lat="44.618335" lon="8.2220233"><ele>290.0</ele><time>2026-04-04T13:15:59.1Z</time></trkpt><trkpt lat="44.6184583" lon="8.2218933"><ele>290.0</ele><time>2026-04-04T13:16:00.102Z</time></trkpt><trkpt lat="44.6185767" lon="8.2217667"><ele>290.0</ele><time>2026-04-04T13:16:01.106Z</time></trkpt><trkpt lat="44.6186983" lon="8.221665"><ele>290.0</ele><time>2026-04-04T13:16:02.105Z</time></trkpt><trkpt lat="44.6188283" lon="8.2215883"><ele>290.0</ele><time>2026-04-04T13:16:03.105Z</time></trkpt><trkpt lat="44.618965" lon="8.2215383"><ele>287.75</ele><time>2026-04-04T13:16:04.103Z</time></trkpt><trkpt lat="44.6191" lon="8.2215083"><ele>285.5</ele><time>2026-04-04T13:16:05.101Z</time></trkpt><trkpt lat="44.619235" lon="8.221515"><ele>283.25</ele><time>2026-04-04T13:16:06.1Z</time></trkpt><trkpt lat="44.6193683" lon="8.22156"><ele>281.0</ele><time>2026-04-04T13:16:07.105Z</time></trkpt><trkpt lat="44.6194867" lon="8.2216467"><ele>279.0</ele><time>2026-04-04T13:16:08.1Z</time></trkpt><trkpt lat="44.61959" lon="8.2217633"><ele>277.0</ele><time>2026-04-04T13:16:09.102Z</time></trkpt><trkpt lat="44.61968" lon="8.2219"><ele>275.0</ele><time>2026-04-04T13:16:10.104Z</time></trkpt><trkpt lat="44.61976" lon="8.222035"><ele>273.0</ele><time>2026-04-04T13:16:11.108Z</time></trkpt><trkpt lat="44.61983" lon="8.2221317"><ele>273.0</ele><time>2026-04-04T13:16:12.098Z</time></trkpt><trkpt lat="44.619895" lon="8.2222133"><ele>273.0</ele><time>2026-04-04T13:16:13.107Z</time></trkpt><trkpt lat="44.6199733" lon="8.2221967"><ele>273.0</ele><time>2026-04-04T13:16:14.098Z</time></trkpt><trkpt lat="44.62005" lon="8.2221467"><ele>273.0</ele><time>2026-04-04T13:16:15.099Z</time></trkpt><trkpt lat="44.620125" lon="8.222075"><ele>273.0</ele><time>2026-04-04T13:16:16.101Z</time></trkpt><trkpt lat="44.620195" lon="8.2219467"><ele>273.0</ele><time>2026-04-04T13:16:17.102Z</time></trkpt><trkpt lat="44.6202733" lon="8.22181"><ele>273.0</ele><time>2026-04-04T13:16:18.102Z</time></trkpt><trkpt lat="44.62036" lon="8.2216767"><ele>273.0</ele><time>2026-04-04T13:16:19.101Z</time></trkpt><trkpt lat="44.6204517" lon="8.2215667"><ele>273.0</ele><time>2026-04-04T13:16:20.1Z</time></trkpt><trkpt lat="44.6205483" lon="8.2214983"><ele>271.5</ele><time>2026-04-04T13:16:21.106Z</time></trkpt><trkpt lat="44.62065" lon="8.2214783"><ele>270.0</ele><time>2026-04-04T13:16:22.098Z</time></trkpt><trkpt lat="44.6207583" lon="8.2215067"><ele>268.5</ele><time>2026-04-04T13:16:23.106Z</time></trkpt><trkpt lat="44.6208717" lon="8.2215633"><ele>267.0</ele><time>2026-04-04T13:16:24.101Z</time></trkpt><trkpt lat="44.62098" lon="8.2216317"><ele>267.0</ele><time>2026-04-04T13:16:25.107Z</time></trkpt><trkpt lat="44.62108" lon="8.2217067"><ele>267.0</ele><time>2026-04-04T13:16:26.107Z</time></trkpt><trkpt lat="44.621165" lon="8.2218033"><ele>267.0</ele><time>2026-04-04T13:16:27.103Z</time></trkpt><trkpt lat="44.6212333" lon="8.2219233"><ele>267.0</ele><time>2026-04-04T13:16:28.101Z</time></trkpt><trkpt lat="44.6212933" lon="8.22206"><ele>267.0</ele><time>2026-04-04T13:16:29.103Z</time></trkpt><trkpt lat="44.6213383" lon="8.222215"><ele>266.25</ele><time>2026-04-04T13:16:30.101Z</time></trkpt><trkpt lat="44.6213933" lon="8.2223683"><ele>265.5</ele><time>2026-04-04T13:16:31.102Z</time></trkpt><trkpt lat="44.62147" lon="8.2225117"><ele>264.75</ele><time>2026-04-04T13:16:32.099Z</time></trkpt><trkpt lat="44.6215667" lon="8.2226467"><ele>264.0</ele><time>2026-04-04T13:16:33.099Z</time></trkpt><trkpt lat="44.621675" lon="8.2227717"><ele>264.0</ele><time>2026-04-04T13:16:34.104Z</time></trkpt><trkpt lat="44.62178" lon="8.2229067"><ele>264.0</ele><time>2026-04-04T13:16:35.102Z</time></trkpt><trkpt lat="44.6218767" lon="8.223055"><ele>264.0</ele><time>2026-04-04T13:16:36.1Z</time></trkpt><trkpt lat="44.6219633" lon="8.2232217"><ele>264.0</ele><time>2026-04-04T13:16:37.101Z</time></trkpt><trkpt lat="44.6220433" lon="8.223395"><ele>263.0</ele><time>2026-04-04T13:16:38.103Z</time></trkpt><trkpt lat="44.6221267" lon="8.2235617"><ele>262.0</ele><time>2026-04-04T13:16:39.101Z</time></trkpt><trkpt lat="44.6222233" lon="8.2237067"><ele>261.0</ele><time>2026-04-04T13:16:40.103Z</time></trkpt><trkpt lat="44.6223283" lon="8.223815"><ele>260.0</ele><time>2026-04-04T13:16:41.103Z</time></trkpt><trkpt lat="44.622445" lon="8.223875"><ele>260.0</ele><time>2026-04-04T13:16:42.103Z</time></trkpt><trkpt lat="44.6225717" lon="8.2239217"><ele>260.0</ele><time>2026-04-04T13:16:43.103Z</time></trkpt><trkpt lat="44.6227033" lon="8.223985"><ele>260.0</ele><time>2026-04-04T13:16:44.102Z</time></trkpt><trkpt lat="44.6228367" lon="8.2240733"><ele>260.0</ele><time>2026-04-04T13:16:45.102Z</time></trkpt><trkpt lat="44.6229783" lon="8.2241717"><ele>257.33333333333337</ele><time>2026-04-04T13:16:46.1Z</time></trkpt><trkpt lat="44.62313" lon="8.2242733"><ele>254.66666666666669</ele><time>2026-04-04T13:16:47.102Z</time></trkpt><trkpt lat="44.6232917" lon="8.22436"><ele>252.0</ele><time>2026-04-04T13:16:48.102Z</time></trkpt><trkpt lat="44.6234667" lon="8.22441"><ele>252.0</ele><time>2026-04-04T13:16:49.112Z</time></trkpt><trkpt lat="44.623635" lon="8.224435"><ele>252.0</ele><time>2026-04-04T13:16:50.104Z</time></trkpt><trkpt lat="44.62378" lon="8.2244467"><ele>252.0</ele><time>2026-04-04T13:16:51.103Z</time></trkpt><trkpt lat="44.6238983" lon="8.2244517"><ele>252.0</ele><time>2026-04-04T13:16:52.098Z</time></trkpt><trkpt lat="44.623995" lon="8.2244717"><ele>248.25</ele><time>2026-04-04T13:16:53.107Z</time></trkpt><trkpt lat="44.6240883" lon="8.2245267"><ele>244.5</ele><time>2026-04-04T13:16:54.106Z</time></trkpt><trkpt lat="44.624175" lon="8.2246433"><ele>240.75</ele><time>2026-04-04T13:16:55.101Z</time></trkpt><trkpt lat="44.6242533" lon="8.224785"><ele>237.0</ele><time>2026-04-04T13:16:56.101Z</time></trkpt><trkpt lat="44.6243183" lon="8.2249633"><ele>237.0</ele><time>2026-04-04T13:16:57.099Z</time></trkpt><trkpt lat="44.62436" lon="8.2251283"><ele>237.0</ele><time>2026-04-04T13:16:58.098Z</time></trkpt><trkpt lat="44.6243767" lon="8.2253017"><ele>237.0</ele><time>2026-04-04T13:16:59.103Z</time></trkpt><trkpt lat="44.6244267" lon="8.2254717"><ele>237.0</ele><time>2026-04-04T13:17:00.105Z</time></trkpt><trkpt lat="44.6244" lon="8.2256833"><ele>237.0</ele><time>2026-04-04T13:17:01.102Z</time></trkpt><trkpt lat="44.62441" lon="8.225895"><ele>237.0</ele><time>2026-04-04T13:17:02.099Z</time></trkpt><trkpt lat="44.6244333" lon="8.2261117"><ele>237.0</ele><time>2026-04-04T13:17:03.101Z</time></trkpt><trkpt lat="44.6244917" lon="8.2263383"><ele>232.66666666666669</ele><time>2026-04-04T13:17:04.1Z</time></trkpt><trkpt lat="44.6245617" lon="8.2265567"><ele>228.33333333333334</ele><time>2026-04-04T13:17:05.101Z</time></trkpt><trkpt lat="44.62465" lon="8.226775"><ele>224.0</ele><time>2026-04-04T13:17:06.105Z</time></trkpt><trkpt lat="44.6247467" lon="8.2270017"><ele>224.0</ele><time>2026-04-04T13:17:07.105Z</time></trkpt><trkpt lat="44.6248433" lon="8.2272317"><ele>224.0</ele><time>2026-04-04T13:17:08.103Z</time></trkpt><trkpt lat="44.6249367" lon="8.2274633"><ele>224.0</ele><time>2026-04-04T13:17:09.104Z</time></trkpt><trkpt lat="44.6250317" lon="8.2276967"><ele>226.33333333333334</ele><time>2026-04-04T13:17:10.105Z</time></trkpt><trkpt lat="44.625125" lon="8.22792"><ele>228.66666666666669</ele><time>2026-04-04T13:17:11.103Z</time></trkpt><trkpt lat="44.6252133" lon="8.2281233"><ele>231.0</ele><time>2026-04-04T13:17:12.104Z</time></trkpt><trkpt lat="44.6252967" lon="8.2282883"><ele>231.5</ele><time>2026-04-04T13:17:13.106Z</time></trkpt><trkpt lat="44.6254" lon="8.2284183"><ele>232.0</ele><time>2026-04-04T13:17:14.099Z</time></trkpt><trkpt lat="44.62551" lon="8.2285017"><ele>232.5</ele><time>2026-04-04T13:17:15.102Z</time></trkpt><trkpt lat="44.62564" lon="8.228545"><ele>233.0</ele><time>2026-04-04T13:17:16.103Z</time></trkpt><trkpt lat="44.6257717" lon="8.2285633"><ele>233.0</ele><time>2026-04-04T13:17:17.105Z</time></trkpt><trkpt lat="44.6259083" lon="8.2285733"><ele>233.0</ele><time>2026-04-04T13:17:18.104Z</time></trkpt><trkpt lat="44.62604" lon="8.2286067"><ele>233.0</ele><time>2026-04-04T13:17:19.102Z</time></trkpt><trkpt lat="44.6261683" lon="8.2286633"><ele>233.0</ele><time>2026-04-04T13:17:20.108Z</time></trkpt><trkpt lat="44.6262933" lon="8.2287367"><ele>231.5</ele><time>2026-04-04T13:17:21.099Z</time></trkpt><trkpt lat="44.6264167" lon="8.2288167"><ele>230.0</ele><time>2026-04-04T13:17:22.099Z</time></trkpt><trkpt lat="44.6265333" lon="8.2288883"><ele>228.5</ele><time>2026-04-04T13:17:23.098Z</time></trkpt><trkpt lat="44.6266417" lon="8.2289567"><ele>227.0</ele><time>2026-04-04T13:17:24.099Z</time></trkpt><trkpt lat="44.6267533" lon="8.2290233"><ele>228.75</ele><time>2026-04-04T13:17:25.101Z</time></trkpt><trkpt lat="44.626865" lon="8.2291067"><ele>230.5</ele><time>2026-04-04T13:17:26.102Z</time></trkpt><trkpt lat="44.62698" lon="8.2292033"><ele>232.25</ele><time>2026-04-04T13:17:27.102Z</time></trkpt><trkpt lat="44.6271033" lon="8.2293117"><ele>234.0</ele><time>2026-04-04T13:17:28.102Z</time></trkpt><trkpt lat="44.6272367" lon="8.229425"><ele>234.0</ele><time>2026-04-04T13:17:29.102Z</time></trkpt><trkpt lat="44.6273733" lon="8.229545"><ele>234.0</ele><time>2026-04-04T13:17:30.103Z</time></trkpt><trkpt lat="44.62751" lon="8.2296817"><ele>234.0</ele><time>2026-04-04T13:17:31.104Z</time></trkpt><trkpt lat="44.62764" lon="8.2298167"><ele>233.66666666666669</ele><time>2026-04-04T13:17:32.104Z</time></trkpt><trkpt lat="44.6277633" lon="8.2299667"><ele>233.33333333333334</ele><time>2026-04-04T13:17:33.101Z</time></trkpt><trkpt lat="44.627885" lon="8.2301233"><ele>233.0</ele><time>2026-04-04T13:17:34.102Z</time></trkpt><trkpt lat="44.6280033" lon="8.2302983"><ele>233.0</ele><time>2026-04-04T13:17:35.105Z</time></trkpt><trkpt lat="44.6281217" lon="8.23048"><ele>233.0</ele><time>2026-04-04T13:17:36.11Z</time></trkpt><trkpt lat="44.6282367" lon="8.2306717"><ele>233.0</ele><time>2026-04-04T13:17:37.108Z</time></trkpt><trkpt lat="44.628355" lon="8.2308717"><ele>232.33333333333334</ele><time>2026-04-04T13:17:38.102Z</time></trkpt><trkpt lat="44.6284683" lon="8.23107"><ele>231.66666666666669</ele><time>2026-04-04T13:17:39.103Z</time></trkpt><trkpt lat="44.6285833" lon="8.23126"><ele>231.0</ele><time>2026-04-04T13:17:40.097Z</time></trkpt><trkpt lat="44.6286967" lon="8.2314433"><ele>231.33333333333331</ele><time>2026-04-04T13:17:41.104Z</time></trkpt><trkpt lat="44.628805" lon="8.2316067"><ele>231.66666666666666</ele><time>2026-04-04T13:17:42.098Z</time></trkpt><trkpt lat="44.6289067" lon="8.2317617"><ele>232.0</ele><time>2026-04-04T13:17:43.105Z</time></trkpt><trkpt lat="44.6290033" lon="8.2319083"><ele>232.0</ele><time>2026-04-04T13:17:44.099Z</time></trkpt><trkpt lat="44.6290883" lon="8.2320533"><ele>232.0</ele><time>2026-04-04T13:17:45.101Z</time></trkpt><trkpt lat="44.6291683" lon="8.232195"><ele>232.0</ele><time>2026-04-04T13:17:46.101Z</time></trkpt><trkpt lat="44.629255" lon="8.2323333"><ele>232.0</ele><time>2026-04-04T13:17:47.102Z</time></trkpt><trkpt lat="44.6293533" lon="8.232455"><ele>233.0</ele><time>2026-04-04T13:17:48.102Z</time></trkpt><trkpt lat="44.629455" lon="8.232565"><ele>234.0</ele><time>2026-04-04T13:17:49.105Z</time></trkpt><trkpt lat="44.6295517" lon="8.2326683"><ele>235.0</ele><time>2026-04-04T13:17:50.1Z</time></trkpt><trkpt lat="44.6296383" lon="8.2327883"><ele>236.0</ele><time>2026-04-04T13:17:51.101Z</time></trkpt><trkpt lat="44.6297117" lon="8.2329367"><ele>234.75</ele><time>2026-04-04T13:17:52.105Z</time></trkpt><trkpt lat="44.62978" lon="8.233105"><ele>233.5</ele><time>2026-04-04T13:17:53.105Z</time></trkpt><trkpt lat="44.62985" lon="8.23328"><ele>232.25</ele><time>2026-04-04T13:17:54.103Z</time></trkpt><trkpt lat="44.629925" lon="8.2334583"><ele>231.0</ele><time>2026-04-04T13:17:55.104Z</time></trkpt><trkpt lat="44.6300033" lon="8.2336333"><ele>231.0</ele><time>2026-04-04T13:17:56.103Z</time></trkpt><trkpt lat="44.6300867" lon="8.2338117"><ele>231.0</ele><time>2026-04-04T13:17:57.103Z</time></trkpt><trkpt lat="44.6301717" lon="8.2339933"><ele>231.0</ele><time>2026-04-04T13:17:58.101Z</time></trkpt><trkpt lat="44.63025" lon="8.2341717"><ele>229.66666666666669</ele><time>2026-04-04T13:17:59.107Z</time></trkpt><trkpt lat="44.6303317" lon="8.23435"><ele>228.33333333333334</ele><time>2026-04-04T13:18:00.101Z</time></trkpt><trkpt lat="44.6304133" lon="8.2345267"><ele>227.0</ele><time>2026-04-04T13:18:01.11Z</time></trkpt><trkpt lat="44.6304983" lon="8.2347"><ele>228.0</ele><time>2026-04-04T13:18:02.101Z</time></trkpt><trkpt lat="44.6305867" lon="8.2348733"><ele>229.0</ele><time>2026-04-04T13:18:03.101Z</time></trkpt><trkpt lat="44.6306683" lon="8.2350417"><ele>230.0</ele><time>2026-04-04T13:18:04.106Z</time></trkpt><trkpt lat="44.6307417" lon="8.2351933"><ele>231.0</ele><time>2026-04-04T13:18:05.104Z</time></trkpt><trkpt lat="44.63081" lon="8.2353083"><ele>231.0</ele><time>2026-04-04T13:18:06.103Z</time></trkpt><trkpt lat="44.6308917" lon="8.2353867"><ele>231.00000000000003</ele><time>2026-04-04T13:18:07.103Z</time></trkpt><trkpt lat="44.6309817" lon="8.23541"><ele>231.00000000000003</ele><time>2026-04-04T13:18:08.101Z</time></trkpt><trkpt lat="44.631075" lon="8.2354033"><ele>231.0</ele><time>2026-04-04T13:18:09.101Z</time></trkpt><trkpt lat="44.6311783" lon="8.2353667"><ele>231.0</ele><time>2026-04-04T13:18:10.101Z</time></trkpt><trkpt lat="44.6313083" lon="8.2353"><ele>229.5</ele><time>2026-04-04T13:18:11.102Z</time></trkpt><trkpt lat="44.63144" lon="8.2352283"><ele>228.0</ele><time>2026-04-04T13:18:12.106Z</time></trkpt><trkpt lat="44.6315717" lon="8.2351633"><ele>226.5</ele><time>2026-04-04T13:18:13.104Z</time></trkpt><trkpt lat="44.6316967" lon="8.235105"><ele>225.0</ele><time>2026-04-04T13:18:14.106Z</time></trkpt><trkpt lat="44.6318167" lon="8.2350483"><ele>225.0</ele><time>2026-04-04T13:18:15.1Z</time></trkpt><trkpt lat="44.63193" lon="8.234995"><ele>225.0</ele><time>2026-04-04T13:18:16.105Z</time></trkpt><trkpt lat="44.6320383" lon="8.2349417"><ele>225.0</ele><time>2026-04-04T13:18:17.104Z</time></trkpt><trkpt lat="44.6321433" lon="8.23489"><ele>225.0</ele><time>2026-04-04T13:18:18.101Z</time></trkpt><trkpt lat="44.632245" lon="8.2348433"><ele>224.4</ele><time>2026-04-04T13:18:19.105Z</time></trkpt><trkpt lat="44.6323483" lon="8.234805"><ele>223.8</ele><time>2026-04-04T13:18:20.101Z</time></trkpt><trkpt lat="44.63245" lon="8.2347683"><ele>223.2</ele><time>2026-04-04T13:18:21.103Z</time></trkpt><trkpt lat="44.6325483" lon="8.23472"><ele>222.6</ele><time>2026-04-04T13:18:22.099Z</time></trkpt><trkpt lat="44.6326433" lon="8.2346583"><ele>222.0</ele><time>2026-04-04T13:18:23.101Z</time></trkpt><trkpt lat="44.632735" lon="8.2345767"><ele>221.39999999999998</ele><time>2026-04-04T13:18:24.1Z</time></trkpt><trkpt lat="44.6328083" lon="8.23447"><ele>220.79999999999998</ele><time>2026-04-04T13:18:25.107Z</time></trkpt><trkpt lat="44.6328717" lon="8.2343533"><ele>220.2</ele><time>2026-04-04T13:18:26.097Z</time></trkpt><trkpt lat="44.632925" lon="8.2342283"><ele>219.6</ele><time>2026-04-04T13:18:27.097Z</time></trkpt><trkpt lat="44.632975" lon="8.2341"><ele>219.0</ele><time>2026-04-04T13:18:28.099Z</time></trkpt><trkpt lat="44.633025" lon="8.2339717"><ele>219.2</ele><time>2026-04-04T13:18:29.099Z</time></trkpt><trkpt lat="44.633075" lon="8.23384"><ele>219.39999999999998</ele><time>2026-04-04T13:18:30.105Z</time></trkpt><trkpt lat="44.6331217" lon="8.2337083"><ele>219.6</ele><time>2026-04-04T13:18:31.101Z</time></trkpt><trkpt lat="44.6331667" lon="8.2335767"><ele>219.8</ele><time>2026-04-04T13:18:32.1Z</time></trkpt><trkpt lat="44.6332117" lon="8.233445"><ele>220.0</ele><time>2026-04-04T13:18:33.103Z</time></trkpt><trkpt lat="44.6332567" lon="8.2333133"><ele>220.0</ele><time>2026-04-04T13:18:34.101Z</time></trkpt><trkpt lat="44.6332983" lon="8.2331783"><ele>220.0</ele><time>2026-04-04T13:18:35.102Z</time></trkpt><trkpt lat="44.6333383" lon="8.233045"><ele>220.0</ele><time>2026-04-04T13:18:36.105Z</time></trkpt><trkpt lat="44.6333783" lon="8.2329067"><ele>220.0</ele><time>2026-04-04T13:18:37.102Z</time></trkpt><trkpt lat="44.633425" lon="8.2327667"><ele>220.0</ele><time>2026-04-04T13:18:38.101Z</time></trkpt><trkpt lat="44.63347" lon="8.2326183"><ele>220.0</ele><time>2026-04-04T13:18:39.1Z</time></trkpt><trkpt lat="44.633515" lon="8.2324683"><ele>220.0</ele><time>2026-04-04T13:18:40.102Z</time></trkpt><trkpt lat="44.633565" lon="8.2323167"><ele>220.0</ele><time>2026-04-04T13:18:41.109Z</time></trkpt><trkpt lat="44.633615" lon="8.23216"><ele>220.0</ele><time>2026-04-04T13:18:42.101Z</time></trkpt><trkpt lat="44.6336667" lon="8.2320033"><ele>220.0</ele><time>2026-04-04T13:18:43.108Z</time></trkpt><trkpt lat="44.6337167" lon="8.2318433"><ele>220.0</ele><time>2026-04-04T13:18:44.102Z</time></trkpt><trkpt lat="44.63376" lon="8.2316817"><ele>220.0</ele><time>2026-04-04T13:18:45.101Z</time></trkpt><trkpt lat="44.6337967" lon="8.2315167"><ele>220.0</ele><time>2026-04-04T13:18:46.101Z</time></trkpt><trkpt lat="44.633825" lon="8.2313533"><ele>220.0</ele><time>2026-04-04T13:18:47.104Z</time></trkpt><trkpt lat="44.63385" lon="8.2311967"><ele>220.0</ele><time>2026-04-04T13:18:48.103Z</time></trkpt><trkpt lat="44.6338783" lon="8.231055"><ele>220.0</ele><time>2026-04-04T13:18:49.102Z</time></trkpt><trkpt lat="44.6339183" lon="8.2309333"><ele>220.0</ele><time>2026-04-04T13:18:50.105Z</time></trkpt><trkpt lat="44.6339683" lon="8.2308267"><ele>220.0</ele><time>2026-04-04T13:18:51.103Z</time></trkpt><trkpt lat="44.6340367" lon="8.2307333"><ele>220.0</ele><time>2026-04-04T13:18:52.107Z</time></trkpt><trkpt lat="44.6341167" lon="8.23065"><ele>220.0</ele><time>2026-04-04T13:18:53.102Z</time></trkpt><trkpt lat="44.6342067" lon="8.2305617"><ele>220.0</ele><time>2026-04-04T13:18:54.1Z</time></trkpt><trkpt lat="44.6343033" lon="8.2304667"><ele>220.0</ele><time>2026-04-04T13:18:55.101Z</time></trkpt><trkpt lat="44.63441" lon="8.2303767"><ele>219.25</ele><time>2026-04-04T13:18:56.102Z</time></trkpt><trkpt lat="44.63452" lon="8.2302883"><ele>218.5</ele><time>2026-04-04T13:18:57.106Z</time></trkpt><trkpt lat="44.634635" lon="8.230205"><ele>217.75</ele><time>2026-04-04T13:18:58.104Z</time></trkpt><trkpt lat="44.6347433" lon="8.2301117"><ele>217.0</ele><time>2026-04-04T13:18:59.104Z</time></trkpt><trkpt lat="44.6348533" lon="8.2300317"><ele>217.0</ele><time>2026-04-04T13:19:00.105Z</time></trkpt><trkpt lat="44.6349583" lon="8.2299583"><ele>217.0</ele><time>2026-04-04T13:19:01.105Z</time></trkpt><trkpt lat="44.6350617" lon="8.2298867"><ele>217.0</ele><time>2026-04-04T13:19:02.113Z</time></trkpt><trkpt lat="44.6351533" lon="8.229805"><ele>217.0</ele><time>2026-04-04T13:19:03.103Z</time></trkpt><trkpt lat="44.6352283" lon="8.2297017"><ele>217.0</ele><time>2026-04-04T13:19:04.106Z</time></trkpt><trkpt lat="44.6352983" lon="8.22958"><ele>217.25</ele><time>2026-04-04T13:19:05.106Z</time></trkpt><trkpt lat="44.6353633" lon="8.2294517"><ele>217.5</ele><time>2026-04-04T13:19:06.101Z</time></trkpt><trkpt lat="44.6354333" lon="8.22932"><ele>217.75</ele><time>2026-04-04T13:19:07.103Z</time></trkpt><trkpt lat="44.635505" lon="8.2291867"><ele>218.0</ele><time>2026-04-04T13:19:08.099Z</time></trkpt><trkpt lat="44.6355717" lon="8.22906"><ele>218.8</ele><time>2026-04-04T13:19:09.106Z</time></trkpt><trkpt lat="44.63564" lon="8.2289333"><ele>219.60000000000002</ele><time>2026-04-04T13:19:10.106Z</time></trkpt><trkpt lat="44.6357067" lon="8.22881"><ele>220.39999999999998</ele><time>2026-04-04T13:19:11.103Z</time></trkpt><trkpt lat="44.6357717" lon="8.2286883"><ele>221.2</ele><time>2026-04-04T13:19:12.105Z</time></trkpt><trkpt lat="44.6358333" lon="8.2285783"><ele>222.0</ele><time>2026-04-04T13:19:13.1Z</time></trkpt><trkpt lat="44.6358883" lon="8.22849"><ele>222.0</ele><time>2026-04-04T13:19:14.1Z</time></trkpt><trkpt lat="44.6359417" lon="8.228425"><ele>222.0</ele><time>2026-04-04T13:19:15.1Z</time></trkpt><trkpt lat="44.6360183" lon="8.2283333"><ele>222.0</ele><time>2026-04-04T13:19:17.1Z</time></trkpt><trkpt lat="44.6361083" lon="8.2283233"><ele>222.0</ele><time>2026-04-04T13:19:20.104Z</time></trkpt><trkpt lat="44.6362167" lon="8.228415"><ele>222.0</ele><time>2026-04-04T13:19:22.105Z</time></trkpt><trkpt lat="44.6362867" lon="8.2284883"><ele>222.8</ele><time>2026-04-04T13:19:23.104Z</time></trkpt><trkpt lat="44.636365" lon="8.2285617"><ele>223.6</ele><time>2026-04-04T13:19:24.098Z</time></trkpt><trkpt lat="44.6364567" lon="8.2286267"><ele>224.40000000000003</ele><time>2026-04-04T13:19:25.101Z</time></trkpt><trkpt lat="44.6365483" lon="8.228685"><ele>225.20000000000002</ele><time>2026-04-04T13:19:26.105Z</time></trkpt><trkpt lat="44.636635" lon="8.228755"><ele>226.0</ele><time>2026-04-04T13:19:27.105Z</time></trkpt><trkpt lat="44.63672" lon="8.22882"><ele>226.0</ele><time>2026-04-04T13:19:28.103Z</time></trkpt><trkpt lat="44.6368033" lon="8.2288733"><ele>226.00000000000003</ele><time>2026-04-04T13:19:29.1Z</time></trkpt><trkpt lat="44.6368783" lon="8.2289383"><ele>226.00000000000003</ele><time>2026-04-04T13:19:30.103Z</time></trkpt><trkpt lat="44.6369517" lon="8.2289983"><ele>226.0</ele><time>2026-04-04T13:19:31.108Z</time></trkpt><trkpt lat="44.63702" lon="8.2290867"><ele>226.0</ele><time>2026-04-04T13:19:32.103Z</time></trkpt><trkpt lat="44.63709" lon="8.2291783"><ele>227.8</ele><time>2026-04-04T13:19:33.103Z</time></trkpt><trkpt lat="44.6371667" lon="8.2292717"><ele>229.60000000000002</ele><time>2026-04-04T13:19:34.102Z</time></trkpt><trkpt lat="44.6372433" lon="8.2293667"><ele>231.4</ele><time>2026-04-04T13:19:35.099Z</time></trkpt><trkpt lat="44.6373133" lon="8.2294783"><ele>233.2</ele><time>2026-04-04T13:19:36.106Z</time></trkpt><trkpt lat="44.6373633" lon="8.2296133"><ele>235.0</ele><time>2026-04-04T13:19:37.105Z</time></trkpt><trkpt lat="44.6373967" lon="8.22976"><ele>234.25</ele><time>2026-04-04T13:19:38.103Z</time></trkpt><trkpt lat="44.637415" lon="8.2299167"><ele>233.5</ele><time>2026-04-04T13:19:39.103Z</time></trkpt><trkpt lat="44.6374367" lon="8.2300767"><ele>232.75</ele><time>2026-04-04T13:19:40.103Z</time></trkpt><trkpt lat="44.6374633" lon="8.2302417"><ele>232.0</ele><time>2026-04-04T13:19:41.11Z</time></trkpt><trkpt lat="44.6374833" lon="8.2304117"><ele>232.0</ele><time>2026-04-04T13:19:42.098Z</time></trkpt><trkpt lat="44.6375033" lon="8.230585"><ele>232.0</ele><time>2026-04-04T13:19:43.103Z</time></trkpt><trkpt lat="44.6375233" lon="8.2307633"><ele>232.0</ele><time>2026-04-04T13:19:44.101Z</time></trkpt><trkpt lat="44.6375383" lon="8.230945"><ele>232.0</ele><time>2026-04-04T13:19:45.111Z</time></trkpt><trkpt lat="44.6375583" lon="8.23112"><ele>231.25</ele><time>2026-04-04T13:19:46.101Z</time></trkpt><trkpt lat="44.637575" lon="8.23129"><ele>230.5</ele><time>2026-04-04T13:19:47.101Z</time></trkpt><trkpt lat="44.6375783" lon="8.23147"><ele>229.75</ele><time>2026-04-04T13:19:48.104Z</time></trkpt><trkpt lat="44.63757" lon="8.231645"><ele>229.0</ele><time>2026-04-04T13:19:49.105Z</time></trkpt><trkpt lat="44.637535" lon="8.2318217"><ele>228.25</ele><time>2026-04-04T13:19:50.099Z</time></trkpt><trkpt lat="44.6374817" lon="8.2320017"><ele>227.5</ele><time>2026-04-04T13:19:51.103Z</time></trkpt><trkpt lat="44.6374317" lon="8.23218"><ele>226.75</ele><time>2026-04-04T13:19:52.103Z</time></trkpt><trkpt lat="44.6373733" lon="8.2323633"><ele>226.0</ele><time>2026-04-04T13:19:53.102Z</time></trkpt><trkpt lat="44.637295" lon="8.2325433"><ele>226.0</ele><time>2026-04-04T13:19:54.102Z</time></trkpt><trkpt lat="44.6372217" lon="8.2327283"><ele>226.0</ele><time>2026-04-04T13:19:55.104Z</time></trkpt><trkpt lat="44.63716" lon="8.2329233"><ele>226.0</ele><time>2026-04-04T13:19:56.103Z</time></trkpt><trkpt lat="44.63711" lon="8.2331267"><ele>230.66666666666666</ele><time>2026-04-04T13:19:57.104Z</time></trkpt><trkpt lat="44.6370617" lon="8.2333417"><ele>235.33333333333331</ele><time>2026-04-04T13:19:58.103Z</time></trkpt><trkpt lat="44.63702" lon="8.2335633"><ele>240.0</ele><time>2026-04-04T13:19:59.1Z</time></trkpt><trkpt lat="44.636975" lon="8.23379"><ele>232.33333333333331</ele><time>2026-04-04T13:20:00.104Z</time></trkpt><trkpt lat="44.6369267" lon="8.2340233"><ele>224.66666666666666</ele><time>2026-04-04T13:20:01.099Z</time></trkpt><trkpt lat="44.636875" lon="8.234255"><ele>217.0</ele><time>2026-04-04T13:20:02.108Z</time></trkpt><trkpt lat="44.636825" lon="8.2344867"><ele>217.0</ele><time>2026-04-04T13:20:03.1Z</time></trkpt><trkpt lat="44.636775" lon="8.234715"><ele>217.0</ele><time>2026-04-04T13:20:04.101Z</time></trkpt><trkpt lat="44.6367233" lon="8.2349417"><ele>217.0</ele><time>2026-04-04T13:20:05.105Z</time></trkpt><trkpt lat="44.636665" lon="8.2351733"><ele>218.66666666666666</ele><time>2026-04-04T13:20:06.108Z</time></trkpt><trkpt lat="44.636605" lon="8.2354083"><ele>220.33333333333331</ele><time>2026-04-04T13:20:07.105Z</time></trkpt><trkpt lat="44.6365517" lon="8.2356467"><ele>222.0</ele><time>2026-04-04T13:20:08.103Z</time></trkpt><trkpt lat="44.6364967" lon="8.2358833"><ele>225.66666666666669</ele><time>2026-04-04T13:20:09.111Z</time></trkpt><trkpt lat="44.6364467" lon="8.2361217"><ele>229.33333333333334</ele><time>2026-04-04T13:20:10.107Z</time></trkpt><trkpt lat="44.6363967" lon="8.2363617"><ele>233.0</ele><time>2026-04-04T13:20:11.106Z</time></trkpt><trkpt lat="44.6363383" lon="8.2365983"><ele>233.66666666666669</ele><time>2026-04-04T13:20:12.1Z</time></trkpt><trkpt lat="44.636285" lon="8.2368333"><ele>234.33333333333331</ele><time>2026-04-04T13:20:13.107Z</time></trkpt><trkpt lat="44.63624" lon="8.23706"><ele>235.0</ele><time>2026-04-04T13:20:14.103Z</time></trkpt><trkpt lat="44.6362033" lon="8.2372717"><ele>235.0</ele><time>2026-04-04T13:20:15.1Z</time></trkpt><trkpt lat="44.6361783" lon="8.2374783"><ele>235.0</ele><time>2026-04-04T13:20:16.104Z</time></trkpt><trkpt lat="44.6361683" lon="8.2376817"><ele>235.0</ele><time>2026-04-04T13:20:17.103Z</time></trkpt><trkpt lat="44.6361717" lon="8.2378883"><ele>235.0</ele><time>2026-04-04T13:20:18.097Z</time></trkpt><trkpt lat="44.6361783" lon="8.2380867"><ele>234.2</ele><time>2026-04-04T13:20:19.107Z</time></trkpt><trkpt lat="44.6361867" lon="8.2382667"><ele>233.4</ele><time>2026-04-04T13:20:20.103Z</time></trkpt><trkpt lat="44.6361917" lon="8.2384217"><ele>232.60000000000002</ele><time>2026-04-04T13:20:21.101Z</time></trkpt><trkpt lat="44.636195" lon="8.2385533"><ele>231.8</ele><time>2026-04-04T13:20:22.101Z</time></trkpt><trkpt lat="44.6362033" lon="8.2386633"><ele>231.0</ele><time>2026-04-04T13:20:23.106Z</time></trkpt><trkpt lat="44.636215" lon="8.2387533"><ele>231.0</ele><time>2026-04-04T13:20:24.106Z</time></trkpt><trkpt lat="44.6362733" lon="8.2388967"><ele>231.00000000000003</ele><time>2026-04-04T13:20:26.104Z</time></trkpt><trkpt lat="44.63634" lon="8.2389483"><ele>231.00000000000003</ele><time>2026-04-04T13:20:27.1Z</time></trkpt><trkpt lat="44.6364183" lon="8.2390133"><ele>231.0</ele><time>2026-04-04T13:20:28.103Z</time></trkpt><trkpt lat="44.63651" lon="8.2390967"><ele>231.0</ele><time>2026-04-04T13:20:29.1Z</time></trkpt><trkpt lat="44.6366083" lon="8.2392033"><ele>229.75</ele><time>2026-04-04T13:20:30.104Z</time></trkpt><trkpt lat="44.6367067" lon="8.2393167"><ele>228.5</ele><time>2026-04-04T13:20:31.101Z</time></trkpt><trkpt lat="44.6368083" lon="8.2394317"><ele>227.25</ele><time>2026-04-04T13:20:32.106Z</time></trkpt><trkpt lat="44.6369167" lon="8.2395433"><ele>226.0</ele><time>2026-04-04T13:20:33.101Z</time></trkpt><trkpt lat="44.63703" lon="8.2396517"><ele>227.33333333333331</ele><time>2026-04-04T13:20:34.109Z</time></trkpt><trkpt lat="44.6371533" lon="8.2397567"><ele>228.66666666666669</ele><time>2026-04-04T13:20:35.109Z</time></trkpt><trkpt lat="44.6372833" lon="8.2398683"><ele>230.0</ele><time>2026-04-04T13:20:36.102Z</time></trkpt><trkpt lat="44.6374233" lon="8.2399917"><ele>230.0</ele><time>2026-04-04T13:20:37.101Z</time></trkpt><trkpt lat="44.6375633" lon="8.240115"><ele>230.0</ele><time>2026-04-04T13:20:38.1Z</time></trkpt><trkpt lat="44.6376883" lon="8.240225"><ele>230.0</ele><time>2026-04-04T13:20:39.097Z</time></trkpt><trkpt lat="44.637795" lon="8.240315"><ele>230.0</ele><time>2026-04-04T13:20:40.104Z</time></trkpt><trkpt lat="44.6378833" lon="8.240375"><ele>231.4</ele><time>2026-04-04T13:20:41.104Z</time></trkpt><trkpt lat="44.637965" lon="8.2404133"><ele>232.8</ele><time>2026-04-04T13:20:42.108Z</time></trkpt><trkpt lat="44.63803" lon="8.24039"><ele>234.2</ele><time>2026-04-04T13:20:43.103Z</time></trkpt><trkpt lat="44.63808" lon="8.2402417"><ele>235.6</ele><time>2026-04-04T13:20:45.099Z</time></trkpt><trkpt lat="44.6379933" lon="8.2400733"><ele>237.0</ele><time>2026-04-04T13:20:47.101Z</time></trkpt><trkpt lat="44.6379217" lon="8.2399783"><ele>237.0</ele><time>2026-04-04T13:20:48.102Z</time></trkpt><trkpt lat="44.6378717" lon="8.239865"><ele>237.0</ele><time>2026-04-04T13:20:49.101Z</time></trkpt><trkpt lat="44.6378283" lon="8.23974"><ele>237.0</ele><time>2026-04-04T13:20:50.101Z</time></trkpt><trkpt lat="44.6378033" lon="8.2396083"><ele>237.0</ele><time>2026-04-04T13:20:51.103Z</time></trkpt><trkpt lat="44.637805" lon="8.2394667"><ele>237.0</ele><time>2026-04-04T13:20:52.103Z</time></trkpt><trkpt lat="44.6378233" lon="8.2393233"><ele>239.5</ele><time>2026-04-04T13:20:53.103Z</time></trkpt><trkpt lat="44.6378483" lon="8.2391633"><ele>242.0</ele><time>2026-04-04T13:20:54.101Z</time></trkpt><trkpt lat="44.6378767" lon="8.2389867"><ele>244.5</ele><time>2026-04-04T13:20:55.104Z</time></trkpt><trkpt lat="44.6379083" lon="8.2388"><ele>247.0</ele><time>2026-04-04T13:20:56.105Z</time></trkpt><trkpt lat="44.6379417" lon="8.2386117"><ele>249.0</ele><time>2026-04-04T13:20:57.102Z</time></trkpt><trkpt lat="44.6379767" lon="8.2384267"><ele>251.0</ele><time>2026-04-04T13:20:58.107Z</time></trkpt><trkpt lat="44.63801" lon="8.23825"><ele>253.0</ele><time>2026-04-04T13:20:59.104Z</time></trkpt><trkpt lat="44.638015" lon="8.23808"><ele>255.0</ele><time>2026-04-04T13:21:00.117Z</time></trkpt><trkpt lat="44.6379933" lon="8.237925"><ele>253.75</ele><time>2026-04-04T13:21:01.108Z</time></trkpt><trkpt lat="44.6379467" lon="8.2377767"><ele>252.5</ele><time>2026-04-04T13:21:02.105Z</time></trkpt><trkpt lat="44.63788" lon="8.2376333"><ele>251.25</ele><time>2026-04-04T13:21:03.1Z</time></trkpt><trkpt lat="44.6378017" lon="8.23748"><ele>250.0</ele><time>2026-04-04T13:21:04.099Z</time></trkpt><trkpt lat="44.6377217" lon="8.2373167"><ele>252.75</ele><time>2026-04-04T13:21:05.108Z</time></trkpt><trkpt lat="44.63764" lon="8.23715"><ele>255.5</ele><time>2026-04-04T13:21:06.099Z</time></trkpt><trkpt lat="44.6375533" lon="8.2369917"><ele>258.25</ele><time>2026-04-04T13:21:07.102Z</time></trkpt><trkpt lat="44.637475" lon="8.2368483"><ele>261.0</ele><time>2026-04-04T13:21:08.104Z</time></trkpt><trkpt lat="44.63741" lon="8.2367133"><ele>261.0</ele><time>2026-04-04T13:21:09.102Z</time></trkpt><trkpt lat="44.637365" lon="8.2365783"><ele>261.0</ele><time>2026-04-04T13:21:10.101Z</time></trkpt><trkpt lat="44.6373383" lon="8.2364367"><ele>261.0</ele><time>2026-04-04T13:21:11.103Z</time></trkpt><trkpt lat="44.6373217" lon="8.23629"><ele>261.0</ele><time>2026-04-04T13:21:12.101Z</time></trkpt><trkpt lat="44.6373" lon="8.23614"><ele>261.0</ele><time>2026-04-04T13:21:13.102Z</time></trkpt><trkpt lat="44.63727" lon="8.2359967"><ele>261.2</ele><time>2026-04-04T13:21:14.102Z</time></trkpt><trkpt lat="44.6372467" lon="8.2358667"><ele>261.40000000000003</ele><time>2026-04-04T13:21:15.101Z</time></trkpt><trkpt lat="44.6372367" lon="8.23575"><ele>261.6</ele><time>2026-04-04T13:21:16.103Z</time></trkpt><trkpt lat="44.6372733" lon="8.23567"><ele>261.8</ele><time>2026-04-04T13:21:17.112Z</time></trkpt><trkpt lat="44.6373833" lon="8.2356083"><ele>262.0</ele><time>2026-04-04T13:21:19.103Z</time></trkpt><trkpt lat="44.6374767" lon="8.235735"><ele>262.8333333333333</ele><time>2026-04-04T13:21:21.109Z</time></trkpt><trkpt lat="44.6375" lon="8.2358367"><ele>263.66666666666663</ele><time>2026-04-04T13:21:22.103Z</time></trkpt><trkpt lat="44.6375017" lon="8.2359517"><ele>264.5</ele><time>2026-04-04T13:21:23.104Z</time></trkpt><trkpt lat="44.6374967" lon="8.2360783"><ele>265.3333333333333</ele><time>2026-04-04T13:21:24.104Z</time></trkpt><trkpt lat="44.6375033" lon="8.2361983"><ele>266.1666666666667</ele><time>2026-04-04T13:21:25.105Z</time></trkpt><trkpt lat="44.6375283" lon="8.2363183"><ele>267.0</ele><time>2026-04-04T13:21:26.107Z</time></trkpt><trkpt lat="44.6375733" lon="8.2364283"><ele>265.8</ele><time>2026-04-04T13:21:27.103Z</time></trkpt><trkpt lat="44.6376433" lon="8.2365167"><ele>264.6</ele><time>2026-04-04T13:21:28.1Z</time></trkpt><trkpt lat="44.6377483" lon="8.2365533"><ele>263.40000000000003</ele><time>2026-04-04T13:21:29.099Z</time></trkpt><trkpt lat="44.637865" lon="8.23654"><ele>262.2</ele><time>2026-04-04T13:21:30.098Z</time></trkpt><trkpt lat="44.6379733" lon="8.2365017"><ele>261.0</ele><time>2026-04-04T13:21:31.106Z</time></trkpt><trkpt lat="44.6380767" lon="8.2364267"><ele>266.25</ele><time>2026-04-04T13:21:32.101Z</time></trkpt><trkpt lat="44.6381783" lon="8.236355"><ele>271.5</ele><time>2026-04-04T13:21:33.101Z</time></trkpt><trkpt lat="44.6382883" lon="8.23631"><ele>276.75</ele><time>2026-04-04T13:21:34.1Z</time></trkpt><trkpt lat="44.6384017" lon="8.2363067"><ele>282.0</ele><time>2026-04-04T13:21:35.101Z</time></trkpt><trkpt lat="44.638515" lon="8.2363333"><ele>282.0</ele><time>2026-04-04T13:21:36.101Z</time></trkpt><trkpt lat="44.63863" lon="8.236405"><ele>282.0</ele><time>2026-04-04T13:21:37.102Z</time></trkpt><trkpt lat="44.638745" lon="8.236495"><ele>282.0</ele><time>2026-04-04T13:21:38.102Z</time></trkpt><trkpt lat="44.6388633" lon="8.2365917"><ele>282.0</ele><time>2026-04-04T13:21:39.104Z</time></trkpt><trkpt lat="44.6389817" lon="8.2366783"><ele>281.6</ele><time>2026-04-04T13:21:40.105Z</time></trkpt><trkpt lat="44.63909" lon="8.23675"><ele>281.2</ele><time>2026-04-04T13:21:41.103Z</time></trkpt><trkpt lat="44.6391883" lon="8.2367933"><ele>280.8</ele><time>2026-04-04T13:21:42.103Z</time></trkpt><trkpt lat="44.6392733" lon="8.236805"><ele>280.4</ele><time>2026-04-04T13:21:43.109Z</time></trkpt><trkpt lat="44.6393583" lon="8.236785"><ele>280.0</ele><time>2026-04-04T13:21:44.102Z</time></trkpt><trkpt lat="44.63941" lon="8.2366867"><ele>280.0</ele><time>2026-04-04T13:21:45.105Z</time></trkpt><trkpt lat="44.6394633" lon="8.23657"><ele>280.0</ele><time>2026-04-04T13:21:46.107Z</time></trkpt><trkpt lat="44.6394667" lon="8.236435"><ele>280.0</ele><time>2026-04-04T13:21:47.103Z</time></trkpt><trkpt lat="44.6394367" lon="8.2362867"><ele>280.0</ele><time>2026-04-04T13:21:48.102Z</time></trkpt><trkpt lat="44.6393833" lon="8.2361167"><ele>280.0</ele><time>2026-04-04T13:21:49.106Z</time></trkpt><trkpt lat="44.6393383" lon="8.2359367"><ele>281.75</ele><time>2026-04-04T13:21:50.103Z</time></trkpt><trkpt lat="44.639295" lon="8.23574"><ele>283.5</ele><time>2026-04-04T13:21:51.106Z</time></trkpt><trkpt lat="44.63928" lon="8.2355333"><ele>285.25</ele><time>2026-04-04T13:21:52.1Z</time></trkpt><trkpt lat="44.6392783" lon="8.2353183"><ele>287.0</ele><time>2026-04-04T13:21:53.101Z</time></trkpt><trkpt lat="44.6392833" lon="8.2351067"><ele>287.75</ele><time>2026-04-04T13:21:54.102Z</time></trkpt><trkpt lat="44.6392917" lon="8.234895"><ele>288.5</ele><time>2026-04-04T13:21:55.105Z</time></trkpt><trkpt lat="44.6392983" lon="8.2346883"><ele>289.25</ele><time>2026-04-04T13:21:56.103Z</time></trkpt><trkpt lat="44.6392983" lon="8.2344967"><ele>290.0</ele><time>2026-04-04T13:21:57.103Z</time></trkpt><trkpt lat="44.639285" lon="8.2343283"><ele>290.0</ele><time>2026-04-04T13:21:58.103Z</time></trkpt><trkpt lat="44.6392517" lon="8.2341633"><ele>290.0</ele><time>2026-04-04T13:21:59.102Z</time></trkpt><trkpt lat="44.63918" lon="8.2340067"><ele>290.0</ele><time>2026-04-04T13:22:00.099Z</time></trkpt><trkpt lat="44.6390917" lon="8.233845"><ele>290.0</ele><time>2026-04-04T13:22:01.106Z</time></trkpt><trkpt lat="44.6390067" lon="8.2336817"><ele>289.75</ele><time>2026-04-04T13:22:02.1Z</time></trkpt><trkpt lat="44.6389367" lon="8.2335217"><ele>289.5</ele><time>2026-04-04T13:22:03.103Z</time></trkpt><trkpt lat="44.638885" lon="8.2333667"><ele>289.25</ele><time>2026-04-04T13:22:04.103Z</time></trkpt><trkpt lat="44.6388667" lon="8.233205"><ele>289.0</ele><time>2026-04-04T13:22:05.108Z</time></trkpt><trkpt lat="44.63888" lon="8.2330367"><ele>288.5</ele><time>2026-04-04T13:22:06.104Z</time></trkpt><trkpt lat="44.6389167" lon="8.2328567"><ele>288.0</ele><time>2026-04-04T13:22:07.105Z</time></trkpt><trkpt lat="44.6389733" lon="8.2326633"><ele>287.5</ele><time>2026-04-04T13:22:08.101Z</time></trkpt><trkpt lat="44.6390333" lon="8.23246"><ele>287.0</ele><time>2026-04-04T13:22:09.106Z</time></trkpt><trkpt lat="44.639105" lon="8.2322517"><ele>284.6666666666667</ele><time>2026-04-04T13:22:10.097Z</time></trkpt><trkpt lat="44.6391883" lon="8.2320467"><ele>282.3333333333333</ele><time>2026-04-04T13:22:11.106Z</time></trkpt><trkpt lat="44.6392867" lon="8.2318583"><ele>280.0</ele><time>2026-04-04T13:22:12.098Z</time></trkpt><trkpt lat="44.6394033" lon="8.2316883"><ele>283.3333333333333</ele><time>2026-04-04T13:22:13.099Z</time></trkpt><trkpt lat="44.6395283" lon="8.2315233"><ele>286.6666666666667</ele><time>2026-04-04T13:22:14.101Z</time></trkpt><trkpt lat="44.639655" lon="8.2313717"><ele>290.0</ele><time>2026-04-04T13:22:15.1Z</time></trkpt><trkpt lat="44.6397817" lon="8.23122"><ele>291.6666666666667</ele><time>2026-04-04T13:22:16.1Z</time></trkpt><trkpt lat="44.63991" lon="8.2310667"><ele>293.3333333333333</ele><time>2026-04-04T13:22:17.096Z</time></trkpt><trkpt lat="44.6400333" lon="8.23092"><ele>295.0</ele><time>2026-04-04T13:22:18.105Z</time></trkpt><trkpt lat="44.640145" lon="8.230795"><ele>295.0</ele><time>2026-04-04T13:22:19.105Z</time></trkpt><trkpt lat="44.64024" lon="8.2306867"><ele>295.0</ele><time>2026-04-04T13:22:20.102Z</time></trkpt><trkpt lat="44.6403133" lon="8.2305767"><ele>295.0</ele><time>2026-04-04T13:22:21.102Z</time></trkpt><trkpt lat="44.6403633" lon="8.2304667"><ele>295.0</ele><time>2026-04-04T13:22:22.102Z</time></trkpt><trkpt lat="44.6403783" lon="8.23035"><ele>295.0</ele><time>2026-04-04T13:22:23.105Z</time></trkpt><trkpt lat="44.6403683" lon="8.2302317"><ele>295.5</ele><time>2026-04-04T13:22:24.103Z</time></trkpt><trkpt lat="44.6403317" lon="8.2301267"><ele>296.0</ele><time>2026-04-04T13:22:25.104Z</time></trkpt><trkpt lat="44.6402917" lon="8.2300317"><ele>296.5</ele><time>2026-04-04T13:22:26.101Z</time></trkpt><trkpt lat="44.640265" lon="8.229935"><ele>297.0</ele><time>2026-04-04T13:22:27.102Z</time></trkpt><trkpt lat="44.6402583" lon="8.2298417"><ele>297.5</ele><time>2026-04-04T13:22:28.102Z</time></trkpt><trkpt lat="44.6402967" lon="8.2297083"><ele>298.0</ele><time>2026-04-04T13:22:30.109Z</time></trkpt><trkpt lat="44.6404467" lon="8.229765"><ele>300.8</ele><time>2026-04-04T13:22:32.1Z</time></trkpt><trkpt lat="44.6405267" lon="8.2298317"><ele>303.6</ele><time>2026-04-04T13:22:33.102Z</time></trkpt><trkpt lat="44.6406" lon="8.2299133"><ele>306.4</ele><time>2026-04-04T13:22:34.101Z</time></trkpt><trkpt lat="44.6406933" lon="8.2299783"><ele>309.2</ele><time>2026-04-04T13:22:35.104Z</time></trkpt><trkpt lat="44.64079" lon="8.2300367"><ele>312.0</ele><time>2026-04-04T13:22:36.102Z</time></trkpt><trkpt lat="44.6409017" lon="8.23008"><ele>312.0</ele><time>2026-04-04T13:22:37.1Z</time></trkpt><trkpt lat="44.6410083" lon="8.2301267"><ele>312.0</ele><time>2026-04-04T13:22:38.105Z</time></trkpt><trkpt lat="44.641115" lon="8.2301917"><ele>312.0</ele><time>2026-04-04T13:22:39.1Z</time></trkpt><trkpt lat="44.641215" lon="8.2302867"><ele>312.0</ele><time>2026-04-04T13:22:40.099Z</time></trkpt><trkpt lat="44.64131" lon="8.2304067"><ele>313.75</ele><time>2026-04-04T13:22:41.101Z</time></trkpt><trkpt lat="44.6414083" lon="8.23052"><ele>315.5</ele><time>2026-04-04T13:22:42.1Z</time></trkpt><trkpt lat="44.6415167" lon="8.2306217"><ele>317.25</ele><time>2026-04-04T13:22:43.105Z</time></trkpt><trkpt lat="44.6416317" lon="8.2307217"><ele>319.0</ele><time>2026-04-04T13:22:44.102Z</time></trkpt><trkpt lat="44.641755" lon="8.2308167"><ele>319.0</ele><time>2026-04-04T13:22:45.102Z</time></trkpt><trkpt lat="44.64188" lon="8.23089"><ele>319.0</ele><time>2026-04-04T13:22:46.103Z</time></trkpt><trkpt lat="44.642015" lon="8.230945"><ele>319.0</ele><time>2026-04-04T13:22:47.106Z</time></trkpt><trkpt lat="44.642145" lon="8.2309833"><ele>319.0</ele><time>2026-04-04T13:22:48.104Z</time></trkpt><trkpt lat="44.6422717" lon="8.2309933"><ele>320.25</ele><time>2026-04-04T13:22:49.107Z</time></trkpt><trkpt lat="44.6423983" lon="8.2309833"><ele>321.5</ele><time>2026-04-04T13:22:50.103Z</time></trkpt><trkpt lat="44.6425233" lon="8.2309667"><ele>322.75</ele><time>2026-04-04T13:22:51.107Z</time></trkpt><trkpt lat="44.6426483" lon="8.2309483"><ele>324.0</ele><time>2026-04-04T13:22:52.102Z</time></trkpt><trkpt lat="44.6427683" lon="8.230925"><ele>325.6666666666667</ele><time>2026-04-04T13:22:53.103Z</time></trkpt><trkpt lat="44.6428717" lon="8.2308933"><ele>327.3333333333333</ele><time>2026-04-04T13:22:54.104Z</time></trkpt><trkpt lat="44.6429483" lon="8.2308517"><ele>329.0</ele><time>2026-04-04T13:22:55.102Z</time></trkpt><trkpt lat="44.6430083" lon="8.2308"><ele>330.66666666666663</ele><time>2026-04-04T13:22:56.101Z</time></trkpt><trkpt lat="44.6430533" lon="8.2307267"><ele>332.3333333333333</ele><time>2026-04-04T13:22:57.112Z</time></trkpt><trkpt lat="44.6430683" lon="8.2306383"><ele>334.0</ele><time>2026-04-04T13:22:58.107Z</time></trkpt><trkpt lat="44.643005" lon="8.2305517"><ele>333.75</ele><time>2026-04-04T13:22:59.103Z</time></trkpt><trkpt lat="44.6429483" lon="8.2304567"><ele>333.5</ele><time>2026-04-04T13:23:00.1Z</time></trkpt><trkpt lat="44.642875" lon="8.2303533"><ele>333.25</ele><time>2026-04-04T13:23:01.102Z</time></trkpt><trkpt lat="44.64276" lon="8.230235"><ele>333.0</ele><time>2026-04-04T13:23:02.103Z</time></trkpt><trkpt lat="44.6426517" lon="8.2301217"><ele>333.0</ele><time>2026-04-04T13:23:03.102Z</time></trkpt><trkpt lat="44.6425467" lon="8.23002"><ele>333.0</ele><time>2026-04-04T13:23:04.102Z</time></trkpt><trkpt lat="44.6424483" lon="8.2299417"><ele>333.0</ele><time>2026-04-04T13:23:05.104Z</time></trkpt><trkpt lat="44.642355" lon="8.2298583"><ele>333.0</ele><time>2026-04-04T13:23:06.1Z</time></trkpt><trkpt lat="44.642265" lon="8.2297583"><ele>334.59999999999997</ele><time>2026-04-04T13:23:07.104Z</time></trkpt><trkpt lat="44.642185" lon="8.22964"><ele>336.2</ele><time>2026-04-04T13:23:08.105Z</time></trkpt><trkpt lat="44.642115" lon="8.2295233"><ele>337.8</ele><time>2026-04-04T13:23:09.104Z</time></trkpt><trkpt lat="44.6420667" lon="8.229405"><ele>339.4</ele><time>2026-04-04T13:23:10.1Z</time></trkpt><trkpt lat="44.64205" lon="8.2292833"><ele>341.0</ele><time>2026-04-04T13:23:11.105Z</time></trkpt><trkpt lat="44.64205" lon="8.2291517"><ele>341.0</ele><time>2026-04-04T13:23:12.103Z</time></trkpt><trkpt lat="44.6421017" lon="8.22902"><ele>341.0</ele><time>2026-04-04T13:23:13.118Z</time></trkpt><trkpt lat="44.6421467" lon="8.2288733"><ele>341.0</ele><time>2026-04-04T13:23:14.102Z</time></trkpt><trkpt lat="44.64219" lon="8.2287067"><ele>341.0</ele><time>2026-04-04T13:23:15.099Z</time></trkpt><trkpt lat="44.6422233" lon="8.2285183"><ele>342.0</ele><time>2026-04-04T13:23:16.1Z</time></trkpt><trkpt lat="44.6422533" lon="8.2283283"><ele>343.0</ele><time>2026-04-04T13:23:17.103Z</time></trkpt><trkpt lat="44.642285" lon="8.2281417"><ele>344.0</ele><time>2026-04-04T13:23:18.1Z</time></trkpt><trkpt lat="44.6423433" lon="8.2279533"><ele>345.0</ele><time>2026-04-04T13:23:19.101Z</time></trkpt><trkpt lat="44.6424083" lon="8.2277583"><ele>345.5</ele><time>2026-04-04T13:23:20.103Z</time></trkpt><trkpt lat="44.6424717" lon="8.2275717"><ele>346.0</ele><time>2026-04-04T13:23:21.101Z</time></trkpt><trkpt lat="44.64253" lon="8.2273983"><ele>346.5</ele><time>2026-04-04T13:23:22.106Z</time></trkpt><trkpt lat="44.64256" lon="8.22724"><ele>347.0</ele><time>2026-04-04T13:23:23.101Z</time></trkpt><trkpt lat="44.6425583" lon="8.2270933"><ele>348.0</ele><time>2026-04-04T13:23:24.101Z</time></trkpt><trkpt lat="44.6425283" lon="8.22695"><ele>349.0</ele><time>2026-04-04T13:23:25.102Z</time></trkpt><trkpt lat="44.6425083" lon="8.22682"><ele>350.0</ele><time>2026-04-04T13:23:26.102Z</time></trkpt><trkpt lat="44.6425" lon="8.2267067"><ele>351.0</ele><time>2026-04-04T13:23:27.103Z</time></trkpt><trkpt lat="44.6424967" lon="8.2266017"><ele>352.0</ele><time>2026-04-04T13:23:28.105Z</time></trkpt><trkpt lat="44.6424917" lon="8.2265083"><ele>353.0</ele><time>2026-04-04T13:23:29.109Z</time></trkpt><trkpt lat="44.642575" lon="8.226535"><ele>353.0</ele><time>2026-04-04T13:23:31.102Z</time></trkpt><trkpt lat="44.6426367" lon="8.22672"><ele>353.0</ele><time>2026-04-04T13:23:32.102Z</time></trkpt><trkpt lat="44.6426733" lon="8.22687"><ele>353.0</ele><time>2026-04-04T13:23:33.102Z</time></trkpt><trkpt lat="44.6427067" lon="8.22706"><ele>353.0</ele><time>2026-04-04T13:23:34.104Z</time></trkpt><trkpt lat="44.6427033" lon="8.22727"><ele>351.5</ele><time>2026-04-04T13:23:35.103Z</time></trkpt><trkpt lat="44.6426917" lon="8.2274783"><ele>350.0</ele><time>2026-04-04T13:23:36.105Z</time></trkpt><trkpt lat="44.6427117" lon="8.22764"><ele>348.5</ele><time>2026-04-04T13:23:37.106Z</time></trkpt><trkpt lat="44.6427317" lon="8.227775"><ele>347.0</ele><time>2026-04-04T13:23:38.104Z</time></trkpt><trkpt lat="44.6427783" lon="8.2279017"><ele>353.25</ele><time>2026-04-04T13:23:39.108Z</time></trkpt><trkpt lat="44.6428517" lon="8.22803"><ele>359.5</ele><time>2026-04-04T13:23:40.103Z</time></trkpt><trkpt lat="44.6429383" lon="8.228165"><ele>365.75</ele><time>2026-04-04T13:23:41.1Z</time></trkpt><trkpt lat="44.6430433" lon="8.22831"><ele>372.0</ele><time>2026-04-04T13:23:42.104Z</time></trkpt><trkpt lat="44.6431567" lon="8.2284633"><ele>372.0</ele><time>2026-04-04T13:23:43.107Z</time></trkpt><trkpt lat="44.643275" lon="8.2286133"><ele>372.0</ele><time>2026-04-04T13:23:44.105Z</time></trkpt><trkpt lat="44.6433883" lon="8.2287567"><ele>372.0</ele><time>2026-04-04T13:23:45.101Z</time></trkpt><trkpt lat="44.6434817" lon="8.2288983"><ele>372.0</ele><time>2026-04-04T13:23:46.105Z</time></trkpt><trkpt lat="44.643545" lon="8.2290567"><ele>369.0</ele><time>2026-04-04T13:23:47.101Z</time></trkpt><trkpt lat="44.6435833" lon="8.2292167"><ele>366.0</ele><time>2026-04-04T13:23:48.099Z</time></trkpt><trkpt lat="44.6436233" lon="8.2293733"><ele>363.0</ele><time>2026-04-04T13:23:49.103Z</time></trkpt><trkpt lat="44.6436767" lon="8.2295283"><ele>360.0</ele><time>2026-04-04T13:23:50.101Z</time></trkpt><trkpt lat="44.643745" lon="8.2296633"><ele>363.0</ele><time>2026-04-04T13:23:51.103Z</time></trkpt><trkpt lat="44.6438333" lon="8.22978"><ele>366.0</ele><time>2026-04-04T13:23:52.105Z</time></trkpt><trkpt lat="44.6439283" lon="8.229875"><ele>369.0</ele><time>2026-04-04T13:23:53.104Z</time></trkpt><trkpt lat="44.64403" lon="8.2299417"><ele>372.0</ele><time>2026-04-04T13:23:54.101Z</time></trkpt><trkpt lat="44.64413" lon="8.2299783"><ele>372.0</ele><time>2026-04-04T13:23:55.104Z</time></trkpt><trkpt lat="44.6442333" lon="8.22998"><ele>372.0</ele><time>2026-04-04T13:23:56.105Z</time></trkpt><trkpt lat="44.644345" lon="8.229955"><ele>372.0</ele><time>2026-04-04T13:23:57.101Z</time></trkpt><trkpt lat="44.6444683" lon="8.2299167"><ele>372.0</ele><time>2026-04-04T13:23:58.105Z</time></trkpt><trkpt lat="44.6445967" lon="8.22988"><ele>374.25</ele><time>2026-04-04T13:23:59.102Z</time></trkpt><trkpt lat="44.644725" lon="8.2298517"><ele>376.5</ele><time>2026-04-04T13:24:00.104Z</time></trkpt><trkpt lat="44.6448567" lon="8.2298433"><ele>378.75</ele><time>2026-04-04T13:24:01.101Z</time></trkpt><trkpt lat="44.6449883" lon="8.22986"><ele>381.0</ele><time>2026-04-04T13:24:02.105Z</time></trkpt><trkpt lat="44.6451217" lon="8.2298967"><ele>381.0</ele><time>2026-04-04T13:24:03.098Z</time></trkpt><trkpt lat="44.6452483" lon="8.2299367"><ele>381.0</ele><time>2026-04-04T13:24:04.104Z</time></trkpt><trkpt lat="44.6453683" lon="8.22997"><ele>381.0</ele><time>2026-04-04T13:24:05.107Z</time></trkpt><trkpt lat="44.645465" lon="8.2300167"><ele>381.0</ele><time>2026-04-04T13:24:06.098Z</time></trkpt><trkpt lat="44.64554" lon="8.2300867"><ele>381.0</ele><time>2026-04-04T13:24:07.1Z</time></trkpt><trkpt lat="44.64559" lon="8.2301883"><ele>383.0</ele><time>2026-04-04T13:24:08.101Z</time></trkpt><trkpt lat="44.64563" lon="8.2303"><ele>385.0</ele><time>2026-04-04T13:24:09.101Z</time></trkpt><trkpt lat="44.6456383" lon="8.23044"><ele>387.0</ele><time>2026-04-04T13:24:10.105Z</time></trkpt><trkpt lat="44.6456367" lon="8.2305933"><ele>389.0</ele><time>2026-04-04T13:24:11.103Z</time></trkpt><trkpt lat="44.6456383" lon="8.2307367"><ele>391.0</ele><time>2026-04-04T13:24:12.102Z</time></trkpt><trkpt lat="44.6456417" lon="8.2308633"><ele>391.0</ele><time>2026-04-04T13:24:13.102Z</time></trkpt><trkpt lat="44.6456567" lon="8.2309767"><ele>391.0</ele><time>2026-04-04T13:24:14.099Z</time></trkpt><trkpt lat="44.6457717" lon="8.2309967"><ele>391.0</ele><time>2026-04-04T13:24:16.105Z</time></trkpt><trkpt lat="44.6458567" lon="8.2309"><ele>391.0</ele><time>2026-04-04T13:24:18.103Z</time></trkpt><trkpt lat="44.6458217" lon="8.2307767"><ele>391.0</ele><time>2026-04-04T13:24:19.106Z</time></trkpt><trkpt lat="44.645795" lon="8.2306517"><ele>392.4</ele><time>2026-04-04T13:24:20.1Z</time></trkpt><trkpt lat="44.64579" lon="8.2305117"><ele>393.8</ele><time>2026-04-04T13:24:21.104Z</time></trkpt><trkpt lat="44.645795" lon="8.23038"><ele>395.2</ele><time>2026-04-04T13:24:22.099Z</time></trkpt><trkpt lat="44.645815" lon="8.2302483"><ele>396.59999999999997</ele><time>2026-04-04T13:24:23.104Z</time></trkpt><trkpt lat="44.6458383" lon="8.23012"><ele>398.0</ele><time>2026-04-04T13:24:24.1Z</time></trkpt><trkpt lat="44.6458467" lon="8.2299817"><ele>398.0</ele><time>2026-04-04T13:24:25.103Z</time></trkpt><trkpt lat="44.6458267" lon="8.22984"><ele>398.0</ele><time>2026-04-04T13:24:26.102Z</time></trkpt><trkpt lat="44.6457717" lon="8.2296967"><ele>398.0</ele><time>2026-04-04T13:24:27.102Z</time></trkpt><trkpt lat="44.6456917" lon="8.2295617"><ele>398.0</ele><time>2026-04-04T13:24:28.105Z</time></trkpt><trkpt lat="44.6455933" lon="8.2294267"><ele>398.66666666666663</ele><time>2026-04-04T13:24:29.105Z</time></trkpt><trkpt lat="44.6454833" lon="8.229295"><ele>399.33333333333337</ele><time>2026-04-04T13:24:30.105Z</time></trkpt><trkpt lat="44.645355" lon="8.2291783"><ele>400.0</ele><time>2026-04-04T13:24:31.106Z</time></trkpt><trkpt lat="44.6452117" lon="8.2290883"><ele>400.0</ele><time>2026-04-04T13:24:32.103Z</time></trkpt><trkpt lat="44.6450717" lon="8.22902"><ele>400.0</ele><time>2026-04-04T13:24:33.107Z</time></trkpt><trkpt lat="44.6449483" lon="8.2289633"><ele>400.0</ele><time>2026-04-04T13:24:34.103Z</time></trkpt><trkpt lat="44.64485" lon="8.2288983"><ele>400.0</ele><time>2026-04-04T13:24:35.107Z</time></trkpt><trkpt lat="44.6447733" lon="8.2288067"><ele>402.2</ele><time>2026-04-04T13:24:36.103Z</time></trkpt><trkpt lat="44.644735" lon="8.2286783"><ele>404.4</ele><time>2026-04-04T13:24:37.103Z</time></trkpt><trkpt lat="44.6447133" lon="8.228535"><ele>406.6</ele><time>2026-04-04T13:24:38.101Z</time></trkpt><trkpt lat="44.6446967" lon="8.2283733"><ele>408.8</ele><time>2026-04-04T13:24:39.104Z</time></trkpt><trkpt lat="44.6446783" lon="8.2281933"><ele>411.0</ele><time>2026-04-04T13:24:40.101Z</time></trkpt><trkpt lat="44.6446567" lon="8.22799"><ele>414.0</ele><time>2026-04-04T13:24:41.106Z</time></trkpt><trkpt lat="44.6446267" lon="8.2277733"><ele>417.0</ele><time>2026-04-04T13:24:42.103Z</time></trkpt><trkpt lat="44.6445733" lon="8.2275417"><ele>420.0</ele><time>2026-04-04T13:24:43.104Z</time></trkpt><trkpt lat="44.64451" lon="8.2273117"><ele>417.66666666666663</ele><time>2026-04-04T13:24:44.106Z</time></trkpt><trkpt lat="44.6444433" lon="8.227085"><ele>415.3333333333333</ele><time>2026-04-04T13:24:45.1Z</time></trkpt><trkpt lat="44.6443833" lon="8.22687"><ele>413.0</ele><time>2026-04-04T13:24:46.1Z</time></trkpt><trkpt lat="44.644325" lon="8.2266817"><ele>413.0</ele><time>2026-04-04T13:24:47.1Z</time></trkpt><trkpt lat="44.6442833" lon="8.22653"><ele>413.0</ele><time>2026-04-04T13:24:48.101Z</time></trkpt><trkpt lat="44.6442567" lon="8.2264017"><ele>413.0</ele><time>2026-04-04T13:24:49.107Z</time></trkpt><trkpt lat="44.644245" lon="8.226285"><ele>413.0</ele><time>2026-04-04T13:24:50.107Z</time></trkpt><trkpt lat="44.64427" lon="8.2262033"><ele>413.0</ele><time>2026-04-04T13:24:51.1Z</time></trkpt><trkpt lat="44.6443733" lon="8.2261433"><ele>413.2</ele><time>2026-04-04T13:24:53.1Z</time></trkpt><trkpt lat="44.6444333" lon="8.2261817"><ele>413.4</ele><time>2026-04-04T13:24:54.1Z</time></trkpt><trkpt lat="44.6445" lon="8.2262483"><ele>413.59999999999997</ele><time>2026-04-04T13:24:55.106Z</time></trkpt><trkpt lat="44.644575" lon="8.2263733"><ele>413.79999999999995</ele><time>2026-04-04T13:24:56.101Z</time></trkpt><trkpt lat="44.644665" lon="8.2265183"><ele>414.0</ele><time>2026-04-04T13:24:57.101Z</time></trkpt><trkpt lat="44.6447733" lon="8.2266733"><ele>419.33333333333337</ele><time>2026-04-04T13:24:58.1Z</time></trkpt><trkpt lat="44.6449" lon="8.2268367"><ele>424.6666666666667</ele><time>2026-04-04T13:24:59.102Z</time></trkpt><trkpt lat="44.6450367" lon="8.2270083"><ele>430.0</ele><time>2026-04-04T13:25:00.098Z</time></trkpt><trkpt lat="44.64517" lon="8.2271833"><ele>426.6666666666667</ele><time>2026-04-04T13:25:01.102Z</time></trkpt><trkpt lat="44.645295" lon="8.2273483"><ele>423.33333333333337</ele><time>2026-04-04T13:25:02.099Z</time></trkpt><trkpt lat="44.6454033" lon="8.2274983"><ele>420.0</ele><time>2026-04-04T13:25:03.11Z</time></trkpt><trkpt lat="44.645495" lon="8.227645"><ele>423.5</ele><time>2026-04-04T13:25:04.104Z</time></trkpt><trkpt lat="44.645565" lon="8.2277983"><ele>427.0</ele><time>2026-04-04T13:25:05.101Z</time></trkpt><trkpt lat="44.6456133" lon="8.2279467"><ele>430.5</ele><time>2026-04-04T13:25:06.104Z</time></trkpt><trkpt lat="44.6456567" lon="8.2280867"><ele>434.0</ele><time>2026-04-04T13:25:07.103Z</time></trkpt><trkpt lat="44.6457117" lon="8.2282183"><ele>434.0</ele><time>2026-04-04T13:25:08.103Z</time></trkpt><trkpt lat="44.6457867" lon="8.2283383"><ele>434.0</ele><time>2026-04-04T13:25:09.101Z</time></trkpt><trkpt lat="44.645875" lon="8.22845"><ele>434.0</ele><time>2026-04-04T13:25:10.096Z</time></trkpt><trkpt lat="44.645965" lon="8.2285583"><ele>434.0</ele><time>2026-04-04T13:25:11.108Z</time></trkpt><trkpt lat="44.6460517" lon="8.228665"><ele>438.79999999999995</ele><time>2026-04-04T13:25:12.106Z</time></trkpt><trkpt lat="44.6461333" lon="8.2287633"><ele>443.59999999999997</ele><time>2026-04-04T13:25:13.108Z</time></trkpt><trkpt lat="44.6462167" lon="8.2288433"><ele>448.4</ele><time>2026-04-04T13:25:14.098Z</time></trkpt><trkpt lat="44.6462983" lon="8.2288833"><ele>453.2</ele><time>2026-04-04T13:25:15.1Z</time></trkpt><trkpt lat="44.6463867" lon="8.2288833"><ele>458.0</ele><time>2026-04-04T13:25:16.102Z</time></trkpt><trkpt lat="44.64647" lon="8.2288583"><ele>457.99999999999994</ele><time>2026-04-04T13:25:17.101Z</time></trkpt><trkpt lat="44.6465533" lon="8.2288367"><ele>458.0</ele><time>2026-04-04T13:25:18.102Z</time></trkpt><trkpt lat="44.6466367" lon="8.2288267"><ele>458.0</ele><time>2026-04-04T13:25:19.101Z</time></trkpt><trkpt lat="44.6467017" lon="8.22889"><ele>458.0</ele><time>2026-04-04T13:25:20.103Z</time></trkpt><trkpt lat="44.646765" lon="8.22898"><ele>457.99999999999994</ele><time>2026-04-04T13:25:21.101Z</time></trkpt><trkpt lat="44.6468083" lon="8.22912"><ele>458.0</ele><time>2026-04-04T13:25:22.103Z</time></trkpt><trkpt lat="44.6468617" lon="8.22925"><ele>459.25</ele><time>2026-04-04T13:25:23.101Z</time></trkpt><trkpt lat="44.646925" lon="8.2293767"><ele>460.5</ele><time>2026-04-04T13:25:24.106Z</time></trkpt><trkpt lat="44.64701" lon="8.22949"><ele>461.75</ele><time>2026-04-04T13:25:25.1Z</time></trkpt><trkpt lat="44.647115" lon="8.2295967"><ele>463.0</ele><time>2026-04-04T13:25:26.104Z</time></trkpt><trkpt lat="44.6472283" lon="8.229705"><ele>460.2</ele><time>2026-04-04T13:25:27.099Z</time></trkpt><trkpt lat="44.64734" lon="8.22981"><ele>457.4</ele><time>2026-04-04T13:25:28.106Z</time></trkpt><trkpt lat="44.6474367" lon="8.229895"><ele>454.59999999999997</ele><time>2026-04-04T13:25:29.1Z</time></trkpt><trkpt lat="44.6475233" lon="8.2299467"><ele>451.79999999999995</ele><time>2026-04-04T13:25:30.104Z</time></trkpt><trkpt lat="44.6476133" lon="8.2299717"><ele>449.0</ele><time>2026-04-04T13:25:31.109Z</time></trkpt><trkpt lat="44.647705" lon="8.2299767"><ele>449.6</ele><time>2026-04-04T13:25:32.101Z</time></trkpt><trkpt lat="44.6478083" lon="8.2299617"><ele>450.2</ele><time>2026-04-04T13:25:33.103Z</time></trkpt><trkpt lat="44.6479083" lon="8.2299383"><ele>450.80000000000007</ele><time>2026-04-04T13:25:34.098Z</time></trkpt><trkpt lat="44.6479983" lon="8.2298967"><ele>451.40000000000003</ele><time>2026-04-04T13:25:35.104Z</time></trkpt><trkpt lat="44.6480733" lon="8.2298333"><ele>452.0</ele><time>2026-04-04T13:25:36.099Z</time></trkpt><trkpt lat="44.6481367" lon="8.2297533"><ele>453.20000000000005</ele><time>2026-04-04T13:25:37.108Z</time></trkpt><trkpt lat="44.6481617" lon="8.2296367"><ele>454.40000000000003</ele><time>2026-04-04T13:25:38.101Z</time></trkpt><trkpt lat="44.6481817" lon="8.2295067"><ele>455.59999999999997</ele><time>2026-04-04T13:25:39.105Z</time></trkpt><trkpt lat="44.648175" lon="8.22936"><ele>456.79999999999995</ele><time>2026-04-04T13:25:40.099Z</time></trkpt><trkpt lat="44.6481617" lon="8.22922"><ele>458.0</ele><time>2026-04-04T13:25:41.108Z</time></trkpt><trkpt lat="44.6481467" lon="8.2290833"><ele>458.66666666666663</ele><time>2026-04-04T13:25:42.104Z</time></trkpt><trkpt lat="44.64813" lon="8.2289467"><ele>459.3333333333333</ele><time>2026-04-04T13:25:43.103Z</time></trkpt><trkpt lat="44.6481167" lon="8.2288317"><ele>460.0</ele><time>2026-04-04T13:25:44.111Z</time></trkpt><trkpt lat="44.6481183" lon="8.22872"><ele>460.66666666666663</ele><time>2026-04-04T13:25:45.102Z</time></trkpt><trkpt lat="44.6481367" lon="8.228615"><ele>461.3333333333333</ele><time>2026-04-04T13:25:46.102Z</time></trkpt><trkpt lat="44.6481683" lon="8.22851"><ele>462.0</ele><time>2026-04-04T13:25:47.106Z</time></trkpt><trkpt lat="44.64819" lon="8.2283967"><ele>462.0</ele><time>2026-04-04T13:25:48.102Z</time></trkpt><trkpt lat="44.6482017" lon="8.228275"><ele>462.00000000000006</ele><time>2026-04-04T13:25:49.107Z</time></trkpt><trkpt lat="44.6481883" lon="8.2281533"><ele>462.00000000000006</ele><time>2026-04-04T13:25:50.099Z</time></trkpt><trkpt lat="44.64816" lon="8.22803"><ele>462.0</ele><time>2026-04-04T13:25:51.103Z</time></trkpt><trkpt lat="44.6481183" lon="8.2279083"><ele>462.0</ele><time>2026-04-04T13:25:52.103Z</time></trkpt><trkpt lat="44.6480633" lon="8.2277817"><ele>462.8</ele><time>2026-04-04T13:25:53.104Z</time></trkpt><trkpt lat="44.6480067" lon="8.22765"><ele>463.6</ele><time>2026-04-04T13:25:54.105Z</time></trkpt><trkpt lat="44.6479467" lon="8.2275167"><ele>464.40000000000003</ele><time>2026-04-04T13:25:55.104Z</time></trkpt><trkpt lat="44.6478967" lon="8.2273833"><ele>465.20000000000005</ele><time>2026-04-04T13:25:56.102Z</time></trkpt><trkpt lat="44.64786" lon="8.2272517"><ele>466.0</ele><time>2026-04-04T13:25:57.098Z</time></trkpt><trkpt lat="44.6478467" lon="8.227125"><ele>468.0</ele><time>2026-04-04T13:25:58.103Z</time></trkpt><trkpt lat="44.647845" lon="8.2270017"><ele>470.0</ele><time>2026-04-04T13:25:59.099Z</time></trkpt><trkpt lat="44.6478817" lon="8.2268917"><ele>472.0</ele><time>2026-04-04T13:26:00.099Z</time></trkpt><trkpt lat="44.647925" lon="8.22678"><ele>474.0</ele><time>2026-04-04T13:26:01.105Z</time></trkpt><trkpt lat="44.6479833" lon="8.2266733"><ele>476.0</ele><time>2026-04-04T13:26:02.101Z</time></trkpt><trkpt lat="44.6480567" lon="8.2265717"><ele>476.0</ele><time>2026-04-04T13:26:03.107Z</time></trkpt><trkpt lat="44.6481417" lon="8.2264917"><ele>476.0</ele><time>2026-04-04T13:26:04.101Z</time></trkpt><trkpt lat="44.648235" lon="8.2264183"><ele>476.0</ele><time>2026-04-04T13:26:05.106Z</time></trkpt><trkpt lat="44.6483167" lon="8.2263233"><ele>476.0</ele><time>2026-04-04T13:26:06.104Z</time></trkpt><trkpt lat="44.6483817" lon="8.226205"><ele>476.0</ele><time>2026-04-04T13:26:07.104Z</time></trkpt><trkpt lat="44.6484367" lon="8.2260833"><ele>477.16666666666663</ele><time>2026-04-04T13:26:08.105Z</time></trkpt><trkpt lat="44.6484817" lon="8.2259667"><ele>478.3333333333333</ele><time>2026-04-04T13:26:09.099Z</time></trkpt><trkpt lat="44.6485083" lon="8.2258533"><ele>479.5</ele><time>2026-04-04T13:26:10.102Z</time></trkpt><trkpt lat="44.6485" lon="8.225745"><ele>480.66666666666663</ele><time>2026-04-04T13:26:11.107Z</time></trkpt><trkpt lat="44.6484667" lon="8.22564"><ele>481.8333333333333</ele><time>2026-04-04T13:26:12.105Z</time></trkpt><trkpt lat="44.6484267" lon="8.2255217"><ele>483.0</ele><time>2026-04-04T13:26:13.102Z</time></trkpt><trkpt lat="44.648405" lon="8.2253917"><ele>485.2</ele><time>2026-04-04T13:26:14.103Z</time></trkpt><trkpt lat="44.6484067" lon="8.2252483"><ele>487.4</ele><time>2026-04-04T13:26:15.103Z</time></trkpt><trkpt lat="44.6484133" lon="8.2251067"><ele>489.59999999999997</ele><time>2026-04-04T13:26:16.103Z</time></trkpt><trkpt lat="44.648415" lon="8.2249833"><ele>491.79999999999995</ele><time>2026-04-04T13:26:17.105Z</time></trkpt><trkpt lat="44.64841" lon="8.224875"><ele>494.0</ele><time>2026-04-04T13:26:18.104Z</time></trkpt><trkpt lat="44.6483167" lon="8.2248167"><ele>494.0</ele><time>2026-04-04T13:26:20.105Z</time></trkpt><trkpt lat="44.648255" lon="8.2248467"><ele>494.0</ele><time>2026-04-04T13:26:21.102Z</time></trkpt><trkpt lat="44.6481767" lon="8.2249467"><ele>494.0</ele><time>2026-04-04T13:26:23.106Z</time></trkpt><trkpt lat="44.6481817" lon="8.2250567"><ele>494.0</ele><time>2026-04-04T13:26:24.107Z</time></trkpt><trkpt lat="44.648185" lon="8.2251833"><ele>494.0</ele><time>2026-04-04T13:26:25.109Z</time></trkpt><trkpt lat="44.648195" lon="8.2253533"><ele>494.0</ele><time>2026-04-04T13:26:26.104Z</time></trkpt><trkpt lat="44.6481783" lon="8.2255067"><ele>494.0</ele><time>2026-04-04T13:26:27.101Z</time></trkpt><trkpt lat="44.6481483" lon="8.22565"><ele>494.0</ele><time>2026-04-04T13:26:28.103Z</time></trkpt><trkpt lat="44.6481067" lon="8.2257883"><ele>494.0</ele><time>2026-04-04T13:26:29.101Z</time></trkpt><trkpt lat="44.6480533" lon="8.225915"><ele>494.0</ele><time>2026-04-04T13:26:30.1Z</time></trkpt><trkpt lat="44.648" lon="8.2260233"><ele>492.16666666666663</ele><time>2026-04-04T13:26:31.101Z</time></trkpt><trkpt lat="44.6479533" lon="8.2261167"><ele>490.3333333333333</ele><time>2026-04-04T13:26:32.104Z</time></trkpt><trkpt lat="44.647905" lon="8.2261833"><ele>488.5</ele><time>2026-04-04T13:26:33.101Z</time></trkpt><trkpt lat="44.6478383" lon="8.2262217"><ele>486.66666666666663</ele><time>2026-04-04T13:26:34.102Z</time></trkpt><trkpt lat="44.6477533" lon="8.2261967"><ele>484.8333333333333</ele><time>2026-04-04T13:26:35.103Z</time></trkpt><trkpt lat="44.6476783" lon="8.22606"><ele>483.0</ele><time>2026-04-04T13:26:36.102Z</time></trkpt><trkpt lat="44.64761" lon="8.2259567"><ele>488.59999999999997</ele><time>2026-04-04T13:26:37.105Z</time></trkpt><trkpt lat="44.6475533" lon="8.2258317"><ele>494.19999999999993</ele><time>2026-04-04T13:26:38.104Z</time></trkpt><trkpt lat="44.6475317" lon="8.2257017"><ele>499.8</ele><time>2026-04-04T13:26:39.11Z</time></trkpt><trkpt lat="44.6475183" lon="8.2255733"><ele>505.4</ele><time>2026-04-04T13:26:40.103Z</time></trkpt><trkpt lat="44.6475467" lon="8.2254283"><ele>511.0</ele><time>2026-04-04T13:26:41.109Z</time></trkpt><trkpt lat="44.6475933" lon="8.2252833"><ele>511.75</ele><time>2026-04-04T13:26:42.102Z</time></trkpt><trkpt lat="44.64767" lon="8.2251267"><ele>512.5</ele><time>2026-04-04T13:26:43.101Z</time></trkpt><trkpt lat="44.6477417" lon="8.22497"><ele>513.25</ele><time>2026-04-04T13:26:44.104Z</time></trkpt><trkpt lat="44.6478233" lon="8.2248183"><ele>514.0</ele><time>2026-04-04T13:26:45.098Z</time></trkpt><trkpt lat="44.64791" lon="8.224675"><ele>514.0</ele><time>2026-04-04T13:26:46.102Z</time></trkpt><trkpt lat="44.648005" lon="8.2245433"><ele>514.0</ele><time>2026-04-04T13:26:47.101Z</time></trkpt><trkpt lat="44.6481083" lon="8.2244217"><ele>514.0</ele><time>2026-04-04T13:26:48.101Z</time></trkpt><trkpt lat="44.6481917" lon="8.2243083"><ele>514.0</ele><time>2026-04-04T13:26:49.107Z</time></trkpt><trkpt lat="44.648265" lon="8.224195"><ele>514.0</ele><time>2026-04-04T13:26:50.104Z</time></trkpt><trkpt lat="44.6483217" lon="8.2240633"><ele>514.0</ele><time>2026-04-04T13:26:51.104Z</time></trkpt><trkpt lat="44.6483717" lon="8.2239233"><ele>514.0</ele><time>2026-04-04T13:26:52.103Z</time></trkpt><trkpt lat="44.6484117" lon="8.2237617"><ele>514.0</ele><time>2026-04-04T13:26:53.104Z</time></trkpt><trkpt lat="44.6484483" lon="8.2235933"><ele>519.75</ele><time>2026-04-04T13:26:54.103Z</time></trkpt><trkpt lat="44.648485" lon="8.2234283"><ele>525.5</ele><time>2026-04-04T13:26:55.104Z</time></trkpt><trkpt lat="44.6485217" lon="8.2232583"><ele>531.25</ele><time>2026-04-04T13:26:56.106Z</time></trkpt><trkpt lat="44.6485683" lon="8.2230783"><ele>537.0</ele><time>2026-04-04T13:26:57.103Z</time></trkpt><trkpt lat="44.648625" lon="8.222905"><ele>534.0</ele><time>2026-04-04T13:26:58.104Z</time></trkpt><trkpt lat="44.6486783" lon="8.2227333"><ele>531.0</ele><time>2026-04-04T13:26:59.102Z</time></trkpt><trkpt lat="44.6487383" lon="8.2225783"><ele>528.0</ele><time>2026-04-04T13:27:00.103Z</time></trkpt><trkpt lat="44.648815" lon="8.2224467"><ele>525.0</ele><time>2026-04-04T13:27:01.1Z</time></trkpt><trkpt lat="44.6488833" lon="8.2223383"><ele>530.0</ele><time>2026-04-04T13:27:02.1Z</time></trkpt><trkpt lat="44.64894" lon="8.2222517"><ele>535.0</ele><time>2026-04-04T13:27:03.105Z</time></trkpt><trkpt lat="44.649" lon="8.2221817"><ele>540.0</ele><time>2026-04-04T13:27:04.101Z</time></trkpt><trkpt lat="44.649085" lon="8.2222017"><ele>545.0</ele><time>2026-04-04T13:27:05.109Z</time></trkpt><trkpt lat="44.6491567" lon="8.2222133"><ele>550.0</ele><time>2026-04-04T13:27:06.102Z</time></trkpt><trkpt lat="44.649245" lon="8.2222483"><ele>555.0</ele><time>2026-04-04T13:27:07.099Z</time></trkpt><trkpt lat="44.64933" lon="8.2222933"><ele>552.8333333333334</ele><time>2026-04-04T13:27:08.098Z</time></trkpt><trkpt lat="44.6494117" lon="8.222315"><ele>550.6666666666666</ele><time>2026-04-04T13:27:09.102Z</time></trkpt><trkpt lat="44.64949" lon="8.2223233"><ele>548.5</ele><time>2026-04-04T13:27:10.102Z</time></trkpt><trkpt lat="44.6495483" lon="8.222255"><ele>546.3333333333333</ele><time>2026-04-04T13:27:11.113Z</time></trkpt><trkpt lat="44.64961" lon="8.22218"><ele>544.1666666666666</ele><time>2026-04-04T13:27:12.103Z</time></trkpt><trkpt lat="44.649685" lon="8.2220817"><ele>542.0</ele><time>2026-04-04T13:27:13.103Z</time></trkpt><trkpt lat="44.64978" lon="8.2219517"><ele>542.0</ele><time>2026-04-04T13:27:14.101Z</time></trkpt><trkpt lat="44.64989" lon="8.221805"><ele>542.0</ele><time>2026-04-04T13:27:15.102Z</time></trkpt><trkpt lat="44.6500133" lon="8.22165"><ele>542.0</ele><time>2026-04-04T13:27:16.102Z</time></trkpt><trkpt lat="44.650135" lon="8.2214967"><ele>540.6666666666666</ele><time>2026-04-04T13:27:17.106Z</time></trkpt><trkpt lat="44.6502583" lon="8.2213433"><ele>539.3333333333334</ele><time>2026-04-04T13:27:18.102Z</time></trkpt><trkpt lat="44.6503783" lon="8.2211967"><ele>538.0</ele><time>2026-04-04T13:27:19.103Z</time></trkpt><trkpt lat="44.650485" lon="8.2210683"><ele>538.0</ele><time>2026-04-04T13:27:20.108Z</time></trkpt><trkpt lat="44.6505767" lon="8.220945"><ele>538.0</ele><time>2026-04-04T13:27:21.108Z</time></trkpt><trkpt lat="44.65065" lon="8.2208183"><ele>538.0</ele><time>2026-04-04T13:27:22.103Z</time></trkpt><trkpt lat="44.6507033" lon="8.22067"><ele>538.0</ele><time>2026-04-04T13:27:23.101Z</time></trkpt><trkpt lat="44.650715" lon="8.2205167"><ele>542.1999999999999</ele><time>2026-04-04T13:27:24.103Z</time></trkpt><trkpt lat="44.6507283" lon="8.2203667"><ele>546.4</ele><time>2026-04-04T13:27:25.106Z</time></trkpt><trkpt lat="44.6507483" lon="8.2202233"><ele>550.5999999999999</ele><time>2026-04-04T13:27:26.105Z</time></trkpt><trkpt lat="44.6507817" lon="8.2201083"><ele>554.8</ele><time>2026-04-04T13:27:27.107Z</time></trkpt><trkpt lat="44.6508183" lon="8.220005"><ele>559.0</ele><time>2026-04-04T13:27:28.107Z</time></trkpt><trkpt lat="44.650865" lon="8.2199217"><ele>559.0</ele><time>2026-04-04T13:27:29.103Z</time></trkpt><trkpt lat="44.650895" lon="8.2198383"><ele>559.0</ele><time>2026-04-04T13:27:30.106Z</time></trkpt><trkpt lat="44.6510067" lon="8.2197317"><ele>559.0</ele><time>2026-04-04T13:27:32.1Z</time></trkpt><trkpt lat="44.6511017" lon="8.2197283"><ele>559.0</ele><time>2026-04-04T13:27:33.111Z</time></trkpt><trkpt lat="44.65118" lon="8.21968"><ele>559.0</ele><time>2026-04-04T13:27:34.102Z</time></trkpt><trkpt lat="44.65126" lon="8.219615"><ele>560.6666666666667</ele><time>2026-04-04T13:27:35.106Z</time></trkpt><trkpt lat="44.6513367" lon="8.219545"><ele>562.3333333333334</ele><time>2026-04-04T13:27:36.103Z</time></trkpt><trkpt lat="44.6514083" lon="8.219475"><ele>564.0</ele><time>2026-04-04T13:27:37.101Z</time></trkpt><trkpt lat="44.6514767" lon="8.2194"><ele>565.6666666666666</ele><time>2026-04-04T13:27:38.102Z</time></trkpt><trkpt lat="44.6515433" lon="8.21933"><ele>567.3333333333333</ele><time>2026-04-04T13:27:39.104Z</time></trkpt><trkpt lat="44.651625" lon="8.219275"><ele>569.0</ele><time>2026-04-04T13:27:40.105Z</time></trkpt><trkpt lat="44.65171" lon="8.219225"><ele>569.0</ele><time>2026-04-04T13:27:41.105Z</time></trkpt><trkpt lat="44.6517933" lon="8.2191817"><ele>569.0</ele><time>2026-04-04T13:27:42.102Z</time></trkpt><trkpt lat="44.65189" lon="8.2191483"><ele>569.0</ele><time>2026-04-04T13:27:43.102Z</time></trkpt><trkpt lat="44.6520117" lon="8.2191367"><ele>569.0</ele><time>2026-04-04T13:27:44.101Z</time></trkpt><trkpt lat="44.6521167" lon="8.2191367"><ele>569.0</ele><time>2026-04-04T13:27:45.098Z</time></trkpt><trkpt lat="44.6522317" lon="8.219175"><ele>570.6</ele><time>2026-04-04T13:27:46.103Z</time></trkpt><trkpt lat="44.6523283" lon="8.2192267"><ele>572.2</ele><time>2026-04-04T13:27:47.104Z</time></trkpt><trkpt lat="44.6524083" lon="8.2193117"><ele>573.8000000000001</ele><time>2026-04-04T13:27:48.098Z</time></trkpt><trkpt lat="44.6524667" lon="8.2194333"><ele>575.4</ele><time>2026-04-04T13:27:49.106Z</time></trkpt><trkpt lat="44.6525" lon="8.2195867"><ele>577.0</ele><time>2026-04-04T13:27:50.098Z</time></trkpt><trkpt lat="44.6525367" lon="8.219755"><ele>573.75</ele><time>2026-04-04T13:27:51.098Z</time></trkpt><trkpt lat="44.6525867" lon="8.219925"><ele>570.5</ele><time>2026-04-04T13:27:52.109Z</time></trkpt><trkpt lat="44.6526333" lon="8.2200967"><ele>567.25</ele><time>2026-04-04T13:27:53.107Z</time></trkpt><trkpt lat="44.65267" lon="8.2202567"><ele>564.0</ele><time>2026-04-04T13:27:54.101Z</time></trkpt><trkpt lat="44.6527083" lon="8.2203917"><ele>564.0</ele><time>2026-04-04T13:27:55.102Z</time></trkpt><trkpt lat="44.6527533" lon="8.2205133"><ele>564.0</ele><time>2026-04-04T13:27:56.102Z</time></trkpt><trkpt lat="44.652805" lon="8.2205867"><ele>564.0</ele><time>2026-04-04T13:27:57.107Z</time></trkpt><trkpt lat="44.6528667" lon="8.2206317"><ele>564.0</ele><time>2026-04-04T13:27:58.103Z</time></trkpt><trkpt lat="44.6529383" lon="8.220625"><ele>564.0</ele><time>2026-04-04T13:27:59.109Z</time></trkpt><trkpt lat="44.653005" lon="8.22061"><ele>564.0</ele><time>2026-04-04T13:28:00.1Z</time></trkpt><trkpt lat="44.6530633" lon="8.22057"><ele>564.0</ele><time>2026-04-04T13:28:01.105Z</time></trkpt><trkpt lat="44.653175" lon="8.2204067"><ele>566.5</ele><time>2026-04-04T13:28:02.103Z</time></trkpt><trkpt lat="44.6532767" lon="8.220285"><ele>569.0</ele><time>2026-04-04T13:28:03.102Z</time></trkpt><trkpt lat="44.6533933" lon="8.2202167"><ele>571.5</ele><time>2026-04-04T13:28:04.102Z</time></trkpt><trkpt lat="44.6535267" lon="8.2201583"><ele>574.0</ele><time>2026-04-04T13:28:05.106Z</time></trkpt><trkpt lat="44.6536767" lon="8.2200783"><ele>574.0</ele><time>2026-04-04T13:28:06.103Z</time></trkpt><trkpt lat="44.653835" lon="8.2200067"><ele>574.0</ele><time>2026-04-04T13:28:07.106Z</time></trkpt><trkpt lat="44.65399" lon="8.21995"><ele>574.0</ele><time>2026-04-04T13:28:08.105Z</time></trkpt><trkpt lat="44.6541417" lon="8.2198967"><ele>574.0</ele><time>2026-04-04T13:28:09.1Z</time></trkpt><trkpt lat="44.65429" lon="8.2198283"><ele>574.0</ele><time>2026-04-04T13:28:10.101Z</time></trkpt><trkpt lat="44.6544283" lon="8.2197717"><ele>574.0</ele><time>2026-04-04T13:28:11.103Z</time></trkpt><trkpt lat="44.65456" lon="8.2197083"><ele>574.0</ele><time>2026-04-04T13:28:12.103Z</time></trkpt><trkpt lat="44.6546833" lon="8.2196317"><ele>576.75</ele><time>2026-04-04T13:28:13.1Z</time></trkpt><trkpt lat="44.654795" lon="8.2195333"><ele>579.5</ele><time>2026-04-04T13:28:14.1Z</time></trkpt><trkpt lat="44.6548917" lon="8.2194317"><ele>582.25</ele><time>2026-04-04T13:28:15.103Z</time></trkpt><trkpt lat="44.65498" lon="8.2193167"><ele>585.0</ele><time>2026-04-04T13:28:16.102Z</time></trkpt><trkpt lat="44.6550617" lon="8.2192533"><ele>585.0</ele><time>2026-04-04T13:28:17.108Z</time></trkpt><trkpt lat="44.6551333" lon="8.2192467"><ele>585.0</ele><time>2026-04-04T13:28:18.1Z</time></trkpt><trkpt lat="44.6552083" lon="8.2192483"><ele>585.0</ele><time>2026-04-04T13:28:19.1Z</time></trkpt><trkpt lat="44.6553067" lon="8.219275"><ele>585.0</ele><time>2026-04-04T13:28:20.101Z</time></trkpt><trkpt lat="44.6553967" lon="8.2193383"><ele>585.0</ele><time>2026-04-04T13:28:21.104Z</time></trkpt><trkpt lat="44.6554717" lon="8.2194417"><ele>585.2</ele><time>2026-04-04T13:28:22.098Z</time></trkpt><trkpt lat="44.6555417" lon="8.21952"><ele>585.4</ele><time>2026-04-04T13:28:23.099Z</time></trkpt><trkpt lat="44.655625" lon="8.2195817"><ele>585.6</ele><time>2026-04-04T13:28:25.105Z</time></trkpt><trkpt lat="44.6556067" lon="8.219495"><ele>585.8</ele><time>2026-04-04T13:28:32.104Z</time></trkpt><trkpt lat="44.6555" lon="8.2194133"><ele>586.0</ele><time>2026-04-04T13:28:41.1Z</time></trkpt><trkpt lat="44.6554317" lon="8.2193483"><ele>586.0</ele><time>2026-04-04T13:28:42.1Z</time></trkpt><trkpt lat="44.6553683" lon="8.2192883"><ele>586.0</ele><time>2026-04-04T13:28:43.1Z</time></trkpt><trkpt lat="44.65531" lon="8.2192333"><ele>586.0</ele><time>2026-04-04T13:28:44.103Z</time></trkpt><trkpt lat="44.6552033" lon="8.2191483"><ele>586.0</ele><time>2026-04-04T13:28:46.105Z</time></trkpt><trkpt lat="44.6550983" lon="8.2191033"><ele>586.0</ele><time>2026-04-04T13:28:48.107Z</time></trkpt><trkpt lat="44.6549983" lon="8.2190733"><ele>585.8</ele><time>2026-04-04T13:28:50.104Z</time></trkpt><trkpt lat="44.654905" lon="8.2190317"><ele>585.6</ele><time>2026-04-04T13:28:52.105Z</time></trkpt><trkpt lat="44.6548683" lon="8.218875"><ele>585.4</ele><time>2026-04-04T13:28:54.101Z</time></trkpt><trkpt lat="44.6548667" lon="8.218775"><ele>585.2</ele><time>2026-04-04T13:28:55.101Z</time></trkpt><trkpt lat="44.6548983" lon="8.2186533"><ele>585.0</ele><time>2026-04-04T13:28:56.104Z</time></trkpt><trkpt lat="44.6549283" lon="8.218525"><ele>585.75</ele><time>2026-04-04T13:28:57.108Z</time></trkpt><trkpt lat="44.6549567" lon="8.218385"><ele>586.5</ele><time>2026-04-04T13:28:58.104Z</time></trkpt><trkpt lat="44.654985" lon="8.2182267"><ele>587.25</ele><time>2026-04-04T13:28:59.101Z</time></trkpt><trkpt lat="44.6550183" lon="8.218055"><ele>588.0</ele><time>2026-04-04T13:29:00.1Z</time></trkpt><trkpt lat="44.65505" lon="8.2178867"><ele>588.0</ele><time>2026-04-04T13:29:01.102Z</time></trkpt><trkpt lat="44.65508" lon="8.2177217"><ele>588.0</ele><time>2026-04-04T13:29:02.107Z</time></trkpt><trkpt lat="44.655105" lon="8.2175717"><ele>588.0</ele><time>2026-04-04T13:29:03.1Z</time></trkpt><trkpt lat="44.65513" lon="8.2174467"><ele>588.0</ele><time>2026-04-04T13:29:04.102Z</time></trkpt><trkpt lat="44.65515" lon="8.2173433"><ele>588.0</ele><time>2026-04-04T13:29:05.103Z</time></trkpt><trkpt lat="44.655175" lon="8.2172583"><ele>587.6</ele><time>2026-04-04T13:29:06.104Z</time></trkpt><trkpt lat="44.6552433" lon="8.2171333"><ele>587.1999999999999</ele><time>2026-04-04T13:29:08.103Z</time></trkpt><trkpt lat="44.6553267" lon="8.2170733"><ele>586.8</ele><time>2026-04-04T13:29:10.104Z</time></trkpt><trkpt lat="44.6554383" lon="8.2171217"><ele>586.4</ele><time>2026-04-04T13:29:12.106Z</time></trkpt><trkpt lat="44.655515" lon="8.217175"><ele>586.0</ele><time>2026-04-04T13:29:13.105Z</time></trkpt><trkpt lat="44.655605" lon="8.2172083"><ele>586.0</ele><time>2026-04-04T13:29:14.104Z</time></trkpt><trkpt lat="44.6556883" lon="8.217225"><ele>586.0</ele><time>2026-04-04T13:29:15.107Z</time></trkpt><trkpt lat="44.6557683" lon="8.2172133"><ele>586.0</ele><time>2026-04-04T13:29:16.099Z</time></trkpt><trkpt lat="44.6558317" lon="8.2171767"><ele>586.0</ele><time>2026-04-04T13:29:17.105Z</time></trkpt><trkpt lat="44.6558417" lon="8.21705"><ele>586.0</ele><time>2026-04-04T13:29:19.104Z</time></trkpt><trkpt lat="44.6558033" lon="8.216975"><ele>586.0</ele><time>2026-04-04T13:29:20.102Z</time></trkpt><trkpt lat="44.6557417" lon="8.2169017"><ele>586.0</ele><time>2026-04-04T13:29:21.101Z</time></trkpt><trkpt lat="44.6556617" lon="8.2168117"><ele>586.0</ele><time>2026-04-04T13:29:22.1Z</time></trkpt><trkpt lat="44.6555733" lon="8.2167067"><ele>586.0</ele><time>2026-04-04T13:29:23.106Z</time></trkpt><trkpt lat="44.65548" lon="8.2165983"><ele>586.0</ele><time>2026-04-04T13:29:24.099Z</time></trkpt><trkpt lat="44.6553933" lon="8.2164933"><ele>584.1666666666667</ele><time>2026-04-04T13:29:25.106Z</time></trkpt><trkpt lat="44.6553133" lon="8.21639"><ele>582.3333333333334</ele><time>2026-04-04T13:29:26.1Z</time></trkpt><trkpt lat="44.6552383" lon="8.2162967"><ele>580.5</ele><time>2026-04-04T13:29:27.1Z</time></trkpt><trkpt lat="44.65518" lon="8.2162117"><ele>578.6666666666666</ele><time>2026-04-04T13:29:28.1Z</time></trkpt><trkpt lat="44.655135" lon="8.2161433"><ele>576.8333333333333</ele><time>2026-04-04T13:29:29.101Z</time></trkpt><trkpt lat="44.65511" lon="8.2160583"><ele>575.0</ele><time>2026-04-04T13:29:30.102Z</time></trkpt><trkpt lat="44.6551333" lon="8.2158883"><ele>575.0</ele><time>2026-04-04T13:29:32.102Z</time></trkpt><trkpt lat="44.6552033" lon="8.2158267"><ele>575.0</ele><time>2026-04-04T13:29:33.099Z</time></trkpt><trkpt lat="44.65532" lon="8.2158217"><ele>575.0</ele><time>2026-04-04T13:29:34.102Z</time></trkpt><trkpt lat="44.6554183" lon="8.21581"><ele>575.0</ele><time>2026-04-04T13:29:35.103Z</time></trkpt><trkpt lat="44.6555183" lon="8.2158033"><ele>575.0</ele><time>2026-04-04T13:29:36.103Z</time></trkpt><trkpt lat="44.65563" lon="8.2158017"><ele>575.0</ele><time>2026-04-04T13:29:37.102Z</time></trkpt><trkpt lat="44.655745" lon="8.2157933"><ele>575.0</ele><time>2026-04-04T13:29:38.102Z</time></trkpt><trkpt lat="44.6558633" lon="8.2157733"><ele>575.0</ele><time>2026-04-04T13:29:39.101Z</time></trkpt><trkpt lat="44.6559767" lon="8.2157433"><ele>575.0</ele><time>2026-04-04T13:29:40.099Z</time></trkpt><trkpt lat="44.6560783" lon="8.2156883"><ele>572.2</ele><time>2026-04-04T13:29:41.101Z</time></trkpt><trkpt lat="44.6561667" lon="8.215615"><ele>569.4</ele><time>2026-04-04T13:29:42.101Z</time></trkpt><trkpt lat="44.6562483" lon="8.2155267"><ele>566.6</ele><time>2026-04-04T13:29:43.098Z</time></trkpt><trkpt lat="44.65633" lon="8.2154183"><ele>563.8</ele><time>2026-04-04T13:29:44.1Z</time></trkpt><trkpt lat="44.65641" lon="8.2153033"><ele>561.0</ele><time>2026-04-04T13:29:45.106Z</time></trkpt><trkpt lat="44.656485" lon="8.2151867"><ele>561.0</ele><time>2026-04-04T13:29:46.103Z</time></trkpt><trkpt lat="44.656555" lon="8.2150883"><ele>561.0</ele><time>2026-04-04T13:29:47.103Z</time></trkpt><trkpt lat="44.6566167" lon="8.2150233"><ele>561.0</ele><time>2026-04-04T13:29:48.102Z</time></trkpt><trkpt lat="44.6566733" lon="8.2149817"><ele>561.0</ele><time>2026-04-04T13:29:49.103Z</time></trkpt><trkpt lat="44.6567883" lon="8.2149733"><ele>561.0</ele><time>2026-04-04T13:29:51.101Z</time></trkpt><trkpt lat="44.6568633" lon="8.2150467"><ele>561.0</ele><time>2026-04-04T13:29:52.101Z</time></trkpt><trkpt lat="44.6569467" lon="8.2150917"><ele>558.75</ele><time>2026-04-04T13:29:53.101Z</time></trkpt><trkpt lat="44.6570417" lon="8.215145"><ele>556.5</ele><time>2026-04-04T13:29:54.101Z</time></trkpt><trkpt lat="44.6571383" lon="8.2151567"><ele>554.25</ele><time>2026-04-04T13:29:55.108Z</time></trkpt><trkpt lat="44.6572667" lon="8.2151083"><ele>552.0</ele><time>2026-04-04T13:29:56.104Z</time></trkpt><trkpt lat="44.6573917" lon="8.2150533"><ele>552.0</ele><time>2026-04-04T13:29:57.107Z</time></trkpt><trkpt lat="44.6575183" lon="8.2149983"><ele>552.0</ele><time>2026-04-04T13:29:58.104Z</time></trkpt><trkpt lat="44.6576433" lon="8.2149433"><ele>552.0</ele><time>2026-04-04T13:29:59.102Z</time></trkpt><trkpt lat="44.6577667" lon="8.2149033"><ele>552.0</ele><time>2026-04-04T13:30:00.103Z</time></trkpt><trkpt lat="44.6578883" lon="8.214875"><ele>551.2</ele><time>2026-04-04T13:30:01.107Z</time></trkpt><trkpt lat="44.6580083" lon="8.2148467"><ele>550.4000000000001</ele><time>2026-04-04T13:30:02.104Z</time></trkpt><trkpt lat="44.658115" lon="8.214825"><ele>549.5999999999999</ele><time>2026-04-04T13:30:03.101Z</time></trkpt><trkpt lat="44.6581983" lon="8.2147933"><ele>548.8</ele><time>2026-04-04T13:30:04.104Z</time></trkpt><trkpt lat="44.6582683" lon="8.214735"><ele>548.0</ele><time>2026-04-04T13:30:05.107Z</time></trkpt><trkpt lat="44.6583233" lon="8.21465"><ele>546.5</ele><time>2026-04-04T13:30:06.107Z</time></trkpt><trkpt lat="44.6583583" lon="8.2145467"><ele>545.0</ele><time>2026-04-04T13:30:07.108Z</time></trkpt><trkpt lat="44.65838" lon="8.214445"><ele>543.5</ele><time>2026-04-04T13:30:08.108Z</time></trkpt><trkpt lat="44.6583967" lon="8.2143033"><ele>542.0</ele><time>2026-04-04T13:30:10.105Z</time></trkpt><trkpt lat="44.6583517" lon="8.214195"><ele>540.5</ele><time>2026-04-04T13:30:12.099Z</time></trkpt><trkpt lat="44.658275" lon="8.2142167"><ele>539.0</ele><time>2026-04-04T13:30:13.108Z</time></trkpt><trkpt lat="44.6581933" lon="8.2142433"><ele>539.0</ele><time>2026-04-04T13:30:14.102Z</time></trkpt><trkpt lat="44.658095" lon="8.2142883"><ele>539.0</ele><time>2026-04-04T13:30:15.102Z</time></trkpt><trkpt lat="44.6579933" lon="8.2143317"><ele>539.0</ele><time>2026-04-04T13:30:16.102Z</time></trkpt><trkpt lat="44.657885" lon="8.214365"><ele>539.0</ele><time>2026-04-04T13:30:17.105Z</time></trkpt><trkpt lat="44.657775" lon="8.2143817"><ele>539.0</ele><time>2026-04-04T13:30:18.106Z</time></trkpt><trkpt lat="44.6576617" lon="8.2143733"><ele>538.2</ele><time>2026-04-04T13:30:19.107Z</time></trkpt><trkpt lat="44.6575517" lon="8.2143383"><ele>537.4</ele><time>2026-04-04T13:30:20.106Z</time></trkpt><trkpt lat="44.6574517" lon="8.21428"><ele>536.6</ele><time>2026-04-04T13:30:21.103Z</time></trkpt><trkpt lat="44.6573617" lon="8.2141933"><ele>535.8</ele><time>2026-04-04T13:30:22.101Z</time></trkpt><trkpt lat="44.65728" lon="8.214095"><ele>535.0</ele><time>2026-04-04T13:30:23.107Z</time></trkpt><trkpt lat="44.657215" lon="8.2139667"><ele>532.6</ele><time>2026-04-04T13:30:24.104Z</time></trkpt><trkpt lat="44.6571533" lon="8.2138267"><ele>530.2</ele><time>2026-04-04T13:30:25.109Z</time></trkpt><trkpt lat="44.6570917" lon="8.2136867"><ele>527.8</ele><time>2026-04-04T13:30:26.105Z</time></trkpt><trkpt lat="44.6570333" lon="8.2135567"><ele>525.4</ele><time>2026-04-04T13:30:27.105Z</time></trkpt><trkpt lat="44.6569767" lon="8.2134433"><ele>523.0</ele><time>2026-04-04T13:30:28.104Z</time></trkpt><trkpt lat="44.6569183" lon="8.213355"><ele>523.0</ele><time>2026-04-04T13:30:29.105Z</time></trkpt><trkpt lat="44.656845" lon="8.2132983"><ele>523.0</ele><time>2026-04-04T13:30:30.106Z</time></trkpt><trkpt lat="44.6567617" lon="8.2132883"><ele>523.0</ele><time>2026-04-04T13:30:31.1Z</time></trkpt><trkpt lat="44.6566783" lon="8.2133133"><ele>523.0</ele><time>2026-04-04T13:30:32.103Z</time></trkpt><trkpt lat="44.6565967" lon="8.2133667"><ele>523.0</ele><time>2026-04-04T13:30:33.103Z</time></trkpt><trkpt lat="44.6565267" lon="8.2134217"><ele>523.0</ele><time>2026-04-04T13:30:34.11Z</time></trkpt><trkpt lat="44.6564617" lon="8.2134633"><ele>523.0</ele><time>2026-04-04T13:30:35.107Z</time></trkpt><trkpt lat="44.65638" lon="8.2134433"><ele>523.0</ele><time>2026-04-04T13:30:37.103Z</time></trkpt><trkpt lat="44.6564417" lon="8.213305"><ele>523.0</ele><time>2026-04-04T13:30:39.101Z</time></trkpt><trkpt lat="44.6565033" lon="8.213235"><ele>523.0</ele><time>2026-04-04T13:30:40.102Z</time></trkpt><trkpt lat="44.6565817" lon="8.2131483"><ele>523.0</ele><time>2026-04-04T13:30:41.104Z</time></trkpt><trkpt lat="44.6566583" lon="8.2130583"><ele>520.0</ele><time>2026-04-04T13:30:42.104Z</time></trkpt><trkpt lat="44.656735" lon="8.21297"><ele>517.0</ele><time>2026-04-04T13:30:43.109Z</time></trkpt><trkpt lat="44.6568167" lon="8.2128817"><ele>514.0</ele><time>2026-04-04T13:30:44.111Z</time></trkpt><trkpt lat="44.6569067" lon="8.2128033"><ele>511.0</ele><time>2026-04-04T13:30:45.107Z</time></trkpt><trkpt lat="44.657005" lon="8.2127333"><ele>508.0</ele><time>2026-04-04T13:30:46.104Z</time></trkpt><trkpt lat="44.6571083" lon="8.212675"><ele>508.00000000000006</ele><time>2026-04-04T13:30:47.108Z</time></trkpt><trkpt lat="44.6572067" lon="8.2126383"><ele>508.0</ele><time>2026-04-04T13:30:48.099Z</time></trkpt><trkpt lat="44.6572967" lon="8.2126433"><ele>508.0</ele><time>2026-04-04T13:30:49.107Z</time></trkpt><trkpt lat="44.65738" lon="8.21267"><ele>508.0</ele><time>2026-04-04T13:30:50.103Z</time></trkpt><trkpt lat="44.6574517" lon="8.21272"><ele>508.00000000000006</ele><time>2026-04-04T13:30:51.103Z</time></trkpt><trkpt lat="44.657525" lon="8.2127483"><ele>508.0</ele><time>2026-04-04T13:30:52.099Z</time></trkpt><trkpt lat="44.6575983" lon="8.2127533"><ele>508.0</ele><time>2026-04-04T13:30:53.102Z</time></trkpt><trkpt lat="44.6576683" lon="8.2127283"><ele>507.99999999999994</ele><time>2026-04-04T13:30:54.1Z</time></trkpt><trkpt lat="44.6577383" lon="8.21265"><ele>507.99999999999994</ele><time>2026-04-04T13:30:55.1Z</time></trkpt><trkpt lat="44.6578217" lon="8.212565"><ele>508.0</ele><time>2026-04-04T13:30:56.101Z</time></trkpt><trkpt lat="44.6579133" lon="8.21247"><ele>508.0</ele><time>2026-04-04T13:30:57.101Z</time></trkpt><trkpt lat="44.6580067" lon="8.2123733"><ele>503.5</ele><time>2026-04-04T13:30:58.103Z</time></trkpt><trkpt lat="44.658105" lon="8.2122883"><ele>499.0</ele><time>2026-04-04T13:30:59.099Z</time></trkpt><trkpt lat="44.658205" lon="8.2122133"><ele>494.5</ele><time>2026-04-04T13:31:00.101Z</time></trkpt><trkpt lat="44.6583067" lon="8.2121383"><ele>490.0</ele><time>2026-04-04T13:31:01.103Z</time></trkpt><trkpt lat="44.6584033" lon="8.212065"><ele>490.0</ele><time>2026-04-04T13:31:02.102Z</time></trkpt><trkpt lat="44.6584967" lon="8.2119833"><ele>490.0</ele><time>2026-04-04T13:31:03.104Z</time></trkpt><trkpt lat="44.6585817" lon="8.2118883"><ele>490.0</ele><time>2026-04-04T13:31:04.108Z</time></trkpt><trkpt lat="44.658655" lon="8.21178"><ele>490.0</ele><time>2026-04-04T13:31:05.103Z</time></trkpt><trkpt lat="44.6587183" lon="8.2116617"><ele>490.0</ele><time>2026-04-04T13:31:06.106Z</time></trkpt><trkpt lat="44.65878" lon="8.2115367"><ele>488.0</ele><time>2026-04-04T13:31:07.104Z</time></trkpt><trkpt lat="44.6588417" lon="8.21141"><ele>486.0</ele><time>2026-04-04T13:31:08.102Z</time></trkpt><trkpt lat="44.6589017" lon="8.2112883"><ele>484.0</ele><time>2026-04-04T13:31:09.103Z</time></trkpt><trkpt lat="44.6589633" lon="8.211185"><ele>482.0</ele><time>2026-04-04T13:31:10.109Z</time></trkpt><trkpt lat="44.6590517" lon="8.2110967"><ele>480.0</ele><time>2026-04-04T13:31:11.1Z</time></trkpt><trkpt lat="44.6591367" lon="8.2110383"><ele>480.0</ele><time>2026-04-04T13:31:12.101Z</time></trkpt><trkpt lat="44.65925" lon="8.2109617"><ele>480.0</ele><time>2026-04-04T13:31:13.108Z</time></trkpt><trkpt lat="44.65937" lon="8.2108817"><ele>480.0</ele><time>2026-04-04T13:31:14.101Z</time></trkpt><trkpt lat="44.6594883" lon="8.210795"><ele>480.0</ele><time>2026-04-04T13:31:15.105Z</time></trkpt><trkpt lat="44.6596067" lon="8.2107033"><ele>475.25</ele><time>2026-04-04T13:31:16.097Z</time></trkpt><trkpt lat="44.65972" lon="8.2106067"><ele>470.5</ele><time>2026-04-04T13:31:17.099Z</time></trkpt><trkpt lat="44.6598317" lon="8.21052"><ele>465.75</ele><time>2026-04-04T13:31:18.098Z</time></trkpt><trkpt lat="44.659945" lon="8.2104433"><ele>461.0</ele><time>2026-04-04T13:31:19.1Z</time></trkpt><trkpt lat="44.6600517" lon="8.2103867"><ele>461.0</ele><time>2026-04-04T13:31:20.098Z</time></trkpt><trkpt lat="44.6601617" lon="8.210345"><ele>461.0</ele><time>2026-04-04T13:31:21.105Z</time></trkpt><trkpt lat="44.6602683" lon="8.2103017"><ele>461.0</ele><time>2026-04-04T13:31:22.105Z</time></trkpt><trkpt lat="44.66037" lon="8.2102467"><ele>461.0</ele><time>2026-04-04T13:31:23.102Z</time></trkpt><trkpt lat="44.6604617" lon="8.2101583"><ele>461.0</ele><time>2026-04-04T13:31:24.105Z</time></trkpt><trkpt lat="44.6605333" lon="8.21004"><ele>461.66666666666663</ele><time>2026-04-04T13:31:25.102Z</time></trkpt><trkpt lat="44.660585" lon="8.2099183"><ele>462.3333333333333</ele><time>2026-04-04T13:31:26.103Z</time></trkpt><trkpt lat="44.6606317" lon="8.20982"><ele>463.0</ele><time>2026-04-04T13:31:27.102Z</time></trkpt><trkpt lat="44.6606783" lon="8.20975"><ele>463.66666666666663</ele><time>2026-04-04T13:31:28.102Z</time></trkpt><trkpt lat="44.6607817" lon="8.2096733"><ele>464.3333333333333</ele><time>2026-04-04T13:31:30.105Z</time></trkpt><trkpt lat="44.6608517" lon="8.2096733"><ele>465.0</ele><time>2026-04-04T13:31:31.106Z</time></trkpt><trkpt lat="44.660935" lon="8.209695"><ele>462.8</ele><time>2026-04-04T13:31:32.099Z</time></trkpt><trkpt lat="44.6610267" lon="8.2097167"><ele>460.6</ele><time>2026-04-04T13:31:33.1Z</time></trkpt><trkpt lat="44.66112" lon="8.2097383"><ele>458.4</ele><time>2026-04-04T13:31:34.103Z</time></trkpt><trkpt lat="44.66121" lon="8.2097683"><ele>456.2</ele><time>2026-04-04T13:31:35.101Z</time></trkpt><trkpt lat="44.6613" lon="8.2098167"><ele>454.0</ele><time>2026-04-04T13:31:36.11Z</time></trkpt><trkpt lat="44.6613783" lon="8.209895"><ele>454.0</ele><time>2026-04-04T13:31:37.099Z</time></trkpt><trkpt lat="44.6614567" lon="8.2099917"><ele>454.0</ele><time>2026-04-04T13:31:38.106Z</time></trkpt><trkpt lat="44.6615333" lon="8.2100967"><ele>454.0</ele><time>2026-04-04T13:31:39.1Z</time></trkpt><trkpt lat="44.6616083" lon="8.2101967"><ele>454.0</ele><time>2026-04-04T13:31:40.098Z</time></trkpt><trkpt lat="44.661685" lon="8.2102833"><ele>454.0</ele><time>2026-04-04T13:31:41.108Z</time></trkpt><trkpt lat="44.6617417" lon="8.2103483"><ele>454.0</ele><time>2026-04-04T13:31:42.1Z</time></trkpt><trkpt lat="44.661805" lon="8.2104167"><ele>454.0</ele><time>2026-04-04T13:31:43.102Z</time></trkpt><trkpt lat="44.6618883" lon="8.21037"><ele>454.0</ele><time>2026-04-04T13:31:45.102Z</time></trkpt><trkpt lat="44.66188" lon="8.210195"><ele>454.0</ele><time>2026-04-04T13:31:47.102Z</time></trkpt><trkpt lat="44.6618567" lon="8.2100733"><ele>454.0</ele><time>2026-04-04T13:31:48.104Z</time></trkpt><trkpt lat="44.6618233" lon="8.20993"><ele>452.0</ele><time>2026-04-04T13:31:49.105Z</time></trkpt><trkpt lat="44.6617883" lon="8.20979"><ele>450.0</ele><time>2026-04-04T13:31:50.104Z</time></trkpt><trkpt lat="44.6617517" lon="8.2096483"><ele>448.0</ele><time>2026-04-04T13:31:51.105Z</time></trkpt><trkpt lat="44.6617083" lon="8.2095133"><ele>446.0</ele><time>2026-04-04T13:31:52.105Z</time></trkpt><trkpt lat="44.66166" lon="8.209375"><ele>444.0</ele><time>2026-04-04T13:31:53.102Z</time></trkpt><trkpt lat="44.6616133" lon="8.2092367"><ele>444.0</ele><time>2026-04-04T13:31:54.111Z</time></trkpt><trkpt lat="44.661565" lon="8.20909"><ele>444.0</ele><time>2026-04-04T13:31:55.107Z</time></trkpt><trkpt lat="44.6615167" lon="8.208945"><ele>444.0</ele><time>2026-04-04T13:31:56.103Z</time></trkpt><trkpt lat="44.661465" lon="8.2088"><ele>444.0</ele><time>2026-04-04T13:31:57.1Z</time></trkpt><trkpt lat="44.6614183" lon="8.2086633"><ele>442.2</ele><time>2026-04-04T13:31:58.101Z</time></trkpt><trkpt lat="44.661385" lon="8.2085333"><ele>440.4</ele><time>2026-04-04T13:31:59.104Z</time></trkpt><trkpt lat="44.661365" lon="8.2084017"><ele>438.6</ele><time>2026-04-04T13:32:00.098Z</time></trkpt><trkpt lat="44.6613683" lon="8.20827"><ele>436.8</ele><time>2026-04-04T13:32:01.103Z</time></trkpt><trkpt lat="44.66139" lon="8.208145"><ele>435.0</ele><time>2026-04-04T13:32:02.105Z</time></trkpt><trkpt lat="44.6614267" lon="8.20801"><ele>432.75</ele><time>2026-04-04T13:32:03.105Z</time></trkpt><trkpt lat="44.6614667" lon="8.2078633"><ele>430.5</ele><time>2026-04-04T13:32:04.1Z</time></trkpt><trkpt lat="44.661515" lon="8.2077067"><ele>428.25</ele><time>2026-04-04T13:32:05.102Z</time></trkpt><trkpt lat="44.66157" lon="8.207545"><ele>426.0</ele><time>2026-04-04T13:32:06.101Z</time></trkpt><trkpt lat="44.66163" lon="8.2073683"><ele>423.0</ele><time>2026-04-04T13:32:07.101Z</time></trkpt><trkpt lat="44.6616867" lon="8.2071733"><ele>420.0</ele><time>2026-04-04T13:32:08.101Z</time></trkpt><trkpt lat="44.66173" lon="8.2069733"><ele>417.0</ele><time>2026-04-04T13:32:09.105Z</time></trkpt><trkpt lat="44.66177" lon="8.2067833"><ele>414.0</ele><time>2026-04-04T13:32:10.104Z</time></trkpt><trkpt lat="44.661815" lon="8.2066"><ele>413.75</ele><time>2026-04-04T13:32:11.105Z</time></trkpt><trkpt lat="44.66187" lon="8.2064283"><ele>413.5</ele><time>2026-04-04T13:32:12.106Z</time></trkpt><trkpt lat="44.6619283" lon="8.2062583"><ele>413.25</ele><time>2026-04-04T13:32:13.106Z</time></trkpt><trkpt lat="44.6619967" lon="8.206095"><ele>413.0</ele><time>2026-04-04T13:32:14.103Z</time></trkpt><trkpt lat="44.6620683" lon="8.2059333"><ele>413.0</ele><time>2026-04-04T13:32:15.104Z</time></trkpt><trkpt lat="44.6621467" lon="8.20578"><ele>413.0</ele><time>2026-04-04T13:32:16.104Z</time></trkpt><trkpt lat="44.6622283" lon="8.2056167"><ele>413.0</ele><time>2026-04-04T13:32:17.109Z</time></trkpt><trkpt lat="44.6623117" lon="8.2054483"><ele>413.0</ele><time>2026-04-04T13:32:18.107Z</time></trkpt><trkpt lat="44.6623933" lon="8.205275"><ele>410.75</ele><time>2026-04-04T13:32:19.106Z</time></trkpt><trkpt lat="44.662475" lon="8.2050983"><ele>408.5</ele><time>2026-04-04T13:32:20.099Z</time></trkpt><trkpt lat="44.6625467" lon="8.20492"><ele>406.25</ele><time>2026-04-04T13:32:21.103Z</time></trkpt><trkpt lat="44.6626033" lon="8.2047583"><ele>404.0</ele><time>2026-04-04T13:32:22.102Z</time></trkpt><trkpt lat="44.6626483" lon="8.2046117"><ele>401.8333333333333</ele><time>2026-04-04T13:32:23.102Z</time></trkpt><trkpt lat="44.6626867" lon="8.2044983"><ele>399.66666666666663</ele><time>2026-04-04T13:32:24.11Z</time></trkpt><trkpt lat="44.6627117" lon="8.2044033"><ele>397.5</ele><time>2026-04-04T13:32:25.1Z</time></trkpt><trkpt lat="44.6627483" lon="8.2042817"><ele>395.33333333333337</ele><time>2026-04-04T13:32:27.103Z</time></trkpt><trkpt lat="44.6628367" lon="8.2041967"><ele>393.1666666666667</ele><time>2026-04-04T13:32:29.104Z</time></trkpt><trkpt lat="44.6629083" lon="8.204185"><ele>391.0</ele><time>2026-04-04T13:32:30.103Z</time></trkpt><trkpt lat="44.663005" lon="8.2042533"><ele>390.75</ele><time>2026-04-04T13:32:31.105Z</time></trkpt><trkpt lat="44.6631" lon="8.2043133"><ele>390.5</ele><time>2026-04-04T13:32:32.104Z</time></trkpt><trkpt lat="44.663205" lon="8.204385"><ele>390.25</ele><time>2026-04-04T13:32:33.102Z</time></trkpt><trkpt lat="44.6633183" lon="8.20446"><ele>390.0</ele><time>2026-04-04T13:32:34.112Z</time></trkpt><trkpt lat="44.663435" lon="8.204535"><ele>390.0</ele><time>2026-04-04T13:32:35.105Z</time></trkpt><trkpt lat="44.6635517" lon="8.2046133"><ele>390.0</ele><time>2026-04-04T13:32:36.103Z</time></trkpt><trkpt lat="44.6636583" lon="8.2046833"><ele>390.0</ele><time>2026-04-04T13:32:37.107Z</time></trkpt><trkpt lat="44.6637517" lon="8.2047467"><ele>390.0</ele><time>2026-04-04T13:32:38.102Z</time></trkpt><trkpt lat="44.6638317" lon="8.2048267"><ele>390.0</ele><time>2026-04-04T13:32:39.106Z</time></trkpt><trkpt lat="44.6639067" lon="8.2049233"><ele>388.2</ele><time>2026-04-04T13:32:40.101Z</time></trkpt><trkpt lat="44.6639717" lon="8.205035"><ele>386.4</ele><time>2026-04-04T13:32:41.108Z</time></trkpt><trkpt lat="44.6640383" lon="8.2051533"><ele>384.6</ele><time>2026-04-04T13:32:42.101Z</time></trkpt><trkpt lat="44.6641033" lon="8.205275"><ele>382.8</ele><time>2026-04-04T13:32:43.102Z</time></trkpt><trkpt lat="44.6641617" lon="8.2053867"><ele>381.0</ele><time>2026-04-04T13:32:44.104Z</time></trkpt><trkpt lat="44.6642133" lon="8.205465"><ele>381.0</ele><time>2026-04-04T13:32:45.101Z</time></trkpt><trkpt lat="44.664265" lon="8.2055267"><ele>381.0</ele><time>2026-04-04T13:32:46.105Z</time></trkpt><trkpt lat="44.66435" lon="8.205465"><ele>381.0</ele><time>2026-04-04T13:32:48.106Z</time></trkpt><trkpt lat="44.66436" lon="8.2052267"><ele>381.0</ele><time>2026-04-04T13:32:50.102Z</time></trkpt><trkpt lat="44.6643633" lon="8.2050667"><ele>381.0</ele><time>2026-04-04T13:32:51.103Z</time></trkpt><trkpt lat="44.6643717" lon="8.2048967"><ele>379.5</ele><time>2026-04-04T13:32:52.103Z</time></trkpt><trkpt lat="44.6643767" lon="8.2047217"><ele>378.0</ele><time>2026-04-04T13:32:53.104Z</time></trkpt><trkpt lat="44.664375" lon="8.2045383"><ele>376.5</ele><time>2026-04-04T13:32:54.102Z</time></trkpt><trkpt lat="44.6643633" lon="8.2043583"><ele>375.0</ele><time>2026-04-04T13:32:55.107Z</time></trkpt><trkpt lat="44.66434" lon="8.2041833"><ele>375.0</ele><time>2026-04-04T13:32:56.106Z</time></trkpt><trkpt lat="44.6643117" lon="8.2040283"><ele>375.0</ele><time>2026-04-04T13:32:57.104Z</time></trkpt><trkpt lat="44.6642867" lon="8.203895"><ele>375.0</ele><time>2026-04-04T13:32:58.102Z</time></trkpt><trkpt lat="44.6642667" lon="8.20378"><ele>375.0</ele><time>2026-04-04T13:32:59.107Z</time></trkpt><trkpt lat="44.6642583" lon="8.2036833"><ele>375.0</ele><time>2026-04-04T13:33:00.109Z</time></trkpt><trkpt lat="44.6642933" lon="8.2035483"><ele>373.8333333333333</ele><time>2026-04-04T13:33:02.105Z</time></trkpt><trkpt lat="44.6643833" lon="8.2035867"><ele>372.6666666666667</ele><time>2026-04-04T13:33:03.104Z</time></trkpt><trkpt lat="44.66445" lon="8.2036233"><ele>371.5</ele><time>2026-04-04T13:33:04.104Z</time></trkpt><trkpt lat="44.6645233" lon="8.2037"><ele>370.33333333333337</ele><time>2026-04-04T13:33:05.107Z</time></trkpt><trkpt lat="44.6645917" lon="8.2038"><ele>369.1666666666667</ele><time>2026-04-04T13:33:06.108Z</time></trkpt><trkpt lat="44.664655" lon="8.2038767"><ele>368.0</ele><time>2026-04-04T13:33:07.104Z</time></trkpt><trkpt lat="44.664715" lon="8.203945"><ele>365.0</ele><time>2026-04-04T13:33:08.099Z</time></trkpt><trkpt lat="44.6648117" lon="8.2039233"><ele>362.0</ele><time>2026-04-04T13:33:10.101Z</time></trkpt><trkpt lat="44.6648033" lon="8.203835"><ele>359.0</ele><time>2026-04-04T13:33:11.107Z</time></trkpt><trkpt lat="44.6647483" lon="8.2036517"><ele>356.0</ele><time>2026-04-04T13:33:13.101Z</time></trkpt><trkpt lat="44.6646917" lon="8.2035417"><ele>353.0</ele><time>2026-04-04T13:33:14.106Z</time></trkpt><trkpt lat="44.6646483" lon="8.2034183"><ele>353.0</ele><time>2026-04-04T13:33:15.1Z</time></trkpt><trkpt lat="44.66463" lon="8.20328"><ele>353.0</ele><time>2026-04-04T13:33:16.102Z</time></trkpt><trkpt lat="44.664645" lon="8.2031317"><ele>353.0</ele><time>2026-04-04T13:33:17.102Z</time></trkpt><trkpt lat="44.6646567" lon="8.2029733"><ele>353.0</ele><time>2026-04-04T13:33:18.103Z</time></trkpt><trkpt lat="44.66466" lon="8.2028233"><ele>353.0</ele><time>2026-04-04T13:33:19.106Z</time></trkpt><trkpt lat="44.6646483" lon="8.2026783"><ele>353.2</ele><time>2026-04-04T13:33:20.107Z</time></trkpt><trkpt lat="44.6646183" lon="8.2025517"><ele>353.4</ele><time>2026-04-04T13:33:21.103Z</time></trkpt><trkpt lat="44.66456" lon="8.2024217"><ele>353.59999999999997</ele><time>2026-04-04T13:33:22.105Z</time></trkpt><trkpt lat="44.66449" lon="8.202285"><ele>353.79999999999995</ele><time>2026-04-04T13:33:23.1Z</time></trkpt><trkpt lat="44.6644283" lon="8.2021583"><ele>354.0</ele><time>2026-04-04T13:33:24.106Z</time></trkpt><trkpt lat="44.6643933" lon="8.2020567"><ele>354.0</ele><time>2026-04-04T13:33:25.108Z</time></trkpt><trkpt lat="44.6643733" lon="8.20196"><ele>354.0</ele><time>2026-04-04T13:33:26.103Z</time></trkpt><trkpt lat="44.664415" lon="8.2018867"><ele>354.0</ele><time>2026-04-04T13:33:27.108Z</time></trkpt><trkpt lat="44.664485" lon="8.2018417"><ele>354.0</ele><time>2026-04-04T13:33:28.105Z</time></trkpt><trkpt lat="44.6645733" lon="8.2018183"><ele>354.0</ele><time>2026-04-04T13:33:29.104Z</time></trkpt><trkpt lat="44.6646767" lon="8.201805"><ele>354.0</ele><time>2026-04-04T13:33:30.106Z</time></trkpt><trkpt lat="44.664795" lon="8.201795"><ele>350.6</ele><time>2026-04-04T13:33:31.107Z</time></trkpt><trkpt lat="44.6649217" lon="8.2017833"><ele>347.2</ele><time>2026-04-04T13:33:32.105Z</time></trkpt><trkpt lat="44.6650433" lon="8.2017733"><ele>343.8</ele><time>2026-04-04T13:33:33.103Z</time></trkpt><trkpt lat="44.665145" lon="8.2017583"><ele>340.40000000000003</ele><time>2026-04-04T13:33:34.102Z</time></trkpt><trkpt lat="44.6652183" lon="8.2017433"><ele>337.0</ele><time>2026-04-04T13:33:35.102Z</time></trkpt><trkpt lat="44.66528" lon="8.2017067"><ele>334.6</ele><time>2026-04-04T13:33:36.108Z</time></trkpt><trkpt lat="44.6652983" lon="8.2015733"><ele>332.20000000000005</ele><time>2026-04-04T13:33:38.108Z</time></trkpt><trkpt lat="44.6651867" lon="8.2014667"><ele>329.8</ele><time>2026-04-04T13:33:40.104Z</time></trkpt><trkpt lat="44.6651067" lon="8.2014417"><ele>327.4</ele><time>2026-04-04T13:33:41.103Z</time></trkpt><trkpt lat="44.6650267" lon="8.2014133"><ele>325.0</ele><time>2026-04-04T13:33:42.102Z</time></trkpt><trkpt lat="44.6649333" lon="8.2013783"><ele>325.0</ele><time>2026-04-04T13:33:43.105Z</time></trkpt><trkpt lat="44.6648483" lon="8.20133"><ele>325.0</ele><time>2026-04-04T13:33:44.104Z</time></trkpt><trkpt lat="44.6647783" lon="8.2012517"><ele>325.0</ele><time>2026-04-04T13:33:45.109Z</time></trkpt><trkpt lat="44.664725" lon="8.2011367"><ele>325.0</ele><time>2026-04-04T13:33:46.109Z</time></trkpt><trkpt lat="44.6646983" lon="8.2009767"><ele>325.0</ele><time>2026-04-04T13:33:47.104Z</time></trkpt><trkpt lat="44.66467" lon="8.2008183"><ele>325.0</ele><time>2026-04-04T13:33:48.102Z</time></trkpt><trkpt lat="44.6646367" lon="8.2006683"><ele>325.0</ele><time>2026-04-04T13:33:49.106Z</time></trkpt><trkpt lat="44.6646033" lon="8.2005133"><ele>325.0</ele><time>2026-04-04T13:33:50.111Z</time></trkpt><trkpt lat="44.6645767" lon="8.200355"><ele>325.0</ele><time>2026-04-04T13:33:51.102Z</time></trkpt><trkpt lat="44.664545" lon="8.2001983"><ele>323.0</ele><time>2026-04-04T13:33:52.107Z</time></trkpt><trkpt lat="44.6645183" lon="8.2000367"><ele>321.0</ele><time>2026-04-04T13:33:53.104Z</time></trkpt><trkpt lat="44.6644983" lon="8.1998783"><ele>319.0</ele><time>2026-04-04T13:33:54.108Z</time></trkpt><trkpt lat="44.66448" lon="8.1997117"><ele>317.0</ele><time>2026-04-04T13:33:55.102Z</time></trkpt><trkpt lat="44.66446" lon="8.1995433"><ele>317.25</ele><time>2026-04-04T13:33:56.106Z</time></trkpt><trkpt lat="44.6644383" lon="8.1993733"><ele>317.5</ele><time>2026-04-04T13:33:57.101Z</time></trkpt><trkpt lat="44.664415" lon="8.1992067"><ele>317.75</ele><time>2026-04-04T13:33:58.104Z</time></trkpt><trkpt lat="44.6643917" lon="8.1990533"><ele>318.0</ele><time>2026-04-04T13:33:59.104Z</time></trkpt><trkpt lat="44.66436" lon="8.1989217"><ele>315.5</ele><time>2026-04-04T13:34:00.101Z</time></trkpt><trkpt lat="44.66432" lon="8.1988033"><ele>313.0</ele><time>2026-04-04T13:34:01.104Z</time></trkpt><trkpt lat="44.6642683" lon="8.1987017"><ele>310.5</ele><time>2026-04-04T13:34:02.104Z</time></trkpt><trkpt lat="44.6642167" lon="8.1986133"><ele>308.0</ele><time>2026-04-04T13:34:03.104Z</time></trkpt><trkpt lat="44.6641783" lon="8.1985333"><ele>305.5</ele><time>2026-04-04T13:34:04.101Z</time></trkpt><trkpt lat="44.6641533" lon="8.1984417"><ele>303.0</ele><time>2026-04-04T13:34:05.104Z</time></trkpt><trkpt lat="44.664135" lon="8.1983483"><ele>303.0</ele><time>2026-04-04T13:34:06.104Z</time></trkpt><trkpt lat="44.66415" lon="8.1982467"><ele>303.0</ele><time>2026-04-04T13:34:07.104Z</time></trkpt><trkpt lat="44.664185" lon="8.1981267"><ele>303.0</ele><time>2026-04-04T13:34:08.108Z</time></trkpt><trkpt lat="44.6642117" lon="8.198015"><ele>303.0</ele><time>2026-04-04T13:34:09.101Z</time></trkpt><trkpt lat="44.6642367" lon="8.1978967"><ele>303.0</ele><time>2026-04-04T13:34:10.105Z</time></trkpt><trkpt lat="44.66426" lon="8.1977767"><ele>303.0</ele><time>2026-04-04T13:34:11.099Z</time></trkpt><trkpt lat="44.66429" lon="8.197665"><ele>300.4</ele><time>2026-04-04T13:34:12.098Z</time></trkpt><trkpt lat="44.6643217" lon="8.197565"><ele>297.8</ele><time>2026-04-04T13:34:13.104Z</time></trkpt><trkpt lat="44.664425" lon="8.1974883"><ele>295.2</ele><time>2026-04-04T13:34:15.104Z</time></trkpt><trkpt lat="44.6645117" lon="8.1974983"><ele>292.6</ele><time>2026-04-04T13:34:16.099Z</time></trkpt><trkpt lat="44.6646" lon="8.19753"><ele>290.0</ele><time>2026-04-04T13:34:17.108Z</time></trkpt><trkpt lat="44.664705" lon="8.1975783"><ele>290.0</ele><time>2026-04-04T13:34:18.099Z</time></trkpt><trkpt lat="44.6648517" lon="8.1976567"><ele>290.0</ele><time>2026-04-04T13:34:19.101Z</time></trkpt><trkpt lat="44.665" lon="8.1977367"><ele>290.0</ele><time>2026-04-04T13:34:20.1Z</time></trkpt><trkpt lat="44.66515" lon="8.1978083"><ele>284.0</ele><time>2026-04-04T13:34:21.101Z</time></trkpt><trkpt lat="44.6653" lon="8.19788"><ele>278.0</ele><time>2026-04-04T13:34:22.102Z</time></trkpt><trkpt lat="44.6654467" lon="8.1979517"><ele>272.0</ele><time>2026-04-04T13:34:23.102Z</time></trkpt><trkpt lat="44.6655883" lon="8.19803"><ele>272.0</ele><time>2026-04-04T13:34:24.104Z</time></trkpt><trkpt lat="44.66573" lon="8.1981117"><ele>272.0</ele><time>2026-04-04T13:34:25.104Z</time></trkpt><trkpt lat="44.6658733" lon="8.198195"><ele>272.0</ele><time>2026-04-04T13:34:26.103Z</time></trkpt><trkpt lat="44.666015" lon="8.1982817"><ele>270.6666666666667</ele><time>2026-04-04T13:34:27.106Z</time></trkpt><trkpt lat="44.6661567" lon="8.19837"><ele>269.3333333333333</ele><time>2026-04-04T13:34:28.101Z</time></trkpt><trkpt lat="44.6663033" lon="8.1984533"><ele>268.0</ele><time>2026-04-04T13:34:29.108Z</time></trkpt><trkpt lat="44.66645" lon="8.19853"><ele>268.0</ele><time>2026-04-04T13:34:30.101Z</time></trkpt><trkpt lat="44.666595" lon="8.1985983"><ele>268.0</ele><time>2026-04-04T13:34:31.104Z</time></trkpt><trkpt lat="44.6667383" lon="8.1986683"><ele>268.0</ele><time>2026-04-04T13:34:32.102Z</time></trkpt><trkpt lat="44.6668817" lon="8.1987367"><ele>265.25</ele><time>2026-04-04T13:34:33.108Z</time></trkpt><trkpt lat="44.667025" lon="8.1988"><ele>262.5</ele><time>2026-04-04T13:34:34.1Z</time></trkpt><trkpt lat="44.6671683" lon="8.1988567"><ele>259.75</ele><time>2026-04-04T13:34:35.105Z</time></trkpt><trkpt lat="44.6673117" lon="8.19891"><ele>257.0</ele><time>2026-04-04T13:34:36.105Z</time></trkpt><trkpt lat="44.66745" lon="8.1989567"><ele>256.4</ele><time>2026-04-04T13:34:37.102Z</time></trkpt><trkpt lat="44.6675717" lon="8.1990033"><ele>255.79999999999998</ele><time>2026-04-04T13:34:38.099Z</time></trkpt><trkpt lat="44.6676717" lon="8.1990583"><ele>255.2</ele><time>2026-04-04T13:34:39.105Z</time></trkpt><trkpt lat="44.6677567" lon="8.1991383"><ele>254.6</ele><time>2026-04-04T13:34:40.1Z</time></trkpt><trkpt lat="44.66783" lon="8.19924"><ele>254.0</ele><time>2026-04-04T13:34:41.101Z</time></trkpt><trkpt lat="44.6678917" lon="8.199355"><ele>254.00000000000003</ele><time>2026-04-04T13:34:42.102Z</time></trkpt><trkpt lat="44.66795" lon="8.1994717"><ele>254.0</ele><time>2026-04-04T13:34:43.102Z</time></trkpt><trkpt lat="44.668" lon="8.199565"><ele>254.0</ele><time>2026-04-04T13:34:44.102Z</time></trkpt><trkpt lat="44.66805" lon="8.19964"><ele>254.0</ele><time>2026-04-04T13:34:45.102Z</time></trkpt><trkpt lat="44.6681183" lon="8.1996633"><ele>254.00000000000003</ele><time>2026-04-04T13:34:46.102Z</time></trkpt><trkpt lat="44.6681867" lon="8.1996683"><ele>254.0</ele><time>2026-04-04T13:34:47.105Z</time></trkpt><trkpt lat="44.6682533" lon="8.1996333"><ele>254.00000000000003</ele><time>2026-04-04T13:34:48.105Z</time></trkpt><trkpt lat="44.6683033" lon="8.19957"><ele>254.0</ele><time>2026-04-04T13:34:49.101Z</time></trkpt><trkpt lat="44.668335" lon="8.19948"><ele>254.0</ele><time>2026-04-04T13:34:50.103Z</time></trkpt><trkpt lat="44.6683533" lon="8.1993767"><ele>254.0</ele><time>2026-04-04T13:34:51.1Z</time></trkpt><trkpt lat="44.6683383" lon="8.1992633"><ele>254.00000000000003</ele><time>2026-04-04T13:34:52.101Z</time></trkpt><trkpt lat="44.668285" lon="8.1991283"><ele>254.0</ele><time>2026-04-04T13:34:53.106Z</time></trkpt><trkpt lat="44.66823" lon="8.1990117"><ele>253.16666666666669</ele><time>2026-04-04T13:34:54.102Z</time></trkpt><trkpt lat="44.6681783" lon="8.198895"><ele>252.33333333333334</ele><time>2026-04-04T13:34:55.11Z</time></trkpt><trkpt lat="44.6681267" lon="8.1987833"><ele>251.5</ele><time>2026-04-04T13:34:56.101Z</time></trkpt><trkpt lat="44.6680767" lon="8.1986733"><ele>250.66666666666669</ele><time>2026-04-04T13:34:57.103Z</time></trkpt><trkpt lat="44.668035" lon="8.1985717"><ele>249.83333333333334</ele><time>2026-04-04T13:34:58.102Z</time></trkpt><trkpt lat="44.6679967" lon="8.1984867"><ele>249.0</ele><time>2026-04-04T13:34:59.102Z</time></trkpt><trkpt lat="44.66796" lon="8.1984117"><ele>249.0</ele><time>2026-04-04T13:35:00.105Z</time></trkpt><trkpt lat="44.6679233" lon="8.19832"><ele>248.99999999999997</ele><time>2026-04-04T13:35:02.101Z</time></trkpt><trkpt lat="44.6679967" lon="8.1984367"><ele>248.99999999999997</ele><time>2026-04-04T13:35:16.102Z</time></trkpt><trkpt lat="44.6680417" lon="8.19851"><ele>249.0</ele><time>2026-04-04T13:35:17.101Z</time></trkpt><trkpt lat="44.668115" lon="8.1986133"><ele>249.0</ele><time>2026-04-04T13:35:18.107Z</time></trkpt><trkpt lat="44.668195" lon="8.198715"><ele>249.0</ele><time>2026-04-04T13:35:19.105Z</time></trkpt><trkpt lat="44.6682683" lon="8.19884"><ele>249.0</ele><time>2026-04-04T13:35:20.101Z</time></trkpt><trkpt lat="44.66838" lon="8.19894"><ele>249.0</ele><time>2026-04-04T13:35:21.1Z</time></trkpt><trkpt lat="44.668495" lon="8.199035"><ele>249.0</ele><time>2026-04-04T13:35:22.096Z</time></trkpt><trkpt lat="44.6686183" lon="8.1991167"><ele>248.75</ele><time>2026-04-04T13:35:23.109Z</time></trkpt><trkpt lat="44.6687817" lon="8.1991733"><ele>248.5</ele><time>2026-04-04T13:35:24.099Z</time></trkpt><trkpt lat="44.6689133" lon="8.1992233"><ele>248.25</ele><time>2026-04-04T13:35:25.105Z</time></trkpt><trkpt lat="44.6690433" lon="8.19927"><ele>248.0</ele><time>2026-04-04T13:35:26.102Z</time></trkpt><trkpt lat="44.6691817" lon="8.1992967"><ele>248.0</ele><time>2026-04-04T13:35:27.102Z</time></trkpt><trkpt lat="44.669325" lon="8.1993267"><ele>248.0</ele><time>2026-04-04T13:35:28.101Z</time></trkpt><trkpt lat="44.6694733" lon="8.199355"><ele>248.0</ele><time>2026-04-04T13:35:29.105Z</time></trkpt><trkpt lat="44.6696067" lon="8.19937"><ele>248.0</ele><time>2026-04-04T13:35:30.102Z</time></trkpt><trkpt lat="44.6697483" lon="8.1993667"><ele>247.25</ele><time>2026-04-04T13:35:31.1Z</time></trkpt><trkpt lat="44.6698867" lon="8.199345"><ele>246.5</ele><time>2026-04-04T13:35:32.098Z</time></trkpt><trkpt lat="44.6700233" lon="8.1993017"><ele>245.75</ele><time>2026-04-04T13:35:33.103Z</time></trkpt><trkpt lat="44.67015" lon="8.1992333"><ele>245.0</ele><time>2026-04-04T13:35:34.101Z</time></trkpt><trkpt lat="44.6702783" lon="8.1991483"><ele>245.0</ele><time>2026-04-04T13:35:35.103Z</time></trkpt><trkpt lat="44.6704" lon="8.1990467"><ele>245.0</ele><time>2026-04-04T13:35:36.1Z</time></trkpt><trkpt lat="44.670525" lon="8.19895"><ele>245.0</ele><time>2026-04-04T13:35:37.101Z</time></trkpt><trkpt lat="44.6706533" lon="8.198855"><ele>245.0</ele><time>2026-04-04T13:35:38.103Z</time></trkpt><trkpt lat="44.6707817" lon="8.19875"><ele>241.5</ele><time>2026-04-04T13:35:39.1Z</time></trkpt><trkpt lat="44.6709033" lon="8.1986567"><ele>238.0</ele><time>2026-04-04T13:35:40.1Z</time></trkpt><trkpt lat="44.6710233" lon="8.1985733"><ele>234.5</ele><time>2026-04-04T13:35:41.105Z</time></trkpt><trkpt lat="44.67115" lon="8.1985017"><ele>231.0</ele><time>2026-04-04T13:35:42.1Z</time></trkpt><trkpt lat="44.6712767" lon="8.198455"><ele>230.75</ele><time>2026-04-04T13:35:43.101Z</time></trkpt><trkpt lat="44.6714067" lon="8.19844"><ele>230.5</ele><time>2026-04-04T13:35:44.102Z</time></trkpt><trkpt lat="44.6715633" lon="8.1984783"><ele>230.25</ele><time>2026-04-04T13:35:45.1Z</time></trkpt><trkpt lat="44.67171" lon="8.1985283"><ele>230.0</ele><time>2026-04-04T13:35:46.104Z</time></trkpt><trkpt lat="44.671855" lon="8.198585"><ele>228.0</ele><time>2026-04-04T13:35:47.102Z</time></trkpt><trkpt lat="44.672005" lon="8.1986417"><ele>226.0</ele><time>2026-04-04T13:35:48.103Z</time></trkpt><trkpt lat="44.6721517" lon="8.1987"><ele>224.0</ele><time>2026-04-04T13:35:49.105Z</time></trkpt><trkpt lat="44.6723" lon="8.1987583"><ele>224.0</ele><time>2026-04-04T13:35:50.103Z</time></trkpt><trkpt lat="44.67245" lon="8.1988167"><ele>224.0</ele><time>2026-04-04T13:35:51.105Z</time></trkpt><trkpt lat="44.6725967" lon="8.1988733"><ele>224.0</ele><time>2026-04-04T13:35:52.104Z</time></trkpt><trkpt lat="44.67274" lon="8.1989267"><ele>224.5</ele><time>2026-04-04T13:35:53.102Z</time></trkpt><trkpt lat="44.6728767" lon="8.1989783"><ele>225.0</ele><time>2026-04-04T13:35:54.101Z</time></trkpt><trkpt lat="44.67301" lon="8.19903"><ele>225.5</ele><time>2026-04-04T13:35:55.104Z</time></trkpt><trkpt lat="44.673145" lon="8.1990783"><ele>226.0</ele><time>2026-04-04T13:35:56.106Z</time></trkpt><trkpt lat="44.6732767" lon="8.1991267"><ele>226.0</ele><time>2026-04-04T13:35:57.106Z</time></trkpt><trkpt lat="44.673405" lon="8.19917"><ele>226.0</ele><time>2026-04-04T13:35:58.106Z</time></trkpt><trkpt lat="44.67354" lon="8.199215"><ele>226.0</ele><time>2026-04-04T13:35:59.107Z</time></trkpt><trkpt lat="44.6736783" lon="8.19926"><ele>226.0</ele><time>2026-04-04T13:36:00.106Z</time></trkpt><trkpt lat="44.67383" lon="8.19931"><ele>223.33333333333331</ele><time>2026-04-04T13:36:01.104Z</time></trkpt><trkpt lat="44.6739867" lon="8.1993683"><ele>220.66666666666669</ele><time>2026-04-04T13:36:02.102Z</time></trkpt><trkpt lat="44.674145" lon="8.1994283"><ele>218.0</ele><time>2026-04-04T13:36:03.101Z</time></trkpt><trkpt lat="44.6743017" lon="8.1994833"><ele>217.0</ele><time>2026-04-04T13:36:04.104Z</time></trkpt><trkpt lat="44.6744517" lon="8.1995367"><ele>216.0</ele><time>2026-04-04T13:36:05.105Z</time></trkpt><trkpt lat="44.6746" lon="8.199585"><ele>215.0</ele><time>2026-04-04T13:36:06.11Z</time></trkpt><trkpt lat="44.6747467" lon="8.1996267"><ele>215.0</ele><time>2026-04-04T13:36:07.104Z</time></trkpt><trkpt lat="44.6748983" lon="8.1996433"><ele>215.0</ele><time>2026-04-04T13:36:08.104Z</time></trkpt><trkpt lat="44.6750533" lon="8.1996417"><ele>215.0</ele><time>2026-04-04T13:36:09.103Z</time></trkpt><trkpt lat="44.6752117" lon="8.1996183"><ele>215.66666666666669</ele><time>2026-04-04T13:36:10.101Z</time></trkpt><trkpt lat="44.67537" lon="8.1995817"><ele>216.33333333333331</ele><time>2026-04-04T13:36:11.108Z</time></trkpt><trkpt lat="44.6755233" lon="8.19954"><ele>217.0</ele><time>2026-04-04T13:36:12.101Z</time></trkpt><trkpt lat="44.67567" lon="8.1995067"><ele>217.0</ele><time>2026-04-04T13:36:13.104Z</time></trkpt><trkpt lat="44.675815" lon="8.19949"><ele>217.0</ele><time>2026-04-04T13:36:14.104Z</time></trkpt><trkpt lat="44.6759567" lon="8.1994967"><ele>217.0</ele><time>2026-04-04T13:36:15.104Z</time></trkpt><trkpt lat="44.6761017" lon="8.19953"><ele>217.0</ele><time>2026-04-04T13:36:16.103Z</time></trkpt><trkpt lat="44.6762467" lon="8.19958"><ele>215.33333333333331</ele><time>2026-04-04T13:36:17.103Z</time></trkpt><trkpt lat="44.67639" lon="8.1996383"><ele>213.66666666666669</ele><time>2026-04-04T13:36:18.102Z</time></trkpt><trkpt lat="44.676535" lon="8.1996983"><ele>212.0</ele><time>2026-04-04T13:36:19.106Z</time></trkpt><trkpt lat="44.6766833" lon="8.1997633"><ele>212.0</ele><time>2026-04-04T13:36:20.105Z</time></trkpt><trkpt lat="44.6768333" lon="8.19983"><ele>212.0</ele><time>2026-04-04T13:36:21.105Z</time></trkpt><trkpt lat="44.6769817" lon="8.199895"><ele>212.0</ele><time>2026-04-04T13:36:22.102Z</time></trkpt><trkpt lat="44.6771317" lon="8.1999617"><ele>212.0</ele><time>2026-04-04T13:36:23.107Z</time></trkpt><trkpt lat="44.6772817" lon="8.20003"><ele>212.0</ele><time>2026-04-04T13:36:24.104Z</time></trkpt><trkpt lat="44.6774317" lon="8.2000967"><ele>212.0</ele><time>2026-04-04T13:36:25.101Z</time></trkpt><trkpt lat="44.67758" lon="8.20016"><ele>212.0</ele><time>2026-04-04T13:36:26.099Z</time></trkpt><trkpt lat="44.677735" lon="8.2002233"><ele>212.0</ele><time>2026-04-04T13:36:27.106Z</time></trkpt><trkpt lat="44.6778883" lon="8.2002883"><ele>212.0</ele><time>2026-04-04T13:36:28.108Z</time></trkpt><trkpt lat="44.6780367" lon="8.2003567"><ele>210.66666666666669</ele><time>2026-04-04T13:36:29.1Z</time></trkpt><trkpt lat="44.678185" lon="8.2004217"><ele>209.33333333333331</ele><time>2026-04-04T13:36:30.103Z</time></trkpt><trkpt lat="44.6783233" lon="8.2004867"><ele>208.0</ele><time>2026-04-04T13:36:31.106Z</time></trkpt><trkpt lat="44.678465" lon="8.20055"><ele>208.0</ele><time>2026-04-04T13:36:32.105Z</time></trkpt><trkpt lat="44.6786017" lon="8.2006133"><ele>208.0</ele><time>2026-04-04T13:36:33.101Z</time></trkpt><trkpt lat="44.6787283" lon="8.2006667"><ele>208.0</ele><time>2026-04-04T13:36:34.1Z</time></trkpt><trkpt lat="44.6788517" lon="8.2007183"><ele>208.0</ele><time>2026-04-04T13:36:35.1Z</time></trkpt><trkpt lat="44.6789733" lon="8.200775"><ele>208.0</ele><time>2026-04-04T13:36:36.106Z</time></trkpt><trkpt lat="44.6790967" lon="8.2008317"><ele>208.0</ele><time>2026-04-04T13:36:37.105Z</time></trkpt><trkpt lat="44.6792233" lon="8.2008817"><ele>208.0</ele><time>2026-04-04T13:36:38.104Z</time></trkpt><trkpt lat="44.679355" lon="8.2009333"><ele>208.0</ele><time>2026-04-04T13:36:39.106Z</time></trkpt><trkpt lat="44.6794833" lon="8.2009867"><ele>207.25</ele><time>2026-04-04T13:36:40.103Z</time></trkpt><trkpt lat="44.6796117" lon="8.2010367"><ele>206.5</ele><time>2026-04-04T13:36:41.101Z</time></trkpt><trkpt lat="44.679735" lon="8.2010817"><ele>205.75</ele><time>2026-04-04T13:36:42.102Z</time></trkpt><trkpt lat="44.6798633" lon="8.2011317"><ele>205.0</ele><time>2026-04-04T13:36:43.106Z</time></trkpt><trkpt lat="44.6799983" lon="8.2011933"><ele>205.0</ele><time>2026-04-04T13:36:44.101Z</time></trkpt><trkpt lat="44.6801317" lon="8.2012467"><ele>205.0</ele><time>2026-04-04T13:36:45.105Z</time></trkpt><trkpt lat="44.6802617" lon="8.2013017"><ele>205.0</ele><time>2026-04-04T13:36:46.104Z</time></trkpt><trkpt lat="44.680385" lon="8.2013533"><ele>205.0</ele><time>2026-04-04T13:36:47.108Z</time></trkpt><trkpt lat="44.6805117" lon="8.201405"><ele>205.25</ele><time>2026-04-04T13:36:48.101Z</time></trkpt><trkpt lat="44.68063" lon="8.2014583"><ele>205.5</ele><time>2026-04-04T13:36:49.103Z</time></trkpt><trkpt lat="44.6807567" lon="8.2015133"><ele>205.75</ele><time>2026-04-04T13:36:50.104Z</time></trkpt><trkpt lat="44.6808867" lon="8.2015683"><ele>206.0</ele><time>2026-04-04T13:36:51.105Z</time></trkpt><trkpt lat="44.6810083" lon="8.20162"><ele>205.25</ele><time>2026-04-04T13:36:52.105Z</time></trkpt><trkpt lat="44.68113" lon="8.2016717"><ele>204.5</ele><time>2026-04-04T13:36:53.103Z</time></trkpt><trkpt lat="44.6812617" lon="8.201725"><ele>203.75</ele><time>2026-04-04T13:36:54.098Z</time></trkpt><trkpt lat="44.6813933" lon="8.201785"><ele>203.0</ele><time>2026-04-04T13:36:55.099Z</time></trkpt><trkpt lat="44.681525" lon="8.2018417"><ele>203.0</ele><time>2026-04-04T13:36:56.101Z</time></trkpt><trkpt lat="44.6816533" lon="8.2019"><ele>203.0</ele><time>2026-04-04T13:36:57.102Z</time></trkpt><trkpt lat="44.68178" lon="8.2019633"><ele>203.0</ele><time>2026-04-04T13:36:58.101Z</time></trkpt><trkpt lat="44.681915" lon="8.2020233"><ele>203.0</ele><time>2026-04-04T13:36:59.103Z</time></trkpt><trkpt lat="44.68205" lon="8.2020767"><ele>202.5</ele><time>2026-04-04T13:37:00.1Z</time></trkpt><trkpt lat="44.6821833" lon="8.2021267"><ele>202.0</ele><time>2026-04-04T13:37:01.102Z</time></trkpt><trkpt lat="44.682315" lon="8.2021767"><ele>201.5</ele><time>2026-04-04T13:37:02.103Z</time></trkpt><trkpt lat="44.6824483" lon="8.2022267"><ele>201.0</ele><time>2026-04-04T13:37:03.102Z</time></trkpt><trkpt lat="44.682575" lon="8.2022767"><ele>201.0</ele><time>2026-04-04T13:37:04.103Z</time></trkpt><trkpt lat="44.6827117" lon="8.2023283"><ele>201.0</ele><time>2026-04-04T13:37:05.101Z</time></trkpt><trkpt lat="44.68286" lon="8.202385"><ele>201.0</ele><time>2026-04-04T13:37:06.101Z</time></trkpt><trkpt lat="44.6830167" lon="8.202445"><ele>202.0</ele><time>2026-04-04T13:37:07.104Z</time></trkpt><trkpt lat="44.6831767" lon="8.2025083"><ele>203.0</ele><time>2026-04-04T13:37:08.104Z</time></trkpt><trkpt lat="44.6833483" lon="8.2025783"><ele>204.0</ele><time>2026-04-04T13:37:09.102Z</time></trkpt><trkpt lat="44.683525" lon="8.2026483"><ele>202.66666666666669</ele><time>2026-04-04T13:37:10.101Z</time></trkpt><trkpt lat="44.683705" lon="8.2027233"><ele>201.33333333333334</ele><time>2026-04-04T13:37:11.102Z</time></trkpt><trkpt lat="44.6838867" lon="8.2027983"><ele>200.0</ele><time>2026-04-04T13:37:12.102Z</time></trkpt><trkpt lat="44.684075" lon="8.2028683"><ele>200.0</ele><time>2026-04-04T13:37:13.102Z</time></trkpt><trkpt lat="44.6842583" lon="8.2029417"><ele>200.0</ele><time>2026-04-04T13:37:14.107Z</time></trkpt><trkpt lat="44.684445" lon="8.2030117"><ele>200.0</ele><time>2026-04-04T13:37:15.098Z</time></trkpt><trkpt lat="44.6846217" lon="8.20308"><ele>199.66666666666669</ele><time>2026-04-04T13:37:16.101Z</time></trkpt><trkpt lat="44.6847983" lon="8.20315"><ele>199.33333333333331</ele><time>2026-04-04T13:37:17.106Z</time></trkpt><trkpt lat="44.6849783" lon="8.20322"><ele>199.0</ele><time>2026-04-04T13:37:18.101Z</time></trkpt><trkpt lat="44.68516" lon="8.20329"><ele>198.33333333333331</ele><time>2026-04-04T13:37:19.099Z</time></trkpt><trkpt lat="44.6853467" lon="8.203365"><ele>197.66666666666669</ele><time>2026-04-04T13:37:20.102Z</time></trkpt><trkpt lat="44.6855333" lon="8.20344"><ele>197.0</ele><time>2026-04-04T13:37:21.107Z</time></trkpt><trkpt lat="44.6857217" lon="8.20351"><ele>197.0</ele><time>2026-04-04T13:37:22.102Z</time></trkpt><trkpt lat="44.6859183" lon="8.20358"><ele>197.0</ele><time>2026-04-04T13:37:23.111Z</time></trkpt><trkpt lat="44.686115" lon="8.2036717"><ele>197.0</ele><time>2026-04-04T13:37:24.105Z</time></trkpt><trkpt lat="44.68632" lon="8.2037367"><ele>197.0</ele><time>2026-04-04T13:37:25.104Z</time></trkpt><trkpt lat="44.6865217" lon="8.203795"><ele>197.0</ele><time>2026-04-04T13:37:26.109Z</time></trkpt><trkpt lat="44.6867183" lon="8.2038783"><ele>197.0</ele><time>2026-04-04T13:37:27.104Z</time></trkpt><trkpt lat="44.6869067" lon="8.2039567"><ele>197.0</ele><time>2026-04-04T13:37:28.102Z</time></trkpt><trkpt lat="44.6871017" lon="8.20402"><ele>197.0</ele><time>2026-04-04T13:37:29.107Z</time></trkpt><trkpt lat="44.6873017" lon="8.204085"><ele>197.0</ele><time>2026-04-04T13:37:30.105Z</time></trkpt><trkpt lat="44.6874983" lon="8.2041467"><ele>197.0</ele><time>2026-04-04T13:37:31.108Z</time></trkpt><trkpt lat="44.687685" lon="8.2042033"><ele>197.0</ele><time>2026-04-04T13:37:32.101Z</time></trkpt><trkpt lat="44.6878633" lon="8.204275"><ele>197.0</ele><time>2026-04-04T13:37:33.102Z</time></trkpt><trkpt lat="44.6880567" lon="8.2043867"><ele>196.33333333333334</ele><time>2026-04-04T13:37:34.108Z</time></trkpt><trkpt lat="44.6882517" lon="8.2044817"><ele>195.66666666666669</ele><time>2026-04-04T13:37:35.101Z</time></trkpt><trkpt lat="44.68844" lon="8.2045533"><ele>195.0</ele><time>2026-04-04T13:37:36.098Z</time></trkpt><trkpt lat="44.6886283" lon="8.2046317"><ele>194.66666666666669</ele><time>2026-04-04T13:37:37.105Z</time></trkpt><trkpt lat="44.6888117" lon="8.2047017"><ele>194.33333333333334</ele><time>2026-04-04T13:37:38.099Z</time></trkpt><trkpt lat="44.6889917" lon="8.204775"><ele>194.0</ele><time>2026-04-04T13:37:39.102Z</time></trkpt><trkpt lat="44.68917" lon="8.2048467"><ele>195.0</ele><time>2026-04-04T13:37:40.101Z</time></trkpt><trkpt lat="44.6893433" lon="8.2049133"><ele>196.0</ele><time>2026-04-04T13:37:41.102Z</time></trkpt><trkpt lat="44.6895117" lon="8.2049833"><ele>197.0</ele><time>2026-04-04T13:37:42.101Z</time></trkpt><trkpt lat="44.6896817" lon="8.2050483"><ele>197.33333333333334</ele><time>2026-04-04T13:37:43.103Z</time></trkpt><trkpt lat="44.6898483" lon="8.20512"><ele>197.66666666666669</ele><time>2026-04-04T13:37:44.101Z</time></trkpt><trkpt lat="44.69001" lon="8.20521"><ele>198.0</ele><time>2026-04-04T13:37:45.101Z</time></trkpt><trkpt lat="44.6901733" lon="8.2053183"><ele>196.66666666666669</ele><time>2026-04-04T13:37:46.102Z</time></trkpt><trkpt lat="44.6903333" lon="8.20544"><ele>195.33333333333334</ele><time>2026-04-04T13:37:47.102Z</time></trkpt><trkpt lat="44.6904883" lon="8.2055717"><ele>194.0</ele><time>2026-04-04T13:37:48.104Z</time></trkpt><trkpt lat="44.690645" lon="8.2057083"><ele>194.0</ele><time>2026-04-04T13:37:49.105Z</time></trkpt><trkpt lat="44.690805" lon="8.205845"><ele>194.0</ele><time>2026-04-04T13:37:50.102Z</time></trkpt><trkpt lat="44.6909683" lon="8.205985"><ele>194.0</ele><time>2026-04-04T13:37:51.101Z</time></trkpt><trkpt lat="44.69113" lon="8.2061217"><ele>193.66666666666669</ele><time>2026-04-04T13:37:52.109Z</time></trkpt><trkpt lat="44.69129" lon="8.2062567"><ele>193.33333333333331</ele><time>2026-04-04T13:37:53.108Z</time></trkpt><trkpt lat="44.691445" lon="8.2063883"><ele>193.0</ele><time>2026-04-04T13:37:54.1Z</time></trkpt><trkpt lat="44.6915983" lon="8.2065217"><ele>193.0</ele><time>2026-04-04T13:37:55.102Z</time></trkpt><trkpt lat="44.691755" lon="8.20665"><ele>193.0</ele><time>2026-04-04T13:37:56.108Z</time></trkpt><trkpt lat="44.691915" lon="8.2067767"><ele>193.0</ele><time>2026-04-04T13:37:57.112Z</time></trkpt><trkpt lat="44.69207" lon="8.2069017"><ele>192.0</ele><time>2026-04-04T13:37:58.105Z</time></trkpt><trkpt lat="44.692225" lon="8.2070317"><ele>191.0</ele><time>2026-04-04T13:37:59.103Z</time></trkpt><trkpt lat="44.6923767" lon="8.20717"><ele>190.0</ele><time>2026-04-04T13:38:00.102Z</time></trkpt><trkpt lat="44.69252" lon="8.2073183"><ele>189.66666666666669</ele><time>2026-04-04T13:38:01.099Z</time></trkpt><trkpt lat="44.6926533" lon="8.20747"><ele>189.33333333333334</ele><time>2026-04-04T13:38:02.102Z</time></trkpt><trkpt lat="44.69278" lon="8.2076283"><ele>189.0</ele><time>2026-04-04T13:38:03.106Z</time></trkpt><trkpt lat="44.6929067" lon="8.207785"><ele>189.0</ele><time>2026-04-04T13:38:04.1Z</time></trkpt><trkpt lat="44.6930333" lon="8.2079433"><ele>189.0</ele><time>2026-04-04T13:38:05.102Z</time></trkpt><trkpt lat="44.693165" lon="8.208095"><ele>189.0</ele><time>2026-04-04T13:38:06.101Z</time></trkpt><trkpt lat="44.6932983" lon="8.20825"><ele>190.33333333333331</ele><time>2026-04-04T13:38:07.102Z</time></trkpt><trkpt lat="44.6934283" lon="8.20841"><ele>191.66666666666666</ele><time>2026-04-04T13:38:08.104Z</time></trkpt><trkpt lat="44.6935533" lon="8.2085733"><ele>193.0</ele><time>2026-04-04T13:38:09.103Z</time></trkpt><trkpt lat="44.6936783" lon="8.2087417"><ele>192.33333333333331</ele><time>2026-04-04T13:38:10.102Z</time></trkpt><trkpt lat="44.6937983" lon="8.2089117"><ele>191.66666666666666</ele><time>2026-04-04T13:38:11.106Z</time></trkpt><trkpt lat="44.69392" lon="8.2090833"><ele>191.0</ele><time>2026-04-04T13:38:12.104Z</time></trkpt><trkpt lat="44.6940417" lon="8.2092533"><ele>191.0</ele><time>2026-04-04T13:38:13.103Z</time></trkpt><trkpt lat="44.6941633" lon="8.2094217"><ele>191.0</ele><time>2026-04-04T13:38:14.104Z</time></trkpt><trkpt lat="44.694285" lon="8.209595"><ele>191.0</ele><time>2026-04-04T13:38:15.108Z</time></trkpt><trkpt lat="44.6944067" lon="8.2097733"><ele>191.0</ele><time>2026-04-04T13:38:16.103Z</time></trkpt><trkpt lat="44.6945233" lon="8.2099583"><ele>191.0</ele><time>2026-04-04T13:38:17.107Z</time></trkpt><trkpt lat="44.6946383" lon="8.2101333"><ele>191.0</ele><time>2026-04-04T13:38:18.104Z</time></trkpt><trkpt lat="44.694755" lon="8.2103083"><ele>191.0</ele><time>2026-04-04T13:38:19.11Z</time></trkpt><trkpt lat="44.694875" lon="8.2104817"><ele>191.0</ele><time>2026-04-04T13:38:20.103Z</time></trkpt><trkpt lat="44.69499" lon="8.2106567"><ele>191.0</ele><time>2026-04-04T13:38:21.101Z</time></trkpt><trkpt lat="44.6951017" lon="8.210825"><ele>190.0</ele><time>2026-04-04T13:38:22.106Z</time></trkpt><trkpt lat="44.6952117" lon="8.21099"><ele>189.0</ele><time>2026-04-04T13:38:23.1Z</time></trkpt><trkpt lat="44.6953217" lon="8.2111517"><ele>188.0</ele><time>2026-04-04T13:38:24.104Z</time></trkpt><trkpt lat="44.69543" lon="8.2113083"><ele>188.0</ele><time>2026-04-04T13:38:25.099Z</time></trkpt><trkpt lat="44.6955333" lon="8.2114617"><ele>188.0</ele><time>2026-04-04T13:38:26.1Z</time></trkpt><trkpt lat="44.6956367" lon="8.21162"><ele>188.0</ele><time>2026-04-04T13:38:27.108Z</time></trkpt><trkpt lat="44.69574" lon="8.2117683"><ele>188.0</ele><time>2026-04-04T13:38:28.101Z</time></trkpt><trkpt lat="44.695845" lon="8.21191"><ele>188.0</ele><time>2026-04-04T13:38:29.106Z</time></trkpt><trkpt lat="44.6959517" lon="8.21206"><ele>188.0</ele><time>2026-04-04T13:38:30.103Z</time></trkpt><trkpt lat="44.6960567" lon="8.2122083"><ele>188.0</ele><time>2026-04-04T13:38:31.101Z</time></trkpt><trkpt lat="44.6961633" lon="8.21236"><ele>186.0</ele><time>2026-04-04T13:38:32.103Z</time></trkpt><trkpt lat="44.6962717" lon="8.212515"><ele>184.0</ele><time>2026-04-04T13:38:33.1Z</time></trkpt><trkpt lat="44.6963783" lon="8.2126717"><ele>182.0</ele><time>2026-04-04T13:38:34.107Z</time></trkpt><trkpt lat="44.69649" lon="8.2128267"><ele>182.0</ele><time>2026-04-04T13:38:35.103Z</time></trkpt><trkpt lat="44.6966033" lon="8.2129867"><ele>182.0</ele><time>2026-04-04T13:38:36.103Z</time></trkpt><trkpt lat="44.6967167" lon="8.2131517"><ele>182.0</ele><time>2026-04-04T13:38:37.108Z</time></trkpt><trkpt lat="44.69683" lon="8.2133133"><ele>182.0</ele><time>2026-04-04T13:38:38.109Z</time></trkpt><trkpt lat="44.6969467" lon="8.2134783"><ele>182.0</ele><time>2026-04-04T13:38:39.102Z</time></trkpt><trkpt lat="44.6970633" lon="8.2136483"><ele>182.0</ele><time>2026-04-04T13:38:40.102Z</time></trkpt><trkpt lat="44.6971817" lon="8.213825"><ele>181.0</ele><time>2026-04-04T13:38:41.103Z</time></trkpt><trkpt lat="44.6973" lon="8.214"><ele>180.0</ele><time>2026-04-04T13:38:42.103Z</time></trkpt><trkpt lat="44.697425" lon="8.2141767"><ele>179.0</ele><time>2026-04-04T13:38:43.104Z</time></trkpt><trkpt lat="44.6975483" lon="8.2143583"><ele>179.0</ele><time>2026-04-04T13:38:44.102Z</time></trkpt><trkpt lat="44.6976717" lon="8.2145383"><ele>179.0</ele><time>2026-04-04T13:38:45.101Z</time></trkpt><trkpt lat="44.697795" lon="8.2147233"><ele>179.0</ele><time>2026-04-04T13:38:46.111Z</time></trkpt><trkpt lat="44.6979183" lon="8.2149033"><ele>179.66666666666666</ele><time>2026-04-04T13:38:47.105Z</time></trkpt><trkpt lat="44.6980417" lon="8.2150817"><ele>180.33333333333334</ele><time>2026-04-04T13:38:48.105Z</time></trkpt><trkpt lat="44.6981617" lon="8.2152583"><ele>181.0</ele><time>2026-04-04T13:38:49.102Z</time></trkpt><trkpt lat="44.698285" lon="8.215435"><ele>181.0</ele><time>2026-04-04T13:38:50.109Z</time></trkpt><trkpt lat="44.698405" lon="8.2156083"><ele>181.0</ele><time>2026-04-04T13:38:51.101Z</time></trkpt><trkpt lat="44.6985233" lon="8.21578"><ele>181.0</ele><time>2026-04-04T13:38:52.103Z</time></trkpt><trkpt lat="44.6986417" lon="8.2159517"><ele>181.0</ele><time>2026-04-04T13:38:53.104Z</time></trkpt><trkpt lat="44.6987633" lon="8.2161233"><ele>181.0</ele><time>2026-04-04T13:38:54.112Z</time></trkpt><trkpt lat="44.698875" lon="8.21629"><ele>181.0</ele><time>2026-04-04T13:38:55.111Z</time></trkpt><trkpt lat="44.6989817" lon="8.2164483"><ele>181.66666666666669</ele><time>2026-04-04T13:38:56.106Z</time></trkpt><trkpt lat="44.6990867" lon="8.2166083"><ele>182.33333333333334</ele><time>2026-04-04T13:38:57.104Z</time></trkpt><trkpt lat="44.6991917" lon="8.2167683"><ele>183.0</ele><time>2026-04-04T13:38:58.102Z</time></trkpt><trkpt lat="44.6992983" lon="8.2169233"><ele>183.0</ele><time>2026-04-04T13:38:59.101Z</time></trkpt><trkpt lat="44.6994033" lon="8.217075"><ele>183.0</ele><time>2026-04-04T13:39:00.101Z</time></trkpt><trkpt lat="44.69951" lon="8.2172267"><ele>183.0</ele><time>2026-04-04T13:39:01.101Z</time></trkpt><trkpt lat="44.6996167" lon="8.21738"><ele>182.5</ele><time>2026-04-04T13:39:02.103Z</time></trkpt><trkpt lat="44.6997233" lon="8.21753"><ele>182.0</ele><time>2026-04-04T13:39:03.104Z</time></trkpt><trkpt lat="44.6998183" lon="8.2176817"><ele>181.5</ele><time>2026-04-04T13:39:04.104Z</time></trkpt><trkpt lat="44.6999117" lon="8.2178233"><ele>181.0</ele><time>2026-04-04T13:39:05.102Z</time></trkpt><trkpt lat="44.7" lon="8.2179567"><ele>181.0</ele><time>2026-04-04T13:39:06.105Z</time></trkpt><trkpt lat="44.700095" lon="8.2180883"><ele>181.0</ele><time>2026-04-04T13:39:07.099Z</time></trkpt><trkpt lat="44.7001933" lon="8.2182233"><ele>181.0</ele><time>2026-04-04T13:39:08.104Z</time></trkpt><trkpt lat="44.7002967" lon="8.2183633"><ele>181.0</ele><time>2026-04-04T13:39:09.102Z</time></trkpt><trkpt lat="44.7004" lon="8.2185033"><ele>181.0</ele><time>2026-04-04T13:39:10.099Z</time></trkpt><trkpt lat="44.7004983" lon="8.2186483"><ele>181.0</ele><time>2026-04-04T13:39:11.099Z</time></trkpt><trkpt lat="44.7005967" lon="8.218795"><ele>181.0</ele><time>2026-04-04T13:39:12.104Z</time></trkpt><trkpt lat="44.7006933" lon="8.2189467"><ele>181.0</ele><time>2026-04-04T13:39:13.105Z</time></trkpt><trkpt lat="44.7007933" lon="8.2191"><ele>180.75</ele><time>2026-04-04T13:39:14.102Z</time></trkpt><trkpt lat="44.7008933" lon="8.2192533"><ele>180.5</ele><time>2026-04-04T13:39:15.108Z</time></trkpt><trkpt lat="44.7009983" lon="8.2193983"><ele>180.25</ele><time>2026-04-04T13:39:16.103Z</time></trkpt><trkpt lat="44.7010967" lon="8.21955"><ele>180.0</ele><time>2026-04-04T13:39:17.104Z</time></trkpt><trkpt lat="44.7011933" lon="8.219705"><ele>179.5</ele><time>2026-04-04T13:39:18.106Z</time></trkpt><trkpt lat="44.7012917" lon="8.2198567"><ele>179.0</ele><time>2026-04-04T13:39:19.106Z</time></trkpt><trkpt lat="44.70139" lon="8.22001"><ele>178.5</ele><time>2026-04-04T13:39:20.103Z</time></trkpt><trkpt lat="44.701485" lon="8.220165"><ele>178.0</ele><time>2026-04-04T13:39:21.104Z</time></trkpt><trkpt lat="44.7015817" lon="8.2203167"><ele>178.0</ele><time>2026-04-04T13:39:22.104Z</time></trkpt><trkpt lat="44.7016817" lon="8.220465"><ele>178.0</ele><time>2026-04-04T13:39:23.102Z</time></trkpt><trkpt lat="44.7017833" lon="8.2206117"><ele>178.0</ele><time>2026-04-04T13:39:24.106Z</time></trkpt><trkpt lat="44.7018883" lon="8.2207583"><ele>178.0</ele><time>2026-04-04T13:39:25.106Z</time></trkpt><trkpt lat="44.70199" lon="8.2209067"><ele>178.0</ele><time>2026-04-04T13:39:26.106Z</time></trkpt><trkpt lat="44.7020983" lon="8.2210517"><ele>178.0</ele><time>2026-04-04T13:39:27.102Z</time></trkpt><trkpt lat="44.7022033" lon="8.2212"><ele>178.0</ele><time>2026-04-04T13:39:28.099Z</time></trkpt><trkpt lat="44.7023083" lon="8.2213583"><ele>178.66666666666669</ele><time>2026-04-04T13:39:29.106Z</time></trkpt><trkpt lat="44.702415" lon="8.2215117"><ele>179.33333333333334</ele><time>2026-04-04T13:39:30.105Z</time></trkpt><trkpt lat="44.7025183" lon="8.221675"><ele>180.0</ele><time>2026-04-04T13:39:31.104Z</time></trkpt><trkpt lat="44.7026233" lon="8.2218317"><ele>180.0</ele><time>2026-04-04T13:39:32.1Z</time></trkpt><trkpt lat="44.70273" lon="8.2219833"><ele>180.0</ele><time>2026-04-04T13:39:33.101Z</time></trkpt><trkpt lat="44.7028317" lon="8.222135"><ele>180.0</ele><time>2026-04-04T13:39:34.1Z</time></trkpt><trkpt lat="44.70293" lon="8.222285"><ele>180.0</ele><time>2026-04-04T13:39:35.101Z</time></trkpt><trkpt lat="44.7030317" lon="8.2224333"><ele>178.66666666666666</ele><time>2026-04-04T13:39:36.104Z</time></trkpt><trkpt lat="44.70314" lon="8.22258"><ele>177.33333333333331</ele><time>2026-04-04T13:39:37.105Z</time></trkpt><trkpt lat="44.7032467" lon="8.22273"><ele>176.0</ele><time>2026-04-04T13:39:38.102Z</time></trkpt><trkpt lat="44.7033533" lon="8.22288"><ele>176.0</ele><time>2026-04-04T13:39:39.103Z</time></trkpt><trkpt lat="44.7034617" lon="8.2230367"><ele>176.0</ele><time>2026-04-04T13:39:40.103Z</time></trkpt><trkpt lat="44.7035667" lon="8.223195"><ele>176.0</ele><time>2026-04-04T13:39:41.101Z</time></trkpt><trkpt lat="44.7036717" lon="8.2233417"><ele>175.66666666666666</ele><time>2026-04-04T13:39:42.107Z</time></trkpt><trkpt lat="44.7037783" lon="8.2234917"><ele>175.33333333333334</ele><time>2026-04-04T13:39:43.107Z</time></trkpt><trkpt lat="44.7038867" lon="8.2236383"><ele>175.0</ele><time>2026-04-04T13:39:44.1Z</time></trkpt><trkpt lat="44.703995" lon="8.2237883"><ele>175.0</ele><time>2026-04-04T13:39:45.106Z</time></trkpt><trkpt lat="44.7041033" lon="8.22394"><ele>175.0</ele><time>2026-04-04T13:39:46.105Z</time></trkpt><trkpt lat="44.70421" lon="8.2240967"><ele>175.0</ele><time>2026-04-04T13:39:47.108Z</time></trkpt><trkpt lat="44.7043183" lon="8.2242567"><ele>175.25</ele><time>2026-04-04T13:39:48.102Z</time></trkpt><trkpt lat="44.704425" lon="8.2244133"><ele>175.5</ele><time>2026-04-04T13:39:49.102Z</time></trkpt><trkpt lat="44.7045233" lon="8.2245633"><ele>175.75</ele><time>2026-04-04T13:39:50.109Z</time></trkpt><trkpt lat="44.7046233" lon="8.224715"><ele>176.0</ele><time>2026-04-04T13:39:51.102Z</time></trkpt><trkpt lat="44.704725" lon="8.2248667"><ele>176.0</ele><time>2026-04-04T13:39:52.101Z</time></trkpt><trkpt lat="44.7048283" lon="8.2250183"><ele>176.0</ele><time>2026-04-04T13:39:53.102Z</time></trkpt><trkpt lat="44.7049283" lon="8.2251767"><ele>176.0</ele><time>2026-04-04T13:39:54.106Z</time></trkpt><trkpt lat="44.7050317" lon="8.22533"><ele>176.0</ele><time>2026-04-04T13:39:55.1Z</time></trkpt><trkpt lat="44.7051317" lon="8.2254867"><ele>176.0</ele><time>2026-04-04T13:39:56.102Z</time></trkpt><trkpt lat="44.7052367" lon="8.2256433"><ele>176.0</ele><time>2026-04-04T13:39:57.101Z</time></trkpt><trkpt lat="44.7053417" lon="8.2257917"><ele>175.75</ele><time>2026-04-04T13:39:58.101Z</time></trkpt><trkpt lat="44.7054417" lon="8.2259383"><ele>175.5</ele><time>2026-04-04T13:39:59.103Z</time></trkpt><trkpt lat="44.70554" lon="8.2260783"><ele>175.25</ele><time>2026-04-04T13:40:00.102Z</time></trkpt><trkpt lat="44.7056333" lon="8.22622"><ele>175.0</ele><time>2026-04-04T13:40:01.104Z</time></trkpt><trkpt lat="44.7057283" lon="8.226355"><ele>175.5</ele><time>2026-04-04T13:40:02.103Z</time></trkpt><trkpt lat="44.7058183" lon="8.2264883"><ele>176.0</ele><time>2026-04-04T13:40:03.104Z</time></trkpt><trkpt lat="44.7059117" lon="8.2266217"><ele>176.5</ele><time>2026-04-04T13:40:04.106Z</time></trkpt><trkpt lat="44.706005" lon="8.2267533"><ele>177.0</ele><time>2026-04-04T13:40:05.102Z</time></trkpt><trkpt lat="44.706095" lon="8.2268883"><ele>176.25</ele><time>2026-04-04T13:40:06.106Z</time></trkpt><trkpt lat="44.7061833" lon="8.22702"><ele>175.5</ele><time>2026-04-04T13:40:07.106Z</time></trkpt><trkpt lat="44.706275" lon="8.227145"><ele>174.75</ele><time>2026-04-04T13:40:08.103Z</time></trkpt><trkpt lat="44.706365" lon="8.2272683"><ele>174.0</ele><time>2026-04-04T13:40:09.105Z</time></trkpt><trkpt lat="44.7064483" lon="8.2274"><ele>174.0</ele><time>2026-04-04T13:40:10.107Z</time></trkpt><trkpt lat="44.70652" lon="8.2275433"><ele>174.0</ele><time>2026-04-04T13:40:11.106Z</time></trkpt><trkpt lat="44.7066017" lon="8.2276717"><ele>174.0</ele><time>2026-04-04T13:40:12.105Z</time></trkpt><trkpt lat="44.7066833" lon="8.2277983"><ele>174.0</ele><time>2026-04-04T13:40:13.099Z</time></trkpt><trkpt lat="44.7067583" lon="8.2279233"><ele>174.0</ele><time>2026-04-04T13:40:14.108Z</time></trkpt><trkpt lat="44.7068433" lon="8.2280483"><ele>174.0</ele><time>2026-04-04T13:40:15.104Z</time></trkpt><trkpt lat="44.7069283" lon="8.2281717"><ele>174.0</ele><time>2026-04-04T13:40:16.103Z</time></trkpt><trkpt lat="44.7070083" lon="8.2282983"><ele>174.0</ele><time>2026-04-04T13:40:17.107Z</time></trkpt><trkpt lat="44.70709" lon="8.2284117"><ele>173.79999999999998</ele><time>2026-04-04T13:40:18.101Z</time></trkpt><trkpt lat="44.70717" lon="8.2285217"><ele>173.6</ele><time>2026-04-04T13:40:19.101Z</time></trkpt><trkpt lat="44.707245" lon="8.22863"><ele>173.4</ele><time>2026-04-04T13:40:20.101Z</time></trkpt><trkpt lat="44.707315" lon="8.2287367"><ele>173.2</ele><time>2026-04-04T13:40:21.1Z</time></trkpt><trkpt lat="44.7073867" lon="8.228845"><ele>173.0</ele><time>2026-04-04T13:40:22.1Z</time></trkpt><trkpt lat="44.7074533" lon="8.2289533"><ele>173.0</ele><time>2026-04-04T13:40:23.105Z</time></trkpt><trkpt lat="44.7075217" lon="8.2290533"><ele>173.0</ele><time>2026-04-04T13:40:24.102Z</time></trkpt><trkpt lat="44.7075817" lon="8.2291517"><ele>173.0</ele><time>2026-04-04T13:40:25.103Z</time></trkpt><trkpt lat="44.70764" lon="8.22924"><ele>173.0</ele><time>2026-04-04T13:40:26.104Z</time></trkpt><trkpt lat="44.707695" lon="8.2293283"><ele>173.0</ele><time>2026-04-04T13:40:27.111Z</time></trkpt><trkpt lat="44.7077433" lon="8.2294133"><ele>173.0</ele><time>2026-04-04T13:40:28.102Z</time></trkpt><trkpt lat="44.707795" lon="8.2294867"><ele>173.0</ele><time>2026-04-04T13:40:29.104Z</time></trkpt><trkpt lat="44.707845" lon="8.2295617"><ele>173.0</ele><time>2026-04-04T13:40:30.103Z</time></trkpt><trkpt lat="44.707895" lon="8.22964"><ele>173.0</ele><time>2026-04-04T13:40:31.106Z</time></trkpt><trkpt lat="44.7079583" lon="8.2297067"><ele>173.0</ele><time>2026-04-04T13:40:32.105Z</time></trkpt><trkpt lat="44.70802" lon="8.2297783"><ele>173.0</ele><time>2026-04-04T13:40:33.105Z</time></trkpt><trkpt lat="44.7080733" lon="8.2298517"><ele>173.0</ele><time>2026-04-04T13:40:34.102Z</time></trkpt><trkpt lat="44.7081267" lon="8.22992"><ele>173.0</ele><time>2026-04-04T13:40:35.106Z</time></trkpt><trkpt lat="44.70817" lon="8.2299867"><ele>173.0</ele><time>2026-04-04T13:40:36.107Z</time></trkpt><trkpt lat="44.708245" lon="8.2300883"><ele>173.0</ele><time>2026-04-04T13:40:38.099Z</time></trkpt><trkpt lat="44.7082933" lon="8.2301483"><ele>173.0</ele><time>2026-04-04T13:40:40.104Z</time></trkpt><trkpt lat="44.7083967" lon="8.2302367"><ele>173.0</ele><time>2026-04-04T13:41:03.108Z</time></trkpt><trkpt lat="44.7084533" lon="8.2302933"><ele>173.0</ele><time>2026-04-04T13:41:04.102Z</time></trkpt><trkpt lat="44.7085117" lon="8.23035"><ele>173.0</ele><time>2026-04-04T13:41:05.102Z</time></trkpt><trkpt lat="44.7085683" lon="8.2304217"><ele>173.0</ele><time>2026-04-04T13:41:06.1Z</time></trkpt><trkpt lat="44.7086317" lon="8.2304833"><ele>173.0</ele><time>2026-04-04T13:41:07.103Z</time></trkpt><trkpt lat="44.7086967" lon="8.2305633"><ele>173.0</ele><time>2026-04-04T13:41:08.102Z</time></trkpt><trkpt lat="44.7087517" lon="8.2306567"><ele>173.0</ele><time>2026-04-04T13:41:09.104Z</time></trkpt><trkpt lat="44.7088033" lon="8.2307517"><ele>173.0</ele><time>2026-04-04T13:41:10.104Z</time></trkpt><trkpt lat="44.7088483" lon="8.230845"><ele>172.83333333333331</ele><time>2026-04-04T13:41:11.105Z</time></trkpt><trkpt lat="44.7088883" lon="8.2309333"><ele>172.66666666666666</ele><time>2026-04-04T13:41:12.103Z</time></trkpt><trkpt lat="44.7089317" lon="8.2310167"><ele>172.5</ele><time>2026-04-04T13:41:13.106Z</time></trkpt><trkpt lat="44.7089783" lon="8.2310983"><ele>172.33333333333334</ele><time>2026-04-04T13:41:14.106Z</time></trkpt><trkpt lat="44.709015" lon="8.2311833"><ele>172.16666666666669</ele><time>2026-04-04T13:41:15.109Z</time></trkpt><trkpt lat="44.7090617" lon="8.2312833"><ele>172.0</ele><time>2026-04-04T13:41:16.107Z</time></trkpt><trkpt lat="44.709125" lon="8.231385"><ele>172.39999999999998</ele><time>2026-04-04T13:41:17.103Z</time></trkpt><trkpt lat="44.7092017" lon="8.2314867"><ele>172.79999999999998</ele><time>2026-04-04T13:41:18.106Z</time></trkpt><trkpt lat="44.7092783" lon="8.2315917"><ele>173.2</ele><time>2026-04-04T13:41:19.104Z</time></trkpt><trkpt lat="44.7093533" lon="8.2316983"><ele>173.6</ele><time>2026-04-04T13:41:20.107Z</time></trkpt><trkpt lat="44.7094333" lon="8.2318133"><ele>174.0</ele><time>2026-04-04T13:41:21.108Z</time></trkpt><trkpt lat="44.7095183" lon="8.23194"><ele>174.0</ele><time>2026-04-04T13:41:22.104Z</time></trkpt><trkpt lat="44.709605" lon="8.23207"><ele>174.0</ele><time>2026-04-04T13:41:23.103Z</time></trkpt><trkpt lat="44.7096833" lon="8.2322067"><ele>174.0</ele><time>2026-04-04T13:41:24.107Z</time></trkpt><trkpt lat="44.7097633" lon="8.23234"><ele>174.0</ele><time>2026-04-04T13:41:25.106Z</time></trkpt><trkpt lat="44.7098333" lon="8.2324733"><ele>174.0</ele><time>2026-04-04T13:41:26.106Z</time></trkpt><trkpt lat="44.7099017" lon="8.2326067"><ele>174.0</ele><time>2026-04-04T13:41:27.105Z</time></trkpt><trkpt lat="44.7099717" lon="8.2327367"><ele>174.0</ele><time>2026-04-04T13:41:28.108Z</time></trkpt><trkpt lat="44.7100417" lon="8.2328633"><ele>174.0</ele><time>2026-04-04T13:41:29.103Z</time></trkpt><trkpt lat="44.7101183" lon="8.2329817"><ele>174.0</ele><time>2026-04-04T13:41:30.104Z</time></trkpt><trkpt lat="44.7102" lon="8.2330933"><ele>174.0</ele><time>2026-04-04T13:41:31.103Z</time></trkpt><trkpt lat="44.7102817" lon="8.233205"><ele>174.0</ele><time>2026-04-04T13:41:32.105Z</time></trkpt><trkpt lat="44.7103617" lon="8.2333267"><ele>174.0</ele><time>2026-04-04T13:41:33.111Z</time></trkpt><trkpt lat="44.7104467" lon="8.2334533"><ele>173.0</ele><time>2026-04-04T13:41:34.104Z</time></trkpt><trkpt lat="44.7105333" lon="8.2335867"><ele>172.0</ele><time>2026-04-04T13:41:35.106Z</time></trkpt><trkpt lat="44.710615" lon="8.2337133"><ele>171.0</ele><time>2026-04-04T13:41:36.105Z</time></trkpt><trkpt lat="44.7107" lon="8.233835"><ele>170.0</ele><time>2026-04-04T13:41:37.114Z</time></trkpt><trkpt lat="44.7107817" lon="8.2339567"><ele>169.6</ele><time>2026-04-04T13:41:38.104Z</time></trkpt><trkpt lat="44.710855" lon="8.2340667"><ele>169.2</ele><time>2026-04-04T13:41:39.112Z</time></trkpt><trkpt lat="44.7109217" lon="8.2341733"><ele>168.8</ele><time>2026-04-04T13:41:40.106Z</time></trkpt><trkpt lat="44.7109967" lon="8.2342717"><ele>168.4</ele><time>2026-04-04T13:41:41.106Z</time></trkpt><trkpt lat="44.7110817" lon="8.234365"><ele>168.0</ele><time>2026-04-04T13:41:42.101Z</time></trkpt><trkpt lat="44.7111633" lon="8.2344667"><ele>168.0</ele><time>2026-04-04T13:41:43.101Z</time></trkpt><trkpt lat="44.7112433" lon="8.2345833"><ele>168.0</ele><time>2026-04-04T13:41:44.101Z</time></trkpt><trkpt lat="44.7113217" lon="8.2347183"><ele>168.0</ele><time>2026-04-04T13:41:45.102Z</time></trkpt><trkpt lat="44.71139" lon="8.2348617"><ele>168.0</ele><time>2026-04-04T13:41:46.102Z</time></trkpt><trkpt lat="44.711455" lon="8.235015"><ele>168.0</ele><time>2026-04-04T13:41:47.099Z</time></trkpt><trkpt lat="44.7115117" lon="8.235175"><ele>168.0</ele><time>2026-04-04T13:41:48.099Z</time></trkpt><trkpt lat="44.7115617" lon="8.2353433"><ele>168.0</ele><time>2026-04-04T13:41:49.1Z</time></trkpt><trkpt lat="44.711605" lon="8.23552"><ele>168.0</ele><time>2026-04-04T13:41:50.102Z</time></trkpt><trkpt lat="44.71164" lon="8.2357"><ele>167.75</ele><time>2026-04-04T13:41:51.103Z</time></trkpt><trkpt lat="44.71167" lon="8.235885"><ele>167.5</ele><time>2026-04-04T13:41:52.1Z</time></trkpt><trkpt lat="44.7117017" lon="8.2360783"><ele>167.25</ele><time>2026-04-04T13:41:53.101Z</time></trkpt><trkpt lat="44.711735" lon="8.2362983"><ele>167.0</ele><time>2026-04-04T13:41:54.101Z</time></trkpt><trkpt lat="44.711775" lon="8.2365483"><ele>167.0</ele><time>2026-04-04T13:41:55.106Z</time></trkpt><trkpt lat="44.7118133" lon="8.2368133"><ele>167.0</ele><time>2026-04-04T13:41:56.102Z</time></trkpt><trkpt lat="44.7118467" lon="8.2370717"><ele>167.0</ele><time>2026-04-04T13:41:57.103Z</time></trkpt><trkpt lat="44.7118783" lon="8.2373167"><ele>166.33333333333331</ele><time>2026-04-04T13:41:58.106Z</time></trkpt><trkpt lat="44.7119167" lon="8.237555"><ele>165.66666666666666</ele><time>2026-04-04T13:41:59.106Z</time></trkpt><trkpt lat="44.7119533" lon="8.2377867"><ele>165.0</ele><time>2026-04-04T13:42:00.103Z</time></trkpt><trkpt lat="44.71199" lon="8.2380133"><ele>165.33333333333334</ele><time>2026-04-04T13:42:01.102Z</time></trkpt><trkpt lat="44.71203" lon="8.2382367"><ele>165.66666666666669</ele><time>2026-04-04T13:42:02.106Z</time></trkpt><trkpt lat="44.7120683" lon="8.23846"><ele>166.0</ele><time>2026-04-04T13:42:03.105Z</time></trkpt><trkpt lat="44.7121117" lon="8.2386833"><ele>166.0</ele><time>2026-04-04T13:42:04.112Z</time></trkpt><trkpt lat="44.7121533" lon="8.23891"><ele>166.0</ele><time>2026-04-04T13:42:05.102Z</time></trkpt><trkpt lat="44.7121883" lon="8.2391383"><ele>166.0</ele><time>2026-04-04T13:42:06.102Z</time></trkpt><trkpt lat="44.7122233" lon="8.2393683"><ele>165.66666666666669</ele><time>2026-04-04T13:42:07.105Z</time></trkpt><trkpt lat="44.71226" lon="8.2396"><ele>165.33333333333334</ele><time>2026-04-04T13:42:08.103Z</time></trkpt><trkpt lat="44.7123" lon="8.23983"><ele>165.0</ele><time>2026-04-04T13:42:09.103Z</time></trkpt><trkpt lat="44.712345" lon="8.2400583"><ele>165.0</ele><time>2026-04-04T13:42:10.1Z</time></trkpt><trkpt lat="44.7123867" lon="8.2402917"><ele>165.0</ele><time>2026-04-04T13:42:11.103Z</time></trkpt><trkpt lat="44.71243" lon="8.2405217"><ele>165.0</ele><time>2026-04-04T13:42:12.101Z</time></trkpt><trkpt lat="44.7124767" lon="8.2407483"><ele>164.66666666666666</ele><time>2026-04-04T13:42:13.101Z</time></trkpt><trkpt lat="44.7125167" lon="8.2409767"><ele>164.33333333333331</ele><time>2026-04-04T13:42:14.104Z</time></trkpt><trkpt lat="44.7125567" lon="8.241205"><ele>164.0</ele><time>2026-04-04T13:42:15.102Z</time></trkpt><trkpt lat="44.712595" lon="8.2414317"><ele>163.66666666666666</ele><time>2026-04-04T13:42:16.103Z</time></trkpt><trkpt lat="44.712635" lon="8.2416617"><ele>163.33333333333334</ele><time>2026-04-04T13:42:17.102Z</time></trkpt><trkpt lat="44.7126733" lon="8.2418917"><ele>163.0</ele><time>2026-04-04T13:42:18.101Z</time></trkpt><trkpt lat="44.7127133" lon="8.242115"><ele>163.0</ele><time>2026-04-04T13:42:19.107Z</time></trkpt><trkpt lat="44.7127533" lon="8.2423367"><ele>163.0</ele><time>2026-04-04T13:42:20.108Z</time></trkpt><trkpt lat="44.7127933" lon="8.2425417"><ele>163.0</ele><time>2026-04-04T13:42:21.105Z</time></trkpt><trkpt lat="44.7128283" lon="8.2427317"><ele>163.0</ele><time>2026-04-04T13:42:22.108Z</time></trkpt><trkpt lat="44.7128567" lon="8.2428917"><ele>163.0</ele><time>2026-04-04T13:42:23.107Z</time></trkpt><trkpt lat="44.7128667" lon="8.2430233"><ele>163.0</ele><time>2026-04-04T13:42:24.1Z</time></trkpt><trkpt lat="44.7128617" lon="8.2431333"><ele>163.0</ele><time>2026-04-04T13:42:25.103Z</time></trkpt><trkpt lat="44.712845" lon="8.2432283"><ele>163.0</ele><time>2026-04-04T13:42:26.101Z</time></trkpt><trkpt lat="44.71276" lon="8.243275"><ele>163.2</ele><time>2026-04-04T13:42:27.104Z</time></trkpt><trkpt lat="44.7126683" lon="8.2433083"><ele>163.4</ele><time>2026-04-04T13:42:28.098Z</time></trkpt><trkpt lat="44.7125583" lon="8.2433417"><ele>163.6</ele><time>2026-04-04T13:42:29.102Z</time></trkpt><trkpt lat="44.7124467" lon="8.2433733"><ele>163.79999999999998</ele><time>2026-04-04T13:42:30.097Z</time></trkpt><trkpt lat="44.71234" lon="8.2434"><ele>164.0</ele><time>2026-04-04T13:42:31.106Z</time></trkpt><trkpt lat="44.7122533" lon="8.2434117"><ele>163.99999999999997</ele><time>2026-04-04T13:42:32.101Z</time></trkpt><trkpt lat="44.7121767" lon="8.2434033"><ele>164.0</ele><time>2026-04-04T13:42:33.101Z</time></trkpt><trkpt lat="44.71211" lon="8.2433783"><ele>164.0</ele><time>2026-04-04T13:42:34.1Z</time></trkpt><trkpt lat="44.7120383" lon="8.243355"><ele>164.0</ele><time>2026-04-04T13:42:35.101Z</time></trkpt><trkpt lat="44.7119667" lon="8.24335"><ele>164.0</ele><time>2026-04-04T13:42:36.1Z</time></trkpt><trkpt lat="44.7119183" lon="8.2434067"><ele>163.99999999999997</ele><time>2026-04-04T13:42:37.102Z</time></trkpt><trkpt lat="44.7119017" lon="8.2434933"><ele>164.0</ele><time>2026-04-04T13:42:38.101Z</time></trkpt><trkpt lat="44.711895" lon="8.2435983"><ele>164.5</ele><time>2026-04-04T13:42:39.097Z</time></trkpt><trkpt lat="44.7118967" lon="8.2437217"><ele>165.0</ele><time>2026-04-04T13:42:40.097Z</time></trkpt><trkpt lat="44.7118933" lon="8.2438733"><ele>165.5</ele><time>2026-04-04T13:42:41.104Z</time></trkpt><trkpt lat="44.7118567" lon="8.2440917"><ele>166.0</ele><time>2026-04-04T13:42:42.103Z</time></trkpt><trkpt lat="44.71181" lon="8.2443283"><ele>166.0</ele><time>2026-04-04T13:42:43.103Z</time></trkpt><trkpt lat="44.7117633" lon="8.2445767"><ele>166.0</ele><time>2026-04-04T13:42:44.113Z</time></trkpt><trkpt lat="44.711715" lon="8.2448633"><ele>166.0</ele><time>2026-04-04T13:42:45.106Z</time></trkpt><trkpt lat="44.7116667" lon="8.2451783"><ele>166.0</ele><time>2026-04-04T13:42:46.099Z</time></trkpt><trkpt lat="44.7116233" lon="8.245495"><ele>166.0</ele><time>2026-04-04T13:42:47.108Z</time></trkpt><trkpt lat="44.7115867" lon="8.2457833"><ele>166.0</ele><time>2026-04-04T13:42:48.098Z</time></trkpt><trkpt lat="44.711555" lon="8.2460467"><ele>165.33333333333334</ele><time>2026-04-04T13:42:49.105Z</time></trkpt><trkpt lat="44.71153" lon="8.246295"><ele>164.66666666666666</ele><time>2026-04-04T13:42:50.101Z</time></trkpt><trkpt lat="44.7115133" lon="8.2465317"><ele>164.0</ele><time>2026-04-04T13:42:51.104Z</time></trkpt><trkpt lat="44.711505" lon="8.2467633"><ele>163.0</ele><time>2026-04-04T13:42:52.106Z</time></trkpt><trkpt lat="44.7114983" lon="8.2469867"><ele>162.0</ele><time>2026-04-04T13:42:53.107Z</time></trkpt><trkpt lat="44.7114967" lon="8.2472083"><ele>161.0</ele><time>2026-04-04T13:42:54.106Z</time></trkpt><trkpt lat="44.711495" lon="8.2474283"><ele>161.0</ele><time>2026-04-04T13:42:55.103Z</time></trkpt><trkpt lat="44.711495" lon="8.24765"><ele>161.0</ele><time>2026-04-04T13:42:56.108Z</time></trkpt><trkpt lat="44.7114967" lon="8.2478733"><ele>161.0</ele><time>2026-04-04T13:42:57.106Z</time></trkpt><trkpt lat="44.7115067" lon="8.2480967"><ele>161.66666666666666</ele><time>2026-04-04T13:42:58.101Z</time></trkpt><trkpt lat="44.7115233" lon="8.2483183"><ele>162.33333333333334</ele><time>2026-04-04T13:42:59.101Z</time></trkpt><trkpt lat="44.7115433" lon="8.2485417"><ele>163.0</ele><time>2026-04-04T13:43:00.098Z</time></trkpt><trkpt lat="44.7115633" lon="8.248765"><ele>163.33333333333334</ele><time>2026-04-04T13:43:01.112Z</time></trkpt><trkpt lat="44.7115883" lon="8.2489883"><ele>163.66666666666666</ele><time>2026-04-04T13:43:02.104Z</time></trkpt><trkpt lat="44.7116167" lon="8.24921"><ele>164.0</ele><time>2026-04-04T13:43:03.101Z</time></trkpt><trkpt lat="44.7116467" lon="8.2494283"><ele>164.0</ele><time>2026-04-04T13:43:04.105Z</time></trkpt><trkpt lat="44.7116817" lon="8.2496433"><ele>164.0</ele><time>2026-04-04T13:43:05.104Z</time></trkpt><trkpt lat="44.7117233" lon="8.2498533"><ele>164.0</ele><time>2026-04-04T13:43:06.106Z</time></trkpt><trkpt lat="44.7117667" lon="8.2500617"><ele>165.0</ele><time>2026-04-04T13:43:07.106Z</time></trkpt><trkpt lat="44.7118133" lon="8.2502733"><ele>166.0</ele><time>2026-04-04T13:43:08.108Z</time></trkpt><trkpt lat="44.7118633" lon="8.2504867"><ele>167.0</ele><time>2026-04-04T13:43:09.107Z</time></trkpt><trkpt lat="44.711915" lon="8.2506967"><ele>172.0</ele><time>2026-04-04T13:43:10.11Z</time></trkpt><trkpt lat="44.711965" lon="8.2509117"><ele>177.0</ele><time>2026-04-04T13:43:11.108Z</time></trkpt><trkpt lat="44.7120183" lon="8.2511317"><ele>182.0</ele><time>2026-04-04T13:43:12.106Z</time></trkpt><trkpt lat="44.7120783" lon="8.2513583"><ele>179.0</ele><time>2026-04-04T13:43:13.101Z</time></trkpt><trkpt lat="44.7121383" lon="8.251595"><ele>176.0</ele><time>2026-04-04T13:43:14.103Z</time></trkpt><trkpt lat="44.7122" lon="8.2518367"><ele>173.0</ele><time>2026-04-04T13:43:15.105Z</time></trkpt><trkpt lat="44.712265" lon="8.25208"><ele>171.33333333333331</ele><time>2026-04-04T13:43:16.11Z</time></trkpt><trkpt lat="44.712335" lon="8.252325"><ele>169.66666666666666</ele><time>2026-04-04T13:43:17.105Z</time></trkpt><trkpt lat="44.7124017" lon="8.2525733"><ele>168.0</ele><time>2026-04-04T13:43:18.102Z</time></trkpt><trkpt lat="44.7124683" lon="8.2528217"><ele>168.0</ele><time>2026-04-04T13:43:19.104Z</time></trkpt><trkpt lat="44.712535" lon="8.2530767"><ele>168.0</ele><time>2026-04-04T13:43:20.1Z</time></trkpt><trkpt lat="44.7126" lon="8.2533333"><ele>168.0</ele><time>2026-04-04T13:43:21.1Z</time></trkpt><trkpt lat="44.7126683" lon="8.2535817"><ele>167.0</ele><time>2026-04-04T13:43:22.1Z</time></trkpt><trkpt lat="44.712735" lon="8.2538333"><ele>166.0</ele><time>2026-04-04T13:43:23.105Z</time></trkpt><trkpt lat="44.712805" lon="8.254085"><ele>165.0</ele><time>2026-04-04T13:43:24.103Z</time></trkpt><trkpt lat="44.7128717" lon="8.25434"><ele>167.33333333333334</ele><time>2026-04-04T13:43:25.104Z</time></trkpt><trkpt lat="44.7129417" lon="8.254595"><ele>169.66666666666669</ele><time>2026-04-04T13:43:26.103Z</time></trkpt><trkpt lat="44.7130083" lon="8.2548533"><ele>172.0</ele><time>2026-04-04T13:43:27.105Z</time></trkpt><trkpt lat="44.7130717" lon="8.2551167"><ele>172.0</ele><time>2026-04-04T13:43:28.104Z</time></trkpt><trkpt lat="44.7131383" lon="8.2553817"><ele>172.0</ele><time>2026-04-04T13:43:29.106Z</time></trkpt><trkpt lat="44.713205" lon="8.255645"><ele>172.0</ele><time>2026-04-04T13:43:30.102Z</time></trkpt><trkpt lat="44.71326" lon="8.2559083"><ele>171.66666666666669</ele><time>2026-04-04T13:43:31.107Z</time></trkpt><trkpt lat="44.7133033" lon="8.2561717"><ele>171.33333333333334</ele><time>2026-04-04T13:43:32.101Z</time></trkpt><trkpt lat="44.7133283" lon="8.256435"><ele>171.0</ele><time>2026-04-04T13:43:33.102Z</time></trkpt><trkpt lat="44.7133317" lon="8.2566933"><ele>171.0</ele><time>2026-04-04T13:43:34.099Z</time></trkpt><trkpt lat="44.713325" lon="8.2569433"><ele>171.0</ele><time>2026-04-04T13:43:35.103Z</time></trkpt><trkpt lat="44.7133017" lon="8.2571867"><ele>171.0</ele><time>2026-04-04T13:43:36.103Z</time></trkpt><trkpt lat="44.713265" lon="8.2574217"><ele>172.0</ele><time>2026-04-04T13:43:37.104Z</time></trkpt><trkpt lat="44.7132217" lon="8.25764"><ele>173.0</ele><time>2026-04-04T13:43:38.101Z</time></trkpt><trkpt lat="44.71318" lon="8.2578567"><ele>174.0</ele><time>2026-04-04T13:43:39.105Z</time></trkpt><trkpt lat="44.7131383" lon="8.2580767"><ele>175.0</ele><time>2026-04-04T13:43:40.1Z</time></trkpt><trkpt lat="44.7130983" lon="8.258305"><ele>176.0</ele><time>2026-04-04T13:43:41.107Z</time></trkpt><trkpt lat="44.7130583" lon="8.2585333"><ele>177.0</ele><time>2026-04-04T13:43:42.101Z</time></trkpt><trkpt lat="44.7130217" lon="8.258765"><ele>178.66666666666666</ele><time>2026-04-04T13:43:43.101Z</time></trkpt><trkpt lat="44.7129817" lon="8.2590033"><ele>180.33333333333331</ele><time>2026-04-04T13:43:44.102Z</time></trkpt><trkpt lat="44.7129517" lon="8.2592483"><ele>182.0</ele><time>2026-04-04T13:43:45.109Z</time></trkpt><trkpt lat="44.7129267" lon="8.2594967"><ele>182.0</ele><time>2026-04-04T13:43:46.103Z</time></trkpt><trkpt lat="44.712895" lon="8.2597467"><ele>182.0</ele><time>2026-04-04T13:43:47.109Z</time></trkpt><trkpt lat="44.7128617" lon="8.2599967"><ele>182.0</ele><time>2026-04-04T13:43:48.103Z</time></trkpt><trkpt lat="44.71283" lon="8.2602467"><ele>182.66666666666666</ele><time>2026-04-04T13:43:49.1Z</time></trkpt><trkpt lat="44.712795" lon="8.2605"><ele>183.33333333333334</ele><time>2026-04-04T13:43:50.103Z</time></trkpt><trkpt lat="44.71276" lon="8.260755"><ele>184.0</ele><time>2026-04-04T13:43:51.109Z</time></trkpt><trkpt lat="44.7127267" lon="8.2610117"><ele>178.0</ele><time>2026-04-04T13:43:52.099Z</time></trkpt><trkpt lat="44.7126917" lon="8.2612733"><ele>172.0</ele><time>2026-04-04T13:43:53.101Z</time></trkpt><trkpt lat="44.71266" lon="8.26154"><ele>166.0</ele><time>2026-04-04T13:43:54.102Z</time></trkpt><trkpt lat="44.71264" lon="8.2618117"><ele>165.66666666666669</ele><time>2026-04-04T13:43:55.101Z</time></trkpt><trkpt lat="44.7126167" lon="8.262085"><ele>165.33333333333334</ele><time>2026-04-04T13:43:56.102Z</time></trkpt><trkpt lat="44.7125867" lon="8.2623533"><ele>165.0</ele><time>2026-04-04T13:43:57.101Z</time></trkpt><trkpt lat="44.7125633" lon="8.2626267"><ele>164.33333333333334</ele><time>2026-04-04T13:43:58.102Z</time></trkpt><trkpt lat="44.7125317" lon="8.2628917"><ele>163.66666666666669</ele><time>2026-04-04T13:43:59.103Z</time></trkpt><trkpt lat="44.7125017" lon="8.263155"><ele>163.0</ele><time>2026-04-04T13:44:00.104Z</time></trkpt><trkpt lat="44.7124717" lon="8.2634117"><ele>164.33333333333334</ele><time>2026-04-04T13:44:01.106Z</time></trkpt><trkpt lat="44.712445" lon="8.2636683"><ele>165.66666666666666</ele><time>2026-04-04T13:44:02.104Z</time></trkpt><trkpt lat="44.7124183" lon="8.2639217"><ele>167.0</ele><time>2026-04-04T13:44:03.102Z</time></trkpt><trkpt lat="44.71239" lon="8.2641667"><ele>168.33333333333331</ele><time>2026-04-04T13:44:04.102Z</time></trkpt><trkpt lat="44.71236" lon="8.2643983"><ele>169.66666666666666</ele><time>2026-04-04T13:44:05.102Z</time></trkpt><trkpt lat="44.71234" lon="8.2646233"><ele>171.0</ele><time>2026-04-04T13:44:06.1Z</time></trkpt><trkpt lat="44.7123317" lon="8.264845"><ele>171.33333333333334</ele><time>2026-04-04T13:44:07.104Z</time></trkpt><trkpt lat="44.7123333" lon="8.265065"><ele>171.66666666666669</ele><time>2026-04-04T13:44:08.104Z</time></trkpt><trkpt lat="44.7123483" lon="8.26528"><ele>172.0</ele><time>2026-04-04T13:44:09.102Z</time></trkpt><trkpt lat="44.7123817" lon="8.26549"><ele>170.0</ele><time>2026-04-04T13:44:10.109Z</time></trkpt><trkpt lat="44.7124367" lon="8.2656983"><ele>168.0</ele><time>2026-04-04T13:44:11.107Z</time></trkpt><trkpt lat="44.712505" lon="8.265905"><ele>166.0</ele><time>2026-04-04T13:44:12.103Z</time></trkpt><trkpt lat="44.7125917" lon="8.266115"><ele>166.0</ele><time>2026-04-04T13:44:13.104Z</time></trkpt><trkpt lat="44.712685" lon="8.2663283"><ele>166.0</ele><time>2026-04-04T13:44:14.108Z</time></trkpt><trkpt lat="44.71278" lon="8.2665333"><ele>166.0</ele><time>2026-04-04T13:44:15.107Z</time></trkpt><trkpt lat="44.7128767" lon="8.266725"><ele>168.66666666666669</ele><time>2026-04-04T13:44:16.104Z</time></trkpt><trkpt lat="44.712975" lon="8.2669083"><ele>171.33333333333334</ele><time>2026-04-04T13:44:17.099Z</time></trkpt><trkpt lat="44.7130767" lon="8.267085"><ele>174.0</ele><time>2026-04-04T13:44:18.108Z</time></trkpt><trkpt lat="44.7131817" lon="8.2672567"><ele>169.0</ele><time>2026-04-04T13:44:19.104Z</time></trkpt><trkpt lat="44.7132933" lon="8.2674167"><ele>164.0</ele><time>2026-04-04T13:44:20.1Z</time></trkpt><trkpt lat="44.7134083" lon="8.2675617"><ele>159.0</ele><time>2026-04-04T13:44:21.102Z</time></trkpt><trkpt lat="44.71353" lon="8.267695"><ele>163.66666666666666</ele><time>2026-04-04T13:44:22.098Z</time></trkpt><trkpt lat="44.7136567" lon="8.2678217"><ele>168.33333333333331</ele><time>2026-04-04T13:44:23.103Z</time></trkpt><trkpt lat="44.7137867" lon="8.26795"><ele>173.0</ele><time>2026-04-04T13:44:24.108Z</time></trkpt><trkpt lat="44.7139217" lon="8.268085"><ele>168.66666666666666</ele><time>2026-04-04T13:44:25.101Z</time></trkpt><trkpt lat="44.7140583" lon="8.268225"><ele>164.33333333333334</ele><time>2026-04-04T13:44:26.1Z</time></trkpt><trkpt lat="44.7142" lon="8.26836"><ele>160.0</ele><time>2026-04-04T13:44:27.101Z</time></trkpt><trkpt lat="44.7143467" lon="8.2684867"><ele>162.66666666666669</ele><time>2026-04-04T13:44:28.101Z</time></trkpt><trkpt lat="44.7144967" lon="8.268605"><ele>165.33333333333334</ele><time>2026-04-04T13:44:29.102Z</time></trkpt><trkpt lat="44.7146517" lon="8.2687183"><ele>168.0</ele><time>2026-04-04T13:44:30.102Z</time></trkpt><trkpt lat="44.7148017" lon="8.2688233"><ele>168.0</ele><time>2026-04-04T13:44:31.105Z</time></trkpt><trkpt lat="44.714955" lon="8.2689283"><ele>168.0</ele><time>2026-04-04T13:44:32.105Z</time></trkpt><trkpt lat="44.71511" lon="8.2690317"><ele>168.0</ele><time>2026-04-04T13:44:33.101Z</time></trkpt><trkpt lat="44.71526" lon="8.26913"><ele>167.0</ele><time>2026-04-04T13:44:34.103Z</time></trkpt><trkpt lat="44.71541" lon="8.2692317"><ele>166.0</ele><time>2026-04-04T13:44:35.106Z</time></trkpt><trkpt lat="44.7155567" lon="8.269335"><ele>165.0</ele><time>2026-04-04T13:44:36.105Z</time></trkpt><trkpt lat="44.7157017" lon="8.26944"><ele>165.0</ele><time>2026-04-04T13:44:37.108Z</time></trkpt><trkpt lat="44.7158433" lon="8.2695383"><ele>165.0</ele><time>2026-04-04T13:44:38.103Z</time></trkpt><trkpt lat="44.71598" lon="8.269635"><ele>165.0</ele><time>2026-04-04T13:44:39.103Z</time></trkpt><trkpt lat="44.716115" lon="8.2697417"><ele>165.66666666666666</ele><time>2026-04-04T13:44:40.103Z</time></trkpt><trkpt lat="44.716245" lon="8.2698583"><ele>166.33333333333331</ele><time>2026-04-04T13:44:41.107Z</time></trkpt><trkpt lat="44.7163717" lon="8.26998"><ele>167.0</ele><time>2026-04-04T13:44:42.1Z</time></trkpt><trkpt lat="44.7164917" lon="8.2701183"><ele>167.0</ele><time>2026-04-04T13:44:43.102Z</time></trkpt><trkpt lat="44.716605" lon="8.2702633"><ele>167.0</ele><time>2026-04-04T13:44:44.099Z</time></trkpt><trkpt lat="44.7167067" lon="8.2704167"><ele>167.0</ele><time>2026-04-04T13:44:45.109Z</time></trkpt><trkpt lat="44.7168017" lon="8.2705783"><ele>169.25</ele><time>2026-04-04T13:44:46.102Z</time></trkpt><trkpt lat="44.71689" lon="8.2707483"><ele>171.5</ele><time>2026-04-04T13:44:47.101Z</time></trkpt><trkpt lat="44.7169733" lon="8.2709183"><ele>173.75</ele><time>2026-04-04T13:44:48.108Z</time></trkpt><trkpt lat="44.7170483" lon="8.27109"><ele>176.0</ele><time>2026-04-04T13:44:49.107Z</time></trkpt><trkpt lat="44.7171183" lon="8.27125"><ele>176.0</ele><time>2026-04-04T13:44:50.104Z</time></trkpt><trkpt lat="44.717185" lon="8.2714017"><ele>176.0</ele><time>2026-04-04T13:44:51.096Z</time></trkpt><trkpt lat="44.717245" lon="8.2715517"><ele>176.0</ele><time>2026-04-04T13:44:52.103Z</time></trkpt><trkpt lat="44.7173033" lon="8.2716967"><ele>176.0</ele><time>2026-04-04T13:44:53.103Z</time></trkpt><trkpt lat="44.717365" lon="8.2718383"><ele>173.20000000000002</ele><time>2026-04-04T13:44:54.102Z</time></trkpt><trkpt lat="44.7174217" lon="8.2719767"><ele>170.4</ele><time>2026-04-04T13:44:55.102Z</time></trkpt><trkpt lat="44.7174767" lon="8.2721117"><ele>167.6</ele><time>2026-04-04T13:44:56.101Z</time></trkpt><trkpt lat="44.7175267" lon="8.2722517"><ele>164.8</ele><time>2026-04-04T13:44:57.105Z</time></trkpt><trkpt lat="44.7175767" lon="8.272395"><ele>162.0</ele><time>2026-04-04T13:44:58.101Z</time></trkpt><trkpt lat="44.7176183" lon="8.2725367"><ele>162.0</ele><time>2026-04-04T13:44:59.105Z</time></trkpt><trkpt lat="44.7176517" lon="8.2726717"><ele>162.0</ele><time>2026-04-04T13:45:00.103Z</time></trkpt><trkpt lat="44.7176883" lon="8.2727983"><ele>162.0</ele><time>2026-04-04T13:45:01.109Z</time></trkpt><trkpt lat="44.7177217" lon="8.2729233"><ele>162.0</ele><time>2026-04-04T13:45:02.111Z</time></trkpt><trkpt lat="44.717755" lon="8.273045"><ele>162.0</ele><time>2026-04-04T13:45:03.106Z</time></trkpt><trkpt lat="44.71778" lon="8.2731683"><ele>162.0</ele><time>2026-04-04T13:45:04.103Z</time></trkpt><trkpt lat="44.7178033" lon="8.2732967"><ele>162.0</ele><time>2026-04-04T13:45:05.102Z</time></trkpt><trkpt lat="44.7178267" lon="8.273435"><ele>162.0</ele><time>2026-04-04T13:45:06.101Z</time></trkpt><trkpt lat="44.7178483" lon="8.2735783"><ele>162.0</ele><time>2026-04-04T13:45:07.105Z</time></trkpt><trkpt lat="44.717865" lon="8.2737217"><ele>162.0</ele><time>2026-04-04T13:45:08.103Z</time></trkpt><trkpt lat="44.7178767" lon="8.2738667"><ele>161.8</ele><time>2026-04-04T13:45:09.101Z</time></trkpt><trkpt lat="44.7178867" lon="8.274015"><ele>161.6</ele><time>2026-04-04T13:45:10.1Z</time></trkpt><trkpt lat="44.717895" lon="8.274165"><ele>161.4</ele><time>2026-04-04T13:45:11.11Z</time></trkpt><trkpt lat="44.717905" lon="8.27431"><ele>161.20000000000002</ele><time>2026-04-04T13:45:12.103Z</time></trkpt><trkpt lat="44.7179083" lon="8.2744617"><ele>161.0</ele><time>2026-04-04T13:45:13.101Z</time></trkpt><trkpt lat="44.7179117" lon="8.2746067"><ele>161.0</ele><time>2026-04-04T13:45:14.099Z</time></trkpt><trkpt lat="44.717915" lon="8.2747433"><ele>161.0</ele><time>2026-04-04T13:45:15.101Z</time></trkpt><trkpt lat="44.7179133" lon="8.27487"><ele>161.0</ele><time>2026-04-04T13:45:16.101Z</time></trkpt><trkpt lat="44.7179133" lon="8.274985"><ele>161.0</ele><time>2026-04-04T13:45:17.104Z</time></trkpt><trkpt lat="44.7179133" lon="8.2750983"><ele>161.0</ele><time>2026-04-04T13:45:18.103Z</time></trkpt><trkpt lat="44.7179167" lon="8.275215"><ele>161.0</ele><time>2026-04-04T13:45:19.104Z</time></trkpt><trkpt lat="44.7179267" lon="8.27534"><ele>160.4</ele><time>2026-04-04T13:45:20.104Z</time></trkpt><trkpt lat="44.7179333" lon="8.2754783"><ele>159.8</ele><time>2026-04-04T13:45:21.108Z</time></trkpt><trkpt lat="44.7179383" lon="8.2756233"><ele>159.20000000000002</ele><time>2026-04-04T13:45:22.106Z</time></trkpt><trkpt lat="44.7179383" lon="8.2757733"><ele>158.60000000000002</ele><time>2026-04-04T13:45:23.11Z</time></trkpt><trkpt lat="44.71795" lon="8.2759233"><ele>158.0</ele><time>2026-04-04T13:45:24.103Z</time></trkpt><trkpt lat="44.7179533" lon="8.2760717"><ele>157.6</ele><time>2026-04-04T13:45:25.104Z</time></trkpt><trkpt lat="44.7179733" lon="8.2762167"><ele>157.20000000000002</ele><time>2026-04-04T13:45:26.101Z</time></trkpt><trkpt lat="44.7179717" lon="8.2763667"><ele>156.8</ele><time>2026-04-04T13:45:27.102Z</time></trkpt><trkpt lat="44.7179833" lon="8.2765183"><ele>156.4</ele><time>2026-04-04T13:45:28.102Z</time></trkpt><trkpt lat="44.7179917" lon="8.2766767"><ele>156.0</ele><time>2026-04-04T13:45:29.106Z</time></trkpt><trkpt lat="44.718005" lon="8.2768317"><ele>155.8</ele><time>2026-04-04T13:45:30.103Z</time></trkpt><trkpt lat="44.7180117" lon="8.2769917"><ele>155.6</ele><time>2026-04-04T13:45:31.103Z</time></trkpt><trkpt lat="44.7180083" lon="8.2771467"><ele>155.4</ele><time>2026-04-04T13:45:32.106Z</time></trkpt><trkpt lat="44.7180083" lon="8.2773017"><ele>155.2</ele><time>2026-04-04T13:45:33.101Z</time></trkpt><trkpt lat="44.7180133" lon="8.277455"><ele>155.0</ele><time>2026-04-04T13:45:34.101Z</time></trkpt><trkpt lat="44.71802" lon="8.277605"><ele>155.0</ele><time>2026-04-04T13:45:35.101Z</time></trkpt><trkpt lat="44.7180267" lon="8.2777517"><ele>155.0</ele><time>2026-04-04T13:45:36.103Z</time></trkpt><trkpt lat="44.7180317" lon="8.2778983"><ele>155.0</ele><time>2026-04-04T13:45:37.105Z</time></trkpt><trkpt lat="44.7180367" lon="8.27805"><ele>155.0</ele><time>2026-04-04T13:45:38.102Z</time></trkpt><trkpt lat="44.7180417" lon="8.2781933"><ele>155.0</ele><time>2026-04-04T13:45:39.103Z</time></trkpt><trkpt lat="44.71805" lon="8.278335"><ele>155.0</ele><time>2026-04-04T13:45:40.107Z</time></trkpt><trkpt lat="44.718055" lon="8.2784767"><ele>155.0</ele><time>2026-04-04T13:45:41.103Z</time></trkpt><trkpt lat="44.7180617" lon="8.2786183"><ele>155.0</ele><time>2026-04-04T13:45:42.101Z</time></trkpt><trkpt lat="44.7180683" lon="8.2787583"><ele>155.0</ele><time>2026-04-04T13:45:43.104Z</time></trkpt><trkpt lat="44.718075" lon="8.2789033"><ele>155.0</ele><time>2026-04-04T13:45:44.103Z</time></trkpt><trkpt lat="44.7180783" lon="8.279045"><ele>155.0</ele><time>2026-04-04T13:45:45.104Z</time></trkpt><trkpt lat="44.718085" lon="8.2791883"><ele>155.0</ele><time>2026-04-04T13:45:46.106Z</time></trkpt><trkpt lat="44.7180917" lon="8.279325"><ele>155.0</ele><time>2026-04-04T13:45:47.101Z</time></trkpt><trkpt lat="44.7181017" lon="8.2794667"><ele>155.0</ele><time>2026-04-04T13:45:48.104Z</time></trkpt><trkpt lat="44.718115" lon="8.279615"><ele>155.0</ele><time>2026-04-04T13:45:49.104Z</time></trkpt><trkpt lat="44.7181333" lon="8.2797683"><ele>155.0</ele><time>2026-04-04T13:45:50.102Z</time></trkpt><trkpt lat="44.718145" lon="8.2799267"><ele>155.0</ele><time>2026-04-04T13:45:51.105Z</time></trkpt><trkpt lat="44.718155" lon="8.280095"><ele>155.0</ele><time>2026-04-04T13:45:52.102Z</time></trkpt><trkpt lat="44.7181583" lon="8.280275"><ele>155.0</ele><time>2026-04-04T13:45:53.103Z</time></trkpt><trkpt lat="44.7181633" lon="8.28045"><ele>155.0</ele><time>2026-04-04T13:45:54.104Z</time></trkpt><trkpt lat="44.7181717" lon="8.2806217"><ele>155.0</ele><time>2026-04-04T13:45:55.106Z</time></trkpt><trkpt lat="44.718165" lon="8.28079"><ele>155.0</ele><time>2026-04-04T13:45:56.101Z</time></trkpt><trkpt lat="44.718165" lon="8.2809583"><ele>155.0</ele><time>2026-04-04T13:45:57.1Z</time></trkpt><trkpt lat="44.7181733" lon="8.2811233"><ele>155.0</ele><time>2026-04-04T13:45:58.101Z</time></trkpt><trkpt lat="44.718175" lon="8.2812717"><ele>155.0</ele><time>2026-04-04T13:45:59.101Z</time></trkpt><trkpt lat="44.7181767" lon="8.2814167"><ele>155.0</ele><time>2026-04-04T13:46:00.103Z</time></trkpt><trkpt lat="44.71818" lon="8.2815667"><ele>155.0</ele><time>2026-04-04T13:46:01.104Z</time></trkpt><trkpt lat="44.7181817" lon="8.2817217"><ele>155.0</ele><time>2026-04-04T13:46:02.1Z</time></trkpt><trkpt lat="44.7181867" lon="8.281875"><ele>155.4</ele><time>2026-04-04T13:46:03.105Z</time></trkpt><trkpt lat="44.7181817" lon="8.2820233"><ele>155.8</ele><time>2026-04-04T13:46:04.106Z</time></trkpt><trkpt lat="44.71817" lon="8.28217"><ele>156.2</ele><time>2026-04-04T13:46:05.104Z</time></trkpt><trkpt lat="44.718155" lon="8.2823233"><ele>156.6</ele><time>2026-04-04T13:46:06.104Z</time></trkpt><trkpt lat="44.7181433" lon="8.2824733"><ele>157.0</ele><time>2026-04-04T13:46:07.102Z</time></trkpt><trkpt lat="44.7181217" lon="8.2826233"><ele>157.0</ele><time>2026-04-04T13:46:08.107Z</time></trkpt><trkpt lat="44.7181067" lon="8.28277"><ele>157.0</ele><time>2026-04-04T13:46:09.102Z</time></trkpt><trkpt lat="44.7180483" lon="8.2829"><ele>157.0</ele><time>2026-04-04T13:46:10.103Z</time></trkpt><trkpt lat="44.717995" lon="8.28303"><ele>157.0</ele><time>2026-04-04T13:46:11.108Z</time></trkpt><trkpt lat="44.7179517" lon="8.2831533"><ele>157.0</ele><time>2026-04-04T13:46:12.104Z</time></trkpt><trkpt lat="44.7179033" lon="8.2832783"><ele>157.2</ele><time>2026-04-04T13:46:13.109Z</time></trkpt><trkpt lat="44.7178567" lon="8.2834033"><ele>157.39999999999998</ele><time>2026-04-04T13:46:14.109Z</time></trkpt><trkpt lat="44.7178133" lon="8.2835317"><ele>157.60000000000002</ele><time>2026-04-04T13:46:15.106Z</time></trkpt><trkpt lat="44.7177683" lon="8.2836667"><ele>157.8</ele><time>2026-04-04T13:46:16.104Z</time></trkpt><trkpt lat="44.7177267" lon="8.2838033"><ele>158.0</ele><time>2026-04-04T13:46:17.1Z</time></trkpt><trkpt lat="44.71768" lon="8.2839467"><ele>157.20000000000002</ele><time>2026-04-04T13:46:18.1Z</time></trkpt><trkpt lat="44.7176333" lon="8.2840867"><ele>156.4</ele><time>2026-04-04T13:46:19.099Z</time></trkpt><trkpt lat="44.717585" lon="8.2842167"><ele>155.60000000000002</ele><time>2026-04-04T13:46:20.103Z</time></trkpt><trkpt lat="44.71754" lon="8.284345"><ele>154.8</ele><time>2026-04-04T13:46:21.1Z</time></trkpt><trkpt lat="44.7175" lon="8.2844683"><ele>154.0</ele><time>2026-04-04T13:46:22.1Z</time></trkpt><trkpt lat="44.7174633" lon="8.2845933"><ele>154.0</ele><time>2026-04-04T13:46:23.101Z</time></trkpt><trkpt lat="44.7174283" lon="8.28472"><ele>154.0</ele><time>2026-04-04T13:46:24.101Z</time></trkpt><trkpt lat="44.71739" lon="8.2848483"><ele>154.0</ele><time>2026-04-04T13:46:25.103Z</time></trkpt><trkpt lat="44.7173533" lon="8.2849783"><ele>154.0</ele><time>2026-04-04T13:46:26.105Z</time></trkpt><trkpt lat="44.7173233" lon="8.2851117"><ele>154.0</ele><time>2026-04-04T13:46:27.105Z</time></trkpt><trkpt lat="44.7173033" lon="8.2852433"><ele>154.33333333333334</ele><time>2026-04-04T13:46:28.105Z</time></trkpt><trkpt lat="44.71729" lon="8.2853733"><ele>154.66666666666669</ele><time>2026-04-04T13:46:29.104Z</time></trkpt><trkpt lat="44.7172917" lon="8.2855033"><ele>155.0</ele><time>2026-04-04T13:46:30.1Z</time></trkpt><trkpt lat="44.717295" lon="8.285625"><ele>155.33333333333334</ele><time>2026-04-04T13:46:31.107Z</time></trkpt><trkpt lat="44.7173033" lon="8.2857367"><ele>155.66666666666666</ele><time>2026-04-04T13:46:32.107Z</time></trkpt><trkpt lat="44.71733" lon="8.2858433"><ele>156.0</ele><time>2026-04-04T13:46:33.103Z</time></trkpt><trkpt lat="44.7173583" lon="8.2859333"><ele>156.0</ele><time>2026-04-04T13:46:34.109Z</time></trkpt><trkpt lat="44.7173967" lon="8.2860683"><ele>156.0</ele><time>2026-04-04T13:46:36.106Z</time></trkpt><trkpt lat="44.7174433" lon="8.2861617"><ele>156.0</ele><time>2026-04-04T13:46:38.102Z</time></trkpt><trkpt lat="44.717495" lon="8.2862717"><ele>156.0</ele><time>2026-04-04T13:46:40.103Z</time></trkpt><trkpt lat="44.7175433" lon="8.286415"><ele>156.0</ele><time>2026-04-04T13:46:42.103Z</time></trkpt><trkpt lat="44.7175783" lon="8.2865817"><ele>156.0</ele><time>2026-04-04T13:46:44.103Z</time></trkpt><trkpt lat="44.7175983" lon="8.2866683"><ele>156.0</ele><time>2026-04-04T13:46:45.102Z</time></trkpt><trkpt lat="44.717615" lon="8.286755"><ele>156.0</ele><time>2026-04-04T13:46:46.102Z</time></trkpt><trkpt lat="44.7176433" lon="8.28692"><ele>156.0</ele><time>2026-04-04T13:46:48.105Z</time></trkpt><trkpt lat="44.7176717" lon="8.2870133"><ele>156.0</ele><time>2026-04-04T13:46:49.107Z</time></trkpt><trkpt lat="44.7176933" lon="8.2870967"><ele>156.0</ele><time>2026-04-04T13:46:50.105Z</time></trkpt><trkpt lat="44.7177383" lon="8.2872533"><ele>155.4</ele><time>2026-04-04T13:46:52.106Z</time></trkpt><trkpt lat="44.717795" lon="8.28739"><ele>154.8</ele><time>2026-04-04T13:46:54.107Z</time></trkpt><trkpt lat="44.7178483" lon="8.287525"><ele>154.20000000000002</ele><time>2026-04-04T13:46:56.105Z</time></trkpt><trkpt lat="44.71789" lon="8.2876783"><ele>153.6</ele><time>2026-04-04T13:46:58.101Z</time></trkpt><trkpt lat="44.7179083" lon="8.28777"><ele>153.0</ele><time>2026-04-04T13:46:59.105Z</time></trkpt><trkpt lat="44.7179333" lon="8.2878617"><ele>153.0</ele><time>2026-04-04T13:47:00.101Z</time></trkpt><trkpt lat="44.7179617" lon="8.2879567"><ele>153.0</ele><time>2026-04-04T13:47:01.113Z</time></trkpt><trkpt lat="44.71799" lon="8.2880517"><ele>153.0</ele><time>2026-04-04T13:47:02.103Z</time></trkpt><trkpt lat="44.7180167" lon="8.288135"><ele>153.0</ele><time>2026-04-04T13:47:03.099Z</time></trkpt><trkpt lat="44.7180483" lon="8.2882167"><ele>153.0</ele><time>2026-04-04T13:47:04.104Z</time></trkpt><trkpt lat="44.7180717" lon="8.2883017"><ele>153.0</ele><time>2026-04-04T13:47:05.101Z</time></trkpt><trkpt lat="44.7181" lon="8.2884033"><ele>153.0</ele><time>2026-04-04T13:47:06.098Z</time></trkpt><trkpt lat="44.7181283" lon="8.2885117"><ele>153.20000000000002</ele><time>2026-04-04T13:47:07.103Z</time></trkpt><trkpt lat="44.7181533" lon="8.2886367"><ele>153.4</ele><time>2026-04-04T13:47:08.104Z</time></trkpt><trkpt lat="44.7181767" lon="8.2887683"><ele>153.60000000000002</ele><time>2026-04-04T13:47:09.101Z</time></trkpt><trkpt lat="44.7182017" lon="8.2888967"><ele>153.8</ele><time>2026-04-04T13:47:10.103Z</time></trkpt><trkpt lat="44.7182317" lon="8.2890233"><ele>154.0</ele><time>2026-04-04T13:47:11.106Z</time></trkpt><trkpt lat="44.7182667" lon="8.2891517"><ele>154.0</ele><time>2026-04-04T13:47:12.102Z</time></trkpt><trkpt lat="44.718295" lon="8.28929"><ele>154.0</ele><time>2026-04-04T13:47:13.104Z</time></trkpt><trkpt lat="44.718325" lon="8.2894317"><ele>154.0</ele><time>2026-04-04T13:47:14.099Z</time></trkpt><trkpt lat="44.7183567" lon="8.2895767"><ele>154.0</ele><time>2026-04-04T13:47:15.105Z</time></trkpt><trkpt lat="44.71839" lon="8.2897317"><ele>154.0</ele><time>2026-04-04T13:47:16.102Z</time></trkpt><trkpt lat="44.7184133" lon="8.2898883"><ele>153.75</ele><time>2026-04-04T13:47:17.102Z</time></trkpt><trkpt lat="44.7184433" lon="8.2900483"><ele>153.5</ele><time>2026-04-04T13:47:18.104Z</time></trkpt><trkpt lat="44.718475" lon="8.2902133"><ele>153.25</ele><time>2026-04-04T13:47:19.105Z</time></trkpt><trkpt lat="44.7185167" lon="8.2903717"><ele>153.0</ele><time>2026-04-04T13:47:20.103Z</time></trkpt><trkpt lat="44.7185467" lon="8.29053"><ele>153.0</ele><time>2026-04-04T13:47:21.1Z</time></trkpt><trkpt lat="44.7185833" lon="8.2906867"><ele>153.0</ele><time>2026-04-04T13:47:22.099Z</time></trkpt><trkpt lat="44.7186233" lon="8.2908417"><ele>153.0</ele><time>2026-04-04T13:47:23.11Z</time></trkpt><trkpt lat="44.7186617" lon="8.29101"><ele>153.0</ele><time>2026-04-04T13:47:24.099Z</time></trkpt><trkpt lat="44.718705" lon="8.2911817"><ele>153.0</ele><time>2026-04-04T13:47:25.106Z</time></trkpt><trkpt lat="44.7187417" lon="8.2913517"><ele>153.0</ele><time>2026-04-04T13:47:26.101Z</time></trkpt><trkpt lat="44.7187817" lon="8.2915183"><ele>153.0</ele><time>2026-04-04T13:47:27.102Z</time></trkpt><trkpt lat="44.718825" lon="8.291685"><ele>153.0</ele><time>2026-04-04T13:47:28.1Z</time></trkpt><trkpt lat="44.71887" lon="8.29185"><ele>153.25</ele><time>2026-04-04T13:47:29.101Z</time></trkpt><trkpt lat="44.718925" lon="8.2920083"><ele>153.5</ele><time>2026-04-04T13:47:30.104Z</time></trkpt><trkpt lat="44.71898" lon="8.292165"><ele>153.75</ele><time>2026-04-04T13:47:31.099Z</time></trkpt><trkpt lat="44.71904" lon="8.2923233"><ele>154.0</ele><time>2026-04-04T13:47:32.103Z</time></trkpt><trkpt lat="44.7191067" lon="8.2924817"><ele>154.0</ele><time>2026-04-04T13:47:33.1Z</time></trkpt><trkpt lat="44.7191667" lon="8.2926333"><ele>154.0</ele><time>2026-04-04T13:47:34.103Z</time></trkpt><trkpt lat="44.7192217" lon="8.292775"><ele>154.0</ele><time>2026-04-04T13:47:35.1Z</time></trkpt><trkpt lat="44.719275" lon="8.29291"><ele>154.0</ele><time>2026-04-04T13:47:36.104Z</time></trkpt><trkpt lat="44.7193367" lon="8.2930333"><ele>153.8</ele><time>2026-04-04T13:47:37.106Z</time></trkpt><trkpt lat="44.7193833" lon="8.2931583"><ele>153.60000000000002</ele><time>2026-04-04T13:47:38.105Z</time></trkpt><trkpt lat="44.7194283" lon="8.2932817"><ele>153.4</ele><time>2026-04-04T13:47:39.104Z</time></trkpt><trkpt lat="44.7194617" lon="8.2933867"><ele>153.20000000000002</ele><time>2026-04-04T13:47:40.105Z</time></trkpt><trkpt lat="44.7194933" lon="8.2934767"><ele>153.0</ele><time>2026-04-04T13:47:41.103Z</time></trkpt><trkpt lat="44.71958" lon="8.2936217"><ele>153.0</ele><time>2026-04-04T13:47:43.103Z</time></trkpt><trkpt lat="44.71963" lon="8.2937067"><ele>153.0</ele><time>2026-04-04T13:47:44.103Z</time></trkpt><trkpt lat="44.71969" lon="8.29379"><ele>153.0</ele><time>2026-04-04T13:47:45.105Z</time></trkpt><trkpt lat="44.7197483" lon="8.293885"><ele>153.0</ele><time>2026-04-04T13:47:46.106Z</time></trkpt><trkpt lat="44.7198083" lon="8.293985"><ele>153.0</ele><time>2026-04-04T13:47:47.1Z</time></trkpt><trkpt lat="44.7198717" lon="8.2940917"><ele>153.0</ele><time>2026-04-04T13:47:48.099Z</time></trkpt><trkpt lat="44.7199333" lon="8.294205"><ele>152.83333333333334</ele><time>2026-04-04T13:47:49.1Z</time></trkpt><trkpt lat="44.7199867" lon="8.2943117"><ele>152.66666666666666</ele><time>2026-04-04T13:47:50.1Z</time></trkpt><trkpt lat="44.7200333" lon="8.2944033"><ele>152.5</ele><time>2026-04-04T13:47:51.103Z</time></trkpt><trkpt lat="44.7200817" lon="8.2944883"><ele>152.33333333333331</ele><time>2026-04-04T13:47:52.104Z</time></trkpt><trkpt lat="44.7201383" lon="8.2945833"><ele>152.16666666666666</ele><time>2026-04-04T13:47:53.101Z</time></trkpt><trkpt lat="44.72021" lon="8.2946967"><ele>152.0</ele><time>2026-04-04T13:47:54.103Z</time></trkpt><trkpt lat="44.72028" lon="8.294805"><ele>152.0</ele><time>2026-04-04T13:47:55.104Z</time></trkpt><trkpt lat="44.7203533" lon="8.2949133"><ele>152.0</ele><time>2026-04-04T13:47:56.1Z</time></trkpt><trkpt lat="44.7204283" lon="8.2950417"><ele>152.0</ele><time>2026-04-04T13:47:57.101Z</time></trkpt><trkpt lat="44.720505" lon="8.29518"><ele>152.0</ele><time>2026-04-04T13:47:58.104Z</time></trkpt><trkpt lat="44.7205767" lon="8.295325"><ele>152.0</ele><time>2026-04-04T13:47:59.102Z</time></trkpt><trkpt lat="44.7206467" lon="8.2954767"><ele>152.0</ele><time>2026-04-04T13:48:00.108Z</time></trkpt><trkpt lat="44.72072" lon="8.2956383"><ele>152.0</ele><time>2026-04-04T13:48:01.103Z</time></trkpt><trkpt lat="44.72079" lon="8.2958117"><ele>152.0</ele><time>2026-04-04T13:48:02.103Z</time></trkpt><trkpt lat="44.7208617" lon="8.2959867"><ele>152.0</ele><time>2026-04-04T13:48:03.103Z</time></trkpt><trkpt lat="44.720935" lon="8.2961667"><ele>152.0</ele><time>2026-04-04T13:48:04.1Z</time></trkpt><trkpt lat="44.7210117" lon="8.296345"><ele>152.0</ele><time>2026-04-04T13:48:05.1Z</time></trkpt><trkpt lat="44.7210883" lon="8.2965217"><ele>152.0</ele><time>2026-04-04T13:48:06.102Z</time></trkpt><trkpt lat="44.7211633" lon="8.2966967"><ele>152.0</ele><time>2026-04-04T13:48:07.105Z</time></trkpt><trkpt lat="44.7212383" lon="8.29687"><ele>152.0</ele><time>2026-04-04T13:48:08.101Z</time></trkpt><trkpt lat="44.7213133" lon="8.297045"><ele>152.0</ele><time>2026-04-04T13:48:09.1Z</time></trkpt><trkpt lat="44.7213883" lon="8.2972183"><ele>152.0</ele><time>2026-04-04T13:48:10.104Z</time></trkpt><trkpt lat="44.7214567" lon="8.297385"><ele>152.2</ele><time>2026-04-04T13:48:11.101Z</time></trkpt><trkpt lat="44.72152" lon="8.2975433"><ele>152.39999999999998</ele><time>2026-04-04T13:48:12.103Z</time></trkpt><trkpt lat="44.721575" lon="8.2976833"><ele>152.60000000000002</ele><time>2026-04-04T13:48:13.101Z</time></trkpt><trkpt lat="44.721625" lon="8.2978133"><ele>152.8</ele><time>2026-04-04T13:48:14.101Z</time></trkpt><trkpt lat="44.7216733" lon="8.2979367"><ele>153.0</ele><time>2026-04-04T13:48:15.101Z</time></trkpt><trkpt lat="44.7217233" lon="8.29805"><ele>153.0</ele><time>2026-04-04T13:48:16.104Z</time></trkpt><trkpt lat="44.7217683" lon="8.2981567"><ele>153.0</ele><time>2026-04-04T13:48:17.103Z</time></trkpt><trkpt lat="44.7218017" lon="8.2982567"><ele>153.0</ele><time>2026-04-04T13:48:18.103Z</time></trkpt><trkpt lat="44.7218317" lon="8.2983517"><ele>153.0</ele><time>2026-04-04T13:48:19.105Z</time></trkpt><trkpt lat="44.7218383" lon="8.2984633"><ele>153.0</ele><time>2026-04-04T13:48:20.102Z</time></trkpt><trkpt lat="44.72182" lon="8.29858"><ele>153.0</ele><time>2026-04-04T13:48:21.102Z</time></trkpt><trkpt lat="44.7218" lon="8.2986867"><ele>153.0</ele><time>2026-04-04T13:48:22.108Z</time></trkpt><trkpt lat="44.7217883" lon="8.298785"><ele>153.0</ele><time>2026-04-04T13:48:23.108Z</time></trkpt><trkpt lat="44.72179" lon="8.298885"><ele>153.0</ele><time>2026-04-04T13:48:24.109Z</time></trkpt><trkpt lat="44.7218533" lon="8.2989733"><ele>153.0</ele><time>2026-04-04T13:48:25.106Z</time></trkpt><trkpt lat="44.7219183" lon="8.299055"><ele>153.0</ele><time>2026-04-04T13:48:26.101Z</time></trkpt><trkpt lat="44.7219967" lon="8.2991267"><ele>153.0</ele><time>2026-04-04T13:48:27.104Z</time></trkpt><trkpt lat="44.7220783" lon="8.2992033"><ele>153.20000000000002</ele><time>2026-04-04T13:48:28.111Z</time></trkpt><trkpt lat="44.7221533" lon="8.2992933"><ele>153.4</ele><time>2026-04-04T13:48:29.103Z</time></trkpt><trkpt lat="44.72223" lon="8.2993967"><ele>153.60000000000002</ele><time>2026-04-04T13:48:30.103Z</time></trkpt><trkpt lat="44.7223017" lon="8.2995117"><ele>153.8</ele><time>2026-04-04T13:48:31.103Z</time></trkpt><trkpt lat="44.722375" lon="8.2996367"><ele>154.0</ele><time>2026-04-04T13:48:32.101Z</time></trkpt><trkpt lat="44.7224433" lon="8.2997733"><ele>154.0</ele><time>2026-04-04T13:48:33.099Z</time></trkpt><trkpt lat="44.7225117" lon="8.29992"><ele>154.0</ele><time>2026-04-04T13:48:34.102Z</time></trkpt><trkpt lat="44.7225817" lon="8.3000683"><ele>154.0</ele><time>2026-04-04T13:48:35.103Z</time></trkpt><trkpt lat="44.7226467" lon="8.3002183"><ele>154.0</ele><time>2026-04-04T13:48:36.099Z</time></trkpt><trkpt lat="44.7227133" lon="8.3003667"><ele>154.5</ele><time>2026-04-04T13:48:37.1Z</time></trkpt><trkpt lat="44.72278" lon="8.3005083"><ele>155.0</ele><time>2026-04-04T13:48:38.103Z</time></trkpt><trkpt lat="44.7228467" lon="8.3006433"><ele>155.5</ele><time>2026-04-04T13:48:39.101Z</time></trkpt><trkpt lat="44.722915" lon="8.300775"><ele>156.0</ele><time>2026-04-04T13:48:40.098Z</time></trkpt><trkpt lat="44.722985" lon="8.3009083"><ele>156.5</ele><time>2026-04-04T13:48:41.107Z</time></trkpt><trkpt lat="44.7230617" lon="8.301035"><ele>157.0</ele><time>2026-04-04T13:48:42.104Z</time></trkpt><trkpt lat="44.723145" lon="8.3011567"><ele>157.5</ele><time>2026-04-04T13:48:43.1Z</time></trkpt><trkpt lat="44.723235" lon="8.3012767"><ele>158.0</ele><time>2026-04-04T13:48:44.105Z</time></trkpt><trkpt lat="44.72333" lon="8.3013933"><ele>157.5</ele><time>2026-04-04T13:48:45.102Z</time></trkpt><trkpt lat="44.7234283" lon="8.3015033"><ele>157.0</ele><time>2026-04-04T13:48:46.11Z</time></trkpt><trkpt lat="44.723535" lon="8.3016083"><ele>156.5</ele><time>2026-04-04T13:48:47.101Z</time></trkpt><trkpt lat="44.7236417" lon="8.3017083"><ele>156.0</ele><time>2026-04-04T13:48:48.1Z</time></trkpt><trkpt lat="44.7237567" lon="8.3018017"><ele>155.5</ele><time>2026-04-04T13:48:49.101Z</time></trkpt><trkpt lat="44.7238733" lon="8.3018883"><ele>155.0</ele><time>2026-04-04T13:48:50.101Z</time></trkpt><trkpt lat="44.7239917" lon="8.301965"><ele>154.5</ele><time>2026-04-04T13:48:51.1Z</time></trkpt><trkpt lat="44.7241133" lon="8.302035"><ele>154.0</ele><time>2026-04-04T13:48:52.1Z</time></trkpt><trkpt lat="44.72424" lon="8.3020933"><ele>154.0</ele><time>2026-04-04T13:48:53.1Z</time></trkpt><trkpt lat="44.7243633" lon="8.302145"><ele>154.0</ele><time>2026-04-04T13:48:54.103Z</time></trkpt><trkpt lat="44.7244767" lon="8.3021867"><ele>154.0</ele><time>2026-04-04T13:48:55.103Z</time></trkpt><trkpt lat="44.7245767" lon="8.3022267"><ele>154.0</ele><time>2026-04-04T13:48:56.099Z</time></trkpt><trkpt lat="44.72466" lon="8.302265"><ele>154.0</ele><time>2026-04-04T13:48:57.099Z</time></trkpt><trkpt lat="44.7247317" lon="8.3023067"><ele>153.71428571428572</ele><time>2026-04-04T13:48:58.1Z</time></trkpt><trkpt lat="44.7247883" lon="8.3023517"><ele>153.42857142857144</ele><time>2026-04-04T13:48:59.1Z</time></trkpt><trkpt lat="44.7248417" lon="8.3024117"><ele>153.14285714285714</ele><time>2026-04-04T13:49:00.103Z</time></trkpt><trkpt lat="44.724895" lon="8.3024817"><ele>152.85714285714286</ele><time>2026-04-04T13:49:01.102Z</time></trkpt><trkpt lat="44.72496" lon="8.30253"><ele>152.57142857142858</ele><time>2026-04-04T13:49:02.104Z</time></trkpt><trkpt lat="44.7250283" lon="8.3025583"><ele>152.28571428571428</ele><time>2026-04-04T13:49:03.1Z</time></trkpt><trkpt lat="44.7251033" lon="8.3025517"><ele>152.0</ele><time>2026-04-04T13:49:04.102Z</time></trkpt><trkpt lat="44.72516" lon="8.30247"><ele>152.0</ele><time>2026-04-04T13:49:05.104Z</time></trkpt><trkpt lat="44.7252117" lon="8.3023967"><ele>152.0</ele><time>2026-04-04T13:49:06.1Z</time></trkpt><trkpt lat="44.7252683" lon="8.302335"><ele>152.0</ele><time>2026-04-04T13:49:07.106Z</time></trkpt><trkpt lat="44.72533" lon="8.3022883"><ele>152.0</ele><time>2026-04-04T13:49:08.102Z</time></trkpt><trkpt lat="44.7254017" lon="8.30225"><ele>152.0</ele><time>2026-04-04T13:49:09.102Z</time></trkpt><trkpt lat="44.7254917" lon="8.3022233"><ele>152.0</ele><time>2026-04-04T13:49:10.108Z</time></trkpt><trkpt lat="44.7255933" lon="8.3021917"><ele>152.5</ele><time>2026-04-04T13:49:11.101Z</time></trkpt><trkpt lat="44.7256967" lon="8.3021533"><ele>153.0</ele><time>2026-04-04T13:49:12.105Z</time></trkpt><trkpt lat="44.7258017" lon="8.3021133"><ele>153.5</ele><time>2026-04-04T13:49:13.109Z</time></trkpt><trkpt lat="44.7259133" lon="8.302065"><ele>154.0</ele><time>2026-04-04T13:49:14.101Z</time></trkpt><trkpt lat="44.7260333" lon="8.3020033"><ele>154.75</ele><time>2026-04-04T13:49:15.103Z</time></trkpt><trkpt lat="44.7261517" lon="8.3019333"><ele>155.5</ele><time>2026-04-04T13:49:16.105Z</time></trkpt><trkpt lat="44.7262717" lon="8.3018583"><ele>156.25</ele><time>2026-04-04T13:49:17.098Z</time></trkpt><trkpt lat="44.7263883" lon="8.3017767"><ele>157.0</ele><time>2026-04-04T13:49:18.102Z</time></trkpt><trkpt lat="44.7265067" lon="8.3016883"><ele>157.0</ele><time>2026-04-04T13:49:19.101Z</time></trkpt><trkpt lat="44.726625" lon="8.301595"><ele>157.0</ele><time>2026-04-04T13:49:20.098Z</time></trkpt><trkpt lat="44.72673" lon="8.3014983"><ele>157.0</ele><time>2026-04-04T13:49:21.099Z</time></trkpt><trkpt lat="44.726835" lon="8.3014"><ele>157.0</ele><time>2026-04-04T13:49:22.1Z</time></trkpt><trkpt lat="44.7269467" lon="8.3013017"><ele>156.5</ele><time>2026-04-04T13:49:23.103Z</time></trkpt><trkpt lat="44.7270583" lon="8.3012017"><ele>156.0</ele><time>2026-04-04T13:49:24.103Z</time></trkpt><trkpt lat="44.7271717" lon="8.3011033"><ele>155.5</ele><time>2026-04-04T13:49:25.106Z</time></trkpt><trkpt lat="44.727285" lon="8.3010033"><ele>155.0</ele><time>2026-04-04T13:49:26.101Z</time></trkpt><trkpt lat="44.7274" lon="8.3009033"><ele>155.0</ele><time>2026-04-04T13:49:27.1Z</time></trkpt><trkpt lat="44.7275167" lon="8.3008"><ele>155.0</ele><time>2026-04-04T13:49:28.104Z</time></trkpt><trkpt lat="44.7276333" lon="8.300695"><ele>155.0</ele><time>2026-04-04T13:49:29.101Z</time></trkpt><trkpt lat="44.7277483" lon="8.3005917"><ele>155.0</ele><time>2026-04-04T13:49:30.105Z</time></trkpt><trkpt lat="44.7278583" lon="8.3004917"><ele>154.83333333333331</ele><time>2026-04-04T13:49:31.1Z</time></trkpt><trkpt lat="44.727955" lon="8.3004033"><ele>154.66666666666666</ele><time>2026-04-04T13:49:32.102Z</time></trkpt><trkpt lat="44.72804" lon="8.3003283"><ele>154.5</ele><time>2026-04-04T13:49:33.103Z</time></trkpt><trkpt lat="44.72811" lon="8.3002583"><ele>154.33333333333334</ele><time>2026-04-04T13:49:34.105Z</time></trkpt><trkpt lat="44.72817" lon="8.300195"><ele>154.16666666666669</ele><time>2026-04-04T13:49:35.108Z</time></trkpt><trkpt lat="44.72822" lon="8.3001367"><ele>154.0</ele><time>2026-04-04T13:49:36.102Z</time></trkpt><trkpt lat="44.728275" lon="8.300085"><ele>154.0</ele><time>2026-04-04T13:49:37.102Z</time></trkpt><trkpt lat="44.7283333" lon="8.3000317"><ele>154.0</ele><time>2026-04-04T13:49:38.103Z</time></trkpt><trkpt lat="44.72839" lon="8.29998"><ele>154.0</ele><time>2026-04-04T13:49:39.1Z</time></trkpt><trkpt lat="44.7284467" lon="8.2999167"><ele>154.0</ele><time>2026-04-04T13:49:40.099Z</time></trkpt><trkpt lat="44.7285117" lon="8.2998383"><ele>154.0</ele><time>2026-04-04T13:49:41.102Z</time></trkpt><trkpt lat="44.7285983" lon="8.2997467"><ele>154.0</ele><time>2026-04-04T13:49:42.103Z</time></trkpt><trkpt lat="44.7287083" lon="8.299665"><ele>155.0</ele><time>2026-04-04T13:49:43.102Z</time></trkpt><trkpt lat="44.7288267" lon="8.29958"><ele>156.0</ele><time>2026-04-04T13:49:44.102Z</time></trkpt><trkpt lat="44.72895" lon="8.2994917"><ele>157.0</ele><time>2026-04-04T13:49:45.099Z</time></trkpt><trkpt lat="44.7290767" lon="8.299395"><ele>158.0</ele><time>2026-04-04T13:49:46.099Z</time></trkpt><trkpt lat="44.729205" lon="8.2992917"><ele>158.0</ele><time>2026-04-04T13:49:47.102Z</time></trkpt><trkpt lat="44.72934" lon="8.2991817"><ele>158.0</ele><time>2026-04-04T13:49:48.099Z</time></trkpt><trkpt lat="44.729475" lon="8.2990717"><ele>158.0</ele><time>2026-04-04T13:49:49.104Z</time></trkpt><trkpt lat="44.7296067" lon="8.2989633"><ele>158.0</ele><time>2026-04-04T13:49:50.101Z</time></trkpt><trkpt lat="44.7297367" lon="8.29886"><ele>158.0</ele><time>2026-04-04T13:49:51.101Z</time></trkpt><trkpt lat="44.7298683" lon="8.2987517"><ele>158.0</ele><time>2026-04-04T13:49:52.105Z</time></trkpt><trkpt lat="44.7299967" lon="8.2986383"><ele>158.0</ele><time>2026-04-04T13:49:53.105Z</time></trkpt><trkpt lat="44.7301183" lon="8.2985233"><ele>158.0</ele><time>2026-04-04T13:49:54.103Z</time></trkpt><trkpt lat="44.73024" lon="8.2984033"><ele>158.0</ele><time>2026-04-04T13:49:55.099Z</time></trkpt><trkpt lat="44.7303533" lon="8.2982783"><ele>158.0</ele><time>2026-04-04T13:49:56.101Z</time></trkpt><trkpt lat="44.7304633" lon="8.2981467"><ele>157.75</ele><time>2026-04-04T13:49:57.102Z</time></trkpt><trkpt lat="44.7305733" lon="8.2980133"><ele>157.5</ele><time>2026-04-04T13:49:58.099Z</time></trkpt><trkpt lat="44.7306817" lon="8.29788"><ele>157.25</ele><time>2026-04-04T13:49:59.103Z</time></trkpt><trkpt lat="44.730785" lon="8.297745"><ele>157.0</ele><time>2026-04-04T13:50:00.1Z</time></trkpt><trkpt lat="44.73088" lon="8.2976067"><ele>157.0</ele><time>2026-04-04T13:50:01.101Z</time></trkpt><trkpt lat="44.730965" lon="8.2974717"><ele>157.0</ele><time>2026-04-04T13:50:02.1Z</time></trkpt><trkpt lat="44.7310483" lon="8.2973333"><ele>157.0</ele><time>2026-04-04T13:50:03.102Z</time></trkpt><trkpt lat="44.7311283" lon="8.2971883"><ele>157.0</ele><time>2026-04-04T13:50:04.1Z</time></trkpt><trkpt lat="44.73121" lon="8.29704"><ele>157.0</ele><time>2026-04-04T13:50:05.107Z</time></trkpt><trkpt lat="44.7312933" lon="8.29689"><ele>157.0</ele><time>2026-04-04T13:50:06.106Z</time></trkpt><trkpt lat="44.7313783" lon="8.2967367"><ele>157.0</ele><time>2026-04-04T13:50:07.104Z</time></trkpt><trkpt lat="44.7314633" lon="8.2965883"><ele>157.0</ele><time>2026-04-04T13:50:08.101Z</time></trkpt><trkpt lat="44.7315467" lon="8.29644"><ele>157.25</ele><time>2026-04-04T13:50:09.101Z</time></trkpt><trkpt lat="44.7316317" lon="8.2962867"><ele>157.5</ele><time>2026-04-04T13:50:10.102Z</time></trkpt><trkpt lat="44.7317167" lon="8.2961367"><ele>157.75</ele><time>2026-04-04T13:50:11.103Z</time></trkpt><trkpt lat="44.7318033" lon="8.2959867"><ele>158.0</ele><time>2026-04-04T13:50:12.108Z</time></trkpt><trkpt lat="44.731895" lon="8.29584"><ele>158.0</ele><time>2026-04-04T13:50:13.103Z</time></trkpt><trkpt lat="44.7319883" lon="8.2956883"><ele>158.0</ele><time>2026-04-04T13:50:14.104Z</time></trkpt><trkpt lat="44.7320817" lon="8.29553"><ele>158.0</ele><time>2026-04-04T13:50:15.105Z</time></trkpt><trkpt lat="44.732175" lon="8.2953683"><ele>158.0</ele><time>2026-04-04T13:50:16.101Z</time></trkpt><trkpt lat="44.7322717" lon="8.2952017"><ele>158.0</ele><time>2026-04-04T13:50:17.105Z</time></trkpt><trkpt lat="44.7323683" lon="8.2950333"><ele>158.0</ele><time>2026-04-04T13:50:18.107Z</time></trkpt><trkpt lat="44.732465" lon="8.2948633"><ele>158.0</ele><time>2026-04-04T13:50:19.105Z</time></trkpt><trkpt lat="44.732565" lon="8.2946917"><ele>158.0</ele><time>2026-04-04T13:50:20.102Z</time></trkpt><trkpt lat="44.7326717" lon="8.2945217"><ele>158.0</ele><time>2026-04-04T13:50:21.102Z</time></trkpt><trkpt lat="44.7327817" lon="8.2943533"><ele>158.0</ele><time>2026-04-04T13:50:22.101Z</time></trkpt><trkpt lat="44.732895" lon="8.294185"><ele>158.0</ele><time>2026-04-04T13:50:23.101Z</time></trkpt><trkpt lat="44.73301" lon="8.2940217"><ele>158.0</ele><time>2026-04-04T13:50:24.106Z</time></trkpt><trkpt lat="44.7331267" lon="8.2938583"><ele>158.0</ele><time>2026-04-04T13:50:25.099Z</time></trkpt><trkpt lat="44.7332417" lon="8.2937033"><ele>158.66666666666666</ele><time>2026-04-04T13:50:26.101Z</time></trkpt><trkpt lat="44.7333567" lon="8.2935417"><ele>159.33333333333334</ele><time>2026-04-04T13:50:27.103Z</time></trkpt><trkpt lat="44.7334717" lon="8.293385"><ele>160.0</ele><time>2026-04-04T13:50:28.1Z</time></trkpt><trkpt lat="44.73359" lon="8.293235"><ele>159.0</ele><time>2026-04-04T13:50:29.101Z</time></trkpt><trkpt lat="44.7337117" lon="8.2930767"><ele>158.0</ele><time>2026-04-04T13:50:30.103Z</time></trkpt><trkpt lat="44.733835" lon="8.2929217"><ele>157.0</ele><time>2026-04-04T13:50:31.104Z</time></trkpt><trkpt lat="44.7339633" lon="8.2927667"><ele>157.0</ele><time>2026-04-04T13:50:32.101Z</time></trkpt><trkpt lat="44.7340917" lon="8.2926133"><ele>157.0</ele><time>2026-04-04T13:50:33.106Z</time></trkpt><trkpt lat="44.73422" lon="8.2924567"><ele>157.0</ele><time>2026-04-04T13:50:34.102Z</time></trkpt><trkpt lat="44.7343467" lon="8.292295"><ele>158.0</ele><time>2026-04-04T13:50:35.104Z</time></trkpt><trkpt lat="44.7344833" lon="8.2921433"><ele>159.0</ele><time>2026-04-04T13:50:36.103Z</time></trkpt><trkpt lat="44.7346233" lon="8.2919967"><ele>160.0</ele><time>2026-04-04T13:50:37.1Z</time></trkpt><trkpt lat="44.7347617" lon="8.2918433"><ele>160.0</ele><time>2026-04-04T13:50:38.107Z</time></trkpt><trkpt lat="44.7349083" lon="8.2916933"><ele>160.0</ele><time>2026-04-04T13:50:39.107Z</time></trkpt><trkpt lat="44.7350583" lon="8.29154"><ele>160.0</ele><time>2026-04-04T13:50:40.104Z</time></trkpt><trkpt lat="44.73521" lon="8.2913917"><ele>160.0</ele><time>2026-04-04T13:50:41.101Z</time></trkpt><trkpt lat="44.735365" lon="8.2912517"><ele>160.0</ele><time>2026-04-04T13:50:42.103Z</time></trkpt><trkpt lat="44.7355233" lon="8.29112"><ele>160.0</ele><time>2026-04-04T13:50:43.1Z</time></trkpt><trkpt lat="44.735675" lon="8.290985"><ele>160.0</ele><time>2026-04-04T13:50:44.106Z</time></trkpt><trkpt lat="44.73583" lon="8.2908483"><ele>160.0</ele><time>2026-04-04T13:50:45.103Z</time></trkpt><trkpt lat="44.735985" lon="8.2907083"><ele>160.0</ele><time>2026-04-04T13:50:46.1Z</time></trkpt><trkpt lat="44.7361417" lon="8.2905683"><ele>160.33333333333334</ele><time>2026-04-04T13:50:47.103Z</time></trkpt><trkpt lat="44.7363" lon="8.2904233"><ele>160.66666666666666</ele><time>2026-04-04T13:50:48.105Z</time></trkpt><trkpt lat="44.7364583" lon="8.290275"><ele>161.0</ele><time>2026-04-04T13:50:49.104Z</time></trkpt><trkpt lat="44.7366167" lon="8.2901283"><ele>161.0</ele><time>2026-04-04T13:50:50.101Z</time></trkpt><trkpt lat="44.7367783" lon="8.2899867"><ele>161.0</ele><time>2026-04-04T13:50:51.101Z</time></trkpt><trkpt lat="44.736945" lon="8.2898367"><ele>161.0</ele><time>2026-04-04T13:50:52.104Z</time></trkpt><trkpt lat="44.7371083" lon="8.28969"><ele>162.0</ele><time>2026-04-04T13:50:53.103Z</time></trkpt><trkpt lat="44.7372733" lon="8.2895383"><ele>163.0</ele><time>2026-04-04T13:50:54.103Z</time></trkpt><trkpt lat="44.73744" lon="8.28939"><ele>164.0</ele><time>2026-04-04T13:50:55.104Z</time></trkpt><trkpt lat="44.737605" lon="8.2892417"><ele>162.66666666666666</ele><time>2026-04-04T13:50:56.102Z</time></trkpt><trkpt lat="44.7377617" lon="8.289095"><ele>161.33333333333334</ele><time>2026-04-04T13:50:57.104Z</time></trkpt><trkpt lat="44.7379167" lon="8.2889467"><ele>160.0</ele><time>2026-04-04T13:50:58.103Z</time></trkpt><trkpt lat="44.7380683" lon="8.288805"><ele>160.0</ele><time>2026-04-04T13:50:59.103Z</time></trkpt><trkpt lat="44.7382233" lon="8.28867"><ele>160.0</ele><time>2026-04-04T13:51:00.103Z</time></trkpt><trkpt lat="44.7383733" lon="8.2885317"><ele>160.0</ele><time>2026-04-04T13:51:01.104Z</time></trkpt><trkpt lat="44.7385217" lon="8.2883933"><ele>160.33333333333334</ele><time>2026-04-04T13:51:02.104Z</time></trkpt><trkpt lat="44.7386667" lon="8.2882533"><ele>160.66666666666666</ele><time>2026-04-04T13:51:03.1Z</time></trkpt><trkpt lat="44.738815" lon="8.288115"><ele>161.0</ele><time>2026-04-04T13:51:04.108Z</time></trkpt><trkpt lat="44.7389633" lon="8.2879733"><ele>162.0</ele><time>2026-04-04T13:51:05.11Z</time></trkpt><trkpt lat="44.7391117" lon="8.287835"><ele>163.0</ele><time>2026-04-04T13:51:06.104Z</time></trkpt><trkpt lat="44.7392617" lon="8.2876967"><ele>164.0</ele><time>2026-04-04T13:51:07.098Z</time></trkpt><trkpt lat="44.7394117" lon="8.2875583"><ele>164.0</ele><time>2026-04-04T13:51:08.104Z</time></trkpt><trkpt lat="44.7395617" lon="8.287415"><ele>164.0</ele><time>2026-04-04T13:51:09.103Z</time></trkpt><trkpt lat="44.7397133" lon="8.2872733"><ele>164.0</ele><time>2026-04-04T13:51:10.099Z</time></trkpt><trkpt lat="44.739865" lon="8.2871367"><ele>164.0</ele><time>2026-04-04T13:51:11.1Z</time></trkpt><trkpt lat="44.7400117" lon="8.2870017"><ele>164.0</ele><time>2026-04-04T13:51:12.101Z</time></trkpt><trkpt lat="44.7401583" lon="8.2868717"><ele>164.0</ele><time>2026-04-04T13:51:13.102Z</time></trkpt><trkpt lat="44.7403" lon="8.286745"><ele>164.0</ele><time>2026-04-04T13:51:14.105Z</time></trkpt><trkpt lat="44.7404367" lon="8.2866217"><ele>164.0</ele><time>2026-04-04T13:51:15.104Z</time></trkpt><trkpt lat="44.740575" lon="8.2865033"><ele>164.0</ele><time>2026-04-04T13:51:16.105Z</time></trkpt><trkpt lat="44.7407167" lon="8.2863933"><ele>164.0</ele><time>2026-04-04T13:51:17.106Z</time></trkpt><trkpt lat="44.7408633" lon="8.286295"><ele>164.0</ele><time>2026-04-04T13:51:18.103Z</time></trkpt><trkpt lat="44.7410083" lon="8.2861983"><ele>164.0</ele><time>2026-04-04T13:51:19.101Z</time></trkpt><trkpt lat="44.741155" lon="8.2861117"><ele>165.33333333333331</ele><time>2026-04-04T13:51:20.106Z</time></trkpt><trkpt lat="44.7413067" lon="8.2860333"><ele>166.66666666666666</ele><time>2026-04-04T13:51:21.103Z</time></trkpt><trkpt lat="44.7414617" lon="8.2859583"><ele>168.0</ele><time>2026-04-04T13:51:22.103Z</time></trkpt><trkpt lat="44.7416183" lon="8.2859"><ele>168.0</ele><time>2026-04-04T13:51:23.104Z</time></trkpt><trkpt lat="44.74178" lon="8.285845"><ele>168.0</ele><time>2026-04-04T13:51:24.106Z</time></trkpt><trkpt lat="44.74194" lon="8.2857933"><ele>168.0</ele><time>2026-04-04T13:51:25.109Z</time></trkpt><trkpt lat="44.7421" lon="8.2857367"><ele>168.66666666666666</ele><time>2026-04-04T13:51:26.106Z</time></trkpt><trkpt lat="44.742265" lon="8.28568"><ele>169.33333333333331</ele><time>2026-04-04T13:51:27.101Z</time></trkpt><trkpt lat="44.742425" lon="8.2856267"><ele>170.0</ele><time>2026-04-04T13:51:28.102Z</time></trkpt><trkpt lat="44.7425783" lon="8.2855733"><ele>168.66666666666666</ele><time>2026-04-04T13:51:29.102Z</time></trkpt><trkpt lat="44.742735" lon="8.2855183"><ele>167.33333333333334</ele><time>2026-04-04T13:51:30.109Z</time></trkpt><trkpt lat="44.7428983" lon="8.285465"><ele>166.0</ele><time>2026-04-04T13:51:31.103Z</time></trkpt><trkpt lat="44.7430633" lon="8.2854133"><ele>166.0</ele><time>2026-04-04T13:51:32.11Z</time></trkpt><trkpt lat="44.743225" lon="8.2853617"><ele>166.0</ele><time>2026-04-04T13:51:33.105Z</time></trkpt><trkpt lat="44.74339" lon="8.2853083"><ele>166.0</ele><time>2026-04-04T13:51:34.107Z</time></trkpt><trkpt lat="44.7435517" lon="8.2852517"><ele>165.0</ele><time>2026-04-04T13:51:35.105Z</time></trkpt><trkpt lat="44.7437117" lon="8.2851917"><ele>164.0</ele><time>2026-04-04T13:51:36.099Z</time></trkpt><trkpt lat="44.7438733" lon="8.285135"><ele>163.0</ele><time>2026-04-04T13:51:37.102Z</time></trkpt><trkpt lat="44.7440367" lon="8.28508"><ele>163.0</ele><time>2026-04-04T13:51:38.102Z</time></trkpt><trkpt lat="44.7442" lon="8.2850283"><ele>163.0</ele><time>2026-04-04T13:51:39.101Z</time></trkpt><trkpt lat="44.744365" lon="8.284975"><ele>163.0</ele><time>2026-04-04T13:51:40.103Z</time></trkpt><trkpt lat="44.74453" lon="8.2849183"><ele>163.66666666666669</ele><time>2026-04-04T13:51:41.101Z</time></trkpt><trkpt lat="44.7446983" lon="8.28486"><ele>164.33333333333334</ele><time>2026-04-04T13:51:42.104Z</time></trkpt><trkpt lat="44.74487" lon="8.2848"><ele>165.0</ele><time>2026-04-04T13:51:43.104Z</time></trkpt><trkpt lat="44.745045" lon="8.2847383"><ele>166.0</ele><time>2026-04-04T13:51:44.103Z</time></trkpt><trkpt lat="44.7452233" lon="8.2846733"><ele>167.0</ele><time>2026-04-04T13:51:45.108Z</time></trkpt><trkpt lat="44.745405" lon="8.28461"><ele>168.0</ele><time>2026-04-04T13:51:46.102Z</time></trkpt><trkpt lat="44.74559" lon="8.2845483"><ele>168.0</ele><time>2026-04-04T13:51:47.105Z</time></trkpt><trkpt lat="44.7457783" lon="8.28449"><ele>168.0</ele><time>2026-04-04T13:51:48.105Z</time></trkpt><trkpt lat="44.7459733" lon="8.2844333"><ele>168.0</ele><time>2026-04-04T13:51:49.11Z</time></trkpt><trkpt lat="44.7461667" lon="8.2843867"><ele>167.66666666666666</ele><time>2026-04-04T13:51:50.103Z</time></trkpt><trkpt lat="44.74636" lon="8.2843517"><ele>167.33333333333331</ele><time>2026-04-04T13:51:51.102Z</time></trkpt><trkpt lat="44.74655" lon="8.2843317"><ele>167.0</ele><time>2026-04-04T13:51:52.097Z</time></trkpt><trkpt lat="44.746745" lon="8.2843183"><ele>166.0</ele><time>2026-04-04T13:51:53.104Z</time></trkpt><trkpt lat="44.7469383" lon="8.2843133"><ele>165.0</ele><time>2026-04-04T13:51:54.101Z</time></trkpt><trkpt lat="44.7471333" lon="8.2843117"><ele>164.0</ele><time>2026-04-04T13:51:55.101Z</time></trkpt><trkpt lat="44.7473267" lon="8.284325"><ele>164.0</ele><time>2026-04-04T13:51:56.102Z</time></trkpt><trkpt lat="44.74752" lon="8.2843567"><ele>164.0</ele><time>2026-04-04T13:51:57.1Z</time></trkpt><trkpt lat="44.7477117" lon="8.2843983"><ele>164.0</ele><time>2026-04-04T13:51:58.099Z</time></trkpt><trkpt lat="44.7479017" lon="8.284445"><ele>164.0</ele><time>2026-04-04T13:51:59.103Z</time></trkpt><trkpt lat="44.7480867" lon="8.28449"><ele>164.0</ele><time>2026-04-04T13:52:00.1Z</time></trkpt><trkpt lat="44.7482733" lon="8.2845367"><ele>164.0</ele><time>2026-04-04T13:52:01.102Z</time></trkpt><trkpt lat="44.7484583" lon="8.28458"><ele>164.33333333333331</ele><time>2026-04-04T13:52:02.102Z</time></trkpt><trkpt lat="44.7486433" lon="8.2846233"><ele>164.66666666666666</ele><time>2026-04-04T13:52:03.104Z</time></trkpt><trkpt lat="44.7488217" lon="8.284665"><ele>165.0</ele><time>2026-04-04T13:52:04.103Z</time></trkpt><trkpt lat="44.7490017" lon="8.28471"><ele>165.0</ele><time>2026-04-04T13:52:05.103Z</time></trkpt><trkpt lat="44.74918" lon="8.28475"><ele>165.0</ele><time>2026-04-04T13:52:06.1Z</time></trkpt><trkpt lat="44.7493467" lon="8.284795"><ele>165.0</ele><time>2026-04-04T13:52:07.109Z</time></trkpt><trkpt lat="44.7495167" lon="8.284835"><ele>165.0</ele><time>2026-04-04T13:52:08.103Z</time></trkpt><trkpt lat="44.7496833" lon="8.2848717"><ele>165.0</ele><time>2026-04-04T13:52:09.104Z</time></trkpt><trkpt lat="44.74985" lon="8.2849083"><ele>165.0</ele><time>2026-04-04T13:52:10.104Z</time></trkpt><trkpt lat="44.7500083" lon="8.2849383"><ele>165.0</ele><time>2026-04-04T13:52:11.101Z</time></trkpt><trkpt lat="44.750165" lon="8.28497"><ele>165.0</ele><time>2026-04-04T13:52:12.11Z</time></trkpt><trkpt lat="44.7503183" lon="8.284995"><ele>165.0</ele><time>2026-04-04T13:52:13.104Z</time></trkpt><trkpt lat="44.7504617" lon="8.2850067"><ele>165.25</ele><time>2026-04-04T13:52:14.106Z</time></trkpt><trkpt lat="44.7505967" lon="8.2850133"><ele>165.5</ele><time>2026-04-04T13:52:15.109Z</time></trkpt><trkpt lat="44.7507233" lon="8.2850183"><ele>165.75</ele><time>2026-04-04T13:52:16.105Z</time></trkpt><trkpt lat="44.7508467" lon="8.2850217"><ele>166.0</ele><time>2026-04-04T13:52:17.102Z</time></trkpt><trkpt lat="44.7509667" lon="8.2850183"><ele>166.25</ele><time>2026-04-04T13:52:18.101Z</time></trkpt><trkpt lat="44.7510933" lon="8.2850117"><ele>166.5</ele><time>2026-04-04T13:52:19.106Z</time></trkpt><trkpt lat="44.7512217" lon="8.285005"><ele>166.75</ele><time>2026-04-04T13:52:20.101Z</time></trkpt><trkpt lat="44.7513517" lon="8.2849833"><ele>167.0</ele><time>2026-04-04T13:52:21.099Z</time></trkpt><trkpt lat="44.7514833" lon="8.2849583"><ele>167.0</ele><time>2026-04-04T13:52:22.103Z</time></trkpt><trkpt lat="44.7516133" lon="8.2849283"><ele>167.0</ele><time>2026-04-04T13:52:23.103Z</time></trkpt><trkpt lat="44.7517417" lon="8.2848917"><ele>167.0</ele><time>2026-04-04T13:52:24.108Z</time></trkpt><trkpt lat="44.7518733" lon="8.2848467"><ele>167.0</ele><time>2026-04-04T13:52:25.105Z</time></trkpt><trkpt lat="44.7520067" lon="8.2847967"><ele>167.25</ele><time>2026-04-04T13:52:26.101Z</time></trkpt><trkpt lat="44.7521383" lon="8.2847467"><ele>167.5</ele><time>2026-04-04T13:52:27.106Z</time></trkpt><trkpt lat="44.75227" lon="8.2846883"><ele>167.75</ele><time>2026-04-04T13:52:28.105Z</time></trkpt><trkpt lat="44.7524033" lon="8.28463"><ele>168.0</ele><time>2026-04-04T13:52:29.103Z</time></trkpt><trkpt lat="44.7525367" lon="8.2845717"><ele>168.0</ele><time>2026-04-04T13:52:30.099Z</time></trkpt><trkpt lat="44.7526683" lon="8.28451"><ele>168.0</ele><time>2026-04-04T13:52:31.105Z</time></trkpt><trkpt lat="44.7528" lon="8.2844483"><ele>168.0</ele><time>2026-04-04T13:52:32.105Z</time></trkpt><trkpt lat="44.752935" lon="8.2843883"><ele>168.0</ele><time>2026-04-04T13:52:33.102Z</time></trkpt><trkpt lat="44.75307" lon="8.2843283"><ele>168.0</ele><time>2026-04-04T13:52:34.099Z</time></trkpt><trkpt lat="44.753205" lon="8.2842683"><ele>168.0</ele><time>2026-04-04T13:52:35.103Z</time></trkpt><trkpt lat="44.75334" lon="8.2842067"><ele>168.0</ele><time>2026-04-04T13:52:36.099Z</time></trkpt><trkpt lat="44.753475" lon="8.2841467"><ele>168.0</ele><time>2026-04-04T13:52:37.109Z</time></trkpt><trkpt lat="44.7536067" lon="8.2840867"><ele>168.0</ele><time>2026-04-04T13:52:38.107Z</time></trkpt><trkpt lat="44.7537417" lon="8.284025"><ele>168.0</ele><time>2026-04-04T13:52:39.099Z</time></trkpt><trkpt lat="44.75388" lon="8.283965"><ele>168.0</ele><time>2026-04-04T13:52:40.104Z</time></trkpt><trkpt lat="44.7540183" lon="8.28391"><ele>168.0</ele><time>2026-04-04T13:52:41.103Z</time></trkpt><trkpt lat="44.754155" lon="8.2838533"><ele>168.0</ele><time>2026-04-04T13:52:42.104Z</time></trkpt><trkpt lat="44.7542933" lon="8.2837983"><ele>168.0</ele><time>2026-04-04T13:52:43.105Z</time></trkpt><trkpt lat="44.7544267" lon="8.2837367"><ele>168.0</ele><time>2026-04-04T13:52:44.099Z</time></trkpt><trkpt lat="44.7545633" lon="8.2836767"><ele>168.0</ele><time>2026-04-04T13:52:45.101Z</time></trkpt><trkpt lat="44.7546983" lon="8.283615"><ele>168.0</ele><time>2026-04-04T13:52:46.102Z</time></trkpt><trkpt lat="44.75483" lon="8.2835517"><ele>168.0</ele><time>2026-04-04T13:52:47.101Z</time></trkpt><trkpt lat="44.7549533" lon="8.28349"><ele>168.0</ele><time>2026-04-04T13:52:48.101Z</time></trkpt><trkpt lat="44.755065" lon="8.2834283"><ele>168.0</ele><time>2026-04-04T13:52:49.103Z</time></trkpt><trkpt lat="44.7551717" lon="8.2833683"><ele>168.2</ele><time>2026-04-04T13:52:50.102Z</time></trkpt><trkpt lat="44.7552717" lon="8.2833067"><ele>168.4</ele><time>2026-04-04T13:52:51.106Z</time></trkpt><trkpt lat="44.755365" lon="8.2832433"><ele>168.6</ele><time>2026-04-04T13:52:52.102Z</time></trkpt><trkpt lat="44.755455" lon="8.2831833"><ele>168.79999999999998</ele><time>2026-04-04T13:52:53.105Z</time></trkpt><trkpt lat="44.75554" lon="8.2831183"><ele>169.0</ele><time>2026-04-04T13:52:54.105Z</time></trkpt><trkpt lat="44.7556217" lon="8.2830517"><ele>169.0</ele><time>2026-04-04T13:52:55.106Z</time></trkpt><trkpt lat="44.7557" lon="8.2829833"><ele>169.0</ele><time>2026-04-04T13:52:56.103Z</time></trkpt><trkpt lat="44.7557767" lon="8.2829183"><ele>169.0</ele><time>2026-04-04T13:52:57.1Z</time></trkpt><trkpt lat="44.7558417" lon="8.2828567"><ele>169.0</ele><time>2026-04-04T13:52:58.102Z</time></trkpt><trkpt lat="44.755925" lon="8.2827633"><ele>169.0</ele><time>2026-04-04T13:53:00.103Z</time></trkpt><trkpt lat="44.755985" lon="8.2827083"><ele>169.0</ele><time>2026-04-04T13:53:04.1Z</time></trkpt><trkpt lat="44.7560917" lon="8.2826067"><ele>169.0</ele><time>2026-04-04T13:53:19.104Z</time></trkpt><trkpt lat="44.7561933" lon="8.2825233"><ele>169.0</ele><time>2026-04-04T13:53:20.101Z</time></trkpt><trkpt lat="44.756325" lon="8.2823883"><ele>169.0</ele><time>2026-04-04T13:53:21.11Z</time></trkpt><trkpt lat="44.7564383" lon="8.2822517"><ele>169.0</ele><time>2026-04-04T13:53:22.102Z</time></trkpt><trkpt lat="44.7565483" lon="8.2821033"><ele>169.0</ele><time>2026-04-04T13:53:23.108Z</time></trkpt><trkpt lat="44.7566633" lon="8.2819433"><ele>169.0</ele><time>2026-04-04T13:53:24.102Z</time></trkpt><trkpt lat="44.7567683" lon="8.28178"><ele>169.0</ele><time>2026-04-04T13:53:25.105Z</time></trkpt><trkpt lat="44.7568783" lon="8.281615"><ele>170.0</ele><time>2026-04-04T13:53:26.102Z</time></trkpt><trkpt lat="44.7569867" lon="8.2814433"><ele>171.0</ele><time>2026-04-04T13:53:27.106Z</time></trkpt><trkpt lat="44.7570983" lon="8.2812717"><ele>172.0</ele><time>2026-04-04T13:53:28.104Z</time></trkpt><trkpt lat="44.75721" lon="8.281095"><ele>172.33333333333334</ele><time>2026-04-04T13:53:29.104Z</time></trkpt><trkpt lat="44.757325" lon="8.2809167"><ele>172.66666666666666</ele><time>2026-04-04T13:53:30.101Z</time></trkpt><trkpt lat="44.7574383" lon="8.2807333"><ele>173.0</ele><time>2026-04-04T13:53:31.1Z</time></trkpt><trkpt lat="44.7575533" lon="8.2805517"><ele>173.0</ele><time>2026-04-04T13:53:32.102Z</time></trkpt><trkpt lat="44.7576667" lon="8.2803667"><ele>173.0</ele><time>2026-04-04T13:53:33.1Z</time></trkpt><trkpt lat="44.75778" lon="8.2801767"><ele>173.0</ele><time>2026-04-04T13:53:34.104Z</time></trkpt><trkpt lat="44.7579" lon="8.27999"><ele>173.66666666666666</ele><time>2026-04-04T13:53:35.105Z</time></trkpt><trkpt lat="44.7580217" lon="8.2798017"><ele>174.33333333333334</ele><time>2026-04-04T13:53:36.102Z</time></trkpt><trkpt lat="44.7581433" lon="8.2796167"><ele>175.0</ele><time>2026-04-04T13:53:37.103Z</time></trkpt><trkpt lat="44.7582683" lon="8.27943"><ele>175.0</ele><time>2026-04-04T13:53:38.107Z</time></trkpt><trkpt lat="44.758395" lon="8.2792383"><ele>175.0</ele><time>2026-04-04T13:53:39.103Z</time></trkpt><trkpt lat="44.75852" lon="8.2790467"><ele>175.0</ele><time>2026-04-04T13:53:40.103Z</time></trkpt><trkpt lat="44.7586417" lon="8.278855"><ele>176.33333333333334</ele><time>2026-04-04T13:53:41.102Z</time></trkpt><trkpt lat="44.7587633" lon="8.27867"><ele>177.66666666666666</ele><time>2026-04-04T13:53:42.098Z</time></trkpt><trkpt lat="44.7588783" lon="8.2784917"><ele>179.0</ele><time>2026-04-04T13:53:43.102Z</time></trkpt><trkpt lat="44.7589867" lon="8.2783217"><ele>179.0</ele><time>2026-04-04T13:53:44.102Z</time></trkpt><trkpt lat="44.7590883" lon="8.2781533"><ele>179.0</ele><time>2026-04-04T13:53:45.1Z</time></trkpt><trkpt lat="44.759185" lon="8.27799"><ele>179.0</ele><time>2026-04-04T13:53:46.106Z</time></trkpt><trkpt lat="44.7592817" lon="8.2778283"><ele>181.75</ele><time>2026-04-04T13:53:47.104Z</time></trkpt><trkpt lat="44.75938" lon="8.2776717"><ele>184.5</ele><time>2026-04-04T13:53:48.106Z</time></trkpt><trkpt lat="44.7594783" lon="8.2775167"><ele>187.25</ele><time>2026-04-04T13:53:49.101Z</time></trkpt><trkpt lat="44.7595733" lon="8.277355"><ele>190.0</ele><time>2026-04-04T13:53:50.101Z</time></trkpt><trkpt lat="44.7596633" lon="8.2771917"><ele>190.25</ele><time>2026-04-04T13:53:51.1Z</time></trkpt><trkpt lat="44.75975" lon="8.277025"><ele>190.5</ele><time>2026-04-04T13:53:52.107Z</time></trkpt><trkpt lat="44.75983" lon="8.2768583"><ele>190.75</ele><time>2026-04-04T13:53:53.108Z</time></trkpt><trkpt lat="44.7599017" lon="8.276695"><ele>191.0</ele><time>2026-04-04T13:53:54.101Z</time></trkpt><trkpt lat="44.7599667" lon="8.276525"><ele>192.25</ele><time>2026-04-04T13:53:55.102Z</time></trkpt><trkpt lat="44.7600217" lon="8.2763517"><ele>193.5</ele><time>2026-04-04T13:53:56.104Z</time></trkpt><trkpt lat="44.7600733" lon="8.2761783"><ele>194.75</ele><time>2026-04-04T13:53:57.104Z</time></trkpt><trkpt lat="44.7601233" lon="8.2760017"><ele>196.0</ele><time>2026-04-04T13:53:58.102Z</time></trkpt><trkpt lat="44.7601733" lon="8.2758267"><ele>197.75</ele><time>2026-04-04T13:53:59.105Z</time></trkpt><trkpt lat="44.7602217" lon="8.2756567"><ele>199.5</ele><time>2026-04-04T13:54:00.101Z</time></trkpt><trkpt lat="44.7602683" lon="8.2754883"><ele>201.25</ele><time>2026-04-04T13:54:01.108Z</time></trkpt><trkpt lat="44.7603167" lon="8.2753217"><ele>203.0</ele><time>2026-04-04T13:54:02.102Z</time></trkpt><trkpt lat="44.7603633" lon="8.2751567"><ele>203.0</ele><time>2026-04-04T13:54:03.103Z</time></trkpt><trkpt lat="44.7603967" lon="8.27499"><ele>203.0</ele><time>2026-04-04T13:54:04.102Z</time></trkpt><trkpt lat="44.760435" lon="8.274825"><ele>203.0</ele><time>2026-04-04T13:54:05.102Z</time></trkpt><trkpt lat="44.7604683" lon="8.27465"><ele>203.0</ele><time>2026-04-04T13:54:06.102Z</time></trkpt><trkpt lat="44.7605033" lon="8.27447"><ele>201.75</ele><time>2026-04-04T13:54:07.108Z</time></trkpt><trkpt lat="44.7605367" lon="8.2742833"><ele>200.5</ele><time>2026-04-04T13:54:08.104Z</time></trkpt><trkpt lat="44.7605717" lon="8.27409"><ele>199.25</ele><time>2026-04-04T13:54:09.099Z</time></trkpt><trkpt lat="44.760615" lon="8.273885"><ele>198.0</ele><time>2026-04-04T13:54:10.104Z</time></trkpt><trkpt lat="44.7606617" lon="8.2736733"><ele>196.33333333333331</ele><time>2026-04-04T13:54:11.105Z</time></trkpt><trkpt lat="44.7607183" lon="8.273465"><ele>194.66666666666666</ele><time>2026-04-04T13:54:12.1Z</time></trkpt><trkpt lat="44.76078" lon="8.273255"><ele>193.0</ele><time>2026-04-04T13:54:13.101Z</time></trkpt><trkpt lat="44.7608467" lon="8.2730483"><ele>192.66666666666666</ele><time>2026-04-04T13:54:14.099Z</time></trkpt><trkpt lat="44.7609267" lon="8.27284"><ele>192.33333333333331</ele><time>2026-04-04T13:54:15.1Z</time></trkpt><trkpt lat="44.761015" lon="8.2726367"><ele>192.0</ele><time>2026-04-04T13:54:16.101Z</time></trkpt><trkpt lat="44.7611117" lon="8.2724367"><ele>189.33333333333334</ele><time>2026-04-04T13:54:17.101Z</time></trkpt><trkpt lat="44.761215" lon="8.2722483"><ele>186.66666666666669</ele><time>2026-04-04T13:54:18.105Z</time></trkpt><trkpt lat="44.761325" lon="8.2720683"><ele>184.0</ele><time>2026-04-04T13:54:19.105Z</time></trkpt><trkpt lat="44.7614367" lon="8.27189"><ele>184.0</ele><time>2026-04-04T13:54:20.106Z</time></trkpt><trkpt lat="44.7615533" lon="8.271715"><ele>184.0</ele><time>2026-04-04T13:54:21.104Z</time></trkpt><trkpt lat="44.7616767" lon="8.271555"><ele>184.0</ele><time>2026-04-04T13:54:22.104Z</time></trkpt><trkpt lat="44.7618033" lon="8.2714067"><ele>182.66666666666669</ele><time>2026-04-04T13:54:23.106Z</time></trkpt><trkpt lat="44.7619333" lon="8.271265"><ele>181.33333333333334</ele><time>2026-04-04T13:54:24.101Z</time></trkpt><trkpt lat="44.76207" lon="8.2711333"><ele>180.0</ele><time>2026-04-04T13:54:25.104Z</time></trkpt><trkpt lat="44.76221" lon="8.2710133"><ele>180.0</ele><time>2026-04-04T13:54:26.1Z</time></trkpt><trkpt lat="44.7623517" lon="8.2709"><ele>180.0</ele><time>2026-04-04T13:54:27.104Z</time></trkpt><trkpt lat="44.7625" lon="8.27079"><ele>180.0</ele><time>2026-04-04T13:54:28.101Z</time></trkpt><trkpt lat="44.762645" lon="8.2706817"><ele>177.66666666666666</ele><time>2026-04-04T13:54:29.1Z</time></trkpt><trkpt lat="44.76279" lon="8.270575"><ele>175.33333333333331</ele><time>2026-04-04T13:54:30.099Z</time></trkpt><trkpt lat="44.762935" lon="8.2704667"><ele>173.0</ele><time>2026-04-04T13:54:31.101Z</time></trkpt><trkpt lat="44.7630817" lon="8.2703667"><ele>173.0</ele><time>2026-04-04T13:54:32.105Z</time></trkpt><trkpt lat="44.7632333" lon="8.27027"><ele>173.0</ele><time>2026-04-04T13:54:33.099Z</time></trkpt><trkpt lat="44.7633867" lon="8.2701833"><ele>173.0</ele><time>2026-04-04T13:54:34.099Z</time></trkpt><trkpt lat="44.7635367" lon="8.2701067"><ele>171.33333333333331</ele><time>2026-04-04T13:54:35.102Z</time></trkpt><trkpt lat="44.7636983" lon="8.27004"><ele>169.66666666666666</ele><time>2026-04-04T13:54:36.102Z</time></trkpt><trkpt lat="44.7638583" lon="8.2699767"><ele>168.0</ele><time>2026-04-04T13:54:37.102Z</time></trkpt><trkpt lat="44.76402" lon="8.2699217"><ele>168.0</ele><time>2026-04-04T13:54:38.101Z</time></trkpt><trkpt lat="44.7641867" lon="8.2698767"><ele>168.0</ele><time>2026-04-04T13:54:39.101Z</time></trkpt><trkpt lat="44.76435" lon="8.2698317"><ele>168.0</ele><time>2026-04-04T13:54:40.101Z</time></trkpt><trkpt lat="44.7645167" lon="8.26979"><ele>164.66666666666666</ele><time>2026-04-04T13:54:41.102Z</time></trkpt><trkpt lat="44.7646817" lon="8.2697483"><ele>161.33333333333331</ele><time>2026-04-04T13:54:42.101Z</time></trkpt><trkpt lat="44.76484" lon="8.2697117"><ele>158.0</ele><time>2026-04-04T13:54:43.098Z</time></trkpt><trkpt lat="44.7650017" lon="8.2696683"><ele>158.0</ele><time>2026-04-04T13:54:44.105Z</time></trkpt><trkpt lat="44.7651667" lon="8.2696283"><ele>158.0</ele><time>2026-04-04T13:54:45.104Z</time></trkpt><trkpt lat="44.7653317" lon="8.2695933"><ele>158.0</ele><time>2026-04-04T13:54:46.102Z</time></trkpt><trkpt lat="44.765495" lon="8.26956"><ele>156.66666666666666</ele><time>2026-04-04T13:54:47.106Z</time></trkpt><trkpt lat="44.765655" lon="8.2695183"><ele>155.33333333333334</ele><time>2026-04-04T13:54:48.104Z</time></trkpt><trkpt lat="44.7658217" lon="8.2694867"><ele>154.0</ele><time>2026-04-04T13:54:49.104Z</time></trkpt><trkpt lat="44.7659867" lon="8.2694517"><ele>153.66666666666669</ele><time>2026-04-04T13:54:50.099Z</time></trkpt><trkpt lat="44.76615" lon="8.2694117"><ele>153.33333333333334</ele><time>2026-04-04T13:54:51.104Z</time></trkpt><trkpt lat="44.766315" lon="8.26937"><ele>153.0</ele><time>2026-04-04T13:54:52.103Z</time></trkpt><trkpt lat="44.766485" lon="8.2693367"><ele>153.0</ele><time>2026-04-04T13:54:53.102Z</time></trkpt><trkpt lat="44.766665" lon="8.2692967"><ele>153.0</ele><time>2026-04-04T13:54:54.099Z</time></trkpt><trkpt lat="44.7668483" lon="8.2692583"><ele>153.0</ele><time>2026-04-04T13:54:55.1Z</time></trkpt><trkpt lat="44.7670333" lon="8.2692217"><ele>152.66666666666666</ele><time>2026-04-04T13:54:56.104Z</time></trkpt><trkpt lat="44.76722" lon="8.2691917"><ele>152.33333333333331</ele><time>2026-04-04T13:54:57.099Z</time></trkpt><trkpt lat="44.7674117" lon="8.2691683"><ele>152.0</ele><time>2026-04-04T13:54:58.101Z</time></trkpt><trkpt lat="44.7676067" lon="8.2691533"><ele>151.33333333333331</ele><time>2026-04-04T13:54:59.108Z</time></trkpt><trkpt lat="44.7678" lon="8.2691433"><ele>150.66666666666666</ele><time>2026-04-04T13:55:00.101Z</time></trkpt><trkpt lat="44.7679933" lon="8.2691417"><ele>150.0</ele><time>2026-04-04T13:55:01.103Z</time></trkpt><trkpt lat="44.7681817" lon="8.26915"><ele>150.0</ele><time>2026-04-04T13:55:02.101Z</time></trkpt><trkpt lat="44.76837" lon="8.2691583"><ele>150.0</ele><time>2026-04-04T13:55:03.103Z</time></trkpt><trkpt lat="44.768555" lon="8.269175"><ele>150.0</ele><time>2026-04-04T13:55:04.102Z</time></trkpt><trkpt lat="44.7687383" lon="8.269195"><ele>150.0</ele><time>2026-04-04T13:55:05.104Z</time></trkpt><trkpt lat="44.768915" lon="8.269225"><ele>150.0</ele><time>2026-04-04T13:55:06.106Z</time></trkpt><trkpt lat="44.7690867" lon="8.26926"><ele>150.0</ele><time>2026-04-04T13:55:07.104Z</time></trkpt><trkpt lat="44.769255" lon="8.2693067"><ele>150.33333333333334</ele><time>2026-04-04T13:55:08.102Z</time></trkpt><trkpt lat="44.7694183" lon="8.2693583"><ele>150.66666666666669</ele><time>2026-04-04T13:55:09.102Z</time></trkpt><trkpt lat="44.769575" lon="8.2694117"><ele>151.0</ele><time>2026-04-04T13:55:10.102Z</time></trkpt><trkpt lat="44.7697267" lon="8.2694683"><ele>151.0</ele><time>2026-04-04T13:55:11.096Z</time></trkpt><trkpt lat="44.7698733" lon="8.2695167"><ele>151.0</ele><time>2026-04-04T13:55:12.101Z</time></trkpt><trkpt lat="44.770015" lon="8.2695633"><ele>151.0</ele><time>2026-04-04T13:55:13.102Z</time></trkpt><trkpt lat="44.7701483" lon="8.2696183"><ele>151.0</ele><time>2026-04-04T13:55:14.101Z</time></trkpt><trkpt lat="44.7702783" lon="8.2696733"><ele>151.0</ele><time>2026-04-04T13:55:15.103Z</time></trkpt><trkpt lat="44.770405" lon="8.2697267"><ele>151.0</ele><time>2026-04-04T13:55:16.102Z</time></trkpt><trkpt lat="44.7705317" lon="8.269775"><ele>151.0</ele><time>2026-04-04T13:55:17.102Z</time></trkpt><trkpt lat="44.7706583" lon="8.2698217"><ele>151.0</ele><time>2026-04-04T13:55:18.103Z</time></trkpt><trkpt lat="44.77078" lon="8.2698683"><ele>151.0</ele><time>2026-04-04T13:55:19.1Z</time></trkpt><trkpt lat="44.770895" lon="8.26991"><ele>151.0</ele><time>2026-04-04T13:55:20.103Z</time></trkpt><trkpt lat="44.7710017" lon="8.269945"><ele>151.0</ele><time>2026-04-04T13:55:21.099Z</time></trkpt><trkpt lat="44.7710983" lon="8.2699733"><ele>151.0</ele><time>2026-04-04T13:55:22.101Z</time></trkpt><trkpt lat="44.7711917" lon="8.2700017"><ele>151.0</ele><time>2026-04-04T13:55:23.102Z</time></trkpt><trkpt lat="44.7712767" lon="8.27003"><ele>151.33333333333334</ele><time>2026-04-04T13:55:24.103Z</time></trkpt><trkpt lat="44.7713583" lon="8.27006"><ele>151.66666666666669</ele><time>2026-04-04T13:55:25.103Z</time></trkpt><trkpt lat="44.7714383" lon="8.2700883"><ele>152.0</ele><time>2026-04-04T13:55:26.103Z</time></trkpt><trkpt lat="44.7715217" lon="8.2701217"><ele>152.33333333333334</ele><time>2026-04-04T13:55:27.098Z</time></trkpt><trkpt lat="44.7716083" lon="8.2701617"><ele>152.66666666666666</ele><time>2026-04-04T13:55:28.104Z</time></trkpt><trkpt lat="44.771695" lon="8.2702067"><ele>153.0</ele><time>2026-04-04T13:55:29.102Z</time></trkpt><trkpt lat="44.7717833" lon="8.270255"><ele>153.4</ele><time>2026-04-04T13:55:30.099Z</time></trkpt><trkpt lat="44.77187" lon="8.2703117"><ele>153.8</ele><time>2026-04-04T13:55:31.102Z</time></trkpt><trkpt lat="44.7719583" lon="8.270365"><ele>154.2</ele><time>2026-04-04T13:55:32.103Z</time></trkpt><trkpt lat="44.7720467" lon="8.270415"><ele>154.6</ele><time>2026-04-04T13:55:33.099Z</time></trkpt><trkpt lat="44.7721333" lon="8.2704683"><ele>155.0</ele><time>2026-04-04T13:55:34.104Z</time></trkpt><trkpt lat="44.7722167" lon="8.2705233"><ele>155.0</ele><time>2026-04-04T13:55:35.098Z</time></trkpt><trkpt lat="44.7723033" lon="8.2705833"><ele>155.0</ele><time>2026-04-04T13:55:36.105Z</time></trkpt><trkpt lat="44.7723983" lon="8.2706533"><ele>155.0</ele><time>2026-04-04T13:55:37.1Z</time></trkpt><trkpt lat="44.7724933" lon="8.270725"><ele>155.0</ele><time>2026-04-04T13:55:38.101Z</time></trkpt><trkpt lat="44.7725917" lon="8.2708033"><ele>155.0</ele><time>2026-04-04T13:55:39.103Z</time></trkpt><trkpt lat="44.7726883" lon="8.2708717"><ele>154.6</ele><time>2026-04-04T13:55:40.098Z</time></trkpt><trkpt lat="44.772775" lon="8.27094"><ele>154.2</ele><time>2026-04-04T13:55:41.108Z</time></trkpt><trkpt lat="44.7728533" lon="8.27102"><ele>153.8</ele><time>2026-04-04T13:55:42.099Z</time></trkpt><trkpt lat="44.7729267" lon="8.2710933"><ele>153.4</ele><time>2026-04-04T13:55:43.101Z</time></trkpt><trkpt lat="44.7729983" lon="8.2711617"><ele>153.0</ele><time>2026-04-04T13:55:44.1Z</time></trkpt><trkpt lat="44.773065" lon="8.2712167"><ele>153.0</ele><time>2026-04-04T13:55:45.102Z</time></trkpt><trkpt lat="44.7731367" lon="8.271285"><ele>153.0</ele><time>2026-04-04T13:55:46.102Z</time></trkpt><trkpt lat="44.7732133" lon="8.27136"><ele>153.0</ele><time>2026-04-04T13:55:47.101Z</time></trkpt><trkpt lat="44.7732933" lon="8.2714367"><ele>153.0</ele><time>2026-04-04T13:55:48.105Z</time></trkpt><trkpt lat="44.773375" lon="8.2715217"><ele>153.0</ele><time>2026-04-04T13:55:49.105Z</time></trkpt><trkpt lat="44.7734517" lon="8.2716067"><ele>152.8</ele><time>2026-04-04T13:55:50.097Z</time></trkpt><trkpt lat="44.773525" lon="8.2716933"><ele>152.60000000000002</ele><time>2026-04-04T13:55:51.099Z</time></trkpt><trkpt lat="44.7735983" lon="8.2717833"><ele>152.39999999999998</ele><time>2026-04-04T13:55:52.109Z</time></trkpt><trkpt lat="44.7736717" lon="8.2718767"><ele>152.2</ele><time>2026-04-04T13:55:53.104Z</time></trkpt><trkpt lat="44.7737367" lon="8.271955"><ele>152.0</ele><time>2026-04-04T13:55:54.102Z</time></trkpt><trkpt lat="44.7738017" lon="8.2720383"><ele>152.0</ele><time>2026-04-04T13:55:55.11Z</time></trkpt><trkpt lat="44.77387" lon="8.2721267"><ele>152.0</ele><time>2026-04-04T13:55:56.101Z</time></trkpt><trkpt lat="44.7739367" lon="8.272215"><ele>152.0</ele><time>2026-04-04T13:55:57.1Z</time></trkpt><trkpt lat="44.7740033" lon="8.2723133"><ele>152.0</ele><time>2026-04-04T13:55:58.103Z</time></trkpt><trkpt lat="44.7740717" lon="8.27241"><ele>152.0</ele><time>2026-04-04T13:55:59.101Z</time></trkpt><trkpt lat="44.774135" lon="8.2725067"><ele>151.4</ele><time>2026-04-04T13:56:00.104Z</time></trkpt><trkpt lat="44.7741967" lon="8.2726017"><ele>150.79999999999998</ele><time>2026-04-04T13:56:01.105Z</time></trkpt><trkpt lat="44.77426" lon="8.2726983"><ele>150.2</ele><time>2026-04-04T13:56:02.102Z</time></trkpt><trkpt lat="44.77432" lon="8.272805"><ele>149.6</ele><time>2026-04-04T13:56:03.098Z</time></trkpt><trkpt lat="44.774375" lon="8.2729033"><ele>149.0</ele><time>2026-04-04T13:56:04.1Z</time></trkpt><trkpt lat="44.7744267" lon="8.2729967"><ele>149.6</ele><time>2026-04-04T13:56:05.106Z</time></trkpt><trkpt lat="44.7744767" lon="8.2730883"><ele>150.2</ele><time>2026-04-04T13:56:06.102Z</time></trkpt><trkpt lat="44.7745317" lon="8.27319"><ele>150.79999999999998</ele><time>2026-04-04T13:56:07.102Z</time></trkpt><trkpt lat="44.77459" lon="8.2732967"><ele>151.4</ele><time>2026-04-04T13:56:08.101Z</time></trkpt><trkpt lat="44.77467" lon="8.2734183"><ele>152.0</ele><time>2026-04-04T13:56:09.102Z</time></trkpt><trkpt lat="44.774775" lon="8.2735533"><ele>152.0</ele><time>2026-04-04T13:56:10.101Z</time></trkpt><trkpt lat="44.7748733" lon="8.273735"><ele>152.0</ele><time>2026-04-04T13:56:11.105Z</time></trkpt><trkpt lat="44.7749617" lon="8.2739783"><ele>152.0</ele><time>2026-04-04T13:56:12.101Z</time></trkpt><trkpt lat="44.7750617" lon="8.2742167"><ele>151.33333333333331</ele><time>2026-04-04T13:56:13.104Z</time></trkpt><trkpt lat="44.7751683" lon="8.2744633"><ele>150.66666666666666</ele><time>2026-04-04T13:56:14.104Z</time></trkpt><trkpt lat="44.7752767" lon="8.2747233"><ele>150.0</ele><time>2026-04-04T13:56:15.106Z</time></trkpt><trkpt lat="44.7753767" lon="8.27499"><ele>150.66666666666666</ele><time>2026-04-04T13:56:16.107Z</time></trkpt><trkpt lat="44.77547" lon="8.2752333"><ele>151.33333333333331</ele><time>2026-04-04T13:56:17.11Z</time></trkpt><trkpt lat="44.7755583" lon="8.2754633"><ele>152.0</ele><time>2026-04-04T13:56:18.103Z</time></trkpt><trkpt lat="44.7756417" lon="8.2756867"><ele>152.0</ele><time>2026-04-04T13:56:19.1Z</time></trkpt><trkpt lat="44.775725" lon="8.2758967"><ele>152.0</ele><time>2026-04-04T13:56:20.107Z</time></trkpt><trkpt lat="44.775805" lon="8.2760983"><ele>152.0</ele><time>2026-04-04T13:56:21.106Z</time></trkpt><trkpt lat="44.7758883" lon="8.276295"><ele>151.33333333333331</ele><time>2026-04-04T13:56:22.099Z</time></trkpt><trkpt lat="44.77597" lon="8.2764933"><ele>150.66666666666666</ele><time>2026-04-04T13:56:23.104Z</time></trkpt><trkpt lat="44.776055" lon="8.27669"><ele>150.0</ele><time>2026-04-04T13:56:24.108Z</time></trkpt><trkpt lat="44.7761383" lon="8.276885"><ele>150.0</ele><time>2026-04-04T13:56:25.098Z</time></trkpt><trkpt lat="44.776215" lon="8.277075"><ele>150.0</ele><time>2026-04-04T13:56:26.099Z</time></trkpt><trkpt lat="44.7762867" lon="8.277255"><ele>150.0</ele><time>2026-04-04T13:56:27.1Z</time></trkpt><trkpt lat="44.776355" lon="8.2774267"><ele>150.0</ele><time>2026-04-04T13:56:28.099Z</time></trkpt><trkpt lat="44.7764233" lon="8.27759"><ele>149.6</ele><time>2026-04-04T13:56:29.101Z</time></trkpt><trkpt lat="44.7764917" lon="8.2777433"><ele>149.2</ele><time>2026-04-04T13:56:30.099Z</time></trkpt><trkpt lat="44.77655" lon="8.2778733"><ele>148.8</ele><time>2026-04-04T13:56:31.098Z</time></trkpt><trkpt lat="44.7765917" lon="8.277955"><ele>148.4</ele><time>2026-04-04T13:56:32.101Z</time></trkpt><trkpt lat="44.7766383" lon="8.27803"><ele>148.0</ele><time>2026-04-04T13:56:33.101Z</time></trkpt><trkpt lat="44.7766883" lon="8.278105"><ele>148.0</ele><time>2026-04-04T13:56:34.102Z</time></trkpt><trkpt lat="44.77674" lon="8.27817"><ele>148.0</ele><time>2026-04-04T13:56:35.103Z</time></trkpt><trkpt lat="44.7768017" lon="8.278245"><ele>148.0</ele><time>2026-04-04T13:56:37.107Z</time></trkpt><trkpt lat="44.7768667" lon="8.27832"><ele>148.0</ele><time>2026-04-04T13:56:39.106Z</time></trkpt><trkpt lat="44.776915" lon="8.2783833"><ele>148.0</ele><time>2026-04-04T13:56:40.101Z</time></trkpt><trkpt lat="44.776965" lon="8.27846"><ele>148.0</ele><time>2026-04-04T13:56:41.102Z</time></trkpt><trkpt lat="44.777" lon="8.27856"><ele>148.4</ele><time>2026-04-04T13:56:42.11Z</time></trkpt><trkpt lat="44.77702" lon="8.27868"><ele>148.8</ele><time>2026-04-04T13:56:43.1Z</time></trkpt><trkpt lat="44.7770233" lon="8.27882"><ele>149.2</ele><time>2026-04-04T13:56:44.099Z</time></trkpt><trkpt lat="44.7770217" lon="8.2789817"><ele>149.6</ele><time>2026-04-04T13:56:45.098Z</time></trkpt><trkpt lat="44.7770117" lon="8.2791483"><ele>150.0</ele><time>2026-04-04T13:56:46.096Z</time></trkpt><trkpt lat="44.7769983" lon="8.2793317"><ele>150.25</ele><time>2026-04-04T13:56:47.105Z</time></trkpt><trkpt lat="44.776985" lon="8.2795183"><ele>150.5</ele><time>2026-04-04T13:56:48.103Z</time></trkpt><trkpt lat="44.7769633" lon="8.2797083"><ele>150.75</ele><time>2026-04-04T13:56:49.102Z</time></trkpt><trkpt lat="44.7769467" lon="8.2798967"><ele>151.0</ele><time>2026-04-04T13:56:50.101Z</time></trkpt><trkpt lat="44.7769383" lon="8.2800733"><ele>151.0</ele><time>2026-04-04T13:56:51.104Z</time></trkpt><trkpt lat="44.7769283" lon="8.2802317"><ele>151.0</ele><time>2026-04-04T13:56:52.102Z</time></trkpt><trkpt lat="44.77692" lon="8.2803683"><ele>151.0</ele><time>2026-04-04T13:56:53.104Z</time></trkpt><trkpt lat="44.7769167" lon="8.28047"><ele>151.0</ele><time>2026-04-04T13:56:54.101Z</time></trkpt><trkpt lat="44.7769083" lon="8.2806233"><ele>151.0</ele><time>2026-04-04T13:56:56.103Z</time></trkpt><trkpt lat="44.7769267" lon="8.2807833"><ele>151.0</ele><time>2026-04-04T13:56:58.099Z</time></trkpt><trkpt lat="44.7770083" lon="8.28084"><ele>151.0</ele><time>2026-04-04T13:57:00.102Z</time></trkpt><trkpt lat="44.7770833" lon="8.280765"><ele>151.0</ele><time>2026-04-04T13:57:02.105Z</time></trkpt><trkpt lat="44.77711" lon="8.2806517"><ele>151.0</ele><time>2026-04-04T13:57:04.107Z</time></trkpt><trkpt lat="44.7771733" lon="8.2805317"><ele>151.0</ele><time>2026-04-04T14:00:09.104Z</time></trkpt><trkpt lat="44.77715" lon="8.2804167"><ele>151.0</ele><time>2026-04-04T14:00:11.102Z</time></trkpt><trkpt lat="44.7770983" lon="8.2802933"><ele>151.0</ele><time>2026-04-04T14:00:13.1Z</time></trkpt><trkpt lat="44.7770483" lon="8.2801683"><ele>151.0</ele><time>2026-04-04T14:00:15.102Z</time></trkpt><trkpt lat="44.7770483" lon="8.280015"><ele>151.0</ele><time>2026-04-04T14:00:17.103Z</time></trkpt><trkpt lat="44.7771" lon="8.2798633"><ele>151.0</ele><time>2026-04-04T14:00:19.102Z</time></trkpt><trkpt lat="44.77713" lon="8.2797583"><ele>151.0</ele><time>2026-04-04T14:00:20.104Z</time></trkpt><trkpt lat="44.777175" lon="8.2796083"><ele>151.0</ele><time>2026-04-04T14:00:22.106Z</time></trkpt><trkpt lat="44.7772217" lon="8.2795167"><ele>151.0</ele><time>2026-04-04T14:00:24.103Z</time></trkpt><trkpt lat="44.7773017" lon="8.2795083"><ele>151.0</ele><time>2026-04-04T14:00:27.102Z</time></trkpt></trkseg><trkseg><trkpt lat="44.77741" lon="8.2794433"><ele>151.0</ele><time>2026-04-04T14:26:12.104Z</time></trkpt><trkpt lat="44.777435" lon="8.2793533"><ele>151.0</ele><time>2026-04-04T14:26:15.105Z</time></trkpt><trkpt lat="44.7773383" lon="8.2793233"><ele>151.0</ele><time>2026-04-04T14:26:18.099Z</time></trkpt><trkpt lat="44.77726" lon="8.2793783"><ele>151.0</ele><time>2026-04-04T14:26:20.107Z</time></trkpt><trkpt lat="44.7771833" lon="8.279495"><ele>151.0</ele><time>2026-04-04T14:26:22.105Z</time></trkpt><trkpt lat="44.7771133" lon="8.2795833"><ele>151.0</ele><time>2026-04-04T14:26:24.101Z</time></trkpt><trkpt lat="44.7770267" lon="8.2795233"><ele>151.0</ele><time>2026-04-04T14:26:27.103Z</time></trkpt><trkpt lat="44.776995" lon="8.2793533"><ele>151.0</ele><time>2026-04-04T14:26:29.104Z</time></trkpt><trkpt lat="44.776995" lon="8.2792317"><ele>151.0</ele><time>2026-04-04T14:26:30.101Z</time></trkpt><trkpt lat="44.7770133" lon="8.2790983"><ele>151.0</ele><time>2026-04-04T14:26:31.104Z</time></trkpt><trkpt lat="44.7770267" lon="8.2789617"><ele>150.8</ele><time>2026-04-04T14:26:32.101Z</time></trkpt><trkpt lat="44.77705" lon="8.2788367"><ele>150.6</ele><time>2026-04-04T14:26:33.103Z</time></trkpt><trkpt lat="44.7770917" lon="8.2787267"><ele>150.4</ele><time>2026-04-04T14:26:34.105Z</time></trkpt><trkpt lat="44.7771567" lon="8.2786317"><ele>150.2</ele><time>2026-04-04T14:26:35.103Z</time></trkpt><trkpt lat="44.77723" lon="8.27855"><ele>150.0</ele><time>2026-04-04T14:26:36.107Z</time></trkpt><trkpt lat="44.7773217" lon="8.2784883"><ele>150.0</ele><time>2026-04-04T14:26:37.105Z</time></trkpt><trkpt lat="44.7774233" lon="8.2784517"><ele>150.0</ele><time>2026-04-04T14:26:38.104Z</time></trkpt><trkpt lat="44.7775467" lon="8.2784433"><ele>150.0</ele><time>2026-04-04T14:26:39.102Z</time></trkpt><trkpt lat="44.7776767" lon="8.2784317"><ele>150.0</ele><time>2026-04-04T14:26:40.105Z</time></trkpt><trkpt lat="44.777815" lon="8.2784133"><ele>149.75</ele><time>2026-04-04T14:26:41.103Z</time></trkpt><trkpt lat="44.777955" lon="8.2783833"><ele>149.5</ele><time>2026-04-04T14:26:42.104Z</time></trkpt><trkpt lat="44.77809" lon="8.278345"><ele>149.25</ele><time>2026-04-04T14:26:43.104Z</time></trkpt><trkpt lat="44.7782233" lon="8.278305"><ele>149.0</ele><time>2026-04-04T14:26:44.106Z</time></trkpt><trkpt lat="44.7783533" lon="8.2782667"><ele>149.0</ele><time>2026-04-04T14:26:45.104Z</time></trkpt><trkpt lat="44.7784817" lon="8.2782383"><ele>149.0</ele><time>2026-04-04T14:26:46.105Z</time></trkpt><trkpt lat="44.778605" lon="8.278225"><ele>149.0</ele><time>2026-04-04T14:26:47.098Z</time></trkpt><trkpt lat="44.778735" lon="8.278235"><ele>149.0</ele><time>2026-04-04T14:26:48.101Z</time></trkpt><trkpt lat="44.7788583" lon="8.2782583"><ele>149.0</ele><time>2026-04-04T14:26:49.101Z</time></trkpt><trkpt lat="44.7789767" lon="8.2782833"><ele>149.0</ele><time>2026-04-04T14:26:50.098Z</time></trkpt><trkpt lat="44.7791017" lon="8.2782967"><ele>149.0</ele><time>2026-04-04T14:26:51.101Z</time></trkpt><trkpt lat="44.7792233" lon="8.2783083"><ele>149.0</ele><time>2026-04-04T14:26:52.099Z</time></trkpt><trkpt lat="44.779345" lon="8.2783183"><ele>149.5</ele><time>2026-04-04T14:26:53.103Z</time></trkpt><trkpt lat="44.7794767" lon="8.2783317"><ele>150.0</ele><time>2026-04-04T14:26:54.101Z</time></trkpt><trkpt lat="44.7796117" lon="8.2783417"><ele>150.5</ele><time>2026-04-04T14:26:55.099Z</time></trkpt><trkpt lat="44.7797467" lon="8.2783617"><ele>151.0</ele><time>2026-04-04T14:26:56.101Z</time></trkpt><trkpt lat="44.7798817" lon="8.27838"><ele>151.0</ele><time>2026-04-04T14:26:57.101Z</time></trkpt><trkpt lat="44.780025" lon="8.2783967"><ele>151.0</ele><time>2026-04-04T14:26:58.104Z</time></trkpt><trkpt lat="44.7801667" lon="8.27842"><ele>151.0</ele><time>2026-04-04T14:26:59.099Z</time></trkpt><trkpt lat="44.7803067" lon="8.2784417"><ele>151.0</ele><time>2026-04-04T14:27:00.104Z</time></trkpt><trkpt lat="44.7804467" lon="8.27847"><ele>152.25</ele><time>2026-04-04T14:27:01.101Z</time></trkpt><trkpt lat="44.7805833" lon="8.2784883"><ele>153.5</ele><time>2026-04-04T14:27:02.103Z</time></trkpt><trkpt lat="44.78071" lon="8.2785"><ele>154.75</ele><time>2026-04-04T14:27:03.104Z</time></trkpt><trkpt lat="44.7808267" lon="8.278505"><ele>156.0</ele><time>2026-04-04T14:27:04.104Z</time></trkpt><trkpt lat="44.7809317" lon="8.2784917"><ele>157.6</ele><time>2026-04-04T14:27:05.106Z</time></trkpt><trkpt lat="44.78103" lon="8.2784567"><ele>159.2</ele><time>2026-04-04T14:27:06.104Z</time></trkpt><trkpt lat="44.7811267" lon="8.2784017"><ele>160.79999999999998</ele><time>2026-04-04T14:27:07.103Z</time></trkpt><trkpt lat="44.7812133" lon="8.27831"><ele>162.39999999999998</ele><time>2026-04-04T14:27:08.107Z</time></trkpt><trkpt lat="44.7812817" lon="8.278195"><ele>164.0</ele><time>2026-04-04T14:27:09.103Z</time></trkpt><trkpt lat="44.781335" lon="8.2780617"><ele>164.0</ele><time>2026-04-04T14:27:10.101Z</time></trkpt><trkpt lat="44.78138" lon="8.2779217"><ele>164.0</ele><time>2026-04-04T14:27:11.103Z</time></trkpt><trkpt lat="44.7814367" lon="8.27778"><ele>164.0</ele><time>2026-04-04T14:27:12.102Z</time></trkpt><trkpt lat="44.78151" lon="8.277655"><ele>164.0</ele><time>2026-04-04T14:27:13.101Z</time></trkpt><trkpt lat="44.7815967" lon="8.27756"><ele>164.0</ele><time>2026-04-04T14:27:14.101Z</time></trkpt><trkpt lat="44.7817017" lon="8.2775083"><ele>164.0</ele><time>2026-04-04T14:27:15.101Z</time></trkpt><trkpt lat="44.7818083" lon="8.2774983"><ele>164.0</ele><time>2026-04-04T14:27:16.102Z</time></trkpt><trkpt lat="44.7819067" lon="8.2775433"><ele>164.0</ele><time>2026-04-04T14:27:17.1Z</time></trkpt><trkpt lat="44.7819917" lon="8.277645"><ele>164.0</ele><time>2026-04-04T14:27:18.106Z</time></trkpt><trkpt lat="44.7820717" lon="8.2777717"><ele>164.0</ele><time>2026-04-04T14:27:19.107Z</time></trkpt><trkpt lat="44.78215" lon="8.2779083"><ele>163.0</ele><time>2026-04-04T14:27:20.103Z</time></trkpt><trkpt lat="44.78224" lon="8.2780583"><ele>162.0</ele><time>2026-04-04T14:27:21.103Z</time></trkpt><trkpt lat="44.782335" lon="8.2782167"><ele>161.0</ele><time>2026-04-04T14:27:22.099Z</time></trkpt><trkpt lat="44.7824283" lon="8.27838"><ele>160.0</ele><time>2026-04-04T14:27:23.105Z</time></trkpt><trkpt lat="44.7825183" lon="8.278545"><ele>160.0</ele><time>2026-04-04T14:27:24.099Z</time></trkpt><trkpt lat="44.7826067" lon="8.278715"><ele>160.0</ele><time>2026-04-04T14:27:25.104Z</time></trkpt><trkpt lat="44.7826917" lon="8.2788833"><ele>160.0</ele><time>2026-04-04T14:27:26.101Z</time></trkpt><trkpt lat="44.7827733" lon="8.2790533"><ele>160.0</ele><time>2026-04-04T14:27:27.101Z</time></trkpt><trkpt lat="44.7828583" lon="8.2792283"><ele>164.66666666666669</ele><time>2026-04-04T14:27:28.101Z</time></trkpt><trkpt lat="44.7829433" lon="8.2794033"><ele>169.33333333333334</ele><time>2026-04-04T14:27:29.103Z</time></trkpt><trkpt lat="44.7830267" lon="8.2795817"><ele>174.0</ele><time>2026-04-04T14:27:30.105Z</time></trkpt><trkpt lat="44.7831017" lon="8.27977"><ele>179.0</ele><time>2026-04-04T14:27:31.102Z</time></trkpt><trkpt lat="44.7831767" lon="8.27996"><ele>184.0</ele><time>2026-04-04T14:27:32.105Z</time></trkpt><trkpt lat="44.78325" lon="8.28015"><ele>189.0</ele><time>2026-04-04T14:27:33.098Z</time></trkpt><trkpt lat="44.783315" lon="8.2803517"><ele>189.0</ele><time>2026-04-04T14:27:34.102Z</time></trkpt><trkpt lat="44.7833667" lon="8.2805567"><ele>189.0</ele><time>2026-04-04T14:27:35.107Z</time></trkpt><trkpt lat="44.7834083" lon="8.28077"><ele>189.0</ele><time>2026-04-04T14:27:36.098Z</time></trkpt><trkpt lat="44.7834433" lon="8.2809833"><ele>189.0</ele><time>2026-04-04T14:27:37.103Z</time></trkpt><trkpt lat="44.783475" lon="8.2811933"><ele>189.0</ele><time>2026-04-04T14:27:38.1Z</time></trkpt><trkpt lat="44.7835017" lon="8.2814033"><ele>189.0</ele><time>2026-04-04T14:27:39.107Z</time></trkpt><trkpt lat="44.783535" lon="8.2816117"><ele>189.0</ele><time>2026-04-04T14:27:40.104Z</time></trkpt><trkpt lat="44.78357" lon="8.2818183"><ele>189.0</ele><time>2026-04-04T14:27:41.106Z</time></trkpt><trkpt lat="44.78362" lon="8.2820033"><ele>189.0</ele><time>2026-04-04T14:27:42.104Z</time></trkpt><trkpt lat="44.78368" lon="8.28218"><ele>189.0</ele><time>2026-04-04T14:27:43.103Z</time></trkpt><trkpt lat="44.78376" lon="8.28234"><ele>192.25</ele><time>2026-04-04T14:27:44.101Z</time></trkpt><trkpt lat="44.78386" lon="8.2824717"><ele>195.5</ele><time>2026-04-04T14:27:45.105Z</time></trkpt><trkpt lat="44.7839683" lon="8.2825883"><ele>198.75</ele><time>2026-04-04T14:27:46.101Z</time></trkpt><trkpt lat="44.78408" lon="8.2826983"><ele>202.0</ele><time>2026-04-04T14:27:47.104Z</time></trkpt><trkpt lat="44.7841833" lon="8.2827983"><ele>202.0</ele><time>2026-04-04T14:27:48.102Z</time></trkpt><trkpt lat="44.7842917" lon="8.2829017"><ele>202.0</ele><time>2026-04-04T14:27:49.102Z</time></trkpt><trkpt lat="44.7844033" lon="8.2829883"><ele>202.0</ele><time>2026-04-04T14:27:50.101Z</time></trkpt><trkpt lat="44.78452" lon="8.28306"><ele>202.0</ele><time>2026-04-04T14:27:51.1Z</time></trkpt><trkpt lat="44.7846367" lon="8.2831267"><ele>204.25</ele><time>2026-04-04T14:27:52.106Z</time></trkpt><trkpt lat="44.7847467" lon="8.2831833"><ele>206.5</ele><time>2026-04-04T14:27:53.101Z</time></trkpt><trkpt lat="44.78486" lon="8.2832283"><ele>208.75</ele><time>2026-04-04T14:27:54.11Z</time></trkpt><trkpt lat="44.7849783" lon="8.2832667"><ele>211.0</ele><time>2026-04-04T14:27:55.104Z</time></trkpt><trkpt lat="44.7850817" lon="8.283305"><ele>211.0</ele><time>2026-04-04T14:27:56.103Z</time></trkpt><trkpt lat="44.7851767" lon="8.28334"><ele>211.0</ele><time>2026-04-04T14:27:57.107Z</time></trkpt><trkpt lat="44.785265" lon="8.2833767"><ele>211.0</ele><time>2026-04-04T14:27:58.103Z</time></trkpt><trkpt lat="44.7853617" lon="8.28342"><ele>211.0</ele><time>2026-04-04T14:27:59.102Z</time></trkpt><trkpt lat="44.7854683" lon="8.2834617"><ele>211.0</ele><time>2026-04-04T14:28:00.102Z</time></trkpt><trkpt lat="44.7855733" lon="8.2835017"><ele>212.0</ele><time>2026-04-04T14:28:01.104Z</time></trkpt><trkpt lat="44.7856867" lon="8.28355"><ele>213.0</ele><time>2026-04-04T14:28:02.103Z</time></trkpt><trkpt lat="44.7857967" lon="8.2835933"><ele>214.0</ele><time>2026-04-04T14:28:03.104Z</time></trkpt><trkpt lat="44.7859133" lon="8.2836417"><ele>215.0</ele><time>2026-04-04T14:28:04.105Z</time></trkpt><trkpt lat="44.78602" lon="8.2836883"><ele>215.0</ele><time>2026-04-04T14:28:05.11Z</time></trkpt><trkpt lat="44.7861267" lon="8.2837567"><ele>215.0</ele><time>2026-04-04T14:28:06.104Z</time></trkpt><trkpt lat="44.7862283" lon="8.2838283"><ele>215.0</ele><time>2026-04-04T14:28:07.103Z</time></trkpt><trkpt lat="44.786325" lon="8.2839033"><ele>215.0</ele><time>2026-04-04T14:28:08.103Z</time></trkpt><trkpt lat="44.7864183" lon="8.2839833"><ele>216.83333333333334</ele><time>2026-04-04T14:28:09.102Z</time></trkpt><trkpt lat="44.7865033" lon="8.28406"><ele>218.66666666666669</ele><time>2026-04-04T14:28:10.101Z</time></trkpt><trkpt lat="44.7865733" lon="8.2841283"><ele>220.5</ele><time>2026-04-04T14:28:11.098Z</time></trkpt><trkpt lat="44.7866417" lon="8.2841967"><ele>222.33333333333331</ele><time>2026-04-04T14:28:12.098Z</time></trkpt><trkpt lat="44.7867" lon="8.28428"><ele>224.16666666666666</ele><time>2026-04-04T14:28:13.098Z</time></trkpt><trkpt lat="44.78675" lon="8.2843833"><ele>226.0</ele><time>2026-04-04T14:28:14.103Z</time></trkpt><trkpt lat="44.7867933" lon="8.2844933"><ele>226.0</ele><time>2026-04-04T14:28:15.103Z</time></trkpt><trkpt lat="44.7867917" lon="8.284625"><ele>226.00000000000003</ele><time>2026-04-04T14:28:16.102Z</time></trkpt><trkpt lat="44.7868117" lon="8.2847533"><ele>226.00000000000003</ele><time>2026-04-04T14:28:17.099Z</time></trkpt><trkpt lat="44.786845" lon="8.2848867"><ele>226.0</ele><time>2026-04-04T14:28:18.1Z</time></trkpt><trkpt lat="44.78687" lon="8.2850367"><ele>226.0</ele><time>2026-04-04T14:28:19.101Z</time></trkpt><trkpt lat="44.7868933" lon="8.2851983"><ele>229.0</ele><time>2026-04-04T14:28:20.101Z</time></trkpt><trkpt lat="44.7869233" lon="8.2853633"><ele>232.0</ele><time>2026-04-04T14:28:21.103Z</time></trkpt><trkpt lat="44.7869333" lon="8.2855467"><ele>235.0</ele><time>2026-04-04T14:28:22.1Z</time></trkpt><trkpt lat="44.78696" lon="8.2857217"><ele>238.0</ele><time>2026-04-04T14:28:23.101Z</time></trkpt><trkpt lat="44.7869783" lon="8.285895"><ele>238.0</ele><time>2026-04-04T14:28:24.099Z</time></trkpt><trkpt lat="44.787015" lon="8.2860617"><ele>238.0</ele><time>2026-04-04T14:28:25.107Z</time></trkpt><trkpt lat="44.78705" lon="8.28623"><ele>238.0</ele><time>2026-04-04T14:28:26.101Z</time></trkpt><trkpt lat="44.78708" lon="8.2864"><ele>238.0</ele><time>2026-04-04T14:28:27.102Z</time></trkpt><trkpt lat="44.787125" lon="8.2865683"><ele>234.25</ele><time>2026-04-04T14:28:28.102Z</time></trkpt><trkpt lat="44.787185" lon="8.2867317"><ele>230.5</ele><time>2026-04-04T14:28:29.099Z</time></trkpt><trkpt lat="44.7872483" lon="8.2869033"><ele>226.75</ele><time>2026-04-04T14:28:30.103Z</time></trkpt><trkpt lat="44.7873217" lon="8.28707"><ele>223.0</ele><time>2026-04-04T14:28:31.107Z</time></trkpt><trkpt lat="44.7874067" lon="8.2872317"><ele>220.0</ele><time>2026-04-04T14:28:32.099Z</time></trkpt><trkpt lat="44.7875183" lon="8.28737"><ele>217.0</ele><time>2026-04-04T14:28:33.103Z</time></trkpt><trkpt lat="44.787645" lon="8.2874883"><ele>214.0</ele><time>2026-04-04T14:28:34.103Z</time></trkpt><trkpt lat="44.7877817" lon="8.2875967"><ele>214.0</ele><time>2026-04-04T14:28:35.107Z</time></trkpt><trkpt lat="44.7879183" lon="8.2877067"><ele>214.0</ele><time>2026-04-04T14:28:36.098Z</time></trkpt><trkpt lat="44.788055" lon="8.2878317"><ele>214.0</ele><time>2026-04-04T14:28:37.102Z</time></trkpt><trkpt lat="44.7881933" lon="8.2879717"><ele>214.0</ele><time>2026-04-04T14:28:38.105Z</time></trkpt><trkpt lat="44.7883433" lon="8.28808"><ele>214.0</ele><time>2026-04-04T14:28:39.101Z</time></trkpt><trkpt lat="44.7884967" lon="8.2881933"><ele>214.0</ele><time>2026-04-04T14:28:40.099Z</time></trkpt><trkpt lat="44.7886583" lon="8.2883233"><ele>209.66666666666666</ele><time>2026-04-04T14:28:41.107Z</time></trkpt><trkpt lat="44.7888183" lon="8.28843"><ele>205.33333333333331</ele><time>2026-04-04T14:28:42.108Z</time></trkpt><trkpt lat="44.7889833" lon="8.28851"><ele>201.0</ele><time>2026-04-04T14:28:43.107Z</time></trkpt><trkpt lat="44.7891417" lon="8.2885833"><ele>201.0</ele><time>2026-04-04T14:28:44.101Z</time></trkpt><trkpt lat="44.7892967" lon="8.2886633"><ele>201.0</ele><time>2026-04-04T14:28:45.11Z</time></trkpt><trkpt lat="44.7894467" lon="8.2887517"><ele>201.0</ele><time>2026-04-04T14:28:46.104Z</time></trkpt><trkpt lat="44.789575" lon="8.2888767"><ele>196.0</ele><time>2026-04-04T14:28:47.113Z</time></trkpt><trkpt lat="44.7896767" lon="8.2890383"><ele>191.0</ele><time>2026-04-04T14:28:48.107Z</time></trkpt><trkpt lat="44.789785" lon="8.2892133"><ele>186.0</ele><time>2026-04-04T14:28:49.099Z</time></trkpt><trkpt lat="44.789895" lon="8.289375"><ele>186.0</ele><time>2026-04-04T14:28:50.101Z</time></trkpt><trkpt lat="44.790015" lon="8.2895367"><ele>186.0</ele><time>2026-04-04T14:28:51.099Z</time></trkpt><trkpt lat="44.790145" lon="8.28969"><ele>186.0</ele><time>2026-04-04T14:28:52.105Z</time></trkpt><trkpt lat="44.7902833" lon="8.2898317"><ele>187.33333333333334</ele><time>2026-04-04T14:28:53.101Z</time></trkpt><trkpt lat="44.7904267" lon="8.2899733"><ele>188.66666666666669</ele><time>2026-04-04T14:28:54.102Z</time></trkpt><trkpt lat="44.7905733" lon="8.2901083"><ele>190.0</ele><time>2026-04-04T14:28:55.101Z</time></trkpt><trkpt lat="44.7907133" lon="8.2902383"><ele>190.0</ele><time>2026-04-04T14:28:56.102Z</time></trkpt><trkpt lat="44.7908517" lon="8.29037"><ele>190.0</ele><time>2026-04-04T14:28:57.1Z</time></trkpt><trkpt lat="44.7909867" lon="8.2905183"><ele>190.0</ele><time>2026-04-04T14:28:58.098Z</time></trkpt><trkpt lat="44.7911167" lon="8.29067"><ele>189.33333333333334</ele><time>2026-04-04T14:28:59.103Z</time></trkpt><trkpt lat="44.7912433" lon="8.2908267"><ele>188.66666666666666</ele><time>2026-04-04T14:29:00.107Z</time></trkpt><trkpt lat="44.7913717" lon="8.2909767"><ele>188.0</ele><time>2026-04-04T14:29:01.109Z</time></trkpt><trkpt lat="44.7915017" lon="8.2911217"><ele>188.0</ele><time>2026-04-04T14:29:02.108Z</time></trkpt><trkpt lat="44.7916333" lon="8.291255"><ele>188.0</ele><time>2026-04-04T14:29:03.101Z</time></trkpt><trkpt lat="44.7917633" lon="8.2913733"><ele>188.0</ele><time>2026-04-04T14:29:04.101Z</time></trkpt><trkpt lat="44.7919083" lon="8.29148"><ele>184.33333333333331</ele><time>2026-04-04T14:29:05.102Z</time></trkpt><trkpt lat="44.7920617" lon="8.2915817"><ele>180.66666666666666</ele><time>2026-04-04T14:29:06.102Z</time></trkpt><trkpt lat="44.7922117" lon="8.2916817"><ele>177.0</ele><time>2026-04-04T14:29:07.102Z</time></trkpt><trkpt lat="44.7923633" lon="8.2917833"><ele>177.0</ele><time>2026-04-04T14:29:08.099Z</time></trkpt><trkpt lat="44.7925183" lon="8.2918867"><ele>177.0</ele><time>2026-04-04T14:29:09.103Z</time></trkpt><trkpt lat="44.7926733" lon="8.2919933"><ele>177.0</ele><time>2026-04-04T14:29:10.101Z</time></trkpt><trkpt lat="44.7928233" lon="8.2921033"><ele>176.66666666666666</ele><time>2026-04-04T14:29:11.1Z</time></trkpt><trkpt lat="44.7929733" lon="8.2922083"><ele>176.33333333333331</ele><time>2026-04-04T14:29:12.101Z</time></trkpt><trkpt lat="44.79312" lon="8.2923117"><ele>176.0</ele><time>2026-04-04T14:29:13.1Z</time></trkpt><trkpt lat="44.7932667" lon="8.2924083"><ele>176.0</ele><time>2026-04-04T14:29:14.101Z</time></trkpt><trkpt lat="44.7934167" lon="8.2924983"><ele>176.0</ele><time>2026-04-04T14:29:15.106Z</time></trkpt><trkpt lat="44.7935683" lon="8.292575"><ele>176.0</ele><time>2026-04-04T14:29:16.1Z</time></trkpt><trkpt lat="44.7937167" lon="8.29266"><ele>177.0</ele><time>2026-04-04T14:29:17.103Z</time></trkpt><trkpt lat="44.7938667" lon="8.292735"><ele>178.0</ele><time>2026-04-04T14:29:18.102Z</time></trkpt><trkpt lat="44.7940133" lon="8.29281"><ele>179.0</ele><time>2026-04-04T14:29:19.1Z</time></trkpt><trkpt lat="44.7941567" lon="8.292895"><ele>179.0</ele><time>2026-04-04T14:29:20.105Z</time></trkpt><trkpt lat="44.7943" lon="8.2929867"><ele>179.0</ele><time>2026-04-04T14:29:21.103Z</time></trkpt><trkpt lat="44.7944417" lon="8.2930783"><ele>179.0</ele><time>2026-04-04T14:29:22.103Z</time></trkpt><trkpt lat="44.7945883" lon="8.2931617"><ele>178.0</ele><time>2026-04-04T14:29:23.105Z</time></trkpt><trkpt lat="44.7947367" lon="8.2932417"><ele>177.0</ele><time>2026-04-04T14:29:24.106Z</time></trkpt><trkpt lat="44.7948933" lon="8.2933183"><ele>176.0</ele><time>2026-04-04T14:29:25.108Z</time></trkpt><trkpt lat="44.7950483" lon="8.293395"><ele>178.0</ele><time>2026-04-04T14:29:26.101Z</time></trkpt><trkpt lat="44.7952033" lon="8.2934683"><ele>180.0</ele><time>2026-04-04T14:29:27.107Z</time></trkpt><trkpt lat="44.7953617" lon="8.2935367"><ele>182.0</ele><time>2026-04-04T14:29:28.1Z</time></trkpt><trkpt lat="44.7955167" lon="8.2935983"><ele>182.0</ele><time>2026-04-04T14:29:29.104Z</time></trkpt><trkpt lat="44.7956767" lon="8.2936517"><ele>182.0</ele><time>2026-04-04T14:29:30.1Z</time></trkpt><trkpt lat="44.7958417" lon="8.2936967"><ele>182.0</ele><time>2026-04-04T14:29:31.104Z</time></trkpt><trkpt lat="44.79601" lon="8.2937283"><ele>180.66666666666666</ele><time>2026-04-04T14:29:32.107Z</time></trkpt><trkpt lat="44.7961833" lon="8.2937533"><ele>179.33333333333334</ele><time>2026-04-04T14:29:33.106Z</time></trkpt><trkpt lat="44.79636" lon="8.2937767"><ele>178.0</ele><time>2026-04-04T14:29:34.103Z</time></trkpt><trkpt lat="44.7965417" lon="8.2938033"><ele>178.0</ele><time>2026-04-04T14:29:35.104Z</time></trkpt><trkpt lat="44.7967233" lon="8.2938233"><ele>178.0</ele><time>2026-04-04T14:29:36.106Z</time></trkpt><trkpt lat="44.7969067" lon="8.2938167"><ele>178.0</ele><time>2026-04-04T14:29:37.104Z</time></trkpt><trkpt lat="44.79708" lon="8.2938183"><ele>174.66666666666669</ele><time>2026-04-04T14:29:38.102Z</time></trkpt><trkpt lat="44.7972483" lon="8.293825"><ele>171.33333333333334</ele><time>2026-04-04T14:29:39.101Z</time></trkpt><trkpt lat="44.7974217" lon="8.2938633"><ele>168.0</ele><time>2026-04-04T14:29:40.11Z</time></trkpt><trkpt lat="44.7975867" lon="8.2939233"><ele>167.66666666666666</ele><time>2026-04-04T14:29:41.107Z</time></trkpt><trkpt lat="44.7977483" lon="8.29401"><ele>167.33333333333331</ele><time>2026-04-04T14:29:42.101Z</time></trkpt><trkpt lat="44.7979033" lon="8.2941133"><ele>167.0</ele><time>2026-04-04T14:29:43.104Z</time></trkpt><trkpt lat="44.7980483" lon="8.2942233"><ele>167.0</ele><time>2026-04-04T14:29:44.099Z</time></trkpt><trkpt lat="44.798175" lon="8.2943383"><ele>167.0</ele><time>2026-04-04T14:29:45.1Z</time></trkpt><trkpt lat="44.79827" lon="8.294485"><ele>167.0</ele><time>2026-04-04T14:29:46.101Z</time></trkpt><trkpt lat="44.7983733" lon="8.294625"><ele>167.0</ele><time>2026-04-04T14:29:47.103Z</time></trkpt><trkpt lat="44.79848" lon="8.29474"><ele>166.25</ele><time>2026-04-04T14:29:48.109Z</time></trkpt><trkpt lat="44.7986017" lon="8.2948217"><ele>165.5</ele><time>2026-04-04T14:29:49.103Z</time></trkpt><trkpt lat="44.7987433" lon="8.2948717"><ele>164.75</ele><time>2026-04-04T14:29:50.102Z</time></trkpt><trkpt lat="44.7989067" lon="8.2948817"><ele>164.0</ele><time>2026-04-04T14:29:51.101Z</time></trkpt><trkpt lat="44.7990717" lon="8.294875"><ele>164.0</ele><time>2026-04-04T14:29:52.102Z</time></trkpt><trkpt lat="44.7992317" lon="8.294875"><ele>164.0</ele><time>2026-04-04T14:29:53.1Z</time></trkpt><trkpt lat="44.799395" lon="8.29488"><ele>164.0</ele><time>2026-04-04T14:29:54.108Z</time></trkpt><trkpt lat="44.7995533" lon="8.2949"><ele>165.33333333333331</ele><time>2026-04-04T14:29:55.102Z</time></trkpt><trkpt lat="44.79971" lon="8.294935"><ele>166.66666666666666</ele><time>2026-04-04T14:29:56.105Z</time></trkpt><trkpt lat="44.7998583" lon="8.29499"><ele>168.0</ele><time>2026-04-04T14:29:57.103Z</time></trkpt><trkpt lat="44.8000033" lon="8.2950583"><ele>168.0</ele><time>2026-04-04T14:29:58.101Z</time></trkpt><trkpt lat="44.8001433" lon="8.2951683"><ele>168.0</ele><time>2026-04-04T14:29:59.1Z</time></trkpt><trkpt lat="44.8002883" lon="8.2952833"><ele>168.0</ele><time>2026-04-04T14:30:00.103Z</time></trkpt><trkpt lat="44.8004317" lon="8.2953733"><ele>166.75</ele><time>2026-04-04T14:30:01.105Z</time></trkpt><trkpt lat="44.8005533" lon="8.2954433"><ele>165.5</ele><time>2026-04-04T14:30:02.1Z</time></trkpt><trkpt lat="44.8006617" lon="8.2955167"><ele>164.25</ele><time>2026-04-04T14:30:03.104Z</time></trkpt><trkpt lat="44.80077" lon="8.295575"><ele>163.0</ele><time>2026-04-04T14:30:04.103Z</time></trkpt><trkpt lat="44.8008817" lon="8.2956317"><ele>162.25</ele><time>2026-04-04T14:30:05.109Z</time></trkpt><trkpt lat="44.8010083" lon="8.29569"><ele>161.5</ele><time>2026-04-04T14:30:06.104Z</time></trkpt><trkpt lat="44.801145" lon="8.2957533"><ele>160.75</ele><time>2026-04-04T14:30:07.101Z</time></trkpt><trkpt lat="44.80129" lon="8.29582"><ele>160.0</ele><time>2026-04-04T14:30:08.104Z</time></trkpt><trkpt lat="44.8014433" lon="8.2959"><ele>160.0</ele><time>2026-04-04T14:30:09.104Z</time></trkpt><trkpt lat="44.8016067" lon="8.2959817"><ele>160.0</ele><time>2026-04-04T14:30:10.106Z</time></trkpt><trkpt lat="44.8017767" lon="8.2960633"><ele>160.0</ele><time>2026-04-04T14:30:11.106Z</time></trkpt><trkpt lat="44.8019467" lon="8.2961483"><ele>161.66666666666669</ele><time>2026-04-04T14:30:12.103Z</time></trkpt><trkpt lat="44.8021167" lon="8.2962383"><ele>163.33333333333334</ele><time>2026-04-04T14:30:13.101Z</time></trkpt><trkpt lat="44.8022833" lon="8.29633"><ele>165.0</ele><time>2026-04-04T14:30:14.101Z</time></trkpt><trkpt lat="44.8024517" lon="8.2964217"><ele>163.0</ele><time>2026-04-04T14:30:15.1Z</time></trkpt><trkpt lat="44.8026183" lon="8.2965117"><ele>161.0</ele><time>2026-04-04T14:30:16.105Z</time></trkpt><trkpt lat="44.8027833" lon="8.2965967"><ele>159.0</ele><time>2026-04-04T14:30:17.102Z</time></trkpt><trkpt lat="44.80295" lon="8.29668"><ele>159.0</ele><time>2026-04-04T14:30:18.105Z</time></trkpt><trkpt lat="44.80312" lon="8.2967617"><ele>159.0</ele><time>2026-04-04T14:30:19.103Z</time></trkpt><trkpt lat="44.8032883" lon="8.2968483"><ele>159.0</ele><time>2026-04-04T14:30:20.102Z</time></trkpt><trkpt lat="44.8034533" lon="8.2969217"><ele>158.0</ele><time>2026-04-04T14:30:21.101Z</time></trkpt><trkpt lat="44.80362" lon="8.2969683"><ele>157.0</ele><time>2026-04-04T14:30:22.103Z</time></trkpt><trkpt lat="44.8037917" lon="8.2969817"><ele>156.0</ele><time>2026-04-04T14:30:23.102Z</time></trkpt><trkpt lat="44.8039683" lon="8.29695"><ele>156.0</ele><time>2026-04-04T14:30:24.101Z</time></trkpt><trkpt lat="44.8041433" lon="8.2968783"><ele>156.0</ele><time>2026-04-04T14:30:25.104Z</time></trkpt><trkpt lat="44.8043133" lon="8.296785"><ele>156.0</ele><time>2026-04-04T14:30:26.106Z</time></trkpt><trkpt lat="44.8044783" lon="8.2966783"><ele>156.66666666666666</ele><time>2026-04-04T14:30:27.107Z</time></trkpt><trkpt lat="44.8046433" lon="8.2965633"><ele>157.33333333333331</ele><time>2026-04-04T14:30:28.104Z</time></trkpt><trkpt lat="44.80481" lon="8.2964483"><ele>158.0</ele><time>2026-04-04T14:30:29.102Z</time></trkpt><trkpt lat="44.8049783" lon="8.2963383"><ele>158.0</ele><time>2026-04-04T14:30:30.105Z</time></trkpt><trkpt lat="44.80515" lon="8.2962267"><ele>158.0</ele><time>2026-04-04T14:30:31.104Z</time></trkpt><trkpt lat="44.80532" lon="8.2961167"><ele>158.0</ele><time>2026-04-04T14:30:32.107Z</time></trkpt><trkpt lat="44.805495" lon="8.2960067"><ele>157.0</ele><time>2026-04-04T14:30:33.101Z</time></trkpt><trkpt lat="44.80567" lon="8.2958983"><ele>156.0</ele><time>2026-04-04T14:30:34.101Z</time></trkpt><trkpt lat="44.8058467" lon="8.2957867"><ele>155.0</ele><time>2026-04-04T14:30:35.103Z</time></trkpt><trkpt lat="44.8060217" lon="8.2956783"><ele>155.33333333333331</ele><time>2026-04-04T14:30:36.105Z</time></trkpt><trkpt lat="44.8062017" lon="8.2955867"><ele>155.66666666666666</ele><time>2026-04-04T14:30:37.105Z</time></trkpt><trkpt lat="44.8063833" lon="8.2955133"><ele>156.0</ele><time>2026-04-04T14:30:38.1Z</time></trkpt><trkpt lat="44.8065633" lon="8.2954683"><ele>156.0</ele><time>2026-04-04T14:30:39.101Z</time></trkpt><trkpt lat="44.8067417" lon="8.2954533"><ele>156.0</ele><time>2026-04-04T14:30:40.103Z</time></trkpt><trkpt lat="44.8069217" lon="8.2954567"><ele>156.0</ele><time>2026-04-04T14:30:41.103Z</time></trkpt><trkpt lat="44.8070933" lon="8.29548"><ele>155.0</ele><time>2026-04-04T14:30:42.103Z</time></trkpt><trkpt lat="44.8072617" lon="8.2955167"><ele>154.0</ele><time>2026-04-04T14:30:43.1Z</time></trkpt><trkpt lat="44.8074283" lon="8.2955783"><ele>153.0</ele><time>2026-04-04T14:30:44.104Z</time></trkpt><trkpt lat="44.8075917" lon="8.2956567"><ele>154.0</ele><time>2026-04-04T14:30:45.104Z</time></trkpt><trkpt lat="44.8077583" lon="8.2957467"><ele>155.0</ele><time>2026-04-04T14:30:46.104Z</time></trkpt><trkpt lat="44.8079367" lon="8.295835"><ele>156.0</ele><time>2026-04-04T14:30:47.102Z</time></trkpt><trkpt lat="44.80812" lon="8.295915"><ele>156.0</ele><time>2026-04-04T14:30:48.102Z</time></trkpt><trkpt lat="44.808305" lon="8.2959983"><ele>156.0</ele><time>2026-04-04T14:30:49.102Z</time></trkpt><trkpt lat="44.8084867" lon="8.2960983"><ele>156.0</ele><time>2026-04-04T14:30:50.103Z</time></trkpt><trkpt lat="44.8086683" lon="8.2961817"><ele>156.66666666666666</ele><time>2026-04-04T14:30:51.102Z</time></trkpt><trkpt lat="44.8088417" lon="8.29628"><ele>157.33333333333331</ele><time>2026-04-04T14:30:52.1Z</time></trkpt><trkpt lat="44.8090067" lon="8.29638"><ele>158.0</ele><time>2026-04-04T14:30:53.109Z</time></trkpt><trkpt lat="44.809155" lon="8.2965"><ele>156.33333333333331</ele><time>2026-04-04T14:30:54.104Z</time></trkpt><trkpt lat="44.8092917" lon="8.2966517"><ele>154.66666666666666</ele><time>2026-04-04T14:30:55.102Z</time></trkpt><trkpt lat="44.8094183" lon="8.2968183"><ele>153.0</ele><time>2026-04-04T14:30:56.1Z</time></trkpt><trkpt lat="44.8095433" lon="8.2969733"><ele>153.0</ele><time>2026-04-04T14:30:57.104Z</time></trkpt><trkpt lat="44.8096767" lon="8.2971017"><ele>153.0</ele><time>2026-04-04T14:30:58.104Z</time></trkpt><trkpt lat="44.809825" lon="8.2972"><ele>153.0</ele><time>2026-04-04T14:30:59.102Z</time></trkpt><trkpt lat="44.8099817" lon="8.29729"><ele>153.0</ele><time>2026-04-04T14:31:00.104Z</time></trkpt><trkpt lat="44.81015" lon="8.2973683"><ele>153.0</ele><time>2026-04-04T14:31:01.101Z</time></trkpt><trkpt lat="44.8103183" lon="8.2974517"><ele>153.0</ele><time>2026-04-04T14:31:02.102Z</time></trkpt><trkpt lat="44.8104883" lon="8.29755"><ele>153.0</ele><time>2026-04-04T14:31:03.101Z</time></trkpt><trkpt lat="44.810655" lon="8.29765"><ele>153.0</ele><time>2026-04-04T14:31:04.102Z</time></trkpt><trkpt lat="44.8108167" lon="8.2977483"><ele>153.0</ele><time>2026-04-04T14:31:05.102Z</time></trkpt><trkpt lat="44.8109783" lon="8.2978633"><ele>152.33333333333334</ele><time>2026-04-04T14:31:06.106Z</time></trkpt><trkpt lat="44.8111383" lon="8.297985"><ele>151.66666666666669</ele><time>2026-04-04T14:31:07.101Z</time></trkpt><trkpt lat="44.8112933" lon="8.2981133"><ele>151.0</ele><time>2026-04-04T14:31:08.102Z</time></trkpt><trkpt lat="44.8114517" lon="8.2982283"><ele>151.0</ele><time>2026-04-04T14:31:09.1Z</time></trkpt><trkpt lat="44.8116117" lon="8.2983267"><ele>151.0</ele><time>2026-04-04T14:31:10.101Z</time></trkpt><trkpt lat="44.811765" lon="8.2984133"><ele>151.0</ele><time>2026-04-04T14:31:11.1Z</time></trkpt><trkpt lat="44.8119217" lon="8.2984883"><ele>151.0</ele><time>2026-04-04T14:31:12.098Z</time></trkpt><trkpt lat="44.8120767" lon="8.2985517"><ele>151.0</ele><time>2026-04-04T14:31:13.104Z</time></trkpt><trkpt lat="44.8122333" lon="8.2986117"><ele>151.0</ele><time>2026-04-04T14:31:14.1Z</time></trkpt><trkpt lat="44.8123817" lon="8.2986583"><ele>151.0</ele><time>2026-04-04T14:31:15.099Z</time></trkpt><trkpt lat="44.8125133" lon="8.29871"><ele>151.0</ele><time>2026-04-04T14:31:16.1Z</time></trkpt><trkpt lat="44.812625" lon="8.2987517"><ele>151.0</ele><time>2026-04-04T14:31:17.101Z</time></trkpt><trkpt lat="44.8127033" lon="8.2987967"><ele>151.0</ele><time>2026-04-04T14:31:18.103Z</time></trkpt><trkpt lat="44.81277" lon="8.2988533"><ele>151.0</ele><time>2026-04-04T14:31:19.104Z</time></trkpt><trkpt lat="44.8128483" lon="8.2989883"><ele>150.8</ele><time>2026-04-04T14:31:21.104Z</time></trkpt><trkpt lat="44.8128517" lon="8.2990917"><ele>150.6</ele><time>2026-04-04T14:31:22.103Z</time></trkpt><trkpt lat="44.812835" lon="8.299215"><ele>150.4</ele><time>2026-04-04T14:31:23.102Z</time></trkpt><trkpt lat="44.8128117" lon="8.2993517"><ele>150.2</ele><time>2026-04-04T14:31:24.103Z</time></trkpt><trkpt lat="44.8127867" lon="8.2994983"><ele>150.0</ele><time>2026-04-04T14:31:25.102Z</time></trkpt><trkpt lat="44.8127333" lon="8.2996783"><ele>150.0</ele><time>2026-04-04T14:31:26.103Z</time></trkpt><trkpt lat="44.8126883" lon="8.2998583"><ele>150.0</ele><time>2026-04-04T14:31:27.104Z</time></trkpt><trkpt lat="44.8126333" lon="8.3000433"><ele>150.0</ele><time>2026-04-04T14:31:28.105Z</time></trkpt><trkpt lat="44.8125733" lon="8.300225"><ele>150.0</ele><time>2026-04-04T14:31:29.1Z</time></trkpt><trkpt lat="44.8124917" lon="8.300405"><ele>150.0</ele><time>2026-04-04T14:31:30.1Z</time></trkpt><trkpt lat="44.812415" lon="8.3005867"><ele>150.0</ele><time>2026-04-04T14:31:31.1Z</time></trkpt><trkpt lat="44.81235" lon="8.3007767"><ele>150.0</ele><time>2026-04-04T14:31:32.102Z</time></trkpt><trkpt lat="44.8123133" lon="8.300975"><ele>150.0</ele><time>2026-04-04T14:31:33.103Z</time></trkpt><trkpt lat="44.8122983" lon="8.3011833"><ele>150.0</ele><time>2026-04-04T14:31:34.102Z</time></trkpt><trkpt lat="44.8123117" lon="8.30139"><ele>150.0</ele><time>2026-04-04T14:31:35.102Z</time></trkpt><trkpt lat="44.8123317" lon="8.3015817"><ele>150.0</ele><time>2026-04-04T14:31:36.102Z</time></trkpt><trkpt lat="44.812345" lon="8.30177"><ele>150.0</ele><time>2026-04-04T14:31:37.101Z</time></trkpt><trkpt lat="44.8123383" lon="8.3019467"><ele>150.75</ele><time>2026-04-04T14:31:38.102Z</time></trkpt><trkpt lat="44.8123033" lon="8.30211"><ele>151.5</ele><time>2026-04-04T14:31:39.104Z</time></trkpt><trkpt lat="44.8122583" lon="8.3022633"><ele>152.25</ele><time>2026-04-04T14:31:40.101Z</time></trkpt><trkpt lat="44.8122117" lon="8.30242"><ele>153.0</ele><time>2026-04-04T14:31:41.105Z</time></trkpt><trkpt lat="44.8121867" lon="8.3025817"><ele>153.5</ele><time>2026-04-04T14:31:42.103Z</time></trkpt><trkpt lat="44.8121817" lon="8.30276"><ele>154.0</ele><time>2026-04-04T14:31:43.107Z</time></trkpt><trkpt lat="44.8121983" lon="8.302945"><ele>154.5</ele><time>2026-04-04T14:31:44.107Z</time></trkpt><trkpt lat="44.8122217" lon="8.3031283"><ele>155.0</ele><time>2026-04-04T14:31:45.103Z</time></trkpt><trkpt lat="44.81224" lon="8.303315"><ele>156.5</ele><time>2026-04-04T14:31:46.102Z</time></trkpt><trkpt lat="44.8122433" lon="8.3034967"><ele>158.0</ele><time>2026-04-04T14:31:47.103Z</time></trkpt><trkpt lat="44.81224" lon="8.303675"><ele>159.5</ele><time>2026-04-04T14:31:48.105Z</time></trkpt><trkpt lat="44.8122417" lon="8.30385"><ele>161.0</ele><time>2026-04-04T14:31:49.105Z</time></trkpt><trkpt lat="44.812255" lon="8.30402"><ele>163.0</ele><time>2026-04-04T14:31:50.105Z</time></trkpt><trkpt lat="44.8122833" lon="8.3041767"><ele>165.0</ele><time>2026-04-04T14:31:51.102Z</time></trkpt><trkpt lat="44.8123217" lon="8.3043183"><ele>167.0</ele><time>2026-04-04T14:31:52.1Z</time></trkpt><trkpt lat="44.8123667" lon="8.3044483"><ele>169.0</ele><time>2026-04-04T14:31:53.101Z</time></trkpt><trkpt lat="44.812415" lon="8.3045467"><ele>171.0</ele><time>2026-04-04T14:31:54.104Z</time></trkpt><trkpt lat="44.8124617" lon="8.3046217"><ele>171.0</ele><time>2026-04-04T14:31:55.099Z</time></trkpt><trkpt lat="44.8125067" lon="8.3046883"><ele>171.0</ele><time>2026-04-04T14:31:56.099Z</time></trkpt><trkpt lat="44.8125483" lon="8.304755"><ele>171.0</ele><time>2026-04-04T14:31:57.101Z</time></trkpt><trkpt lat="44.8125833" lon="8.30489"><ele>171.0</ele><time>2026-04-04T14:31:59.107Z</time></trkpt><trkpt lat="44.8124633" lon="8.304905"><ele>171.0</ele><time>2026-04-04T14:32:01.103Z</time></trkpt><trkpt lat="44.8123917" lon="8.3048567"><ele>171.0</ele><time>2026-04-04T14:32:02.101Z</time></trkpt><trkpt lat="44.81231" lon="8.3047833"><ele>171.0</ele><time>2026-04-04T14:32:03.101Z</time></trkpt><trkpt lat="44.8122317" lon="8.304695"><ele>171.0</ele><time>2026-04-04T14:32:04.107Z</time></trkpt><trkpt lat="44.812155" lon="8.3045617"><ele>171.0</ele><time>2026-04-04T14:32:05.1Z</time></trkpt><trkpt lat="44.8120817" lon="8.3044283"><ele>171.0</ele><time>2026-04-04T14:32:06.098Z</time></trkpt><trkpt lat="44.812" lon="8.3042933"><ele>171.0</ele><time>2026-04-04T14:32:07.101Z</time></trkpt><trkpt lat="44.8119183" lon="8.30416"><ele>171.0</ele><time>2026-04-04T14:32:08.102Z</time></trkpt><trkpt lat="44.811845" lon="8.3040233"><ele>171.0</ele><time>2026-04-04T14:32:09.102Z</time></trkpt><trkpt lat="44.81178" lon="8.3038933"><ele>171.0</ele><time>2026-04-04T14:32:10.102Z</time></trkpt><trkpt lat="44.8117167" lon="8.3037783"><ele>174.20000000000002</ele><time>2026-04-04T14:32:11.102Z</time></trkpt><trkpt lat="44.811655" lon="8.3036817"><ele>177.4</ele><time>2026-04-04T14:32:12.098Z</time></trkpt><trkpt lat="44.8115817" lon="8.3036067"><ele>180.6</ele><time>2026-04-04T14:32:13.108Z</time></trkpt><trkpt lat="44.8115067" lon="8.3035567"><ele>183.8</ele><time>2026-04-04T14:32:14.1Z</time></trkpt><trkpt lat="44.8114267" lon="8.30354"><ele>187.0</ele><time>2026-04-04T14:32:15.1Z</time></trkpt><trkpt lat="44.811335" lon="8.3036167"><ele>187.0</ele><time>2026-04-04T14:32:16.101Z</time></trkpt><trkpt lat="44.8112567" lon="8.3037033"><ele>187.0</ele><time>2026-04-04T14:32:17.101Z</time></trkpt><trkpt lat="44.8111867" lon="8.3038033"><ele>187.0</ele><time>2026-04-04T14:32:18.103Z</time></trkpt><trkpt lat="44.81112" lon="8.3039083"><ele>187.0</ele><time>2026-04-04T14:32:19.105Z</time></trkpt><trkpt lat="44.8110583" lon="8.3040167"><ele>187.0</ele><time>2026-04-04T14:32:20.102Z</time></trkpt><trkpt lat="44.8110017" lon="8.304125"><ele>189.6</ele><time>2026-04-04T14:32:21.104Z</time></trkpt><trkpt lat="44.8109417" lon="8.304225"><ele>192.2</ele><time>2026-04-04T14:32:22.101Z</time></trkpt><trkpt lat="44.8108783" lon="8.3043233"><ele>194.8</ele><time>2026-04-04T14:32:23.105Z</time></trkpt><trkpt lat="44.81081" lon="8.3044183"><ele>197.4</ele><time>2026-04-04T14:32:24.099Z</time></trkpt><trkpt lat="44.8107317" lon="8.3045083"><ele>200.0</ele><time>2026-04-04T14:32:25.105Z</time></trkpt><trkpt lat="44.8106433" lon="8.3045867"><ele>200.0</ele><time>2026-04-04T14:32:26.102Z</time></trkpt><trkpt lat="44.8105483" lon="8.3046633"><ele>200.0</ele><time>2026-04-04T14:32:27.1Z</time></trkpt><trkpt lat="44.8104467" lon="8.30474"><ele>200.0</ele><time>2026-04-04T14:32:28.1Z</time></trkpt><trkpt lat="44.8103417" lon="8.3048167"><ele>200.0</ele><time>2026-04-04T14:32:29.103Z</time></trkpt><trkpt lat="44.8102367" lon="8.30489"><ele>203.5</ele><time>2026-04-04T14:32:30.102Z</time></trkpt><trkpt lat="44.8101267" lon="8.3049633"><ele>207.0</ele><time>2026-04-04T14:32:31.104Z</time></trkpt><trkpt lat="44.810015" lon="8.30503"><ele>210.5</ele><time>2026-04-04T14:32:32.103Z</time></trkpt><trkpt lat="44.809905" lon="8.3051033"><ele>214.0</ele><time>2026-04-04T14:32:33.102Z</time></trkpt><trkpt lat="44.8097967" lon="8.305195"><ele>214.0</ele><time>2026-04-04T14:32:34.102Z</time></trkpt><trkpt lat="44.8096933" lon="8.3052883"><ele>214.0</ele><time>2026-04-04T14:32:35.105Z</time></trkpt><trkpt lat="44.809595" lon="8.3053883"><ele>214.0</ele><time>2026-04-04T14:32:36.1Z</time></trkpt><trkpt lat="44.8094917" lon="8.3054867"><ele>214.0</ele><time>2026-04-04T14:32:37.103Z</time></trkpt><trkpt lat="44.8093867" lon="8.3055833"><ele>216.0</ele><time>2026-04-04T14:32:38.101Z</time></trkpt><trkpt lat="44.809275" lon="8.30566"><ele>218.0</ele><time>2026-04-04T14:32:39.104Z</time></trkpt><trkpt lat="44.80916" lon="8.3057267"><ele>220.0</ele><time>2026-04-04T14:32:40.103Z</time></trkpt><trkpt lat="44.8090533" lon="8.305775"><ele>222.0</ele><time>2026-04-04T14:32:41.104Z</time></trkpt><trkpt lat="44.8089583" lon="8.305835"><ele>222.0</ele><time>2026-04-04T14:32:42.104Z</time></trkpt><trkpt lat="44.8088717" lon="8.3059017"><ele>222.0</ele><time>2026-04-04T14:32:43.101Z</time></trkpt><trkpt lat="44.80882" lon="8.30599"><ele>222.0</ele><time>2026-04-04T14:32:44.103Z</time></trkpt><trkpt lat="44.8088017" lon="8.3060917"><ele>222.0</ele><time>2026-04-04T14:32:45.106Z</time></trkpt><trkpt lat="44.8087967" lon="8.3061983"><ele>222.0</ele><time>2026-04-04T14:32:46.106Z</time></trkpt><trkpt lat="44.808875" lon="8.3063267"><ele>223.0</ele><time>2026-04-04T14:32:47.106Z</time></trkpt><trkpt lat="44.8089517" lon="8.3064367"><ele>224.0</ele><time>2026-04-04T14:32:48.107Z</time></trkpt><trkpt lat="44.80903" lon="8.3065483"><ele>225.0</ele><time>2026-04-04T14:32:49.106Z</time></trkpt><trkpt lat="44.8091067" lon="8.30666"><ele>226.0</ele><time>2026-04-04T14:32:50.108Z</time></trkpt><trkpt lat="44.8091767" lon="8.306775"><ele>227.0</ele><time>2026-04-04T14:32:51.099Z</time></trkpt><trkpt lat="44.8092283" lon="8.3068917"><ele>227.0</ele><time>2026-04-04T14:32:52.1Z</time></trkpt><trkpt lat="44.8092517" lon="8.3070283"><ele>227.0</ele><time>2026-04-04T14:32:53.103Z</time></trkpt><trkpt lat="44.80924" lon="8.3071667"><ele>227.0</ele><time>2026-04-04T14:32:54.098Z</time></trkpt><trkpt lat="44.8091967" lon="8.3073067"><ele>227.0</ele><time>2026-04-04T14:32:55.102Z</time></trkpt><trkpt lat="44.8091417" lon="8.307445"><ele>227.0</ele><time>2026-04-04T14:32:56.1Z</time></trkpt><trkpt lat="44.80908" lon="8.307585"><ele>228.75</ele><time>2026-04-04T14:32:57.1Z</time></trkpt><trkpt lat="44.80901" lon="8.3077217"><ele>230.5</ele><time>2026-04-04T14:32:58.098Z</time></trkpt><trkpt lat="44.8089283" lon="8.3078467"><ele>232.25</ele><time>2026-04-04T14:32:59.1Z</time></trkpt><trkpt lat="44.80884" lon="8.3079633"><ele>234.0</ele><time>2026-04-04T14:33:00.103Z</time></trkpt><trkpt lat="44.8087467" lon="8.30807"><ele>233.75</ele><time>2026-04-04T14:33:01.1Z</time></trkpt><trkpt lat="44.808665" lon="8.3081933"><ele>233.5</ele><time>2026-04-04T14:33:02.102Z</time></trkpt><trkpt lat="44.8085967" lon="8.30834"><ele>233.25</ele><time>2026-04-04T14:33:03.101Z</time></trkpt><trkpt lat="44.8085367" lon="8.3084967"><ele>233.0</ele><time>2026-04-04T14:33:04.103Z</time></trkpt><trkpt lat="44.8084883" lon="8.3086633"><ele>238.0</ele><time>2026-04-04T14:33:05.102Z</time></trkpt><trkpt lat="44.8084433" lon="8.308835"><ele>243.0</ele><time>2026-04-04T14:33:06.104Z</time></trkpt><trkpt lat="44.8083983" lon="8.3090083"><ele>248.0</ele><time>2026-04-04T14:33:07.102Z</time></trkpt><trkpt lat="44.8083333" lon="8.3091733"><ele>253.0</ele><time>2026-04-04T14:33:08.105Z</time></trkpt><trkpt lat="44.8082833" lon="8.30934"><ele>252.8</ele><time>2026-04-04T14:33:09.101Z</time></trkpt><trkpt lat="44.8082433" lon="8.3094983"><ele>252.60000000000002</ele><time>2026-04-04T14:33:10.106Z</time></trkpt><trkpt lat="44.8082117" lon="8.309645"><ele>252.39999999999998</ele><time>2026-04-04T14:33:11.104Z</time></trkpt><trkpt lat="44.8081917" lon="8.3097867"><ele>252.2</ele><time>2026-04-04T14:33:12.106Z</time></trkpt><trkpt lat="44.8081867" lon="8.3099317"><ele>252.0</ele><time>2026-04-04T14:33:13.104Z</time></trkpt><trkpt lat="44.808185" lon="8.310075"><ele>252.0</ele><time>2026-04-04T14:33:14.105Z</time></trkpt><trkpt lat="44.8082167" lon="8.310225"><ele>252.0</ele><time>2026-04-04T14:33:15.107Z</time></trkpt><trkpt lat="44.8082533" lon="8.31038"><ele>252.0</ele><time>2026-04-04T14:33:16.103Z</time></trkpt><trkpt lat="44.8082817" lon="8.3105417"><ele>252.0</ele><time>2026-04-04T14:33:17.099Z</time></trkpt><trkpt lat="44.8083067" lon="8.310715"><ele>253.25</ele><time>2026-04-04T14:33:18.101Z</time></trkpt><trkpt lat="44.8083317" lon="8.3108883"><ele>254.5</ele><time>2026-04-04T14:33:19.102Z</time></trkpt><trkpt lat="44.80835" lon="8.31106"><ele>255.75</ele><time>2026-04-04T14:33:20.106Z</time></trkpt><trkpt lat="44.8083683" lon="8.3112283"><ele>257.0</ele><time>2026-04-04T14:33:21.104Z</time></trkpt><trkpt lat="44.8083867" lon="8.3113983"><ele>258.25</ele><time>2026-04-04T14:33:22.109Z</time></trkpt><trkpt lat="44.8084" lon="8.31157"><ele>259.5</ele><time>2026-04-04T14:33:23.102Z</time></trkpt><trkpt lat="44.8084017" lon="8.311735"><ele>260.75</ele><time>2026-04-04T14:33:24.102Z</time></trkpt><trkpt lat="44.8083833" lon="8.3118933"><ele>262.0</ele><time>2026-04-04T14:33:25.107Z</time></trkpt><trkpt lat="44.808345" lon="8.31205"><ele>262.0</ele><time>2026-04-04T14:33:26.103Z</time></trkpt><trkpt lat="44.8083167" lon="8.3122133"><ele>262.0</ele><time>2026-04-04T14:33:27.101Z</time></trkpt><trkpt lat="44.8082933" lon="8.3123733"><ele>262.0</ele><time>2026-04-04T14:33:28.102Z</time></trkpt><trkpt lat="44.8082783" lon="8.312535"><ele>262.0</ele><time>2026-04-04T14:33:29.106Z</time></trkpt><trkpt lat="44.8082617" lon="8.3127067"><ele>262.25</ele><time>2026-04-04T14:33:30.108Z</time></trkpt><trkpt lat="44.8082367" lon="8.31288"><ele>262.5</ele><time>2026-04-04T14:33:31.103Z</time></trkpt><trkpt lat="44.8082" lon="8.31306"><ele>262.75</ele><time>2026-04-04T14:33:32.103Z</time></trkpt><trkpt lat="44.8081467" lon="8.3132367"><ele>263.0</ele><time>2026-04-04T14:33:33.101Z</time></trkpt><trkpt lat="44.808075" lon="8.3134133"><ele>262.0</ele><time>2026-04-04T14:33:34.107Z</time></trkpt><trkpt lat="44.8080067" lon="8.313585"><ele>261.0</ele><time>2026-04-04T14:33:35.101Z</time></trkpt><trkpt lat="44.807935" lon="8.3137517"><ele>260.0</ele><time>2026-04-04T14:33:36.101Z</time></trkpt><trkpt lat="44.8078617" lon="8.31391"><ele>259.0</ele><time>2026-04-04T14:33:37.103Z</time></trkpt><trkpt lat="44.8077933" lon="8.3140633"><ele>257.75</ele><time>2026-04-04T14:33:38.105Z</time></trkpt><trkpt lat="44.8077017" lon="8.3141883"><ele>256.5</ele><time>2026-04-04T14:33:39.097Z</time></trkpt><trkpt lat="44.8076417" lon="8.3143333"><ele>255.25</ele><time>2026-04-04T14:33:40.104Z</time></trkpt><trkpt lat="44.807595" lon="8.31448"><ele>254.0</ele><time>2026-04-04T14:33:41.103Z</time></trkpt><trkpt lat="44.8075433" lon="8.31462"><ele>254.66666666666669</ele><time>2026-04-04T14:33:42.101Z</time></trkpt><trkpt lat="44.8074967" lon="8.3147533"><ele>255.33333333333334</ele><time>2026-04-04T14:33:43.105Z</time></trkpt><trkpt lat="44.80746" lon="8.3148733"><ele>256.0</ele><time>2026-04-04T14:33:44.1Z</time></trkpt><trkpt lat="44.807425" lon="8.3149833"><ele>256.6666666666667</ele><time>2026-04-04T14:33:45.101Z</time></trkpt><trkpt lat="44.8073933" lon="8.3150833"><ele>257.3333333333333</ele><time>2026-04-04T14:33:46.1Z</time></trkpt><trkpt lat="44.8073617" lon="8.3151783"><ele>258.0</ele><time>2026-04-04T14:33:47.102Z</time></trkpt><trkpt lat="44.807335" lon="8.3152767"><ele>258.0</ele><time>2026-04-04T14:33:48.101Z</time></trkpt><trkpt lat="44.8073217" lon="8.31538"><ele>258.0</ele><time>2026-04-04T14:33:49.102Z</time></trkpt><trkpt lat="44.8073383" lon="8.315495"><ele>258.0</ele><time>2026-04-04T14:33:50.106Z</time></trkpt><trkpt lat="44.8073517" lon="8.3156067"><ele>258.0</ele><time>2026-04-04T14:33:51.107Z</time></trkpt><trkpt lat="44.8073717" lon="8.3157167"><ele>258.0</ele><time>2026-04-04T14:33:52.102Z</time></trkpt><trkpt lat="44.8074017" lon="8.315825"><ele>258.0</ele><time>2026-04-04T14:33:53.104Z</time></trkpt><trkpt lat="44.80742" lon="8.3159317"><ele>257.8333333333333</ele><time>2026-04-04T14:33:54.1Z</time></trkpt><trkpt lat="44.8074017" lon="8.3160367"><ele>257.6666666666667</ele><time>2026-04-04T14:33:55.106Z</time></trkpt><trkpt lat="44.8074217" lon="8.316135"><ele>257.5</ele><time>2026-04-04T14:33:56.103Z</time></trkpt><trkpt lat="44.8074383" lon="8.316225"><ele>257.33333333333337</ele><time>2026-04-04T14:33:57.104Z</time></trkpt><trkpt lat="44.8074683" lon="8.3163067"><ele>257.1666666666667</ele><time>2026-04-04T14:33:58.104Z</time></trkpt><trkpt lat="44.80755" lon="8.31645"><ele>257.0</ele><time>2026-04-04T14:34:00.105Z</time></trkpt><trkpt lat="44.8076017" lon="8.3165217"><ele>256.6666666666667</ele><time>2026-04-04T14:34:01.102Z</time></trkpt><trkpt lat="44.8077467" lon="8.31655"><ele>256.3333333333333</ele><time>2026-04-04T14:34:02.1Z</time></trkpt><trkpt lat="44.8079683" lon="8.3165917"><ele>256.0</ele><time>2026-04-04T14:34:03.1Z</time></trkpt><trkpt lat="44.8080917" lon="8.316635"><ele>256.0</ele><time>2026-04-04T14:34:04.098Z</time></trkpt><trkpt lat="44.8082033" lon="8.3166733"><ele>256.0</ele><time>2026-04-04T14:34:05.105Z</time></trkpt><trkpt lat="44.8082983" lon="8.3167217"><ele>256.0</ele><time>2026-04-04T14:34:06.105Z</time></trkpt><trkpt lat="44.80837" lon="8.3167717"><ele>256.0</ele><time>2026-04-04T14:34:07.105Z</time></trkpt><trkpt lat="44.80844" lon="8.3168317"><ele>256.0</ele><time>2026-04-04T14:34:08.1Z</time></trkpt><trkpt lat="44.80851" lon="8.3168933"><ele>255.33333333333331</ele><time>2026-04-04T14:34:09.101Z</time></trkpt><trkpt lat="44.80857" lon="8.3169767"><ele>254.66666666666666</ele><time>2026-04-04T14:34:10.102Z</time></trkpt><trkpt lat="44.8086467" lon="8.3170517"><ele>254.0</ele><time>2026-04-04T14:34:11.103Z</time></trkpt><trkpt lat="44.808725" lon="8.3171133"><ele>253.33333333333331</ele><time>2026-04-04T14:34:12.1Z</time></trkpt><trkpt lat="44.8088" lon="8.317165"><ele>252.66666666666666</ele><time>2026-04-04T14:34:13.101Z</time></trkpt><trkpt lat="44.808875" lon="8.3172217"><ele>252.0</ele><time>2026-04-04T14:34:14.109Z</time></trkpt><trkpt lat="44.808945" lon="8.3172917"><ele>252.0</ele><time>2026-04-04T14:34:15.099Z</time></trkpt><trkpt lat="44.8090133" lon="8.3173567"><ele>252.0</ele><time>2026-04-04T14:34:16.104Z</time></trkpt><trkpt lat="44.8090783" lon="8.317435"><ele>252.0</ele><time>2026-04-04T14:34:17.104Z</time></trkpt><trkpt lat="44.8091533" lon="8.3175067"><ele>252.0</ele><time>2026-04-04T14:34:18.101Z</time></trkpt><trkpt lat="44.8092567" lon="8.317575"><ele>252.0</ele><time>2026-04-04T14:34:19.099Z</time></trkpt><trkpt lat="44.8093617" lon="8.31769"><ele>251.39999999999998</ele><time>2026-04-04T14:34:20.101Z</time></trkpt><trkpt lat="44.80942" lon="8.3178033"><ele>250.79999999999998</ele><time>2026-04-04T14:34:21.103Z</time></trkpt><trkpt lat="44.8094817" lon="8.3179017"><ele>250.2</ele><time>2026-04-04T14:34:22.099Z</time></trkpt><trkpt lat="44.8095433" lon="8.3180133"><ele>249.6</ele><time>2026-04-04T14:34:23.103Z</time></trkpt><trkpt lat="44.8096083" lon="8.318115"><ele>249.0</ele><time>2026-04-04T14:34:24.101Z</time></trkpt><trkpt lat="44.8096883" lon="8.31819"><ele>249.0</ele><time>2026-04-04T14:34:25.103Z</time></trkpt><trkpt lat="44.8097467" lon="8.3182767"><ele>249.0</ele><time>2026-04-04T14:34:26.1Z</time></trkpt><trkpt lat="44.809825" lon="8.3183617"><ele>249.0</ele><time>2026-04-04T14:34:27.1Z</time></trkpt><trkpt lat="44.80989" lon="8.318445"><ele>249.0</ele><time>2026-04-04T14:34:28.099Z</time></trkpt><trkpt lat="44.8099567" lon="8.3185283"><ele>249.0</ele><time>2026-04-04T14:34:29.101Z</time></trkpt><trkpt lat="44.81002" lon="8.318615"><ele>249.0</ele><time>2026-04-04T14:34:30.1Z</time></trkpt><trkpt lat="44.8100767" lon="8.31869"><ele>249.0</ele><time>2026-04-04T14:34:31.105Z</time></trkpt><trkpt lat="44.8101283" lon="8.3187583"><ele>249.0</ele><time>2026-04-04T14:34:32.1Z</time></trkpt><trkpt lat="44.81021" lon="8.3189067"><ele>249.0</ele><time>2026-04-04T14:34:34.102Z</time></trkpt><trkpt lat="44.8102183" lon="8.319015"><ele>249.0</ele><time>2026-04-04T14:34:35.101Z</time></trkpt><trkpt lat="44.810225" lon="8.3191317"><ele>249.0</ele><time>2026-04-04T14:34:36.101Z</time></trkpt><trkpt lat="44.8102333" lon="8.31925"><ele>249.0</ele><time>2026-04-04T14:34:37.104Z</time></trkpt><trkpt lat="44.810225" lon="8.3193633"><ele>245.83333333333334</ele><time>2026-04-04T14:34:38.102Z</time></trkpt><trkpt lat="44.8102183" lon="8.31946"><ele>242.66666666666669</ele><time>2026-04-04T14:34:39.101Z</time></trkpt><trkpt lat="44.81021" lon="8.3196017"><ele>239.5</ele><time>2026-04-04T14:34:41.102Z</time></trkpt><trkpt lat="44.8102383" lon="8.31975"><ele>236.33333333333334</ele><time>2026-04-04T14:34:43.109Z</time></trkpt><trkpt lat="44.8102617" lon="8.3198467"><ele>233.16666666666669</ele><time>2026-04-04T14:34:44.102Z</time></trkpt><trkpt lat="44.8102917" lon="8.3199567"><ele>230.0</ele><time>2026-04-04T14:34:45.101Z</time></trkpt><trkpt lat="44.8103067" lon="8.3200833"><ele>231.0</ele><time>2026-04-04T14:34:46.104Z</time></trkpt><trkpt lat="44.8103383" lon="8.3202217"><ele>232.0</ele><time>2026-04-04T14:34:47.101Z</time></trkpt><trkpt lat="44.8103683" lon="8.3203667"><ele>233.0</ele><time>2026-04-04T14:34:48.102Z</time></trkpt><trkpt lat="44.8103983" lon="8.3205117"><ele>234.0</ele><time>2026-04-04T14:34:49.103Z</time></trkpt><trkpt lat="44.8104333" lon="8.32066"><ele>235.0</ele><time>2026-04-04T14:34:50.105Z</time></trkpt><trkpt lat="44.8104717" lon="8.3208067"><ele>235.0</ele><time>2026-04-04T14:34:51.104Z</time></trkpt><trkpt lat="44.8105083" lon="8.320945"><ele>235.0</ele><time>2026-04-04T14:34:52.102Z</time></trkpt><trkpt lat="44.8105383" lon="8.321085"><ele>235.0</ele><time>2026-04-04T14:34:53.105Z</time></trkpt><trkpt lat="44.8105767" lon="8.3212217"><ele>235.0</ele><time>2026-04-04T14:34:54.101Z</time></trkpt><trkpt lat="44.8106217" lon="8.3213583"><ele>235.0</ele><time>2026-04-04T14:34:55.102Z</time></trkpt><trkpt lat="44.810675" lon="8.321495"><ele>237.4</ele><time>2026-04-04T14:34:56.102Z</time></trkpt><trkpt lat="44.81073" lon="8.321625"><ele>239.8</ele><time>2026-04-04T14:34:57.102Z</time></trkpt><trkpt lat="44.8107867" lon="8.3217483"><ele>242.2</ele><time>2026-04-04T14:34:58.099Z</time></trkpt><trkpt lat="44.8108467" lon="8.3218667"><ele>244.6</ele><time>2026-04-04T14:34:59.105Z</time></trkpt><trkpt lat="44.8109067" lon="8.3219917"><ele>247.0</ele><time>2026-04-04T14:35:00.104Z</time></trkpt><trkpt lat="44.8109533" lon="8.322115"><ele>250.0</ele><time>2026-04-04T14:35:01.099Z</time></trkpt><trkpt lat="44.810995" lon="8.3222417"><ele>253.0</ele><time>2026-04-04T14:35:02.105Z</time></trkpt><trkpt lat="44.8110367" lon="8.3223683"><ele>256.0</ele><time>2026-04-04T14:35:03.099Z</time></trkpt><trkpt lat="44.8110617" lon="8.322505"><ele>259.0</ele><time>2026-04-04T14:35:04.105Z</time></trkpt><trkpt lat="44.8110817" lon="8.3226467"><ele>262.0</ele><time>2026-04-04T14:35:05.1Z</time></trkpt><trkpt lat="44.8110833" lon="8.322785"><ele>262.0</ele><time>2026-04-04T14:35:06.107Z</time></trkpt><trkpt lat="44.8110833" lon="8.322925"><ele>262.0</ele><time>2026-04-04T14:35:07.099Z</time></trkpt><trkpt lat="44.8110817" lon="8.323065"><ele>262.0</ele><time>2026-04-04T14:35:08.102Z</time></trkpt><trkpt lat="44.811085" lon="8.3232117"><ele>262.0</ele><time>2026-04-04T14:35:09.106Z</time></trkpt><trkpt lat="44.8110917" lon="8.32336"><ele>262.0</ele><time>2026-04-04T14:35:10.101Z</time></trkpt><trkpt lat="44.8111167" lon="8.3235183"><ele>259.75</ele><time>2026-04-04T14:35:11.101Z</time></trkpt><trkpt lat="44.8111383" lon="8.3236833"><ele>257.5</ele><time>2026-04-04T14:35:12.106Z</time></trkpt><trkpt lat="44.81115" lon="8.323855"><ele>255.25</ele><time>2026-04-04T14:35:13.1Z</time></trkpt><trkpt lat="44.8111633" lon="8.3240267"><ele>253.0</ele><time>2026-04-04T14:35:14.099Z</time></trkpt><trkpt lat="44.8111833" lon="8.3241983"><ele>248.0</ele><time>2026-04-04T14:35:15.1Z</time></trkpt><trkpt lat="44.8112083" lon="8.3243683"><ele>243.0</ele><time>2026-04-04T14:35:16.099Z</time></trkpt><trkpt lat="44.811235" lon="8.3245333"><ele>238.0</ele><time>2026-04-04T14:35:17.101Z</time></trkpt><trkpt lat="44.81125" lon="8.3247017"><ele>233.0</ele><time>2026-04-04T14:35:18.099Z</time></trkpt><trkpt lat="44.8113017" lon="8.3248483"><ele>233.0</ele><time>2026-04-04T14:35:19.103Z</time></trkpt><trkpt lat="44.81136" lon="8.3249917"><ele>233.0</ele><time>2026-04-04T14:35:20.1Z</time></trkpt><trkpt lat="44.81142" lon="8.3251433"><ele>233.0</ele><time>2026-04-04T14:35:21.104Z</time></trkpt><trkpt lat="44.8114833" lon="8.3252933"><ele>233.0</ele><time>2026-04-04T14:35:22.104Z</time></trkpt><trkpt lat="44.8115383" lon="8.3254433"><ele>234.0</ele><time>2026-04-04T14:35:23.099Z</time></trkpt><trkpt lat="44.8116017" lon="8.3255917"><ele>235.0</ele><time>2026-04-04T14:35:24.101Z</time></trkpt><trkpt lat="44.8116567" lon="8.3257483"><ele>236.0</ele><time>2026-04-04T14:35:25.104Z</time></trkpt><trkpt lat="44.811715" lon="8.32591"><ele>237.0</ele><time>2026-04-04T14:35:26.099Z</time></trkpt><trkpt lat="44.8117683" lon="8.3260767"><ele>237.0</ele><time>2026-04-04T14:35:27.11Z</time></trkpt><trkpt lat="44.81181" lon="8.3262483"><ele>237.0</ele><time>2026-04-04T14:35:28.106Z</time></trkpt><trkpt lat="44.8118467" lon="8.3264267"><ele>237.0</ele><time>2026-04-04T14:35:29.104Z</time></trkpt><trkpt lat="44.8118933" lon="8.3265983"><ele>237.0</ele><time>2026-04-04T14:35:30.104Z</time></trkpt><trkpt lat="44.8119433" lon="8.3267633"><ele>240.75</ele><time>2026-04-04T14:35:31.104Z</time></trkpt><trkpt lat="44.8119933" lon="8.3269183"><ele>244.5</ele><time>2026-04-04T14:35:32.102Z</time></trkpt><trkpt lat="44.8120283" lon="8.3270733"><ele>248.25</ele><time>2026-04-04T14:35:33.1Z</time></trkpt><trkpt lat="44.8120483" lon="8.3272283"><ele>252.0</ele><time>2026-04-04T14:35:34.104Z</time></trkpt><trkpt lat="44.81205" lon="8.32738"><ele>250.83333333333334</ele><time>2026-04-04T14:35:35.106Z</time></trkpt><trkpt lat="44.8120367" lon="8.3275117"><ele>249.66666666666669</ele><time>2026-04-04T14:35:36.103Z</time></trkpt><trkpt lat="44.8120083" lon="8.3276283"><ele>248.5</ele><time>2026-04-04T14:35:37.102Z</time></trkpt><trkpt lat="44.8119667" lon="8.3277417"><ele>247.33333333333334</ele><time>2026-04-04T14:35:38.1Z</time></trkpt><trkpt lat="44.8119167" lon="8.3278417"><ele>246.16666666666669</ele><time>2026-04-04T14:35:39.104Z</time></trkpt><trkpt lat="44.8118583" lon="8.3279217"><ele>245.0</ele><time>2026-04-04T14:35:40.101Z</time></trkpt><trkpt lat="44.8118083" lon="8.328"><ele>245.83333333333334</ele><time>2026-04-04T14:35:41.106Z</time></trkpt><trkpt lat="44.81178" lon="8.3280817"><ele>246.66666666666669</ele><time>2026-04-04T14:35:42.106Z</time></trkpt><trkpt lat="44.8117683" lon="8.3281733"><ele>247.5</ele><time>2026-04-04T14:35:43.102Z</time></trkpt><trkpt lat="44.811755" lon="8.3282683"><ele>248.33333333333331</ele><time>2026-04-04T14:35:44.101Z</time></trkpt><trkpt lat="44.8117633" lon="8.328375"><ele>249.16666666666666</ele><time>2026-04-04T14:35:45.099Z</time></trkpt><trkpt lat="44.8117767" lon="8.3284833"><ele>250.0</ele><time>2026-04-04T14:35:46.098Z</time></trkpt><trkpt lat="44.81183" lon="8.3285967"><ele>250.8</ele><time>2026-04-04T14:35:47.101Z</time></trkpt><trkpt lat="44.8118817" lon="8.3287233"><ele>251.6</ele><time>2026-04-04T14:35:48.099Z</time></trkpt><trkpt lat="44.8119283" lon="8.3288417"><ele>252.39999999999998</ele><time>2026-04-04T14:35:49.105Z</time></trkpt><trkpt lat="44.811975" lon="8.3289567"><ele>253.2</ele><time>2026-04-04T14:35:50.104Z</time></trkpt><trkpt lat="44.8120067" lon="8.3290667"><ele>254.0</ele><time>2026-04-04T14:35:51.105Z</time></trkpt><trkpt lat="44.8120317" lon="8.3291717"><ele>254.00000000000003</ele><time>2026-04-04T14:35:52.104Z</time></trkpt><trkpt lat="44.81204" lon="8.3292783"><ele>254.0</ele><time>2026-04-04T14:35:53.101Z</time></trkpt><trkpt lat="44.812035" lon="8.3293817"><ele>254.0</ele><time>2026-04-04T14:35:54.104Z</time></trkpt><trkpt lat="44.81202" lon="8.3294883"><ele>254.0</ele><time>2026-04-04T14:35:55.104Z</time></trkpt><trkpt lat="44.8119767" lon="8.3296067"><ele>254.00000000000003</ele><time>2026-04-04T14:35:56.102Z</time></trkpt><trkpt lat="44.811925" lon="8.329725"><ele>254.0</ele><time>2026-04-04T14:35:57.104Z</time></trkpt><trkpt lat="44.8118683" lon="8.32984"><ele>253.2</ele><time>2026-04-04T14:35:58.101Z</time></trkpt><trkpt lat="44.8118083" lon="8.3299533"><ele>252.39999999999998</ele><time>2026-04-04T14:35:59.107Z</time></trkpt><trkpt lat="44.8117467" lon="8.3300617"><ele>251.6</ele><time>2026-04-04T14:36:00.107Z</time></trkpt><trkpt lat="44.8116867" lon="8.3301717"><ele>250.8</ele><time>2026-04-04T14:36:01.103Z</time></trkpt><trkpt lat="44.8116233" lon="8.3302733"><ele>250.0</ele><time>2026-04-04T14:36:02.102Z</time></trkpt><trkpt lat="44.811565" lon="8.3303733"><ele>249.99999999999997</ele><time>2026-04-04T14:36:03.101Z</time></trkpt><trkpt lat="44.8115083" lon="8.3304733"><ele>250.0</ele><time>2026-04-04T14:36:04.101Z</time></trkpt><trkpt lat="44.8114567" lon="8.330575"><ele>250.0</ele><time>2026-04-04T14:36:05.106Z</time></trkpt><trkpt lat="44.8114133" lon="8.33068"><ele>250.0</ele><time>2026-04-04T14:36:06.104Z</time></trkpt><trkpt lat="44.8113833" lon="8.3307917"><ele>249.99999999999997</ele><time>2026-04-04T14:36:07.102Z</time></trkpt><trkpt lat="44.8113617" lon="8.3309033"><ele>250.0</ele><time>2026-04-04T14:36:08.103Z</time></trkpt><trkpt lat="44.8113583" lon="8.3310267"><ele>250.6</ele><time>2026-04-04T14:36:09.1Z</time></trkpt><trkpt lat="44.8113583" lon="8.3311583"><ele>251.2</ele><time>2026-04-04T14:36:10.103Z</time></trkpt><trkpt lat="44.8113717" lon="8.3312933"><ele>251.8</ele><time>2026-04-04T14:36:11.102Z</time></trkpt><trkpt lat="44.8113817" lon="8.33143"><ele>252.4</ele><time>2026-04-04T14:36:12.104Z</time></trkpt><trkpt lat="44.8113917" lon="8.3315667"><ele>253.0</ele><time>2026-04-04T14:36:13.101Z</time></trkpt><trkpt lat="44.8114" lon="8.3316983"><ele>252.99999999999997</ele><time>2026-04-04T14:36:14.102Z</time></trkpt><trkpt lat="44.8114017" lon="8.331825"><ele>253.0</ele><time>2026-04-04T14:36:15.102Z</time></trkpt><trkpt lat="44.811395" lon="8.3319467"><ele>253.0</ele><time>2026-04-04T14:36:16.102Z</time></trkpt><trkpt lat="44.8113867" lon="8.3320683"><ele>253.0</ele><time>2026-04-04T14:36:17.108Z</time></trkpt><trkpt lat="44.8113667" lon="8.332185"><ele>252.99999999999997</ele><time>2026-04-04T14:36:18.103Z</time></trkpt><trkpt lat="44.8113267" lon="8.33229"><ele>253.0</ele><time>2026-04-04T14:36:19.102Z</time></trkpt><trkpt lat="44.811275" lon="8.3323883"><ele>252.2</ele><time>2026-04-04T14:36:20.104Z</time></trkpt><trkpt lat="44.8112067" lon="8.33248"><ele>251.4</ele><time>2026-04-04T14:36:21.1Z</time></trkpt><trkpt lat="44.8111283" lon="8.332565"><ele>250.59999999999997</ele><time>2026-04-04T14:36:22.102Z</time></trkpt><trkpt lat="44.8110483" lon="8.3326583"><ele>249.79999999999998</ele><time>2026-04-04T14:36:23.104Z</time></trkpt><trkpt lat="44.810975" lon="8.3327533"><ele>249.0</ele><time>2026-04-04T14:36:24.1Z</time></trkpt><trkpt lat="44.81091" lon="8.332845"><ele>249.0</ele><time>2026-04-04T14:36:25.102Z</time></trkpt><trkpt lat="44.8108467" lon="8.332925"><ele>248.99999999999997</ele><time>2026-04-04T14:36:26.105Z</time></trkpt><trkpt lat="44.8107717" lon="8.33299"><ele>248.99999999999997</ele><time>2026-04-04T14:36:27.1Z</time></trkpt><trkpt lat="44.810695" lon="8.3330467"><ele>249.0</ele><time>2026-04-04T14:36:28.103Z</time></trkpt><trkpt lat="44.8105933" lon="8.3330817"><ele>249.0</ele><time>2026-04-04T14:36:29.104Z</time></trkpt><trkpt lat="44.8104867" lon="8.3331167"><ele>249.0</ele><time>2026-04-04T14:36:30.104Z</time></trkpt><trkpt lat="44.8103883" lon="8.3331717"><ele>248.99999999999997</ele><time>2026-04-04T14:36:31.103Z</time></trkpt><trkpt lat="44.8103083" lon="8.33326"><ele>248.99999999999997</ele><time>2026-04-04T14:36:32.105Z</time></trkpt><trkpt lat="44.8102417" lon="8.3333733"><ele>249.0</ele><time>2026-04-04T14:36:33.1Z</time></trkpt><trkpt lat="44.8101883" lon="8.3335067"><ele>249.0</ele><time>2026-04-04T14:36:34.101Z</time></trkpt><trkpt lat="44.81015" lon="8.3336533"><ele>247.79999999999998</ele><time>2026-04-04T14:36:35.105Z</time></trkpt><trkpt lat="44.8101167" lon="8.3338033"><ele>246.59999999999997</ele><time>2026-04-04T14:36:36.104Z</time></trkpt><trkpt lat="44.810095" lon="8.3339583"><ele>245.4</ele><time>2026-04-04T14:36:37.109Z</time></trkpt><trkpt lat="44.810085" lon="8.33411"><ele>244.2</ele><time>2026-04-04T14:36:38.102Z</time></trkpt><trkpt lat="44.81008" lon="8.3342633"><ele>243.0</ele><time>2026-04-04T14:36:39.102Z</time></trkpt><trkpt lat="44.81008" lon="8.3344183"><ele>243.0</ele><time>2026-04-04T14:36:40.105Z</time></trkpt><trkpt lat="44.8100883" lon="8.3345717"><ele>243.0</ele><time>2026-04-04T14:36:41.105Z</time></trkpt><trkpt lat="44.8101033" lon="8.3347233"><ele>243.0</ele><time>2026-04-04T14:36:42.106Z</time></trkpt><trkpt lat="44.810125" lon="8.3348667"><ele>243.0</ele><time>2026-04-04T14:36:43.1Z</time></trkpt><trkpt lat="44.81015" lon="8.3349983"><ele>243.0</ele><time>2026-04-04T14:36:44.101Z</time></trkpt><trkpt lat="44.8101617" lon="8.3351217"><ele>242.5</ele><time>2026-04-04T14:36:45.103Z</time></trkpt><trkpt lat="44.8101583" lon="8.3352367"><ele>242.0</ele><time>2026-04-04T14:36:46.104Z</time></trkpt><trkpt lat="44.810145" lon="8.3353533"><ele>241.5</ele><time>2026-04-04T14:36:47.11Z</time></trkpt><trkpt lat="44.81012" lon="8.3354633"><ele>241.0</ele><time>2026-04-04T14:36:48.102Z</time></trkpt><trkpt lat="44.810075" lon="8.33557"><ele>240.5</ele><time>2026-04-04T14:36:49.105Z</time></trkpt><trkpt lat="44.8100267" lon="8.3356717"><ele>240.0</ele><time>2026-04-04T14:36:50.102Z</time></trkpt><trkpt lat="44.8099767" lon="8.3357683"><ele>242.33333333333334</ele><time>2026-04-04T14:36:51.104Z</time></trkpt><trkpt lat="44.8099317" lon="8.335865"><ele>244.66666666666669</ele><time>2026-04-04T14:36:52.1Z</time></trkpt><trkpt lat="44.8098917" lon="8.3359633"><ele>247.0</ele><time>2026-04-04T14:36:53.1Z</time></trkpt><trkpt lat="44.80987" lon="8.3360683"><ele>249.33333333333334</ele><time>2026-04-04T14:36:54.105Z</time></trkpt><trkpt lat="44.8098783" lon="8.3361833"><ele>251.66666666666669</ele><time>2026-04-04T14:36:55.105Z</time></trkpt><trkpt lat="44.8098983" lon="8.3362983"><ele>254.0</ele><time>2026-04-04T14:36:56.102Z</time></trkpt><trkpt lat="44.8099333" lon="8.336405"><ele>254.79999999999998</ele><time>2026-04-04T14:36:57.101Z</time></trkpt><trkpt lat="44.8099783" lon="8.3364983"><ele>255.59999999999997</ele><time>2026-04-04T14:36:58.106Z</time></trkpt><trkpt lat="44.8100483" lon="8.3365817"><ele>256.4</ele><time>2026-04-04T14:36:59.1Z</time></trkpt><trkpt lat="44.8101317" lon="8.3366717"><ele>257.2</ele><time>2026-04-04T14:37:00.104Z</time></trkpt><trkpt lat="44.8101933" lon="8.336765"><ele>258.0</ele><time>2026-04-04T14:37:01.101Z</time></trkpt><trkpt lat="44.8103217" lon="8.3368167"><ele>259.2</ele><time>2026-04-04T14:37:02.105Z</time></trkpt><trkpt lat="44.81042" lon="8.336855"><ele>260.4</ele><time>2026-04-04T14:37:03.102Z</time></trkpt><trkpt lat="44.8105283" lon="8.3368767"><ele>261.59999999999997</ele><time>2026-04-04T14:37:04.101Z</time></trkpt><trkpt lat="44.8106283" lon="8.336905"><ele>262.8</ele><time>2026-04-04T14:37:05.107Z</time></trkpt><trkpt lat="44.810725" lon="8.336955"><ele>264.0</ele><time>2026-04-04T14:37:06.104Z</time></trkpt><trkpt lat="44.810795" lon="8.3370267"><ele>264.0</ele><time>2026-04-04T14:37:07.102Z</time></trkpt><trkpt lat="44.8108633" lon="8.3371183"><ele>264.0</ele><time>2026-04-04T14:37:08.099Z</time></trkpt><trkpt lat="44.810945" lon="8.3372033"><ele>264.0</ele><time>2026-04-04T14:37:09.103Z</time></trkpt><trkpt lat="44.8110067" lon="8.337315"><ele>264.0</ele><time>2026-04-04T14:37:10.103Z</time></trkpt><trkpt lat="44.8110767" lon="8.337415"><ele>264.0</ele><time>2026-04-04T14:37:11.103Z</time></trkpt><trkpt lat="44.8111383" lon="8.3375183"><ele>262.2</ele><time>2026-04-04T14:37:12.102Z</time></trkpt><trkpt lat="44.8111983" lon="8.3376317"><ele>260.4</ele><time>2026-04-04T14:37:13.098Z</time></trkpt><trkpt lat="44.811255" lon="8.3377533"><ele>258.6</ele><time>2026-04-04T14:37:14.101Z</time></trkpt><trkpt lat="44.8113117" lon="8.3378767"><ele>256.8</ele><time>2026-04-04T14:37:15.103Z</time></trkpt><trkpt lat="44.8113867" lon="8.3380083"><ele>255.0</ele><time>2026-04-04T14:37:16.099Z</time></trkpt><trkpt lat="44.8114667" lon="8.338135"><ele>255.0</ele><time>2026-04-04T14:37:17.1Z</time></trkpt><trkpt lat="44.81155" lon="8.3382567"><ele>255.0</ele><time>2026-04-04T14:37:18.102Z</time></trkpt><trkpt lat="44.81164" lon="8.3383733"><ele>255.0</ele><time>2026-04-04T14:37:19.102Z</time></trkpt><trkpt lat="44.8117317" lon="8.33849"><ele>255.0</ele><time>2026-04-04T14:37:20.103Z</time></trkpt><trkpt lat="44.8118333" lon="8.3385967"><ele>251.5</ele><time>2026-04-04T14:37:21.103Z</time></trkpt><trkpt lat="44.81194" lon="8.338645"><ele>248.0</ele><time>2026-04-04T14:37:22.105Z</time></trkpt><trkpt lat="44.8120567" lon="8.3386967"><ele>244.5</ele><time>2026-04-04T14:37:23.104Z</time></trkpt><trkpt lat="44.8121783" lon="8.3387533"><ele>241.0</ele><time>2026-04-04T14:37:24.101Z</time></trkpt><trkpt lat="44.8123" lon="8.338805"><ele>241.0</ele><time>2026-04-04T14:37:25.103Z</time></trkpt><trkpt lat="44.8124083" lon="8.3388817"><ele>241.0</ele><time>2026-04-04T14:37:26.101Z</time></trkpt><trkpt lat="44.81251" lon="8.3389867"><ele>241.0</ele><time>2026-04-04T14:37:27.102Z</time></trkpt><trkpt lat="44.8126083" lon="8.339105"><ele>241.0</ele><time>2026-04-04T14:37:28.101Z</time></trkpt><trkpt lat="44.8127117" lon="8.3392233"><ele>241.75</ele><time>2026-04-04T14:37:29.108Z</time></trkpt><trkpt lat="44.8128183" lon="8.3393467"><ele>242.5</ele><time>2026-04-04T14:37:30.101Z</time></trkpt><trkpt lat="44.8129367" lon="8.339475"><ele>243.25</ele><time>2026-04-04T14:37:31.105Z</time></trkpt><trkpt lat="44.81306" lon="8.339595"><ele>244.0</ele><time>2026-04-04T14:37:32.104Z</time></trkpt><trkpt lat="44.8131867" lon="8.339715"><ele>244.0</ele><time>2026-04-04T14:37:33.101Z</time></trkpt><trkpt lat="44.81331" lon="8.3398367"><ele>244.0</ele><time>2026-04-04T14:37:34.102Z</time></trkpt><trkpt lat="44.8134333" lon="8.33996"><ele>244.0</ele><time>2026-04-04T14:37:35.1Z</time></trkpt><trkpt lat="44.8135533" lon="8.3400833"><ele>244.0</ele><time>2026-04-04T14:37:36.104Z</time></trkpt><trkpt lat="44.813675" lon="8.3402017"><ele>244.0</ele><time>2026-04-04T14:37:37.101Z</time></trkpt><trkpt lat="44.81379" lon="8.3403183"><ele>244.0</ele><time>2026-04-04T14:37:38.105Z</time></trkpt><trkpt lat="44.8138967" lon="8.3404433"><ele>244.0</ele><time>2026-04-04T14:37:39.1Z</time></trkpt><trkpt lat="44.8139983" lon="8.3405833"><ele>244.75</ele><time>2026-04-04T14:37:40.104Z</time></trkpt><trkpt lat="44.8140967" lon="8.34073"><ele>245.5</ele><time>2026-04-04T14:37:41.108Z</time></trkpt><trkpt lat="44.8141967" lon="8.3408683"><ele>246.25</ele><time>2026-04-04T14:37:42.103Z</time></trkpt><trkpt lat="44.8142967" lon="8.3409933"><ele>247.0</ele><time>2026-04-04T14:37:43.102Z</time></trkpt><trkpt lat="44.8144" lon="8.3411033"><ele>245.5</ele><time>2026-04-04T14:37:44.107Z</time></trkpt><trkpt lat="44.81449" lon="8.341235"><ele>244.0</ele><time>2026-04-04T14:37:45.101Z</time></trkpt><trkpt lat="44.814565" lon="8.3413833"><ele>242.5</ele><time>2026-04-04T14:37:46.104Z</time></trkpt><trkpt lat="44.8146433" lon="8.3415317"><ele>241.0</ele><time>2026-04-04T14:37:47.101Z</time></trkpt><trkpt lat="44.8147283" lon="8.3416617"><ele>240.25</ele><time>2026-04-04T14:37:48.105Z</time></trkpt><trkpt lat="44.81483" lon="8.3417567"><ele>239.5</ele><time>2026-04-04T14:37:49.104Z</time></trkpt><trkpt lat="44.8149383" lon="8.3418283"><ele>238.75</ele><time>2026-04-04T14:37:50.103Z</time></trkpt><trkpt lat="44.8150517" lon="8.3418783"><ele>238.0</ele><time>2026-04-04T14:37:51.103Z</time></trkpt><trkpt lat="44.815175" lon="8.3419133"><ele>238.0</ele><time>2026-04-04T14:37:52.104Z</time></trkpt><trkpt lat="44.815305" lon="8.3419433"><ele>238.0</ele><time>2026-04-04T14:37:53.104Z</time></trkpt><trkpt lat="44.8154367" lon="8.3419783"><ele>238.0</ele><time>2026-04-04T14:37:54.101Z</time></trkpt><trkpt lat="44.8155583" lon="8.3420183"><ele>238.0</ele><time>2026-04-04T14:37:55.106Z</time></trkpt><trkpt lat="44.8156717" lon="8.342065"><ele>238.0</ele><time>2026-04-04T14:37:56.108Z</time></trkpt><trkpt lat="44.8157817" lon="8.3421167"><ele>238.0</ele><time>2026-04-04T14:37:57.107Z</time></trkpt><trkpt lat="44.8158967" lon="8.34217"><ele>238.0</ele><time>2026-04-04T14:37:58.103Z</time></trkpt><trkpt lat="44.8160117" lon="8.3422133"><ele>238.0</ele><time>2026-04-04T14:37:59.102Z</time></trkpt><trkpt lat="44.8161317" lon="8.3422533"><ele>239.0</ele><time>2026-04-04T14:38:00.103Z</time></trkpt><trkpt lat="44.8162467" lon="8.3423"><ele>240.0</ele><time>2026-04-04T14:38:01.103Z</time></trkpt><trkpt lat="44.816355" lon="8.3423383"><ele>241.0</ele><time>2026-04-04T14:38:02.104Z</time></trkpt><trkpt lat="44.8164567" lon="8.342405"><ele>242.0</ele><time>2026-04-04T14:38:03.1Z</time></trkpt><trkpt lat="44.8165533" lon="8.342475"><ele>242.0</ele><time>2026-04-04T14:38:04.102Z</time></trkpt><trkpt lat="44.816645" lon="8.34255"><ele>242.0</ele><time>2026-04-04T14:38:05.1Z</time></trkpt><trkpt lat="44.8167267" lon="8.3426117"><ele>242.0</ele><time>2026-04-04T14:38:06.102Z</time></trkpt><trkpt lat="44.81681" lon="8.342685"><ele>242.0</ele><time>2026-04-04T14:38:07.101Z</time></trkpt><trkpt lat="44.816895" lon="8.34276"><ele>242.0</ele><time>2026-04-04T14:38:08.099Z</time></trkpt><trkpt lat="44.8169883" lon="8.3428267"><ele>242.16666666666669</ele><time>2026-04-04T14:38:09.103Z</time></trkpt><trkpt lat="44.81708" lon="8.3429"><ele>242.33333333333334</ele><time>2026-04-04T14:38:10.1Z</time></trkpt><trkpt lat="44.8171683" lon="8.3429633"><ele>242.5</ele><time>2026-04-04T14:38:11.103Z</time></trkpt><trkpt lat="44.8172467" lon="8.3430183"><ele>242.66666666666669</ele><time>2026-04-04T14:38:12.103Z</time></trkpt><trkpt lat="44.817315" lon="8.343075"><ele>242.83333333333334</ele><time>2026-04-04T14:38:13.105Z</time></trkpt><trkpt lat="44.8173717" lon="8.3431483"><ele>243.0</ele><time>2026-04-04T14:38:14.103Z</time></trkpt><trkpt lat="44.8174267" lon="8.343225"><ele>241.2</ele><time>2026-04-04T14:38:15.099Z</time></trkpt><trkpt lat="44.8174783" lon="8.3433133"><ele>239.4</ele><time>2026-04-04T14:38:16.109Z</time></trkpt><trkpt lat="44.817525" lon="8.3434217"><ele>237.59999999999997</ele><time>2026-04-04T14:38:17.102Z</time></trkpt><trkpt lat="44.8175667" lon="8.34354"><ele>235.79999999999998</ele><time>2026-04-04T14:38:18.1Z</time></trkpt><trkpt lat="44.817605" lon="8.3436717"><ele>234.0</ele><time>2026-04-04T14:38:19.101Z</time></trkpt><trkpt lat="44.8176417" lon="8.3438067"><ele>231.6</ele><time>2026-04-04T14:38:20.101Z</time></trkpt><trkpt lat="44.8176683" lon="8.3439517"><ele>229.2</ele><time>2026-04-04T14:38:21.101Z</time></trkpt><trkpt lat="44.8176883" lon="8.3441033"><ele>226.79999999999998</ele><time>2026-04-04T14:38:22.101Z</time></trkpt><trkpt lat="44.81771" lon="8.3442467"><ele>224.39999999999998</ele><time>2026-04-04T14:38:23.104Z</time></trkpt><trkpt lat="44.8177333" lon="8.3443883"><ele>222.0</ele><time>2026-04-04T14:38:24.104Z</time></trkpt><trkpt lat="44.817765" lon="8.3445333"><ele>222.0</ele><time>2026-04-04T14:38:25.105Z</time></trkpt><trkpt lat="44.8178017" lon="8.34468"><ele>222.0</ele><time>2026-04-04T14:38:26.101Z</time></trkpt><trkpt lat="44.817845" lon="8.3448333"><ele>222.0</ele><time>2026-04-04T14:38:27.099Z</time></trkpt><trkpt lat="44.8178933" lon="8.3449883"><ele>222.0</ele><time>2026-04-04T14:38:28.101Z</time></trkpt><trkpt lat="44.81795" lon="8.3451433"><ele>220.5</ele><time>2026-04-04T14:38:29.106Z</time></trkpt><trkpt lat="44.8180083" lon="8.3453033"><ele>219.0</ele><time>2026-04-04T14:38:30.105Z</time></trkpt><trkpt lat="44.8180683" lon="8.34547"><ele>217.5</ele><time>2026-04-04T14:38:31.102Z</time></trkpt><trkpt lat="44.818135" lon="8.345635"><ele>216.0</ele><time>2026-04-04T14:38:32.106Z</time></trkpt><trkpt lat="44.8182017" lon="8.345805"><ele>215.75</ele><time>2026-04-04T14:38:33.101Z</time></trkpt><trkpt lat="44.818265" lon="8.3459733"><ele>215.5</ele><time>2026-04-04T14:38:34.101Z</time></trkpt><trkpt lat="44.8183267" lon="8.3461333"><ele>215.25</ele><time>2026-04-04T14:38:35.104Z</time></trkpt><trkpt lat="44.8183883" lon="8.3462633"><ele>215.0</ele><time>2026-04-04T14:38:36.104Z</time></trkpt><trkpt lat="44.8184567" lon="8.34637"><ele>216.0</ele><time>2026-04-04T14:38:37.103Z</time></trkpt><trkpt lat="44.8185383" lon="8.3464533"><ele>217.0</ele><time>2026-04-04T14:38:38.1Z</time></trkpt><trkpt lat="44.8186283" lon="8.3465317"><ele>218.0</ele><time>2026-04-04T14:38:39.099Z</time></trkpt><trkpt lat="44.8187283" lon="8.3466017"><ele>219.0</ele><time>2026-04-04T14:38:40.103Z</time></trkpt><trkpt lat="44.8188333" lon="8.3466733"><ele>220.0</ele><time>2026-04-04T14:38:41.101Z</time></trkpt><trkpt lat="44.8189367" lon="8.346765"><ele>220.0</ele><time>2026-04-04T14:38:42.102Z</time></trkpt><trkpt lat="44.8190167" lon="8.3468783"><ele>220.0</ele><time>2026-04-04T14:38:43.099Z</time></trkpt><trkpt lat="44.8190917" lon="8.3470167"><ele>220.0</ele><time>2026-04-04T14:38:44.098Z</time></trkpt><trkpt lat="44.81917" lon="8.3471667"><ele>220.0</ele><time>2026-04-04T14:38:45.099Z</time></trkpt><trkpt lat="44.8192483" lon="8.3473233"><ele>217.5</ele><time>2026-04-04T14:38:46.099Z</time></trkpt><trkpt lat="44.8193283" lon="8.34749"><ele>215.0</ele><time>2026-04-04T14:38:47.102Z</time></trkpt><trkpt lat="44.81941" lon="8.3476617"><ele>212.5</ele><time>2026-04-04T14:38:48.101Z</time></trkpt><trkpt lat="44.81949" lon="8.3478283"><ele>210.0</ele><time>2026-04-04T14:38:49.101Z</time></trkpt><trkpt lat="44.819565" lon="8.3480017"><ele>214.5</ele><time>2026-04-04T14:38:50.102Z</time></trkpt><trkpt lat="44.8196233" lon="8.348175"><ele>219.0</ele><time>2026-04-04T14:38:51.099Z</time></trkpt><trkpt lat="44.8196683" lon="8.3483567"><ele>223.5</ele><time>2026-04-04T14:38:52.1Z</time></trkpt><trkpt lat="44.8197" lon="8.34854"><ele>228.0</ele><time>2026-04-04T14:38:53.1Z</time></trkpt><trkpt lat="44.81973" lon="8.3487267"><ele>227.5</ele><time>2026-04-04T14:38:54.106Z</time></trkpt><trkpt lat="44.8197533" lon="8.34891"><ele>227.0</ele><time>2026-04-04T14:38:55.105Z</time></trkpt><trkpt lat="44.8197683" lon="8.3490883"><ele>226.5</ele><time>2026-04-04T14:38:56.1Z</time></trkpt><trkpt lat="44.81978" lon="8.3492717"><ele>226.0</ele><time>2026-04-04T14:38:57.103Z</time></trkpt><trkpt lat="44.8197933" lon="8.34945"><ele>226.0</ele><time>2026-04-04T14:38:58.098Z</time></trkpt><trkpt lat="44.81981" lon="8.34961"><ele>226.00000000000003</ele><time>2026-04-04T14:38:59.101Z</time></trkpt><trkpt lat="44.81983" lon="8.349745"><ele>226.00000000000003</ele><time>2026-04-04T14:39:00.101Z</time></trkpt><trkpt lat="44.8198633" lon="8.3498667"><ele>226.0</ele><time>2026-04-04T14:39:01.101Z</time></trkpt><trkpt lat="44.8199217" lon="8.349985"><ele>226.0</ele><time>2026-04-04T14:39:02.103Z</time></trkpt><trkpt lat="44.81999" lon="8.3500917"><ele>224.60000000000002</ele><time>2026-04-04T14:39:03.1Z</time></trkpt><trkpt lat="44.8200667" lon="8.35019"><ele>223.20000000000002</ele><time>2026-04-04T14:39:04.102Z</time></trkpt><trkpt lat="44.82015" lon="8.3502833"><ele>221.79999999999998</ele><time>2026-04-04T14:39:05.101Z</time></trkpt><trkpt lat="44.8202333" lon="8.3503817"><ele>220.39999999999998</ele><time>2026-04-04T14:39:06.106Z</time></trkpt><trkpt lat="44.8203167" lon="8.350485"><ele>219.0</ele><time>2026-04-04T14:39:07.105Z</time></trkpt><trkpt lat="44.8204017" lon="8.350595"><ele>218.2</ele><time>2026-04-04T14:39:08.107Z</time></trkpt><trkpt lat="44.8204817" lon="8.350715"><ele>217.39999999999998</ele><time>2026-04-04T14:39:09.103Z</time></trkpt><trkpt lat="44.820555" lon="8.350835"><ele>216.6</ele><time>2026-04-04T14:39:10.102Z</time></trkpt><trkpt lat="44.8206117" lon="8.3509683"><ele>215.8</ele><time>2026-04-04T14:39:11.1Z</time></trkpt><trkpt lat="44.82066" lon="8.3510967"><ele>215.0</ele><time>2026-04-04T14:39:12.107Z</time></trkpt><trkpt lat="44.8206967" lon="8.3512083"><ele>215.00000000000003</ele><time>2026-04-04T14:39:13.101Z</time></trkpt><trkpt lat="44.820725" lon="8.351315"><ele>215.0</ele><time>2026-04-04T14:39:14.101Z</time></trkpt><trkpt lat="44.82075" lon="8.3514167"><ele>215.0</ele><time>2026-04-04T14:39:15.101Z</time></trkpt><trkpt lat="44.8207683" lon="8.3515317"><ele>215.0</ele><time>2026-04-04T14:39:16.101Z</time></trkpt><trkpt lat="44.8207917" lon="8.3516583"><ele>215.00000000000003</ele><time>2026-04-04T14:39:17.102Z</time></trkpt><trkpt lat="44.8208083" lon="8.3518017"><ele>215.0</ele><time>2026-04-04T14:39:18.106Z</time></trkpt><trkpt lat="44.8208233" lon="8.35196"><ele>214.6</ele><time>2026-04-04T14:39:19.099Z</time></trkpt><trkpt lat="44.8208433" lon="8.35212"><ele>214.2</ele><time>2026-04-04T14:39:20.101Z</time></trkpt><trkpt lat="44.820865" lon="8.35228"><ele>213.8</ele><time>2026-04-04T14:39:21.101Z</time></trkpt><trkpt lat="44.8208883" lon="8.3524317"><ele>213.4</ele><time>2026-04-04T14:39:22.1Z</time></trkpt><trkpt lat="44.8209167" lon="8.352575"><ele>213.0</ele><time>2026-04-04T14:39:23.102Z</time></trkpt><trkpt lat="44.8209417" lon="8.3527017"><ele>212.66666666666666</ele><time>2026-04-04T14:39:24.105Z</time></trkpt><trkpt lat="44.820965" lon="8.3528033"><ele>212.33333333333331</ele><time>2026-04-04T14:39:25.103Z</time></trkpt><trkpt lat="44.820985" lon="8.3528967"><ele>212.0</ele><time>2026-04-04T14:39:26.104Z</time></trkpt><trkpt lat="44.8210083" lon="8.3530517"><ele>211.66666666666666</ele><time>2026-04-04T14:39:28.105Z</time></trkpt><trkpt lat="44.8210167" lon="8.3531467"><ele>211.33333333333331</ele><time>2026-04-04T14:39:29.1Z</time></trkpt><trkpt lat="44.82102" lon="8.3532517"><ele>211.0</ele><time>2026-04-04T14:39:30.102Z</time></trkpt><trkpt lat="44.821015" lon="8.3533633"><ele>209.16666666666666</ele><time>2026-04-04T14:39:31.101Z</time></trkpt><trkpt lat="44.8210067" lon="8.35347"><ele>207.33333333333331</ele><time>2026-04-04T14:39:32.102Z</time></trkpt><trkpt lat="44.82101" lon="8.3535633"><ele>205.5</ele><time>2026-04-04T14:39:33.104Z</time></trkpt><trkpt lat="44.8210267" lon="8.35375"><ele>203.66666666666669</ele><time>2026-04-04T14:39:35.102Z</time></trkpt><trkpt lat="44.8210417" lon="8.3538583"><ele>201.83333333333334</ele><time>2026-04-04T14:39:36.102Z</time></trkpt><trkpt lat="44.8210483" lon="8.3539767"><ele>200.0</ele><time>2026-04-04T14:39:37.103Z</time></trkpt><trkpt lat="44.8210617" lon="8.3541033"><ele>200.00000000000003</ele><time>2026-04-04T14:39:38.1Z</time></trkpt><trkpt lat="44.8210733" lon="8.3542283"><ele>200.0</ele><time>2026-04-04T14:39:39.108Z</time></trkpt><trkpt lat="44.82108" lon="8.354345"><ele>200.0</ele><time>2026-04-04T14:39:40.106Z</time></trkpt><trkpt lat="44.8210867" lon="8.35445"><ele>200.0</ele><time>2026-04-04T14:39:41.107Z</time></trkpt><trkpt lat="44.821095" lon="8.3545417"><ele>200.0</ele><time>2026-04-04T14:39:42.107Z</time></trkpt><trkpt lat="44.8211067" lon="8.3546333"><ele>200.00000000000003</ele><time>2026-04-04T14:39:43.106Z</time></trkpt><trkpt lat="44.821115" lon="8.354725"><ele>200.0</ele><time>2026-04-04T14:39:44.112Z</time></trkpt><trkpt lat="44.8211217" lon="8.354815"><ele>199.83333333333334</ele><time>2026-04-04T14:39:45.102Z</time></trkpt><trkpt lat="44.8211233" lon="8.35491"><ele>199.66666666666669</ele><time>2026-04-04T14:39:46.103Z</time></trkpt><trkpt lat="44.8211167" lon="8.3550033"><ele>199.5</ele><time>2026-04-04T14:39:47.103Z</time></trkpt><trkpt lat="44.8211133" lon="8.3551083"><ele>199.33333333333331</ele><time>2026-04-04T14:39:48.108Z</time></trkpt><trkpt lat="44.821105" lon="8.35522"><ele>199.16666666666666</ele><time>2026-04-04T14:39:49.105Z</time></trkpt><trkpt lat="44.8210917" lon="8.35533"><ele>199.0</ele><time>2026-04-04T14:39:50.101Z</time></trkpt><trkpt lat="44.8210733" lon="8.355445"><ele>199.16666666666666</ele><time>2026-04-04T14:39:51.103Z</time></trkpt><trkpt lat="44.821045" lon="8.3555567"><ele>199.33333333333331</ele><time>2026-04-04T14:39:52.102Z</time></trkpt><trkpt lat="44.821015" lon="8.3556633"><ele>199.5</ele><time>2026-04-04T14:39:53.103Z</time></trkpt><trkpt lat="44.82098" lon="8.3557683"><ele>199.66666666666669</ele><time>2026-04-04T14:39:54.104Z</time></trkpt><trkpt lat="44.82095" lon="8.35588"><ele>199.83333333333334</ele><time>2026-04-04T14:39:55.099Z</time></trkpt><trkpt lat="44.8209233" lon="8.3559883"><ele>200.0</ele><time>2026-04-04T14:39:56.1Z</time></trkpt><trkpt lat="44.8208933" lon="8.35608"><ele>200.00000000000003</ele><time>2026-04-04T14:39:57.102Z</time></trkpt><trkpt lat="44.820865" lon="8.356185"><ele>200.0</ele><time>2026-04-04T14:39:58.103Z</time></trkpt><trkpt lat="44.8208383" lon="8.3562983"><ele>200.0</ele><time>2026-04-04T14:39:59.104Z</time></trkpt><trkpt lat="44.8208217" lon="8.356425"><ele>200.0</ele><time>2026-04-04T14:40:00.103Z</time></trkpt><trkpt lat="44.820815" lon="8.356555"><ele>200.00000000000003</ele><time>2026-04-04T14:40:01.103Z</time></trkpt><trkpt lat="44.8208217" lon="8.3566917"><ele>200.0</ele><time>2026-04-04T14:40:02.104Z</time></trkpt><trkpt lat="44.8208267" lon="8.35683"><ele>200.00000000000003</ele><time>2026-04-04T14:40:03.103Z</time></trkpt><trkpt lat="44.82083" lon="8.3569617"><ele>200.0</ele><time>2026-04-04T14:40:04.108Z</time></trkpt><trkpt lat="44.82084" lon="8.357085"><ele>200.0</ele><time>2026-04-04T14:40:05.101Z</time></trkpt><trkpt lat="44.8208467" lon="8.357205"><ele>200.0</ele><time>2026-04-04T14:40:06.103Z</time></trkpt><trkpt lat="44.8208733" lon="8.3573267"><ele>200.00000000000003</ele><time>2026-04-04T14:40:07.101Z</time></trkpt><trkpt lat="44.8209067" lon="8.357445"><ele>200.0</ele><time>2026-04-04T14:40:08.106Z</time></trkpt><trkpt lat="44.8209317" lon="8.357565"><ele>200.00000000000003</ele><time>2026-04-04T14:40:09.106Z</time></trkpt><trkpt lat="44.8209667" lon="8.357685"><ele>200.0</ele><time>2026-04-04T14:40:10.101Z</time></trkpt><trkpt lat="44.8210033" lon="8.3578"><ele>200.0</ele><time>2026-04-04T14:40:11.103Z</time></trkpt><trkpt lat="44.8210417" lon="8.3579117"><ele>200.0</ele><time>2026-04-04T14:40:12.101Z</time></trkpt><trkpt lat="44.8210817" lon="8.3580167"><ele>200.00000000000003</ele><time>2026-04-04T14:40:13.1Z</time></trkpt><trkpt lat="44.821135" lon="8.3581067"><ele>200.0</ele><time>2026-04-04T14:40:14.099Z</time></trkpt><trkpt lat="44.8211867" lon="8.3581933"><ele>200.83333333333334</ele><time>2026-04-04T14:40:15.103Z</time></trkpt><trkpt lat="44.8212533" lon="8.3582717"><ele>201.66666666666669</ele><time>2026-04-04T14:40:16.106Z</time></trkpt><trkpt lat="44.8213167" lon="8.3583417"><ele>202.5</ele><time>2026-04-04T14:40:17.104Z</time></trkpt><trkpt lat="44.8213683" lon="8.3584083"><ele>203.33333333333331</ele><time>2026-04-04T14:40:18.101Z</time></trkpt><trkpt lat="44.8214133" lon="8.3584783"><ele>204.16666666666666</ele><time>2026-04-04T14:40:19.107Z</time></trkpt><trkpt lat="44.8214583" lon="8.358545"><ele>205.0</ele><time>2026-04-04T14:40:20.108Z</time></trkpt><trkpt lat="44.8215217" lon="8.3586633"><ele>204.99999999999997</ele><time>2026-04-04T14:40:22.104Z</time></trkpt><trkpt lat="44.8214867" lon="8.3587383"><ele>205.0</ele><time>2026-04-04T14:40:25.105Z</time></trkpt><trkpt lat="44.8215267" lon="8.3588283"><ele>205.0</ele><time>2026-04-04T14:40:31.1Z</time></trkpt><trkpt lat="44.8216333" lon="8.3588717"><ele>205.0</ele><time>2026-04-04T14:40:33.102Z</time></trkpt><trkpt lat="44.8217017" lon="8.3588533"><ele>204.99999999999997</ele><time>2026-04-04T14:40:34.101Z</time></trkpt><trkpt lat="44.8218117" lon="8.3588233"><ele>205.0</ele><time>2026-04-04T14:40:36.105Z</time></trkpt><trkpt lat="44.8219033" lon="8.3587383"><ele>204.33333333333331</ele><time>2026-04-04T14:40:44.101Z</time></trkpt><trkpt lat="44.821985" lon="8.3586117"><ele>203.66666666666666</ele><time>2026-04-04T14:40:46.112Z</time></trkpt><trkpt lat="44.8220333" lon="8.3585317"><ele>203.0</ele><time>2026-04-04T14:40:47.104Z</time></trkpt><trkpt lat="44.822095" lon="8.3584617"><ele>202.33333333333331</ele><time>2026-04-04T14:40:48.104Z</time></trkpt><trkpt lat="44.8221467" lon="8.35839"><ele>201.66666666666666</ele><time>2026-04-04T14:40:49.103Z</time></trkpt><trkpt lat="44.822215" lon="8.35833"><ele>201.0</ele><time>2026-04-04T14:40:50.105Z</time></trkpt><trkpt lat="44.8222883" lon="8.35828"><ele>201.0</ele><time>2026-04-04T14:40:51.105Z</time></trkpt><trkpt lat="44.82237" lon="8.358245"><ele>201.0</ele><time>2026-04-04T14:40:52.102Z</time></trkpt><trkpt lat="44.8224567" lon="8.3582183"><ele>201.0</ele><time>2026-04-04T14:40:53.111Z</time></trkpt><trkpt lat="44.8225517" lon="8.3582033"><ele>201.0</ele><time>2026-04-04T14:40:54.1Z</time></trkpt><trkpt lat="44.82265" lon="8.3582117"><ele>201.0</ele><time>2026-04-04T14:40:55.102Z</time></trkpt><trkpt lat="44.82275" lon="8.35823"><ele>199.20000000000002</ele><time>2026-04-04T14:40:56.101Z</time></trkpt><trkpt lat="44.8228467" lon="8.35824"><ele>197.4</ele><time>2026-04-04T14:40:57.101Z</time></trkpt><trkpt lat="44.82294" lon="8.3582567"><ele>195.6</ele><time>2026-04-04T14:40:58.103Z</time></trkpt><trkpt lat="44.8230333" lon="8.3582633"><ele>193.8</ele><time>2026-04-04T14:40:59.11Z</time></trkpt><trkpt lat="44.8231333" lon="8.3582633"><ele>192.0</ele><time>2026-04-04T14:41:00.099Z</time></trkpt><trkpt lat="44.82323" lon="8.3582717"><ele>192.0</ele><time>2026-04-04T14:41:01.104Z</time></trkpt><trkpt lat="44.823325" lon="8.3583017"><ele>192.0</ele><time>2026-04-04T14:41:02.102Z</time></trkpt><trkpt lat="44.8234183" lon="8.3583117"><ele>192.0</ele><time>2026-04-04T14:41:03.107Z</time></trkpt><trkpt lat="44.8235117" lon="8.3583133"><ele>192.0</ele><time>2026-04-04T14:41:04.1Z</time></trkpt><trkpt lat="44.82361" lon="8.3583217"><ele>192.0</ele><time>2026-04-04T14:41:05.104Z</time></trkpt><trkpt lat="44.8236917" lon="8.3583283"><ele>189.83333333333334</ele><time>2026-04-04T14:41:06.102Z</time></trkpt><trkpt lat="44.8237867" lon="8.3583633"><ele>187.66666666666666</ele><time>2026-04-04T14:41:07.106Z</time></trkpt><trkpt lat="44.823865" lon="8.3583983"><ele>185.5</ele><time>2026-04-04T14:41:08.103Z</time></trkpt><trkpt lat="44.823945" lon="8.35843"><ele>183.33333333333331</ele><time>2026-04-04T14:41:09.101Z</time></trkpt><trkpt lat="44.82403" lon="8.358455"><ele>181.16666666666666</ele><time>2026-04-04T14:41:10.104Z</time></trkpt><trkpt lat="44.8241233" lon="8.3584667"><ele>179.0</ele><time>2026-04-04T14:41:11.102Z</time></trkpt><trkpt lat="44.824225" lon="8.35846"><ele>176.39999999999998</ele><time>2026-04-04T14:41:12.099Z</time></trkpt><trkpt lat="44.8243183" lon="8.35846"><ele>173.8</ele><time>2026-04-04T14:41:13.102Z</time></trkpt><trkpt lat="44.8244117" lon="8.3584567"><ele>171.2</ele><time>2026-04-04T14:41:14.101Z</time></trkpt><trkpt lat="44.824505" lon="8.3584467"><ele>168.60000000000002</ele><time>2026-04-04T14:41:15.103Z</time></trkpt><trkpt lat="44.824605" lon="8.3584583"><ele>166.0</ele><time>2026-04-04T14:41:16.101Z</time></trkpt><trkpt lat="44.8247033" lon="8.3584667"><ele>166.0</ele><time>2026-04-04T14:41:17.102Z</time></trkpt><trkpt lat="44.8247933" lon="8.3584967"><ele>166.0</ele><time>2026-04-04T14:41:18.1Z</time></trkpt><trkpt lat="44.82489" lon="8.3584517"><ele>166.0</ele><time>2026-04-04T14:41:19.103Z</time></trkpt><trkpt lat="44.8249967" lon="8.358405"><ele>166.0</ele><time>2026-04-04T14:41:20.101Z</time></trkpt><trkpt lat="44.825085" lon="8.35834"><ele>166.0</ele><time>2026-04-04T14:41:21.1Z</time></trkpt><trkpt lat="44.8251867" lon="8.35828"><ele>162.75</ele><time>2026-04-04T14:41:22.107Z</time></trkpt><trkpt lat="44.8252967" lon="8.358205"><ele>159.5</ele><time>2026-04-04T14:41:23.101Z</time></trkpt><trkpt lat="44.8254" lon="8.3581367"><ele>156.25</ele><time>2026-04-04T14:41:24.103Z</time></trkpt><trkpt lat="44.8255017" lon="8.358065"><ele>153.0</ele><time>2026-04-04T14:41:25.098Z</time></trkpt><trkpt lat="44.825605" lon="8.3579933"><ele>152.5</ele><time>2026-04-04T14:41:26.101Z</time></trkpt><trkpt lat="44.8257117" lon="8.3579283"><ele>152.0</ele><time>2026-04-04T14:41:27.106Z</time></trkpt><trkpt lat="44.8258167" lon="8.3578667"><ele>151.5</ele><time>2026-04-04T14:41:28.102Z</time></trkpt><trkpt lat="44.8259167" lon="8.357795"><ele>151.0</ele><time>2026-04-04T14:41:29.099Z</time></trkpt><trkpt lat="44.8260183" lon="8.357725"><ele>148.8</ele><time>2026-04-04T14:41:30.102Z</time></trkpt><trkpt lat="44.826125" lon="8.3576567"><ele>146.6</ele><time>2026-04-04T14:41:31.104Z</time></trkpt><trkpt lat="44.8262233" lon="8.3575883"><ele>144.4</ele><time>2026-04-04T14:41:32.099Z</time></trkpt><trkpt lat="44.8263217" lon="8.3575167"><ele>142.2</ele><time>2026-04-04T14:41:33.101Z</time></trkpt><trkpt lat="44.8264167" lon="8.357445"><ele>140.0</ele><time>2026-04-04T14:41:34.104Z</time></trkpt><trkpt lat="44.82651" lon="8.3573767"><ele>140.0</ele><time>2026-04-04T14:41:35.107Z</time></trkpt><trkpt lat="44.8266067" lon="8.3573133"><ele>140.0</ele><time>2026-04-04T14:41:36.1Z</time></trkpt><trkpt lat="44.8267183" lon="8.3572417"><ele>140.0</ele><time>2026-04-04T14:41:37.108Z</time></trkpt><trkpt lat="44.826835" lon="8.357165"><ele>140.0</ele><time>2026-04-04T14:41:38.099Z</time></trkpt><trkpt lat="44.8269617" lon="8.357085"><ele>137.33333333333331</ele><time>2026-04-04T14:41:39.105Z</time></trkpt><trkpt lat="44.8270983" lon="8.357"><ele>134.66666666666666</ele><time>2026-04-04T14:41:40.105Z</time></trkpt><trkpt lat="44.8272417" lon="8.3569067"><ele>132.0</ele><time>2026-04-04T14:41:41.104Z</time></trkpt><trkpt lat="44.8273933" lon="8.35681"><ele>132.0</ele><time>2026-04-04T14:41:42.105Z</time></trkpt><trkpt lat="44.8275517" lon="8.3567167"><ele>132.0</ele><time>2026-04-04T14:41:43.102Z</time></trkpt><trkpt lat="44.8277117" lon="8.3566117"><ele>132.0</ele><time>2026-04-04T14:41:44.103Z</time></trkpt><trkpt lat="44.82788" lon="8.3565117"><ele>130.33333333333334</ele><time>2026-04-04T14:41:45.104Z</time></trkpt><trkpt lat="44.8280467" lon="8.3564117"><ele>128.66666666666669</ele><time>2026-04-04T14:41:46.102Z</time></trkpt><trkpt lat="44.8282133" lon="8.35631"><ele>127.0</ele><time>2026-04-04T14:41:47.105Z</time></trkpt><trkpt lat="44.8283783" lon="8.3562117"><ele>127.0</ele><time>2026-04-04T14:41:48.101Z</time></trkpt><trkpt lat="44.8285367" lon="8.3561167"><ele>127.0</ele><time>2026-04-04T14:41:49.106Z</time></trkpt><trkpt lat="44.8286917" lon="8.3560317"><ele>127.0</ele><time>2026-04-04T14:41:50.105Z</time></trkpt><trkpt lat="44.8288467" lon="8.35597"><ele>127.0</ele><time>2026-04-04T14:41:51.101Z</time></trkpt><trkpt lat="44.8290017" lon="8.355935"><ele>127.0</ele><time>2026-04-04T14:41:52.102Z</time></trkpt><trkpt lat="44.8291617" lon="8.3559217"><ele>127.0</ele><time>2026-04-04T14:41:53.102Z</time></trkpt><trkpt lat="44.8293233" lon="8.3559267"><ele>126.0</ele><time>2026-04-04T14:41:54.102Z</time></trkpt><trkpt lat="44.8294833" lon="8.3559433"><ele>125.0</ele><time>2026-04-04T14:41:55.102Z</time></trkpt><trkpt lat="44.8296533" lon="8.3559617"><ele>124.0</ele><time>2026-04-04T14:41:56.11Z</time></trkpt><trkpt lat="44.8298233" lon="8.355975"><ele>124.0</ele><time>2026-04-04T14:41:57.105Z</time></trkpt><trkpt lat="44.829995" lon="8.3559933"><ele>124.0</ele><time>2026-04-04T14:41:58.1Z</time></trkpt><trkpt lat="44.8301717" lon="8.3560117"><ele>124.0</ele><time>2026-04-04T14:41:59.11Z</time></trkpt><trkpt lat="44.8303483" lon="8.3560283"><ele>124.0</ele><time>2026-04-04T14:42:00.102Z</time></trkpt><trkpt lat="44.8305183" lon="8.3560417"><ele>124.0</ele><time>2026-04-04T14:42:01.102Z</time></trkpt><trkpt lat="44.830685" lon="8.3560583"><ele>124.0</ele><time>2026-04-04T14:42:02.104Z</time></trkpt><trkpt lat="44.830845" lon="8.3560783"><ele>124.5</ele><time>2026-04-04T14:42:03.104Z</time></trkpt><trkpt lat="44.8309967" lon="8.356105"><ele>125.0</ele><time>2026-04-04T14:42:04.105Z</time></trkpt><trkpt lat="44.8311333" lon="8.35613"><ele>125.5</ele><time>2026-04-04T14:42:05.103Z</time></trkpt><trkpt lat="44.8312517" lon="8.3561533"><ele>126.0</ele><time>2026-04-04T14:42:06.1Z</time></trkpt><trkpt lat="44.8313417" lon="8.3561833"><ele>126.0</ele><time>2026-04-04T14:42:07.104Z</time></trkpt><trkpt lat="44.83142" lon="8.3562183"><ele>126.0</ele><time>2026-04-04T14:42:08.098Z</time></trkpt><trkpt lat="44.8314783" lon="8.3562917"><ele>126.0</ele><time>2026-04-04T14:42:09.098Z</time></trkpt><trkpt lat="44.83153" lon="8.35637"><ele>126.0</ele><time>2026-04-04T14:42:10.101Z</time></trkpt><trkpt lat="44.83156" lon="8.356465"><ele>126.0</ele><time>2026-04-04T14:42:11.102Z</time></trkpt><trkpt lat="44.831575" lon="8.35657"><ele>126.0</ele><time>2026-04-04T14:42:12.107Z</time></trkpt><trkpt lat="44.8315617" lon="8.3566933"><ele>126.0</ele><time>2026-04-04T14:42:13.111Z</time></trkpt><trkpt lat="44.831565" lon="8.3568217"><ele>126.0</ele><time>2026-04-04T14:42:14.105Z</time></trkpt><trkpt lat="44.8315617" lon="8.356955"><ele>126.0</ele><time>2026-04-04T14:42:15.102Z</time></trkpt><trkpt lat="44.8315467" lon="8.357095"><ele>126.0</ele><time>2026-04-04T14:42:16.105Z</time></trkpt><trkpt lat="44.8315133" lon="8.3572417"><ele>126.0</ele><time>2026-04-04T14:42:17.104Z</time></trkpt><trkpt lat="44.8314683" lon="8.357395"><ele>126.75</ele><time>2026-04-04T14:42:18.104Z</time></trkpt><trkpt lat="44.8314183" lon="8.3575483"><ele>127.5</ele><time>2026-04-04T14:42:19.104Z</time></trkpt><trkpt lat="44.831365" lon="8.3577"><ele>128.25</ele><time>2026-04-04T14:42:20.101Z</time></trkpt><trkpt lat="44.8313067" lon="8.3578483"><ele>129.0</ele><time>2026-04-04T14:42:21.104Z</time></trkpt><trkpt lat="44.8312517" lon="8.3579917"><ele>132.75</ele><time>2026-04-04T14:42:22.102Z</time></trkpt><trkpt lat="44.831205" lon="8.3581367"><ele>136.5</ele><time>2026-04-04T14:42:23.11Z</time></trkpt><trkpt lat="44.831155" lon="8.3582833"><ele>140.25</ele><time>2026-04-04T14:42:24.105Z</time></trkpt><trkpt lat="44.8311083" lon="8.35843"><ele>144.0</ele><time>2026-04-04T14:42:25.103Z</time></trkpt><trkpt lat="44.831065" lon="8.35858"><ele>144.0</ele><time>2026-04-04T14:42:26.1Z</time></trkpt><trkpt lat="44.831025" lon="8.3587367"><ele>144.0</ele><time>2026-04-04T14:42:27.104Z</time></trkpt><trkpt lat="44.8309833" lon="8.3589"><ele>144.0</ele><time>2026-04-04T14:42:28.107Z</time></trkpt><trkpt lat="44.8309467" lon="8.3590683"><ele>144.0</ele><time>2026-04-04T14:42:29.104Z</time></trkpt><trkpt lat="44.8309217" lon="8.3592467"><ele>142.75</ele><time>2026-04-04T14:42:30.104Z</time></trkpt><trkpt lat="44.8309017" lon="8.3594283"><ele>141.5</ele><time>2026-04-04T14:42:31.107Z</time></trkpt><trkpt lat="44.83089" lon="8.3596167"><ele>140.25</ele><time>2026-04-04T14:42:32.109Z</time></trkpt><trkpt lat="44.83089" lon="8.35981"><ele>139.0</ele><time>2026-04-04T14:42:33.106Z</time></trkpt><trkpt lat="44.8308983" lon="8.3600017"><ele>139.0</ele><time>2026-04-04T14:42:34.099Z</time></trkpt><trkpt lat="44.830925" lon="8.3602"><ele>139.0</ele><time>2026-04-04T14:42:35.097Z</time></trkpt><trkpt lat="44.8309667" lon="8.3603933"><ele>139.0</ele><time>2026-04-04T14:42:36.104Z</time></trkpt><trkpt lat="44.8310133" lon="8.3605833"><ele>139.0</ele><time>2026-04-04T14:42:37.103Z</time></trkpt><trkpt lat="44.8310717" lon="8.36077"><ele>143.0</ele><time>2026-04-04T14:42:38.104Z</time></trkpt><trkpt lat="44.8311317" lon="8.3609467"><ele>147.0</ele><time>2026-04-04T14:42:39.1Z</time></trkpt><trkpt lat="44.831195" lon="8.361105"><ele>151.0</ele><time>2026-04-04T14:42:40.1Z</time></trkpt><trkpt lat="44.8312383" lon="8.36127"><ele>155.0</ele><time>2026-04-04T14:42:41.099Z</time></trkpt><trkpt lat="44.8312633" lon="8.3614367"><ele>155.0</ele><time>2026-04-04T14:42:42.105Z</time></trkpt><trkpt lat="44.8312683" lon="8.3616017"><ele>155.0</ele><time>2026-04-04T14:42:43.106Z</time></trkpt><trkpt lat="44.8312567" lon="8.36177"><ele>155.0</ele><time>2026-04-04T14:42:44.102Z</time></trkpt><trkpt lat="44.831235" lon="8.36194"><ele>155.0</ele><time>2026-04-04T14:42:45.101Z</time></trkpt><trkpt lat="44.8312083" lon="8.362115"><ele>155.0</ele><time>2026-04-04T14:42:46.102Z</time></trkpt><trkpt lat="44.8311817" lon="8.3622967"><ele>155.0</ele><time>2026-04-04T14:42:47.101Z</time></trkpt><trkpt lat="44.8311533" lon="8.3624867"><ele>155.0</ele><time>2026-04-04T14:42:48.104Z</time></trkpt><trkpt lat="44.8311217" lon="8.36268"><ele>155.0</ele><time>2026-04-04T14:42:49.101Z</time></trkpt><trkpt lat="44.8310967" lon="8.36288"><ele>155.5</ele><time>2026-04-04T14:42:50.102Z</time></trkpt><trkpt lat="44.83108" lon="8.3630783"><ele>156.0</ele><time>2026-04-04T14:42:51.102Z</time></trkpt><trkpt lat="44.8310617" lon="8.36327"><ele>156.5</ele><time>2026-04-04T14:42:52.1Z</time></trkpt><trkpt lat="44.831055" lon="8.3634683"><ele>157.0</ele><time>2026-04-04T14:42:53.101Z</time></trkpt><trkpt lat="44.8310383" lon="8.3636533"><ele>157.0</ele><time>2026-04-04T14:42:54.103Z</time></trkpt><trkpt lat="44.8310317" lon="8.3638383"><ele>157.0</ele><time>2026-04-04T14:42:55.104Z</time></trkpt><trkpt lat="44.831025" lon="8.36402"><ele>157.0</ele><time>2026-04-04T14:42:56.104Z</time></trkpt><trkpt lat="44.83103" lon="8.3642067"><ele>157.0</ele><time>2026-04-04T14:42:57.102Z</time></trkpt><trkpt lat="44.8310467" lon="8.3643933"><ele>156.25</ele><time>2026-04-04T14:42:58.102Z</time></trkpt><trkpt lat="44.8310633" lon="8.3645733"><ele>155.5</ele><time>2026-04-04T14:42:59.107Z</time></trkpt><trkpt lat="44.83108" lon="8.3647433"><ele>154.75</ele><time>2026-04-04T14:43:00.104Z</time></trkpt><trkpt lat="44.8310933" lon="8.364895"><ele>154.0</ele><time>2026-04-04T14:43:01.105Z</time></trkpt><trkpt lat="44.831105" lon="8.36503"><ele>152.4</ele><time>2026-04-04T14:43:02.104Z</time></trkpt><trkpt lat="44.831115" lon="8.3651433"><ele>150.8</ele><time>2026-04-04T14:43:03.103Z</time></trkpt><trkpt lat="44.8311317" lon="8.3652883"><ele>149.2</ele><time>2026-04-04T14:43:05.103Z</time></trkpt><trkpt lat="44.8311417" lon="8.3653983"><ele>147.6</ele><time>2026-04-04T14:43:08.1Z</time></trkpt><trkpt lat="44.8311533" lon="8.3654983"><ele>146.0</ele><time>2026-04-04T14:43:10.103Z</time></trkpt><trkpt lat="44.8311783" lon="8.3656983"><ele>144.0</ele><time>2026-04-04T14:43:12.102Z</time></trkpt><trkpt lat="44.8311933" lon="8.365835"><ele>142.0</ele><time>2026-04-04T14:43:13.106Z</time></trkpt><trkpt lat="44.831215" lon="8.36601"><ele>140.0</ele><time>2026-04-04T14:43:14.103Z</time></trkpt><trkpt lat="44.8312467" lon="8.3662017"><ele>138.0</ele><time>2026-04-04T14:43:15.105Z</time></trkpt><trkpt lat="44.8312833" lon="8.3664117"><ele>135.0</ele><time>2026-04-04T14:43:16.105Z</time></trkpt><trkpt lat="44.8313267" lon="8.3666283"><ele>132.0</ele><time>2026-04-04T14:43:17.106Z</time></trkpt><trkpt lat="44.8313817" lon="8.3668667"><ele>129.0</ele><time>2026-04-04T14:43:18.102Z</time></trkpt><trkpt lat="44.83146" lon="8.3671117"><ele>127.0</ele><time>2026-04-04T14:43:19.105Z</time></trkpt><trkpt lat="44.8315533" lon="8.36736"><ele>125.0</ele><time>2026-04-04T14:43:20.102Z</time></trkpt><trkpt lat="44.831655" lon="8.3676083"><ele>123.0</ele><time>2026-04-04T14:43:21.103Z</time></trkpt><trkpt lat="44.8317567" lon="8.36786"><ele>127.0</ele><time>2026-04-04T14:43:22.104Z</time></trkpt><trkpt lat="44.8318583" lon="8.3681067"><ele>131.0</ele><time>2026-04-04T14:43:23.104Z</time></trkpt><trkpt lat="44.8319683" lon="8.3683483"><ele>135.0</ele><time>2026-04-04T14:43:24.103Z</time></trkpt><trkpt lat="44.83209" lon="8.3685783"><ele>135.0</ele><time>2026-04-04T14:43:25.108Z</time></trkpt><trkpt lat="44.8322283" lon="8.368795"><ele>135.0</ele><time>2026-04-04T14:43:26.099Z</time></trkpt><trkpt lat="44.832385" lon="8.3690017"><ele>135.0</ele><time>2026-04-04T14:43:27.104Z</time></trkpt><trkpt lat="44.832545" lon="8.3691983"><ele>134.33333333333334</ele><time>2026-04-04T14:43:28.1Z</time></trkpt><trkpt lat="44.8327183" lon="8.369395"><ele>133.66666666666669</ele><time>2026-04-04T14:43:29.102Z</time></trkpt><trkpt lat="44.8328633" lon="8.369595"><ele>133.0</ele><time>2026-04-04T14:43:30.101Z</time></trkpt><trkpt lat="44.8329983" lon="8.3698083"><ele>129.66666666666669</ele><time>2026-04-04T14:43:31.105Z</time></trkpt><trkpt lat="44.833125" lon="8.37004"><ele>126.33333333333334</ele><time>2026-04-04T14:43:32.099Z</time></trkpt><trkpt lat="44.8332433" lon="8.370285"><ele>123.0</ele><time>2026-04-04T14:43:33.101Z</time></trkpt><trkpt lat="44.83335" lon="8.370545"><ele>122.66666666666666</ele><time>2026-04-04T14:43:34.109Z</time></trkpt><trkpt lat="44.8334483" lon="8.3708133"><ele>122.33333333333333</ele><time>2026-04-04T14:43:35.102Z</time></trkpt><trkpt lat="44.833545" lon="8.37109"><ele>122.0</ele><time>2026-04-04T14:43:36.101Z</time></trkpt><trkpt lat="44.83364" lon="8.37137"><ele>121.0</ele><time>2026-04-04T14:43:37.106Z</time></trkpt><trkpt lat="44.8337433" lon="8.37165"><ele>120.0</ele><time>2026-04-04T14:43:38.103Z</time></trkpt><trkpt lat="44.833845" lon="8.3719333"><ele>119.0</ele><time>2026-04-04T14:43:39.104Z</time></trkpt><trkpt lat="44.8339467" lon="8.3722183"><ele>119.0</ele><time>2026-04-04T14:43:40.102Z</time></trkpt><trkpt lat="44.834045" lon="8.372505"><ele>119.0</ele><time>2026-04-04T14:43:41.106Z</time></trkpt><trkpt lat="44.8341433" lon="8.3727933"><ele>119.33333333333333</ele><time>2026-04-04T14:43:42.103Z</time></trkpt><trkpt lat="44.83424" lon="8.373075"><ele>119.66666666666666</ele><time>2026-04-04T14:43:43.101Z</time></trkpt><trkpt lat="44.8343333" lon="8.3733517"><ele>120.0</ele><time>2026-04-04T14:43:44.105Z</time></trkpt><trkpt lat="44.834425" lon="8.3736167"><ele>120.0</ele><time>2026-04-04T14:43:45.103Z</time></trkpt><trkpt lat="44.8345183" lon="8.37387"><ele>120.0</ele><time>2026-04-04T14:43:46.102Z</time></trkpt><trkpt lat="44.8346083" lon="8.37412"><ele>120.0</ele><time>2026-04-04T14:43:47.101Z</time></trkpt><trkpt lat="44.834695" lon="8.3743633"><ele>120.0</ele><time>2026-04-04T14:43:48.103Z</time></trkpt><trkpt lat="44.8347817" lon="8.3746033"><ele>120.0</ele><time>2026-04-04T14:43:49.106Z</time></trkpt><trkpt lat="44.8348667" lon="8.37484"><ele>120.0</ele><time>2026-04-04T14:43:50.1Z</time></trkpt><trkpt lat="44.8349483" lon="8.3750817"><ele>120.0</ele><time>2026-04-04T14:43:51.1Z</time></trkpt><trkpt lat="44.8350333" lon="8.3753233"><ele>120.0</ele><time>2026-04-04T14:43:52.101Z</time></trkpt><trkpt lat="44.8351217" lon="8.375565"><ele>120.0</ele><time>2026-04-04T14:43:53.099Z</time></trkpt><trkpt lat="44.83521" lon="8.375815"><ele>120.0</ele><time>2026-04-04T14:43:54.1Z</time></trkpt><trkpt lat="44.8353" lon="8.3760633"><ele>120.0</ele><time>2026-04-04T14:43:55.107Z</time></trkpt><trkpt lat="44.8353883" lon="8.3763183"><ele>120.0</ele><time>2026-04-04T14:43:56.103Z</time></trkpt><trkpt lat="44.8354783" lon="8.3765767"><ele>120.0</ele><time>2026-04-04T14:43:57.103Z</time></trkpt><trkpt lat="44.83557" lon="8.3768333"><ele>120.0</ele><time>2026-04-04T14:43:58.106Z</time></trkpt><trkpt lat="44.8356633" lon="8.3771"><ele>120.0</ele><time>2026-04-04T14:43:59.102Z</time></trkpt><trkpt lat="44.8357533" lon="8.377365"><ele>120.0</ele><time>2026-04-04T14:44:00.11Z</time></trkpt><trkpt lat="44.8358417" lon="8.377635"><ele>120.0</ele><time>2026-04-04T14:44:01.103Z</time></trkpt><trkpt lat="44.8359267" lon="8.3779083"><ele>120.0</ele><time>2026-04-04T14:44:02.102Z</time></trkpt><trkpt lat="44.8360033" lon="8.3781833"><ele>120.0</ele><time>2026-04-04T14:44:03.103Z</time></trkpt><trkpt lat="44.8360733" lon="8.37846"><ele>120.0</ele><time>2026-04-04T14:44:04.104Z</time></trkpt><trkpt lat="44.836135" lon="8.3787383"><ele>120.0</ele><time>2026-04-04T14:44:05.107Z</time></trkpt><trkpt lat="44.836195" lon="8.3790167"><ele>120.0</ele><time>2026-04-04T14:44:06.107Z</time></trkpt><trkpt lat="44.8362533" lon="8.3792917"><ele>120.0</ele><time>2026-04-04T14:44:07.102Z</time></trkpt><trkpt lat="44.83631" lon="8.3795633"><ele>120.0</ele><time>2026-04-04T14:44:08.102Z</time></trkpt><trkpt lat="44.8363717" lon="8.37983"><ele>119.66666666666666</ele><time>2026-04-04T14:44:09.101Z</time></trkpt><trkpt lat="44.83644" lon="8.3800867"><ele>119.33333333333333</ele><time>2026-04-04T14:44:10.106Z</time></trkpt><trkpt lat="44.8365133" lon="8.3803417"><ele>119.0</ele><time>2026-04-04T14:44:11.104Z</time></trkpt><trkpt lat="44.836595" lon="8.3805917"><ele>119.0</ele><time>2026-04-04T14:44:12.103Z</time></trkpt><trkpt lat="44.8366817" lon="8.3808333"><ele>119.0</ele><time>2026-04-04T14:44:13.105Z</time></trkpt><trkpt lat="44.836775" lon="8.3810667"><ele>119.0</ele><time>2026-04-04T14:44:14.104Z</time></trkpt><trkpt lat="44.8368733" lon="8.3813"><ele>118.66666666666666</ele><time>2026-04-04T14:44:15.109Z</time></trkpt><trkpt lat="44.83697" lon="8.3815333"><ele>118.33333333333334</ele><time>2026-04-04T14:44:16.106Z</time></trkpt><trkpt lat="44.83707" lon="8.381765"><ele>118.0</ele><time>2026-04-04T14:44:17.108Z</time></trkpt><trkpt lat="44.8371683" lon="8.3819967"><ele>118.33333333333334</ele><time>2026-04-04T14:44:18.105Z</time></trkpt><trkpt lat="44.8372683" lon="8.3822267"><ele>118.66666666666666</ele><time>2026-04-04T14:44:19.104Z</time></trkpt><trkpt lat="44.83737" lon="8.3824567"><ele>119.0</ele><time>2026-04-04T14:44:20.104Z</time></trkpt><trkpt lat="44.83747" lon="8.38269"><ele>119.0</ele><time>2026-04-04T14:44:21.102Z</time></trkpt><trkpt lat="44.83757" lon="8.38292"><ele>119.0</ele><time>2026-04-04T14:44:22.102Z</time></trkpt><trkpt lat="44.8376717" lon="8.3831517"><ele>119.0</ele><time>2026-04-04T14:44:23.103Z</time></trkpt><trkpt lat="44.83777" lon="8.3833783"><ele>119.66666666666666</ele><time>2026-04-04T14:44:24.103Z</time></trkpt><trkpt lat="44.837865" lon="8.3836017"><ele>120.33333333333334</ele><time>2026-04-04T14:44:25.098Z</time></trkpt><trkpt lat="44.8379533" lon="8.38382"><ele>121.0</ele><time>2026-04-04T14:44:26.101Z</time></trkpt><trkpt lat="44.8380417" lon="8.384035"><ele>121.0</ele><time>2026-04-04T14:44:27.105Z</time></trkpt><trkpt lat="44.83813" lon="8.3842433"><ele>121.0</ele><time>2026-04-04T14:44:28.103Z</time></trkpt><trkpt lat="44.8382183" lon="8.3844467"><ele>121.0</ele><time>2026-04-04T14:44:29.106Z</time></trkpt><trkpt lat="44.8383067" lon="8.38465"><ele>120.0</ele><time>2026-04-04T14:44:30.105Z</time></trkpt><trkpt lat="44.8383917" lon="8.38485"><ele>119.0</ele><time>2026-04-04T14:44:31.104Z</time></trkpt><trkpt lat="44.8384783" lon="8.3850517"><ele>118.0</ele><time>2026-04-04T14:44:32.103Z</time></trkpt><trkpt lat="44.8385633" lon="8.3852533"><ele>118.66666666666667</ele><time>2026-04-04T14:44:33.102Z</time></trkpt><trkpt lat="44.838645" lon="8.385465"><ele>119.33333333333334</ele><time>2026-04-04T14:44:34.103Z</time></trkpt><trkpt lat="44.8387233" lon="8.3856833"><ele>120.0</ele><time>2026-04-04T14:44:35.101Z</time></trkpt><trkpt lat="44.8387983" lon="8.385915"><ele>120.0</ele><time>2026-04-04T14:44:36.103Z</time></trkpt><trkpt lat="44.8388717" lon="8.3861517"><ele>120.0</ele><time>2026-04-04T14:44:37.105Z</time></trkpt><trkpt lat="44.83894" lon="8.3863933"><ele>120.0</ele><time>2026-04-04T14:44:38.113Z</time></trkpt><trkpt lat="44.83901" lon="8.3866417"><ele>119.66666666666666</ele><time>2026-04-04T14:44:39.101Z</time></trkpt><trkpt lat="44.8390783" lon="8.3868967"><ele>119.33333333333333</ele><time>2026-04-04T14:44:40.105Z</time></trkpt><trkpt lat="44.8391517" lon="8.387155"><ele>119.0</ele><time>2026-04-04T14:44:41.101Z</time></trkpt><trkpt lat="44.8392233" lon="8.3874183"><ele>121.33333333333333</ele><time>2026-04-04T14:44:42.102Z</time></trkpt><trkpt lat="44.8393017" lon="8.387685"><ele>123.66666666666666</ele><time>2026-04-04T14:44:43.104Z</time></trkpt><trkpt lat="44.8393883" lon="8.38795"><ele>126.0</ele><time>2026-04-04T14:44:44.102Z</time></trkpt><trkpt lat="44.8394883" lon="8.3882083"><ele>126.0</ele><time>2026-04-04T14:44:45.101Z</time></trkpt><trkpt lat="44.8396017" lon="8.3884567"><ele>126.0</ele><time>2026-04-04T14:44:46.106Z</time></trkpt><trkpt lat="44.8397267" lon="8.3886983"><ele>126.0</ele><time>2026-04-04T14:44:47.103Z</time></trkpt><trkpt lat="44.8398667" lon="8.3889267"><ele>126.33333333333334</ele><time>2026-04-04T14:44:48.103Z</time></trkpt><trkpt lat="44.8400167" lon="8.3891483"><ele>126.66666666666667</ele><time>2026-04-04T14:44:49.101Z</time></trkpt><trkpt lat="44.840175" lon="8.3893617"><ele>127.0</ele><time>2026-04-04T14:44:50.103Z</time></trkpt><trkpt lat="44.8403367" lon="8.3895783"><ele>126.0</ele><time>2026-04-04T14:44:51.099Z</time></trkpt><trkpt lat="44.8405" lon="8.3897933"><ele>125.0</ele><time>2026-04-04T14:44:52.104Z</time></trkpt><trkpt lat="44.8406633" lon="8.3900017"><ele>124.0</ele><time>2026-04-04T14:44:53.107Z</time></trkpt><trkpt lat="44.8408283" lon="8.39021"><ele>123.66666666666667</ele><time>2026-04-04T14:44:54.104Z</time></trkpt><trkpt lat="44.8409967" lon="8.3904067"><ele>123.33333333333334</ele><time>2026-04-04T14:44:55.107Z</time></trkpt><trkpt lat="44.8411717" lon="8.3905917"><ele>123.0</ele><time>2026-04-04T14:44:56.102Z</time></trkpt><trkpt lat="44.8413567" lon="8.39076"><ele>123.0</ele><time>2026-04-04T14:44:57.101Z</time></trkpt><trkpt lat="44.841545" lon="8.390915"><ele>123.0</ele><time>2026-04-04T14:44:58.105Z</time></trkpt><trkpt lat="44.8417383" lon="8.3910633"><ele>123.0</ele><time>2026-04-04T14:44:59.108Z</time></trkpt><trkpt lat="44.8419333" lon="8.39121"><ele>122.33333333333334</ele><time>2026-04-04T14:45:00.105Z</time></trkpt><trkpt lat="44.8421267" lon="8.391355"><ele>121.66666666666667</ele><time>2026-04-04T14:45:01.107Z</time></trkpt><trkpt lat="44.8423183" lon="8.3915067"><ele>121.0</ele><time>2026-04-04T14:45:02.104Z</time></trkpt><trkpt lat="44.8425117" lon="8.3916533"><ele>123.0</ele><time>2026-04-04T14:45:03.104Z</time></trkpt><trkpt lat="44.8427083" lon="8.3918"><ele>125.0</ele><time>2026-04-04T14:45:04.102Z</time></trkpt><trkpt lat="44.8429033" lon="8.391945"><ele>127.0</ele><time>2026-04-04T14:45:05.102Z</time></trkpt><trkpt lat="44.8430967" lon="8.392085"><ele>125.0</ele><time>2026-04-04T14:45:06.102Z</time></trkpt><trkpt lat="44.8432833" lon="8.392235"><ele>123.0</ele><time>2026-04-04T14:45:07.101Z</time></trkpt><trkpt lat="44.8434633" lon="8.3923933"><ele>121.0</ele><time>2026-04-04T14:45:08.103Z</time></trkpt><trkpt lat="44.843635" lon="8.392555"><ele>120.33333333333334</ele><time>2026-04-04T14:45:09.104Z</time></trkpt><trkpt lat="44.8437967" lon="8.3927317"><ele>119.66666666666666</ele><time>2026-04-04T14:45:10.1Z</time></trkpt><trkpt lat="44.8439517" lon="8.3929167"><ele>119.0</ele><time>2026-04-04T14:45:11.107Z</time></trkpt><trkpt lat="44.8440983" lon="8.39311"><ele>119.0</ele><time>2026-04-04T14:45:12.106Z</time></trkpt><trkpt lat="44.84424" lon="8.3933183"><ele>119.0</ele><time>2026-04-04T14:45:13.105Z</time></trkpt><trkpt lat="44.8443683" lon="8.39354"><ele>119.0</ele><time>2026-04-04T14:45:14.104Z</time></trkpt><trkpt lat="44.8444883" lon="8.3937683"><ele>118.66666666666666</ele><time>2026-04-04T14:45:15.118Z</time></trkpt><trkpt lat="44.8446017" lon="8.3940133"><ele>118.33333333333334</ele><time>2026-04-04T14:45:16.105Z</time></trkpt><trkpt lat="44.844715" lon="8.394255"><ele>118.0</ele><time>2026-04-04T14:45:17.107Z</time></trkpt><trkpt lat="44.8448267" lon="8.3944983"><ele>117.0</ele><time>2026-04-04T14:45:18.102Z</time></trkpt><trkpt lat="44.8449417" lon="8.394735"><ele>116.0</ele><time>2026-04-04T14:45:19.101Z</time></trkpt><trkpt lat="44.8450683" lon="8.3949583"><ele>115.0</ele><time>2026-04-04T14:45:20.106Z</time></trkpt><trkpt lat="44.8452017" lon="8.3951767"><ele>116.0</ele><time>2026-04-04T14:45:21.104Z</time></trkpt><trkpt lat="44.845335" lon="8.395395"><ele>117.0</ele><time>2026-04-04T14:45:22.102Z</time></trkpt><trkpt lat="44.845465" lon="8.3956133"><ele>118.0</ele><time>2026-04-04T14:45:23.107Z</time></trkpt><trkpt lat="44.8455933" lon="8.395835"><ele>118.0</ele><time>2026-04-04T14:45:24.102Z</time></trkpt><trkpt lat="44.8457233" lon="8.3960567"><ele>118.0</ele><time>2026-04-04T14:45:25.104Z</time></trkpt><trkpt lat="44.8458533" lon="8.396275"><ele>118.0</ele><time>2026-04-04T14:45:26.103Z</time></trkpt><trkpt lat="44.8459883" lon="8.3964917"><ele>118.33333333333334</ele><time>2026-04-04T14:45:27.101Z</time></trkpt><trkpt lat="44.846125" lon="8.3967"><ele>118.66666666666666</ele><time>2026-04-04T14:45:28.105Z</time></trkpt><trkpt lat="44.8462683" lon="8.396895"><ele>119.0</ele><time>2026-04-04T14:45:29.101Z</time></trkpt><trkpt lat="44.8464133" lon="8.397085"><ele>118.66666666666666</ele><time>2026-04-04T14:45:30.106Z</time></trkpt><trkpt lat="44.846565" lon="8.3972667"><ele>118.33333333333334</ele><time>2026-04-04T14:45:31.101Z</time></trkpt><trkpt lat="44.8467183" lon="8.3974417"><ele>118.0</ele><time>2026-04-04T14:45:32.104Z</time></trkpt><trkpt lat="44.8468783" lon="8.3975983"><ele>118.0</ele><time>2026-04-04T14:45:33.106Z</time></trkpt><trkpt lat="44.847045" lon="8.39773"><ele>118.0</ele><time>2026-04-04T14:45:34.105Z</time></trkpt><trkpt lat="44.8472117" lon="8.397825"><ele>118.0</ele><time>2026-04-04T14:45:35.108Z</time></trkpt><trkpt lat="44.847385" lon="8.3978767"><ele>118.0</ele><time>2026-04-04T14:45:36.103Z</time></trkpt><trkpt lat="44.8475633" lon="8.3979"><ele>118.0</ele><time>2026-04-04T14:45:37.098Z</time></trkpt><trkpt lat="44.847735" lon="8.3979283"><ele>118.0</ele><time>2026-04-04T14:45:38.104Z</time></trkpt><trkpt lat="44.8479017" lon="8.3979917"><ele>117.0</ele><time>2026-04-04T14:45:39.101Z</time></trkpt><trkpt lat="44.8480633" lon="8.3980883"><ele>116.0</ele><time>2026-04-04T14:45:40.1Z</time></trkpt><trkpt lat="44.8482067" lon="8.39824"><ele>115.0</ele><time>2026-04-04T14:45:41.101Z</time></trkpt><trkpt lat="44.84835" lon="8.398415"><ele>115.0</ele><time>2026-04-04T14:45:42.103Z</time></trkpt><trkpt lat="44.8484967" lon="8.3986033"><ele>115.0</ele><time>2026-04-04T14:45:43.102Z</time></trkpt><trkpt lat="44.8486467" lon="8.3987983"><ele>115.0</ele><time>2026-04-04T14:45:44.101Z</time></trkpt><trkpt lat="44.8488" lon="8.3989983"><ele>115.0</ele><time>2026-04-04T14:45:45.101Z</time></trkpt><trkpt lat="44.8489517" lon="8.3991883"><ele>115.0</ele><time>2026-04-04T14:45:46.102Z</time></trkpt><trkpt lat="44.8491067" lon="8.3993717"><ele>115.0</ele><time>2026-04-04T14:45:47.106Z</time></trkpt><trkpt lat="44.8492617" lon="8.3995467"><ele>116.66666666666667</ele><time>2026-04-04T14:45:48.103Z</time></trkpt><trkpt lat="44.8494233" lon="8.399715"><ele>118.33333333333334</ele><time>2026-04-04T14:45:49.102Z</time></trkpt><trkpt lat="44.8495867" lon="8.3998783"><ele>120.0</ele><time>2026-04-04T14:45:50.104Z</time></trkpt><trkpt lat="44.8497483" lon="8.40004"><ele>120.0</ele><time>2026-04-04T14:45:51.105Z</time></trkpt><trkpt lat="44.84991" lon="8.4002017"><ele>120.0</ele><time>2026-04-04T14:45:52.103Z</time></trkpt><trkpt lat="44.85007" lon="8.4003533"><ele>120.0</ele><time>2026-04-04T14:45:53.104Z</time></trkpt><trkpt lat="44.8502233" lon="8.4004883"><ele>119.0</ele><time>2026-04-04T14:45:54.105Z</time></trkpt><trkpt lat="44.8503583" lon="8.4006367"><ele>118.0</ele><time>2026-04-04T14:45:55.104Z</time></trkpt><trkpt lat="44.850485" lon="8.40078"><ele>117.0</ele><time>2026-04-04T14:45:56.1Z</time></trkpt><trkpt lat="44.8505883" lon="8.4009617"><ele>117.0</ele><time>2026-04-04T14:45:57.107Z</time></trkpt><trkpt lat="44.8506783" lon="8.401165"><ele>117.0</ele><time>2026-04-04T14:45:58.107Z</time></trkpt><trkpt lat="44.8507617" lon="8.4013817"><ele>117.0</ele><time>2026-04-04T14:45:59.107Z</time></trkpt><trkpt lat="44.8508417" lon="8.4015983"><ele>117.66666666666666</ele><time>2026-04-04T14:46:00.104Z</time></trkpt><trkpt lat="44.8509167" lon="8.401815"><ele>118.33333333333333</ele><time>2026-04-04T14:46:01.104Z</time></trkpt><trkpt lat="44.85098" lon="8.4020333"><ele>119.0</ele><time>2026-04-04T14:46:02.102Z</time></trkpt><trkpt lat="44.8510317" lon="8.4022433"><ele>119.0</ele><time>2026-04-04T14:46:03.103Z</time></trkpt><trkpt lat="44.85108" lon="8.402445"><ele>119.0</ele><time>2026-04-04T14:46:04.1Z</time></trkpt><trkpt lat="44.8511417" lon="8.4026383"><ele>119.0</ele><time>2026-04-04T14:46:05.103Z</time></trkpt><trkpt lat="44.851215" lon="8.4028217"><ele>119.0</ele><time>2026-04-04T14:46:06.107Z</time></trkpt><trkpt lat="44.851305" lon="8.4029883"><ele>119.0</ele><time>2026-04-04T14:46:07.101Z</time></trkpt><trkpt lat="44.8514167" lon="8.4031433"><ele>119.0</ele><time>2026-04-04T14:46:08.101Z</time></trkpt><trkpt lat="44.8515333" lon="8.40329"><ele>119.0</ele><time>2026-04-04T14:46:09.1Z</time></trkpt><trkpt lat="44.8516533" lon="8.4034267"><ele>119.0</ele><time>2026-04-04T14:46:10.102Z</time></trkpt><trkpt lat="44.8517767" lon="8.40356"><ele>119.0</ele><time>2026-04-04T14:46:11.101Z</time></trkpt><trkpt lat="44.8519" lon="8.4036917"><ele>119.0</ele><time>2026-04-04T14:46:12.103Z</time></trkpt><trkpt lat="44.8520267" lon="8.4038217"><ele>119.0</ele><time>2026-04-04T14:46:13.103Z</time></trkpt><trkpt lat="44.8521533" lon="8.4039533"><ele>119.0</ele><time>2026-04-04T14:46:14.102Z</time></trkpt><trkpt lat="44.8522783" lon="8.4040867"><ele>119.66666666666666</ele><time>2026-04-04T14:46:15.103Z</time></trkpt><trkpt lat="44.8524067" lon="8.4042233"><ele>120.33333333333334</ele><time>2026-04-04T14:46:16.103Z</time></trkpt><trkpt lat="44.8525367" lon="8.40436"><ele>121.0</ele><time>2026-04-04T14:46:17.104Z</time></trkpt><trkpt lat="44.85267" lon="8.4044983"><ele>121.0</ele><time>2026-04-04T14:46:18.105Z</time></trkpt><trkpt lat="44.852805" lon="8.404635"><ele>121.0</ele><time>2026-04-04T14:46:19.104Z</time></trkpt><trkpt lat="44.8529383" lon="8.4047833"><ele>121.0</ele><time>2026-04-04T14:46:20.105Z</time></trkpt><trkpt lat="44.8530667" lon="8.4049417"><ele>118.33333333333334</ele><time>2026-04-04T14:46:21.103Z</time></trkpt><trkpt lat="44.853185" lon="8.40512"><ele>115.66666666666666</ele><time>2026-04-04T14:46:22.102Z</time></trkpt><trkpt lat="44.8533" lon="8.4053183"><ele>113.0</ele><time>2026-04-04T14:46:23.108Z</time></trkpt><trkpt lat="44.8534133" lon="8.4055167"><ele>114.33333333333333</ele><time>2026-04-04T14:46:24.103Z</time></trkpt><trkpt lat="44.8535267" lon="8.4057167"><ele>115.66666666666666</ele><time>2026-04-04T14:46:25.104Z</time></trkpt><trkpt lat="44.853635" lon="8.4059083"><ele>117.0</ele><time>2026-04-04T14:46:26.104Z</time></trkpt><trkpt lat="44.85374" lon="8.40609"><ele>117.0</ele><time>2026-04-04T14:46:27.102Z</time></trkpt><trkpt lat="44.8538483" lon="8.4062567"><ele>117.0</ele><time>2026-04-04T14:46:28.105Z</time></trkpt><trkpt lat="44.853965" lon="8.4064083"><ele>117.0</ele><time>2026-04-04T14:46:29.102Z</time></trkpt><trkpt lat="44.854095" lon="8.4065417"><ele>114.66666666666666</ele><time>2026-04-04T14:46:30.1Z</time></trkpt><trkpt lat="44.8542433" lon="8.406645"><ele>112.33333333333333</ele><time>2026-04-04T14:46:31.103Z</time></trkpt><trkpt lat="44.8543917" lon="8.406745"><ele>110.0</ele><time>2026-04-04T14:46:32.103Z</time></trkpt><trkpt lat="44.85454" lon="8.4068517"><ele>109.33333333333333</ele><time>2026-04-04T14:46:33.102Z</time></trkpt><trkpt lat="44.85468" lon="8.40698"><ele>108.66666666666666</ele><time>2026-04-04T14:46:34.101Z</time></trkpt><trkpt lat="44.8548067" lon="8.4071333"><ele>108.0</ele><time>2026-04-04T14:46:35.102Z</time></trkpt><trkpt lat="44.8549083" lon="8.4073133"><ele>108.0</ele><time>2026-04-04T14:46:36.103Z</time></trkpt><trkpt lat="44.8550033" lon="8.4075067"><ele>108.0</ele><time>2026-04-04T14:46:37.101Z</time></trkpt><trkpt lat="44.8551033" lon="8.4077"><ele>108.0</ele><time>2026-04-04T14:46:38.1Z</time></trkpt><trkpt lat="44.8552083" lon="8.4078867"><ele>107.66666666666666</ele><time>2026-04-04T14:46:39.1Z</time></trkpt><trkpt lat="44.8553233" lon="8.408065"><ele>107.33333333333333</ele><time>2026-04-04T14:46:40.106Z</time></trkpt><trkpt lat="44.8554483" lon="8.4082317"><ele>107.0</ele><time>2026-04-04T14:46:41.106Z</time></trkpt><trkpt lat="44.8555817" lon="8.4083933"><ele>107.0</ele><time>2026-04-04T14:46:42.102Z</time></trkpt><trkpt lat="44.8557183" lon="8.408555"><ele>107.0</ele><time>2026-04-04T14:46:43.102Z</time></trkpt><trkpt lat="44.8558583" lon="8.40872"><ele>107.0</ele><time>2026-04-04T14:46:44.104Z</time></trkpt><trkpt lat="44.8560033" lon="8.408875"><ele>107.66666666666666</ele><time>2026-04-04T14:46:45.102Z</time></trkpt><trkpt lat="44.856145" lon="8.4090367"><ele>108.33333333333334</ele><time>2026-04-04T14:46:46.101Z</time></trkpt><trkpt lat="44.85629" lon="8.4091983"><ele>109.0</ele><time>2026-04-04T14:46:47.101Z</time></trkpt><trkpt lat="44.856435" lon="8.40936"><ele>109.0</ele><time>2026-04-04T14:46:48.102Z</time></trkpt><trkpt lat="44.8565817" lon="8.4095233"><ele>109.0</ele><time>2026-04-04T14:46:49.103Z</time></trkpt><trkpt lat="44.8567233" lon="8.40969"><ele>109.0</ele><time>2026-04-04T14:46:50.104Z</time></trkpt><trkpt lat="44.85687" lon="8.4098517"><ele>109.66666666666667</ele><time>2026-04-04T14:46:51.104Z</time></trkpt><trkpt lat="44.8570167" lon="8.4100167"><ele>110.33333333333334</ele><time>2026-04-04T14:46:52.107Z</time></trkpt><trkpt lat="44.8571683" lon="8.4101717"><ele>111.0</ele><time>2026-04-04T14:46:53.103Z</time></trkpt><trkpt lat="44.857325" lon="8.41032"><ele>111.0</ele><time>2026-04-04T14:46:54.102Z</time></trkpt><trkpt lat="44.8574867" lon="8.4104633"><ele>111.0</ele><time>2026-04-04T14:46:55.101Z</time></trkpt><trkpt lat="44.8576467" lon="8.4106067"><ele>111.0</ele><time>2026-04-04T14:46:56.1Z</time></trkpt><trkpt lat="44.85781" lon="8.4107417"><ele>110.33333333333334</ele><time>2026-04-04T14:46:57.101Z</time></trkpt><trkpt lat="44.8579783" lon="8.41087"><ele>109.66666666666667</ele><time>2026-04-04T14:46:58.103Z</time></trkpt><trkpt lat="44.8581433" lon="8.4109983"><ele>109.0</ele><time>2026-04-04T14:46:59.105Z</time></trkpt><trkpt lat="44.85831" lon="8.4111267"><ele>110.0</ele><time>2026-04-04T14:47:00.104Z</time></trkpt><trkpt lat="44.8584767" lon="8.4112483"><ele>111.0</ele><time>2026-04-04T14:47:01.108Z</time></trkpt><trkpt lat="44.85864" lon="8.411375"><ele>112.0</ele><time>2026-04-04T14:47:02.099Z</time></trkpt><trkpt lat="44.8588033" lon="8.4114967"><ele>112.0</ele><time>2026-04-04T14:47:03.103Z</time></trkpt><trkpt lat="44.85896" lon="8.4116233"><ele>112.0</ele><time>2026-04-04T14:47:04.101Z</time></trkpt><trkpt lat="44.8591083" lon="8.4117633"><ele>112.0</ele><time>2026-04-04T14:47:05.101Z</time></trkpt><trkpt lat="44.8592483" lon="8.4119167"><ele>111.33333333333334</ele><time>2026-04-04T14:47:06.101Z</time></trkpt><trkpt lat="44.8593833" lon="8.412085"><ele>110.66666666666666</ele><time>2026-04-04T14:47:07.099Z</time></trkpt><trkpt lat="44.85951" lon="8.412255"><ele>110.0</ele><time>2026-04-04T14:47:08.102Z</time></trkpt><trkpt lat="44.8596367" lon="8.41242"><ele>110.0</ele><time>2026-04-04T14:47:09.102Z</time></trkpt><trkpt lat="44.8597617" lon="8.4125767"><ele>110.0</ele><time>2026-04-04T14:47:10.103Z</time></trkpt><trkpt lat="44.8598867" lon="8.4127267"><ele>110.0</ele><time>2026-04-04T14:47:11.105Z</time></trkpt><trkpt lat="44.8600133" lon="8.41287"><ele>110.0</ele><time>2026-04-04T14:47:12.102Z</time></trkpt><trkpt lat="44.8601417" lon="8.413005"><ele>110.0</ele><time>2026-04-04T14:47:13.102Z</time></trkpt><trkpt lat="44.8602717" lon="8.413135"><ele>110.0</ele><time>2026-04-04T14:47:14.103Z</time></trkpt><trkpt lat="44.8604" lon="8.413265"><ele>110.0</ele><time>2026-04-04T14:47:15.1Z</time></trkpt><trkpt lat="44.8605317" lon="8.4133833"><ele>110.0</ele><time>2026-04-04T14:47:16.101Z</time></trkpt><trkpt lat="44.8606583" lon="8.4134933"><ele>110.0</ele><time>2026-04-04T14:47:17.101Z</time></trkpt><trkpt lat="44.8607933" lon="8.4135883"><ele>110.0</ele><time>2026-04-04T14:47:18.105Z</time></trkpt><trkpt lat="44.8609333" lon="8.4136817"><ele>110.0</ele><time>2026-04-04T14:47:19.102Z</time></trkpt><trkpt lat="44.8610767" lon="8.4137567"><ele>110.0</ele><time>2026-04-04T14:47:20.103Z</time></trkpt><trkpt lat="44.8612267" lon="8.41382"><ele>109.33333333333333</ele><time>2026-04-04T14:47:21.102Z</time></trkpt><trkpt lat="44.8613883" lon="8.4138633"><ele>108.66666666666666</ele><time>2026-04-04T14:47:22.103Z</time></trkpt><trkpt lat="44.8615533" lon="8.4139133"><ele>108.0</ele><time>2026-04-04T14:47:23.113Z</time></trkpt><trkpt lat="44.8617117" lon="8.4139767"><ele>109.0</ele><time>2026-04-04T14:47:24.105Z</time></trkpt><trkpt lat="44.8618683" lon="8.414055"><ele>110.0</ele><time>2026-04-04T14:47:25.107Z</time></trkpt><trkpt lat="44.8620267" lon="8.4141467"><ele>111.0</ele><time>2026-04-04T14:47:26.103Z</time></trkpt><trkpt lat="44.8621867" lon="8.4142517"><ele>111.0</ele><time>2026-04-04T14:47:27.101Z</time></trkpt><trkpt lat="44.862345" lon="8.4143617"><ele>111.0</ele><time>2026-04-04T14:47:28.101Z</time></trkpt><trkpt lat="44.8625017" lon="8.4144783"><ele>111.0</ele><time>2026-04-04T14:47:29.108Z</time></trkpt><trkpt lat="44.8626633" lon="8.4145867"><ele>110.0</ele><time>2026-04-04T14:47:30.103Z</time></trkpt><trkpt lat="44.8628233" lon="8.4147"><ele>109.0</ele><time>2026-04-04T14:47:31.104Z</time></trkpt><trkpt lat="44.8629867" lon="8.4148117"><ele>108.0</ele><time>2026-04-04T14:47:32.101Z</time></trkpt><trkpt lat="44.8631483" lon="8.4149267"><ele>108.0</ele><time>2026-04-04T14:47:33.097Z</time></trkpt><trkpt lat="44.8633083" lon="8.4150433"><ele>108.0</ele><time>2026-04-04T14:47:34.103Z</time></trkpt><trkpt lat="44.863465" lon="8.41517"><ele>108.0</ele><time>2026-04-04T14:47:35.103Z</time></trkpt><trkpt lat="44.8636167" lon="8.4153"><ele>108.0</ele><time>2026-04-04T14:47:36.101Z</time></trkpt><trkpt lat="44.8637683" lon="8.4154267"><ele>108.0</ele><time>2026-04-04T14:47:37.106Z</time></trkpt><trkpt lat="44.863925" lon="8.4155517"><ele>108.0</ele><time>2026-04-04T14:47:38.105Z</time></trkpt><trkpt lat="44.86408" lon="8.4156733"><ele>108.0</ele><time>2026-04-04T14:47:39.1Z</time></trkpt><trkpt lat="44.8642283" lon="8.415795"><ele>108.0</ele><time>2026-04-04T14:47:40.1Z</time></trkpt><trkpt lat="44.8643733" lon="8.4159133"><ele>108.0</ele><time>2026-04-04T14:47:41.101Z</time></trkpt><trkpt lat="44.8645183" lon="8.4160283"><ele>108.0</ele><time>2026-04-04T14:47:42.101Z</time></trkpt><trkpt lat="44.864655" lon="8.4161383"><ele>108.0</ele><time>2026-04-04T14:47:43.103Z</time></trkpt><trkpt lat="44.8647933" lon="8.4162383"><ele>108.0</ele><time>2026-04-04T14:47:44.101Z</time></trkpt><trkpt lat="44.8649383" lon="8.41633"><ele>106.66666666666666</ele><time>2026-04-04T14:47:45.104Z</time></trkpt><trkpt lat="44.86509" lon="8.41641"><ele>105.33333333333333</ele><time>2026-04-04T14:47:46.104Z</time></trkpt><trkpt lat="44.8652517" lon="8.41646"><ele>104.0</ele><time>2026-04-04T14:47:47.104Z</time></trkpt><trkpt lat="44.86542" lon="8.4164733"><ele>103.66666666666666</ele><time>2026-04-04T14:47:48.107Z</time></trkpt><trkpt lat="44.8655883" lon="8.4164633"><ele>103.33333333333334</ele><time>2026-04-04T14:47:49.102Z</time></trkpt><trkpt lat="44.8657617" lon="8.416445"><ele>103.0</ele><time>2026-04-04T14:47:50.102Z</time></trkpt><trkpt lat="44.8659367" lon="8.4164283"><ele>104.0</ele><time>2026-04-04T14:47:51.1Z</time></trkpt><trkpt lat="44.8661183" lon="8.41641"><ele>105.0</ele><time>2026-04-04T14:47:52.104Z</time></trkpt><trkpt lat="44.86631" lon="8.41637"><ele>106.0</ele><time>2026-04-04T14:47:53.107Z</time></trkpt><trkpt lat="44.8664967" lon="8.4163433"><ele>106.0</ele><time>2026-04-04T14:47:54.1Z</time></trkpt><trkpt lat="44.86668" lon="8.4163283"><ele>106.0</ele><time>2026-04-04T14:47:55.103Z</time></trkpt><trkpt lat="44.8668633" lon="8.416325"><ele>106.0</ele><time>2026-04-04T14:47:56.102Z</time></trkpt><trkpt lat="44.8670283" lon="8.4163383"><ele>105.66666666666667</ele><time>2026-04-04T14:47:57.104Z</time></trkpt><trkpt lat="44.86718" lon="8.4163767"><ele>105.33333333333334</ele><time>2026-04-04T14:47:58.103Z</time></trkpt><trkpt lat="44.867325" lon="8.4164417"><ele>105.0</ele><time>2026-04-04T14:47:59.104Z</time></trkpt><trkpt lat="44.8674617" lon="8.416525"><ele>105.0</ele><time>2026-04-04T14:48:00.105Z</time></trkpt><trkpt lat="44.8675833" lon="8.4166283"><ele>105.0</ele><time>2026-04-04T14:48:01.1Z</time></trkpt><trkpt lat="44.8677133" lon="8.41674"><ele>105.0</ele><time>2026-04-04T14:48:02.1Z</time></trkpt><trkpt lat="44.86784" lon="8.416855"><ele>105.0</ele><time>2026-04-04T14:48:03.103Z</time></trkpt><trkpt lat="44.8679667" lon="8.4169783"><ele>104.66666666666666</ele><time>2026-04-04T14:48:04.1Z</time></trkpt><trkpt lat="44.8680967" lon="8.41708"><ele>104.33333333333333</ele><time>2026-04-04T14:48:05.107Z</time></trkpt><trkpt lat="44.8682433" lon="8.417145"><ele>104.0</ele><time>2026-04-04T14:48:06.102Z</time></trkpt><trkpt lat="44.8683917" lon="8.4171967"><ele>104.5</ele><time>2026-04-04T14:48:07.107Z</time></trkpt><trkpt lat="44.8685383" lon="8.4172433"><ele>105.0</ele><time>2026-04-04T14:48:08.102Z</time></trkpt><trkpt lat="44.868675" lon="8.417295"><ele>105.5</ele><time>2026-04-04T14:48:09.109Z</time></trkpt><trkpt lat="44.8688033" lon="8.417335"><ele>106.0</ele><time>2026-04-04T14:48:10.104Z</time></trkpt><trkpt lat="44.868905" lon="8.4173717"><ele>106.00000000000001</ele><time>2026-04-04T14:48:11.1Z</time></trkpt><trkpt lat="44.86898" lon="8.41741"><ele>106.0</ele><time>2026-04-04T14:48:12.103Z</time></trkpt><trkpt lat="44.86904" lon="8.4174417"><ele>106.0</ele><time>2026-04-04T14:48:13.101Z</time></trkpt><trkpt lat="44.8691017" lon="8.4174783"><ele>106.0</ele><time>2026-04-04T14:48:15.1Z</time></trkpt><trkpt lat="44.86917" lon="8.417465"><ele>106.00000000000001</ele><time>2026-04-04T14:48:17.104Z</time></trkpt><trkpt lat="44.8692383" lon="8.4173483"><ele>106.0</ele><time>2026-04-04T14:48:19.103Z</time></trkpt><trkpt lat="44.8692717" lon="8.4172333"><ele>105.6</ele><time>2026-04-04T14:48:20.103Z</time></trkpt><trkpt lat="44.8693033" lon="8.417115"><ele>105.19999999999999</ele><time>2026-04-04T14:48:21.106Z</time></trkpt><trkpt lat="44.8693333" lon="8.4169567"><ele>104.80000000000001</ele><time>2026-04-04T14:48:22.102Z</time></trkpt><trkpt lat="44.86937" lon="8.4167967"><ele>104.4</ele><time>2026-04-04T14:48:23.106Z</time></trkpt><trkpt lat="44.8694083" lon="8.416635"><ele>104.0</ele><time>2026-04-04T14:48:24.102Z</time></trkpt><trkpt lat="44.8694483" lon="8.4164633"><ele>104.25</ele><time>2026-04-04T14:48:25.105Z</time></trkpt><trkpt lat="44.8694883" lon="8.4162883"><ele>104.5</ele><time>2026-04-04T14:48:26.101Z</time></trkpt><trkpt lat="44.86953" lon="8.416105"><ele>104.75</ele><time>2026-04-04T14:48:27.103Z</time></trkpt><trkpt lat="44.8695767" lon="8.4159183"><ele>105.0</ele><time>2026-04-04T14:48:28.103Z</time></trkpt><trkpt lat="44.869625" lon="8.4157217"><ele>105.0</ele><time>2026-04-04T14:48:29.1Z</time></trkpt><trkpt lat="44.8696733" lon="8.4155183"><ele>105.0</ele><time>2026-04-04T14:48:30.099Z</time></trkpt><trkpt lat="44.869725" lon="8.41532"><ele>105.0</ele><time>2026-04-04T14:48:31.102Z</time></trkpt><trkpt lat="44.8697783" lon="8.41513"><ele>105.0</ele><time>2026-04-04T14:48:32.101Z</time></trkpt><trkpt lat="44.8698267" lon="8.4149417"><ele>105.25</ele><time>2026-04-04T14:48:33.102Z</time></trkpt><trkpt lat="44.86988" lon="8.4147533"><ele>105.5</ele><time>2026-04-04T14:48:34.1Z</time></trkpt><trkpt lat="44.8699417" lon="8.414575"><ele>105.75</ele><time>2026-04-04T14:48:35.1Z</time></trkpt><trkpt lat="44.8700133" lon="8.414405"><ele>106.0</ele><time>2026-04-04T14:48:36.101Z</time></trkpt><trkpt lat="44.8700967" lon="8.4142433"><ele>105.5</ele><time>2026-04-04T14:48:37.099Z</time></trkpt><trkpt lat="44.8701817" lon="8.414085"><ele>105.0</ele><time>2026-04-04T14:48:38.101Z</time></trkpt><trkpt lat="44.870275" lon="8.4139267"><ele>104.5</ele><time>2026-04-04T14:48:39.104Z</time></trkpt><trkpt lat="44.8703733" lon="8.41377"><ele>104.0</ele><time>2026-04-04T14:48:40.105Z</time></trkpt><trkpt lat="44.8704667" lon="8.4136133"><ele>104.0</ele><time>2026-04-04T14:48:41.101Z</time></trkpt><trkpt lat="44.870555" lon="8.4134583"><ele>104.0</ele><time>2026-04-04T14:48:42.102Z</time></trkpt><trkpt lat="44.87064" lon="8.41331"><ele>104.0</ele><time>2026-04-04T14:48:43.102Z</time></trkpt><trkpt lat="44.8707217" lon="8.413165"><ele>104.0</ele><time>2026-04-04T14:48:44.104Z</time></trkpt><trkpt lat="44.8707917" lon="8.4130267"><ele>104.2</ele><time>2026-04-04T14:48:45.1Z</time></trkpt><trkpt lat="44.8708633" lon="8.4128967"><ele>104.4</ele><time>2026-04-04T14:48:46.101Z</time></trkpt><trkpt lat="44.8709267" lon="8.4127717"><ele>104.6</ele><time>2026-04-04T14:48:47.103Z</time></trkpt><trkpt lat="44.8709783" lon="8.4126433"><ele>104.8</ele><time>2026-04-04T14:48:48.105Z</time></trkpt><trkpt lat="44.871005" lon="8.4125017"><ele>105.0</ele><time>2026-04-04T14:48:49.101Z</time></trkpt><trkpt lat="44.8710067" lon="8.412345"><ele>104.75</ele><time>2026-04-04T14:48:50.101Z</time></trkpt><trkpt lat="44.8709917" lon="8.412185"><ele>104.5</ele><time>2026-04-04T14:48:51.104Z</time></trkpt><trkpt lat="44.8709617" lon="8.41202"><ele>104.25</ele><time>2026-04-04T14:48:52.103Z</time></trkpt><trkpt lat="44.8709233" lon="8.4118517"><ele>104.0</ele><time>2026-04-04T14:48:53.105Z</time></trkpt><trkpt lat="44.870885" lon="8.41168"><ele>104.80000000000001</ele><time>2026-04-04T14:48:54.101Z</time></trkpt><trkpt lat="44.8708483" lon="8.4115183"><ele>105.60000000000001</ele><time>2026-04-04T14:48:55.107Z</time></trkpt><trkpt lat="44.8708167" lon="8.4113717"><ele>106.4</ele><time>2026-04-04T14:48:56.102Z</time></trkpt><trkpt lat="44.8707883" lon="8.411245"><ele>107.2</ele><time>2026-04-04T14:48:57.101Z</time></trkpt><trkpt lat="44.87076" lon="8.41113"><ele>108.0</ele><time>2026-04-04T14:48:58.1Z</time></trkpt><trkpt lat="44.8707467" lon="8.4110283"><ele>108.0</ele><time>2026-04-04T14:48:59.101Z</time></trkpt><trkpt lat="44.8707367" lon="8.410935"><ele>108.00000000000001</ele><time>2026-04-04T14:49:00.1Z</time></trkpt><trkpt lat="44.8707517" lon="8.4107917"><ele>108.00000000000001</ele><time>2026-04-04T14:49:02.103Z</time></trkpt><trkpt lat="44.87086" lon="8.410735"><ele>108.0</ele><time>2026-04-04T14:49:04.103Z</time></trkpt><trkpt lat="44.870975" lon="8.41073"><ele>108.0</ele><time>2026-04-04T14:49:05.1Z</time></trkpt><trkpt lat="44.8711" lon="8.410715"><ele>106.0</ele><time>2026-04-04T14:49:06.103Z</time></trkpt><trkpt lat="44.871235" lon="8.4106967"><ele>104.0</ele><time>2026-04-04T14:49:07.101Z</time></trkpt><trkpt lat="44.8713667" lon="8.4106667"><ele>102.0</ele><time>2026-04-04T14:49:08.103Z</time></trkpt><trkpt lat="44.87151" lon="8.4106417"><ele>100.0</ele><time>2026-04-04T14:49:09.104Z</time></trkpt><trkpt lat="44.8716467" lon="8.41061"><ele>99.5</ele><time>2026-04-04T14:49:10.102Z</time></trkpt><trkpt lat="44.871785" lon="8.410575"><ele>99.0</ele><time>2026-04-04T14:49:11.102Z</time></trkpt><trkpt lat="44.871925" lon="8.4105467"><ele>98.5</ele><time>2026-04-04T14:49:12.099Z</time></trkpt><trkpt lat="44.87206" lon="8.41052"><ele>98.0</ele><time>2026-04-04T14:49:13.109Z</time></trkpt><trkpt lat="44.8721883" lon="8.4104917"><ele>98.0</ele><time>2026-04-04T14:49:14.099Z</time></trkpt><trkpt lat="44.8723217" lon="8.41046"><ele>98.0</ele><time>2026-04-04T14:49:15.102Z</time></trkpt><trkpt lat="44.8724517" lon="8.4104283"><ele>98.0</ele><time>2026-04-04T14:49:16.098Z</time></trkpt><trkpt lat="44.872585" lon="8.4103917"><ele>98.0</ele><time>2026-04-04T14:49:17.098Z</time></trkpt><trkpt lat="44.8727267" lon="8.4103483"><ele>98.33333333333333</ele><time>2026-04-04T14:49:18.1Z</time></trkpt><trkpt lat="44.872875" lon="8.4103117"><ele>98.66666666666666</ele><time>2026-04-04T14:49:19.101Z</time></trkpt><trkpt lat="44.87303" lon="8.4102717"><ele>99.0</ele><time>2026-04-04T14:49:20.105Z</time></trkpt><trkpt lat="44.8731867" lon="8.4102283"><ele>99.0</ele><time>2026-04-04T14:49:21.1Z</time></trkpt><trkpt lat="44.8733483" lon="8.4101917"><ele>99.0</ele><time>2026-04-04T14:49:22.105Z</time></trkpt><trkpt lat="44.8735083" lon="8.4101567"><ele>99.0</ele><time>2026-04-04T14:49:23.1Z</time></trkpt><trkpt lat="44.87368" lon="8.4101167"><ele>99.0</ele><time>2026-04-04T14:49:24.102Z</time></trkpt><trkpt lat="44.873855" lon="8.4100767"><ele>99.0</ele><time>2026-04-04T14:49:25.106Z</time></trkpt><trkpt lat="44.8740317" lon="8.410035"><ele>99.0</ele><time>2026-04-04T14:49:26.105Z</time></trkpt><trkpt lat="44.8742133" lon="8.4099933"><ele>99.0</ele><time>2026-04-04T14:49:27.103Z</time></trkpt><trkpt lat="44.874395" lon="8.4099533"><ele>99.0</ele><time>2026-04-04T14:49:28.099Z</time></trkpt><trkpt lat="44.874575" lon="8.4099033"><ele>99.0</ele><time>2026-04-04T14:49:29.103Z</time></trkpt><trkpt lat="44.8747567" lon="8.4098517"><ele>99.0</ele><time>2026-04-04T14:49:30.104Z</time></trkpt><trkpt lat="44.8749433" lon="8.4098"><ele>99.0</ele><time>2026-04-04T14:49:31.107Z</time></trkpt><trkpt lat="44.87513" lon="8.4097467"><ele>99.0</ele><time>2026-04-04T14:49:32.1Z</time></trkpt><trkpt lat="44.875315" lon="8.4096933"><ele>99.33333333333334</ele><time>2026-04-04T14:49:33.103Z</time></trkpt><trkpt lat="44.8755017" lon="8.4096467"><ele>99.66666666666667</ele><time>2026-04-04T14:49:34.101Z</time></trkpt><trkpt lat="44.8756917" lon="8.4096"><ele>100.0</ele><time>2026-04-04T14:49:35.101Z</time></trkpt><trkpt lat="44.8758817" lon="8.409555"><ele>100.33333333333334</ele><time>2026-04-04T14:49:36.101Z</time></trkpt><trkpt lat="44.8760783" lon="8.409515"><ele>100.66666666666666</ele><time>2026-04-04T14:49:37.099Z</time></trkpt><trkpt lat="44.876275" lon="8.4094833"><ele>101.0</ele><time>2026-04-04T14:49:38.105Z</time></trkpt><trkpt lat="44.876475" lon="8.409455"><ele>101.0</ele><time>2026-04-04T14:49:39.102Z</time></trkpt><trkpt lat="44.876675" lon="8.4094333"><ele>101.0</ele><time>2026-04-04T14:49:40.105Z</time></trkpt><trkpt lat="44.8768783" lon="8.4094117"><ele>101.0</ele><time>2026-04-04T14:49:41.106Z</time></trkpt><trkpt lat="44.8770767" lon="8.409395"><ele>100.0</ele><time>2026-04-04T14:49:42.102Z</time></trkpt><trkpt lat="44.8772717" lon="8.4093733"><ele>99.0</ele><time>2026-04-04T14:49:43.103Z</time></trkpt><trkpt lat="44.877465" lon="8.4093633"><ele>98.0</ele><time>2026-04-04T14:49:44.103Z</time></trkpt><trkpt lat="44.8776567" lon="8.4093483"><ele>98.0</ele><time>2026-04-04T14:49:45.102Z</time></trkpt><trkpt lat="44.8778483" lon="8.4093267"><ele>98.0</ele><time>2026-04-04T14:49:46.103Z</time></trkpt><trkpt lat="44.87804" lon="8.409315"><ele>98.0</ele><time>2026-04-04T14:49:47.103Z</time></trkpt><trkpt lat="44.8782333" lon="8.4093017"><ele>98.0</ele><time>2026-04-04T14:49:48.103Z</time></trkpt><trkpt lat="44.8784333" lon="8.4092917"><ele>98.0</ele><time>2026-04-04T14:49:49.104Z</time></trkpt><trkpt lat="44.8786333" lon="8.4092817"><ele>98.0</ele><time>2026-04-04T14:49:50.102Z</time></trkpt><trkpt lat="44.8788333" lon="8.40927"><ele>98.33333333333333</ele><time>2026-04-04T14:49:51.104Z</time></trkpt><trkpt lat="44.8790333" lon="8.40925"><ele>98.66666666666666</ele><time>2026-04-04T14:49:52.101Z</time></trkpt><trkpt lat="44.8792367" lon="8.4092383"><ele>99.0</ele><time>2026-04-04T14:49:53.1Z</time></trkpt><trkpt lat="44.87944" lon="8.4092267"><ele>100.0</ele><time>2026-04-04T14:49:54.104Z</time></trkpt><trkpt lat="44.8796433" lon="8.4092167"><ele>101.0</ele><time>2026-04-04T14:49:55.104Z</time></trkpt><trkpt lat="44.87985" lon="8.409205"><ele>102.0</ele><time>2026-04-04T14:49:56.101Z</time></trkpt><trkpt lat="44.880055" lon="8.4091967"><ele>101.33333333333334</ele><time>2026-04-04T14:49:57.101Z</time></trkpt><trkpt lat="44.880255" lon="8.4091867"><ele>100.66666666666667</ele><time>2026-04-04T14:49:58.102Z</time></trkpt><trkpt lat="44.8804533" lon="8.4091883"><ele>100.0</ele><time>2026-04-04T14:49:59.103Z</time></trkpt><trkpt lat="44.880645" lon="8.409205"><ele>100.0</ele><time>2026-04-04T14:50:00.106Z</time></trkpt><trkpt lat="44.8808283" lon="8.40924"><ele>100.0</ele><time>2026-04-04T14:50:01.104Z</time></trkpt><trkpt lat="44.8810083" lon="8.4092883"><ele>100.0</ele><time>2026-04-04T14:50:02.105Z</time></trkpt><trkpt lat="44.8811867" lon="8.4093483"><ele>99.66666666666667</ele><time>2026-04-04T14:50:03.105Z</time></trkpt><trkpt lat="44.8813583" lon="8.4094217"><ele>99.33333333333334</ele><time>2026-04-04T14:50:04.105Z</time></trkpt><trkpt lat="44.8815333" lon="8.40951"><ele>99.0</ele><time>2026-04-04T14:50:05.107Z</time></trkpt><trkpt lat="44.88171" lon="8.4095983"><ele>100.0</ele><time>2026-04-04T14:50:06.103Z</time></trkpt><trkpt lat="44.88189" lon="8.409685"><ele>101.0</ele><time>2026-04-04T14:50:07.108Z</time></trkpt><trkpt lat="44.8820717" lon="8.4097683"><ele>102.0</ele><time>2026-04-04T14:50:08.109Z</time></trkpt><trkpt lat="44.8822517" lon="8.4098533"><ele>102.0</ele><time>2026-04-04T14:50:09.111Z</time></trkpt><trkpt lat="44.8824283" lon="8.4099367"><ele>102.0</ele><time>2026-04-04T14:50:10.106Z</time></trkpt><trkpt lat="44.8826017" lon="8.4100183"><ele>102.0</ele><time>2026-04-04T14:50:11.106Z</time></trkpt><trkpt lat="44.88277" lon="8.41009"><ele>102.66666666666666</ele><time>2026-04-04T14:50:12.104Z</time></trkpt><trkpt lat="44.882935" lon="8.4101483"><ele>103.33333333333333</ele><time>2026-04-04T14:50:13.103Z</time></trkpt><trkpt lat="44.8831" lon="8.4101933"><ele>104.0</ele><time>2026-04-04T14:50:14.105Z</time></trkpt><trkpt lat="44.8832633" lon="8.4102267"><ele>104.33333333333333</ele><time>2026-04-04T14:50:15.105Z</time></trkpt><trkpt lat="44.8834317" lon="8.410255"><ele>104.66666666666666</ele><time>2026-04-04T14:50:16.101Z</time></trkpt><trkpt lat="44.8836033" lon="8.4102833"><ele>105.0</ele><time>2026-04-04T14:50:17.099Z</time></trkpt><trkpt lat="44.8837717" lon="8.41031"><ele>105.0</ele><time>2026-04-04T14:50:18.1Z</time></trkpt><trkpt lat="44.8839433" lon="8.4103383"><ele>105.0</ele><time>2026-04-04T14:50:19.105Z</time></trkpt><trkpt lat="44.8841083" lon="8.4103617"><ele>105.0</ele><time>2026-04-04T14:50:20.104Z</time></trkpt><trkpt lat="44.884255" lon="8.410385"><ele>104.8</ele><time>2026-04-04T14:50:21.104Z</time></trkpt><trkpt lat="44.8843833" lon="8.4103983"><ele>104.6</ele><time>2026-04-04T14:50:22.1Z</time></trkpt><trkpt lat="44.8844883" lon="8.4103983"><ele>104.4</ele><time>2026-04-04T14:50:23.102Z</time></trkpt><trkpt lat="44.8845783" lon="8.4103733"><ele>104.2</ele><time>2026-04-04T14:50:24.108Z</time></trkpt><trkpt lat="44.884665" lon="8.4103267"><ele>104.0</ele><time>2026-04-04T14:50:25.105Z</time></trkpt><trkpt lat="44.8847267" lon="8.4102317"><ele>104.0</ele><time>2026-04-04T14:50:26.106Z</time></trkpt><trkpt lat="44.884755" lon="8.410105"><ele>104.0</ele><time>2026-04-04T14:50:27.1Z</time></trkpt><trkpt lat="44.88476" lon="8.409945"><ele>104.0</ele><time>2026-04-04T14:50:28.11Z</time></trkpt><trkpt lat="44.8847467" lon="8.409765"><ele>104.0</ele><time>2026-04-04T14:50:29.104Z</time></trkpt><trkpt lat="44.884715" lon="8.4095617"><ele>104.0</ele><time>2026-04-04T14:50:30.102Z</time></trkpt><trkpt lat="44.8846633" lon="8.4093467"><ele>104.0</ele><time>2026-04-04T14:50:31.1Z</time></trkpt><trkpt lat="44.8845967" lon="8.40913"><ele>104.0</ele><time>2026-04-04T14:50:32.105Z</time></trkpt><trkpt lat="44.8845283" lon="8.4089167"><ele>104.33333333333333</ele><time>2026-04-04T14:50:33.107Z</time></trkpt><trkpt lat="44.8844533" lon="8.4086967"><ele>104.66666666666666</ele><time>2026-04-04T14:50:34.102Z</time></trkpt><trkpt lat="44.8843767" lon="8.4084683"><ele>105.0</ele><time>2026-04-04T14:50:35.101Z</time></trkpt><trkpt lat="44.8843" lon="8.4082367"><ele>104.0</ele><time>2026-04-04T14:50:36.1Z</time></trkpt><trkpt lat="44.8842267" lon="8.408005"><ele>103.0</ele><time>2026-04-04T14:50:37.104Z</time></trkpt><trkpt lat="44.88415" lon="8.4077733"><ele>102.0</ele><time>2026-04-04T14:50:38.104Z</time></trkpt><trkpt lat="44.8840717" lon="8.4075383"><ele>102.0</ele><time>2026-04-04T14:50:39.101Z</time></trkpt><trkpt lat="44.8839933" lon="8.407295"><ele>102.0</ele><time>2026-04-04T14:50:40.102Z</time></trkpt><trkpt lat="44.883915" lon="8.40705"><ele>102.0</ele><time>2026-04-04T14:50:41.106Z</time></trkpt><trkpt lat="44.88384" lon="8.4068067"><ele>102.0</ele><time>2026-04-04T14:50:42.102Z</time></trkpt><trkpt lat="44.883765" lon="8.4065683"><ele>102.0</ele><time>2026-04-04T14:50:43.106Z</time></trkpt><trkpt lat="44.8836867" lon="8.4063383"><ele>102.0</ele><time>2026-04-04T14:50:44.103Z</time></trkpt><trkpt lat="44.8836133" lon="8.4061217"><ele>102.0</ele><time>2026-04-04T14:50:45.1Z</time></trkpt><trkpt lat="44.8835433" lon="8.4059217"><ele>102.0</ele><time>2026-04-04T14:50:46.102Z</time></trkpt><trkpt lat="44.8834883" lon="8.405755"><ele>102.0</ele><time>2026-04-04T14:50:47.105Z</time></trkpt><trkpt lat="44.88345" lon="8.4056333"><ele>102.0</ele><time>2026-04-04T14:50:48.1Z</time></trkpt><trkpt lat="44.8834183" lon="8.4055433"><ele>102.25</ele><time>2026-04-04T14:50:49.105Z</time></trkpt><trkpt lat="44.88342" lon="8.40543"><ele>102.5</ele><time>2026-04-04T14:50:51.102Z</time></trkpt><trkpt lat="44.8834733" lon="8.405365"><ele>102.75</ele><time>2026-04-04T14:50:53.102Z</time></trkpt><trkpt lat="44.8836483" lon="8.4053417"><ele>103.0</ele><time>2026-04-04T14:50:55.104Z</time></trkpt><trkpt lat="44.8837817" lon="8.405305"><ele>103.0</ele><time>2026-04-04T14:50:56.103Z</time></trkpt><trkpt lat="44.8839267" lon="8.405255"><ele>103.0</ele><time>2026-04-04T14:50:57.103Z</time></trkpt><trkpt lat="44.88408" lon="8.4052017"><ele>103.0</ele><time>2026-04-04T14:50:58.107Z</time></trkpt><trkpt lat="44.88423" lon="8.4051483"><ele>102.66666666666667</ele><time>2026-04-04T14:50:59.105Z</time></trkpt><trkpt lat="44.8843883" lon="8.4050883"><ele>102.33333333333334</ele><time>2026-04-04T14:51:00.106Z</time></trkpt><trkpt lat="44.8845617" lon="8.4050233"><ele>102.0</ele><time>2026-04-04T14:51:01.105Z</time></trkpt><trkpt lat="44.8847417" lon="8.4049533"><ele>102.0</ele><time>2026-04-04T14:51:02.106Z</time></trkpt><trkpt lat="44.88493" lon="8.4048833"><ele>102.0</ele><time>2026-04-04T14:51:03.104Z</time></trkpt><trkpt lat="44.88512" lon="8.4048117"><ele>102.0</ele><time>2026-04-04T14:51:04.103Z</time></trkpt><trkpt lat="44.885315" lon="8.4047383"><ele>102.0</ele><time>2026-04-04T14:51:05.106Z</time></trkpt><trkpt lat="44.885505" lon="8.4046683"><ele>102.0</ele><time>2026-04-04T14:51:06.101Z</time></trkpt><trkpt lat="44.8856867" lon="8.4046"><ele>102.0</ele><time>2026-04-04T14:51:07.106Z</time></trkpt><trkpt lat="44.885865" lon="8.4045333"><ele>102.33333333333334</ele><time>2026-04-04T14:51:08.104Z</time></trkpt><trkpt lat="44.8860417" lon="8.4044717"><ele>102.66666666666667</ele><time>2026-04-04T14:51:09.102Z</time></trkpt><trkpt lat="44.8862167" lon="8.404415"><ele>103.0</ele><time>2026-04-04T14:51:10.102Z</time></trkpt><trkpt lat="44.8863933" lon="8.40438"><ele>103.0</ele><time>2026-04-04T14:51:11.102Z</time></trkpt><trkpt lat="44.8865667" lon="8.4043617"><ele>103.0</ele><time>2026-04-04T14:51:12.103Z</time></trkpt><trkpt lat="44.8867417" lon="8.4043683"><ele>103.0</ele><time>2026-04-04T14:51:13.101Z</time></trkpt><trkpt lat="44.8869167" lon="8.4043833"><ele>103.0</ele><time>2026-04-04T14:51:14.102Z</time></trkpt><trkpt lat="44.88709" lon="8.4044083"><ele>103.0</ele><time>2026-04-04T14:51:15.102Z</time></trkpt><trkpt lat="44.8872733" lon="8.4044317"><ele>103.0</ele><time>2026-04-04T14:51:16.103Z</time></trkpt><trkpt lat="44.8874533" lon="8.4044583"><ele>103.66666666666667</ele><time>2026-04-04T14:51:17.102Z</time></trkpt><trkpt lat="44.8876267" lon="8.4044917"><ele>104.33333333333334</ele><time>2026-04-04T14:51:18.102Z</time></trkpt><trkpt lat="44.8878017" lon="8.4045367"><ele>105.0</ele><time>2026-04-04T14:51:19.104Z</time></trkpt><trkpt lat="44.88798" lon="8.40459"><ele>105.0</ele><time>2026-04-04T14:51:20.105Z</time></trkpt><trkpt lat="44.8881583" lon="8.4046483"><ele>105.0</ele><time>2026-04-04T14:51:21.104Z</time></trkpt><trkpt lat="44.8883417" lon="8.4047117"><ele>105.0</ele><time>2026-04-04T14:51:22.106Z</time></trkpt><trkpt lat="44.888525" lon="8.40478"><ele>103.66666666666666</ele><time>2026-04-04T14:51:23.107Z</time></trkpt><trkpt lat="44.8887083" lon="8.4048483"><ele>102.33333333333333</ele><time>2026-04-04T14:51:24.101Z</time></trkpt><trkpt lat="44.8888917" lon="8.4049183"><ele>101.0</ele><time>2026-04-04T14:51:25.102Z</time></trkpt><trkpt lat="44.8890717" lon="8.4049833"><ele>101.0</ele><time>2026-04-04T14:51:26.102Z</time></trkpt><trkpt lat="44.889255" lon="8.40505"><ele>101.0</ele><time>2026-04-04T14:51:27.101Z</time></trkpt><trkpt lat="44.8894367" lon="8.4051167"><ele>101.0</ele><time>2026-04-04T14:51:28.104Z</time></trkpt><trkpt lat="44.8896133" lon="8.4051767"><ele>102.0</ele><time>2026-04-04T14:51:29.101Z</time></trkpt><trkpt lat="44.8897783" lon="8.4052233"><ele>103.0</ele><time>2026-04-04T14:51:30.103Z</time></trkpt><trkpt lat="44.889925" lon="8.4052433"><ele>104.0</ele><time>2026-04-04T14:51:31.103Z</time></trkpt><trkpt lat="44.8900683" lon="8.4052183"><ele>104.0</ele><time>2026-04-04T14:51:32.106Z</time></trkpt><trkpt lat="44.8902033" lon="8.4051433"><ele>104.0</ele><time>2026-04-04T14:51:33.104Z</time></trkpt><trkpt lat="44.8903367" lon="8.4050467"><ele>104.0</ele><time>2026-04-04T14:51:34.106Z</time></trkpt><trkpt lat="44.89048" lon="8.4049433"><ele>104.0</ele><time>2026-04-04T14:51:35.104Z</time></trkpt><trkpt lat="44.8906317" lon="8.40484"><ele>104.0</ele><time>2026-04-04T14:51:36.109Z</time></trkpt><trkpt lat="44.890785" lon="8.404745"><ele>104.0</ele><time>2026-04-04T14:51:37.105Z</time></trkpt><trkpt lat="44.8909417" lon="8.40466"><ele>105.0</ele><time>2026-04-04T14:51:38.11Z</time></trkpt><trkpt lat="44.8910983" lon="8.4045817"><ele>106.0</ele><time>2026-04-04T14:51:39.102Z</time></trkpt><trkpt lat="44.8912483" lon="8.404515"><ele>107.0</ele><time>2026-04-04T14:51:40.119Z</time></trkpt><trkpt lat="44.89139" lon="8.4044667"><ele>107.0</ele><time>2026-04-04T14:51:41.103Z</time></trkpt><trkpt lat="44.8915383" lon="8.404445"><ele>107.0</ele><time>2026-04-04T14:51:42.104Z</time></trkpt><trkpt lat="44.8916867" lon="8.40444"><ele>107.0</ele><time>2026-04-04T14:51:43.106Z</time></trkpt><trkpt lat="44.891835" lon="8.4044383"><ele>107.0</ele><time>2026-04-04T14:51:44.102Z</time></trkpt><trkpt lat="44.8919883" lon="8.404415"><ele>107.0</ele><time>2026-04-04T14:51:45.1Z</time></trkpt><trkpt lat="44.8921233" lon="8.40437"><ele>107.0</ele><time>2026-04-04T14:51:46.106Z</time></trkpt><trkpt lat="44.8922517" lon="8.4043333"><ele>107.0</ele><time>2026-04-04T14:51:47.102Z</time></trkpt><trkpt lat="44.8923733" lon="8.4043333"><ele>107.0</ele><time>2026-04-04T14:51:48.105Z</time></trkpt><trkpt lat="44.8924967" lon="8.4043667"><ele>107.0</ele><time>2026-04-04T14:51:49.106Z</time></trkpt><trkpt lat="44.8926217" lon="8.4044267"><ele>107.0</ele><time>2026-04-04T14:51:50.1Z</time></trkpt><trkpt lat="44.8927517" lon="8.4045033"><ele>107.0</ele><time>2026-04-04T14:51:51.103Z</time></trkpt><trkpt lat="44.8928817" lon="8.4045967"><ele>107.0</ele><time>2026-04-04T14:51:52.104Z</time></trkpt><trkpt lat="44.8930183" lon="8.4047033"><ele>106.66666666666666</ele><time>2026-04-04T14:51:53.104Z</time></trkpt><trkpt lat="44.8931617" lon="8.4048217"><ele>106.33333333333334</ele><time>2026-04-04T14:51:54.104Z</time></trkpt><trkpt lat="44.8933" lon="8.40496"><ele>106.0</ele><time>2026-04-04T14:51:55.103Z</time></trkpt><trkpt lat="44.8934333" lon="8.4051217"><ele>106.66666666666667</ele><time>2026-04-04T14:51:56.1Z</time></trkpt><trkpt lat="44.8935683" lon="8.4053017"><ele>107.33333333333334</ele><time>2026-04-04T14:51:57.104Z</time></trkpt><trkpt lat="44.8937067" lon="8.40549"><ele>108.0</ele><time>2026-04-04T14:51:58.1Z</time></trkpt><trkpt lat="44.8938417" lon="8.40568"><ele>108.33333333333334</ele><time>2026-04-04T14:51:59.102Z</time></trkpt><trkpt lat="44.8939717" lon="8.4058783"><ele>108.66666666666667</ele><time>2026-04-04T14:52:00.101Z</time></trkpt><trkpt lat="44.8941" lon="8.4060733"><ele>109.0</ele><time>2026-04-04T14:52:01.107Z</time></trkpt><trkpt lat="44.8942283" lon="8.40626"><ele>109.66666666666667</ele><time>2026-04-04T14:52:02.103Z</time></trkpt><trkpt lat="44.8943667" lon="8.40642"><ele>110.33333333333334</ele><time>2026-04-04T14:52:03.105Z</time></trkpt><trkpt lat="44.8945167" lon="8.4065533"><ele>111.0</ele><time>2026-04-04T14:52:04.104Z</time></trkpt><trkpt lat="44.89468" lon="8.4066567"><ele>111.0</ele><time>2026-04-04T14:52:05.105Z</time></trkpt><trkpt lat="44.894845" lon="8.406725"><ele>111.0</ele><time>2026-04-04T14:52:06.105Z</time></trkpt><trkpt lat="44.8950083" lon="8.4067667"><ele>111.0</ele><time>2026-04-04T14:52:07.103Z</time></trkpt><trkpt lat="44.8951533" lon="8.4068"><ele>112.0</ele><time>2026-04-04T14:52:08.102Z</time></trkpt><trkpt lat="44.895275" lon="8.40683"><ele>113.0</ele><time>2026-04-04T14:52:09.101Z</time></trkpt><trkpt lat="44.89538" lon="8.406865"><ele>114.0</ele><time>2026-04-04T14:52:10.1Z</time></trkpt><trkpt lat="44.895475" lon="8.406895"><ele>115.0</ele><time>2026-04-04T14:52:11.101Z</time></trkpt><trkpt lat="44.895575" lon="8.4069033"><ele>116.0</ele><time>2026-04-04T14:52:12.099Z</time></trkpt><trkpt lat="44.8956833" lon="8.4069033"><ele>116.0</ele><time>2026-04-04T14:52:13.106Z</time></trkpt><trkpt lat="44.895795" lon="8.4069067"><ele>116.0</ele><time>2026-04-04T14:52:14.103Z</time></trkpt><trkpt lat="44.8959183" lon="8.406925"><ele>116.0</ele><time>2026-04-04T14:52:15.102Z</time></trkpt><trkpt lat="44.8960433" lon="8.40697"><ele>116.0</ele><time>2026-04-04T14:52:16.098Z</time></trkpt><trkpt lat="44.8961667" lon="8.4070283"><ele>116.4</ele><time>2026-04-04T14:52:17.101Z</time></trkpt><trkpt lat="44.8962867" lon="8.40708"><ele>116.8</ele><time>2026-04-04T14:52:18.103Z</time></trkpt><trkpt lat="44.8963983" lon="8.407125"><ele>117.20000000000002</ele><time>2026-04-04T14:52:19.1Z</time></trkpt><trkpt lat="44.8964967" lon="8.4071467"><ele>117.60000000000001</ele><time>2026-04-04T14:52:20.102Z</time></trkpt><trkpt lat="44.8965817" lon="8.4071567"><ele>118.0</ele><time>2026-04-04T14:52:21.102Z</time></trkpt><trkpt lat="44.8966567" lon="8.40716"><ele>118.00000000000001</ele><time>2026-04-04T14:52:22.103Z</time></trkpt><trkpt lat="44.8967267" lon="8.4071583"><ele>118.0</ele><time>2026-04-04T14:52:23.106Z</time></trkpt><trkpt lat="44.8968217" lon="8.407145"><ele>118.0</ele><time>2026-04-04T14:52:25.109Z</time></trkpt><trkpt lat="44.8968883" lon="8.4070967"><ele>118.0</ele><time>2026-04-04T14:52:28.104Z</time></trkpt><trkpt lat="44.8969933" lon="8.4070567"><ele>118.00000000000001</ele><time>2026-04-04T14:52:30.102Z</time></trkpt><trkpt lat="44.8970767" lon="8.40704"><ele>118.0</ele><time>2026-04-04T14:52:31.109Z</time></trkpt><trkpt lat="44.8971583" lon="8.4070033"><ele>118.16666666666667</ele><time>2026-04-04T14:52:32.102Z</time></trkpt><trkpt lat="44.8972467" lon="8.406965"><ele>118.33333333333334</ele><time>2026-04-04T14:52:33.102Z</time></trkpt><trkpt lat="44.8973267" lon="8.40691"><ele>118.5</ele><time>2026-04-04T14:52:34.1Z</time></trkpt><trkpt lat="44.8974" lon="8.4068533"><ele>118.66666666666666</ele><time>2026-04-04T14:52:35.106Z</time></trkpt><trkpt lat="44.897455" lon="8.40678"><ele>118.83333333333333</ele><time>2026-04-04T14:52:36.102Z</time></trkpt><trkpt lat="44.8974883" lon="8.4066883"><ele>119.0</ele><time>2026-04-04T14:52:37.101Z</time></trkpt><trkpt lat="44.8975017" lon="8.4065833"><ele>119.0</ele><time>2026-04-04T14:52:38.104Z</time></trkpt><trkpt lat="44.8975217" lon="8.4064917"><ele>119.0</ele><time>2026-04-04T14:52:39.098Z</time></trkpt><trkpt lat="44.8975883" lon="8.4063417"><ele>119.0</ele><time>2026-04-04T14:52:41.103Z</time></trkpt><trkpt lat="44.8976733" lon="8.40627"><ele>119.0</ele><time>2026-04-04T14:52:42.101Z</time></trkpt><trkpt lat="44.897755" lon="8.4061867"><ele>119.0</ele><time>2026-04-04T14:52:43.101Z</time></trkpt><trkpt lat="44.89783" lon="8.406105"><ele>119.6</ele><time>2026-04-04T14:52:44.107Z</time></trkpt><trkpt lat="44.8978917" lon="8.4060233"><ele>120.2</ele><time>2026-04-04T14:52:45.101Z</time></trkpt><trkpt lat="44.897945" lon="8.4059533"><ele>120.79999999999998</ele><time>2026-04-04T14:52:46.102Z</time></trkpt><trkpt lat="44.8980417" lon="8.40597"><ele>121.39999999999999</ele><time>2026-04-04T14:53:36.104Z</time></trkpt><trkpt lat="44.8981367" lon="8.40597"><ele>122.0</ele><time>2026-04-04T14:53:38.102Z</time></trkpt><trkpt lat="44.898255" lon="8.4059367"><ele>121.99999999999999</ele><time>2026-04-04T14:53:40.102Z</time></trkpt><trkpt lat="44.898315" lon="8.405905"><ele>122.0</ele><time>2026-04-04T14:53:41.099Z</time></trkpt><trkpt lat="44.8984283" lon="8.4058517"><ele>122.0</ele><time>2026-04-04T14:53:43.101Z</time></trkpt><trkpt lat="44.8985217" lon="8.4058317"><ele>122.0</ele><time>2026-04-04T14:53:45.104Z</time></trkpt><trkpt lat="44.898595" lon="8.4058483"><ele>121.99999999999999</ele><time>2026-04-04T14:53:47.106Z</time></trkpt><trkpt lat="44.89866" lon="8.40589"><ele>122.0</ele><time>2026-04-04T14:53:49.106Z</time></trkpt><trkpt lat="44.8987467" lon="8.405945"><ele>122.39999999999999</ele><time>2026-04-04T14:53:51.1Z</time></trkpt><trkpt lat="44.8988283" lon="8.4060633"><ele>122.79999999999998</ele><time>2026-04-04T14:53:53.102Z</time></trkpt><trkpt lat="44.89891" lon="8.4061617"><ele>123.2</ele><time>2026-04-04T14:53:55.101Z</time></trkpt><trkpt lat="44.89897" lon="8.4062633"><ele>123.6</ele><time>2026-04-04T14:53:57.1Z</time></trkpt><trkpt lat="44.8990617" lon="8.406285"><ele>124.0</ele><time>2026-04-04T14:53:59.104Z</time></trkpt><trkpt lat="44.89918" lon="8.406235"><ele>124.00000000000001</ele><time>2026-04-04T14:54:01.105Z</time></trkpt><trkpt lat="44.8992467" lon="8.40617"><ele>124.0</ele><time>2026-04-04T14:54:02.101Z</time></trkpt><trkpt lat="44.8993017" lon="8.4061217"><ele>124.0</ele><time>2026-04-04T14:54:03.1Z</time></trkpt><trkpt lat="44.8993817" lon="8.4060233"><ele>124.0</ele><time>2026-04-04T14:54:05.102Z</time></trkpt><trkpt lat="44.89946" lon="8.405965"><ele>124.00000000000001</ele><time>2026-04-04T14:54:07.106Z</time></trkpt><trkpt lat="44.8995617" lon="8.405955"><ele>124.0</ele><time>2026-04-04T14:54:09.103Z</time></trkpt><trkpt lat="44.899685" lon="8.406015"><ele>124.50000000000001</ele><time>2026-04-04T14:54:11.1Z</time></trkpt><trkpt lat="44.8997533" lon="8.4061033"><ele>125.0</ele><time>2026-04-04T14:54:13.105Z</time></trkpt><trkpt lat="44.8997567" lon="8.4062133"><ele>125.5</ele><time>2026-04-04T14:54:15.109Z</time></trkpt><trkpt lat="44.8997517" lon="8.4063083"><ele>126.0</ele><time>2026-04-04T14:54:16.104Z</time></trkpt><trkpt lat="44.8996383" lon="8.4063783"><ele>126.50000000000001</ele><time>2026-04-04T14:54:17.103Z</time></trkpt><trkpt lat="44.899575" lon="8.4064583"><ele>127.0</ele><time>2026-04-04T14:54:18.103Z</time></trkpt><trkpt lat="44.8995167" lon="8.4065433"><ele>127.00000000000001</ele><time>2026-04-04T14:54:19.101Z</time></trkpt><trkpt lat="44.8994767" lon="8.4066383"><ele>127.0</ele><time>2026-04-04T14:54:20.101Z</time></trkpt><trkpt lat="44.89945" lon="8.4067233"><ele>127.0</ele><time>2026-04-04T14:54:21.101Z</time></trkpt><trkpt lat="44.8993983" lon="8.40686"><ele>127.0</ele><time>2026-04-04T14:54:23.101Z</time></trkpt><trkpt lat="44.899395" lon="8.4069767"><ele>127.00000000000001</ele><time>2026-04-04T14:54:25.102Z</time></trkpt><trkpt lat="44.89944" lon="8.4070933"><ele>127.0</ele><time>2026-04-04T14:54:27.101Z</time></trkpt><trkpt lat="44.8994967" lon="8.4071417"><ele>125.39999999999999</ele><time>2026-04-04T14:54:28.1Z</time></trkpt><trkpt lat="44.8995633" lon="8.407185"><ele>123.79999999999998</ele><time>2026-04-04T14:54:29.101Z</time></trkpt><trkpt lat="44.8996833" lon="8.4072433"><ele>122.2</ele><time>2026-04-04T14:54:31.102Z</time></trkpt><trkpt lat="44.8997717" lon="8.4072767"><ele>120.6</ele><time>2026-04-04T14:54:32.104Z</time></trkpt><trkpt lat="44.8998783" lon="8.4072983"><ele>119.0</ele><time>2026-04-04T14:54:33.102Z</time></trkpt><trkpt lat="44.8999733" lon="8.407315"><ele>119.0</ele><time>2026-04-04T14:54:34.1Z</time></trkpt><trkpt lat="44.90008" lon="8.40732"><ele>119.0</ele><time>2026-04-04T14:54:35.105Z</time></trkpt><trkpt lat="44.9002167" lon="8.4072967"><ele>119.0</ele><time>2026-04-04T14:54:36.106Z</time></trkpt><trkpt lat="44.9003567" lon="8.4072283"><ele>119.0</ele><time>2026-04-04T14:54:37.102Z</time></trkpt><trkpt lat="44.900465" lon="8.407165"><ele>119.0</ele><time>2026-04-04T14:54:38.102Z</time></trkpt><trkpt lat="44.9005533" lon="8.4070933"><ele>119.0</ele><time>2026-04-04T14:54:39.1Z</time></trkpt><trkpt lat="44.900635" lon="8.4070267"><ele>119.0</ele><time>2026-04-04T14:54:40.101Z</time></trkpt><trkpt lat="44.90072" lon="8.4069633"><ele>119.0</ele><time>2026-04-04T14:54:41.103Z</time></trkpt><trkpt lat="44.900795" lon="8.4069017"><ele>119.0</ele><time>2026-04-04T14:54:42.104Z</time></trkpt><trkpt lat="44.9008717" lon="8.4068533"><ele>118.80000000000001</ele><time>2026-04-04T14:54:43.104Z</time></trkpt><trkpt lat="44.90095" lon="8.4068283"><ele>118.60000000000001</ele><time>2026-04-04T14:54:44.104Z</time></trkpt><trkpt lat="44.901035" lon="8.4067983"><ele>118.4</ele><time>2026-04-04T14:54:45.102Z</time></trkpt><trkpt lat="44.901135" lon="8.406765"><ele>118.2</ele><time>2026-04-04T14:54:46.102Z</time></trkpt><trkpt lat="44.9012483" lon="8.4067317"><ele>118.0</ele><time>2026-04-04T14:54:47.101Z</time></trkpt><trkpt lat="44.90135" lon="8.4066817"><ele>118.0</ele><time>2026-04-04T14:54:48.102Z</time></trkpt><trkpt lat="44.9014467" lon="8.4066233"><ele>118.00000000000001</ele><time>2026-04-04T14:54:49.104Z</time></trkpt><trkpt lat="44.90154" lon="8.406565"><ele>118.00000000000001</ele><time>2026-04-04T14:54:50.103Z</time></trkpt><trkpt lat="44.9016233" lon="8.4064933"><ele>118.0</ele><time>2026-04-04T14:54:51.097Z</time></trkpt><trkpt lat="44.9017" lon="8.4064133"><ele>118.0</ele><time>2026-04-04T14:54:52.099Z</time></trkpt><trkpt lat="44.9017717" lon="8.40634"><ele>117.60000000000001</ele><time>2026-04-04T14:54:53.106Z</time></trkpt><trkpt lat="44.901825" lon="8.4062733"><ele>117.20000000000002</ele><time>2026-04-04T14:54:54.103Z</time></trkpt><trkpt lat="44.9019083" lon="8.4061983"><ele>116.8</ele><time>2026-04-04T14:54:56.102Z</time></trkpt><trkpt lat="44.9019683" lon="8.4061633"><ele>116.4</ele><time>2026-04-04T14:54:58.104Z</time></trkpt><trkpt lat="44.902055" lon="8.4060167"><ele>116.0</ele><time>2026-04-04T14:55:00.101Z</time></trkpt><trkpt lat="44.9021283" lon="8.4058817"><ele>116.0</ele><time>2026-04-04T14:55:01.108Z</time></trkpt><trkpt lat="44.9022183" lon="8.4057333"><ele>116.0</ele><time>2026-04-04T14:55:02.101Z</time></trkpt><trkpt lat="44.90232" lon="8.4055767"><ele>116.0</ele><time>2026-04-04T14:55:03.101Z</time></trkpt><trkpt lat="44.902425" lon="8.4054033"><ele>115.0</ele><time>2026-04-04T14:55:04.098Z</time></trkpt><trkpt lat="44.9025433" lon="8.4052183"><ele>114.0</ele><time>2026-04-04T14:55:05.103Z</time></trkpt><trkpt lat="44.9026783" lon="8.40501"><ele>113.0</ele><time>2026-04-04T14:55:06.102Z</time></trkpt><trkpt lat="44.90282" lon="8.404795"><ele>114.0</ele><time>2026-04-04T14:55:07.107Z</time></trkpt><trkpt lat="44.9029617" lon="8.404585"><ele>115.0</ele><time>2026-04-04T14:55:08.105Z</time></trkpt><trkpt lat="44.9031" lon="8.4043783"><ele>116.0</ele><time>2026-04-04T14:55:09.102Z</time></trkpt><trkpt lat="44.9032383" lon="8.4041767"><ele>116.0</ele><time>2026-04-04T14:55:10.107Z</time></trkpt><trkpt lat="44.903375" lon="8.4039783"><ele>116.0</ele><time>2026-04-04T14:55:11.105Z</time></trkpt><trkpt lat="44.9035117" lon="8.4037883"><ele>116.0</ele><time>2026-04-04T14:55:12.101Z</time></trkpt><trkpt lat="44.9036483" lon="8.403605"><ele>116.0</ele><time>2026-04-04T14:55:13.108Z</time></trkpt><trkpt lat="44.9037833" lon="8.4034333"><ele>116.0</ele><time>2026-04-04T14:55:14.102Z</time></trkpt><trkpt lat="44.9039267" lon="8.4032683"><ele>116.0</ele><time>2026-04-04T14:55:15.103Z</time></trkpt><trkpt lat="44.90407" lon="8.4031083"><ele>116.0</ele><time>2026-04-04T14:55:16.104Z</time></trkpt><trkpt lat="44.904215" lon="8.4029517"><ele>116.0</ele><time>2026-04-04T14:55:17.102Z</time></trkpt><trkpt lat="44.9043633" lon="8.4028"><ele>116.0</ele><time>2026-04-04T14:55:18.105Z</time></trkpt><trkpt lat="44.9045133" lon="8.402645"><ele>114.66666666666666</ele><time>2026-04-04T14:55:19.106Z</time></trkpt><trkpt lat="44.9046633" lon="8.4024933"><ele>113.33333333333334</ele><time>2026-04-04T14:55:20.102Z</time></trkpt><trkpt lat="44.9048183" lon="8.4023483"><ele>112.0</ele><time>2026-04-04T14:55:21.102Z</time></trkpt><trkpt lat="44.904975" lon="8.4022017"><ele>113.33333333333334</ele><time>2026-04-04T14:55:22.101Z</time></trkpt><trkpt lat="44.9051333" lon="8.4020533"><ele>114.66666666666666</ele><time>2026-04-04T14:55:23.102Z</time></trkpt><trkpt lat="44.9052917" lon="8.4019017"><ele>116.0</ele><time>2026-04-04T14:55:24.102Z</time></trkpt><trkpt lat="44.9054483" lon="8.40175"><ele>116.0</ele><time>2026-04-04T14:55:25.105Z</time></trkpt><trkpt lat="44.905605" lon="8.4016"><ele>116.0</ele><time>2026-04-04T14:55:26.102Z</time></trkpt><trkpt lat="44.9057667" lon="8.40145"><ele>116.0</ele><time>2026-04-04T14:55:27.106Z</time></trkpt><trkpt lat="44.9059283" lon="8.4013"><ele>115.33333333333333</ele><time>2026-04-04T14:55:28.105Z</time></trkpt><trkpt lat="44.9060933" lon="8.4011467"><ele>114.66666666666666</ele><time>2026-04-04T14:55:29.104Z</time></trkpt><trkpt lat="44.9062567" lon="8.4009967"><ele>114.0</ele><time>2026-04-04T14:55:30.104Z</time></trkpt><trkpt lat="44.9064233" lon="8.400855"><ele>114.0</ele><time>2026-04-04T14:55:31.105Z</time></trkpt><trkpt lat="44.90659" lon="8.4007183"><ele>114.0</ele><time>2026-04-04T14:55:32.106Z</time></trkpt><trkpt lat="44.9067617" lon="8.4005883"><ele>114.0</ele><time>2026-04-04T14:55:33.104Z</time></trkpt><trkpt lat="44.9069333" lon="8.4004683"><ele>115.0</ele><time>2026-04-04T14:55:34.099Z</time></trkpt><trkpt lat="44.9071117" lon="8.4003517"><ele>116.0</ele><time>2026-04-04T14:55:35.101Z</time></trkpt><trkpt lat="44.9073" lon="8.4002433"><ele>117.0</ele><time>2026-04-04T14:55:36.102Z</time></trkpt><trkpt lat="44.9074933" lon="8.40014"><ele>117.33333333333334</ele><time>2026-04-04T14:55:37.104Z</time></trkpt><trkpt lat="44.9076817" lon="8.4000433"><ele>117.66666666666667</ele><time>2026-04-04T14:55:38.102Z</time></trkpt><trkpt lat="44.90787" lon="8.39995"><ele>118.0</ele><time>2026-04-04T14:55:39.099Z</time></trkpt><trkpt lat="44.9080533" lon="8.3998617"><ele>118.0</ele><time>2026-04-04T14:55:40.102Z</time></trkpt><trkpt lat="44.908235" lon="8.39977"><ele>118.0</ele><time>2026-04-04T14:55:41.106Z</time></trkpt><trkpt lat="44.9084133" lon="8.3996733"><ele>118.0</ele><time>2026-04-04T14:55:42.103Z</time></trkpt><trkpt lat="44.9085867" lon="8.399565"><ele>118.0</ele><time>2026-04-04T14:55:43.106Z</time></trkpt><trkpt lat="44.908755" lon="8.3994367"><ele>118.0</ele><time>2026-04-04T14:55:44.105Z</time></trkpt><trkpt lat="44.9089233" lon="8.3992867"><ele>118.0</ele><time>2026-04-04T14:55:45.099Z</time></trkpt><trkpt lat="44.9090933" lon="8.3991183"><ele>117.66666666666667</ele><time>2026-04-04T14:55:46.106Z</time></trkpt><trkpt lat="44.9092667" lon="8.398945"><ele>117.33333333333334</ele><time>2026-04-04T14:55:47.104Z</time></trkpt><trkpt lat="44.9094433" lon="8.39877"><ele>117.0</ele><time>2026-04-04T14:55:48.104Z</time></trkpt><trkpt lat="44.909625" lon="8.3985967"><ele>117.0</ele><time>2026-04-04T14:55:49.101Z</time></trkpt><trkpt lat="44.9098083" lon="8.3984317"><ele>117.0</ele><time>2026-04-04T14:55:50.104Z</time></trkpt><trkpt lat="44.909995" lon="8.398275"><ele>117.0</ele><time>2026-04-04T14:55:51.104Z</time></trkpt><trkpt lat="44.9101867" lon="8.39812"><ele>119.0</ele><time>2026-04-04T14:55:52.103Z</time></trkpt><trkpt lat="44.9103783" lon="8.39796"><ele>121.0</ele><time>2026-04-04T14:55:53.107Z</time></trkpt><trkpt lat="44.91057" lon="8.3977933"><ele>123.0</ele><time>2026-04-04T14:55:54.1Z</time></trkpt><trkpt lat="44.9107583" lon="8.3976183"><ele>124.0</ele><time>2026-04-04T14:55:55.103Z</time></trkpt><trkpt lat="44.9109383" lon="8.3974317"><ele>125.0</ele><time>2026-04-04T14:55:56.105Z</time></trkpt><trkpt lat="44.911115" lon="8.3972383"><ele>126.0</ele><time>2026-04-04T14:55:57.101Z</time></trkpt><trkpt lat="44.91128" lon="8.3970317"><ele>126.0</ele><time>2026-04-04T14:55:58.103Z</time></trkpt><trkpt lat="44.9114433" lon="8.39682"><ele>126.0</ele><time>2026-04-04T14:55:59.103Z</time></trkpt><trkpt lat="44.9116033" lon="8.396605"><ele>126.0</ele><time>2026-04-04T14:56:00.102Z</time></trkpt><trkpt lat="44.91176" lon="8.39639"><ele>126.66666666666666</ele><time>2026-04-04T14:56:01.104Z</time></trkpt><trkpt lat="44.911915" lon="8.3961767"><ele>127.33333333333333</ele><time>2026-04-04T14:56:02.103Z</time></trkpt><trkpt lat="44.9120733" lon="8.395975"><ele>128.0</ele><time>2026-04-04T14:56:03.1Z</time></trkpt><trkpt lat="44.9122417" lon="8.3957883"><ele>128.0</ele><time>2026-04-04T14:56:04.109Z</time></trkpt><trkpt lat="44.9124217" lon="8.3956183"><ele>128.0</ele><time>2026-04-04T14:56:05.103Z</time></trkpt><trkpt lat="44.91261" lon="8.3954683"><ele>128.0</ele><time>2026-04-04T14:56:06.106Z</time></trkpt><trkpt lat="44.9128" lon="8.3953333"><ele>127.0</ele><time>2026-04-04T14:56:07.103Z</time></trkpt><trkpt lat="44.9129967" lon="8.3952083"><ele>126.0</ele><time>2026-04-04T14:56:08.107Z</time></trkpt><trkpt lat="44.9131983" lon="8.3950917"><ele>125.0</ele><time>2026-04-04T14:56:09.103Z</time></trkpt><trkpt lat="44.9134033" lon="8.3949733"><ele>128.5</ele><time>2026-04-04T14:56:10.104Z</time></trkpt><trkpt lat="44.9136117" lon="8.3948533"><ele>132.0</ele><time>2026-04-04T14:56:11.105Z</time></trkpt><trkpt lat="44.91382" lon="8.3947283"><ele>129.0</ele><time>2026-04-04T14:56:12.103Z</time></trkpt><trkpt lat="44.9140317" lon="8.3946017"><ele>126.0</ele><time>2026-04-04T14:56:13.104Z</time></trkpt><trkpt lat="44.914245" lon="8.3944733"><ele>126.0</ele><time>2026-04-04T14:56:14.103Z</time></trkpt><trkpt lat="44.9144583" lon="8.394345"><ele>126.0</ele><time>2026-04-04T14:56:15.105Z</time></trkpt><trkpt lat="44.9146767" lon="8.3942183"><ele>126.0</ele><time>2026-04-04T14:56:16.106Z</time></trkpt><trkpt lat="44.9148933" lon="8.3940883"><ele>126.0</ele><time>2026-04-04T14:56:17.101Z</time></trkpt><trkpt lat="44.915115" lon="8.39396"><ele>124.5</ele><time>2026-04-04T14:56:18.106Z</time></trkpt><trkpt lat="44.9153433" lon="8.39383"><ele>123.0</ele><time>2026-04-04T14:56:19.105Z</time></trkpt><trkpt lat="44.9155733" lon="8.3937"><ele>123.0</ele><time>2026-04-04T14:56:20.1Z</time></trkpt><trkpt lat="44.9158" lon="8.3935683"><ele>123.0</ele><time>2026-04-04T14:56:21.105Z</time></trkpt><trkpt lat="44.916025" lon="8.3934367"><ele>128.0</ele><time>2026-04-04T14:56:22.1Z</time></trkpt><trkpt lat="44.9162483" lon="8.393305"><ele>133.0</ele><time>2026-04-04T14:56:23.103Z</time></trkpt><trkpt lat="44.91647" lon="8.3931717"><ele>133.0</ele><time>2026-04-04T14:56:24.103Z</time></trkpt><trkpt lat="44.9166833" lon="8.3930333"><ele>133.0</ele><time>2026-04-04T14:56:25.109Z</time></trkpt><trkpt lat="44.9168883" lon="8.3928783"><ele>133.5</ele><time>2026-04-04T14:56:26.103Z</time></trkpt><trkpt lat="44.9170817" lon="8.392695"><ele>134.0</ele><time>2026-04-04T14:56:27.101Z</time></trkpt><trkpt lat="44.917265" lon="8.39249"><ele>134.0</ele><time>2026-04-04T14:56:28.103Z</time></trkpt><trkpt lat="44.91744" lon="8.392265"><ele>134.0</ele><time>2026-04-04T14:56:29.108Z</time></trkpt><trkpt lat="44.91761" lon="8.3920333"><ele>133.0</ele><time>2026-04-04T14:56:30.102Z</time></trkpt><trkpt lat="44.91778" lon="8.3917983"><ele>132.0</ele><time>2026-04-04T14:56:31.107Z</time></trkpt><trkpt lat="44.9179533" lon="8.3915683"><ele>132.0</ele><time>2026-04-04T14:56:32.102Z</time></trkpt><trkpt lat="44.9181267" lon="8.391345"><ele>132.0</ele><time>2026-04-04T14:56:33.101Z</time></trkpt><trkpt lat="44.9183033" lon="8.391135"><ele>130.33333333333334</ele><time>2026-04-04T14:56:34.102Z</time></trkpt><trkpt lat="44.918485" lon="8.390945"><ele>128.66666666666669</ele><time>2026-04-04T14:56:35.106Z</time></trkpt><trkpt lat="44.91867" lon="8.3907833"><ele>127.0</ele><time>2026-04-04T14:56:36.102Z</time></trkpt><trkpt lat="44.9188483" lon="8.3906517"><ele>127.0</ele><time>2026-04-04T14:56:37.1Z</time></trkpt><trkpt lat="44.9190283" lon="8.3905417"><ele>127.0</ele><time>2026-04-04T14:56:38.106Z</time></trkpt><trkpt lat="44.9192" lon="8.3904467"><ele>127.0</ele><time>2026-04-04T14:56:39.101Z</time></trkpt><trkpt lat="44.9193667" lon="8.390355"><ele>127.0</ele><time>2026-04-04T14:56:40.105Z</time></trkpt><trkpt lat="44.9195267" lon="8.3902583"><ele>127.0</ele><time>2026-04-04T14:56:41.103Z</time></trkpt><trkpt lat="44.9196783" lon="8.3901483"><ele>127.0</ele><time>2026-04-04T14:56:42.1Z</time></trkpt><trkpt lat="44.9198217" lon="8.39003"><ele>127.0</ele><time>2026-04-04T14:56:43.099Z</time></trkpt><trkpt lat="44.919955" lon="8.3899067"><ele>127.0</ele><time>2026-04-04T14:56:44.105Z</time></trkpt><trkpt lat="44.92008" lon="8.38978"><ele>127.0</ele><time>2026-04-04T14:56:45.101Z</time></trkpt><trkpt lat="44.920195" lon="8.3896483"><ele>127.5</ele><time>2026-04-04T14:56:46.103Z</time></trkpt><trkpt lat="44.9203017" lon="8.389515"><ele>128.0</ele><time>2026-04-04T14:56:47.103Z</time></trkpt><trkpt lat="44.9204033" lon="8.3893833"><ele>128.5</ele><time>2026-04-04T14:56:48.106Z</time></trkpt><trkpt lat="44.9205017" lon="8.3892533"><ele>129.0</ele><time>2026-04-04T14:56:49.106Z</time></trkpt><trkpt lat="44.9205983" lon="8.389125"><ele>129.0</ele><time>2026-04-04T14:56:50.101Z</time></trkpt><trkpt lat="44.9206967" lon="8.3890017"><ele>129.0</ele><time>2026-04-04T14:56:51.105Z</time></trkpt><trkpt lat="44.9207967" lon="8.3888817"><ele>129.0</ele><time>2026-04-04T14:56:52.102Z</time></trkpt><trkpt lat="44.9208867" lon="8.388765"><ele>129.0</ele><time>2026-04-04T14:56:53.107Z</time></trkpt><trkpt lat="44.920975" lon="8.3886467"><ele>128.75</ele><time>2026-04-04T14:56:54.102Z</time></trkpt><trkpt lat="44.9210617" lon="8.38853"><ele>128.5</ele><time>2026-04-04T14:56:55.104Z</time></trkpt><trkpt lat="44.9211483" lon="8.3884133"><ele>128.25</ele><time>2026-04-04T14:56:56.104Z</time></trkpt><trkpt lat="44.92124" lon="8.38829"><ele>128.0</ele><time>2026-04-04T14:56:57.102Z</time></trkpt><trkpt lat="44.921335" lon="8.3881617"><ele>128.0</ele><time>2026-04-04T14:56:58.105Z</time></trkpt><trkpt lat="44.92143" lon="8.38802"><ele>128.0</ele><time>2026-04-04T14:56:59.101Z</time></trkpt><trkpt lat="44.9215217" lon="8.38787"><ele>128.0</ele><time>2026-04-04T14:57:00.103Z</time></trkpt><trkpt lat="44.9216133" lon="8.3877133"><ele>128.0</ele><time>2026-04-04T14:57:01.104Z</time></trkpt><trkpt lat="44.921705" lon="8.38755"><ele>128.66666666666666</ele><time>2026-04-04T14:57:02.105Z</time></trkpt><trkpt lat="44.9217967" lon="8.387385"><ele>129.33333333333334</ele><time>2026-04-04T14:57:03.103Z</time></trkpt><trkpt lat="44.9218933" lon="8.38722"><ele>130.0</ele><time>2026-04-04T14:57:04.104Z</time></trkpt><trkpt lat="44.92199" lon="8.3870517"><ele>130.0</ele><time>2026-04-04T14:57:05.105Z</time></trkpt><trkpt lat="44.9220867" lon="8.3868867"><ele>130.0</ele><time>2026-04-04T14:57:06.101Z</time></trkpt><trkpt lat="44.922185" lon="8.386725"><ele>130.0</ele><time>2026-04-04T14:57:07.105Z</time></trkpt><trkpt lat="44.9222833" lon="8.3865617"><ele>130.0</ele><time>2026-04-04T14:57:08.103Z</time></trkpt><trkpt lat="44.9223833" lon="8.3864017"><ele>130.0</ele><time>2026-04-04T14:57:09.099Z</time></trkpt><trkpt lat="44.9224867" lon="8.3862467"><ele>130.0</ele><time>2026-04-04T14:57:10.104Z</time></trkpt><trkpt lat="44.9225917" lon="8.3861"><ele>130.33333333333334</ele><time>2026-04-04T14:57:11.104Z</time></trkpt><trkpt lat="44.9227033" lon="8.3859583"><ele>130.66666666666666</ele><time>2026-04-04T14:57:12.104Z</time></trkpt><trkpt lat="44.9228183" lon="8.3858183"><ele>131.0</ele><time>2026-04-04T14:57:13.107Z</time></trkpt><trkpt lat="44.9229317" lon="8.3856817"><ele>131.0</ele><time>2026-04-04T14:57:14.102Z</time></trkpt><trkpt lat="44.9230433" lon="8.385545"><ele>131.0</ele><time>2026-04-04T14:57:15.108Z</time></trkpt><trkpt lat="44.92315" lon="8.3854117"><ele>131.0</ele><time>2026-04-04T14:57:16.11Z</time></trkpt><trkpt lat="44.9232583" lon="8.3852767"><ele>131.0</ele><time>2026-04-04T14:57:17.105Z</time></trkpt><trkpt lat="44.9233633" lon="8.385145"><ele>131.0</ele><time>2026-04-04T14:57:18.105Z</time></trkpt><trkpt lat="44.9234717" lon="8.38502"><ele>131.0</ele><time>2026-04-04T14:57:19.103Z</time></trkpt><trkpt lat="44.923575" lon="8.384895"><ele>131.0</ele><time>2026-04-04T14:57:20.103Z</time></trkpt><trkpt lat="44.923675" lon="8.3847633"><ele>131.0</ele><time>2026-04-04T14:57:21.104Z</time></trkpt><trkpt lat="44.923775" lon="8.3846317"><ele>130.5</ele><time>2026-04-04T14:57:22.1Z</time></trkpt><trkpt lat="44.9238833" lon="8.3845083"><ele>130.0</ele><time>2026-04-04T14:57:23.108Z</time></trkpt><trkpt lat="44.9239733" lon="8.38437"><ele>129.5</ele><time>2026-04-04T14:57:24.105Z</time></trkpt><trkpt lat="44.9240733" lon="8.3842433"><ele>129.0</ele><time>2026-04-04T14:57:25.106Z</time></trkpt><trkpt lat="44.9241733" lon="8.3841217"><ele>129.0</ele><time>2026-04-04T14:57:26.103Z</time></trkpt><trkpt lat="44.9242667" lon="8.383995"><ele>129.0</ele><time>2026-04-04T14:57:27.104Z</time></trkpt><trkpt lat="44.9243617" lon="8.3838783"><ele>129.0</ele><time>2026-04-04T14:57:28.107Z</time></trkpt><trkpt lat="44.9244667" lon="8.38377"><ele>129.0</ele><time>2026-04-04T14:57:29.106Z</time></trkpt><trkpt lat="44.9245533" lon="8.3836483"><ele>129.0</ele><time>2026-04-04T14:57:30.102Z</time></trkpt><trkpt lat="44.9246367" lon="8.38353"><ele>129.0</ele><time>2026-04-04T14:57:31.106Z</time></trkpt><trkpt lat="44.9247133" lon="8.383405"><ele>129.0</ele><time>2026-04-04T14:57:32.101Z</time></trkpt><trkpt lat="44.9247633" lon="8.3832867"><ele>129.0</ele><time>2026-04-04T14:57:33.105Z</time></trkpt><trkpt lat="44.92481" lon="8.3831733"><ele>129.0</ele><time>2026-04-04T14:57:34.105Z</time></trkpt><trkpt lat="44.924835" lon="8.3830367"><ele>129.0</ele><time>2026-04-04T14:57:35.101Z</time></trkpt><trkpt lat="44.92486" lon="8.3828867"><ele>129.0</ele><time>2026-04-04T14:57:36.104Z</time></trkpt><trkpt lat="44.9248933" lon="8.3827317"><ele>129.0</ele><time>2026-04-04T14:57:37.108Z</time></trkpt><trkpt lat="44.9249417" lon="8.38258"><ele>129.0</ele><time>2026-04-04T14:57:38.102Z</time></trkpt><trkpt lat="44.9250017" lon="8.38243"><ele>129.0</ele><time>2026-04-04T14:57:39.103Z</time></trkpt><trkpt lat="44.9250683" lon="8.3822717"><ele>129.0</ele><time>2026-04-04T14:57:40.102Z</time></trkpt><trkpt lat="44.9251467" lon="8.382105"><ele>129.0</ele><time>2026-04-04T14:57:41.101Z</time></trkpt><trkpt lat="44.92523" lon="8.3819283"><ele>129.0</ele><time>2026-04-04T14:57:42.102Z</time></trkpt><trkpt lat="44.92531" lon="8.3817583"><ele>129.0</ele><time>2026-04-04T14:57:43.102Z</time></trkpt><trkpt lat="44.9253967" lon="8.381615"><ele>129.0</ele><time>2026-04-04T14:57:44.106Z</time></trkpt><trkpt lat="44.9255" lon="8.3814917"><ele>129.0</ele><time>2026-04-04T14:57:45.103Z</time></trkpt><trkpt lat="44.9256533" lon="8.3814133"><ele>129.0</ele><time>2026-04-04T14:57:46.106Z</time></trkpt><trkpt lat="44.925805" lon="8.3813567"><ele>130.0</ele><time>2026-04-04T14:57:47.103Z</time></trkpt><trkpt lat="44.9259617" lon="8.38132"><ele>131.0</ele><time>2026-04-04T14:57:48.109Z</time></trkpt><trkpt lat="44.9261333" lon="8.38131"><ele>132.0</ele><time>2026-04-04T14:57:49.107Z</time></trkpt><trkpt lat="44.9262917" lon="8.3813017"><ele>132.0</ele><time>2026-04-04T14:57:50.102Z</time></trkpt><trkpt lat="44.9264567" lon="8.3812967"><ele>132.0</ele><time>2026-04-04T14:57:51.1Z</time></trkpt><trkpt lat="44.9266167" lon="8.38129"><ele>132.0</ele><time>2026-04-04T14:57:52.101Z</time></trkpt><trkpt lat="44.9267733" lon="8.3812817"><ele>132.0</ele><time>2026-04-04T14:57:53.107Z</time></trkpt><trkpt lat="44.926925" lon="8.3812617"><ele>132.0</ele><time>2026-04-04T14:57:54.099Z</time></trkpt><trkpt lat="44.92708" lon="8.3812333"><ele>132.0</ele><time>2026-04-04T14:57:55.111Z</time></trkpt><trkpt lat="44.9272367" lon="8.3811917"><ele>132.0</ele><time>2026-04-04T14:57:56.107Z</time></trkpt><trkpt lat="44.927405" lon="8.3811333"><ele>132.0</ele><time>2026-04-04T14:57:57.103Z</time></trkpt><trkpt lat="44.9275833" lon="8.38105"><ele>132.0</ele><time>2026-04-04T14:57:58.104Z</time></trkpt><trkpt lat="44.9277767" lon="8.3809433"><ele>131.5</ele><time>2026-04-04T14:57:59.104Z</time></trkpt><trkpt lat="44.9279883" lon="8.3808233"><ele>131.0</ele><time>2026-04-04T14:58:00.102Z</time></trkpt><trkpt lat="44.9282067" lon="8.380695"><ele>131.5</ele><time>2026-04-04T14:58:01.106Z</time></trkpt><trkpt lat="44.928435" lon="8.3805533"><ele>132.0</ele><time>2026-04-04T14:58:02.105Z</time></trkpt><trkpt lat="44.9286683" lon="8.380415"><ele>131.0</ele><time>2026-04-04T14:58:03.104Z</time></trkpt><trkpt lat="44.9289" lon="8.38028"><ele>130.0</ele><time>2026-04-04T14:58:04.105Z</time></trkpt><trkpt lat="44.9291283" lon="8.3801433"><ele>129.5</ele><time>2026-04-04T14:58:05.104Z</time></trkpt><trkpt lat="44.9293633" lon="8.38"><ele>129.0</ele><time>2026-04-04T14:58:06.106Z</time></trkpt><trkpt lat="44.9296033" lon="8.379855"><ele>129.0</ele><time>2026-04-04T14:58:07.106Z</time></trkpt><trkpt lat="44.9298383" lon="8.3797117"><ele>129.0</ele><time>2026-04-04T14:58:08.107Z</time></trkpt><trkpt lat="44.9300683" lon="8.379575"><ele>130.0</ele><time>2026-04-04T14:58:09.102Z</time></trkpt><trkpt lat="44.9302867" lon="8.3794467"><ele>131.0</ele><time>2026-04-04T14:58:10.101Z</time></trkpt><trkpt lat="44.9304933" lon="8.3793283"><ele>131.0</ele><time>2026-04-04T14:58:11.104Z</time></trkpt><trkpt lat="44.9306883" lon="8.3792233"><ele>131.0</ele><time>2026-04-04T14:58:12.102Z</time></trkpt><trkpt lat="44.93087" lon="8.3791333"><ele>131.0</ele><time>2026-04-04T14:58:13.101Z</time></trkpt><trkpt lat="44.93104" lon="8.3790517"><ele>130.33333333333331</ele><time>2026-04-04T14:58:14.101Z</time></trkpt><trkpt lat="44.931205" lon="8.3789733"><ele>129.66666666666666</ele><time>2026-04-04T14:58:15.102Z</time></trkpt><trkpt lat="44.9313683" lon="8.3788983"><ele>129.0</ele><time>2026-04-04T14:58:16.103Z</time></trkpt><trkpt lat="44.9315317" lon="8.3788317"><ele>129.0</ele><time>2026-04-04T14:58:17.106Z</time></trkpt><trkpt lat="44.9316933" lon="8.3787767"><ele>129.0</ele><time>2026-04-04T14:58:18.104Z</time></trkpt><trkpt lat="44.931855" lon="8.3787283"><ele>129.0</ele><time>2026-04-04T14:58:19.103Z</time></trkpt><trkpt lat="44.9320133" lon="8.3786833"><ele>130.33333333333334</ele><time>2026-04-04T14:58:20.105Z</time></trkpt><trkpt lat="44.9321667" lon="8.378635"><ele>131.66666666666669</ele><time>2026-04-04T14:58:21.1Z</time></trkpt><trkpt lat="44.9323217" lon="8.3785867"><ele>133.0</ele><time>2026-04-04T14:58:22.1Z</time></trkpt><trkpt lat="44.93247" lon="8.37855"><ele>133.4</ele><time>2026-04-04T14:58:23.103Z</time></trkpt><trkpt lat="44.932605" lon="8.3785183"><ele>133.8</ele><time>2026-04-04T14:58:24.102Z</time></trkpt><trkpt lat="44.9327267" lon="8.3784883"><ele>134.2</ele><time>2026-04-04T14:58:25.102Z</time></trkpt><trkpt lat="44.93282" lon="8.37846"><ele>134.6</ele><time>2026-04-04T14:58:26.104Z</time></trkpt><trkpt lat="44.9328967" lon="8.3784267"><ele>135.0</ele><time>2026-04-04T14:58:27.103Z</time></trkpt><trkpt lat="44.9329583" lon="8.3783933"><ele>135.0</ele><time>2026-04-04T14:58:28.102Z</time></trkpt><trkpt lat="44.93301" lon="8.3782417"><ele>135.0</ele><time>2026-04-04T14:58:30.103Z</time></trkpt><trkpt lat="44.93302" lon="8.378145"><ele>135.0</ele><time>2026-04-04T14:58:31.106Z</time></trkpt><trkpt lat="44.932985" lon="8.3779483"><ele>135.0</ele><time>2026-04-04T14:58:32.103Z</time></trkpt><trkpt lat="44.9329617" lon="8.37776"><ele>134.0</ele><time>2026-04-04T14:58:33.105Z</time></trkpt><trkpt lat="44.93295" lon="8.377565"><ele>133.0</ele><time>2026-04-04T14:58:34.102Z</time></trkpt><trkpt lat="44.93294" lon="8.3773517"><ele>132.0</ele><time>2026-04-04T14:58:35.102Z</time></trkpt><trkpt lat="44.9329333" lon="8.377125"><ele>132.0</ele><time>2026-04-04T14:58:36.099Z</time></trkpt><trkpt lat="44.9329283" lon="8.3768967"><ele>132.0</ele><time>2026-04-04T14:58:37.103Z</time></trkpt><trkpt lat="44.9329267" lon="8.3766667"><ele>132.0</ele><time>2026-04-04T14:58:38.1Z</time></trkpt><trkpt lat="44.932925" lon="8.376435"><ele>132.66666666666666</ele><time>2026-04-04T14:58:39.106Z</time></trkpt><trkpt lat="44.932925" lon="8.376205"><ele>133.33333333333331</ele><time>2026-04-04T14:58:40.103Z</time></trkpt><trkpt lat="44.9329233" lon="8.3759783"><ele>134.0</ele><time>2026-04-04T14:58:41.105Z</time></trkpt><trkpt lat="44.9329217" lon="8.37575"><ele>134.0</ele><time>2026-04-04T14:58:42.103Z</time></trkpt><trkpt lat="44.9329217" lon="8.375525"><ele>134.0</ele><time>2026-04-04T14:58:43.1Z</time></trkpt><trkpt lat="44.9329183" lon="8.3753067"><ele>134.0</ele><time>2026-04-04T14:58:44.102Z</time></trkpt><trkpt lat="44.9329167" lon="8.3751067"><ele>134.25</ele><time>2026-04-04T14:58:45.106Z</time></trkpt><trkpt lat="44.9329133" lon="8.3749233"><ele>134.5</ele><time>2026-04-04T14:58:46.103Z</time></trkpt><trkpt lat="44.9329083" lon="8.3747633"><ele>134.75</ele><time>2026-04-04T14:58:47.103Z</time></trkpt><trkpt lat="44.9328967" lon="8.3746117"><ele>135.0</ele><time>2026-04-04T14:58:48.101Z</time></trkpt><trkpt lat="44.9328633" lon="8.3744767"><ele>135.6</ele><time>2026-04-04T14:58:49.101Z</time></trkpt><trkpt lat="44.9328067" lon="8.37435"><ele>136.2</ele><time>2026-04-04T14:58:50.1Z</time></trkpt><trkpt lat="44.932735" lon="8.3742383"><ele>136.8</ele><time>2026-04-04T14:58:51.101Z</time></trkpt><trkpt lat="44.9326483" lon="8.3741267"><ele>137.4</ele><time>2026-04-04T14:58:52.098Z</time></trkpt><trkpt lat="44.9325633" lon="8.37401"><ele>138.0</ele><time>2026-04-04T14:58:53.103Z</time></trkpt><trkpt lat="44.932475" lon="8.3739083"><ele>138.6</ele><time>2026-04-04T14:58:54.1Z</time></trkpt><trkpt lat="44.932395" lon="8.3738083"><ele>139.20000000000002</ele><time>2026-04-04T14:58:55.103Z</time></trkpt><trkpt lat="44.9323367" lon="8.3736983"><ele>139.8</ele><time>2026-04-04T14:58:56.106Z</time></trkpt><trkpt lat="44.9323067" lon="8.3735617"><ele>140.4</ele><time>2026-04-04T14:58:57.099Z</time></trkpt><trkpt lat="44.9323033" lon="8.373405"><ele>141.0</ele><time>2026-04-04T14:58:58.101Z</time></trkpt><trkpt lat="44.9323317" lon="8.3732533"><ele>141.0</ele><time>2026-04-04T14:58:59.103Z</time></trkpt><trkpt lat="44.9323583" lon="8.373115"><ele>141.0</ele><time>2026-04-04T14:59:00.098Z</time></trkpt><trkpt lat="44.9323783" lon="8.3730033"><ele>141.0</ele><time>2026-04-04T14:59:01.102Z</time></trkpt><trkpt lat="44.932415" lon="8.3728667"><ele>141.0</ele><time>2026-04-04T14:59:03.101Z</time></trkpt><trkpt lat="44.9324333" lon="8.3727667"><ele>141.0</ele><time>2026-04-04T14:59:05.103Z</time></trkpt><trkpt lat="44.932435" lon="8.3726133"><ele>141.25</ele><time>2026-04-04T14:59:07.105Z</time></trkpt><trkpt lat="44.9324433" lon="8.372505"><ele>141.5</ele><time>2026-04-04T14:59:08.102Z</time></trkpt><trkpt lat="44.9324583" lon="8.3723683"><ele>141.75</ele><time>2026-04-04T14:59:09.103Z</time></trkpt><trkpt lat="44.932495" lon="8.372175"><ele>142.0</ele><time>2026-04-04T14:59:10.103Z</time></trkpt><trkpt lat="44.9325283" lon="8.371975"><ele>143.0</ele><time>2026-04-04T14:59:11.1Z</time></trkpt><trkpt lat="44.9325617" lon="8.3717467"><ele>144.0</ele><time>2026-04-04T14:59:12.104Z</time></trkpt><trkpt lat="44.9325983" lon="8.3714983"><ele>145.0</ele><time>2026-04-04T14:59:13.102Z</time></trkpt><trkpt lat="44.9326383" lon="8.37124"><ele>148.0</ele><time>2026-04-04T14:59:14.099Z</time></trkpt><trkpt lat="44.9326767" lon="8.3709767"><ele>151.0</ele><time>2026-04-04T14:59:15.098Z</time></trkpt><trkpt lat="44.9327133" lon="8.37071"><ele>154.0</ele><time>2026-04-04T14:59:16.104Z</time></trkpt><trkpt lat="44.9327533" lon="8.3704467"><ele>154.66666666666669</ele><time>2026-04-04T14:59:17.1Z</time></trkpt><trkpt lat="44.9327933" lon="8.3701883"><ele>155.33333333333334</ele><time>2026-04-04T14:59:18.102Z</time></trkpt><trkpt lat="44.932835" lon="8.369935"><ele>156.0</ele><time>2026-04-04T14:59:19.1Z</time></trkpt><trkpt lat="44.932875" lon="8.3696883"><ele>157.66666666666666</ele><time>2026-04-04T14:59:20.101Z</time></trkpt><trkpt lat="44.9329167" lon="8.3694533"><ele>159.33333333333331</ele><time>2026-04-04T14:59:21.098Z</time></trkpt><trkpt lat="44.9329783" lon="8.3692233"><ele>161.0</ele><time>2026-04-04T14:59:22.105Z</time></trkpt><trkpt lat="44.933065" lon="8.3690017"><ele>161.66666666666666</ele><time>2026-04-04T14:59:23.099Z</time></trkpt><trkpt lat="44.9331717" lon="8.36879"><ele>162.33333333333334</ele><time>2026-04-04T14:59:24.101Z</time></trkpt><trkpt lat="44.9332817" lon="8.3685917"><ele>163.0</ele><time>2026-04-04T14:59:25.102Z</time></trkpt><trkpt lat="44.9333917" lon="8.3683983"><ele>163.0</ele><time>2026-04-04T14:59:26.105Z</time></trkpt><trkpt lat="44.9334917" lon="8.3682"><ele>163.0</ele><time>2026-04-04T14:59:27.103Z</time></trkpt><trkpt lat="44.933575" lon="8.367995"><ele>163.0</ele><time>2026-04-04T14:59:28.101Z</time></trkpt><trkpt lat="44.933635" lon="8.3677733"><ele>163.0</ele><time>2026-04-04T14:59:29.101Z</time></trkpt><trkpt lat="44.93367" lon="8.3675383"><ele>163.0</ele><time>2026-04-04T14:59:30.101Z</time></trkpt><trkpt lat="44.933685" lon="8.367295"><ele>163.0</ele><time>2026-04-04T14:59:31.11Z</time></trkpt><trkpt lat="44.93368" lon="8.3670433"><ele>163.33333333333334</ele><time>2026-04-04T14:59:32.102Z</time></trkpt><trkpt lat="44.9336683" lon="8.3667883"><ele>163.66666666666666</ele><time>2026-04-04T14:59:33.105Z</time></trkpt><trkpt lat="44.9336567" lon="8.3665367"><ele>164.0</ele><time>2026-04-04T14:59:34.104Z</time></trkpt><trkpt lat="44.93364" lon="8.3662783"><ele>164.33333333333331</ele><time>2026-04-04T14:59:35.101Z</time></trkpt><trkpt lat="44.9336233" lon="8.3660183"><ele>164.66666666666666</ele><time>2026-04-04T14:59:36.101Z</time></trkpt><trkpt lat="44.9336067" lon="8.3657567"><ele>165.0</ele><time>2026-04-04T14:59:37.102Z</time></trkpt><trkpt lat="44.9335867" lon="8.3654917"><ele>165.33333333333334</ele><time>2026-04-04T14:59:38.108Z</time></trkpt><trkpt lat="44.9335683" lon="8.3652267"><ele>165.66666666666669</ele><time>2026-04-04T14:59:39.102Z</time></trkpt><trkpt lat="44.93355" lon="8.36496"><ele>166.0</ele><time>2026-04-04T14:59:40.1Z</time></trkpt><trkpt lat="44.9335333" lon="8.3646983"><ele>165.66666666666669</ele><time>2026-04-04T14:59:41.108Z</time></trkpt><trkpt lat="44.9335167" lon="8.3644367"><ele>165.33333333333334</ele><time>2026-04-04T14:59:42.103Z</time></trkpt><trkpt lat="44.9335033" lon="8.3641933"><ele>165.0</ele><time>2026-04-04T14:59:43.106Z</time></trkpt><trkpt lat="44.9334883" lon="8.3639767"><ele>165.75</ele><time>2026-04-04T14:59:44.102Z</time></trkpt><trkpt lat="44.9334683" lon="8.363785"><ele>166.5</ele><time>2026-04-04T14:59:45.101Z</time></trkpt><trkpt lat="44.93344" lon="8.3636033"><ele>167.25</ele><time>2026-04-04T14:59:46.102Z</time></trkpt><trkpt lat="44.9333883" lon="8.3634217"><ele>168.0</ele><time>2026-04-04T14:59:47.102Z</time></trkpt><trkpt lat="44.9333117" lon="8.3632383"><ele>169.33333333333334</ele><time>2026-04-04T14:59:48.099Z</time></trkpt><trkpt lat="44.9332083" lon="8.363045"><ele>170.66666666666669</ele><time>2026-04-04T14:59:49.102Z</time></trkpt><trkpt lat="44.9331017" lon="8.3628483"><ele>172.0</ele><time>2026-04-04T14:59:50.103Z</time></trkpt><trkpt lat="44.932985" lon="8.362645"><ele>173.0</ele><time>2026-04-04T14:59:51.1Z</time></trkpt><trkpt lat="44.932865" lon="8.36244"><ele>174.0</ele><time>2026-04-04T14:59:52.102Z</time></trkpt><trkpt lat="44.932745" lon="8.3622283"><ele>175.0</ele><time>2026-04-04T14:59:53.103Z</time></trkpt><trkpt lat="44.9326233" lon="8.3620133"><ele>174.33333333333334</ele><time>2026-04-04T14:59:54.107Z</time></trkpt><trkpt lat="44.9325" lon="8.361795"><ele>173.66666666666666</ele><time>2026-04-04T14:59:55.101Z</time></trkpt><trkpt lat="44.9323733" lon="8.36158"><ele>173.0</ele><time>2026-04-04T14:59:56.104Z</time></trkpt><trkpt lat="44.93225" lon="8.36137"><ele>170.33333333333331</ele><time>2026-04-04T14:59:57.101Z</time></trkpt><trkpt lat="44.932145" lon="8.3611417"><ele>167.66666666666666</ele><time>2026-04-04T14:59:58.098Z</time></trkpt><trkpt lat="44.932065" lon="8.3608917"><ele>165.0</ele><time>2026-04-04T14:59:59.104Z</time></trkpt><trkpt lat="44.9320117" lon="8.3606283"><ele>165.33333333333334</ele><time>2026-04-04T15:00:00.098Z</time></trkpt><trkpt lat="44.9319567" lon="8.3603517"><ele>165.66666666666669</ele><time>2026-04-04T15:00:01.111Z</time></trkpt><trkpt lat="44.9318967" lon="8.360075"><ele>166.0</ele><time>2026-04-04T15:00:02.104Z</time></trkpt><trkpt lat="44.9318383" lon="8.3598"><ele>165.66666666666669</ele><time>2026-04-04T15:00:03.1Z</time></trkpt><trkpt lat="44.9317783" lon="8.359535"><ele>165.33333333333334</ele><time>2026-04-04T15:00:04.101Z</time></trkpt><trkpt lat="44.9317167" lon="8.3592817"><ele>165.0</ele><time>2026-04-04T15:00:05.104Z</time></trkpt><trkpt lat="44.9316683" lon="8.3590317"><ele>161.33333333333334</ele><time>2026-04-04T15:00:06.1Z</time></trkpt><trkpt lat="44.9316333" lon="8.358775"><ele>157.66666666666669</ele><time>2026-04-04T15:00:07.105Z</time></trkpt><trkpt lat="44.9316167" lon="8.3585233"><ele>154.0</ele><time>2026-04-04T15:00:08.108Z</time></trkpt><trkpt lat="44.9316167" lon="8.3582783"><ele>154.0</ele><time>2026-04-04T15:00:09.102Z</time></trkpt><trkpt lat="44.9316267" lon="8.3580217"><ele>154.0</ele><time>2026-04-04T15:00:10.105Z</time></trkpt><trkpt lat="44.9316417" lon="8.3577683"><ele>154.0</ele><time>2026-04-04T15:00:11.104Z</time></trkpt><trkpt lat="44.9316433" lon="8.3575133"><ele>154.0</ele><time>2026-04-04T15:00:12.105Z</time></trkpt><trkpt lat="44.9316383" lon="8.3572567"><ele>154.0</ele><time>2026-04-04T15:00:13.105Z</time></trkpt><trkpt lat="44.9316317" lon="8.35701"><ele>154.0</ele><time>2026-04-04T15:00:14.106Z</time></trkpt><trkpt lat="44.9316233" lon="8.3567783"><ele>153.25</ele><time>2026-04-04T15:00:15.1Z</time></trkpt><trkpt lat="44.9316133" lon="8.356565"><ele>152.5</ele><time>2026-04-04T15:00:16.099Z</time></trkpt><trkpt lat="44.9316017" lon="8.3563667"><ele>151.75</ele><time>2026-04-04T15:00:17.104Z</time></trkpt><trkpt lat="44.931585" lon="8.3561767"><ele>151.0</ele><time>2026-04-04T15:00:18.102Z</time></trkpt><trkpt lat="44.9315583" lon="8.3559817"><ele>149.75</ele><time>2026-04-04T15:00:19.103Z</time></trkpt><trkpt lat="44.93152" lon="8.3558"><ele>148.5</ele><time>2026-04-04T15:00:20.103Z</time></trkpt><trkpt lat="44.9314683" lon="8.3556233"><ele>147.25</ele><time>2026-04-04T15:00:21.099Z</time></trkpt><trkpt lat="44.9314067" lon="8.3554533"><ele>146.0</ele><time>2026-04-04T15:00:22.1Z</time></trkpt><trkpt lat="44.93134" lon="8.3552983"><ele>145.25</ele><time>2026-04-04T15:00:23.101Z</time></trkpt><trkpt lat="44.9312767" lon="8.3551483"><ele>144.5</ele><time>2026-04-04T15:00:24.099Z</time></trkpt><trkpt lat="44.93122" lon="8.3550033"><ele>143.75</ele><time>2026-04-04T15:00:25.108Z</time></trkpt><trkpt lat="44.9311633" lon="8.3548583"><ele>143.0</ele><time>2026-04-04T15:00:26.099Z</time></trkpt><trkpt lat="44.931105" lon="8.3547133"><ele>141.5</ele><time>2026-04-04T15:00:27.1Z</time></trkpt><trkpt lat="44.9310417" lon="8.35456"><ele>140.0</ele><time>2026-04-04T15:00:28.1Z</time></trkpt><trkpt lat="44.9309717" lon="8.3544"><ele>138.5</ele><time>2026-04-04T15:00:29.11Z</time></trkpt><trkpt lat="44.9309033" lon="8.3542333"><ele>137.0</ele><time>2026-04-04T15:00:30.1Z</time></trkpt><trkpt lat="44.9308333" lon="8.3540533"><ele>136.0</ele><time>2026-04-04T15:00:31.105Z</time></trkpt><trkpt lat="44.9307733" lon="8.3538567"><ele>135.0</ele><time>2026-04-04T15:00:32.099Z</time></trkpt><trkpt lat="44.9307167" lon="8.3536517"><ele>134.0</ele><time>2026-04-04T15:00:33.099Z</time></trkpt><trkpt lat="44.9306633" lon="8.3534367"><ele>134.0</ele><time>2026-04-04T15:00:34.099Z</time></trkpt><trkpt lat="44.9306183" lon="8.3532067"><ele>134.0</ele><time>2026-04-04T15:00:35.106Z</time></trkpt><trkpt lat="44.930575" lon="8.35294"><ele>134.0</ele><time>2026-04-04T15:00:36.099Z</time></trkpt><trkpt lat="44.9305283" lon="8.352635"><ele>134.5</ele><time>2026-04-04T15:00:37.106Z</time></trkpt><trkpt lat="44.930475" lon="8.3522883"><ele>135.0</ele><time>2026-04-04T15:00:38.099Z</time></trkpt><trkpt lat="44.9304183" lon="8.3519217"><ele>135.5</ele><time>2026-04-04T15:00:39.1Z</time></trkpt><trkpt lat="44.93036" lon="8.3515583"><ele>136.0</ele><time>2026-04-04T15:00:40.102Z</time></trkpt><trkpt lat="44.9302967" lon="8.3511917"><ele>135.5</ele><time>2026-04-04T15:00:41.101Z</time></trkpt><trkpt lat="44.9302333" lon="8.3508333"><ele>135.0</ele><time>2026-04-04T15:00:42.101Z</time></trkpt><trkpt lat="44.9301733" lon="8.3504867"><ele>135.0</ele><time>2026-04-04T15:00:43.103Z</time></trkpt><trkpt lat="44.930115" lon="8.3501533"><ele>135.0</ele><time>2026-04-04T15:00:44.106Z</time></trkpt><trkpt lat="44.9300617" lon="8.3498383"><ele>136.33333333333334</ele><time>2026-04-04T15:00:45.104Z</time></trkpt><trkpt lat="44.9300083" lon="8.3495367"><ele>137.66666666666669</ele><time>2026-04-04T15:00:46.102Z</time></trkpt><trkpt lat="44.9299633" lon="8.3492583"><ele>139.0</ele><time>2026-04-04T15:00:47.101Z</time></trkpt><trkpt lat="44.9299267" lon="8.3490133"><ele>139.25</ele><time>2026-04-04T15:00:48.101Z</time></trkpt><trkpt lat="44.929895" lon="8.3487983"><ele>139.5</ele><time>2026-04-04T15:00:49.103Z</time></trkpt><trkpt lat="44.92989" lon="8.348615"><ele>139.75</ele><time>2026-04-04T15:00:50.102Z</time></trkpt><trkpt lat="44.9299017" lon="8.3484633"><ele>140.0</ele><time>2026-04-04T15:00:51.1Z</time></trkpt><trkpt lat="44.9299183" lon="8.3483433"><ele>140.0</ele><time>2026-04-04T15:00:52.105Z</time></trkpt><trkpt lat="44.9299367" lon="8.34824"><ele>140.0</ele><time>2026-04-04T15:00:53.106Z</time></trkpt><trkpt lat="44.9299467" lon="8.3481517"><ele>140.0</ele><time>2026-04-04T15:00:54.101Z</time></trkpt><trkpt lat="44.9298783" lon="8.3481183"><ele>140.0</ele><time>2026-04-04T15:00:56.1Z</time></trkpt><trkpt lat="44.9297567" lon="8.3482117"><ele>140.0</ele><time>2026-04-04T15:00:58.1Z</time></trkpt><trkpt lat="44.9296667" lon="8.3482783"><ele>140.0</ele><time>2026-04-04T15:00:59.105Z</time></trkpt><trkpt lat="44.9295633" lon="8.3483583"><ele>140.0</ele><time>2026-04-04T15:01:00.099Z</time></trkpt><trkpt lat="44.9294333" lon="8.34846"><ele>140.0</ele><time>2026-04-04T15:01:01.104Z</time></trkpt><trkpt lat="44.9292717" lon="8.3485667"><ele>140.0</ele><time>2026-04-04T15:01:02.104Z</time></trkpt><trkpt lat="44.92913" lon="8.3486717"><ele>139.75</ele><time>2026-04-04T15:01:03.103Z</time></trkpt><trkpt lat="44.9290017" lon="8.3487583"><ele>139.5</ele><time>2026-04-04T15:01:04.097Z</time></trkpt><trkpt lat="44.92888" lon="8.348835"><ele>139.25</ele><time>2026-04-04T15:01:05.103Z</time></trkpt><trkpt lat="44.9287483" lon="8.3489033"><ele>139.0</ele><time>2026-04-04T15:01:06.106Z</time></trkpt><trkpt lat="44.92861" lon="8.3489567"><ele>139.0</ele><time>2026-04-04T15:01:07.105Z</time></trkpt><trkpt lat="44.928465" lon="8.3489933"><ele>139.0</ele><time>2026-04-04T15:01:08.105Z</time></trkpt><trkpt lat="44.9283067" lon="8.3490233"><ele>139.0</ele><time>2026-04-04T15:01:09.105Z</time></trkpt><trkpt lat="44.9281483" lon="8.3490617"><ele>139.33333333333334</ele><time>2026-04-04T15:01:10.1Z</time></trkpt><trkpt lat="44.927985" lon="8.3491017"><ele>139.66666666666666</ele><time>2026-04-04T15:01:11.1Z</time></trkpt><trkpt lat="44.9278167" lon="8.3491433"><ele>140.0</ele><time>2026-04-04T15:01:12.104Z</time></trkpt><trkpt lat="44.927655" lon="8.349195"><ele>141.33333333333331</ele><time>2026-04-04T15:01:13.104Z</time></trkpt><trkpt lat="44.9274917" lon="8.3492567"><ele>142.66666666666666</ele><time>2026-04-04T15:01:14.105Z</time></trkpt><trkpt lat="44.927345" lon="8.3493317"><ele>144.0</ele><time>2026-04-04T15:01:15.102Z</time></trkpt><trkpt lat="44.9272167" lon="8.3494167"><ele>144.0</ele><time>2026-04-04T15:01:16.102Z</time></trkpt><trkpt lat="44.9271117" lon="8.34953"><ele>144.0</ele><time>2026-04-04T15:01:17.103Z</time></trkpt><trkpt lat="44.9270217" lon="8.3496717"><ele>144.0</ele><time>2026-04-04T15:01:18.098Z</time></trkpt><trkpt lat="44.9269433" lon="8.3498383"><ele>144.0</ele><time>2026-04-04T15:01:19.104Z</time></trkpt><trkpt lat="44.9268683" lon="8.3500333"><ele>143.5</ele><time>2026-04-04T15:01:20.106Z</time></trkpt><trkpt lat="44.9268017" lon="8.3502233"><ele>143.0</ele><time>2026-04-04T15:01:21.1Z</time></trkpt><trkpt lat="44.92675" lon="8.3503933"><ele>142.5</ele><time>2026-04-04T15:01:22.1Z</time></trkpt><trkpt lat="44.9266817" lon="8.3505283"><ele>142.0</ele><time>2026-04-04T15:01:23.105Z</time></trkpt><trkpt lat="44.926605" lon="8.35064"><ele>142.0</ele><time>2026-04-04T15:01:24.104Z</time></trkpt><trkpt lat="44.926525" lon="8.3507417"><ele>142.0</ele><time>2026-04-04T15:01:25.101Z</time></trkpt><trkpt lat="44.9264183" lon="8.3508183"><ele>142.0</ele><time>2026-04-04T15:01:26.103Z</time></trkpt><trkpt lat="44.9263" lon="8.3508817"><ele>142.0</ele><time>2026-04-04T15:01:27.102Z</time></trkpt><trkpt lat="44.926175" lon="8.3509467"><ele>142.0</ele><time>2026-04-04T15:01:28.102Z</time></trkpt><trkpt lat="44.9260583" lon="8.35104"><ele>142.0</ele><time>2026-04-04T15:01:29.099Z</time></trkpt><trkpt lat="44.9259433" lon="8.3511617"><ele>142.0</ele><time>2026-04-04T15:01:30.104Z</time></trkpt><trkpt lat="44.925845" lon="8.3513383"><ele>142.0</ele><time>2026-04-04T15:01:31.103Z</time></trkpt><trkpt lat="44.9257617" lon="8.3515467"><ele>142.66666666666669</ele><time>2026-04-04T15:01:32.104Z</time></trkpt><trkpt lat="44.9256867" lon="8.3517583"><ele>143.33333333333334</ele><time>2026-04-04T15:01:33.103Z</time></trkpt><trkpt lat="44.9256167" lon="8.3519583"><ele>144.0</ele><time>2026-04-04T15:01:34.102Z</time></trkpt><trkpt lat="44.9255367" lon="8.3521417"><ele>141.75</ele><time>2026-04-04T15:01:35.104Z</time></trkpt><trkpt lat="44.9254617" lon="8.3523267"><ele>139.5</ele><time>2026-04-04T15:01:36.102Z</time></trkpt><trkpt lat="44.925385" lon="8.3525"><ele>137.25</ele><time>2026-04-04T15:01:37.101Z</time></trkpt><trkpt lat="44.925305" lon="8.3526617"><ele>135.0</ele><time>2026-04-04T15:01:38.104Z</time></trkpt><trkpt lat="44.9252317" lon="8.35283"><ele>135.0</ele><time>2026-04-04T15:01:39.102Z</time></trkpt><trkpt lat="44.925155" lon="8.3529983"><ele>135.0</ele><time>2026-04-04T15:01:40.102Z</time></trkpt><trkpt lat="44.9250667" lon="8.3531683"><ele>135.0</ele><time>2026-04-04T15:01:41.103Z</time></trkpt><trkpt lat="44.924975" lon="8.35335"><ele>135.0</ele><time>2026-04-04T15:01:42.108Z</time></trkpt><trkpt lat="44.9248833" lon="8.353555"><ele>134.66666666666666</ele><time>2026-04-04T15:01:43.105Z</time></trkpt><trkpt lat="44.9247833" lon="8.3537717"><ele>134.33333333333331</ele><time>2026-04-04T15:01:44.105Z</time></trkpt><trkpt lat="44.924685" lon="8.3539867"><ele>134.0</ele><time>2026-04-04T15:01:45.1Z</time></trkpt><trkpt lat="44.9245867" lon="8.3541867"><ele>134.66666666666666</ele><time>2026-04-04T15:01:46.104Z</time></trkpt><trkpt lat="44.9244817" lon="8.3543617"><ele>135.33333333333334</ele><time>2026-04-04T15:01:47.104Z</time></trkpt><trkpt lat="44.92436" lon="8.3545217"><ele>136.0</ele><time>2026-04-04T15:01:48.104Z</time></trkpt><trkpt lat="44.9242283" lon="8.354685"><ele>135.0</ele><time>2026-04-04T15:01:49.104Z</time></trkpt><trkpt lat="44.9240883" lon="8.3548383"><ele>134.0</ele><time>2026-04-04T15:01:50.103Z</time></trkpt><trkpt lat="44.92394" lon="8.3549767"><ele>133.0</ele><time>2026-04-04T15:01:51.104Z</time></trkpt><trkpt lat="44.9237917" lon="8.3550917"><ele>133.0</ele><time>2026-04-04T15:01:52.106Z</time></trkpt><trkpt lat="44.9236267" lon="8.35517"><ele>133.0</ele><time>2026-04-04T15:01:53.105Z</time></trkpt><trkpt lat="44.9234483" lon="8.3552133"><ele>133.0</ele><time>2026-04-04T15:01:54.102Z</time></trkpt><trkpt lat="44.9232633" lon="8.3552233"><ele>132.66666666666669</ele><time>2026-04-04T15:01:55.103Z</time></trkpt><trkpt lat="44.92307" lon="8.3552133"><ele>132.33333333333334</ele><time>2026-04-04T15:01:56.101Z</time></trkpt><trkpt lat="44.9228733" lon="8.3551983"><ele>132.0</ele><time>2026-04-04T15:01:57.099Z</time></trkpt><trkpt lat="44.9226817" lon="8.3552167"><ele>131.66666666666666</ele><time>2026-04-04T15:01:58.103Z</time></trkpt><trkpt lat="44.9224817" lon="8.3552517"><ele>131.33333333333331</ele><time>2026-04-04T15:01:59.102Z</time></trkpt><trkpt lat="44.9222733" lon="8.3553217"><ele>131.0</ele><time>2026-04-04T15:02:00.102Z</time></trkpt><trkpt lat="44.92205" lon="8.3554133"><ele>131.0</ele><time>2026-04-04T15:02:01.101Z</time></trkpt><trkpt lat="44.92183" lon="8.3555117"><ele>131.0</ele><time>2026-04-04T15:02:02.105Z</time></trkpt><trkpt lat="44.9216133" lon="8.3556117"><ele>129.66666666666666</ele><time>2026-04-04T15:02:03.103Z</time></trkpt><trkpt lat="44.921405" lon="8.355705"><ele>128.33333333333334</ele><time>2026-04-04T15:02:04.102Z</time></trkpt><trkpt lat="44.921215" lon="8.3557817"><ele>127.0</ele><time>2026-04-04T15:02:05.101Z</time></trkpt><trkpt lat="44.9210417" lon="8.3558483"><ele>127.25</ele><time>2026-04-04T15:02:06.102Z</time></trkpt><trkpt lat="44.92089" lon="8.3559067"><ele>127.5</ele><time>2026-04-04T15:02:07.105Z</time></trkpt><trkpt lat="44.9207533" lon="8.3559667"><ele>127.75</ele><time>2026-04-04T15:02:08.1Z</time></trkpt><trkpt lat="44.92063" lon="8.3560367"><ele>128.0</ele><time>2026-04-04T15:02:09.101Z</time></trkpt><trkpt lat="44.9205167" lon="8.3561167"><ele>128.0</ele><time>2026-04-04T15:02:10.103Z</time></trkpt><trkpt lat="44.9204117" lon="8.35621"><ele>128.0</ele><time>2026-04-04T15:02:11.1Z</time></trkpt><trkpt lat="44.9203067" lon="8.3563117"><ele>128.0</ele><time>2026-04-04T15:02:12.101Z</time></trkpt><trkpt lat="44.9202017" lon="8.356415"><ele>128.0</ele><time>2026-04-04T15:02:13.103Z</time></trkpt><trkpt lat="44.9200933" lon="8.3565183"><ele>128.75</ele><time>2026-04-04T15:02:14.104Z</time></trkpt><trkpt lat="44.9199833" lon="8.3566217"><ele>129.5</ele><time>2026-04-04T15:02:15.1Z</time></trkpt><trkpt lat="44.919865" lon="8.3567267"><ele>130.25</ele><time>2026-04-04T15:02:16.105Z</time></trkpt><trkpt lat="44.9197417" lon="8.3568267"><ele>131.0</ele><time>2026-04-04T15:02:17.102Z</time></trkpt><trkpt lat="44.9196167" lon="8.356935"><ele>131.0</ele><time>2026-04-04T15:02:18.106Z</time></trkpt><trkpt lat="44.9194917" lon="8.3570517"><ele>131.0</ele><time>2026-04-04T15:02:19.099Z</time></trkpt><trkpt lat="44.9193617" lon="8.3571683"><ele>131.0</ele><time>2026-04-04T15:02:20.102Z</time></trkpt><trkpt lat="44.9192217" lon="8.35729"><ele>131.0</ele><time>2026-04-04T15:02:21.1Z</time></trkpt><trkpt lat="44.9190783" lon="8.3574083"><ele>131.0</ele><time>2026-04-04T15:02:22.104Z</time></trkpt><trkpt lat="44.918925" lon="8.3575183"><ele>131.0</ele><time>2026-04-04T15:02:23.1Z</time></trkpt><trkpt lat="44.918765" lon="8.3576183"><ele>131.0</ele><time>2026-04-04T15:02:24.1Z</time></trkpt><trkpt lat="44.9186033" lon="8.3577067"><ele>131.0</ele><time>2026-04-04T15:02:25.098Z</time></trkpt><trkpt lat="44.91844" lon="8.357775"><ele>131.0</ele><time>2026-04-04T15:02:26.103Z</time></trkpt><trkpt lat="44.91828" lon="8.357825"><ele>130.0</ele><time>2026-04-04T15:02:27.104Z</time></trkpt><trkpt lat="44.9181233" lon="8.3578567"><ele>129.0</ele><time>2026-04-04T15:02:28.099Z</time></trkpt><trkpt lat="44.917965" lon="8.3578683"><ele>128.0</ele><time>2026-04-04T15:02:29.106Z</time></trkpt><trkpt lat="44.9177983" lon="8.3578667"><ele>128.0</ele><time>2026-04-04T15:02:30.103Z</time></trkpt><trkpt lat="44.9176283" lon="8.357865"><ele>128.0</ele><time>2026-04-04T15:02:31.107Z</time></trkpt><trkpt lat="44.9174517" lon="8.357865"><ele>128.0</ele><time>2026-04-04T15:02:32.107Z</time></trkpt><trkpt lat="44.917265" lon="8.35787"><ele>128.33333333333331</ele><time>2026-04-04T15:02:33.1Z</time></trkpt><trkpt lat="44.9170683" lon="8.357865"><ele>128.66666666666666</ele><time>2026-04-04T15:02:34.102Z</time></trkpt><trkpt lat="44.9168667" lon="8.3578633"><ele>129.0</ele><time>2026-04-04T15:02:35.102Z</time></trkpt><trkpt lat="44.916665" lon="8.35786"><ele>129.0</ele><time>2026-04-04T15:02:36.103Z</time></trkpt><trkpt lat="44.9164683" lon="8.3578583"><ele>129.0</ele><time>2026-04-04T15:02:37.103Z</time></trkpt><trkpt lat="44.9162667" lon="8.3578583"><ele>129.0</ele><time>2026-04-04T15:02:38.102Z</time></trkpt><trkpt lat="44.9160617" lon="8.357865"><ele>129.33333333333334</ele><time>2026-04-04T15:02:39.099Z</time></trkpt><trkpt lat="44.9158567" lon="8.3578933"><ele>129.66666666666669</ele><time>2026-04-04T15:02:40.1Z</time></trkpt><trkpt lat="44.9156567" lon="8.3579317"><ele>130.0</ele><time>2026-04-04T15:02:41.1Z</time></trkpt><trkpt lat="44.9154567" lon="8.3579767"><ele>130.0</ele><time>2026-04-04T15:02:42.101Z</time></trkpt><trkpt lat="44.9152633" lon="8.3580283"><ele>130.0</ele><time>2026-04-04T15:02:43.1Z</time></trkpt><trkpt lat="44.9150767" lon="8.358095"><ele>130.0</ele><time>2026-04-04T15:02:44.1Z</time></trkpt><trkpt lat="44.9148933" lon="8.358175"><ele>129.66666666666669</ele><time>2026-04-04T15:02:45.099Z</time></trkpt><trkpt lat="44.9147167" lon="8.3582833"><ele>129.33333333333334</ele><time>2026-04-04T15:02:46.1Z</time></trkpt><trkpt lat="44.914535" lon="8.3584117"><ele>129.0</ele><time>2026-04-04T15:02:47.101Z</time></trkpt><trkpt lat="44.9143583" lon="8.3585633"><ele>129.66666666666666</ele><time>2026-04-04T15:02:48.101Z</time></trkpt><trkpt lat="44.91418" lon="8.358735"><ele>130.33333333333331</ele><time>2026-04-04T15:02:49.101Z</time></trkpt><trkpt lat="44.914" lon="8.358925"><ele>131.0</ele><time>2026-04-04T15:02:50.101Z</time></trkpt><trkpt lat="44.9138267" lon="8.359125"><ele>131.0</ele><time>2026-04-04T15:02:51.104Z</time></trkpt><trkpt lat="44.9136583" lon="8.359295"><ele>131.0</ele><time>2026-04-04T15:02:52.104Z</time></trkpt><trkpt lat="44.9135" lon="8.35945"><ele>131.0</ele><time>2026-04-04T15:02:53.102Z</time></trkpt><trkpt lat="44.913335" lon="8.3595667"><ele>131.0</ele><time>2026-04-04T15:02:54.101Z</time></trkpt><trkpt lat="44.9131583" lon="8.3596533"><ele>131.0</ele><time>2026-04-04T15:02:55.103Z</time></trkpt><trkpt lat="44.9129767" lon="8.3597317"><ele>131.0</ele><time>2026-04-04T15:02:56.102Z</time></trkpt><trkpt lat="44.91279" lon="8.3598217"><ele>131.0</ele><time>2026-04-04T15:02:57.102Z</time></trkpt><trkpt lat="44.9125983" lon="8.3599383"><ele>131.0</ele><time>2026-04-04T15:02:58.104Z</time></trkpt><trkpt lat="44.9124083" lon="8.3600833"><ele>131.0</ele><time>2026-04-04T15:02:59.104Z</time></trkpt><trkpt lat="44.9122183" lon="8.3602467"><ele>131.5</ele><time>2026-04-04T15:03:00.104Z</time></trkpt><trkpt lat="44.9120217" lon="8.3604167"><ele>132.0</ele><time>2026-04-04T15:03:01.107Z</time></trkpt><trkpt lat="44.9118217" lon="8.3605983"><ele>129.5</ele><time>2026-04-04T15:03:02.101Z</time></trkpt><trkpt lat="44.9116133" lon="8.360785"><ele>127.0</ele><time>2026-04-04T15:03:03.1Z</time></trkpt><trkpt lat="44.9114" lon="8.3609767"><ele>127.0</ele><time>2026-04-04T15:03:04.104Z</time></trkpt><trkpt lat="44.9111933" lon="8.3611733"><ele>127.0</ele><time>2026-04-04T15:03:05.101Z</time></trkpt><trkpt lat="44.9109967" lon="8.36136"><ele>126.66666666666667</ele><time>2026-04-04T15:03:06.101Z</time></trkpt><trkpt lat="44.9108067" lon="8.3615367"><ele>126.33333333333334</ele><time>2026-04-04T15:03:07.101Z</time></trkpt><trkpt lat="44.9106233" lon="8.3617083"><ele>126.0</ele><time>2026-04-04T15:03:08.105Z</time></trkpt><trkpt lat="44.910445" lon="8.3618783"><ele>126.0</ele><time>2026-04-04T15:03:09.102Z</time></trkpt><trkpt lat="44.9102633" lon="8.36204"><ele>126.0</ele><time>2026-04-04T15:03:10.102Z</time></trkpt><trkpt lat="44.910085" lon="8.3621983"><ele>126.0</ele><time>2026-04-04T15:03:11.104Z</time></trkpt><trkpt lat="44.9099017" lon="8.3623267"><ele>125.66666666666666</ele><time>2026-04-04T15:03:12.105Z</time></trkpt><trkpt lat="44.9097133" lon="8.3624383"><ele>125.33333333333333</ele><time>2026-04-04T15:03:13.102Z</time></trkpt><trkpt lat="44.909525" lon="8.362545"><ele>125.0</ele><time>2026-04-04T15:03:14.101Z</time></trkpt><trkpt lat="44.909335" lon="8.3626483"><ele>127.0</ele><time>2026-04-04T15:03:15.103Z</time></trkpt><trkpt lat="44.909145" lon="8.3627517"><ele>129.0</ele><time>2026-04-04T15:03:16.103Z</time></trkpt><trkpt lat="44.908945" lon="8.3628467"><ele>131.0</ele><time>2026-04-04T15:03:17.102Z</time></trkpt><trkpt lat="44.908745" lon="8.362945"><ele>130.33333333333331</ele><time>2026-04-04T15:03:18.103Z</time></trkpt><trkpt lat="44.9085467" lon="8.363045"><ele>129.66666666666666</ele><time>2026-04-04T15:03:19.104Z</time></trkpt><trkpt lat="44.9083467" lon="8.36315"><ele>129.0</ele><time>2026-04-04T15:03:20.101Z</time></trkpt><trkpt lat="44.9081467" lon="8.3632533"><ele>129.0</ele><time>2026-04-04T15:03:21.102Z</time></trkpt><trkpt lat="44.90795" lon="8.3633683"><ele>129.0</ele><time>2026-04-04T15:03:22.102Z</time></trkpt><trkpt lat="44.9077533" lon="8.363495"><ele>129.0</ele><time>2026-04-04T15:03:23.103Z</time></trkpt><trkpt lat="44.9075733" lon="8.36366"><ele>129.33333333333334</ele><time>2026-04-04T15:03:24.103Z</time></trkpt><trkpt lat="44.9074033" lon="8.363845"><ele>129.66666666666669</ele><time>2026-04-04T15:03:25.105Z</time></trkpt><trkpt lat="44.9072367" lon="8.36404"><ele>130.0</ele><time>2026-04-04T15:03:26.106Z</time></trkpt><trkpt lat="44.9070833" lon="8.3642467"><ele>130.0</ele><time>2026-04-04T15:03:27.107Z</time></trkpt><trkpt lat="44.906935" lon="8.364465"><ele>130.0</ele><time>2026-04-04T15:03:28.108Z</time></trkpt><trkpt lat="44.9067917" lon="8.36469"><ele>130.0</ele><time>2026-04-04T15:03:29.101Z</time></trkpt><trkpt lat="44.9066533" lon="8.3649217"><ele>128.33333333333334</ele><time>2026-04-04T15:03:30.101Z</time></trkpt><trkpt lat="44.90651" lon="8.3651417"><ele>126.66666666666666</ele><time>2026-04-04T15:03:31.103Z</time></trkpt><trkpt lat="44.9063617" lon="8.365355"><ele>125.0</ele><time>2026-04-04T15:03:32.101Z</time></trkpt><trkpt lat="44.9062167" lon="8.3655617"><ele>125.0</ele><time>2026-04-04T15:03:33.103Z</time></trkpt><trkpt lat="44.9060683" lon="8.3657517"><ele>125.0</ele><time>2026-04-04T15:03:34.099Z</time></trkpt><trkpt lat="44.9059033" lon="8.3659267"><ele>125.0</ele><time>2026-04-04T15:03:35.103Z</time></trkpt><trkpt lat="44.9057283" lon="8.36609"><ele>124.33333333333333</ele><time>2026-04-04T15:03:36.102Z</time></trkpt><trkpt lat="44.9055433" lon="8.366245"><ele>123.66666666666666</ele><time>2026-04-04T15:03:37.103Z</time></trkpt><trkpt lat="44.9053583" lon="8.366395"><ele>123.0</ele><time>2026-04-04T15:03:38.104Z</time></trkpt><trkpt lat="44.90518" lon="8.36653"><ele>122.33333333333334</ele><time>2026-04-04T15:03:39.106Z</time></trkpt><trkpt lat="44.9050217" lon="8.366655"><ele>121.66666666666667</ele><time>2026-04-04T15:03:40.106Z</time></trkpt><trkpt lat="44.90488" lon="8.3667617"><ele>121.0</ele><time>2026-04-04T15:03:41.103Z</time></trkpt><trkpt lat="44.9047467" lon="8.36684"><ele>121.0</ele><time>2026-04-04T15:03:42.105Z</time></trkpt><trkpt lat="44.9046167" lon="8.3668867"><ele>121.0</ele><time>2026-04-04T15:03:43.101Z</time></trkpt><trkpt lat="44.9044867" lon="8.3669133"><ele>121.0</ele><time>2026-04-04T15:03:44.101Z</time></trkpt><trkpt lat="44.9043483" lon="8.3669383"><ele>121.0</ele><time>2026-04-04T15:03:45.103Z</time></trkpt><trkpt lat="44.9041933" lon="8.3669633"><ele>121.0</ele><time>2026-04-04T15:03:46.103Z</time></trkpt><trkpt lat="44.9040333" lon="8.3669683"><ele>121.0</ele><time>2026-04-04T15:03:47.102Z</time></trkpt><trkpt lat="44.9038667" lon="8.3669667"><ele>121.0</ele><time>2026-04-04T15:03:48.1Z</time></trkpt><trkpt lat="44.9036867" lon="8.3669717"><ele>121.0</ele><time>2026-04-04T15:03:49.105Z</time></trkpt><trkpt lat="44.9034917" lon="8.3669767"><ele>121.0</ele><time>2026-04-04T15:03:50.1Z</time></trkpt><trkpt lat="44.90329" lon="8.36699"><ele>121.0</ele><time>2026-04-04T15:03:51.099Z</time></trkpt><trkpt lat="44.9030867" lon="8.367015"><ele>120.33333333333334</ele><time>2026-04-04T15:03:52.103Z</time></trkpt><trkpt lat="44.9028733" lon="8.3670367"><ele>119.66666666666666</ele><time>2026-04-04T15:03:53.102Z</time></trkpt><trkpt lat="44.9026567" lon="8.3670533"><ele>119.0</ele><time>2026-04-04T15:03:54.104Z</time></trkpt><trkpt lat="44.902445" lon="8.3670733"><ele>119.0</ele><time>2026-04-04T15:03:55.101Z</time></trkpt><trkpt lat="44.902245" lon="8.3670883"><ele>119.0</ele><time>2026-04-04T15:03:56.103Z</time></trkpt><trkpt lat="44.9020517" lon="8.3671"><ele>119.0</ele><time>2026-04-04T15:03:57.1Z</time></trkpt><trkpt lat="44.9018683" lon="8.3671083"><ele>120.33333333333333</ele><time>2026-04-04T15:03:58.102Z</time></trkpt><trkpt lat="44.9016967" lon="8.3671183"><ele>121.66666666666666</ele><time>2026-04-04T15:03:59.105Z</time></trkpt><trkpt lat="44.9015383" lon="8.36713"><ele>123.0</ele><time>2026-04-04T15:04:00.1Z</time></trkpt><trkpt lat="44.9014067" lon="8.3671383"><ele>123.0</ele><time>2026-04-04T15:04:01.1Z</time></trkpt><trkpt lat="44.9013133" lon="8.3671417"><ele>123.0</ele><time>2026-04-04T15:04:02.102Z</time></trkpt><trkpt lat="44.9012417" lon="8.367145"><ele>123.0</ele><time>2026-04-04T15:04:03.101Z</time></trkpt><trkpt lat="44.9011667" lon="8.3670883"><ele>123.0</ele><time>2026-04-04T15:04:05.106Z</time></trkpt><trkpt lat="44.9011833" lon="8.3669417"><ele>123.0</ele><time>2026-04-04T15:04:07.1Z</time></trkpt><trkpt lat="44.9012033" lon="8.3668467"><ele>123.0</ele><time>2026-04-04T15:04:08.103Z</time></trkpt><trkpt lat="44.9012367" lon="8.3667283"><ele>123.0</ele><time>2026-04-04T15:04:09.104Z</time></trkpt><trkpt lat="44.9012867" lon="8.3665933"><ele>123.0</ele><time>2026-04-04T15:04:10.103Z</time></trkpt><trkpt lat="44.9013583" lon="8.366405"><ele>123.0</ele><time>2026-04-04T15:04:11.103Z</time></trkpt><trkpt lat="44.9014417" lon="8.366205"><ele>123.0</ele><time>2026-04-04T15:04:12.102Z</time></trkpt><trkpt lat="44.90153" lon="8.366"><ele>123.0</ele><time>2026-04-04T15:04:13.104Z</time></trkpt><trkpt lat="44.9016183" lon="8.365805"><ele>123.0</ele><time>2026-04-04T15:04:14.1Z</time></trkpt><trkpt lat="44.901705" lon="8.3656033"><ele>123.0</ele><time>2026-04-04T15:04:15.1Z</time></trkpt><trkpt lat="44.9018" lon="8.3653933"><ele>122.66666666666666</ele><time>2026-04-04T15:04:16.102Z</time></trkpt><trkpt lat="44.901895" lon="8.3651833"><ele>122.33333333333333</ele><time>2026-04-04T15:04:17.103Z</time></trkpt><trkpt lat="44.90199" lon="8.3649733"><ele>122.0</ele><time>2026-04-04T15:04:18.099Z</time></trkpt><trkpt lat="44.9020833" lon="8.364755"><ele>122.66666666666666</ele><time>2026-04-04T15:04:19.106Z</time></trkpt><trkpt lat="44.9021783" lon="8.36454"><ele>123.33333333333334</ele><time>2026-04-04T15:04:20.105Z</time></trkpt><trkpt lat="44.90227" lon="8.364335"><ele>124.0</ele><time>2026-04-04T15:04:21.101Z</time></trkpt><trkpt lat="44.9023533" lon="8.3641383"><ele>124.0</ele><time>2026-04-04T15:04:22.104Z</time></trkpt><trkpt lat="44.9024233" lon="8.36395"><ele>124.0</ele><time>2026-04-04T15:04:23.105Z</time></trkpt><trkpt lat="44.9024767" lon="8.3637683"><ele>124.0</ele><time>2026-04-04T15:04:24.108Z</time></trkpt><trkpt lat="44.90251" lon="8.3635883"><ele>124.0</ele><time>2026-04-04T15:04:25.103Z</time></trkpt><trkpt lat="44.9025217" lon="8.3634067"><ele>125.0</ele><time>2026-04-04T15:04:26.103Z</time></trkpt><trkpt lat="44.902515" lon="8.363225"><ele>126.0</ele><time>2026-04-04T15:04:27.103Z</time></trkpt><trkpt lat="44.9024917" lon="8.3630433"><ele>127.0</ele><time>2026-04-04T15:04:28.101Z</time></trkpt><trkpt lat="44.902455" lon="8.362865"><ele>128.0</ele><time>2026-04-04T15:04:29.102Z</time></trkpt><trkpt lat="44.9024117" lon="8.362695"><ele>128.20000000000002</ele><time>2026-04-04T15:04:30.106Z</time></trkpt><trkpt lat="44.902375" lon="8.36253"><ele>128.4</ele><time>2026-04-04T15:04:31.102Z</time></trkpt><trkpt lat="44.902355" lon="8.3623833"><ele>128.60000000000002</ele><time>2026-04-04T15:04:32.103Z</time></trkpt><trkpt lat="44.9023767" lon="8.3622417"><ele>128.8</ele><time>2026-04-04T15:04:33.1Z</time></trkpt><trkpt lat="44.9024233" lon="8.3620917"><ele>129.0</ele><time>2026-04-04T15:04:34.104Z</time></trkpt><trkpt lat="44.9024817" lon="8.3619317"><ele>128.75</ele><time>2026-04-04T15:04:35.102Z</time></trkpt><trkpt lat="44.9025483" lon="8.36176"><ele>128.5</ele><time>2026-04-04T15:04:36.1Z</time></trkpt><trkpt lat="44.9026133" lon="8.3615867"><ele>128.25</ele><time>2026-04-04T15:04:37.105Z</time></trkpt><trkpt lat="44.9026783" lon="8.3614117"><ele>128.0</ele><time>2026-04-04T15:04:38.1Z</time></trkpt><trkpt lat="44.9027367" lon="8.3612283"><ele>127.33333333333333</ele><time>2026-04-04T15:04:39.098Z</time></trkpt><trkpt lat="44.9027867" lon="8.361035"><ele>126.66666666666666</ele><time>2026-04-04T15:04:40.102Z</time></trkpt><trkpt lat="44.9028217" lon="8.360825"><ele>126.0</ele><time>2026-04-04T15:04:41.107Z</time></trkpt><trkpt lat="44.90285" lon="8.3606083"><ele>126.0</ele><time>2026-04-04T15:04:42.101Z</time></trkpt><trkpt lat="44.902875" lon="8.3603883"><ele>126.0</ele><time>2026-04-04T15:04:43.106Z</time></trkpt><trkpt lat="44.9028967" lon="8.3601717"><ele>126.0</ele><time>2026-04-04T15:04:44.103Z</time></trkpt><trkpt lat="44.9029083" lon="8.3599583"><ele>126.0</ele><time>2026-04-04T15:04:45.099Z</time></trkpt><trkpt lat="44.902895" lon="8.359735"><ele>126.0</ele><time>2026-04-04T15:04:46.106Z</time></trkpt><trkpt lat="44.9028733" lon="8.35951"><ele>126.0</ele><time>2026-04-04T15:04:47.106Z</time></trkpt><trkpt lat="44.90285" lon="8.3592767"><ele>126.33333333333334</ele><time>2026-04-04T15:04:48.101Z</time></trkpt><trkpt lat="44.9028233" lon="8.3590333"><ele>126.66666666666667</ele><time>2026-04-04T15:04:49.105Z</time></trkpt><trkpt lat="44.9027933" lon="8.3587917"><ele>127.0</ele><time>2026-04-04T15:04:50.101Z</time></trkpt><trkpt lat="44.9027633" lon="8.3585667"><ele>128.0</ele><time>2026-04-04T15:04:51.102Z</time></trkpt><trkpt lat="44.9027367" lon="8.3583617"><ele>129.0</ele><time>2026-04-04T15:04:52.103Z</time></trkpt><trkpt lat="44.9027133" lon="8.358175"><ele>130.0</ele><time>2026-04-04T15:04:53.102Z</time></trkpt><trkpt lat="44.9026933" lon="8.3580067"><ele>131.0</ele><time>2026-04-04T15:04:54.105Z</time></trkpt><trkpt lat="44.9026817" lon="8.3578433"><ele>131.0</ele><time>2026-04-04T15:04:55.104Z</time></trkpt><trkpt lat="44.90267" lon="8.3576883"><ele>131.0</ele><time>2026-04-04T15:04:56.102Z</time></trkpt><trkpt lat="44.9026667" lon="8.3575383"><ele>131.0</ele><time>2026-04-04T15:04:57.099Z</time></trkpt><trkpt lat="44.9026683" lon="8.3573983"><ele>131.0</ele><time>2026-04-04T15:04:58.099Z</time></trkpt><trkpt lat="44.9026717" lon="8.3572617"><ele>131.0</ele><time>2026-04-04T15:04:59.097Z</time></trkpt><trkpt lat="44.9026783" lon="8.357135"><ele>131.0</ele><time>2026-04-04T15:05:00.105Z</time></trkpt><trkpt lat="44.902695" lon="8.3570283"><ele>131.0</ele><time>2026-04-04T15:05:01.101Z</time></trkpt><trkpt lat="44.9027" lon="8.3569067"><ele>131.0</ele><time>2026-04-04T15:05:03.104Z</time></trkpt><trkpt lat="44.9027" lon="8.3568067"><ele>131.0</ele><time>2026-04-04T15:05:05.105Z</time></trkpt><trkpt lat="44.9025967" lon="8.3568333"><ele>131.0</ele><time>2026-04-04T15:05:07.105Z</time></trkpt><trkpt lat="44.9025333" lon="8.3568267"><ele>131.0</ele><time>2026-04-04T15:05:08.102Z</time></trkpt><trkpt lat="44.90246" lon="8.356835"><ele>131.16666666666666</ele><time>2026-04-04T15:05:09.103Z</time></trkpt><trkpt lat="44.9023817" lon="8.3568333"><ele>131.33333333333331</ele><time>2026-04-04T15:05:10.106Z</time></trkpt><trkpt lat="44.9022933" lon="8.356855"><ele>131.5</ele><time>2026-04-04T15:05:11.101Z</time></trkpt><trkpt lat="44.9022017" lon="8.35688"><ele>131.66666666666666</ele><time>2026-04-04T15:05:12.103Z</time></trkpt><trkpt lat="44.902115" lon="8.356895"><ele>131.83333333333334</ele><time>2026-04-04T15:05:13.102Z</time></trkpt><trkpt lat="44.9020267" lon="8.3569083"><ele>132.0</ele><time>2026-04-04T15:05:14.099Z</time></trkpt><trkpt lat="44.9019333" lon="8.3569217"><ele>132.0</ele><time>2026-04-04T15:05:15.098Z</time></trkpt><trkpt lat="44.901835" lon="8.356955"><ele>132.0</ele><time>2026-04-04T15:05:16.103Z</time></trkpt><trkpt lat="44.90174" lon="8.3569783"><ele>132.0</ele><time>2026-04-04T15:05:17.105Z</time></trkpt><trkpt lat="44.9016467" lon="8.3570067"><ele>132.0</ele><time>2026-04-04T15:05:18.1Z</time></trkpt><trkpt lat="44.9015583" lon="8.357035"><ele>132.0</ele><time>2026-04-04T15:05:19.101Z</time></trkpt><trkpt lat="44.9014767" lon="8.35706"><ele>131.16666666666666</ele><time>2026-04-04T15:05:20.1Z</time></trkpt><trkpt lat="44.9014133" lon="8.3570833"><ele>130.33333333333334</ele><time>2026-04-04T15:05:21.101Z</time></trkpt><trkpt lat="44.9013467" lon="8.3571033"><ele>129.5</ele><time>2026-04-04T15:05:22.099Z</time></trkpt><trkpt lat="44.9012733" lon="8.357135"><ele>128.66666666666669</ele><time>2026-04-04T15:05:23.105Z</time></trkpt><trkpt lat="44.9011817" lon="8.3571783"><ele>127.83333333333334</ele><time>2026-04-04T15:05:24.101Z</time></trkpt><trkpt lat="44.901065" lon="8.3572233"><ele>127.0</ele><time>2026-04-04T15:05:25.107Z</time></trkpt><trkpt lat="44.900945" lon="8.3572717"><ele>127.5</ele><time>2026-04-04T15:05:26.099Z</time></trkpt><trkpt lat="44.9008233" lon="8.3573117"><ele>128.0</ele><time>2026-04-04T15:05:27.098Z</time></trkpt><trkpt lat="44.9007" lon="8.35734"><ele>128.5</ele><time>2026-04-04T15:05:28.105Z</time></trkpt><trkpt lat="44.9005767" lon="8.3573533"><ele>129.0</ele><time>2026-04-04T15:05:29.101Z</time></trkpt><trkpt lat="44.9004483" lon="8.3573533"><ele>129.0</ele><time>2026-04-04T15:05:30.103Z</time></trkpt><trkpt lat="44.9003217" lon="8.3573467"><ele>129.0</ele><time>2026-04-04T15:05:31.103Z</time></trkpt><trkpt lat="44.9002033" lon="8.3573417"><ele>129.0</ele><time>2026-04-04T15:05:32.103Z</time></trkpt><trkpt lat="44.9000833" lon="8.3573567"><ele>129.0</ele><time>2026-04-04T15:05:33.103Z</time></trkpt><trkpt lat="44.899965" lon="8.35739"><ele>131.33333333333334</ele><time>2026-04-04T15:05:34.1Z</time></trkpt><trkpt lat="44.899865" lon="8.3574467"><ele>133.66666666666666</ele><time>2026-04-04T15:05:35.103Z</time></trkpt><trkpt lat="44.89978" lon="8.3574967"><ele>136.0</ele><time>2026-04-04T15:05:36.101Z</time></trkpt><trkpt lat="44.8996983" lon="8.3575283"><ele>138.33333333333331</ele><time>2026-04-04T15:05:37.104Z</time></trkpt><trkpt lat="44.89962" lon="8.3575517"><ele>140.66666666666666</ele><time>2026-04-04T15:05:38.104Z</time></trkpt><trkpt lat="44.8995567" lon="8.3575233"><ele>143.0</ele><time>2026-04-04T15:05:39.103Z</time></trkpt><trkpt lat="44.8994983" lon="8.3574333"><ele>143.0</ele><time>2026-04-04T15:05:40.101Z</time></trkpt><trkpt lat="44.89944" lon="8.3573367"><ele>143.0</ele><time>2026-04-04T15:05:41.104Z</time></trkpt><trkpt lat="44.8993617" lon="8.3572417"><ele>143.0</ele><time>2026-04-04T15:05:42.101Z</time></trkpt><trkpt lat="44.8992867" lon="8.3571"><ele>143.0</ele><time>2026-04-04T15:05:43.106Z</time></trkpt><trkpt lat="44.8992033" lon="8.3569533"><ele>144.25</ele><time>2026-04-04T15:05:44.102Z</time></trkpt><trkpt lat="44.8991067" lon="8.3568267"><ele>145.5</ele><time>2026-04-04T15:05:45.1Z</time></trkpt><trkpt lat="44.899" lon="8.3567183"><ele>146.75</ele><time>2026-04-04T15:05:46.103Z</time></trkpt><trkpt lat="44.898885" lon="8.3566167"><ele>148.0</ele><time>2026-04-04T15:05:47.103Z</time></trkpt><trkpt lat="44.8987617" lon="8.3565133"><ele>148.0</ele><time>2026-04-04T15:05:48.108Z</time></trkpt><trkpt lat="44.8986433" lon="8.3563783"><ele>148.0</ele><time>2026-04-04T15:05:49.103Z</time></trkpt><trkpt lat="44.8985267" lon="8.3562483"><ele>148.0</ele><time>2026-04-04T15:05:50.104Z</time></trkpt><trkpt lat="44.898395" lon="8.35615"><ele>151.0</ele><time>2026-04-04T15:05:51.099Z</time></trkpt><trkpt lat="44.8982667" lon="8.3560833"><ele>154.0</ele><time>2026-04-04T15:05:52.105Z</time></trkpt><trkpt lat="44.8981517" lon="8.3560117"><ele>157.0</ele><time>2026-04-04T15:05:53.101Z</time></trkpt><trkpt lat="44.8980383" lon="8.355945"><ele>160.0</ele><time>2026-04-04T15:05:54.104Z</time></trkpt><trkpt lat="44.897925" lon="8.355885"><ele>160.0</ele><time>2026-04-04T15:05:55.106Z</time></trkpt><trkpt lat="44.897815" lon="8.3558267"><ele>160.0</ele><time>2026-04-04T15:05:56.099Z</time></trkpt><trkpt lat="44.8977067" lon="8.3557767"><ele>160.0</ele><time>2026-04-04T15:05:57.104Z</time></trkpt><trkpt lat="44.8976017" lon="8.3557483"><ele>160.0</ele><time>2026-04-04T15:05:58.103Z</time></trkpt><trkpt lat="44.8975083" lon="8.35573"><ele>160.0</ele><time>2026-04-04T15:05:59.106Z</time></trkpt><trkpt lat="44.8974333" lon="8.35571"><ele>161.0</ele><time>2026-04-04T15:06:00.105Z</time></trkpt><trkpt lat="44.897365" lon="8.3556867"><ele>162.0</ele><time>2026-04-04T15:06:01.105Z</time></trkpt><trkpt lat="44.89727" lon="8.35564"><ele>163.0</ele><time>2026-04-04T15:06:03.101Z</time></trkpt><trkpt lat="44.8972133" lon="8.3555667"><ele>164.0</ele><time>2026-04-04T15:06:05.106Z</time></trkpt><trkpt lat="44.8971517" lon="8.3554133"><ele>165.0</ele><time>2026-04-04T15:06:07.101Z</time></trkpt><trkpt lat="44.8971317" lon="8.3553017"><ele>165.4</ele><time>2026-04-04T15:06:08.104Z</time></trkpt><trkpt lat="44.8971083" lon="8.3551633"><ele>165.8</ele><time>2026-04-04T15:06:09.099Z</time></trkpt><trkpt lat="44.8970933" lon="8.35503"><ele>166.2</ele><time>2026-04-04T15:06:10.101Z</time></trkpt><trkpt lat="44.897065" lon="8.3549167"><ele>166.6</ele><time>2026-04-04T15:06:11.103Z</time></trkpt><trkpt lat="44.8970283" lon="8.3547833"><ele>167.0</ele><time>2026-04-04T15:06:12.099Z</time></trkpt><trkpt lat="44.8969867" lon="8.3546367"><ele>167.0</ele><time>2026-04-04T15:06:13.103Z</time></trkpt><trkpt lat="44.89693" lon="8.3544917"><ele>167.0</ele><time>2026-04-04T15:06:14.104Z</time></trkpt><trkpt lat="44.8968617" lon="8.3543383"><ele>167.0</ele><time>2026-04-04T15:06:15.101Z</time></trkpt><trkpt lat="44.8967867" lon="8.3541683"><ele>167.0</ele><time>2026-04-04T15:06:16.105Z</time></trkpt><trkpt lat="44.8967" lon="8.3539833"><ele>166.66666666666666</ele><time>2026-04-04T15:06:17.103Z</time></trkpt><trkpt lat="44.89661" lon="8.3537983"><ele>166.33333333333334</ele><time>2026-04-04T15:06:18.099Z</time></trkpt><trkpt lat="44.8965183" lon="8.3536083"><ele>166.0</ele><time>2026-04-04T15:06:19.099Z</time></trkpt><trkpt lat="44.896425" lon="8.3534183"><ele>166.0</ele><time>2026-04-04T15:06:20.098Z</time></trkpt><trkpt lat="44.89633" lon="8.3532283"><ele>166.0</ele><time>2026-04-04T15:06:21.101Z</time></trkpt><trkpt lat="44.8962417" lon="8.353045"><ele>166.0</ele><time>2026-04-04T15:06:22.106Z</time></trkpt><trkpt lat="44.8961667" lon="8.3528733"><ele>166.25</ele><time>2026-04-04T15:06:23.103Z</time></trkpt><trkpt lat="44.8961017" lon="8.352695"><ele>166.5</ele><time>2026-04-04T15:06:24.103Z</time></trkpt><trkpt lat="44.8960617" lon="8.3525233"><ele>166.75</ele><time>2026-04-04T15:06:25.102Z</time></trkpt><trkpt lat="44.896035" lon="8.352345"><ele>167.0</ele><time>2026-04-04T15:06:26.1Z</time></trkpt><trkpt lat="44.89602" lon="8.3521717"><ele>166.5</ele><time>2026-04-04T15:06:27.103Z</time></trkpt><trkpt lat="44.8960017" lon="8.3520033"><ele>166.0</ele><time>2026-04-04T15:06:28.101Z</time></trkpt><trkpt lat="44.8959617" lon="8.3518367"><ele>165.5</ele><time>2026-04-04T15:06:29.104Z</time></trkpt><trkpt lat="44.8959017" lon="8.35167"><ele>165.0</ele><time>2026-04-04T15:06:30.099Z</time></trkpt><trkpt lat="44.8958183" lon="8.351505"><ele>163.0</ele><time>2026-04-04T15:06:31.104Z</time></trkpt><trkpt lat="44.8957117" lon="8.3513517"><ele>161.0</ele><time>2026-04-04T15:06:32.102Z</time></trkpt><trkpt lat="44.8955933" lon="8.3512017"><ele>159.0</ele><time>2026-04-04T15:06:33.105Z</time></trkpt><trkpt lat="44.895465" lon="8.35105"><ele>159.0</ele><time>2026-04-04T15:06:34.108Z</time></trkpt><trkpt lat="44.8953433" lon="8.35089"><ele>159.0</ele><time>2026-04-04T15:06:35.099Z</time></trkpt><trkpt lat="44.895235" lon="8.3507183"><ele>159.0</ele><time>2026-04-04T15:06:36.101Z</time></trkpt><trkpt lat="44.8951267" lon="8.3505483"><ele>158.75</ele><time>2026-04-04T15:06:37.107Z</time></trkpt><trkpt lat="44.8950267" lon="8.35038"><ele>158.5</ele><time>2026-04-04T15:06:38.102Z</time></trkpt><trkpt lat="44.894935" lon="8.35022"><ele>158.25</ele><time>2026-04-04T15:06:39.102Z</time></trkpt><trkpt lat="44.8948417" lon="8.3500617"><ele>158.0</ele><time>2026-04-04T15:06:40.098Z</time></trkpt><trkpt lat="44.8947567" lon="8.3499"><ele>158.0</ele><time>2026-04-04T15:06:41.103Z</time></trkpt><trkpt lat="44.8946733" lon="8.3497283"><ele>158.0</ele><time>2026-04-04T15:06:42.107Z</time></trkpt><trkpt lat="44.8945967" lon="8.34954"><ele>158.0</ele><time>2026-04-04T15:06:43.102Z</time></trkpt><trkpt lat="44.89452" lon="8.3493483"><ele>158.0</ele><time>2026-04-04T15:06:44.101Z</time></trkpt><trkpt lat="44.8944367" lon="8.34915"><ele>158.0</ele><time>2026-04-04T15:06:45.103Z</time></trkpt><trkpt lat="44.8943633" lon="8.348955"><ele>158.0</ele><time>2026-04-04T15:06:46.103Z</time></trkpt><trkpt lat="44.8942933" lon="8.3487633"><ele>160.5</ele><time>2026-04-04T15:06:47.102Z</time></trkpt><trkpt lat="44.894225" lon="8.348585"><ele>163.0</ele><time>2026-04-04T15:06:48.099Z</time></trkpt><trkpt lat="44.8941417" lon="8.3484167"><ele>165.5</ele><time>2026-04-04T15:06:49.106Z</time></trkpt><trkpt lat="44.8940533" lon="8.3482633"><ele>168.0</ele><time>2026-04-04T15:06:50.103Z</time></trkpt><trkpt lat="44.8939667" lon="8.348115"><ele>168.5</ele><time>2026-04-04T15:06:51.103Z</time></trkpt><trkpt lat="44.8938867" lon="8.3479783"><ele>169.0</ele><time>2026-04-04T15:06:52.101Z</time></trkpt><trkpt lat="44.8938017" lon="8.3478533"><ele>169.5</ele><time>2026-04-04T15:06:53.103Z</time></trkpt><trkpt lat="44.89372" lon="8.34774"><ele>170.0</ele><time>2026-04-04T15:06:54.105Z</time></trkpt><trkpt lat="44.8936433" lon="8.3476383"><ele>170.0</ele><time>2026-04-04T15:06:55.105Z</time></trkpt><trkpt lat="44.8935633" lon="8.3475433"><ele>170.0</ele><time>2026-04-04T15:06:56.102Z</time></trkpt><trkpt lat="44.8934883" lon="8.3474567"><ele>170.0</ele><time>2026-04-04T15:06:57.103Z</time></trkpt><trkpt lat="44.8934167" lon="8.3473683"><ele>170.0</ele><time>2026-04-04T15:06:58.104Z</time></trkpt><trkpt lat="44.8933533" lon="8.3472783"><ele>170.0</ele><time>2026-04-04T15:06:59.104Z</time></trkpt><trkpt lat="44.89329" lon="8.3471733"><ele>170.8</ele><time>2026-04-04T15:07:00.1Z</time></trkpt><trkpt lat="44.893225" lon="8.3470667"><ele>171.6</ele><time>2026-04-04T15:07:01.106Z</time></trkpt><trkpt lat="44.893175" lon="8.3469633"><ele>172.39999999999998</ele><time>2026-04-04T15:07:02.107Z</time></trkpt><trkpt lat="44.8931333" lon="8.34684"><ele>173.2</ele><time>2026-04-04T15:07:03.101Z</time></trkpt><trkpt lat="44.8930967" lon="8.3466767"><ele>174.0</ele><time>2026-04-04T15:07:04.106Z</time></trkpt><trkpt lat="44.8930733" lon="8.3465033"><ele>174.25</ele><time>2026-04-04T15:07:05.101Z</time></trkpt><trkpt lat="44.8930417" lon="8.3463083"><ele>174.5</ele><time>2026-04-04T15:07:06.105Z</time></trkpt><trkpt lat="44.8930083" lon="8.34611"><ele>174.75</ele><time>2026-04-04T15:07:07.104Z</time></trkpt><trkpt lat="44.8929733" lon="8.3459217"><ele>175.0</ele><time>2026-04-04T15:07:08.102Z</time></trkpt><trkpt lat="44.8929367" lon="8.3457467"><ele>175.0</ele><time>2026-04-04T15:07:09.102Z</time></trkpt><trkpt lat="44.8929133" lon="8.3455833"><ele>175.0</ele><time>2026-04-04T15:07:10.108Z</time></trkpt><trkpt lat="44.8928817" lon="8.3454267"><ele>175.0</ele><time>2026-04-04T15:07:11.101Z</time></trkpt><trkpt lat="44.8928533" lon="8.3452717"><ele>175.0</ele><time>2026-04-04T15:07:12.1Z</time></trkpt><trkpt lat="44.892815" lon="8.345115"><ele>175.0</ele><time>2026-04-04T15:07:13.099Z</time></trkpt><trkpt lat="44.8927883" lon="8.3449533"><ele>175.0</ele><time>2026-04-04T15:07:14.1Z</time></trkpt><trkpt lat="44.8927683" lon="8.3448133"><ele>175.0</ele><time>2026-04-04T15:07:15.103Z</time></trkpt><trkpt lat="44.892755" lon="8.344705"><ele>175.0</ele><time>2026-04-04T15:07:16.1Z</time></trkpt><trkpt lat="44.892745" lon="8.344615"><ele>175.0</ele><time>2026-04-04T15:07:17.102Z</time></trkpt><trkpt lat="44.89273" lon="8.3445183"><ele>175.0</ele><time>2026-04-04T15:07:18.102Z</time></trkpt><trkpt lat="44.8927133" lon="8.3443967"><ele>175.0</ele><time>2026-04-04T15:07:19.102Z</time></trkpt><trkpt lat="44.8926817" lon="8.344245"><ele>175.0</ele><time>2026-04-04T15:07:20.1Z</time></trkpt><trkpt lat="44.8926567" lon="8.3440833"><ele>175.0</ele><time>2026-04-04T15:07:21.1Z</time></trkpt><trkpt lat="44.8926283" lon="8.3439167"><ele>175.0</ele><time>2026-04-04T15:07:22.099Z</time></trkpt><trkpt lat="44.8926017" lon="8.3437483"><ele>175.75</ele><time>2026-04-04T15:07:23.101Z</time></trkpt><trkpt lat="44.8925733" lon="8.343575"><ele>176.5</ele><time>2026-04-04T15:07:24.101Z</time></trkpt><trkpt lat="44.8925483" lon="8.3433917"><ele>177.25</ele><time>2026-04-04T15:07:25.099Z</time></trkpt><trkpt lat="44.8925217" lon="8.343205"><ele>178.0</ele><time>2026-04-04T15:07:26.102Z</time></trkpt><trkpt lat="44.892495" lon="8.3430283"><ele>178.25</ele><time>2026-04-04T15:07:27.102Z</time></trkpt><trkpt lat="44.89247" lon="8.34286"><ele>178.5</ele><time>2026-04-04T15:07:28.101Z</time></trkpt><trkpt lat="44.8924467" lon="8.3426917"><ele>178.75</ele><time>2026-04-04T15:07:29.101Z</time></trkpt><trkpt lat="44.8924217" lon="8.3425233"><ele>179.0</ele><time>2026-04-04T15:07:30.103Z</time></trkpt><trkpt lat="44.8923933" lon="8.34235"><ele>179.25</ele><time>2026-04-04T15:07:31.107Z</time></trkpt><trkpt lat="44.8923667" lon="8.342175"><ele>179.5</ele><time>2026-04-04T15:07:32.1Z</time></trkpt><trkpt lat="44.89233" lon="8.3419933"><ele>179.75</ele><time>2026-04-04T15:07:33.103Z</time></trkpt><trkpt lat="44.892315" lon="8.34181"><ele>180.0</ele><time>2026-04-04T15:07:34.109Z</time></trkpt><trkpt lat="44.892305" lon="8.34162"><ele>180.0</ele><time>2026-04-04T15:07:35.106Z</time></trkpt><trkpt lat="44.8922967" lon="8.3414283"><ele>180.0</ele><time>2026-04-04T15:07:36.102Z</time></trkpt><trkpt lat="44.89229" lon="8.3412267"><ele>180.0</ele><time>2026-04-04T15:07:37.1Z</time></trkpt><trkpt lat="44.8922733" lon="8.3410267"><ele>180.0</ele><time>2026-04-04T15:07:38.103Z</time></trkpt><trkpt lat="44.89226" lon="8.3408367"><ele>179.75</ele><time>2026-04-04T15:07:39.102Z</time></trkpt><trkpt lat="44.89226" lon="8.3406567"><ele>179.5</ele><time>2026-04-04T15:07:40.102Z</time></trkpt><trkpt lat="44.8922733" lon="8.3404717"><ele>179.25</ele><time>2026-04-04T15:07:41.098Z</time></trkpt><trkpt lat="44.8922967" lon="8.3402867"><ele>179.0</ele><time>2026-04-04T15:07:42.1Z</time></trkpt><trkpt lat="44.89233" lon="8.3400917"><ele>179.0</ele><time>2026-04-04T15:07:43.104Z</time></trkpt><trkpt lat="44.8923717" lon="8.3398917"><ele>179.0</ele><time>2026-04-04T15:07:44.105Z</time></trkpt><trkpt lat="44.892425" lon="8.33969"><ele>179.0</ele><time>2026-04-04T15:07:45.1Z</time></trkpt><trkpt lat="44.892475" lon="8.3394817"><ele>178.66666666666666</ele><time>2026-04-04T15:07:46.106Z</time></trkpt><trkpt lat="44.892535" lon="8.339275"><ele>178.33333333333334</ele><time>2026-04-04T15:07:47.107Z</time></trkpt><trkpt lat="44.8926167" lon="8.33908"><ele>178.0</ele><time>2026-04-04T15:07:48.1Z</time></trkpt><trkpt lat="44.8927067" lon="8.3389033"><ele>178.25</ele><time>2026-04-04T15:07:49.102Z</time></trkpt><trkpt lat="44.892795" lon="8.3387417"><ele>178.5</ele><time>2026-04-04T15:07:50.099Z</time></trkpt><trkpt lat="44.8928667" lon="8.3386"><ele>178.75</ele><time>2026-04-04T15:07:51.098Z</time></trkpt><trkpt lat="44.892905" lon="8.3384533"><ele>179.0</ele><time>2026-04-04T15:07:52.1Z</time></trkpt><trkpt lat="44.8929133" lon="8.3382983"><ele>179.0</ele><time>2026-04-04T15:07:53.104Z</time></trkpt><trkpt lat="44.8928917" lon="8.3381233"><ele>179.0</ele><time>2026-04-04T15:07:54.101Z</time></trkpt><trkpt lat="44.8928517" lon="8.3379383"><ele>179.0</ele><time>2026-04-04T15:07:55.105Z</time></trkpt><trkpt lat="44.8928067" lon="8.3377417"><ele>179.0</ele><time>2026-04-04T15:07:56.101Z</time></trkpt><trkpt lat="44.892765" lon="8.3375467"><ele>179.0</ele><time>2026-04-04T15:07:57.105Z</time></trkpt><trkpt lat="44.8927283" lon="8.3373583"><ele>179.0</ele><time>2026-04-04T15:07:58.101Z</time></trkpt><trkpt lat="44.8926983" lon="8.33718"><ele>179.0</ele><time>2026-04-04T15:07:59.1Z</time></trkpt><trkpt lat="44.8926717" lon="8.3370217"><ele>179.0</ele><time>2026-04-04T15:08:00.108Z</time></trkpt><trkpt lat="44.8926567" lon="8.3369033"><ele>179.0</ele><time>2026-04-04T15:08:01.102Z</time></trkpt><trkpt lat="44.892645" lon="8.33681"><ele>179.0</ele><time>2026-04-04T15:08:02.102Z</time></trkpt><trkpt lat="44.8926717" lon="8.3366933"><ele>179.0</ele><time>2026-04-04T15:08:04.098Z</time></trkpt><trkpt lat="44.8927967" lon="8.3366883"><ele>179.0</ele><time>2026-04-04T15:08:06.105Z</time></trkpt><trkpt lat="44.8929167" lon="8.3367367"><ele>179.0</ele><time>2026-04-04T15:08:07.104Z</time></trkpt><trkpt lat="44.8930867" lon="8.336765"><ele>179.0</ele><time>2026-04-04T15:08:08.101Z</time></trkpt><trkpt lat="44.8932283" lon="8.3367533"><ele>179.0</ele><time>2026-04-04T15:08:09.104Z</time></trkpt><trkpt lat="44.8933717" lon="8.3367367"><ele>179.0</ele><time>2026-04-04T15:08:10.101Z</time></trkpt><trkpt lat="44.8935233" lon="8.3367283"><ele>179.0</ele><time>2026-04-04T15:08:11.106Z</time></trkpt><trkpt lat="44.8936883" lon="8.3367433"><ele>178.33333333333331</ele><time>2026-04-04T15:08:12.104Z</time></trkpt><trkpt lat="44.89385" lon="8.3367867"><ele>177.66666666666666</ele><time>2026-04-04T15:08:13.104Z</time></trkpt><trkpt lat="44.8940067" lon="8.3368267"><ele>177.0</ele><time>2026-04-04T15:08:14.101Z</time></trkpt><trkpt lat="44.894165" lon="8.3368567"><ele>177.66666666666666</ele><time>2026-04-04T15:08:15.102Z</time></trkpt><trkpt lat="44.8943217" lon="8.3368633"><ele>178.33333333333331</ele><time>2026-04-04T15:08:16.1Z</time></trkpt><trkpt lat="44.8944767" lon="8.3368333"><ele>179.0</ele><time>2026-04-04T15:08:17.107Z</time></trkpt><trkpt lat="44.894625" lon="8.33677"><ele>179.0</ele><time>2026-04-04T15:08:18.1Z</time></trkpt><trkpt lat="44.8947683" lon="8.33667"><ele>179.0</ele><time>2026-04-04T15:08:19.106Z</time></trkpt><trkpt lat="44.8948983" lon="8.3365267"><ele>179.0</ele><time>2026-04-04T15:08:20.101Z</time></trkpt><trkpt lat="44.895015" lon="8.3363467"><ele>177.66666666666666</ele><time>2026-04-04T15:08:21.108Z</time></trkpt><trkpt lat="44.8951167" lon="8.3361417"><ele>176.33333333333334</ele><time>2026-04-04T15:08:22.107Z</time></trkpt><trkpt lat="44.8952083" lon="8.33592"><ele>175.0</ele><time>2026-04-04T15:08:23.101Z</time></trkpt><trkpt lat="44.8952967" lon="8.3356883"><ele>176.0</ele><time>2026-04-04T15:08:24.1Z</time></trkpt><trkpt lat="44.8953933" lon="8.3354583"><ele>177.0</ele><time>2026-04-04T15:08:25.105Z</time></trkpt><trkpt lat="44.8954933" lon="8.3352267"><ele>178.0</ele><time>2026-04-04T15:08:26.101Z</time></trkpt><trkpt lat="44.8956" lon="8.33499"><ele>178.0</ele><time>2026-04-04T15:08:27.098Z</time></trkpt><trkpt lat="44.8957133" lon="8.3347517"><ele>178.0</ele><time>2026-04-04T15:08:28.103Z</time></trkpt><trkpt lat="44.895835" lon="8.334525"><ele>178.0</ele><time>2026-04-04T15:08:29.104Z</time></trkpt><trkpt lat="44.89598" lon="8.3343167"><ele>178.66666666666669</ele><time>2026-04-04T15:08:30.104Z</time></trkpt><trkpt lat="44.8961333" lon="8.334125"><ele>179.33333333333334</ele><time>2026-04-04T15:08:31.104Z</time></trkpt><trkpt lat="44.8962883" lon="8.3339367"><ele>180.0</ele><time>2026-04-04T15:08:32.106Z</time></trkpt><trkpt lat="44.896435" lon="8.3337533"><ele>180.0</ele><time>2026-04-04T15:08:33.102Z</time></trkpt><trkpt lat="44.8965583" lon="8.333555"><ele>180.0</ele><time>2026-04-04T15:08:34.105Z</time></trkpt><trkpt lat="44.8966633" lon="8.3333317"><ele>180.0</ele><time>2026-04-04T15:08:35.104Z</time></trkpt><trkpt lat="44.896755" lon="8.3330833"><ele>178.66666666666666</ele><time>2026-04-04T15:08:36.101Z</time></trkpt><trkpt lat="44.89685" lon="8.3328317"><ele>177.33333333333331</ele><time>2026-04-04T15:08:37.103Z</time></trkpt><trkpt lat="44.8969583" lon="8.3325917"><ele>176.0</ele><time>2026-04-04T15:08:38.101Z</time></trkpt><trkpt lat="44.8970817" lon="8.3323617"><ele>177.0</ele><time>2026-04-04T15:08:39.104Z</time></trkpt><trkpt lat="44.8972217" lon="8.3321433"><ele>178.0</ele><time>2026-04-04T15:08:40.105Z</time></trkpt><trkpt lat="44.8973617" lon="8.3319267"><ele>179.0</ele><time>2026-04-04T15:08:41.105Z</time></trkpt><trkpt lat="44.8975083" lon="8.3317167"><ele>178.0</ele><time>2026-04-04T15:08:42.101Z</time></trkpt><trkpt lat="44.8976583" lon="8.33151"><ele>177.0</ele><time>2026-04-04T15:08:43.104Z</time></trkpt><trkpt lat="44.8978083" lon="8.33132"><ele>176.0</ele><time>2026-04-04T15:08:44.102Z</time></trkpt><trkpt lat="44.8979633" lon="8.3311483"><ele>176.0</ele><time>2026-04-04T15:08:45.103Z</time></trkpt><trkpt lat="44.8981233" lon="8.3309967"><ele>176.0</ele><time>2026-04-04T15:08:46.101Z</time></trkpt><trkpt lat="44.898285" lon="8.3308683"><ele>176.0</ele><time>2026-04-04T15:08:47.102Z</time></trkpt><trkpt lat="44.898435" lon="8.3307567"><ele>175.66666666666666</ele><time>2026-04-04T15:08:48.102Z</time></trkpt><trkpt lat="44.8985783" lon="8.3306617"><ele>175.33333333333334</ele><time>2026-04-04T15:08:49.104Z</time></trkpt><trkpt lat="44.8987167" lon="8.3305833"><ele>175.0</ele><time>2026-04-04T15:08:50.098Z</time></trkpt><trkpt lat="44.8988533" lon="8.3305183"><ele>176.75</ele><time>2026-04-04T15:08:51.099Z</time></trkpt><trkpt lat="44.8989867" lon="8.3304617"><ele>178.5</ele><time>2026-04-04T15:08:52.106Z</time></trkpt><trkpt lat="44.8991183" lon="8.3304117"><ele>180.25</ele><time>2026-04-04T15:08:53.102Z</time></trkpt><trkpt lat="44.8992533" lon="8.3303683"><ele>182.0</ele><time>2026-04-04T15:08:54.105Z</time></trkpt><trkpt lat="44.8993867" lon="8.3303267"><ele>182.5</ele><time>2026-04-04T15:08:55.1Z</time></trkpt><trkpt lat="44.8995167" lon="8.3302917"><ele>183.0</ele><time>2026-04-04T15:08:56.101Z</time></trkpt><trkpt lat="44.8996383" lon="8.3302533"><ele>183.5</ele><time>2026-04-04T15:08:57.103Z</time></trkpt><trkpt lat="44.8997533" lon="8.330215"><ele>184.0</ele><time>2026-04-04T15:08:58.105Z</time></trkpt><trkpt lat="44.8998633" lon="8.3301783"><ele>184.0</ele><time>2026-04-04T15:08:59.101Z</time></trkpt><trkpt lat="44.89997" lon="8.3301367"><ele>184.0</ele><time>2026-04-04T15:09:00.101Z</time></trkpt><trkpt lat="44.9000667" lon="8.3300817"><ele>184.0</ele><time>2026-04-04T15:09:01.102Z</time></trkpt><trkpt lat="44.9001583" lon="8.3300083"><ele>184.0</ele><time>2026-04-04T15:09:02.105Z</time></trkpt><trkpt lat="44.9002467" lon="8.3299233"><ele>184.0</ele><time>2026-04-04T15:09:03.101Z</time></trkpt><trkpt lat="44.900345" lon="8.329815"><ele>183.5</ele><time>2026-04-04T15:09:04.099Z</time></trkpt><trkpt lat="44.9004533" lon="8.329695"><ele>183.0</ele><time>2026-04-04T15:09:05.104Z</time></trkpt><trkpt lat="44.900565" lon="8.329575"><ele>182.5</ele><time>2026-04-04T15:09:06.101Z</time></trkpt><trkpt lat="44.9006733" lon="8.329455"><ele>182.0</ele><time>2026-04-04T15:09:07.105Z</time></trkpt><trkpt lat="44.9007683" lon="8.32933"><ele>182.0</ele><time>2026-04-04T15:09:08.103Z</time></trkpt><trkpt lat="44.900845" lon="8.3291783"><ele>182.0</ele><time>2026-04-04T15:09:09.102Z</time></trkpt><trkpt lat="44.9008983" lon="8.328995"><ele>182.0</ele><time>2026-04-04T15:09:10.101Z</time></trkpt><trkpt lat="44.9009333" lon="8.3287883"><ele>182.0</ele><time>2026-04-04T15:09:11.1Z</time></trkpt><trkpt lat="44.900965" lon="8.3285717"><ele>180.66666666666666</ele><time>2026-04-04T15:09:12.099Z</time></trkpt><trkpt lat="44.9010017" lon="8.32835"><ele>179.33333333333334</ele><time>2026-04-04T15:09:13.102Z</time></trkpt><trkpt lat="44.9010433" lon="8.32813"><ele>178.0</ele><time>2026-04-04T15:09:14.103Z</time></trkpt><trkpt lat="44.90109" lon="8.32792"><ele>178.0</ele><time>2026-04-04T15:09:15.102Z</time></trkpt><trkpt lat="44.9011533" lon="8.3277133"><ele>178.0</ele><time>2026-04-04T15:09:16.104Z</time></trkpt><trkpt lat="44.901235" lon="8.327515"><ele>178.0</ele><time>2026-04-04T15:09:17.109Z</time></trkpt><trkpt lat="44.90133" lon="8.327325"><ele>178.5</ele><time>2026-04-04T15:09:18.102Z</time></trkpt><trkpt lat="44.901445" lon="8.3271617"><ele>179.0</ele><time>2026-04-04T15:09:19.107Z</time></trkpt><trkpt lat="44.90156" lon="8.3270267"><ele>179.5</ele><time>2026-04-04T15:09:20.103Z</time></trkpt><trkpt lat="44.90166" lon="8.3269033"><ele>180.0</ele><time>2026-04-04T15:09:21.102Z</time></trkpt><trkpt lat="44.9017583" lon="8.32679"><ele>180.25</ele><time>2026-04-04T15:09:22.102Z</time></trkpt><trkpt lat="44.9018567" lon="8.3266817"><ele>180.5</ele><time>2026-04-04T15:09:23.105Z</time></trkpt><trkpt lat="44.9019517" lon="8.3265733"><ele>180.75</ele><time>2026-04-04T15:09:24.102Z</time></trkpt><trkpt lat="44.9020467" lon="8.3264667"><ele>181.0</ele><time>2026-04-04T15:09:25.104Z</time></trkpt><trkpt lat="44.9021433" lon="8.3263583"><ele>181.0</ele><time>2026-04-04T15:09:26.102Z</time></trkpt><trkpt lat="44.9022467" lon="8.3262483"><ele>181.0</ele><time>2026-04-04T15:09:27.103Z</time></trkpt><trkpt lat="44.9023483" lon="8.3261367"><ele>181.0</ele><time>2026-04-04T15:09:28.101Z</time></trkpt><trkpt lat="44.9024517" lon="8.32603"><ele>181.0</ele><time>2026-04-04T15:09:29.102Z</time></trkpt><trkpt lat="44.9025583" lon="8.3259217"><ele>180.5</ele><time>2026-04-04T15:09:30.101Z</time></trkpt><trkpt lat="44.9026633" lon="8.3258167"><ele>180.0</ele><time>2026-04-04T15:09:31.105Z</time></trkpt><trkpt lat="44.9027667" lon="8.3257083"><ele>179.5</ele><time>2026-04-04T15:09:32.102Z</time></trkpt><trkpt lat="44.90287" lon="8.3256083"><ele>179.0</ele><time>2026-04-04T15:09:33.099Z</time></trkpt><trkpt lat="44.90297" lon="8.3255117"><ele>180.25</ele><time>2026-04-04T15:09:34.104Z</time></trkpt><trkpt lat="44.9030717" lon="8.3254233"><ele>181.5</ele><time>2026-04-04T15:09:35.1Z</time></trkpt><trkpt lat="44.903175" lon="8.325345"><ele>182.75</ele><time>2026-04-04T15:09:36.104Z</time></trkpt><trkpt lat="44.9032783" lon="8.3252783"><ele>184.0</ele><time>2026-04-04T15:09:37.105Z</time></trkpt><trkpt lat="44.9033817" lon="8.32522"><ele>184.0</ele><time>2026-04-04T15:09:38.101Z</time></trkpt><trkpt lat="44.9034867" lon="8.325165"><ele>184.0</ele><time>2026-04-04T15:09:39.102Z</time></trkpt><trkpt lat="44.9035883" lon="8.3251083"><ele>184.0</ele><time>2026-04-04T15:09:40.098Z</time></trkpt><trkpt lat="44.90369" lon="8.3250467"><ele>184.0</ele><time>2026-04-04T15:09:41.105Z</time></trkpt><trkpt lat="44.9037933" lon="8.3249767"><ele>184.0</ele><time>2026-04-04T15:09:42.1Z</time></trkpt><trkpt lat="44.9038983" lon="8.3249017"><ele>184.0</ele><time>2026-04-04T15:09:43.103Z</time></trkpt><trkpt lat="44.9040117" lon="8.32483"><ele>184.0</ele><time>2026-04-04T15:09:44.1Z</time></trkpt><trkpt lat="44.9041283" lon="8.324755"><ele>184.0</ele><time>2026-04-04T15:09:45.102Z</time></trkpt><trkpt lat="44.9042433" lon="8.32468"><ele>184.0</ele><time>2026-04-04T15:09:46.104Z</time></trkpt><trkpt lat="44.9043483" lon="8.32461"><ele>182.0</ele><time>2026-04-04T15:09:47.102Z</time></trkpt><trkpt lat="44.9044333" lon="8.3245333"><ele>180.0</ele><time>2026-04-04T15:09:48.106Z</time></trkpt><trkpt lat="44.9045017" lon="8.3244283"><ele>178.0</ele><time>2026-04-04T15:09:49.1Z</time></trkpt><trkpt lat="44.9045617" lon="8.324295"><ele>176.0</ele><time>2026-04-04T15:09:50.104Z</time></trkpt><trkpt lat="44.9046117" lon="8.3241267"><ele>174.0</ele><time>2026-04-04T15:09:51.102Z</time></trkpt><trkpt lat="44.9046517" lon="8.32395"><ele>175.75</ele><time>2026-04-04T15:09:52.104Z</time></trkpt><trkpt lat="44.90469" lon="8.3237733"><ele>177.5</ele><time>2026-04-04T15:09:53.101Z</time></trkpt><trkpt lat="44.9047267" lon="8.3236117"><ele>179.25</ele><time>2026-04-04T15:09:54.1Z</time></trkpt><trkpt lat="44.90476" lon="8.3234567"><ele>181.0</ele><time>2026-04-04T15:09:55.113Z</time></trkpt><trkpt lat="44.9047883" lon="8.3233083"><ele>181.0</ele><time>2026-04-04T15:09:56.101Z</time></trkpt><trkpt lat="44.9048167" lon="8.3231667"><ele>181.0</ele><time>2026-04-04T15:09:57.106Z</time></trkpt><trkpt lat="44.9048467" lon="8.3230283"><ele>181.0</ele><time>2026-04-04T15:09:58.1Z</time></trkpt><trkpt lat="44.904875" lon="8.3228917"><ele>181.0</ele><time>2026-04-04T15:09:59.104Z</time></trkpt><trkpt lat="44.9049" lon="8.3227617"><ele>181.0</ele><time>2026-04-04T15:10:00.103Z</time></trkpt><trkpt lat="44.9049233" lon="8.32264"><ele>182.0</ele><time>2026-04-04T15:10:01.102Z</time></trkpt><trkpt lat="44.904945" lon="8.322525"><ele>183.0</ele><time>2026-04-04T15:10:02.106Z</time></trkpt><trkpt lat="44.9049633" lon="8.322425"><ele>184.0</ele><time>2026-04-04T15:10:03.1Z</time></trkpt><trkpt lat="44.9049817" lon="8.322335"><ele>185.0</ele><time>2026-04-04T15:10:04.104Z</time></trkpt><trkpt lat="44.9050083" lon="8.3221767"><ele>186.0</ele><time>2026-04-04T15:10:06.105Z</time></trkpt><trkpt lat="44.9050017" lon="8.3220067"><ele>186.16666666666666</ele><time>2026-04-04T15:10:08.102Z</time></trkpt><trkpt lat="44.90497" lon="8.321915"><ele>186.33333333333334</ele><time>2026-04-04T15:10:09.102Z</time></trkpt><trkpt lat="44.90491" lon="8.321805"><ele>186.5</ele><time>2026-04-04T15:10:10.105Z</time></trkpt><trkpt lat="44.9048517" lon="8.3217017"><ele>186.66666666666669</ele><time>2026-04-04T15:10:11.105Z</time></trkpt><trkpt lat="44.904785" lon="8.3216083"><ele>186.83333333333334</ele><time>2026-04-04T15:10:12.102Z</time></trkpt><trkpt lat="44.9047267" lon="8.3215117"><ele>187.0</ele><time>2026-04-04T15:10:13.105Z</time></trkpt><trkpt lat="44.90467" lon="8.3214167"><ele>186.83333333333334</ele><time>2026-04-04T15:10:14.099Z</time></trkpt><trkpt lat="44.9046233" lon="8.3213217"><ele>186.66666666666669</ele><time>2026-04-04T15:10:15.102Z</time></trkpt><trkpt lat="44.904575" lon="8.32123"><ele>186.5</ele><time>2026-04-04T15:10:16.102Z</time></trkpt><trkpt lat="44.904525" lon="8.3211433"><ele>186.33333333333334</ele><time>2026-04-04T15:10:17.102Z</time></trkpt><trkpt lat="44.9044633" lon="8.3210633"><ele>186.16666666666666</ele><time>2026-04-04T15:10:18.102Z</time></trkpt><trkpt lat="44.9044017" lon="8.321"><ele>186.0</ele><time>2026-04-04T15:10:19.102Z</time></trkpt><trkpt lat="44.9043467" lon="8.320945"><ele>186.0</ele><time>2026-04-04T15:10:20.106Z</time></trkpt><trkpt lat="44.9042767" lon="8.3208433"><ele>186.0</ele><time>2026-04-04T15:10:22.103Z</time></trkpt><trkpt lat="44.904265" lon="8.3207267"><ele>186.0</ele><time>2026-04-04T15:10:24.105Z</time></trkpt><trkpt lat="44.9043183" lon="8.3206717"><ele>186.0</ele><time>2026-04-04T15:10:25.106Z</time></trkpt><trkpt lat="44.9043733" lon="8.3206217"><ele>186.0</ele><time>2026-04-04T15:10:26.109Z</time></trkpt><trkpt lat="44.9044367" lon="8.3205733"><ele>186.0</ele><time>2026-04-04T15:10:27.103Z</time></trkpt><trkpt lat="44.9044833" lon="8.3204933"><ele>186.60000000000002</ele><time>2026-04-04T15:10:28.102Z</time></trkpt><trkpt lat="44.904515" lon="8.32039"><ele>187.2</ele><time>2026-04-04T15:10:29.101Z</time></trkpt><trkpt lat="44.90454" lon="8.3202783"><ele>187.8</ele><time>2026-04-04T15:10:30.103Z</time></trkpt><trkpt lat="44.9045533" lon="8.32015"><ele>188.39999999999998</ele><time>2026-04-04T15:10:31.1Z</time></trkpt><trkpt lat="44.904545" lon="8.3199967"><ele>189.0</ele><time>2026-04-04T15:10:32.102Z</time></trkpt><trkpt lat="44.9045283" lon="8.31984"><ele>189.2</ele><time>2026-04-04T15:10:33.103Z</time></trkpt><trkpt lat="44.9045183" lon="8.31968"><ele>189.39999999999998</ele><time>2026-04-04T15:10:34.104Z</time></trkpt><trkpt lat="44.9045217" lon="8.3195217"><ele>189.6</ele><time>2026-04-04T15:10:35.105Z</time></trkpt><trkpt lat="44.9045383" lon="8.3193667"><ele>189.8</ele><time>2026-04-04T15:10:36.103Z</time></trkpt><trkpt lat="44.904565" lon="8.31922"><ele>190.0</ele><time>2026-04-04T15:10:37.101Z</time></trkpt><trkpt lat="44.90461" lon="8.31908"><ele>190.0</ele><time>2026-04-04T15:10:38.105Z</time></trkpt><trkpt lat="44.9046683" lon="8.3189433"><ele>190.0</ele><time>2026-04-04T15:10:39.1Z</time></trkpt><trkpt lat="44.9047417" lon="8.3188183"><ele>190.0</ele><time>2026-04-04T15:10:40.101Z</time></trkpt><trkpt lat="44.9048267" lon="8.3187017"><ele>190.0</ele><time>2026-04-04T15:10:41.103Z</time></trkpt><trkpt lat="44.9049217" lon="8.3185967"><ele>190.25</ele><time>2026-04-04T15:10:42.102Z</time></trkpt><trkpt lat="44.90502" lon="8.3184933"><ele>190.5</ele><time>2026-04-04T15:10:43.105Z</time></trkpt><trkpt lat="44.9051133" lon="8.3183917"><ele>190.75</ele><time>2026-04-04T15:10:44.102Z</time></trkpt><trkpt lat="44.9052033" lon="8.3182967"><ele>191.0</ele><time>2026-04-04T15:10:45.105Z</time></trkpt><trkpt lat="44.9052883" lon="8.31821"><ele>190.8</ele><time>2026-04-04T15:10:46.105Z</time></trkpt><trkpt lat="44.90537" lon="8.3181333"><ele>190.60000000000002</ele><time>2026-04-04T15:10:47.1Z</time></trkpt><trkpt lat="44.9054517" lon="8.3180583"><ele>190.4</ele><time>2026-04-04T15:10:48.106Z</time></trkpt><trkpt lat="44.9055333" lon="8.3179833"><ele>190.2</ele><time>2026-04-04T15:10:49.099Z</time></trkpt><trkpt lat="44.90561" lon="8.3178967"><ele>190.0</ele><time>2026-04-04T15:10:50.102Z</time></trkpt><trkpt lat="44.905695" lon="8.3178067"><ele>190.0</ele><time>2026-04-04T15:10:51.101Z</time></trkpt><trkpt lat="44.9057817" lon="8.3177133"><ele>190.0</ele><time>2026-04-04T15:10:52.1Z</time></trkpt><trkpt lat="44.905865" lon="8.31762"><ele>190.0</ele><time>2026-04-04T15:10:53.105Z</time></trkpt><trkpt lat="44.9059517" lon="8.31752"><ele>190.0</ele><time>2026-04-04T15:10:54.1Z</time></trkpt><trkpt lat="44.9060367" lon="8.31742"><ele>190.0</ele><time>2026-04-04T15:10:55.105Z</time></trkpt><trkpt lat="44.9061233" lon="8.317315"><ele>190.4</ele><time>2026-04-04T15:10:56.101Z</time></trkpt><trkpt lat="44.9062083" lon="8.3172183"><ele>190.8</ele><time>2026-04-04T15:10:57.106Z</time></trkpt><trkpt lat="44.9062933" lon="8.3171267"><ele>191.2</ele><time>2026-04-04T15:10:58.107Z</time></trkpt><trkpt lat="44.906375" lon="8.3170417"><ele>191.6</ele><time>2026-04-04T15:10:59.1Z</time></trkpt><trkpt lat="44.9064533" lon="8.3169567"><ele>192.0</ele><time>2026-04-04T15:11:00.101Z</time></trkpt><trkpt lat="44.906525" lon="8.3168683"><ele>192.0</ele><time>2026-04-04T15:11:01.101Z</time></trkpt><trkpt lat="44.9066033" lon="8.3167783"><ele>192.0</ele><time>2026-04-04T15:11:02.103Z</time></trkpt><trkpt lat="44.90669" lon="8.3166833"><ele>192.0</ele><time>2026-04-04T15:11:03.105Z</time></trkpt><trkpt lat="44.9067783" lon="8.31658"><ele>192.0</ele><time>2026-04-04T15:11:04.101Z</time></trkpt><trkpt lat="44.90687" lon="8.3164717"><ele>192.0</ele><time>2026-04-04T15:11:05.098Z</time></trkpt><trkpt lat="44.906965" lon="8.316365"><ele>191.6</ele><time>2026-04-04T15:11:06.099Z</time></trkpt><trkpt lat="44.9070583" lon="8.31626"><ele>191.2</ele><time>2026-04-04T15:11:07.106Z</time></trkpt><trkpt lat="44.907145" lon="8.31616"><ele>190.8</ele><time>2026-04-04T15:11:08.103Z</time></trkpt><trkpt lat="44.9072217" lon="8.3160717"><ele>190.4</ele><time>2026-04-04T15:11:09.105Z</time></trkpt><trkpt lat="44.9072833" lon="8.3160017"><ele>190.0</ele><time>2026-04-04T15:11:10.101Z</time></trkpt><trkpt lat="44.9073333" lon="8.3159417"><ele>190.0</ele><time>2026-04-04T15:11:11.103Z</time></trkpt><trkpt lat="44.90732" lon="8.3158317"><ele>190.0</ele><time>2026-04-04T15:11:17.104Z</time></trkpt><trkpt lat="44.9072067" lon="8.31576"><ele>190.0</ele><time>2026-04-04T15:11:19.103Z</time></trkpt><trkpt lat="44.9071167" lon="8.3157267"><ele>190.0</ele><time>2026-04-04T15:11:20.102Z</time></trkpt><trkpt lat="44.9070217" lon="8.31569"><ele>190.0</ele><time>2026-04-04T15:11:21.106Z</time></trkpt><trkpt lat="44.9069267" lon="8.3156483"><ele>190.0</ele><time>2026-04-04T15:11:22.101Z</time></trkpt><trkpt lat="44.9068267" lon="8.315595"><ele>190.0</ele><time>2026-04-04T15:11:23.103Z</time></trkpt><trkpt lat="44.90673" lon="8.3155317"><ele>190.0</ele><time>2026-04-04T15:11:24.101Z</time></trkpt><trkpt lat="44.906635" lon="8.315455"><ele>190.0</ele><time>2026-04-04T15:11:25.106Z</time></trkpt><trkpt lat="44.9065417" lon="8.3153633"><ele>190.0</ele><time>2026-04-04T15:11:26.101Z</time></trkpt><trkpt lat="44.9064483" lon="8.3152633"><ele>188.75</ele><time>2026-04-04T15:11:27.101Z</time></trkpt><trkpt lat="44.9063533" lon="8.3151583"><ele>187.5</ele><time>2026-04-04T15:11:28.102Z</time></trkpt><trkpt lat="44.9062567" lon="8.3150467"><ele>186.25</ele><time>2026-04-04T15:11:29.102Z</time></trkpt><trkpt lat="44.9061567" lon="8.3149383"><ele>185.0</ele><time>2026-04-04T15:11:30.1Z</time></trkpt><trkpt lat="44.90606" lon="8.3148317"><ele>185.25</ele><time>2026-04-04T15:11:31.101Z</time></trkpt><trkpt lat="44.9059633" lon="8.3147283"><ele>185.5</ele><time>2026-04-04T15:11:32.106Z</time></trkpt><trkpt lat="44.9058667" lon="8.3146233"><ele>185.75</ele><time>2026-04-04T15:11:33.105Z</time></trkpt><trkpt lat="44.9057717" lon="8.314515"><ele>186.0</ele><time>2026-04-04T15:11:34.099Z</time></trkpt><trkpt lat="44.90569" lon="8.314395"><ele>186.0</ele><time>2026-04-04T15:11:35.108Z</time></trkpt><trkpt lat="44.9056267" lon="8.3142517"><ele>186.0</ele><time>2026-04-04T15:11:36.102Z</time></trkpt><trkpt lat="44.9055817" lon="8.314095"><ele>186.0</ele><time>2026-04-04T15:11:37.1Z</time></trkpt><trkpt lat="44.905535" lon="8.3139267"><ele>186.0</ele><time>2026-04-04T15:11:38.103Z</time></trkpt><trkpt lat="44.9054733" lon="8.31376"><ele>184.75</ele><time>2026-04-04T15:11:39.101Z</time></trkpt><trkpt lat="44.9054033" lon="8.3135933"><ele>183.5</ele><time>2026-04-04T15:11:40.103Z</time></trkpt><trkpt lat="44.90533" lon="8.3134217"><ele>182.25</ele><time>2026-04-04T15:11:41.103Z</time></trkpt><trkpt lat="44.9052717" lon="8.313245"><ele>181.0</ele><time>2026-04-04T15:11:42.104Z</time></trkpt><trkpt lat="44.9052233" lon="8.313055"><ele>181.33333333333334</ele><time>2026-04-04T15:11:43.104Z</time></trkpt><trkpt lat="44.9051733" lon="8.3128583"><ele>181.66666666666666</ele><time>2026-04-04T15:11:44.105Z</time></trkpt><trkpt lat="44.9051167" lon="8.31266"><ele>182.0</ele><time>2026-04-04T15:11:45.101Z</time></trkpt><trkpt lat="44.9050467" lon="8.31247"><ele>182.0</ele><time>2026-04-04T15:11:46.1Z</time></trkpt><trkpt lat="44.9049767" lon="8.3122983"><ele>182.0</ele><time>2026-04-04T15:11:47.108Z</time></trkpt><trkpt lat="44.9049017" lon="8.3121367"><ele>182.0</ele><time>2026-04-04T15:11:48.101Z</time></trkpt><trkpt lat="44.90483" lon="8.3119867"><ele>182.0</ele><time>2026-04-04T15:11:49.102Z</time></trkpt><trkpt lat="44.9047517" lon="8.3118417"><ele>181.5</ele><time>2026-04-04T15:11:50.107Z</time></trkpt><trkpt lat="44.9046733" lon="8.3117033"><ele>181.0</ele><time>2026-04-04T15:11:51.103Z</time></trkpt><trkpt lat="44.9045883" lon="8.3115717"><ele>180.5</ele><time>2026-04-04T15:11:52.103Z</time></trkpt><trkpt lat="44.9045017" lon="8.31144"><ele>180.0</ele><time>2026-04-04T15:11:53.105Z</time></trkpt><trkpt lat="44.9044133" lon="8.3113033"><ele>179.0</ele><time>2026-04-04T15:11:54.106Z</time></trkpt><trkpt lat="44.9043283" lon="8.311175"><ele>178.0</ele><time>2026-04-04T15:11:55.104Z</time></trkpt><trkpt lat="44.904245" lon="8.3110483"><ele>177.0</ele><time>2026-04-04T15:11:56.105Z</time></trkpt><trkpt lat="44.904165" lon="8.310915"><ele>176.0</ele><time>2026-04-04T15:11:57.104Z</time></trkpt><trkpt lat="44.9040867" lon="8.3107833"><ele>176.0</ele><time>2026-04-04T15:11:58.104Z</time></trkpt><trkpt lat="44.9040083" lon="8.3106433"><ele>176.0</ele><time>2026-04-04T15:11:59.103Z</time></trkpt><trkpt lat="44.903945" lon="8.31049"><ele>176.0</ele><time>2026-04-04T15:12:00.104Z</time></trkpt><trkpt lat="44.9038883" lon="8.3103333"><ele>176.0</ele><time>2026-04-04T15:12:01.104Z</time></trkpt><trkpt lat="44.903835" lon="8.3101683"><ele>176.25</ele><time>2026-04-04T15:12:02.104Z</time></trkpt><trkpt lat="44.903775" lon="8.3099967"><ele>176.5</ele><time>2026-04-04T15:12:03.102Z</time></trkpt><trkpt lat="44.90371" lon="8.3098233"><ele>176.75</ele><time>2026-04-04T15:12:04.104Z</time></trkpt><trkpt lat="44.9036417" lon="8.3096533"><ele>177.0</ele><time>2026-04-04T15:12:05.107Z</time></trkpt><trkpt lat="44.90357" lon="8.3094833"><ele>176.75</ele><time>2026-04-04T15:12:06.102Z</time></trkpt><trkpt lat="44.9035" lon="8.30931"><ele>176.5</ele><time>2026-04-04T15:12:07.103Z</time></trkpt><trkpt lat="44.9034317" lon="8.3091317"><ele>176.25</ele><time>2026-04-04T15:12:08.102Z</time></trkpt><trkpt lat="44.9033617" lon="8.3089517"><ele>176.0</ele><time>2026-04-04T15:12:09.1Z</time></trkpt><trkpt lat="44.9032917" lon="8.3087683"><ele>175.25</ele><time>2026-04-04T15:12:10.102Z</time></trkpt><trkpt lat="44.9032267" lon="8.3085783"><ele>174.5</ele><time>2026-04-04T15:12:11.107Z</time></trkpt><trkpt lat="44.9031683" lon="8.3083817"><ele>173.75</ele><time>2026-04-04T15:12:12.102Z</time></trkpt><trkpt lat="44.903125" lon="8.3081833"><ele>173.0</ele><time>2026-04-04T15:12:13.098Z</time></trkpt><trkpt lat="44.90309" lon="8.3079867"><ele>172.5</ele><time>2026-04-04T15:12:14.104Z</time></trkpt><trkpt lat="44.9030567" lon="8.3077933"><ele>172.0</ele><time>2026-04-04T15:12:15.103Z</time></trkpt><trkpt lat="44.9030167" lon="8.3076067"><ele>171.5</ele><time>2026-04-04T15:12:16.105Z</time></trkpt><trkpt lat="44.9029733" lon="8.3074383"><ele>171.0</ele><time>2026-04-04T15:12:17.104Z</time></trkpt><trkpt lat="44.902925" lon="8.3072833"><ele>171.5</ele><time>2026-04-04T15:12:18.099Z</time></trkpt><trkpt lat="44.9028717" lon="8.30714"><ele>172.0</ele><time>2026-04-04T15:12:19.107Z</time></trkpt><trkpt lat="44.9028133" lon="8.3070033"><ele>172.5</ele><time>2026-04-04T15:12:20.105Z</time></trkpt><trkpt lat="44.9027533" lon="8.3068667"><ele>173.0</ele><time>2026-04-04T15:12:21.106Z</time></trkpt><trkpt lat="44.90269" lon="8.306735"><ele>173.0</ele><time>2026-04-04T15:12:22.101Z</time></trkpt><trkpt lat="44.9026317" lon="8.3066033"><ele>173.0</ele><time>2026-04-04T15:12:23.102Z</time></trkpt><trkpt lat="44.902575" lon="8.3064767"><ele>173.0</ele><time>2026-04-04T15:12:24.102Z</time></trkpt><trkpt lat="44.9025183" lon="8.306355"><ele>173.0</ele><time>2026-04-04T15:12:25.103Z</time></trkpt><trkpt lat="44.90246" lon="8.3062333"><ele>173.0</ele><time>2026-04-04T15:12:26.102Z</time></trkpt><trkpt lat="44.9024033" lon="8.306115"><ele>172.8</ele><time>2026-04-04T15:12:27.1Z</time></trkpt><trkpt lat="44.9023483" lon="8.3059883"><ele>172.60000000000002</ele><time>2026-04-04T15:12:28.108Z</time></trkpt><trkpt lat="44.9023017" lon="8.3058533"><ele>172.39999999999998</ele><time>2026-04-04T15:12:29.106Z</time></trkpt><trkpt lat="44.9022717" lon="8.3057083"><ele>172.2</ele><time>2026-04-04T15:12:30.101Z</time></trkpt><trkpt lat="44.902245" lon="8.3055567"><ele>172.0</ele><time>2026-04-04T15:12:31.102Z</time></trkpt><trkpt lat="44.9022267" lon="8.3054"><ele>172.0</ele><time>2026-04-04T15:12:32.102Z</time></trkpt><trkpt lat="44.9022" lon="8.30524"><ele>172.0</ele><time>2026-04-04T15:12:33.101Z</time></trkpt><trkpt lat="44.9021717" lon="8.3050833"><ele>172.0</ele><time>2026-04-04T15:12:34.099Z</time></trkpt><trkpt lat="44.9021333" lon="8.304925"><ele>172.0</ele><time>2026-04-04T15:12:35.102Z</time></trkpt><trkpt lat="44.902085" lon="8.3047667"><ele>171.0</ele><time>2026-04-04T15:12:36.101Z</time></trkpt><trkpt lat="44.902035" lon="8.3046117"><ele>170.0</ele><time>2026-04-04T15:12:37.101Z</time></trkpt><trkpt lat="44.9019833" lon="8.30446"><ele>169.0</ele><time>2026-04-04T15:12:38.1Z</time></trkpt><trkpt lat="44.9019333" lon="8.3043233"><ele>168.0</ele><time>2026-04-04T15:12:39.105Z</time></trkpt><trkpt lat="44.9018933" lon="8.304195"><ele>167.0</ele><time>2026-04-04T15:12:40.098Z</time></trkpt><trkpt lat="44.901875" lon="8.3040883"><ele>167.0</ele><time>2026-04-04T15:12:41.103Z</time></trkpt><trkpt lat="44.90187" lon="8.3039833"><ele>167.0</ele><time>2026-04-04T15:12:42.107Z</time></trkpt><trkpt lat="44.901885" lon="8.3038917"><ele>167.0</ele><time>2026-04-04T15:12:43.104Z</time></trkpt><trkpt lat="44.901935" lon="8.3038167"><ele>167.0</ele><time>2026-04-04T15:12:44.101Z</time></trkpt><trkpt lat="44.9019817" lon="8.30373"><ele>167.0</ele><time>2026-04-04T15:12:45.102Z</time></trkpt><trkpt lat="44.90202" lon="8.30363"><ele>167.0</ele><time>2026-04-04T15:12:46.102Z</time></trkpt><trkpt lat="44.9020467" lon="8.3035267"><ele>165.83333333333331</ele><time>2026-04-04T15:12:47.102Z</time></trkpt><trkpt lat="44.9020367" lon="8.3034167"><ele>164.66666666666666</ele><time>2026-04-04T15:12:48.102Z</time></trkpt><trkpt lat="44.9020033" lon="8.3033083"><ele>163.5</ele><time>2026-04-04T15:12:49.102Z</time></trkpt><trkpt lat="44.9019783" lon="8.3032233"><ele>162.33333333333334</ele><time>2026-04-04T15:12:50.101Z</time></trkpt><trkpt lat="44.9019583" lon="8.30309"><ele>161.16666666666669</ele><time>2026-04-04T15:12:52.102Z</time></trkpt><trkpt lat="44.9019983" lon="8.303"><ele>160.0</ele><time>2026-04-04T15:12:54.108Z</time></trkpt><trkpt lat="44.9021133" lon="8.3030983"><ele>160.0</ele><time>2026-04-04T15:12:56.101Z</time></trkpt><trkpt lat="44.9021817" lon="8.3032183"><ele>160.0</ele><time>2026-04-04T15:12:58.101Z</time></trkpt><trkpt lat="44.9022433" lon="8.3033033"><ele>160.0</ele><time>2026-04-04T15:13:00.1Z</time></trkpt><trkpt lat="44.9023183" lon="8.3033433"><ele>160.0</ele><time>2026-04-04T15:13:02.103Z</time></trkpt><trkpt lat="44.902375" lon="8.3032783"><ele>160.0</ele><time>2026-04-04T15:13:04.1Z</time></trkpt><trkpt lat="44.9023683" lon="8.303165"><ele>160.0</ele><time>2026-04-04T15:13:06.101Z</time></trkpt><trkpt lat="44.9022917" lon="8.30303"><ele>158.57142857142856</ele><time>2026-04-04T15:13:08.1Z</time></trkpt><trkpt lat="44.9022433" lon="8.30295"><ele>157.14285714285714</ele><time>2026-04-04T15:13:09.104Z</time></trkpt><trkpt lat="44.9022217" lon="8.30286"><ele>155.71428571428572</ele><time>2026-04-04T15:13:10.104Z</time></trkpt><trkpt lat="44.9022117" lon="8.3027617"><ele>154.28571428571428</ele><time>2026-04-04T15:13:11.105Z</time></trkpt><trkpt lat="44.9022117" lon="8.3026517"><ele>152.85714285714286</ele><time>2026-04-04T15:13:12.105Z</time></trkpt><trkpt lat="44.9022317" lon="8.3025467"><ele>151.42857142857142</ele><time>2026-04-04T15:13:13.102Z</time></trkpt><trkpt lat="44.902235" lon="8.3024317"><ele>150.0</ele><time>2026-04-04T15:13:14.107Z</time></trkpt><trkpt lat="44.9022167" lon="8.3023117"><ele>148.6</ele><time>2026-04-04T15:13:15.102Z</time></trkpt><trkpt lat="44.902185" lon="8.3022067"><ele>147.2</ele><time>2026-04-04T15:13:16.105Z</time></trkpt><trkpt lat="44.902145" lon="8.3021067"><ele>145.8</ele><time>2026-04-04T15:13:17.103Z</time></trkpt><trkpt lat="44.9020967" lon="8.302005"><ele>144.4</ele><time>2026-04-04T15:13:18.099Z</time></trkpt><trkpt lat="44.90203" lon="8.3018983"><ele>143.0</ele><time>2026-04-04T15:13:19.105Z</time></trkpt><trkpt lat="44.901915" lon="8.3017867"><ele>143.0</ele><time>2026-04-04T15:13:20.099Z</time></trkpt><trkpt lat="44.9018033" lon="8.3016583"><ele>143.0</ele><time>2026-04-04T15:13:21.103Z</time></trkpt><trkpt lat="44.9017067" lon="8.30152"><ele>143.0</ele><time>2026-04-04T15:13:22.103Z</time></trkpt><trkpt lat="44.9016183" lon="8.3013717"><ele>143.0</ele><time>2026-04-04T15:13:23.105Z</time></trkpt><trkpt lat="44.9015217" lon="8.301205"><ele>143.75</ele><time>2026-04-04T15:13:24.1Z</time></trkpt><trkpt lat="44.901435" lon="8.3010483"><ele>144.5</ele><time>2026-04-04T15:13:25.107Z</time></trkpt><trkpt lat="44.901345" lon="8.3008917"><ele>145.25</ele><time>2026-04-04T15:13:26.105Z</time></trkpt><trkpt lat="44.9012483" lon="8.3007383"><ele>146.0</ele><time>2026-04-04T15:13:27.099Z</time></trkpt><trkpt lat="44.90115" lon="8.3005867"><ele>145.75</ele><time>2026-04-04T15:13:28.103Z</time></trkpt><trkpt lat="44.9010633" lon="8.3004367"><ele>145.5</ele><time>2026-04-04T15:13:29.104Z</time></trkpt><trkpt lat="44.90098" lon="8.300295"><ele>145.25</ele><time>2026-04-04T15:13:30.105Z</time></trkpt><trkpt lat="44.9009067" lon="8.3001517"><ele>145.0</ele><time>2026-04-04T15:13:31.104Z</time></trkpt><trkpt lat="44.9008433" lon="8.3000083"><ele>145.0</ele><time>2026-04-04T15:13:32.106Z</time></trkpt><trkpt lat="44.9008" lon="8.2998583"><ele>145.0</ele><time>2026-04-04T15:13:33.105Z</time></trkpt><trkpt lat="44.900755" lon="8.29971"><ele>145.0</ele><time>2026-04-04T15:13:34.101Z</time></trkpt><trkpt lat="44.900725" lon="8.2995733"><ele>145.0</ele><time>2026-04-04T15:13:35.101Z</time></trkpt><trkpt lat="44.9006967" lon="8.2994633"><ele>145.0</ele><time>2026-04-04T15:13:36.102Z</time></trkpt><trkpt lat="44.9006617" lon="8.299355"><ele>147.0</ele><time>2026-04-04T15:13:37.104Z</time></trkpt><trkpt lat="44.9006117" lon="8.2992733"><ele>149.0</ele><time>2026-04-04T15:13:38.099Z</time></trkpt><trkpt lat="44.9005383" lon="8.2992733"><ele>151.0</ele><time>2026-04-04T15:13:39.106Z</time></trkpt><trkpt lat="44.900405" lon="8.2992717"><ele>153.0</ele><time>2026-04-04T15:13:41.101Z</time></trkpt><trkpt lat="44.90033" lon="8.299285"><ele>155.0</ele><time>2026-04-04T15:13:42.103Z</time></trkpt><trkpt lat="44.9002583" lon="8.2992833"><ele>157.0</ele><time>2026-04-04T15:13:43.102Z</time></trkpt><trkpt lat="44.9001833" lon="8.2992617"><ele>157.0</ele><time>2026-04-04T15:13:44.104Z</time></trkpt><trkpt lat="44.900105" lon="8.29924"><ele>157.0</ele><time>2026-04-04T15:13:45.102Z</time></trkpt><trkpt lat="44.9000283" lon="8.2992017"><ele>157.0</ele><time>2026-04-04T15:13:46.103Z</time></trkpt><trkpt lat="44.8999583" lon="8.2991433"><ele>157.0</ele><time>2026-04-04T15:13:47.099Z</time></trkpt><trkpt lat="44.8998833" lon="8.2990733"><ele>157.0</ele><time>2026-04-04T15:13:48.101Z</time></trkpt><trkpt lat="44.8998017" lon="8.29898"><ele>157.0</ele><time>2026-04-04T15:13:49.099Z</time></trkpt><trkpt lat="44.8997067" lon="8.2988767"><ele>156.75</ele><time>2026-04-04T15:13:50.099Z</time></trkpt><trkpt lat="44.8995967" lon="8.2987767"><ele>156.5</ele><time>2026-04-04T15:13:51.103Z</time></trkpt><trkpt lat="44.89948" lon="8.2986867"><ele>156.25</ele><time>2026-04-04T15:13:52.101Z</time></trkpt><trkpt lat="44.899355" lon="8.2986083"><ele>156.0</ele><time>2026-04-04T15:13:53.105Z</time></trkpt><trkpt lat="44.8992333" lon="8.2985367"><ele>153.25</ele><time>2026-04-04T15:13:54.102Z</time></trkpt><trkpt lat="44.8991067" lon="8.298475"><ele>150.5</ele><time>2026-04-04T15:13:55.105Z</time></trkpt><trkpt lat="44.8989833" lon="8.2984033"><ele>147.75</ele><time>2026-04-04T15:13:56.103Z</time></trkpt><trkpt lat="44.89886" lon="8.2983317"><ele>145.0</ele><time>2026-04-04T15:13:57.102Z</time></trkpt><trkpt lat="44.898735" lon="8.2982567"><ele>145.0</ele><time>2026-04-04T15:13:58.101Z</time></trkpt><trkpt lat="44.89862" lon="8.2981617"><ele>145.0</ele><time>2026-04-04T15:13:59.103Z</time></trkpt><trkpt lat="44.8985033" lon="8.298055"><ele>145.0</ele><time>2026-04-04T15:14:00.102Z</time></trkpt><trkpt lat="44.8983867" lon="8.2979483"><ele>145.0</ele><time>2026-04-04T15:14:01.102Z</time></trkpt><trkpt lat="44.89827" lon="8.2978367"><ele>141.25</ele><time>2026-04-04T15:14:02.102Z</time></trkpt><trkpt lat="44.89816" lon="8.2977233"><ele>137.5</ele><time>2026-04-04T15:14:03.106Z</time></trkpt><trkpt lat="44.89806" lon="8.29758"><ele>133.75</ele><time>2026-04-04T15:14:04.102Z</time></trkpt><trkpt lat="44.8979767" lon="8.2974183"><ele>130.0</ele><time>2026-04-04T15:14:05.103Z</time></trkpt><trkpt lat="44.897885" lon="8.2972483"><ele>127.66666666666667</ele><time>2026-04-04T15:14:06.103Z</time></trkpt><trkpt lat="44.8978017" lon="8.2970617"><ele>125.33333333333334</ele><time>2026-04-04T15:14:07.103Z</time></trkpt><trkpt lat="44.8977183" lon="8.2968867"><ele>123.0</ele><time>2026-04-04T15:14:08.103Z</time></trkpt><trkpt lat="44.89765" lon="8.2967067"><ele>121.75</ele><time>2026-04-04T15:14:09.099Z</time></trkpt><trkpt lat="44.8975767" lon="8.2965483"><ele>120.5</ele><time>2026-04-04T15:14:10.102Z</time></trkpt><trkpt lat="44.8975083" lon="8.2963917"><ele>119.25</ele><time>2026-04-04T15:14:11.1Z</time></trkpt><trkpt lat="44.8974433" lon="8.2962417"><ele>118.0</ele><time>2026-04-04T15:14:12.107Z</time></trkpt><trkpt lat="44.8973867" lon="8.29611"><ele>117.83333333333334</ele><time>2026-04-04T15:14:13.104Z</time></trkpt><trkpt lat="44.8973383" lon="8.2960033"><ele>117.66666666666667</ele><time>2026-04-04T15:14:14.103Z</time></trkpt><trkpt lat="44.897295" lon="8.2959133"><ele>117.5</ele><time>2026-04-04T15:14:15.103Z</time></trkpt><trkpt lat="44.89726" lon="8.295835"><ele>117.33333333333334</ele><time>2026-04-04T15:14:16.099Z</time></trkpt><trkpt lat="44.89722" lon="8.2957067"><ele>117.16666666666667</ele><time>2026-04-04T15:14:18.102Z</time></trkpt><trkpt lat="44.8972683" lon="8.2955867"><ele>117.0</ele><time>2026-04-04T15:14:20.103Z</time></trkpt><trkpt lat="44.8973367" lon="8.2955217"><ele>117.0</ele><time>2026-04-04T15:14:21.103Z</time></trkpt><trkpt lat="44.8974033" lon="8.2954367"><ele>117.0</ele><time>2026-04-04T15:14:22.104Z</time></trkpt><trkpt lat="44.89752" lon="8.2953383"><ele>117.0</ele><time>2026-04-04T15:14:23.103Z</time></trkpt><trkpt lat="44.8976233" lon="8.2952267"><ele>117.0</ele><time>2026-04-04T15:14:24.101Z</time></trkpt><trkpt lat="44.8977233" lon="8.29511"><ele>117.0</ele><time>2026-04-04T15:14:25.101Z</time></trkpt><trkpt lat="44.89783" lon="8.29499"><ele>117.0</ele><time>2026-04-04T15:14:26.102Z</time></trkpt><trkpt lat="44.8979417" lon="8.2948667"><ele>117.0</ele><time>2026-04-04T15:14:27.097Z</time></trkpt><trkpt lat="44.898055" lon="8.2947417"><ele>117.0</ele><time>2026-04-04T15:14:28.105Z</time></trkpt><trkpt lat="44.898165" lon="8.2946133"><ele>117.0</ele><time>2026-04-04T15:14:29.103Z</time></trkpt><trkpt lat="44.8982783" lon="8.2944833"><ele>117.0</ele><time>2026-04-04T15:14:30.103Z</time></trkpt><trkpt lat="44.8983917" lon="8.2943483"><ele>117.0</ele><time>2026-04-04T15:14:31.1Z</time></trkpt><trkpt lat="44.89851" lon="8.29421"><ele>117.0</ele><time>2026-04-04T15:14:32.1Z</time></trkpt><trkpt lat="44.89863" lon="8.2940683"><ele>116.66666666666666</ele><time>2026-04-04T15:14:33.1Z</time></trkpt><trkpt lat="44.8987517" lon="8.29392"><ele>116.33333333333333</ele><time>2026-04-04T15:14:34.101Z</time></trkpt><trkpt lat="44.8988767" lon="8.2937683"><ele>116.0</ele><time>2026-04-04T15:14:35.101Z</time></trkpt><trkpt lat="44.8990033" lon="8.2936133"><ele>116.0</ele><time>2026-04-04T15:14:36.105Z</time></trkpt><trkpt lat="44.89913" lon="8.29346"><ele>116.0</ele><time>2026-04-04T15:14:37.11Z</time></trkpt><trkpt lat="44.8992567" lon="8.293305"><ele>116.0</ele><time>2026-04-04T15:14:38.102Z</time></trkpt><trkpt lat="44.8993833" lon="8.29315"><ele>115.66666666666666</ele><time>2026-04-04T15:14:39.104Z</time></trkpt><trkpt lat="44.89951" lon="8.2929967"><ele>115.33333333333334</ele><time>2026-04-04T15:14:40.109Z</time></trkpt><trkpt lat="44.8996367" lon="8.2928467"><ele>115.0</ele><time>2026-04-04T15:14:41.102Z</time></trkpt><trkpt lat="44.8997617" lon="8.2926967"><ele>115.0</ele><time>2026-04-04T15:14:42.103Z</time></trkpt><trkpt lat="44.899885" lon="8.2925483"><ele>115.0</ele><time>2026-04-04T15:14:43.102Z</time></trkpt><trkpt lat="44.9000067" lon="8.2924083"><ele>115.0</ele><time>2026-04-04T15:14:44.103Z</time></trkpt><trkpt lat="44.900125" lon="8.2922717"><ele>115.5</ele><time>2026-04-04T15:14:45.102Z</time></trkpt><trkpt lat="44.9002367" lon="8.2921383"><ele>116.0</ele><time>2026-04-04T15:14:46.1Z</time></trkpt><trkpt lat="44.90034" lon="8.2920117"><ele>116.5</ele><time>2026-04-04T15:14:47.102Z</time></trkpt><trkpt lat="44.9004367" lon="8.291895"><ele>117.0</ele><time>2026-04-04T15:14:48.101Z</time></trkpt><trkpt lat="44.9005217" lon="8.29179"><ele>117.0</ele><time>2026-04-04T15:14:49.103Z</time></trkpt><trkpt lat="44.90059" lon="8.29172"><ele>117.0</ele><time>2026-04-04T15:14:50.101Z</time></trkpt><trkpt lat="44.9006667" lon="8.29169"><ele>117.0</ele><time>2026-04-04T15:14:51.101Z</time></trkpt><trkpt lat="44.9007533" lon="8.2916817"><ele>117.0</ele><time>2026-04-04T15:14:52.105Z</time></trkpt><trkpt lat="44.9008417" lon="8.29169"><ele>117.0</ele><time>2026-04-04T15:14:53.101Z</time></trkpt><trkpt lat="44.9009417" lon="8.2916967"><ele>117.0</ele><time>2026-04-04T15:14:54.105Z</time></trkpt><trkpt lat="44.9010417" lon="8.2917067"><ele>117.8</ele><time>2026-04-04T15:14:55.1Z</time></trkpt><trkpt lat="44.9011417" lon="8.29171"><ele>118.6</ele><time>2026-04-04T15:14:56.104Z</time></trkpt><trkpt lat="44.9012383" lon="8.2917067"><ele>119.39999999999999</ele><time>2026-04-04T15:14:57.105Z</time></trkpt><trkpt lat="44.90133" lon="8.2917"><ele>120.19999999999999</ele><time>2026-04-04T15:14:58.102Z</time></trkpt><trkpt lat="44.901415" lon="8.2916867"><ele>121.0</ele><time>2026-04-04T15:14:59.103Z</time></trkpt><trkpt lat="44.9015017" lon="8.2916567"><ele>121.0</ele><time>2026-04-04T15:15:00.101Z</time></trkpt><trkpt lat="44.9015883" lon="8.29161"><ele>121.0</ele><time>2026-04-04T15:15:01.105Z</time></trkpt><trkpt lat="44.9016733" lon="8.2915483"><ele>121.0</ele><time>2026-04-04T15:15:02.099Z</time></trkpt><trkpt lat="44.9017567" lon="8.29148"><ele>121.0</ele><time>2026-04-04T15:15:03.101Z</time></trkpt><trkpt lat="44.90184" lon="8.2914083"><ele>121.0</ele><time>2026-04-04T15:15:04.099Z</time></trkpt><trkpt lat="44.901925" lon="8.2913367"><ele>120.4</ele><time>2026-04-04T15:15:05.099Z</time></trkpt><trkpt lat="44.9020117" lon="8.291265"><ele>119.8</ele><time>2026-04-04T15:15:06.1Z</time></trkpt><trkpt lat="44.9021" lon="8.2911833"><ele>119.20000000000002</ele><time>2026-04-04T15:15:07.102Z</time></trkpt><trkpt lat="44.90219" lon="8.2911"><ele>118.60000000000001</ele><time>2026-04-04T15:15:08.099Z</time></trkpt><trkpt lat="44.9022767" lon="8.291015"><ele>118.0</ele><time>2026-04-04T15:15:09.099Z</time></trkpt><trkpt lat="44.90236" lon="8.2909217"><ele>118.00000000000001</ele><time>2026-04-04T15:15:10.103Z</time></trkpt><trkpt lat="44.90244" lon="8.2908317"><ele>118.0</ele><time>2026-04-04T15:15:11.1Z</time></trkpt><trkpt lat="44.9025167" lon="8.2907533"><ele>118.0</ele><time>2026-04-04T15:15:12.098Z</time></trkpt><trkpt lat="44.9025867" lon="8.290675"><ele>118.0</ele><time>2026-04-04T15:15:13.098Z</time></trkpt><trkpt lat="44.9026517" lon="8.290605"><ele>118.00000000000001</ele><time>2026-04-04T15:15:14.104Z</time></trkpt><trkpt lat="44.9027133" lon="8.2905367"><ele>118.0</ele><time>2026-04-04T15:15:15.1Z</time></trkpt><trkpt lat="44.9027783" lon="8.2904683"><ele>118.00000000000001</ele><time>2026-04-04T15:15:16.105Z</time></trkpt><trkpt lat="44.9028433" lon="8.2903967"><ele>118.0</ele><time>2026-04-04T15:15:17.106Z</time></trkpt><trkpt lat="44.90291" lon="8.2903217"><ele>118.0</ele><time>2026-04-04T15:15:18.102Z</time></trkpt><trkpt lat="44.9029783" lon="8.290245"><ele>118.0</ele><time>2026-04-04T15:15:19.103Z</time></trkpt><trkpt lat="44.9030483" lon="8.29017"><ele>118.00000000000001</ele><time>2026-04-04T15:15:20.106Z</time></trkpt><trkpt lat="44.9031217" lon="8.2900983"><ele>118.0</ele><time>2026-04-04T15:15:21.101Z</time></trkpt><trkpt lat="44.903195" lon="8.29003"><ele>118.00000000000001</ele><time>2026-04-04T15:15:22.105Z</time></trkpt><trkpt lat="44.9032683" lon="8.2899617"><ele>118.0</ele><time>2026-04-04T15:15:23.109Z</time></trkpt><trkpt lat="44.9033367" lon="8.2898967"><ele>118.0</ele><time>2026-04-04T15:15:24.105Z</time></trkpt><trkpt lat="44.9034033" lon="8.2898283"><ele>118.0</ele><time>2026-04-04T15:15:25.102Z</time></trkpt><trkpt lat="44.90347" lon="8.2897617"><ele>118.00000000000001</ele><time>2026-04-04T15:15:26.104Z</time></trkpt><trkpt lat="44.9035383" lon="8.2896933"><ele>118.0</ele><time>2026-04-04T15:15:27.104Z</time></trkpt><trkpt lat="44.9036067" lon="8.289625"><ele>118.00000000000001</ele><time>2026-04-04T15:15:28.101Z</time></trkpt><trkpt lat="44.9036717" lon="8.2895633"><ele>118.0</ele><time>2026-04-04T15:15:29.107Z</time></trkpt><trkpt lat="44.9037383" lon="8.2895083"><ele>118.0</ele><time>2026-04-04T15:15:30.099Z</time></trkpt><trkpt lat="44.903805" lon="8.2894583"><ele>118.0</ele><time>2026-04-04T15:15:31.104Z</time></trkpt><trkpt lat="44.903875" lon="8.28941"><ele>118.00000000000001</ele><time>2026-04-04T15:15:32.101Z</time></trkpt><trkpt lat="44.9039467" lon="8.2893683"><ele>118.0</ele><time>2026-04-04T15:15:33.1Z</time></trkpt><trkpt lat="44.90402" lon="8.289335"><ele>118.00000000000001</ele><time>2026-04-04T15:15:34.102Z</time></trkpt><trkpt lat="44.9040933" lon="8.2893083"><ele>118.0</ele><time>2026-04-04T15:15:35.105Z</time></trkpt><trkpt lat="44.9041717" lon="8.2892817"><ele>118.0</ele><time>2026-04-04T15:15:36.103Z</time></trkpt><trkpt lat="44.9042567" lon="8.2892467"><ele>118.0</ele><time>2026-04-04T15:15:37.104Z</time></trkpt><trkpt lat="44.90435" lon="8.289215"><ele>118.00000000000001</ele><time>2026-04-04T15:15:38.101Z</time></trkpt><trkpt lat="44.9044417" lon="8.2891683"><ele>118.0</ele><time>2026-04-04T15:15:39.101Z</time></trkpt><trkpt lat="44.9045367" lon="8.2891167"><ele>118.4</ele><time>2026-04-04T15:15:40.105Z</time></trkpt><trkpt lat="44.9046283" lon="8.2890533"><ele>118.80000000000001</ele><time>2026-04-04T15:15:41.101Z</time></trkpt><trkpt lat="44.90472" lon="8.28899"><ele>119.2</ele><time>2026-04-04T15:15:42.102Z</time></trkpt><trkpt lat="44.9048083" lon="8.2889117"><ele>119.6</ele><time>2026-04-04T15:15:43.1Z</time></trkpt><trkpt lat="44.9048933" lon="8.2888367"><ele>120.0</ele><time>2026-04-04T15:15:44.101Z</time></trkpt><trkpt lat="44.9049767" lon="8.2887633"><ele>120.0</ele><time>2026-04-04T15:15:45.102Z</time></trkpt><trkpt lat="44.9050583" lon="8.2886967"><ele>120.0</ele><time>2026-04-04T15:15:46.101Z</time></trkpt><trkpt lat="44.9051367" lon="8.288635"><ele>120.0</ele><time>2026-04-04T15:15:47.103Z</time></trkpt><trkpt lat="44.9052183" lon="8.2885783"><ele>120.0</ele><time>2026-04-04T15:15:48.104Z</time></trkpt><trkpt lat="44.9053017" lon="8.2885233"><ele>120.0</ele><time>2026-04-04T15:15:49.105Z</time></trkpt><trkpt lat="44.9053883" lon="8.2884717"><ele>121.0</ele><time>2026-04-04T15:15:50.103Z</time></trkpt><trkpt lat="44.905475" lon="8.2884217"><ele>122.0</ele><time>2026-04-04T15:15:51.1Z</time></trkpt><trkpt lat="44.9055667" lon="8.288385"><ele>123.0</ele><time>2026-04-04T15:15:52.107Z</time></trkpt><trkpt lat="44.9056617" lon="8.2883483"><ele>124.0</ele><time>2026-04-04T15:15:53.1Z</time></trkpt><trkpt lat="44.905765" lon="8.2883083"><ele>125.0</ele><time>2026-04-04T15:15:54.104Z</time></trkpt><trkpt lat="44.90585" lon="8.28827"><ele>124.83333333333333</ele><time>2026-04-04T15:15:55.101Z</time></trkpt><trkpt lat="44.9059167" lon="8.28824"><ele>124.66666666666666</ele><time>2026-04-04T15:15:56.102Z</time></trkpt><trkpt lat="44.9060117" lon="8.2882"><ele>124.5</ele><time>2026-04-04T15:15:58.104Z</time></trkpt><trkpt lat="44.9061067" lon="8.2881417"><ele>124.33333333333334</ele><time>2026-04-04T15:16:00.105Z</time></trkpt><trkpt lat="44.9061667" lon="8.2881117"><ele>124.16666666666667</ele><time>2026-04-04T15:16:01.102Z</time></trkpt><trkpt lat="44.90623" lon="8.2880717"><ele>124.0</ele><time>2026-04-04T15:16:02.099Z</time></trkpt><trkpt lat="44.9062967" lon="8.2880233"><ele>124.00000000000001</ele><time>2026-04-04T15:16:03.1Z</time></trkpt><trkpt lat="44.9063567" lon="8.2879767"><ele>124.0</ele><time>2026-04-04T15:16:04.1Z</time></trkpt><trkpt lat="44.9064483" lon="8.2878917"><ele>124.0</ele><time>2026-04-04T15:16:06.108Z</time></trkpt><trkpt lat="44.906515" lon="8.2878317"><ele>124.0</ele><time>2026-04-04T15:16:08.102Z</time></trkpt><trkpt lat="44.9065733" lon="8.2877817"><ele>124.00000000000001</ele><time>2026-04-04T15:16:10.104Z</time></trkpt><trkpt lat="44.906645" lon="8.28774"><ele>124.0</ele><time>2026-04-04T15:16:13.108Z</time></trkpt><trkpt lat="44.9067183" lon="8.2876833"><ele>124.00000000000001</ele><time>2026-04-04T15:16:19.1Z</time></trkpt><trkpt lat="44.9067683" lon="8.28761"><ele>124.0</ele><time>2026-04-04T15:16:20.101Z</time></trkpt><trkpt lat="44.9068167" lon="8.2875417"><ele>124.0</ele><time>2026-04-04T15:16:21.102Z</time></trkpt><trkpt lat="44.906875" lon="8.2874617"><ele>124.0</ele><time>2026-04-04T15:16:22.103Z</time></trkpt><trkpt lat="44.90694" lon="8.2873767"><ele>124.00000000000001</ele><time>2026-04-04T15:16:23.104Z</time></trkpt><trkpt lat="44.9070117" lon="8.2872883"><ele>124.0</ele><time>2026-04-04T15:16:24.104Z</time></trkpt><trkpt lat="44.907085" lon="8.2871983"><ele>123.66666666666667</ele><time>2026-04-04T15:16:25.105Z</time></trkpt><trkpt lat="44.907155" lon="8.2871183"><ele>123.33333333333334</ele><time>2026-04-04T15:16:26.104Z</time></trkpt><trkpt lat="44.907225" lon="8.287045"><ele>123.0</ele><time>2026-04-04T15:16:27.103Z</time></trkpt><trkpt lat="44.9072933" lon="8.2869633"><ele>122.66666666666666</ele><time>2026-04-04T15:16:28.103Z</time></trkpt><trkpt lat="44.90736" lon="8.2868833"><ele>122.33333333333333</ele><time>2026-04-04T15:16:29.103Z</time></trkpt><trkpt lat="44.907425" lon="8.2868033"><ele>122.0</ele><time>2026-04-04T15:16:30.103Z</time></trkpt><trkpt lat="44.9074867" lon="8.2867267"><ele>121.99999999999999</ele><time>2026-04-04T15:16:31.108Z</time></trkpt><trkpt lat="44.907545" lon="8.2866517"><ele>122.0</ele><time>2026-04-04T15:16:32.103Z</time></trkpt><trkpt lat="44.9075983" lon="8.2865717"><ele>122.0</ele><time>2026-04-04T15:16:33.104Z</time></trkpt><trkpt lat="44.907655" lon="8.2864983"><ele>122.0</ele><time>2026-04-04T15:16:34.104Z</time></trkpt><trkpt lat="44.9077167" lon="8.286425"><ele>121.99999999999999</ele><time>2026-04-04T15:16:35.104Z</time></trkpt><trkpt lat="44.907775" lon="8.2863583"><ele>122.0</ele><time>2026-04-04T15:16:36.103Z</time></trkpt><trkpt lat="44.9078267" lon="8.286295"><ele>122.14285714285712</ele><time>2026-04-04T15:16:37.102Z</time></trkpt><trkpt lat="44.9078717" lon="8.2862233"><ele>122.28571428571428</ele><time>2026-04-04T15:16:38.103Z</time></trkpt><trkpt lat="44.907915" lon="8.2861567"><ele>122.42857142857143</ele><time>2026-04-04T15:16:39.103Z</time></trkpt><trkpt lat="44.9079667" lon="8.28609"><ele>122.57142857142857</ele><time>2026-04-04T15:16:40.101Z</time></trkpt><trkpt lat="44.9080317" lon="8.2860267"><ele>122.71428571428572</ele><time>2026-04-04T15:16:41.099Z</time></trkpt><trkpt lat="44.9080917" lon="8.2859583"><ele>122.85714285714288</ele><time>2026-04-04T15:16:42.102Z</time></trkpt><trkpt lat="44.9081483" lon="8.2858933"><ele>123.00000000000001</ele><time>2026-04-04T15:16:43.104Z</time></trkpt><trkpt lat="44.9082017" lon="8.28583"><ele>123.0</ele><time>2026-04-04T15:16:44.103Z</time></trkpt><trkpt lat="44.90826" lon="8.285775"><ele>123.0</ele><time>2026-04-04T15:16:45.106Z</time></trkpt><trkpt lat="44.9083317" lon="8.28568"><ele>123.0</ele><time>2026-04-04T15:16:47.103Z</time></trkpt><trkpt lat="44.9083867" lon="8.28563"><ele>123.0</ele><time>2026-04-04T15:16:50.101Z</time></trkpt><trkpt lat="44.9084783" lon="8.2857033"><ele>123.0</ele><time>2026-04-04T15:16:53.101Z</time></trkpt><trkpt lat="44.908545" lon="8.285785"><ele>123.0</ele><time>2026-04-04T15:16:54.102Z</time></trkpt><trkpt lat="44.9086167" lon="8.285865"><ele>123.5</ele><time>2026-04-04T15:16:55.105Z</time></trkpt><trkpt lat="44.9086817" lon="8.285985"><ele>124.0</ele><time>2026-04-04T15:16:56.1Z</time></trkpt><trkpt lat="44.90876" lon="8.2861217"><ele>124.5</ele><time>2026-04-04T15:16:57.107Z</time></trkpt><trkpt lat="44.9088367" lon="8.286255"><ele>125.0</ele><time>2026-04-04T15:16:58.102Z</time></trkpt><trkpt lat="44.90891" lon="8.28638"><ele>124.75</ele><time>2026-04-04T15:16:59.103Z</time></trkpt><trkpt lat="44.9089867" lon="8.2865017"><ele>124.5</ele><time>2026-04-04T15:17:00.105Z</time></trkpt><trkpt lat="44.90906" lon="8.2866333"><ele>124.25</ele><time>2026-04-04T15:17:01.103Z</time></trkpt><trkpt lat="44.909135" lon="8.2867733"><ele>124.0</ele><time>2026-04-04T15:17:02.101Z</time></trkpt><trkpt lat="44.909215" lon="8.2869133"><ele>125.5</ele><time>2026-04-04T15:17:03.101Z</time></trkpt><trkpt lat="44.9092933" lon="8.2870617"><ele>127.0</ele><time>2026-04-04T15:17:04.101Z</time></trkpt><trkpt lat="44.9093683" lon="8.2872"><ele>128.5</ele><time>2026-04-04T15:17:05.101Z</time></trkpt><trkpt lat="44.9094433" lon="8.287335"><ele>130.0</ele><time>2026-04-04T15:17:06.102Z</time></trkpt><trkpt lat="44.9095133" lon="8.287465"><ele>130.0</ele><time>2026-04-04T15:17:07.101Z</time></trkpt><trkpt lat="44.90959" lon="8.287595"><ele>130.0</ele><time>2026-04-04T15:17:08.104Z</time></trkpt><trkpt lat="44.9096683" lon="8.2877233"><ele>130.0</ele><time>2026-04-04T15:17:09.102Z</time></trkpt><trkpt lat="44.90974" lon="8.2878517"><ele>130.0</ele><time>2026-04-04T15:17:10.102Z</time></trkpt><trkpt lat="44.9098133" lon="8.2879817"><ele>130.0</ele><time>2026-04-04T15:17:11.101Z</time></trkpt><trkpt lat="44.9098967" lon="8.2881167"><ele>130.0</ele><time>2026-04-04T15:17:12.102Z</time></trkpt><trkpt lat="44.90998" lon="8.2882483"><ele>130.0</ele><time>2026-04-04T15:17:13.101Z</time></trkpt><trkpt lat="44.9100617" lon="8.28838"><ele>130.0</ele><time>2026-04-04T15:17:14.101Z</time></trkpt><trkpt lat="44.9101433" lon="8.288515"><ele>130.0</ele><time>2026-04-04T15:17:15.103Z</time></trkpt><trkpt lat="44.9102183" lon="8.28865"><ele>130.0</ele><time>2026-04-04T15:17:16.102Z</time></trkpt><trkpt lat="44.9102833" lon="8.28878"><ele>130.0</ele><time>2026-04-04T15:17:17.102Z</time></trkpt><trkpt lat="44.9103583" lon="8.2889033"><ele>130.0</ele><time>2026-04-04T15:17:18.1Z</time></trkpt><trkpt lat="44.9104367" lon="8.2890333"><ele>130.0</ele><time>2026-04-04T15:17:19.1Z</time></trkpt><trkpt lat="44.9105167" lon="8.2891667"><ele>130.0</ele><time>2026-04-04T15:17:20.107Z</time></trkpt><trkpt lat="44.9105933" lon="8.2892983"><ele>130.0</ele><time>2026-04-04T15:17:21.1Z</time></trkpt><trkpt lat="44.9106717" lon="8.2894317"><ele>130.0</ele><time>2026-04-04T15:17:22.102Z</time></trkpt><trkpt lat="44.9107533" lon="8.2895717"><ele>130.0</ele><time>2026-04-04T15:17:23.101Z</time></trkpt><trkpt lat="44.91084" lon="8.2897083"><ele>130.0</ele><time>2026-04-04T15:17:24.104Z</time></trkpt><trkpt lat="44.9109233" lon="8.2898533"><ele>130.0</ele><time>2026-04-04T15:17:25.103Z</time></trkpt><trkpt lat="44.9110067" lon="8.2900017"><ele>130.0</ele><time>2026-04-04T15:17:26.102Z</time></trkpt><trkpt lat="44.9110867" lon="8.2901417"><ele>130.25</ele><time>2026-04-04T15:17:27.102Z</time></trkpt><trkpt lat="44.9111667" lon="8.2902833"><ele>130.5</ele><time>2026-04-04T15:17:28.102Z</time></trkpt><trkpt lat="44.9112567" lon="8.2904233"><ele>130.75</ele><time>2026-04-04T15:17:29.101Z</time></trkpt><trkpt lat="44.911335" lon="8.2905717"><ele>131.0</ele><time>2026-04-04T15:17:30.103Z</time></trkpt><trkpt lat="44.911405" lon="8.2907317"><ele>131.0</ele><time>2026-04-04T15:17:31.103Z</time></trkpt><trkpt lat="44.9115067" lon="8.290875"><ele>131.0</ele><time>2026-04-04T15:17:32.1Z</time></trkpt><trkpt lat="44.911605" lon="8.291025"><ele>131.0</ele><time>2026-04-04T15:17:33.099Z</time></trkpt><trkpt lat="44.9116967" lon="8.2911783"><ele>131.0</ele><time>2026-04-04T15:17:34.107Z</time></trkpt><trkpt lat="44.9117967" lon="8.2913317"><ele>130.0</ele><time>2026-04-04T15:17:35.102Z</time></trkpt><trkpt lat="44.911895" lon="8.2914883"><ele>129.0</ele><time>2026-04-04T15:17:36.1Z</time></trkpt><trkpt lat="44.9119933" lon="8.29165"><ele>128.0</ele><time>2026-04-04T15:17:37.102Z</time></trkpt><trkpt lat="44.912085" lon="8.29181"><ele>127.0</ele><time>2026-04-04T15:17:38.102Z</time></trkpt><trkpt lat="44.9121783" lon="8.2919833"><ele>127.0</ele><time>2026-04-04T15:17:39.101Z</time></trkpt><trkpt lat="44.91227" lon="8.2921517"><ele>127.0</ele><time>2026-04-04T15:17:40.099Z</time></trkpt><trkpt lat="44.9123633" lon="8.2923217"><ele>127.0</ele><time>2026-04-04T15:17:41.099Z</time></trkpt><trkpt lat="44.9124667" lon="8.2924833"><ele>127.33333333333334</ele><time>2026-04-04T15:17:42.102Z</time></trkpt><trkpt lat="44.9125633" lon="8.292645"><ele>127.66666666666666</ele><time>2026-04-04T15:17:43.105Z</time></trkpt><trkpt lat="44.9126617" lon="8.2928083"><ele>128.0</ele><time>2026-04-04T15:17:44.104Z</time></trkpt><trkpt lat="44.9127633" lon="8.2929717"><ele>128.33333333333331</ele><time>2026-04-04T15:17:45.101Z</time></trkpt><trkpt lat="44.9128667" lon="8.2931333"><ele>128.66666666666666</ele><time>2026-04-04T15:17:46.108Z</time></trkpt><trkpt lat="44.91297" lon="8.2933"><ele>129.0</ele><time>2026-04-04T15:17:47.103Z</time></trkpt><trkpt lat="44.9130717" lon="8.2934667"><ele>129.0</ele><time>2026-04-04T15:17:48.103Z</time></trkpt><trkpt lat="44.9131783" lon="8.2936317"><ele>129.0</ele><time>2026-04-04T15:17:49.102Z</time></trkpt><trkpt lat="44.9132833" lon="8.2938033"><ele>129.0</ele><time>2026-04-04T15:17:50.098Z</time></trkpt><trkpt lat="44.91339" lon="8.2939783"><ele>130.66666666666666</ele><time>2026-04-04T15:17:51.102Z</time></trkpt><trkpt lat="44.9135" lon="8.2941467"><ele>132.33333333333331</ele><time>2026-04-04T15:17:52.099Z</time></trkpt><trkpt lat="44.9136117" lon="8.29432"><ele>134.0</ele><time>2026-04-04T15:17:53.105Z</time></trkpt><trkpt lat="44.91372" lon="8.294495"><ele>134.0</ele><time>2026-04-04T15:17:54.104Z</time></trkpt><trkpt lat="44.91383" lon="8.2946767"><ele>134.0</ele><time>2026-04-04T15:17:55.101Z</time></trkpt><trkpt lat="44.91394" lon="8.294865"><ele>134.0</ele><time>2026-04-04T15:17:56.101Z</time></trkpt><trkpt lat="44.9140533" lon="8.295045"><ele>133.33333333333331</ele><time>2026-04-04T15:17:57.101Z</time></trkpt><trkpt lat="44.9141583" lon="8.2952267"><ele>132.66666666666666</ele><time>2026-04-04T15:17:58.103Z</time></trkpt><trkpt lat="44.9142617" lon="8.2954033"><ele>132.0</ele><time>2026-04-04T15:17:59.104Z</time></trkpt><trkpt lat="44.914365" lon="8.2955767"><ele>134.0</ele><time>2026-04-04T15:18:00.101Z</time></trkpt><trkpt lat="44.91447" lon="8.2957433"><ele>136.0</ele><time>2026-04-04T15:18:01.104Z</time></trkpt><trkpt lat="44.91457" lon="8.2959117"><ele>138.0</ele><time>2026-04-04T15:18:02.102Z</time></trkpt><trkpt lat="44.91467" lon="8.2960733"><ele>138.0</ele><time>2026-04-04T15:18:03.099Z</time></trkpt><trkpt lat="44.9147683" lon="8.296235"><ele>138.0</ele><time>2026-04-04T15:18:04.101Z</time></trkpt><trkpt lat="44.914865" lon="8.2963917"><ele>138.0</ele><time>2026-04-04T15:18:05.107Z</time></trkpt><trkpt lat="44.9149617" lon="8.2965483"><ele>138.0</ele><time>2026-04-04T15:18:06.104Z</time></trkpt><trkpt lat="44.91506" lon="8.2967033"><ele>138.25</ele><time>2026-04-04T15:18:07.106Z</time></trkpt><trkpt lat="44.9151567" lon="8.2968567"><ele>138.5</ele><time>2026-04-04T15:18:08.099Z</time></trkpt><trkpt lat="44.9152567" lon="8.29701"><ele>138.75</ele><time>2026-04-04T15:18:09.103Z</time></trkpt><trkpt lat="44.915355" lon="8.2971717"><ele>139.0</ele><time>2026-04-04T15:18:10.103Z</time></trkpt><trkpt lat="44.91547" lon="8.29732"><ele>139.0</ele><time>2026-04-04T15:18:11.101Z</time></trkpt><trkpt lat="44.915605" lon="8.2974533"><ele>139.0</ele><time>2026-04-04T15:18:12.1Z</time></trkpt><trkpt lat="44.9157533" lon="8.2975617"><ele>139.0</ele><time>2026-04-04T15:18:13.106Z</time></trkpt><trkpt lat="44.9159133" lon="8.2976567"><ele>139.66666666666669</ele><time>2026-04-04T15:18:14.098Z</time></trkpt><trkpt lat="44.9160717" lon="8.2977417"><ele>140.33333333333334</ele><time>2026-04-04T15:18:15.097Z</time></trkpt><trkpt lat="44.9162267" lon="8.2978183"><ele>141.0</ele><time>2026-04-04T15:18:16.105Z</time></trkpt><trkpt lat="44.9163767" lon="8.2978867"><ele>141.0</ele><time>2026-04-04T15:18:17.106Z</time></trkpt><trkpt lat="44.9165217" lon="8.29795"><ele>141.0</ele><time>2026-04-04T15:18:18.102Z</time></trkpt><trkpt lat="44.9166667" lon="8.298005"><ele>141.0</ele><time>2026-04-04T15:18:19.101Z</time></trkpt><trkpt lat="44.9168083" lon="8.298055"><ele>141.0</ele><time>2026-04-04T15:18:20.103Z</time></trkpt><trkpt lat="44.91695" lon="8.298105"><ele>140.0</ele><time>2026-04-04T15:18:21.105Z</time></trkpt><trkpt lat="44.9170883" lon="8.2981567"><ele>139.0</ele><time>2026-04-04T15:18:22.102Z</time></trkpt><trkpt lat="44.9172267" lon="8.298205"><ele>138.0</ele><time>2026-04-04T15:18:23.103Z</time></trkpt><trkpt lat="44.9173667" lon="8.2982583"><ele>137.0</ele><time>2026-04-04T15:18:24.103Z</time></trkpt><trkpt lat="44.9175033" lon="8.2983117"><ele>138.0</ele><time>2026-04-04T15:18:25.103Z</time></trkpt><trkpt lat="44.917635" lon="8.2983667"><ele>139.0</ele><time>2026-04-04T15:18:26.102Z</time></trkpt><trkpt lat="44.9177683" lon="8.2984183"><ele>140.0</ele><time>2026-04-04T15:18:27.106Z</time></trkpt><trkpt lat="44.9178983" lon="8.29847"><ele>141.0</ele><time>2026-04-04T15:18:28.106Z</time></trkpt><trkpt lat="44.91803" lon="8.29852"><ele>141.0</ele><time>2026-04-04T15:18:29.102Z</time></trkpt><trkpt lat="44.9181533" lon="8.29857"><ele>141.0</ele><time>2026-04-04T15:18:30.105Z</time></trkpt><trkpt lat="44.9182767" lon="8.298615"><ele>141.0</ele><time>2026-04-04T15:18:31.102Z</time></trkpt><trkpt lat="44.9184017" lon="8.2986617"><ele>141.0</ele><time>2026-04-04T15:18:32.101Z</time></trkpt><trkpt lat="44.9185267" lon="8.298705"><ele>143.0</ele><time>2026-04-04T15:18:33.103Z</time></trkpt><trkpt lat="44.91865" lon="8.2987483"><ele>145.0</ele><time>2026-04-04T15:18:34.102Z</time></trkpt><trkpt lat="44.9187583" lon="8.29879"><ele>147.0</ele><time>2026-04-04T15:18:35.099Z</time></trkpt><trkpt lat="44.918865" lon="8.29883"><ele>149.0</ele><time>2026-04-04T15:18:36.099Z</time></trkpt><trkpt lat="44.918965" lon="8.2988617"><ele>149.0</ele><time>2026-04-04T15:18:37.099Z</time></trkpt><trkpt lat="44.9190617" lon="8.2988933"><ele>149.0</ele><time>2026-04-04T15:18:38.102Z</time></trkpt><trkpt lat="44.9191483" lon="8.29894"><ele>149.0</ele><time>2026-04-04T15:18:39.104Z</time></trkpt><trkpt lat="44.9192317" lon="8.298975"><ele>149.0</ele><time>2026-04-04T15:18:40.103Z</time></trkpt><trkpt lat="44.919305" lon="8.2990033"><ele>149.0</ele><time>2026-04-04T15:18:41.104Z</time></trkpt><trkpt lat="44.9194" lon="8.299045"><ele>146.5</ele><time>2026-04-04T15:18:42.1Z</time></trkpt><trkpt lat="44.9195067" lon="8.2990783"><ele>144.0</ele><time>2026-04-04T15:18:43.105Z</time></trkpt><trkpt lat="44.9196333" lon="8.2991317"><ele>141.5</ele><time>2026-04-04T15:18:44.1Z</time></trkpt><trkpt lat="44.919755" lon="8.2991883"><ele>139.0</ele><time>2026-04-04T15:18:45.108Z</time></trkpt><trkpt lat="44.9198867" lon="8.299225"><ele>139.0</ele><time>2026-04-04T15:18:46.101Z</time></trkpt><trkpt lat="44.9200233" lon="8.2992667"><ele>139.0</ele><time>2026-04-04T15:18:47.103Z</time></trkpt><trkpt lat="44.9201617" lon="8.2993"><ele>139.0</ele><time>2026-04-04T15:18:48.1Z</time></trkpt><trkpt lat="44.9203033" lon="8.2993133"><ele>139.0</ele><time>2026-04-04T15:18:49.103Z</time></trkpt><trkpt lat="44.920455" lon="8.2993067"><ele>139.0</ele><time>2026-04-04T15:18:50.104Z</time></trkpt><trkpt lat="44.920615" lon="8.2992783"><ele>139.0</ele><time>2026-04-04T15:18:51.104Z</time></trkpt><trkpt lat="44.9207867" lon="8.299255"><ele>139.0</ele><time>2026-04-04T15:18:52.102Z</time></trkpt><trkpt lat="44.920945" lon="8.29922"><ele>137.66666666666669</ele><time>2026-04-04T15:18:53.107Z</time></trkpt><trkpt lat="44.9210967" lon="8.299185"><ele>136.33333333333334</ele><time>2026-04-04T15:18:54.102Z</time></trkpt><trkpt lat="44.92124" lon="8.29915"><ele>135.0</ele><time>2026-04-04T15:18:55.103Z</time></trkpt><trkpt lat="44.92139" lon="8.29911"><ele>135.0</ele><time>2026-04-04T15:18:56.101Z</time></trkpt><trkpt lat="44.9215333" lon="8.299075"><ele>135.0</ele><time>2026-04-04T15:18:57.101Z</time></trkpt><trkpt lat="44.9216783" lon="8.2990433"><ele>135.0</ele><time>2026-04-04T15:18:58.102Z</time></trkpt><trkpt lat="44.9218233" lon="8.29901"><ele>135.0</ele><time>2026-04-04T15:18:59.109Z</time></trkpt><trkpt lat="44.9219683" lon="8.2989767"><ele>135.75</ele><time>2026-04-04T15:19:00.099Z</time></trkpt><trkpt lat="44.92211" lon="8.29894"><ele>136.5</ele><time>2026-04-04T15:19:01.1Z</time></trkpt><trkpt lat="44.922255" lon="8.2989017"><ele>137.25</ele><time>2026-04-04T15:19:02.104Z</time></trkpt><trkpt lat="44.9223983" lon="8.29887"><ele>138.0</ele><time>2026-04-04T15:19:03.106Z</time></trkpt><trkpt lat="44.922545" lon="8.2988367"><ele>138.75</ele><time>2026-04-04T15:19:04.104Z</time></trkpt><trkpt lat="44.9226917" lon="8.298805"><ele>139.5</ele><time>2026-04-04T15:19:05.101Z</time></trkpt><trkpt lat="44.92283" lon="8.298775"><ele>140.25</ele><time>2026-04-04T15:19:06.102Z</time></trkpt><trkpt lat="44.9229617" lon="8.2987517"><ele>141.0</ele><time>2026-04-04T15:19:07.102Z</time></trkpt><trkpt lat="44.9230883" lon="8.29872"><ele>141.0</ele><time>2026-04-04T15:19:08.101Z</time></trkpt><trkpt lat="44.9232183" lon="8.29869"><ele>141.0</ele><time>2026-04-04T15:19:09.104Z</time></trkpt><trkpt lat="44.92335" lon="8.2986583"><ele>141.0</ele><time>2026-04-04T15:19:10.102Z</time></trkpt><trkpt lat="44.9234733" lon="8.2986283"><ele>141.0</ele><time>2026-04-04T15:19:11.103Z</time></trkpt><trkpt lat="44.9235883" lon="8.2985967"><ele>141.0</ele><time>2026-04-04T15:19:12.106Z</time></trkpt><trkpt lat="44.9237017" lon="8.2985633"><ele>141.0</ele><time>2026-04-04T15:19:13.098Z</time></trkpt><trkpt lat="44.9238183" lon="8.29853"><ele>141.0</ele><time>2026-04-04T15:19:14.104Z</time></trkpt><trkpt lat="44.9239367" lon="8.2985017"><ele>141.0</ele><time>2026-04-04T15:19:15.103Z</time></trkpt><trkpt lat="44.9240583" lon="8.2984733"><ele>141.0</ele><time>2026-04-04T15:19:16.102Z</time></trkpt><trkpt lat="44.9241783" lon="8.298445"><ele>141.0</ele><time>2026-04-04T15:19:17.1Z</time></trkpt><trkpt lat="44.924295" lon="8.2984183"><ele>141.0</ele><time>2026-04-04T15:19:18.101Z</time></trkpt><trkpt lat="44.9244133" lon="8.2983867"><ele>141.0</ele><time>2026-04-04T15:19:19.102Z</time></trkpt><trkpt lat="44.92452" lon="8.2983617"><ele>141.25</ele><time>2026-04-04T15:19:20.107Z</time></trkpt><trkpt lat="44.9246283" lon="8.298335"><ele>141.5</ele><time>2026-04-04T15:19:21.102Z</time></trkpt><trkpt lat="44.9247417" lon="8.2983083"><ele>141.75</ele><time>2026-04-04T15:19:22.103Z</time></trkpt><trkpt lat="44.9248617" lon="8.2982783"><ele>142.0</ele><time>2026-04-04T15:19:23.099Z</time></trkpt><trkpt lat="44.92499" lon="8.2982583"><ele>141.75</ele><time>2026-04-04T15:19:24.103Z</time></trkpt><trkpt lat="44.92512" lon="8.2982367"><ele>141.5</ele><time>2026-04-04T15:19:25.101Z</time></trkpt><trkpt lat="44.9252467" lon="8.29821"><ele>141.25</ele><time>2026-04-04T15:19:26.104Z</time></trkpt><trkpt lat="44.9253817" lon="8.2981767"><ele>141.0</ele><time>2026-04-04T15:19:27.105Z</time></trkpt><trkpt lat="44.9255233" lon="8.2981367"><ele>141.0</ele><time>2026-04-04T15:19:28.109Z</time></trkpt><trkpt lat="44.92566" lon="8.2980933"><ele>141.0</ele><time>2026-04-04T15:19:29.1Z</time></trkpt><trkpt lat="44.9257967" lon="8.29804"><ele>141.0</ele><time>2026-04-04T15:19:30.098Z</time></trkpt><trkpt lat="44.92594" lon="8.2979717"><ele>141.0</ele><time>2026-04-04T15:19:31.102Z</time></trkpt><trkpt lat="44.9260883" lon="8.29789"><ele>142.66666666666666</ele><time>2026-04-04T15:19:32.098Z</time></trkpt><trkpt lat="44.9262483" lon="8.2978117"><ele>144.33333333333331</ele><time>2026-04-04T15:19:33.099Z</time></trkpt><trkpt lat="44.926415" lon="8.2977183"><ele>146.0</ele><time>2026-04-04T15:19:34.104Z</time></trkpt><trkpt lat="44.9265883" lon="8.2976167"><ele>145.0</ele><time>2026-04-04T15:19:35.1Z</time></trkpt><trkpt lat="44.92678" lon="8.2974933"><ele>144.0</ele><time>2026-04-04T15:19:36.103Z</time></trkpt><trkpt lat="44.9269967" lon="8.2973567"><ele>143.0</ele><time>2026-04-04T15:19:37.106Z</time></trkpt><trkpt lat="44.9272417" lon="8.297215"><ele>143.0</ele><time>2026-04-04T15:19:38.104Z</time></trkpt><trkpt lat="44.9275133" lon="8.29707"><ele>143.0</ele><time>2026-04-04T15:19:39.105Z</time></trkpt><trkpt lat="44.92779" lon="8.2969183"><ele>143.0</ele><time>2026-04-04T15:19:40.101Z</time></trkpt><trkpt lat="44.9280467" lon="8.296775"><ele>143.0</ele><time>2026-04-04T15:19:41.103Z</time></trkpt><trkpt lat="44.9282983" lon="8.29663"><ele>144.0</ele><time>2026-04-04T15:19:42.105Z</time></trkpt><trkpt lat="44.9285433" lon="8.2964883"><ele>145.0</ele><time>2026-04-04T15:19:43.106Z</time></trkpt><trkpt lat="44.9287783" lon="8.2963533"><ele>145.0</ele><time>2026-04-04T15:19:44.101Z</time></trkpt><trkpt lat="44.9290067" lon="8.29622"><ele>145.0</ele><time>2026-04-04T15:19:45.102Z</time></trkpt><trkpt lat="44.9292317" lon="8.296085"><ele>144.5</ele><time>2026-04-04T15:19:46.102Z</time></trkpt><trkpt lat="44.9294567" lon="8.2959483"><ele>144.0</ele><time>2026-04-04T15:19:47.103Z</time></trkpt><trkpt lat="44.9296783" lon="8.2958183"><ele>144.0</ele><time>2026-04-04T15:19:48.1Z</time></trkpt><trkpt lat="44.9298967" lon="8.2956867"><ele>144.0</ele><time>2026-04-04T15:19:49.104Z</time></trkpt><trkpt lat="44.9301133" lon="8.2955517"><ele>146.0</ele><time>2026-04-04T15:19:50.105Z</time></trkpt><trkpt lat="44.93033" lon="8.2954167"><ele>148.0</ele><time>2026-04-04T15:19:51.101Z</time></trkpt><trkpt lat="44.9305467" lon="8.29528"><ele>148.0</ele><time>2026-04-04T15:19:52.104Z</time></trkpt><trkpt lat="44.9307617" lon="8.2951417"><ele>148.0</ele><time>2026-04-04T15:19:53.104Z</time></trkpt><trkpt lat="44.9309783" lon="8.2950083"><ele>148.0</ele><time>2026-04-04T15:19:54.104Z</time></trkpt><trkpt lat="44.93119" lon="8.2948717"><ele>148.0</ele><time>2026-04-04T15:19:55.102Z</time></trkpt><trkpt lat="44.9314" lon="8.2947333"><ele>147.5</ele><time>2026-04-04T15:19:56.104Z</time></trkpt><trkpt lat="44.9316133" lon="8.2945967"><ele>147.0</ele><time>2026-04-04T15:19:57.099Z</time></trkpt><trkpt lat="44.9318267" lon="8.2944517"><ele>148.5</ele><time>2026-04-04T15:19:58.1Z</time></trkpt><trkpt lat="44.9320433" lon="8.2943067"><ele>150.0</ele><time>2026-04-04T15:19:59.105Z</time></trkpt><trkpt lat="44.9322583" lon="8.2941667"><ele>150.0</ele><time>2026-04-04T15:20:00.101Z</time></trkpt><trkpt lat="44.932475" lon="8.2940283"><ele>150.0</ele><time>2026-04-04T15:20:01.099Z</time></trkpt><trkpt lat="44.9326917" lon="8.293895"><ele>149.5</ele><time>2026-04-04T15:20:02.102Z</time></trkpt><trkpt lat="44.9329083" lon="8.2937633"><ele>149.0</ele><time>2026-04-04T15:20:03.103Z</time></trkpt><trkpt lat="44.9331217" lon="8.2936333"><ele>149.0</ele><time>2026-04-04T15:20:04.107Z</time></trkpt><trkpt lat="44.93334" lon="8.2935"><ele>149.0</ele><time>2026-04-04T15:20:05.102Z</time></trkpt><trkpt lat="44.933555" lon="8.2933667"><ele>153.5</ele><time>2026-04-04T15:20:06.101Z</time></trkpt><trkpt lat="44.93377" lon="8.293235"><ele>158.0</ele><time>2026-04-04T15:20:07.102Z</time></trkpt><trkpt lat="44.9339833" lon="8.2931083"><ele>154.0</ele><time>2026-04-04T15:20:08.102Z</time></trkpt><trkpt lat="44.9342" lon="8.2929883"><ele>150.0</ele><time>2026-04-04T15:20:09.1Z</time></trkpt><trkpt lat="44.9344233" lon="8.2928867"><ele>150.0</ele><time>2026-04-04T15:20:10.104Z</time></trkpt><trkpt lat="44.9346583" lon="8.292795"><ele>150.0</ele><time>2026-04-04T15:20:11.104Z</time></trkpt><trkpt lat="44.934905" lon="8.2926983"><ele>152.0</ele><time>2026-04-04T15:20:12.106Z</time></trkpt><trkpt lat="44.9351533" lon="8.2926017"><ele>154.0</ele><time>2026-04-04T15:20:13.103Z</time></trkpt><trkpt lat="44.9354" lon="8.2925067"><ele>154.0</ele><time>2026-04-04T15:20:14.102Z</time></trkpt><trkpt lat="44.9356383" lon="8.29242"><ele>154.0</ele><time>2026-04-04T15:20:15.103Z</time></trkpt><trkpt lat="44.9358717" lon="8.2923383"><ele>153.0</ele><time>2026-04-04T15:20:16.101Z</time></trkpt><trkpt lat="44.9361033" lon="8.2922567"><ele>152.0</ele><time>2026-04-04T15:20:17.103Z</time></trkpt><trkpt lat="44.93633" lon="8.29217"><ele>152.0</ele><time>2026-04-04T15:20:18.104Z</time></trkpt><trkpt lat="44.93656" lon="8.2920817"><ele>152.0</ele><time>2026-04-04T15:20:19.106Z</time></trkpt><trkpt lat="44.9367867" lon="8.291995"><ele>153.0</ele><time>2026-04-04T15:20:20.102Z</time></trkpt><trkpt lat="44.9370167" lon="8.29191"><ele>154.0</ele><time>2026-04-04T15:20:21.101Z</time></trkpt><trkpt lat="44.9372417" lon="8.2918283"><ele>154.0</ele><time>2026-04-04T15:20:22.101Z</time></trkpt><trkpt lat="44.9374667" lon="8.2917483"><ele>154.0</ele><time>2026-04-04T15:20:23.107Z</time></trkpt><trkpt lat="44.9376867" lon="8.2916733"><ele>154.5</ele><time>2026-04-04T15:20:24.103Z</time></trkpt><trkpt lat="44.9379067" lon="8.2915933"><ele>155.0</ele><time>2026-04-04T15:20:25.103Z</time></trkpt><trkpt lat="44.9381233" lon="8.2915117"><ele>155.0</ele><time>2026-04-04T15:20:26.1Z</time></trkpt><trkpt lat="44.93834" lon="8.2914283"><ele>155.0</ele><time>2026-04-04T15:20:27.102Z</time></trkpt><trkpt lat="44.9385567" lon="8.291345"><ele>155.0</ele><time>2026-04-04T15:20:28.103Z</time></trkpt><trkpt lat="44.9387717" lon="8.2912667"><ele>155.33333333333331</ele><time>2026-04-04T15:20:29.107Z</time></trkpt><trkpt lat="44.938985" lon="8.291185"><ele>155.66666666666666</ele><time>2026-04-04T15:20:30.104Z</time></trkpt><trkpt lat="44.9391967" lon="8.2911033"><ele>156.0</ele><time>2026-04-04T15:20:31.104Z</time></trkpt><trkpt lat="44.9394033" lon="8.2910217"><ele>157.33333333333334</ele><time>2026-04-04T15:20:32.105Z</time></trkpt><trkpt lat="44.93961" lon="8.290945"><ele>158.66666666666669</ele><time>2026-04-04T15:20:33.101Z</time></trkpt><trkpt lat="44.9398167" lon="8.290865"><ele>160.0</ele><time>2026-04-04T15:20:34.105Z</time></trkpt><trkpt lat="44.9400217" lon="8.2907883"><ele>159.0</ele><time>2026-04-04T15:20:35.103Z</time></trkpt><trkpt lat="44.940225" lon="8.29071"><ele>158.0</ele><time>2026-04-04T15:20:36.105Z</time></trkpt><trkpt lat="44.9404217" lon="8.29063"><ele>157.0</ele><time>2026-04-04T15:20:37.1Z</time></trkpt><trkpt lat="44.9406167" lon="8.2905533"><ele>157.0</ele><time>2026-04-04T15:20:38.103Z</time></trkpt><trkpt lat="44.940815" lon="8.2904733"><ele>157.0</ele><time>2026-04-04T15:20:39.103Z</time></trkpt><trkpt lat="44.9410133" lon="8.2904033"><ele>157.0</ele><time>2026-04-04T15:20:40.104Z</time></trkpt><trkpt lat="44.94122" lon="8.2903383"><ele>157.0</ele><time>2026-04-04T15:20:41.105Z</time></trkpt><trkpt lat="44.9414167" lon="8.2903283"><ele>157.0</ele><time>2026-04-04T15:20:42.099Z</time></trkpt><trkpt lat="44.9416167" lon="8.2903267"><ele>157.0</ele><time>2026-04-04T15:20:43.105Z</time></trkpt><trkpt lat="44.9418117" lon="8.29036"><ele>157.66666666666669</ele><time>2026-04-04T15:20:44.1Z</time></trkpt><trkpt lat="44.9420117" lon="8.2903883"><ele>158.33333333333334</ele><time>2026-04-04T15:20:45.108Z</time></trkpt><trkpt lat="44.9422167" lon="8.2904217"><ele>159.0</ele><time>2026-04-04T15:20:46.106Z</time></trkpt><trkpt lat="44.9424183" lon="8.2904517"><ele>159.33333333333334</ele><time>2026-04-04T15:20:47.104Z</time></trkpt><trkpt lat="44.9426117" lon="8.2904633"><ele>159.66666666666669</ele><time>2026-04-04T15:20:48.108Z</time></trkpt><trkpt lat="44.94282" lon="8.2905183"><ele>160.0</ele><time>2026-04-04T15:20:49.101Z</time></trkpt><trkpt lat="44.943025" lon="8.290565"><ele>161.0</ele><time>2026-04-04T15:20:50.101Z</time></trkpt><trkpt lat="44.9432233" lon="8.2906033"><ele>162.0</ele><time>2026-04-04T15:20:51.1Z</time></trkpt><trkpt lat="44.94342" lon="8.2906433"><ele>163.0</ele><time>2026-04-04T15:20:52.102Z</time></trkpt><trkpt lat="44.94362" lon="8.2906767"><ele>163.0</ele><time>2026-04-04T15:20:53.1Z</time></trkpt><trkpt lat="44.943825" lon="8.290705"><ele>163.0</ele><time>2026-04-04T15:20:54.101Z</time></trkpt><trkpt lat="44.9440317" lon="8.2907417"><ele>163.0</ele><time>2026-04-04T15:20:55.105Z</time></trkpt><trkpt lat="44.944245" lon="8.2907717"><ele>162.0</ele><time>2026-04-04T15:20:56.101Z</time></trkpt><trkpt lat="44.9444583" lon="8.2907933"><ele>161.0</ele><time>2026-04-04T15:20:57.103Z</time></trkpt><trkpt lat="44.94467" lon="8.2908267"><ele>160.0</ele><time>2026-04-04T15:20:58.102Z</time></trkpt><trkpt lat="44.9448817" lon="8.290865"><ele>161.33333333333334</ele><time>2026-04-04T15:20:59.105Z</time></trkpt><trkpt lat="44.9450983" lon="8.290905"><ele>162.66666666666666</ele><time>2026-04-04T15:21:00.102Z</time></trkpt><trkpt lat="44.945315" lon="8.2909483"><ele>164.0</ele><time>2026-04-04T15:21:01.103Z</time></trkpt><trkpt lat="44.9455317" lon="8.290985"><ele>164.0</ele><time>2026-04-04T15:21:02.102Z</time></trkpt><trkpt lat="44.9457417" lon="8.2910233"><ele>164.0</ele><time>2026-04-04T15:21:03.099Z</time></trkpt><trkpt lat="44.9459583" lon="8.29106"><ele>164.0</ele><time>2026-04-04T15:21:04.104Z</time></trkpt><trkpt lat="44.9461717" lon="8.2911"><ele>164.33333333333331</ele><time>2026-04-04T15:21:05.1Z</time></trkpt><trkpt lat="44.946385" lon="8.2911383"><ele>164.66666666666666</ele><time>2026-04-04T15:21:06.103Z</time></trkpt><trkpt lat="44.9465983" lon="8.2911767"><ele>165.0</ele><time>2026-04-04T15:21:07.104Z</time></trkpt><trkpt lat="44.9468117" lon="8.2912167"><ele>165.0</ele><time>2026-04-04T15:21:08.1Z</time></trkpt><trkpt lat="44.9470233" lon="8.291245"><ele>165.0</ele><time>2026-04-04T15:21:09.099Z</time></trkpt><trkpt lat="44.9472333" lon="8.291275"><ele>165.0</ele><time>2026-04-04T15:21:10.103Z</time></trkpt><trkpt lat="44.9474383" lon="8.2913083"><ele>164.66666666666666</ele><time>2026-04-04T15:21:11.102Z</time></trkpt><trkpt lat="44.9476383" lon="8.291345"><ele>164.33333333333331</ele><time>2026-04-04T15:21:12.104Z</time></trkpt><trkpt lat="44.9478283" lon="8.291375"><ele>164.0</ele><time>2026-04-04T15:21:13.099Z</time></trkpt><trkpt lat="44.948005" lon="8.2914017"><ele>164.25</ele><time>2026-04-04T15:21:14.102Z</time></trkpt><trkpt lat="44.9481617" lon="8.2914333"><ele>164.5</ele><time>2026-04-04T15:21:15.103Z</time></trkpt><trkpt lat="44.948295" lon="8.2914667"><ele>164.75</ele><time>2026-04-04T15:21:16.103Z</time></trkpt><trkpt lat="44.9484067" lon="8.2915083"><ele>165.0</ele><time>2026-04-04T15:21:17.104Z</time></trkpt><trkpt lat="44.9484967" lon="8.2915533"><ele>165.4</ele><time>2026-04-04T15:21:18.1Z</time></trkpt><trkpt lat="44.9485733" lon="8.2916017"><ele>165.8</ele><time>2026-04-04T15:21:19.104Z</time></trkpt><trkpt lat="44.9486383" lon="8.29164"><ele>166.2</ele><time>2026-04-04T15:21:20.102Z</time></trkpt><trkpt lat="44.9487617" lon="8.2916633"><ele>166.6</ele><time>2026-04-04T15:21:22.103Z</time></trkpt><trkpt lat="44.9488817" lon="8.2915767"><ele>167.0</ele><time>2026-04-04T15:21:24.102Z</time></trkpt><trkpt lat="44.9489517" lon="8.29149"><ele>166.8</ele><time>2026-04-04T15:21:25.104Z</time></trkpt><trkpt lat="44.9490383" lon="8.2914067"><ele>166.6</ele><time>2026-04-04T15:21:26.102Z</time></trkpt><trkpt lat="44.9491267" lon="8.291315"><ele>166.4</ele><time>2026-04-04T15:21:27.104Z</time></trkpt><trkpt lat="44.9492167" lon="8.2912167"><ele>166.20000000000002</ele><time>2026-04-04T15:21:28.103Z</time></trkpt><trkpt lat="44.9492933" lon="8.2911117"><ele>166.0</ele><time>2026-04-04T15:21:29.103Z</time></trkpt><trkpt lat="44.9493533" lon="8.2910067"><ele>166.4</ele><time>2026-04-04T15:21:30.101Z</time></trkpt><trkpt lat="44.9493883" lon="8.29088"><ele>166.8</ele><time>2026-04-04T15:21:31.103Z</time></trkpt><trkpt lat="44.9494" lon="8.290735"><ele>167.20000000000002</ele><time>2026-04-04T15:21:32.1Z</time></trkpt><trkpt lat="44.94939" lon="8.29058"><ele>167.60000000000002</ele><time>2026-04-04T15:21:33.102Z</time></trkpt><trkpt lat="44.949375" lon="8.2904183"><ele>168.0</ele><time>2026-04-04T15:21:34.102Z</time></trkpt><trkpt lat="44.9493633" lon="8.29027"><ele>168.0</ele><time>2026-04-04T15:21:35.102Z</time></trkpt><trkpt lat="44.9493667" lon="8.2901333"><ele>168.0</ele><time>2026-04-04T15:21:36.102Z</time></trkpt><trkpt lat="44.949375" lon="8.2900033"><ele>168.0</ele><time>2026-04-04T15:21:37.103Z</time></trkpt><trkpt lat="44.9494317" lon="8.2899133"><ele>168.0</ele><time>2026-04-04T15:21:38.105Z</time></trkpt><trkpt lat="44.9495033" lon="8.2898283"><ele>168.0</ele><time>2026-04-04T15:21:39.104Z</time></trkpt><trkpt lat="44.9496133" lon="8.2897583"><ele>170.66666666666666</ele><time>2026-04-04T15:21:40.101Z</time></trkpt><trkpt lat="44.94974" lon="8.2896867"><ele>173.33333333333331</ele><time>2026-04-04T15:21:41.105Z</time></trkpt><trkpt lat="44.9498933" lon="8.2896017"><ele>176.0</ele><time>2026-04-04T15:21:42.103Z</time></trkpt><trkpt lat="44.9500517" lon="8.2895133"><ele>176.0</ele><time>2026-04-04T15:21:43.103Z</time></trkpt><trkpt lat="44.9502183" lon="8.2894217"><ele>176.0</ele><time>2026-04-04T15:21:44.105Z</time></trkpt><trkpt lat="44.9503933" lon="8.2893333"><ele>176.0</ele><time>2026-04-04T15:21:45.102Z</time></trkpt><trkpt lat="44.950575" lon="8.2892317"><ele>176.0</ele><time>2026-04-04T15:21:46.102Z</time></trkpt><trkpt lat="44.9507567" lon="8.28913"><ele>176.0</ele><time>2026-04-04T15:21:47.102Z</time></trkpt><trkpt lat="44.95094" lon="8.2890367"><ele>176.0</ele><time>2026-04-04T15:21:48.099Z</time></trkpt><trkpt lat="44.95111" lon="8.2889517"><ele>177.75</ele><time>2026-04-04T15:21:49.104Z</time></trkpt><trkpt lat="44.951265" lon="8.2888717"><ele>179.5</ele><time>2026-04-04T15:21:50.105Z</time></trkpt><trkpt lat="44.9513917" lon="8.288805"><ele>181.25</ele><time>2026-04-04T15:21:51.101Z</time></trkpt><trkpt lat="44.9515" lon="8.2887383"><ele>183.0</ele><time>2026-04-04T15:21:52.105Z</time></trkpt><trkpt lat="44.9515883" lon="8.2886467"><ele>183.0</ele><time>2026-04-04T15:21:53.104Z</time></trkpt><trkpt lat="44.9516517" lon="8.2885217"><ele>183.0</ele><time>2026-04-04T15:21:54.1Z</time></trkpt><trkpt lat="44.951695" lon="8.2883783"><ele>183.0</ele><time>2026-04-04T15:21:55.1Z</time></trkpt><trkpt lat="44.9517183" lon="8.2882133"><ele>183.0</ele><time>2026-04-04T15:21:56.1Z</time></trkpt><trkpt lat="44.95172" lon="8.2880433"><ele>186.25</ele><time>2026-04-04T15:21:57.102Z</time></trkpt><trkpt lat="44.9516917" lon="8.2878717"><ele>189.5</ele><time>2026-04-04T15:21:58.102Z</time></trkpt><trkpt lat="44.95164" lon="8.2877083"><ele>192.75</ele><time>2026-04-04T15:21:59.101Z</time></trkpt><trkpt lat="44.951575" lon="8.2875517"><ele>196.0</ele><time>2026-04-04T15:22:00.109Z</time></trkpt><trkpt lat="44.9515267" lon="8.287415"><ele>195.99999999999997</ele><time>2026-04-04T15:22:01.102Z</time></trkpt><trkpt lat="44.9515" lon="8.2872933"><ele>196.0</ele><time>2026-04-04T15:22:02.105Z</time></trkpt><trkpt lat="44.9514717" lon="8.2871767"><ele>196.0</ele><time>2026-04-04T15:22:03.105Z</time></trkpt><trkpt lat="44.9514983" lon="8.2870783"><ele>196.0</ele><time>2026-04-04T15:22:04.1Z</time></trkpt><trkpt lat="44.9515233" lon="8.2869917"><ele>195.99999999999997</ele><time>2026-04-04T15:22:05.105Z</time></trkpt><trkpt lat="44.95157" lon="8.286925"><ele>196.0</ele><time>2026-04-04T15:22:06.104Z</time></trkpt><trkpt lat="44.951645" lon="8.2868967"><ele>195.4</ele><time>2026-04-04T15:22:07.102Z</time></trkpt><trkpt lat="44.9517417" lon="8.286905"><ele>194.8</ele><time>2026-04-04T15:22:08.102Z</time></trkpt><trkpt lat="44.9518567" lon="8.286965"><ele>194.20000000000002</ele><time>2026-04-04T15:22:09.102Z</time></trkpt><trkpt lat="44.9519633" lon="8.2870383"><ele>193.60000000000002</ele><time>2026-04-04T15:22:10.101Z</time></trkpt><trkpt lat="44.9520467" lon="8.2870583"><ele>193.0</ele><time>2026-04-04T15:22:11.104Z</time></trkpt><trkpt lat="44.95213" lon="8.2871067"><ele>192.99999999999997</ele><time>2026-04-04T15:22:12.102Z</time></trkpt><trkpt lat="44.9522017" lon="8.2871333"><ele>193.0</ele><time>2026-04-04T15:22:13.101Z</time></trkpt><trkpt lat="44.9522983" lon="8.287145"><ele>193.0</ele><time>2026-04-04T15:22:15.1Z</time></trkpt><trkpt lat="44.9523" lon="8.2870467"><ele>193.0</ele><time>2026-04-04T15:22:18.103Z</time></trkpt><trkpt lat="44.9522383" lon="8.286985"><ele>192.99999999999997</ele><time>2026-04-04T15:22:19.101Z</time></trkpt><trkpt lat="44.9521767" lon="8.2869167"><ele>193.0</ele><time>2026-04-04T15:22:20.101Z</time></trkpt><trkpt lat="44.9521217" lon="8.286845"><ele>192.99999999999997</ele><time>2026-04-04T15:22:21.1Z</time></trkpt><trkpt lat="44.95206" lon="8.2867633"><ele>193.0</ele><time>2026-04-04T15:22:22.102Z</time></trkpt><trkpt lat="44.952005" lon="8.2866783"><ele>193.0</ele><time>2026-04-04T15:22:23.103Z</time></trkpt><trkpt lat="44.9519483" lon="8.2865867"><ele>193.0</ele><time>2026-04-04T15:22:24.101Z</time></trkpt><trkpt lat="44.9518883" lon="8.2864933"><ele>192.99999999999997</ele><time>2026-04-04T15:22:25.099Z</time></trkpt><trkpt lat="44.9518317" lon="8.2864"><ele>193.0</ele><time>2026-04-04T15:22:26.102Z</time></trkpt><trkpt lat="44.95178" lon="8.286305"><ele>191.66666666666666</ele><time>2026-04-04T15:22:27.1Z</time></trkpt><trkpt lat="44.9517233" lon="8.2862133"><ele>190.33333333333331</ele><time>2026-04-04T15:22:28.103Z</time></trkpt><trkpt lat="44.9516833" lon="8.2861183"><ele>189.0</ele><time>2026-04-04T15:22:29.1Z</time></trkpt><trkpt lat="44.9516583" lon="8.2860083"><ele>187.66666666666666</ele><time>2026-04-04T15:22:30.101Z</time></trkpt><trkpt lat="44.9516333" lon="8.2859067"><ele>186.33333333333331</ele><time>2026-04-04T15:22:31.105Z</time></trkpt><trkpt lat="44.9516033" lon="8.2858033"><ele>185.0</ele><time>2026-04-04T15:22:32.103Z</time></trkpt><trkpt lat="44.9515717" lon="8.2857067"><ele>188.14285714285714</ele><time>2026-04-04T15:22:33.101Z</time></trkpt><trkpt lat="44.951525" lon="8.2856217"><ele>191.28571428571428</ele><time>2026-04-04T15:22:34.103Z</time></trkpt><trkpt lat="44.9514783" lon="8.2855517"><ele>194.42857142857144</ele><time>2026-04-04T15:22:35.101Z</time></trkpt><trkpt lat="44.9514217" lon="8.2854967"><ele>197.57142857142856</ele><time>2026-04-04T15:22:36.103Z</time></trkpt><trkpt lat="44.9513567" lon="8.28546"><ele>200.71428571428572</ele><time>2026-04-04T15:22:37.103Z</time></trkpt><trkpt lat="44.9512883" lon="8.2854317"><ele>203.85714285714286</ele><time>2026-04-04T15:22:38.101Z</time></trkpt><trkpt lat="44.9512117" lon="8.285445"><ele>207.0</ele><time>2026-04-04T15:22:39.1Z</time></trkpt><trkpt lat="44.9511117" lon="8.2855267"><ele>207.0</ele><time>2026-04-04T15:22:40.107Z</time></trkpt><trkpt lat="44.9510317" lon="8.285575"><ele>207.0</ele><time>2026-04-04T15:22:41.101Z</time></trkpt><trkpt lat="44.95095" lon="8.285625"><ele>207.0</ele><time>2026-04-04T15:22:42.104Z</time></trkpt><trkpt lat="44.95087" lon="8.2856667"><ele>207.0</ele><time>2026-04-04T15:22:43.101Z</time></trkpt><trkpt lat="44.9507933" lon="8.2856817"><ele>207.0</ele><time>2026-04-04T15:22:44.1Z</time></trkpt><trkpt lat="44.95072" lon="8.2856783"><ele>207.0</ele><time>2026-04-04T15:22:45.1Z</time></trkpt><trkpt lat="44.9506483" lon="8.28566"><ele>206.33333333333334</ele><time>2026-04-04T15:22:46.098Z</time></trkpt><trkpt lat="44.9505767" lon="8.2856233"><ele>205.66666666666669</ele><time>2026-04-04T15:22:47.1Z</time></trkpt><trkpt lat="44.9504967" lon="8.285565"><ele>205.0</ele><time>2026-04-04T15:22:48.103Z</time></trkpt><trkpt lat="44.9504217" lon="8.2854933"><ele>204.33333333333334</ele><time>2026-04-04T15:22:49.101Z</time></trkpt><trkpt lat="44.95035" lon="8.2854283"><ele>203.66666666666669</ele><time>2026-04-04T15:22:50.102Z</time></trkpt><trkpt lat="44.9502833" lon="8.2853667"><ele>203.0</ele><time>2026-04-04T15:22:51.1Z</time></trkpt><trkpt lat="44.950215" lon="8.285315"><ele>203.0</ele><time>2026-04-04T15:22:52.108Z</time></trkpt><trkpt lat="44.95014" lon="8.2852817"><ele>203.0</ele><time>2026-04-04T15:22:53.104Z</time></trkpt><trkpt lat="44.950045" lon="8.2852767"><ele>203.0</ele><time>2026-04-04T15:22:54.102Z</time></trkpt><trkpt lat="44.949945" lon="8.2853017"><ele>203.0</ele><time>2026-04-04T15:22:55.102Z</time></trkpt><trkpt lat="44.9498217" lon="8.2853583"><ele>203.0</ele><time>2026-04-04T15:22:56.106Z</time></trkpt><trkpt lat="44.9497033" lon="8.2853933"><ele>203.5</ele><time>2026-04-04T15:22:57.1Z</time></trkpt><trkpt lat="44.94959" lon="8.2854233"><ele>204.0</ele><time>2026-04-04T15:22:58.101Z</time></trkpt><trkpt lat="44.9494717" lon="8.285435"><ele>204.5</ele><time>2026-04-04T15:22:59.101Z</time></trkpt><trkpt lat="44.9493567" lon="8.2854467"><ele>205.0</ele><time>2026-04-04T15:23:00.101Z</time></trkpt><trkpt lat="44.9492433" lon="8.2854533"><ele>203.4</ele><time>2026-04-04T15:23:01.1Z</time></trkpt><trkpt lat="44.949135" lon="8.28546"><ele>201.8</ele><time>2026-04-04T15:23:02.104Z</time></trkpt><trkpt lat="44.9490317" lon="8.28547"><ele>200.2</ele><time>2026-04-04T15:23:03.1Z</time></trkpt><trkpt lat="44.94893" lon="8.28548"><ele>198.6</ele><time>2026-04-04T15:23:04.099Z</time></trkpt><trkpt lat="44.9488317" lon="8.285495"><ele>197.0</ele><time>2026-04-04T15:23:05.104Z</time></trkpt><trkpt lat="44.94873" lon="8.2855317"><ele>197.0</ele><time>2026-04-04T15:23:06.101Z</time></trkpt><trkpt lat="44.9486267" lon="8.285585"><ele>197.0</ele><time>2026-04-04T15:23:07.103Z</time></trkpt><trkpt lat="44.9485183" lon="8.2856633"><ele>197.0</ele><time>2026-04-04T15:23:08.101Z</time></trkpt><trkpt lat="44.9484117" lon="8.28574"><ele>197.0</ele><time>2026-04-04T15:23:09.102Z</time></trkpt><trkpt lat="44.9483033" lon="8.285825"><ele>198.25</ele><time>2026-04-04T15:23:10.104Z</time></trkpt><trkpt lat="44.9481967" lon="8.2859133"><ele>199.5</ele><time>2026-04-04T15:23:11.103Z</time></trkpt><trkpt lat="44.9480917" lon="8.2860067"><ele>200.75</ele><time>2026-04-04T15:23:12.103Z</time></trkpt><trkpt lat="44.9479967" lon="8.2861067"><ele>202.0</ele><time>2026-04-04T15:23:13.105Z</time></trkpt><trkpt lat="44.9479233" lon="8.2862117"><ele>202.0</ele><time>2026-04-04T15:23:14.1Z</time></trkpt><trkpt lat="44.9478633" lon="8.2863033"><ele>202.0</ele><time>2026-04-04T15:23:15.1Z</time></trkpt><trkpt lat="44.9477833" lon="8.286385"><ele>202.0</ele><time>2026-04-04T15:23:16.103Z</time></trkpt><trkpt lat="44.9477033" lon="8.2864733"><ele>202.0</ele><time>2026-04-04T15:23:17.102Z</time></trkpt><trkpt lat="44.9476167" lon="8.2865517"><ele>202.0</ele><time>2026-04-04T15:23:18.101Z</time></trkpt><trkpt lat="44.9475233" lon="8.2866367"><ele>202.8</ele><time>2026-04-04T15:23:19.103Z</time></trkpt><trkpt lat="44.9474317" lon="8.2867283"><ele>203.6</ele><time>2026-04-04T15:23:20.102Z</time></trkpt><trkpt lat="44.9473433" lon="8.28681"><ele>204.4</ele><time>2026-04-04T15:23:21.099Z</time></trkpt><trkpt lat="44.947245" lon="8.2868767"><ele>205.20000000000002</ele><time>2026-04-04T15:23:22.104Z</time></trkpt><trkpt lat="44.947155" lon="8.286945"><ele>206.0</ele><time>2026-04-04T15:23:23.1Z</time></trkpt><trkpt lat="44.94707" lon="8.286995"><ele>206.0</ele><time>2026-04-04T15:23:24.104Z</time></trkpt><trkpt lat="44.9469933" lon="8.2870367"><ele>206.0</ele><time>2026-04-04T15:23:25.101Z</time></trkpt><trkpt lat="44.9469083" lon="8.2870417"><ele>206.0</ele><time>2026-04-04T15:23:26.104Z</time></trkpt><trkpt lat="44.946815" lon="8.287035"><ele>206.0</ele><time>2026-04-04T15:23:27.1Z</time></trkpt><trkpt lat="44.9467267" lon="8.2870167"><ele>206.0</ele><time>2026-04-04T15:23:28.099Z</time></trkpt><trkpt lat="44.9466267" lon="8.2869667"><ele>206.20000000000002</ele><time>2026-04-04T15:23:29.102Z</time></trkpt><trkpt lat="44.946535" lon="8.286925"><ele>206.4</ele><time>2026-04-04T15:23:30.101Z</time></trkpt><trkpt lat="44.9464383" lon="8.2868833"><ele>206.6</ele><time>2026-04-04T15:23:31.103Z</time></trkpt><trkpt lat="44.9463383" lon="8.2868467"><ele>206.8</ele><time>2026-04-04T15:23:32.098Z</time></trkpt><trkpt lat="44.946245" lon="8.28681"><ele>207.0</ele><time>2026-04-04T15:23:33.1Z</time></trkpt><trkpt lat="44.946155" lon="8.2867633"><ele>207.0</ele><time>2026-04-04T15:23:34.1Z</time></trkpt><trkpt lat="44.9460717" lon="8.2867067"><ele>207.0</ele><time>2026-04-04T15:23:35.101Z</time></trkpt><trkpt lat="44.9459933" lon="8.2866367"><ele>207.0</ele><time>2026-04-04T15:23:36.102Z</time></trkpt><trkpt lat="44.9459233" lon="8.2865633"><ele>207.0</ele><time>2026-04-04T15:23:37.101Z</time></trkpt><trkpt lat="44.9458617" lon="8.2865017"><ele>207.0</ele><time>2026-04-04T15:23:38.102Z</time></trkpt><trkpt lat="44.945755" lon="8.2864233"><ele>206.16666666666666</ele><time>2026-04-04T15:23:40.102Z</time></trkpt><trkpt lat="44.9456417" lon="8.286415"><ele>205.33333333333331</ele><time>2026-04-04T15:23:42.105Z</time></trkpt><trkpt lat="44.94558" lon="8.28644"><ele>204.5</ele><time>2026-04-04T15:23:43.102Z</time></trkpt><trkpt lat="44.9455233" lon="8.28649"><ele>203.66666666666666</ele><time>2026-04-04T15:23:44.099Z</time></trkpt><trkpt lat="44.9454667" lon="8.2865483"><ele>202.83333333333331</ele><time>2026-04-04T15:23:45.1Z</time></trkpt><trkpt lat="44.9454117" lon="8.2866183"><ele>202.0</ele><time>2026-04-04T15:23:46.099Z</time></trkpt><trkpt lat="44.94535" lon="8.286685"><ele>202.33333333333331</ele><time>2026-04-04T15:23:47.1Z</time></trkpt><trkpt lat="44.9453" lon="8.286755"><ele>202.66666666666666</ele><time>2026-04-04T15:23:48.1Z</time></trkpt><trkpt lat="44.9452417" lon="8.286795"><ele>203.0</ele><time>2026-04-04T15:23:49.105Z</time></trkpt><trkpt lat="44.94515" lon="8.2868367"><ele>203.33333333333331</ele><time>2026-04-04T15:23:51.1Z</time></trkpt><trkpt lat="44.9450367" lon="8.28682"><ele>203.66666666666666</ele><time>2026-04-04T15:23:53.1Z</time></trkpt><trkpt lat="44.9449733" lon="8.2867933"><ele>204.0</ele><time>2026-04-04T15:23:54.103Z</time></trkpt><trkpt lat="44.9449017" lon="8.28676"><ele>204.0</ele><time>2026-04-04T15:23:55.101Z</time></trkpt><trkpt lat="44.94481" lon="8.286695"><ele>204.0</ele><time>2026-04-04T15:23:56.104Z</time></trkpt><trkpt lat="44.9447067" lon="8.2866417"><ele>204.0</ele><time>2026-04-04T15:23:57.103Z</time></trkpt><trkpt lat="44.9446067" lon="8.2866067"><ele>204.0</ele><time>2026-04-04T15:23:58.098Z</time></trkpt><trkpt lat="44.9445133" lon="8.28658"><ele>204.0</ele><time>2026-04-04T15:23:59.099Z</time></trkpt><trkpt lat="44.9444183" lon="8.2865617"><ele>204.0</ele><time>2026-04-04T15:24:00.101Z</time></trkpt><trkpt lat="44.9443267" lon="8.2865467"><ele>204.0</ele><time>2026-04-04T15:24:01.1Z</time></trkpt><trkpt lat="44.94424" lon="8.2865167"><ele>204.0</ele><time>2026-04-04T15:24:02.101Z</time></trkpt><trkpt lat="44.9441533" lon="8.2864767"><ele>204.0</ele><time>2026-04-04T15:24:03.105Z</time></trkpt><trkpt lat="44.944075" lon="8.286405"><ele>204.0</ele><time>2026-04-04T15:24:04.102Z</time></trkpt><trkpt lat="44.943995" lon="8.28632"><ele>203.0</ele><time>2026-04-04T15:24:05.105Z</time></trkpt><trkpt lat="44.9439117" lon="8.2862183"><ele>202.0</ele><time>2026-04-04T15:24:06.104Z</time></trkpt><trkpt lat="44.9438267" lon="8.286115"><ele>201.0</ele><time>2026-04-04T15:24:07.1Z</time></trkpt><trkpt lat="44.943745" lon="8.2860133"><ele>200.0</ele><time>2026-04-04T15:24:08.101Z</time></trkpt><trkpt lat="44.94367" lon="8.28591"><ele>199.0</ele><time>2026-04-04T15:24:09.103Z</time></trkpt><trkpt lat="44.9435817" lon="8.2858167"><ele>199.0</ele><time>2026-04-04T15:24:10.102Z</time></trkpt><trkpt lat="44.9434917" lon="8.28574"><ele>199.0</ele><time>2026-04-04T15:24:11.102Z</time></trkpt><trkpt lat="44.9434017" lon="8.2856783"><ele>199.0</ele><time>2026-04-04T15:24:12.101Z</time></trkpt><trkpt lat="44.9433117" lon="8.28562"><ele>199.0</ele><time>2026-04-04T15:24:13.1Z</time></trkpt><trkpt lat="44.94323" lon="8.2855617"><ele>199.0</ele><time>2026-04-04T15:24:14.104Z</time></trkpt><trkpt lat="44.9431567" lon="8.2855"><ele>200.39999999999998</ele><time>2026-04-04T15:24:15.099Z</time></trkpt><trkpt lat="44.9430817" lon="8.2854467"><ele>201.8</ele><time>2026-04-04T15:24:16.099Z</time></trkpt><trkpt lat="44.9430067" lon="8.2853917"><ele>203.2</ele><time>2026-04-04T15:24:17.106Z</time></trkpt><trkpt lat="44.9429267" lon="8.2853333"><ele>204.60000000000002</ele><time>2026-04-04T15:24:18.1Z</time></trkpt><trkpt lat="44.94284" lon="8.28526"><ele>206.0</ele><time>2026-04-04T15:24:19.103Z</time></trkpt><trkpt lat="44.9427517" lon="8.2851833"><ele>206.0</ele><time>2026-04-04T15:24:20.1Z</time></trkpt><trkpt lat="44.94266" lon="8.2851117"><ele>206.0</ele><time>2026-04-04T15:24:21.099Z</time></trkpt><trkpt lat="44.942555" lon="8.285055"><ele>206.0</ele><time>2026-04-04T15:24:22.1Z</time></trkpt><trkpt lat="44.9424417" lon="8.2850133"><ele>206.0</ele><time>2026-04-04T15:24:23.103Z</time></trkpt><trkpt lat="44.94231" lon="8.2849983"><ele>205.75</ele><time>2026-04-04T15:24:24.103Z</time></trkpt><trkpt lat="44.9421783" lon="8.285"><ele>205.5</ele><time>2026-04-04T15:24:25.103Z</time></trkpt><trkpt lat="44.94204" lon="8.285015"><ele>205.25</ele><time>2026-04-04T15:24:26.101Z</time></trkpt><trkpt lat="44.941905" lon="8.2850233"><ele>205.0</ele><time>2026-04-04T15:24:27.103Z</time></trkpt><trkpt lat="44.9417667" lon="8.2850133"><ele>203.0</ele><time>2026-04-04T15:24:28.099Z</time></trkpt><trkpt lat="44.94163" lon="8.2849817"><ele>201.0</ele><time>2026-04-04T15:24:29.101Z</time></trkpt><trkpt lat="44.941495" lon="8.28493"><ele>199.0</ele><time>2026-04-04T15:24:30.1Z</time></trkpt><trkpt lat="44.94136" lon="8.2848583"><ele>197.0</ele><time>2026-04-04T15:24:31.102Z</time></trkpt><trkpt lat="44.9412267" lon="8.2847717"><ele>197.0</ele><time>2026-04-04T15:24:32.106Z</time></trkpt><trkpt lat="44.9410933" lon="8.2846767"><ele>197.0</ele><time>2026-04-04T15:24:33.104Z</time></trkpt><trkpt lat="44.9409567" lon="8.2845833"><ele>197.0</ele><time>2026-04-04T15:24:34.101Z</time></trkpt><trkpt lat="44.9408217" lon="8.2844867"><ele>197.0</ele><time>2026-04-04T15:24:35.102Z</time></trkpt><trkpt lat="44.9406967" lon="8.284395"><ele>197.0</ele><time>2026-04-04T15:24:36.104Z</time></trkpt><trkpt lat="44.9405783" lon="8.2843233"><ele>197.0</ele><time>2026-04-04T15:24:37.099Z</time></trkpt><trkpt lat="44.94047" lon="8.28427"><ele>197.0</ele><time>2026-04-04T15:24:38.104Z</time></trkpt><trkpt lat="44.9403633" lon="8.284225"><ele>197.0</ele><time>2026-04-04T15:24:39.103Z</time></trkpt><trkpt lat="44.9402583" lon="8.284195"><ele>197.0</ele><time>2026-04-04T15:24:40.103Z</time></trkpt><trkpt lat="44.9401483" lon="8.2841783"><ele>197.0</ele><time>2026-04-04T15:24:41.098Z</time></trkpt><trkpt lat="44.9400367" lon="8.2841667"><ele>197.0</ele><time>2026-04-04T15:24:42.1Z</time></trkpt><trkpt lat="44.939925" lon="8.284165"><ele>197.0</ele><time>2026-04-04T15:24:43.107Z</time></trkpt><trkpt lat="44.9398183" lon="8.2841783"><ele>197.8</ele><time>2026-04-04T15:24:44.099Z</time></trkpt><trkpt lat="44.93972" lon="8.284205"><ele>198.6</ele><time>2026-04-04T15:24:45.105Z</time></trkpt><trkpt lat="44.9396317" lon="8.2842433"><ele>199.4</ele><time>2026-04-04T15:24:46.106Z</time></trkpt><trkpt lat="44.939555" lon="8.2843"><ele>200.20000000000002</ele><time>2026-04-04T15:24:47.105Z</time></trkpt><trkpt lat="44.9394833" lon="8.2843833"><ele>201.0</ele><time>2026-04-04T15:24:48.1Z</time></trkpt><trkpt lat="44.939425" lon="8.2844783"><ele>201.0</ele><time>2026-04-04T15:24:49.103Z</time></trkpt><trkpt lat="44.9393733" lon="8.2845783"><ele>201.0</ele><time>2026-04-04T15:24:50.104Z</time></trkpt><trkpt lat="44.9393367" lon="8.28468"><ele>201.0</ele><time>2026-04-04T15:24:51.105Z</time></trkpt><trkpt lat="44.939315" lon="8.2847867"><ele>201.0</ele><time>2026-04-04T15:24:52.102Z</time></trkpt><trkpt lat="44.9392983" lon="8.2848867"><ele>201.0</ele><time>2026-04-04T15:24:53.102Z</time></trkpt><trkpt lat="44.9393033" lon="8.2849933"><ele>201.0</ele><time>2026-04-04T15:24:54.1Z</time></trkpt><trkpt lat="44.9393133" lon="8.2850983"><ele>201.5</ele><time>2026-04-04T15:24:55.116Z</time></trkpt><trkpt lat="44.9393283" lon="8.2852017"><ele>202.0</ele><time>2026-04-04T15:24:56.1Z</time></trkpt><trkpt lat="44.9393317" lon="8.2852917"><ele>202.5</ele><time>2026-04-04T15:24:57.099Z</time></trkpt><trkpt lat="44.9393233" lon="8.2854533"><ele>203.0</ele><time>2026-04-04T15:24:59.102Z</time></trkpt><trkpt lat="44.9393067" lon="8.2855867"><ele>203.5</ele><time>2026-04-04T15:25:01.102Z</time></trkpt><trkpt lat="44.939235" lon="8.2856217"><ele>204.0</ele><time>2026-04-04T15:25:03.102Z</time></trkpt><trkpt lat="44.9391067" lon="8.2855917"><ele>206.6</ele><time>2026-04-04T15:25:05.103Z</time></trkpt><trkpt lat="44.9390167" lon="8.2855683"><ele>209.2</ele><time>2026-04-04T15:25:06.099Z</time></trkpt><trkpt lat="44.938925" lon="8.28554"><ele>211.79999999999998</ele><time>2026-04-04T15:25:07.105Z</time></trkpt><trkpt lat="44.9388283" lon="8.285495"><ele>214.39999999999998</ele><time>2026-04-04T15:25:08.099Z</time></trkpt><trkpt lat="44.9387383" lon="8.2854383"><ele>217.0</ele><time>2026-04-04T15:25:09.102Z</time></trkpt><trkpt lat="44.9386483" lon="8.28539"><ele>217.0</ele><time>2026-04-04T15:25:10.101Z</time></trkpt><trkpt lat="44.9385583" lon="8.2853383"><ele>217.0</ele><time>2026-04-04T15:25:11.102Z</time></trkpt><trkpt lat="44.9384733" lon="8.28529"><ele>217.0</ele><time>2026-04-04T15:25:12.104Z</time></trkpt><trkpt lat="44.9383817" lon="8.2852717"><ele>217.0</ele><time>2026-04-04T15:25:13.106Z</time></trkpt><trkpt lat="44.9382917" lon="8.28528"><ele>217.0</ele><time>2026-04-04T15:25:14.1Z</time></trkpt><trkpt lat="44.9382" lon="8.28532"><ele>214.5</ele><time>2026-04-04T15:25:15.103Z</time></trkpt><trkpt lat="44.93812" lon="8.2853917"><ele>212.0</ele><time>2026-04-04T15:25:16.107Z</time></trkpt><trkpt lat="44.9380417" lon="8.2855"><ele>209.5</ele><time>2026-04-04T15:25:17.104Z</time></trkpt><trkpt lat="44.9379383" lon="8.2856183"><ele>207.0</ele><time>2026-04-04T15:25:18.099Z</time></trkpt><trkpt lat="44.9378367" lon="8.2857433"><ele>206.5</ele><time>2026-04-04T15:25:19.1Z</time></trkpt><trkpt lat="44.93773" lon="8.2858517"><ele>206.0</ele><time>2026-04-04T15:25:20.1Z</time></trkpt><trkpt lat="44.9376233" lon="8.2859467"><ele>205.5</ele><time>2026-04-04T15:25:21.102Z</time></trkpt><trkpt lat="44.9375117" lon="8.2860333"><ele>205.0</ele><time>2026-04-04T15:25:22.099Z</time></trkpt><trkpt lat="44.9374083" lon="8.2861267"><ele>205.5</ele><time>2026-04-04T15:25:23.102Z</time></trkpt><trkpt lat="44.9373" lon="8.2862083"><ele>206.0</ele><time>2026-04-04T15:25:24.105Z</time></trkpt><trkpt lat="44.9371883" lon="8.2862867"><ele>206.5</ele><time>2026-04-04T15:25:25.102Z</time></trkpt><trkpt lat="44.93708" lon="8.2863617"><ele>207.0</ele><time>2026-04-04T15:25:26.103Z</time></trkpt><trkpt lat="44.9369683" lon="8.2864317"><ele>207.0</ele><time>2026-04-04T15:25:27.104Z</time></trkpt><trkpt lat="44.9368533" lon="8.286505"><ele>207.0</ele><time>2026-04-04T15:25:28.102Z</time></trkpt><trkpt lat="44.9367367" lon="8.2865783"><ele>207.0</ele><time>2026-04-04T15:25:29.102Z</time></trkpt><trkpt lat="44.9366183" lon="8.2866633"><ele>207.0</ele><time>2026-04-04T15:25:30.107Z</time></trkpt><trkpt lat="44.9365" lon="8.2867467"><ele>206.6</ele><time>2026-04-04T15:25:31.108Z</time></trkpt><trkpt lat="44.9363833" lon="8.28682"><ele>206.2</ele><time>2026-04-04T15:25:32.101Z</time></trkpt><trkpt lat="44.93628" lon="8.2868733"><ele>205.8</ele><time>2026-04-04T15:25:33.101Z</time></trkpt><trkpt lat="44.9361883" lon="8.2869083"><ele>205.4</ele><time>2026-04-04T15:25:34.102Z</time></trkpt><trkpt lat="44.9361017" lon="8.28693"><ele>205.0</ele><time>2026-04-04T15:25:35.1Z</time></trkpt><trkpt lat="44.9360133" lon="8.2869333"><ele>205.0</ele><time>2026-04-04T15:25:36.101Z</time></trkpt><trkpt lat="44.935925" lon="8.2869033"><ele>205.0</ele><time>2026-04-04T15:25:37.104Z</time></trkpt><trkpt lat="44.9358317" lon="8.286855"><ele>205.0</ele><time>2026-04-04T15:25:38.098Z</time></trkpt><trkpt lat="44.93573" lon="8.28678"><ele>205.0</ele><time>2026-04-04T15:25:39.101Z</time></trkpt><trkpt lat="44.9356267" lon="8.286705"><ele>205.0</ele><time>2026-04-04T15:25:40.102Z</time></trkpt><trkpt lat="44.9355233" lon="8.28662"><ele>204.6</ele><time>2026-04-04T15:25:41.102Z</time></trkpt><trkpt lat="44.93542" lon="8.286535"><ele>204.2</ele><time>2026-04-04T15:25:42.101Z</time></trkpt><trkpt lat="44.9353217" lon="8.2864483"><ele>203.8</ele><time>2026-04-04T15:25:43.102Z</time></trkpt><trkpt lat="44.9352333" lon="8.2863633"><ele>203.4</ele><time>2026-04-04T15:25:44.105Z</time></trkpt><trkpt lat="44.9351567" lon="8.286265"><ele>203.0</ele><time>2026-04-04T15:25:45.1Z</time></trkpt><trkpt lat="44.9350917" lon="8.28615"><ele>203.4</ele><time>2026-04-04T15:25:46.099Z</time></trkpt><trkpt lat="44.9350317" lon="8.2860267"><ele>203.8</ele><time>2026-04-04T15:25:47.104Z</time></trkpt><trkpt lat="44.9349833" lon="8.2859"><ele>204.2</ele><time>2026-04-04T15:25:48.103Z</time></trkpt><trkpt lat="44.9349267" lon="8.285775"><ele>204.6</ele><time>2026-04-04T15:25:49.106Z</time></trkpt><trkpt lat="44.9348617" lon="8.28566"><ele>205.0</ele><time>2026-04-04T15:25:50.103Z</time></trkpt><trkpt lat="44.9348033" lon="8.2855383"><ele>205.0</ele><time>2026-04-04T15:25:51.1Z</time></trkpt><trkpt lat="44.9347383" lon="8.2854083"><ele>205.0</ele><time>2026-04-04T15:25:52.108Z</time></trkpt><trkpt lat="44.9346767" lon="8.2852767"><ele>205.0</ele><time>2026-04-04T15:25:53.101Z</time></trkpt><trkpt lat="44.9346067" lon="8.28516"><ele>205.0</ele><time>2026-04-04T15:25:54.1Z</time></trkpt><trkpt lat="44.9345383" lon="8.2850617"><ele>205.0</ele><time>2026-04-04T15:25:55.104Z</time></trkpt><trkpt lat="44.93445" lon="8.2849683"><ele>205.0</ele><time>2026-04-04T15:25:56.105Z</time></trkpt><trkpt lat="44.9343633" lon="8.28489"><ele>205.0</ele><time>2026-04-04T15:25:57.103Z</time></trkpt><trkpt lat="44.9342767" lon="8.2848083"><ele>205.0</ele><time>2026-04-04T15:25:58.104Z</time></trkpt><trkpt lat="44.9341833" lon="8.28472"><ele>205.0</ele><time>2026-04-04T15:25:59.104Z</time></trkpt><trkpt lat="44.9340917" lon="8.2846317"><ele>205.0</ele><time>2026-04-04T15:26:00.107Z</time></trkpt><trkpt lat="44.9340017" lon="8.284535"><ele>203.99999999999997</ele><time>2026-04-04T15:26:01.101Z</time></trkpt><trkpt lat="44.93392" lon="8.2844417"><ele>203.0</ele><time>2026-04-04T15:26:02.099Z</time></trkpt><trkpt lat="44.93384" lon="8.2843467"><ele>202.0</ele><time>2026-04-04T15:26:03.1Z</time></trkpt><trkpt lat="44.9337783" lon="8.2842567"><ele>201.0</ele><time>2026-04-04T15:26:04.104Z</time></trkpt><trkpt lat="44.9337317" lon="8.2841633"><ele>199.99999999999997</ele><time>2026-04-04T15:26:05.101Z</time></trkpt><trkpt lat="44.9337" lon="8.284075"><ele>199.0</ele><time>2026-04-04T15:26:06.1Z</time></trkpt><trkpt lat="44.9336883" lon="8.283985"><ele>198.66666666666666</ele><time>2026-04-04T15:26:07.101Z</time></trkpt><trkpt lat="44.93369" lon="8.2838933"><ele>198.33333333333331</ele><time>2026-04-04T15:26:08.103Z</time></trkpt><trkpt lat="44.9336833" lon="8.2837967"><ele>198.0</ele><time>2026-04-04T15:26:09.098Z</time></trkpt><trkpt lat="44.933665" lon="8.2836917"><ele>197.66666666666669</ele><time>2026-04-04T15:26:10.103Z</time></trkpt><trkpt lat="44.9336317" lon="8.2835733"><ele>197.33333333333334</ele><time>2026-04-04T15:26:11.1Z</time></trkpt><trkpt lat="44.9335817" lon="8.2834633"><ele>197.0</ele><time>2026-04-04T15:26:12.1Z</time></trkpt><trkpt lat="44.9335083" lon="8.2833717"><ele>197.00000000000003</ele><time>2026-04-04T15:26:13.1Z</time></trkpt><trkpt lat="44.9334383" lon="8.28332"><ele>197.0</ele><time>2026-04-04T15:26:14.104Z</time></trkpt><trkpt lat="44.9333633" lon="8.2832833"><ele>197.0</ele><time>2026-04-04T15:26:15.101Z</time></trkpt><trkpt lat="44.9332967" lon="8.28326"><ele>197.0</ele><time>2026-04-04T15:26:16.101Z</time></trkpt><trkpt lat="44.9332283" lon="8.2832767"><ele>197.00000000000003</ele><time>2026-04-04T15:26:17.101Z</time></trkpt><trkpt lat="44.93317" lon="8.2833433"><ele>197.0</ele><time>2026-04-04T15:26:18.101Z</time></trkpt><trkpt lat="44.93314" lon="8.2834867"><ele>198.16666666666669</ele><time>2026-04-04T15:26:19.101Z</time></trkpt><trkpt lat="44.9331067" lon="8.283625"><ele>199.33333333333334</ele><time>2026-04-04T15:26:20.103Z</time></trkpt><trkpt lat="44.933085" lon="8.283745"><ele>200.5</ele><time>2026-04-04T15:26:21.106Z</time></trkpt><trkpt lat="44.9330517" lon="8.28385"><ele>201.66666666666669</ele><time>2026-04-04T15:26:22.106Z</time></trkpt><trkpt lat="44.93301" lon="8.28395"><ele>202.83333333333334</ele><time>2026-04-04T15:26:23.103Z</time></trkpt><trkpt lat="44.9329583" lon="8.28404"><ele>204.0</ele><time>2026-04-04T15:26:24.104Z</time></trkpt><trkpt lat="44.9329233" lon="8.2841217"><ele>203.2</ele><time>2026-04-04T15:26:25.107Z</time></trkpt><trkpt lat="44.9328583" lon="8.284205"><ele>202.39999999999998</ele><time>2026-04-04T15:26:26.101Z</time></trkpt><trkpt lat="44.9327783" lon="8.28428"><ele>201.6</ele><time>2026-04-04T15:26:27.1Z</time></trkpt><trkpt lat="44.9326883" lon="8.2843617"><ele>200.8</ele><time>2026-04-04T15:26:28.104Z</time></trkpt><trkpt lat="44.932605" lon="8.284445"><ele>200.0</ele><time>2026-04-04T15:26:29.109Z</time></trkpt><trkpt lat="44.9325133" lon="8.2844967"><ele>200.0</ele><time>2026-04-04T15:26:30.104Z</time></trkpt><trkpt lat="44.9324183" lon="8.2845417"><ele>200.0</ele><time>2026-04-04T15:26:31.097Z</time></trkpt><trkpt lat="44.932325" lon="8.28458"><ele>200.0</ele><time>2026-04-04T15:26:32.104Z</time></trkpt><trkpt lat="44.932225" lon="8.284595"><ele>200.0</ele><time>2026-04-04T15:26:33.104Z</time></trkpt><trkpt lat="44.932115" lon="8.2845833"><ele>200.0</ele><time>2026-04-04T15:26:34.102Z</time></trkpt><trkpt lat="44.9320133" lon="8.2846067"><ele>200.0</ele><time>2026-04-04T15:26:35.098Z</time></trkpt><trkpt lat="44.9318967" lon="8.2846033"><ele>200.0</ele><time>2026-04-04T15:26:36.102Z</time></trkpt><trkpt lat="44.9317733" lon="8.2846083"><ele>200.0</ele><time>2026-04-04T15:26:37.1Z</time></trkpt><trkpt lat="44.9316483" lon="8.284615"><ele>200.0</ele><time>2026-04-04T15:26:38.099Z</time></trkpt><trkpt lat="44.9315267" lon="8.28463"><ele>200.0</ele><time>2026-04-04T15:26:39.1Z</time></trkpt><trkpt lat="44.93141" lon="8.284645"><ele>200.0</ele><time>2026-04-04T15:26:40.102Z</time></trkpt><trkpt lat="44.9313033" lon="8.2846517"><ele>200.0</ele><time>2026-04-04T15:26:41.098Z</time></trkpt><trkpt lat="44.931205" lon="8.28464"><ele>200.0</ele><time>2026-04-04T15:26:42.102Z</time></trkpt><trkpt lat="44.93111" lon="8.2846033"><ele>200.0</ele><time>2026-04-04T15:26:43.104Z</time></trkpt><trkpt lat="44.931015" lon="8.2845617"><ele>200.0</ele><time>2026-04-04T15:26:44.105Z</time></trkpt><trkpt lat="44.9309183" lon="8.284525"><ele>200.0</ele><time>2026-04-04T15:26:45.102Z</time></trkpt><trkpt lat="44.93082" lon="8.2844983"><ele>200.0</ele><time>2026-04-04T15:26:46.103Z</time></trkpt><trkpt lat="44.93072" lon="8.2844917"><ele>200.0</ele><time>2026-04-04T15:26:47.102Z</time></trkpt><trkpt lat="44.930615" lon="8.284505"><ele>200.0</ele><time>2026-04-04T15:26:48.105Z</time></trkpt><trkpt lat="44.930505" lon="8.28454"><ele>199.75</ele><time>2026-04-04T15:26:49.102Z</time></trkpt><trkpt lat="44.930395" lon="8.2846033"><ele>199.5</ele><time>2026-04-04T15:26:50.105Z</time></trkpt><trkpt lat="44.9302933" lon="8.2846833"><ele>199.25</ele><time>2026-04-04T15:26:51.103Z</time></trkpt><trkpt lat="44.930195" lon="8.2847867"><ele>199.0</ele><time>2026-04-04T15:26:52.106Z</time></trkpt><trkpt lat="44.9300967" lon="8.2848883"><ele>200.79999999999998</ele><time>2026-04-04T15:26:53.1Z</time></trkpt><trkpt lat="44.9300033" lon="8.2849833"><ele>202.6</ele><time>2026-04-04T15:26:54.097Z</time></trkpt><trkpt lat="44.9299133" lon="8.2850567"><ele>204.4</ele><time>2026-04-04T15:26:55.1Z</time></trkpt><trkpt lat="44.929825" lon="8.285115"><ele>206.2</ele><time>2026-04-04T15:26:56.104Z</time></trkpt><trkpt lat="44.92974" lon="8.2851467"><ele>208.0</ele><time>2026-04-04T15:26:57.103Z</time></trkpt><trkpt lat="44.9296533" lon="8.2851583"><ele>208.0</ele><time>2026-04-04T15:26:58.107Z</time></trkpt><trkpt lat="44.9295683" lon="8.285145"><ele>208.0</ele><time>2026-04-04T15:26:59.101Z</time></trkpt><trkpt lat="44.9294867" lon="8.2851167"><ele>208.0</ele><time>2026-04-04T15:27:00.099Z</time></trkpt><trkpt lat="44.929435" lon="8.2850033"><ele>208.0</ele><time>2026-04-04T15:27:01.099Z</time></trkpt><trkpt lat="44.9293717" lon="8.2849067"><ele>208.0</ele><time>2026-04-04T15:27:02.102Z</time></trkpt><trkpt lat="44.9293017" lon="8.2848017"><ele>206.0</ele><time>2026-04-04T15:27:03.101Z</time></trkpt><trkpt lat="44.929215" lon="8.2847117"><ele>204.0</ele><time>2026-04-04T15:27:04.102Z</time></trkpt><trkpt lat="44.9291033" lon="8.2846433"><ele>202.0</ele><time>2026-04-04T15:27:05.104Z</time></trkpt><trkpt lat="44.9289983" lon="8.284565"><ele>200.0</ele><time>2026-04-04T15:27:06.101Z</time></trkpt><trkpt lat="44.92888" lon="8.2845033"><ele>200.0</ele><time>2026-04-04T15:27:07.105Z</time></trkpt><trkpt lat="44.928765" lon="8.2844383"><ele>200.0</ele><time>2026-04-04T15:27:08.1Z</time></trkpt><trkpt lat="44.92866" lon="8.28436"><ele>200.0</ele><time>2026-04-04T15:27:09.101Z</time></trkpt><trkpt lat="44.9285583" lon="8.2842817"><ele>200.0</ele><time>2026-04-04T15:27:10.101Z</time></trkpt><trkpt lat="44.9284567" lon="8.28421"><ele>200.75</ele><time>2026-04-04T15:27:11.101Z</time></trkpt><trkpt lat="44.9283517" lon="8.2841517"><ele>201.5</ele><time>2026-04-04T15:27:12.105Z</time></trkpt><trkpt lat="44.9282367" lon="8.284115"><ele>202.25</ele><time>2026-04-04T15:27:13.105Z</time></trkpt><trkpt lat="44.9281217" lon="8.284085"><ele>203.0</ele><time>2026-04-04T15:27:14.101Z</time></trkpt><trkpt lat="44.9280133" lon="8.2840583"><ele>203.0</ele><time>2026-04-04T15:27:15.097Z</time></trkpt><trkpt lat="44.9279033" lon="8.2840367"><ele>203.0</ele><time>2026-04-04T15:27:16.099Z</time></trkpt><trkpt lat="44.92779" lon="8.2840267"><ele>203.0</ele><time>2026-04-04T15:27:17.099Z</time></trkpt><trkpt lat="44.9276733" lon="8.2840283"><ele>203.0</ele><time>2026-04-04T15:27:18.102Z</time></trkpt><trkpt lat="44.9275533" lon="8.2840433"><ele>202.5</ele><time>2026-04-04T15:27:19.101Z</time></trkpt><trkpt lat="44.9274317" lon="8.2840733"><ele>202.0</ele><time>2026-04-04T15:27:20.1Z</time></trkpt><trkpt lat="44.92731" lon="8.284115"><ele>201.5</ele><time>2026-04-04T15:27:21.102Z</time></trkpt><trkpt lat="44.9271883" lon="8.2841583"><ele>201.0</ele><time>2026-04-04T15:27:22.1Z</time></trkpt><trkpt lat="44.9270717" lon="8.2841983"><ele>201.0</ele><time>2026-04-04T15:27:23.106Z</time></trkpt><trkpt lat="44.9269617" lon="8.2842467"><ele>201.0</ele><time>2026-04-04T15:27:24.101Z</time></trkpt><trkpt lat="44.9268617" lon="8.284305"><ele>201.0</ele><time>2026-04-04T15:27:25.099Z</time></trkpt><trkpt lat="44.926775" lon="8.2843767"><ele>201.0</ele><time>2026-04-04T15:27:26.098Z</time></trkpt><trkpt lat="44.9266983" lon="8.284445"><ele>201.0</ele><time>2026-04-04T15:27:27.102Z</time></trkpt><trkpt lat="44.926625" lon="8.28451"><ele>200.33333333333334</ele><time>2026-04-04T15:27:28.104Z</time></trkpt><trkpt lat="44.926555" lon="8.2845667"><ele>199.66666666666669</ele><time>2026-04-04T15:27:29.099Z</time></trkpt><trkpt lat="44.9264883" lon="8.2846233"><ele>199.0</ele><time>2026-04-04T15:27:30.101Z</time></trkpt><trkpt lat="44.9264167" lon="8.2846683"><ele>198.33333333333334</ele><time>2026-04-04T15:27:31.104Z</time></trkpt><trkpt lat="44.9263283" lon="8.28471"><ele>197.66666666666669</ele><time>2026-04-04T15:27:32.102Z</time></trkpt><trkpt lat="44.926235" lon="8.28475"><ele>197.0</ele><time>2026-04-04T15:27:33.102Z</time></trkpt><trkpt lat="44.9261367" lon="8.2847883"><ele>197.0</ele><time>2026-04-04T15:27:34.103Z</time></trkpt><trkpt lat="44.9260383" lon="8.2848283"><ele>197.0</ele><time>2026-04-04T15:27:35.103Z</time></trkpt><trkpt lat="44.9259417" lon="8.2848667"><ele>197.0</ele><time>2026-04-04T15:27:36.105Z</time></trkpt><trkpt lat="44.9258483" lon="8.28491"><ele>197.0</ele><time>2026-04-04T15:27:37.103Z</time></trkpt><trkpt lat="44.925765" lon="8.2849583"><ele>197.0</ele><time>2026-04-04T15:27:38.103Z</time></trkpt><trkpt lat="44.9256933" lon="8.2850283"><ele>198.0</ele><time>2026-04-04T15:27:39.101Z</time></trkpt><trkpt lat="44.9256267" lon="8.2851117"><ele>199.0</ele><time>2026-04-04T15:27:40.103Z</time></trkpt><trkpt lat="44.925585" lon="8.285235"><ele>200.0</ele><time>2026-04-04T15:27:41.106Z</time></trkpt><trkpt lat="44.92555" lon="8.2853783"><ele>201.0</ele><time>2026-04-04T15:27:42.106Z</time></trkpt><trkpt lat="44.9255133" lon="8.285535"><ele>202.0</ele><time>2026-04-04T15:27:43.106Z</time></trkpt><trkpt lat="44.925465" lon="8.2856867"><ele>202.0</ele><time>2026-04-04T15:27:44.101Z</time></trkpt><trkpt lat="44.925405" lon="8.2858317"><ele>202.0</ele><time>2026-04-04T15:27:45.1Z</time></trkpt><trkpt lat="44.9253233" lon="8.28595"><ele>202.0</ele><time>2026-04-04T15:27:46.099Z</time></trkpt><trkpt lat="44.92523" lon="8.2860567"><ele>202.0</ele><time>2026-04-04T15:27:47.102Z</time></trkpt><trkpt lat="44.9251433" lon="8.28617"><ele>201.75</ele><time>2026-04-04T15:27:48.105Z</time></trkpt><trkpt lat="44.92506" lon="8.28628"><ele>201.5</ele><time>2026-04-04T15:27:49.105Z</time></trkpt><trkpt lat="44.92498" lon="8.2864033"><ele>201.25</ele><time>2026-04-04T15:27:50.1Z</time></trkpt><trkpt lat="44.9249017" lon="8.2865333"><ele>201.0</ele><time>2026-04-04T15:27:51.103Z</time></trkpt><trkpt lat="44.9248233" lon="8.2866617"><ele>201.0</ele><time>2026-04-04T15:27:52.1Z</time></trkpt><trkpt lat="44.92475" lon="8.286785"><ele>201.0</ele><time>2026-04-04T15:27:53.105Z</time></trkpt><trkpt lat="44.9246717" lon="8.2869033"><ele>201.0</ele><time>2026-04-04T15:27:54.108Z</time></trkpt><trkpt lat="44.92459" lon="8.28701"><ele>201.0</ele><time>2026-04-04T15:27:55.103Z</time></trkpt><trkpt lat="44.92451" lon="8.2871117"><ele>201.0</ele><time>2026-04-04T15:27:56.1Z</time></trkpt><trkpt lat="44.92443" lon="8.2872117"><ele>202.0</ele><time>2026-04-04T15:27:57.103Z</time></trkpt><trkpt lat="44.9243633" lon="8.2873183"><ele>203.0</ele><time>2026-04-04T15:27:58.101Z</time></trkpt><trkpt lat="44.924305" lon="8.2874067"><ele>204.0</ele><time>2026-04-04T15:27:59.102Z</time></trkpt><trkpt lat="44.9242383" lon="8.2874883"><ele>205.0</ele><time>2026-04-04T15:28:00.098Z</time></trkpt><trkpt lat="44.9241667" lon="8.2875617"><ele>206.0</ele><time>2026-04-04T15:28:01.098Z</time></trkpt><trkpt lat="44.9240817" lon="8.2876267"><ele>206.0</ele><time>2026-04-04T15:28:02.099Z</time></trkpt><trkpt lat="44.9239883" lon="8.2876817"><ele>206.0</ele><time>2026-04-04T15:28:03.105Z</time></trkpt><trkpt lat="44.9239" lon="8.287735"><ele>206.0</ele><time>2026-04-04T15:28:04.104Z</time></trkpt><trkpt lat="44.9238117" lon="8.28776"><ele>206.0</ele><time>2026-04-04T15:28:05.1Z</time></trkpt><trkpt lat="44.9237167" lon="8.2877517"><ele>206.0</ele><time>2026-04-04T15:28:06.099Z</time></trkpt><trkpt lat="44.9236283" lon="8.287725"><ele>206.0</ele><time>2026-04-04T15:28:07.102Z</time></trkpt><trkpt lat="44.923545" lon="8.2876817"><ele>206.0</ele><time>2026-04-04T15:28:08.101Z</time></trkpt><trkpt lat="44.923465" lon="8.2876317"><ele>206.0</ele><time>2026-04-04T15:28:09.106Z</time></trkpt><trkpt lat="44.9233867" lon="8.2875633"><ele>206.0</ele><time>2026-04-04T15:28:10.102Z</time></trkpt><trkpt lat="44.9233167" lon="8.2874683"><ele>206.0</ele><time>2026-04-04T15:28:11.104Z</time></trkpt><trkpt lat="44.9232717" lon="8.2873517"><ele>203.8</ele><time>2026-04-04T15:28:12.104Z</time></trkpt><trkpt lat="44.923245" lon="8.2872133"><ele>201.60000000000002</ele><time>2026-04-04T15:28:13.102Z</time></trkpt><trkpt lat="44.9232" lon="8.2870733"><ele>199.4</ele><time>2026-04-04T15:28:14.104Z</time></trkpt><trkpt lat="44.9231517" lon="8.2869283"><ele>197.2</ele><time>2026-04-04T15:28:15.104Z</time></trkpt><trkpt lat="44.92308" lon="8.2867883"><ele>195.0</ele><time>2026-04-04T15:28:16.103Z</time></trkpt><trkpt lat="44.9230017" lon="8.2866533"><ele>195.0</ele><time>2026-04-04T15:28:17.109Z</time></trkpt><trkpt lat="44.9229267" lon="8.2865117"><ele>195.0</ele><time>2026-04-04T15:28:18.099Z</time></trkpt><trkpt lat="44.922855" lon="8.28637"><ele>195.0</ele><time>2026-04-04T15:28:19.105Z</time></trkpt><trkpt lat="44.9228017" lon="8.2862167"><ele>195.0</ele><time>2026-04-04T15:28:20.102Z</time></trkpt><trkpt lat="44.9227683" lon="8.28605"><ele>194.0</ele><time>2026-04-04T15:28:21.103Z</time></trkpt><trkpt lat="44.9227367" lon="8.2858917"><ele>193.0</ele><time>2026-04-04T15:28:22.104Z</time></trkpt><trkpt lat="44.922695" lon="8.2857517"><ele>192.0</ele><time>2026-04-04T15:28:23.101Z</time></trkpt><trkpt lat="44.9226433" lon="8.2856083"><ele>191.0</ele><time>2026-04-04T15:28:24.105Z</time></trkpt><trkpt lat="44.92257" lon="8.2854717"><ele>188.0</ele><time>2026-04-04T15:28:25.103Z</time></trkpt><trkpt lat="44.9224933" lon="8.285335"><ele>185.0</ele><time>2026-04-04T15:28:26.098Z</time></trkpt><trkpt lat="44.9224033" lon="8.285215"><ele>182.0</ele><time>2026-04-04T15:28:27.105Z</time></trkpt><trkpt lat="44.92231" lon="8.2850733"><ele>179.0</ele><time>2026-04-04T15:28:28.1Z</time></trkpt><trkpt lat="44.9222117" lon="8.2849367"><ele>179.0</ele><time>2026-04-04T15:28:29.105Z</time></trkpt><trkpt lat="44.9221117" lon="8.2848017"><ele>179.0</ele><time>2026-04-04T15:28:30.101Z</time></trkpt><trkpt lat="44.922015" lon="8.2846783"><ele>179.0</ele><time>2026-04-04T15:28:31.101Z</time></trkpt><trkpt lat="44.9219217" lon="8.2845683"><ele>179.0</ele><time>2026-04-04T15:28:32.103Z</time></trkpt><trkpt lat="44.9218217" lon="8.284475"><ele>178.39999999999998</ele><time>2026-04-04T15:28:33.102Z</time></trkpt><trkpt lat="44.921715" lon="8.284415"><ele>177.8</ele><time>2026-04-04T15:28:34.102Z</time></trkpt><trkpt lat="44.9216017" lon="8.284385"><ele>177.2</ele><time>2026-04-04T15:28:35.104Z</time></trkpt><trkpt lat="44.9214933" lon="8.284355"><ele>176.60000000000002</ele><time>2026-04-04T15:28:36.103Z</time></trkpt><trkpt lat="44.9213917" lon="8.2843017"><ele>176.0</ele><time>2026-04-04T15:28:37.106Z</time></trkpt><trkpt lat="44.9212983" lon="8.284225"><ele>176.0</ele><time>2026-04-04T15:28:38.105Z</time></trkpt><trkpt lat="44.9212067" lon="8.2841283"><ele>176.0</ele><time>2026-04-04T15:28:39.103Z</time></trkpt><trkpt lat="44.9211167" lon="8.284015"><ele>176.0</ele><time>2026-04-04T15:28:40.107Z</time></trkpt><trkpt lat="44.92101" lon="8.2839033"><ele>176.0</ele><time>2026-04-04T15:28:41.101Z</time></trkpt><trkpt lat="44.9209067" lon="8.2837983"><ele>176.20000000000002</ele><time>2026-04-04T15:28:42.101Z</time></trkpt><trkpt lat="44.92081" lon="8.2837033"><ele>176.4</ele><time>2026-04-04T15:28:43.099Z</time></trkpt><trkpt lat="44.9207183" lon="8.283615"><ele>176.6</ele><time>2026-04-04T15:28:44.103Z</time></trkpt><trkpt lat="44.9206333" lon="8.28352"><ele>176.8</ele><time>2026-04-04T15:28:45.103Z</time></trkpt><trkpt lat="44.9205467" lon="8.283425"><ele>177.0</ele><time>2026-04-04T15:28:46.104Z</time></trkpt><trkpt lat="44.920455" lon="8.2833383"><ele>177.0</ele><time>2026-04-04T15:28:47.106Z</time></trkpt><trkpt lat="44.92036" lon="8.28324"><ele>177.0</ele><time>2026-04-04T15:28:48.105Z</time></trkpt><trkpt lat="44.9202633" lon="8.2831417"><ele>177.0</ele><time>2026-04-04T15:28:49.105Z</time></trkpt><trkpt lat="44.9201717" lon="8.2830533"><ele>177.0</ele><time>2026-04-04T15:28:50.103Z</time></trkpt><trkpt lat="44.9200667" lon="8.2829783"><ele>176.25</ele><time>2026-04-04T15:28:51.1Z</time></trkpt><trkpt lat="44.91996" lon="8.28293"><ele>175.5</ele><time>2026-04-04T15:28:52.109Z</time></trkpt><trkpt lat="44.9198417" lon="8.2829083"><ele>174.75</ele><time>2026-04-04T15:28:53.104Z</time></trkpt><trkpt lat="44.9197233" lon="8.2829017"><ele>174.0</ele><time>2026-04-04T15:28:54.103Z</time></trkpt><trkpt lat="44.919605" lon="8.2828933"><ele>174.0</ele><time>2026-04-04T15:28:55.102Z</time></trkpt><trkpt lat="44.9194817" lon="8.2828767"><ele>174.0</ele><time>2026-04-04T15:28:56.104Z</time></trkpt><trkpt lat="44.919355" lon="8.2828367"><ele>174.0</ele><time>2026-04-04T15:28:57.106Z</time></trkpt><trkpt lat="44.9192333" lon="8.28279"><ele>174.0</ele><time>2026-04-04T15:28:58.103Z</time></trkpt><trkpt lat="44.9191167" lon="8.282725"><ele>174.39999999999998</ele><time>2026-04-04T15:28:59.1Z</time></trkpt><trkpt lat="44.9190217" lon="8.2826417"><ele>174.8</ele><time>2026-04-04T15:29:00.102Z</time></trkpt><trkpt lat="44.918945" lon="8.2825583"><ele>175.2</ele><time>2026-04-04T15:29:01.101Z</time></trkpt><trkpt lat="44.91889" lon="8.2824467"><ele>175.60000000000002</ele><time>2026-04-04T15:29:02.099Z</time></trkpt><trkpt lat="44.9188417" lon="8.2823233"><ele>176.0</ele><time>2026-04-04T15:29:03.104Z</time></trkpt><trkpt lat="44.9187917" lon="8.2821917"><ele>176.0</ele><time>2026-04-04T15:29:04.102Z</time></trkpt><trkpt lat="44.918735" lon="8.2820417"><ele>176.0</ele><time>2026-04-04T15:29:05.101Z</time></trkpt><trkpt lat="44.9186683" lon="8.28188"><ele>176.0</ele><time>2026-04-04T15:29:06.104Z</time></trkpt><trkpt lat="44.9185917" lon="8.2817167"><ele>176.0</ele><time>2026-04-04T15:29:07.104Z</time></trkpt><trkpt lat="44.9185167" lon="8.281555"><ele>176.0</ele><time>2026-04-04T15:29:08.101Z</time></trkpt><trkpt lat="44.9184417" lon="8.2813933"><ele>176.0</ele><time>2026-04-04T15:29:09.104Z</time></trkpt><trkpt lat="44.9183783" lon="8.2812217"><ele>176.0</ele><time>2026-04-04T15:29:10.104Z</time></trkpt><trkpt lat="44.9183183" lon="8.281045"><ele>176.0</ele><time>2026-04-04T15:29:11.103Z</time></trkpt><trkpt lat="44.9182683" lon="8.2808567"><ele>176.0</ele><time>2026-04-04T15:29:12.107Z</time></trkpt><trkpt lat="44.9182267" lon="8.280655"><ele>176.0</ele><time>2026-04-04T15:29:13.104Z</time></trkpt><trkpt lat="44.9181883" lon="8.2804533"><ele>176.0</ele><time>2026-04-04T15:29:14.105Z</time></trkpt><trkpt lat="44.9181567" lon="8.2802533"><ele>176.0</ele><time>2026-04-04T15:29:15.108Z</time></trkpt><trkpt lat="44.9181317" lon="8.2800533"><ele>175.0</ele><time>2026-04-04T15:29:16.102Z</time></trkpt><trkpt lat="44.91811" lon="8.2798617"><ele>174.0</ele><time>2026-04-04T15:29:17.102Z</time></trkpt><trkpt lat="44.9180867" lon="8.2796783"><ele>173.0</ele><time>2026-04-04T15:29:18.102Z</time></trkpt><trkpt lat="44.9180617" lon="8.2795"><ele>172.0</ele><time>2026-04-04T15:29:19.105Z</time></trkpt><trkpt lat="44.9180317" lon="8.2793217"><ele>170.0</ele><time>2026-04-04T15:29:20.106Z</time></trkpt><trkpt lat="44.9179917" lon="8.2791383"><ele>168.0</ele><time>2026-04-04T15:29:21.098Z</time></trkpt><trkpt lat="44.9179367" lon="8.2789467"><ele>166.0</ele><time>2026-04-04T15:29:22.106Z</time></trkpt><trkpt lat="44.9178683" lon="8.2787567"><ele>164.0</ele><time>2026-04-04T15:29:23.105Z</time></trkpt><trkpt lat="44.9177917" lon="8.27858"><ele>165.5</ele><time>2026-04-04T15:29:24.103Z</time></trkpt><trkpt lat="44.9176967" lon="8.2784217"><ele>167.0</ele><time>2026-04-04T15:29:25.101Z</time></trkpt><trkpt lat="44.9175833" lon="8.2782867"><ele>168.5</ele><time>2026-04-04T15:29:26.1Z</time></trkpt><trkpt lat="44.917455" lon="8.2781767"><ele>170.0</ele><time>2026-04-04T15:29:27.101Z</time></trkpt><trkpt lat="44.91732" lon="8.2780733"><ele>170.0</ele><time>2026-04-04T15:29:28.1Z</time></trkpt><trkpt lat="44.9171867" lon="8.2779617"><ele>170.0</ele><time>2026-04-04T15:29:29.103Z</time></trkpt><trkpt lat="44.9170683" lon="8.2778567"><ele>170.0</ele><time>2026-04-04T15:29:30.1Z</time></trkpt><trkpt lat="44.9169583" lon="8.2777683"><ele>170.0</ele><time>2026-04-04T15:29:31.101Z</time></trkpt><trkpt lat="44.9168433" lon="8.27771"><ele>169.75</ele><time>2026-04-04T15:29:32.1Z</time></trkpt><trkpt lat="44.9167267" lon="8.277675"><ele>169.5</ele><time>2026-04-04T15:29:33.106Z</time></trkpt><trkpt lat="44.9166033" lon="8.277655"><ele>169.25</ele><time>2026-04-04T15:29:34.1Z</time></trkpt><trkpt lat="44.916475" lon="8.277645"><ele>169.0</ele><time>2026-04-04T15:29:35.104Z</time></trkpt><trkpt lat="44.91634" lon="8.277645"><ele>169.0</ele><time>2026-04-04T15:29:36.099Z</time></trkpt><trkpt lat="44.916205" lon="8.277645"><ele>169.0</ele><time>2026-04-04T15:29:37.103Z</time></trkpt><trkpt lat="44.9160683" lon="8.2776483"><ele>169.0</ele><time>2026-04-04T15:29:38.102Z</time></trkpt><trkpt lat="44.9159333" lon="8.277665"><ele>169.0</ele><time>2026-04-04T15:29:39.103Z</time></trkpt><trkpt lat="44.9157983" lon="8.2776783"><ele>168.6</ele><time>2026-04-04T15:29:40.104Z</time></trkpt><trkpt lat="44.9156683" lon="8.2776867"><ele>168.2</ele><time>2026-04-04T15:29:41.107Z</time></trkpt><trkpt lat="44.9155567" lon="8.2776833"><ele>167.79999999999998</ele><time>2026-04-04T15:29:42.101Z</time></trkpt><trkpt lat="44.9154567" lon="8.2776633"><ele>167.39999999999998</ele><time>2026-04-04T15:29:43.102Z</time></trkpt><trkpt lat="44.91536" lon="8.2776367"><ele>167.0</ele><time>2026-04-04T15:29:44.103Z</time></trkpt><trkpt lat="44.9152633" lon="8.2776183"><ele>167.0</ele><time>2026-04-04T15:29:45.106Z</time></trkpt><trkpt lat="44.9151633" lon="8.2776067"><ele>167.0</ele><time>2026-04-04T15:29:46.101Z</time></trkpt><trkpt lat="44.9150567" lon="8.2776167"><ele>167.0</ele><time>2026-04-04T15:29:47.105Z</time></trkpt><trkpt lat="44.9149517" lon="8.27763"><ele>167.0</ele><time>2026-04-04T15:29:48.104Z</time></trkpt><trkpt lat="44.9148517" lon="8.2776417"><ele>167.0</ele><time>2026-04-04T15:29:49.103Z</time></trkpt><trkpt lat="44.914755" lon="8.2776433"><ele>166.0</ele><time>2026-04-04T15:29:50.107Z</time></trkpt><trkpt lat="44.9146683" lon="8.27762"><ele>165.0</ele><time>2026-04-04T15:29:51.105Z</time></trkpt><trkpt lat="44.9145883" lon="8.2775933"><ele>164.0</ele><time>2026-04-04T15:29:52.1Z</time></trkpt><trkpt lat="44.91452" lon="8.27755"><ele>163.0</ele><time>2026-04-04T15:29:53.102Z</time></trkpt><trkpt lat="44.9144217" lon="8.277475"><ele>162.0</ele><time>2026-04-04T15:29:55.103Z</time></trkpt><trkpt lat="44.9143567" lon="8.2774183"><ele>161.0</ele><time>2026-04-04T15:29:57.106Z</time></trkpt><trkpt lat="44.9143" lon="8.277375"><ele>160.57142857142858</ele><time>2026-04-04T15:29:59.1Z</time></trkpt><trkpt lat="44.914235" lon="8.2773267"><ele>160.14285714285714</ele><time>2026-04-04T15:30:02.101Z</time></trkpt><trkpt lat="44.91417" lon="8.2772917"><ele>159.71428571428572</ele><time>2026-04-04T15:30:06.105Z</time></trkpt><trkpt lat="44.914105" lon="8.2772583"><ele>159.28571428571428</ele><time>2026-04-04T15:30:10.105Z</time></trkpt><trkpt lat="44.914035" lon="8.2772233"><ele>158.85714285714286</ele><time>2026-04-04T15:30:14.104Z</time></trkpt><trkpt lat="44.9139633" lon="8.2772117"><ele>158.42857142857144</ele><time>2026-04-04T15:30:18.106Z</time></trkpt><trkpt lat="44.9139" lon="8.2772283"><ele>158.0</ele><time>2026-04-04T15:30:21.099Z</time></trkpt><trkpt lat="44.9137983" lon="8.2772683"><ele>158.0</ele><time>2026-04-04T15:30:23.103Z</time></trkpt><trkpt lat="44.9137217" lon="8.2773067"><ele>158.0</ele><time>2026-04-04T15:30:24.102Z</time></trkpt><trkpt lat="44.9136417" lon="8.2773317"><ele>158.0</ele><time>2026-04-04T15:30:25.101Z</time></trkpt><trkpt lat="44.9135533" lon="8.27737"><ele>158.0</ele><time>2026-04-04T15:30:26.101Z</time></trkpt><trkpt lat="44.913465" lon="8.2774067"><ele>158.0</ele><time>2026-04-04T15:30:27.101Z</time></trkpt><trkpt lat="44.91337" lon="8.2774283"><ele>158.0</ele><time>2026-04-04T15:30:28.101Z</time></trkpt><trkpt lat="44.91327" lon="8.2774383"><ele>157.0</ele><time>2026-04-04T15:30:29.1Z</time></trkpt><trkpt lat="44.9131767" lon="8.277455"><ele>156.0</ele><time>2026-04-04T15:30:30.105Z</time></trkpt><trkpt lat="44.9130883" lon="8.27746"><ele>155.0</ele><time>2026-04-04T15:30:31.101Z</time></trkpt><trkpt lat="44.913005" lon="8.2774533"><ele>154.0</ele><time>2026-04-04T15:30:32.107Z</time></trkpt><trkpt lat="44.9129233" lon="8.2774167"><ele>153.0</ele><time>2026-04-04T15:30:33.101Z</time></trkpt><trkpt lat="44.9128417" lon="8.2773583"><ele>152.0</ele><time>2026-04-04T15:30:34.1Z</time></trkpt><trkpt lat="44.9127633" lon="8.27729"><ele>148.4</ele><time>2026-04-04T15:30:35.104Z</time></trkpt><trkpt lat="44.9126967" lon="8.2772217"><ele>144.79999999999998</ele><time>2026-04-04T15:30:36.104Z</time></trkpt><trkpt lat="44.91263" lon="8.2771167"><ele>141.2</ele><time>2026-04-04T15:30:37.102Z</time></trkpt><trkpt lat="44.9125633" lon="8.277015"><ele>137.6</ele><time>2026-04-04T15:30:38.104Z</time></trkpt><trkpt lat="44.9124967" lon="8.2769617"><ele>134.0</ele><time>2026-04-04T15:30:39.102Z</time></trkpt><trkpt lat="44.9124033" lon="8.2769167"><ele>132.75</ele><time>2026-04-04T15:30:40.105Z</time></trkpt><trkpt lat="44.9122783" lon="8.2768767"><ele>131.5</ele><time>2026-04-04T15:30:41.105Z</time></trkpt><trkpt lat="44.912155" lon="8.2768617"><ele>130.25</ele><time>2026-04-04T15:30:42.107Z</time></trkpt><trkpt lat="44.9120467" lon="8.27685"><ele>129.0</ele><time>2026-04-04T15:30:43.103Z</time></trkpt><trkpt lat="44.91195" lon="8.2768217"><ele>129.0</ele><time>2026-04-04T15:30:44.102Z</time></trkpt><trkpt lat="44.9118633" lon="8.2767733"><ele>129.0</ele><time>2026-04-04T15:30:45.105Z</time></trkpt><trkpt lat="44.91178" lon="8.2767233"><ele>129.0</ele><time>2026-04-04T15:30:46.101Z</time></trkpt><trkpt lat="44.9117117" lon="8.2766583"><ele>129.0</ele><time>2026-04-04T15:30:47.102Z</time></trkpt><trkpt lat="44.9116633" lon="8.2764783"><ele>129.0</ele><time>2026-04-04T15:30:48.101Z</time></trkpt><trkpt lat="44.9115967" lon="8.276305"><ele>127.5</ele><time>2026-04-04T15:30:49.104Z</time></trkpt><trkpt lat="44.91153" lon="8.27613"><ele>126.0</ele><time>2026-04-04T15:30:50.102Z</time></trkpt><trkpt lat="44.9114717" lon="8.27595"><ele>124.5</ele><time>2026-04-04T15:30:51.104Z</time></trkpt><trkpt lat="44.9114133" lon="8.275775"><ele>123.0</ele><time>2026-04-04T15:30:52.105Z</time></trkpt><trkpt lat="44.91137" lon="8.2756217"><ele>122.83333333333333</ele><time>2026-04-04T15:30:53.105Z</time></trkpt><trkpt lat="44.9113467" lon="8.2755"><ele>122.66666666666666</ele><time>2026-04-04T15:30:54.101Z</time></trkpt><trkpt lat="44.9113583" lon="8.2753833"><ele>122.5</ele><time>2026-04-04T15:30:55.106Z</time></trkpt><trkpt lat="44.9113917" lon="8.2752833"><ele>122.33333333333333</ele><time>2026-04-04T15:30:56.106Z</time></trkpt><trkpt lat="44.9114417" lon="8.2751983"><ele>122.16666666666666</ele><time>2026-04-04T15:30:57.103Z</time></trkpt><trkpt lat="44.9115017" lon="8.275125"><ele>122.0</ele><time>2026-04-04T15:30:58.103Z</time></trkpt><trkpt lat="44.9115683" lon="8.2750683"><ele>121.99999999999999</ele><time>2026-04-04T15:30:59.105Z</time></trkpt><trkpt lat="44.9116283" lon="8.2750383"><ele>122.0</ele><time>2026-04-04T15:31:00.103Z</time></trkpt><trkpt lat="44.9116883" lon="8.2749867"><ele>122.0</ele><time>2026-04-04T15:31:02.102Z</time></trkpt><trkpt lat="44.9117" lon="8.274885"><ele>122.0</ele><time>2026-04-04T15:31:04.102Z</time></trkpt><trkpt lat="44.911625" lon="8.2747683"><ele>121.99999999999999</ele><time>2026-04-04T15:31:06.107Z</time></trkpt><trkpt lat="44.91157" lon="8.27471"><ele>122.0</ele><time>2026-04-04T15:31:07.107Z</time></trkpt><trkpt lat="44.911515" lon="8.2746433"><ele>122.33333333333333</ele><time>2026-04-04T15:31:08.103Z</time></trkpt><trkpt lat="44.911465" lon="8.274575"><ele>122.66666666666666</ele><time>2026-04-04T15:31:09.1Z</time></trkpt><trkpt lat="44.911395" lon="8.27446"><ele>123.0</ele><time>2026-04-04T15:31:11.102Z</time></trkpt><trkpt lat="44.9114383" lon="8.2743483"><ele>123.33333333333334</ele><time>2026-04-04T15:31:14.099Z</time></trkpt><trkpt lat="44.9114983" lon="8.2743133"><ele>123.66666666666667</ele><time>2026-04-04T15:31:15.101Z</time></trkpt><trkpt lat="44.9115617" lon="8.2742667"><ele>124.0</ele><time>2026-04-04T15:31:16.104Z</time></trkpt><trkpt lat="44.9116467" lon="8.27422"><ele>124.0</ele><time>2026-04-04T15:31:17.102Z</time></trkpt><trkpt lat="44.911755" lon="8.274175"><ele>124.0</ele><time>2026-04-04T15:31:18.105Z</time></trkpt><trkpt lat="44.9118617" lon="8.2741483"><ele>124.0</ele><time>2026-04-04T15:31:19.103Z</time></trkpt><trkpt lat="44.9119683" lon="8.274125"><ele>124.0</ele><time>2026-04-04T15:31:20.099Z</time></trkpt><trkpt lat="44.9120733" lon="8.27412"><ele>124.0</ele><time>2026-04-04T15:31:21.099Z</time></trkpt><trkpt lat="44.9121717" lon="8.2741167"><ele>124.0</ele><time>2026-04-04T15:31:22.101Z</time></trkpt><trkpt lat="44.9122667" lon="8.2741183"><ele>124.0</ele><time>2026-04-04T15:31:23.1Z</time></trkpt><trkpt lat="44.91236" lon="8.27413"><ele>124.0</ele><time>2026-04-04T15:31:24.103Z</time></trkpt><trkpt lat="44.9124483" lon="8.274155"><ele>124.0</ele><time>2026-04-04T15:31:25.102Z</time></trkpt><trkpt lat="44.9125383" lon="8.274175"><ele>124.0</ele><time>2026-04-04T15:31:26.101Z</time></trkpt><trkpt lat="44.9126267" lon="8.2741917"><ele>123.80000000000001</ele><time>2026-04-04T15:31:27.1Z</time></trkpt><trkpt lat="44.9127133" lon="8.2742083"><ele>123.60000000000001</ele><time>2026-04-04T15:31:28.1Z</time></trkpt><trkpt lat="44.9128017" lon="8.2742233"><ele>123.4</ele><time>2026-04-04T15:31:29.104Z</time></trkpt><trkpt lat="44.91289" lon="8.2742217"><ele>123.2</ele><time>2026-04-04T15:31:30.104Z</time></trkpt><trkpt lat="44.9129817" lon="8.27421"><ele>123.0</ele><time>2026-04-04T15:31:31.104Z</time></trkpt><trkpt lat="44.9130717" lon="8.2741767"><ele>123.0</ele><time>2026-04-04T15:31:32.098Z</time></trkpt><trkpt lat="44.9131617" lon="8.2741133"><ele>123.0</ele><time>2026-04-04T15:31:33.102Z</time></trkpt><trkpt lat="44.9132517" lon="8.27402"><ele>123.0</ele><time>2026-04-04T15:31:34.099Z</time></trkpt><trkpt lat="44.91334" lon="8.2739083"><ele>123.0</ele><time>2026-04-04T15:31:35.101Z</time></trkpt><trkpt lat="44.9134283" lon="8.27379"><ele>123.25</ele><time>2026-04-04T15:31:36.104Z</time></trkpt><trkpt lat="44.9135183" lon="8.273675"><ele>123.5</ele><time>2026-04-04T15:31:37.104Z</time></trkpt><trkpt lat="44.9136133" lon="8.2735717"><ele>123.75</ele><time>2026-04-04T15:31:38.1Z</time></trkpt><trkpt lat="44.9137133" lon="8.27347"><ele>124.0</ele><time>2026-04-04T15:31:39.1Z</time></trkpt><trkpt lat="44.91381" lon="8.2733617"><ele>124.0</ele><time>2026-04-04T15:31:40.101Z</time></trkpt><trkpt lat="44.9139083" lon="8.2732617"><ele>124.0</ele><time>2026-04-04T15:31:41.102Z</time></trkpt><trkpt lat="44.9140033" lon="8.2731517"><ele>124.0</ele><time>2026-04-04T15:31:42.104Z</time></trkpt><trkpt lat="44.9140933" lon="8.2730633"><ele>124.0</ele><time>2026-04-04T15:31:43.104Z</time></trkpt><trkpt lat="44.914185" lon="8.272995"><ele>125.0</ele><time>2026-04-04T15:31:44.1Z</time></trkpt><trkpt lat="44.914275" lon="8.27294"><ele>126.0</ele><time>2026-04-04T15:31:45.1Z</time></trkpt><trkpt lat="44.9143617" lon="8.272895"><ele>127.0</ele><time>2026-04-04T15:31:46.102Z</time></trkpt><trkpt lat="44.91445" lon="8.2728517"><ele>128.0</ele><time>2026-04-04T15:31:47.103Z</time></trkpt><trkpt lat="44.914545" lon="8.2728083"><ele>129.0</ele><time>2026-04-04T15:31:48.101Z</time></trkpt><trkpt lat="44.9146483" lon="8.2727667"><ele>129.0</ele><time>2026-04-04T15:31:49.099Z</time></trkpt><trkpt lat="44.9147617" lon="8.2727167"><ele>129.0</ele><time>2026-04-04T15:31:50.098Z</time></trkpt><trkpt lat="44.9148833" lon="8.27267"><ele>129.0</ele><time>2026-04-04T15:31:51.106Z</time></trkpt><trkpt lat="44.9150067" lon="8.27263"><ele>129.0</ele><time>2026-04-04T15:31:52.102Z</time></trkpt><trkpt lat="44.9151283" lon="8.272585"><ele>128.75</ele><time>2026-04-04T15:31:53.099Z</time></trkpt><trkpt lat="44.9152483" lon="8.2725483"><ele>128.5</ele><time>2026-04-04T15:31:54.102Z</time></trkpt><trkpt lat="44.9153683" lon="8.272505"><ele>128.25</ele><time>2026-04-04T15:31:55.106Z</time></trkpt><trkpt lat="44.9154867" lon="8.2724533"><ele>128.0</ele><time>2026-04-04T15:31:56.1Z</time></trkpt><trkpt lat="44.9156067" lon="8.272395"><ele>128.0</ele><time>2026-04-04T15:31:57.105Z</time></trkpt><trkpt lat="44.915725" lon="8.2723383"><ele>128.0</ele><time>2026-04-04T15:31:58.099Z</time></trkpt><trkpt lat="44.9158417" lon="8.2722767"><ele>128.0</ele><time>2026-04-04T15:31:59.104Z</time></trkpt><trkpt lat="44.91596" lon="8.27222"><ele>128.0</ele><time>2026-04-04T15:32:00.103Z</time></trkpt><trkpt lat="44.9160767" lon="8.2721733"><ele>129.5</ele><time>2026-04-04T15:32:01.104Z</time></trkpt><trkpt lat="44.9161983" lon="8.2721433"><ele>131.0</ele><time>2026-04-04T15:32:02.101Z</time></trkpt><trkpt lat="44.91632" lon="8.2721317"><ele>132.5</ele><time>2026-04-04T15:32:03.097Z</time></trkpt><trkpt lat="44.916435" lon="8.27215"><ele>134.0</ele><time>2026-04-04T15:32:04.101Z</time></trkpt><trkpt lat="44.9165533" lon="8.27218"><ele>134.0</ele><time>2026-04-04T15:32:05.099Z</time></trkpt><trkpt lat="44.9166633" lon="8.2722267"><ele>134.0</ele><time>2026-04-04T15:32:06.105Z</time></trkpt><trkpt lat="44.9167683" lon="8.272295"><ele>134.0</ele><time>2026-04-04T15:32:07.099Z</time></trkpt><trkpt lat="44.9168683" lon="8.27237"><ele>134.0</ele><time>2026-04-04T15:32:08.102Z</time></trkpt><trkpt lat="44.9169717" lon="8.2724483"><ele>132.25</ele><time>2026-04-04T15:32:09.098Z</time></trkpt><trkpt lat="44.9170767" lon="8.2725217"><ele>130.5</ele><time>2026-04-04T15:32:10.1Z</time></trkpt><trkpt lat="44.9171833" lon="8.2725917"><ele>128.75</ele><time>2026-04-04T15:32:11.106Z</time></trkpt><trkpt lat="44.9172867" lon="8.272655"><ele>127.0</ele><time>2026-04-04T15:32:12.101Z</time></trkpt><trkpt lat="44.9173917" lon="8.2727117"><ele>127.0</ele><time>2026-04-04T15:32:13.108Z</time></trkpt><trkpt lat="44.9175" lon="8.2727617"><ele>127.0</ele><time>2026-04-04T15:32:14.099Z</time></trkpt><trkpt lat="44.91761" lon="8.2728133"><ele>127.0</ele><time>2026-04-04T15:32:15.099Z</time></trkpt><trkpt lat="44.917725" lon="8.2728483"><ele>127.0</ele><time>2026-04-04T15:32:16.101Z</time></trkpt><trkpt lat="44.9178433" lon="8.2728717"><ele>127.19999999999999</ele><time>2026-04-04T15:32:17.108Z</time></trkpt><trkpt lat="44.9179617" lon="8.2728883"><ele>127.39999999999999</ele><time>2026-04-04T15:32:18.102Z</time></trkpt><trkpt lat="44.918075" lon="8.272895"><ele>127.60000000000001</ele><time>2026-04-04T15:32:19.1Z</time></trkpt><trkpt lat="44.9181733" lon="8.2728933"><ele>127.80000000000001</ele><time>2026-04-04T15:32:20.097Z</time></trkpt><trkpt lat="44.9182533" lon="8.272895"><ele>128.0</ele><time>2026-04-04T15:32:21.101Z</time></trkpt><trkpt lat="44.9183217" lon="8.27289"><ele>128.5</ele><time>2026-04-04T15:32:22.102Z</time></trkpt><trkpt lat="44.9184183" lon="8.2728833"><ele>129.0</ele><time>2026-04-04T15:32:24.103Z</time></trkpt><trkpt lat="44.9184733" lon="8.2728283"><ele>129.5</ele><time>2026-04-04T15:32:26.102Z</time></trkpt><trkpt lat="44.9184733" lon="8.2727083"><ele>130.0</ele><time>2026-04-04T15:32:28.101Z</time></trkpt><trkpt lat="44.9184617" lon="8.2725517"><ele>130.5</ele><time>2026-04-04T15:32:30.101Z</time></trkpt><trkpt lat="44.9184733" lon="8.27244"><ele>131.0</ele><time>2026-04-04T15:32:32.099Z</time></trkpt><trkpt lat="44.9185517" lon="8.272385"><ele>131.0</ele><time>2026-04-04T15:33:19.099Z</time></trkpt><trkpt lat="44.9186133" lon="8.2723467"><ele>131.0</ele><time>2026-04-04T15:33:22.107Z</time></trkpt><trkpt lat="44.9186733" lon="8.2722917"><ele>131.0</ele><time>2026-04-04T15:33:25.104Z</time></trkpt><trkpt lat="44.9187" lon="8.2721767"><ele>140.0</ele><time>2026-04-04T15:33:28.098Z</time></trkpt></trkseg></trk></gpx>